<?xml version="1.0" encoding="UTF-8" standalone="no" ?>
<gpx xmlns="http://www.topografix.com/GPX/1/1" xmlns:xsi="http://www.w3.org/2001/XMLSchema-instance" xsi:schemaLocation="http://www.topografix.com/GPX/1/1 http://www.topografix.com/GPX/1/1/gpx.xsd" version="1.1" creator="VisuGPX - https://www.visugpx.com">
  <metadata>
    <name>Suède</name>
  </metadata>
  <trk>
    <name><![CDATA[Tour d'Europe: étape 082]]></name>
    <trkseg>
      <trkpt lat="68.21952" lon="19.70796">
        <ele>411.959119</ele>
        <time>2020-09-18T10:15:12.634Z</time>
      </trkpt>
      <trkpt lat="68.21868" lon="19.7114">
        <ele>421.462115</ele>
        <time>2020-09-18T10:17:59.615Z</time>
      </trkpt>
      <trkpt lat="68.21822" lon="19.71124">
        <ele>424.914318</ele>
        <time>2020-09-18T10:21:14.642Z</time>
      </trkpt>
      <trkpt lat="68.22028" lon="19.71295">
        <ele>402.704327</ele>
        <time>2020-09-18T10:22:19.642Z</time>
      </trkpt>
      <trkpt lat="68.21912" lon="19.71777">
        <ele>398.010034</ele>
        <time>2020-09-18T10:23:10.627Z</time>
      </trkpt>
      <trkpt lat="68.21825" lon="19.72313">
        <ele>401.797791</ele>
        <time>2020-09-18T10:24:00.652Z</time>
      </trkpt>
      <trkpt lat="68.21787" lon="19.72853">
        <ele>410.693538</ele>
        <time>2020-09-18T10:25:07.656Z</time>
      </trkpt>
      <trkpt lat="68.21705" lon="19.7341">
        <ele>420.259607</ele>
        <time>2020-09-18T10:26:30.635Z</time>
      </trkpt>
      <trkpt lat="68.21572" lon="19.73877">
        <ele>423.718875</ele>
        <time>2020-09-18T10:27:34.618Z</time>
      </trkpt>
      <trkpt lat="68.21426" lon="19.74264">
        <ele>424.342669</ele>
        <time>2020-09-18T10:28:14.636Z</time>
      </trkpt>
      <trkpt lat="68.21253" lon="19.74625">
        <ele>427.955025</ele>
        <time>2020-09-18T10:28:59.623Z</time>
      </trkpt>
      <trkpt lat="68.21068" lon="19.74925">
        <ele>435.142923</ele>
        <time>2020-09-18T10:29:59.625Z</time>
      </trkpt>
      <trkpt lat="68.20864" lon="19.75191">
        <ele>438.365188</ele>
        <time>2020-09-18T10:30:59.615Z</time>
      </trkpt>
      <trkpt lat="68.2064" lon="19.75413">
        <ele>440.401914</ele>
        <time>2020-09-18T10:32:02.616Z</time>
      </trkpt>
      <trkpt lat="68.20424" lon="19.75575">
        <ele>444.845631</ele>
        <time>2020-09-18T10:33:02.624Z</time>
      </trkpt>
      <trkpt lat="68.20206" lon="19.75728">
        <ele>447.453975</ele>
        <time>2020-09-18T10:34:02.624Z</time>
      </trkpt>
      <trkpt lat="68.19992" lon="19.75967">
        <ele>445.9717</ele>
        <time>2020-09-18T10:34:47.630Z</time>
      </trkpt>
      <trkpt lat="68.1981" lon="19.76256">
        <ele>447.477272</ele>
        <time>2020-09-18T10:35:27.635Z</time>
      </trkpt>
      <trkpt lat="68.19643" lon="19.7662">
        <ele>449.703644</ele>
        <time>2020-09-18T10:36:15.623Z</time>
      </trkpt>
      <trkpt lat="68.19476" lon="19.77113">
        <ele>452.584754</ele>
        <time>2020-09-18T10:37:15.633Z</time>
      </trkpt>
      <trkpt lat="68.19342" lon="19.77539">
        <ele>454.296482</ele>
        <time>2020-09-18T10:38:01.625Z</time>
      </trkpt>
      <trkpt lat="68.19203" lon="19.77924">
        <ele>456.364277</ele>
        <time>2020-09-18T10:38:45.619Z</time>
      </trkpt>
      <trkpt lat="68.19025" lon="19.78341">
        <ele>460.693655</ele>
        <time>2020-09-18T10:39:38.644Z</time>
      </trkpt>
      <trkpt lat="68.18842" lon="19.78695">
        <ele>465.790063</ele>
        <time>2020-09-18T10:40:37.623Z</time>
      </trkpt>
      <trkpt lat="68.18658" lon="19.78998">
        <ele>470.200652</ele>
        <time>2020-09-18T10:41:37.678Z</time>
      </trkpt>
      <trkpt lat="68.1848" lon="19.79262">
        <ele>471.475357</ele>
        <time>2020-09-18T10:42:19.624Z</time>
      </trkpt>
      <trkpt lat="68.18314" lon="19.79606">
        <ele>474.141885</ele>
        <time>2020-09-18T10:42:59.660Z</time>
      </trkpt>
      <trkpt lat="68.18185" lon="19.80008">
        <ele>475.798401</ele>
        <time>2020-09-18T10:43:41.639Z</time>
      </trkpt>
      <trkpt lat="68.18002" lon="19.8047">
        <ele>480.614019</ele>
        <time>2020-09-18T10:44:42.657Z</time>
      </trkpt>
      <trkpt lat="68.17791" lon="19.80708">
        <ele>481.336432</ele>
        <time>2020-09-18T10:45:22.637Z</time>
      </trkpt>
      <trkpt lat="68.17551" lon="19.80797">
        <ele>477.507712</ele>
        <time>2020-09-18T10:46:02.637Z</time>
      </trkpt>
      <trkpt lat="68.17318" lon="19.80697">
        <ele>476.103953</ele>
        <time>2020-09-18T10:46:44.616Z</time>
      </trkpt>
      <trkpt lat="68.17125" lon="19.80424">
        <ele>473.207165</ele>
        <time>2020-09-18T10:47:24.658Z</time>
      </trkpt>
      <trkpt lat="68.16948" lon="19.79932">
        <ele>468.020716</ele>
        <time>2020-09-18T10:48:04.621Z</time>
      </trkpt>
      <trkpt lat="68.16829" lon="19.79386">
        <ele>467.351906</ele>
        <time>2020-09-18T10:48:48.634Z</time>
      </trkpt>
      <trkpt lat="68.16721" lon="19.78904">
        <ele>471.479223</ele>
        <time>2020-09-18T10:49:48.643Z</time>
      </trkpt>
      <trkpt lat="68.16572" lon="19.78472">
        <ele>474.749338</ele>
        <time>2020-09-18T10:50:48.624Z</time>
      </trkpt>
      <trkpt lat="68.1639" lon="19.78146">
        <ele>476.790397</ele>
        <time>2020-09-18T10:51:37.623Z</time>
      </trkpt>
      <trkpt lat="68.16195" lon="19.77958">
        <ele>481.27998</ele>
        <time>2020-09-18T10:52:25.624Z</time>
      </trkpt>
      <trkpt lat="68.15995" lon="19.77826">
        <ele>489.654292</ele>
        <time>2020-09-18T10:53:42.673Z</time>
      </trkpt>
      <trkpt lat="68.15788" lon="19.77727">
        <ele>497.606785</ele>
        <time>2020-09-18T10:55:15.657Z</time>
      </trkpt>
      <trkpt lat="68.15587" lon="19.7766">
        <ele>503.840621</ele>
        <time>2020-09-18T10:56:32.641Z</time>
      </trkpt>
      <trkpt lat="68.15381" lon="19.77628">
        <ele>508.767063</ele>
        <time>2020-09-18T10:57:41.633Z</time>
      </trkpt>
      <trkpt lat="68.15152" lon="19.77715">
        <ele>514.33218</ele>
        <time>2020-09-18T10:59:03.631Z</time>
      </trkpt>
      <trkpt lat="68.14966" lon="19.77935">
        <ele>517.102007</ele>
        <time>2020-09-18T11:00:05.662Z</time>
      </trkpt>
      <trkpt lat="68.14794" lon="19.78261">
        <ele>518.146814</ele>
        <time>2020-09-18T11:00:52.623Z</time>
      </trkpt>
      <trkpt lat="68.14618" lon="19.78772">
        <ele>513.493937</ele>
        <time>2020-09-18T11:01:34.638Z</time>
      </trkpt>
      <trkpt lat="68.14456" lon="19.79301">
        <ele>512.214861</ele>
        <time>2020-09-18T11:02:14.682Z</time>
      </trkpt>
      <trkpt lat="68.14309" lon="19.7978">
        <ele>512.216359</ele>
        <time>2020-09-18T11:02:54.668Z</time>
      </trkpt>
      <trkpt lat="68.14169" lon="19.80206">
        <ele>514.412694</ele>
        <time>2020-09-18T11:03:36.643Z</time>
      </trkpt>
      <trkpt lat="68.13982" lon="19.80602">
        <ele>518.457106</ele>
        <time>2020-09-18T11:04:33.639Z</time>
      </trkpt>
      <trkpt lat="68.13763" lon="19.8088">
        <ele>521.948617</ele>
        <time>2020-09-18T11:05:33.643Z</time>
      </trkpt>
      <trkpt lat="68.1355" lon="19.81009">
        <ele>523.508565</ele>
        <time>2020-09-18T11:06:20.625Z</time>
      </trkpt>
      <trkpt lat="68.13351" lon="19.81045">
        <ele>523.828266</ele>
        <time>2020-09-18T11:07:00.647Z</time>
      </trkpt>
      <trkpt lat="68.13123" lon="19.81079">
        <ele>522.400265</ele>
        <time>2020-09-18T11:07:42.629Z</time>
      </trkpt>
      <trkpt lat="68.12916" lon="19.81107">
        <ele>522.729952</ele>
        <time>2020-09-18T11:08:22.640Z</time>
      </trkpt>
      <trkpt lat="68.12703" lon="19.81186">
        <ele>522.321246</ele>
        <time>2020-09-18T11:09:02.633Z</time>
      </trkpt>
      <trkpt lat="68.12491" lon="19.81368">
        <ele>523.309937</ele>
        <time>2020-09-18T11:09:44.684Z</time>
      </trkpt>
      <trkpt lat="68.123" lon="19.81636">
        <ele>523.514739</ele>
        <time>2020-09-18T11:10:24.658Z</time>
      </trkpt>
      <trkpt lat="68.12126" lon="19.8194">
        <ele>524.116356</ele>
        <time>2020-09-18T11:11:04.677Z</time>
      </trkpt>
      <trkpt lat="68.11945" lon="19.82246">
        <ele>525.516154</ele>
        <time>2020-09-18T11:11:46.633Z</time>
      </trkpt>
      <trkpt lat="68.11764" lon="19.82536">
        <ele>526.32857</ele>
        <time>2020-09-18T11:12:26.659Z</time>
      </trkpt>
      <trkpt lat="68.11557" lon="19.82842">
        <ele>525.239936</ele>
        <time>2020-09-18T11:13:06.640Z</time>
      </trkpt>
      <trkpt lat="68.11292" lon="19.83199">
        <ele>522.108134</ele>
        <time>2020-09-18T11:13:48.632Z</time>
      </trkpt>
      <trkpt lat="68.11055" lon="19.83476">
        <ele>519.638692</ele>
        <time>2020-09-18T11:14:28.658Z</time>
      </trkpt>
      <trkpt lat="68.10854" lon="19.83682">
        <ele>521.76965</ele>
        <time>2020-09-18T11:15:08.629Z</time>
      </trkpt>
      <trkpt lat="68.10656" lon="19.83864">
        <ele>524.272769</ele>
        <time>2020-09-18T11:15:50.639Z</time>
      </trkpt>
      <trkpt lat="68.10437" lon="19.84032">
        <ele>524.027418</ele>
        <time>2020-09-18T11:16:30.644Z</time>
      </trkpt>
      <trkpt lat="68.10214" lon="19.84134">
        <ele>524.126172</ele>
        <time>2020-09-18T11:17:10.641Z</time>
      </trkpt>
      <trkpt lat="68.10011" lon="19.84167">
        <ele>526.82229</ele>
        <time>2020-09-18T11:17:52.646Z</time>
      </trkpt>
      <trkpt lat="68.098" lon="19.84147">
        <ele>525.446704</ele>
        <time>2020-09-18T11:18:32.626Z</time>
      </trkpt>
      <trkpt lat="68.09566" lon="19.8408">
        <ele>521.795322</ele>
        <time>2020-09-18T11:19:12.630Z</time>
      </trkpt>
      <trkpt lat="68.09345" lon="19.83987">
        <ele>521.017573</ele>
        <time>2020-09-18T11:19:54.660Z</time>
      </trkpt>
      <trkpt lat="68.09162" lon="19.83872">
        <ele>522.106646</ele>
        <time>2020-09-18T11:20:34.643Z</time>
      </trkpt>
      <trkpt lat="68.08966" lon="19.83729">
        <ele>520.177097</ele>
        <time>2020-09-18T11:21:14.637Z</time>
      </trkpt>
      <trkpt lat="68.08763" lon="19.83563">
        <ele>515.925591</ele>
        <time>2020-09-18T11:21:56.642Z</time>
      </trkpt>
      <trkpt lat="68.08572" lon="19.83441">
        <ele>514.99973</ele>
        <time>2020-09-18T11:22:36.652Z</time>
      </trkpt>
      <trkpt lat="68.08381" lon="19.83364">
        <ele>516.98368</ele>
        <time>2020-09-18T11:23:16.643Z</time>
      </trkpt>
      <trkpt lat="68.08175" lon="19.83324">
        <ele>518.524286</ele>
        <time>2020-09-18T11:23:58.663Z</time>
      </trkpt>
      <trkpt lat="68.07981" lon="19.83322">
        <ele>519.107489</ele>
        <time>2020-09-18T11:24:38.675Z</time>
      </trkpt>
      <trkpt lat="68.07782" lon="19.83345">
        <ele>518.772181</ele>
        <time>2020-09-18T11:25:18.639Z</time>
      </trkpt>
      <trkpt lat="68.07568" lon="19.83301">
        <ele>518.931727</ele>
        <time>2020-09-18T11:26:00.642Z</time>
      </trkpt>
      <trkpt lat="68.07378" lon="19.83158">
        <ele>516.775344</ele>
        <time>2020-09-18T11:26:40.640Z</time>
      </trkpt>
      <trkpt lat="68.07202" lon="19.82949">
        <ele>517.537662</ele>
        <time>2020-09-18T11:27:20.701Z</time>
      </trkpt>
      <trkpt lat="68.07009" lon="19.82742">
        <ele>518.197954</ele>
        <time>2020-09-18T11:28:02.637Z</time>
      </trkpt>
      <trkpt lat="68.06821" lon="19.82598">
        <ele>516.633022</ele>
        <time>2020-09-18T11:28:42.634Z</time>
      </trkpt>
      <trkpt lat="68.06623" lon="19.82504">
        <ele>516.957379</ele>
        <time>2020-09-18T11:29:22.663Z</time>
      </trkpt>
      <trkpt lat="68.06413" lon="19.82469">
        <ele>520.392601</ele>
        <time>2020-09-18T11:30:06.634Z</time>
      </trkpt>
      <trkpt lat="68.06181" lon="19.82496">
        <ele>520.669455</ele>
        <time>2020-09-18T11:30:59.657Z</time>
      </trkpt>
      <trkpt lat="68.05978" lon="19.82572">
        <ele>518.589692</ele>
        <time>2020-09-18T11:31:40.634Z</time>
      </trkpt>
      <trkpt lat="68.05765" lon="19.82691">
        <ele>518.220884</ele>
        <time>2020-09-18T11:32:22.681Z</time>
      </trkpt>
      <trkpt lat="68.05565" lon="19.82808">
        <ele>518.191846</ele>
        <time>2020-09-18T11:33:06.669Z</time>
      </trkpt>
      <trkpt lat="68.05346" lon="19.82924">
        <ele>519.460086</ele>
        <time>2020-09-18T11:33:56.638Z</time>
      </trkpt>
      <trkpt lat="68.05093" lon="19.83018">
        <ele>520.931526</ele>
        <time>2020-09-18T11:34:58.633Z</time>
      </trkpt>
      <trkpt lat="68.04873" lon="19.83052">
        <ele>523.277635</ele>
        <time>2020-09-18T11:35:58.676Z</time>
      </trkpt>
      <trkpt lat="68.04646" lon="19.83039">
        <ele>522.468457</ele>
        <time>2020-09-18T11:36:50.627Z</time>
      </trkpt>
      <trkpt lat="68.04394" lon="19.83001">
        <ele>518.75432</ele>
        <time>2020-09-18T11:37:32.637Z</time>
      </trkpt>
      <trkpt lat="68.04153" lon="19.83053">
        <ele>516.180311</ele>
        <time>2020-09-18T11:38:12.630Z</time>
      </trkpt>
      <trkpt lat="68.03934" lon="19.83164">
        <ele>517.157314</ele>
        <time>2020-09-18T11:38:52.644Z</time>
      </trkpt>
      <trkpt lat="68.03721" lon="19.83297">
        <ele>516.5719</ele>
        <time>2020-09-18T11:39:34.628Z</time>
      </trkpt>
      <trkpt lat="68.03527" lon="19.83423">
        <ele>515.709209</ele>
        <time>2020-09-18T11:40:14.682Z</time>
      </trkpt>
      <trkpt lat="68.03341" lon="19.8354">
        <ele>515.819926</ele>
        <time>2020-09-18T11:40:54.687Z</time>
      </trkpt>
      <trkpt lat="68.03141" lon="19.83652">
        <ele>515.104926</ele>
        <time>2020-09-18T11:41:36.646Z</time>
      </trkpt>
      <trkpt lat="68.02927" lon="19.83743">
        <ele>513.716044</ele>
        <time>2020-09-18T11:42:16.655Z</time>
      </trkpt>
      <trkpt lat="68.02703" lon="19.83777">
        <ele>510.018727</ele>
        <time>2020-09-18T11:42:56.654Z</time>
      </trkpt>
      <trkpt lat="68.02447" lon="19.83752">
        <ele>505.359434</ele>
        <time>2020-09-18T11:43:38.683Z</time>
      </trkpt>
      <trkpt lat="68.02223" lon="19.83733">
        <ele>503.46547</ele>
        <time>2020-09-18T11:44:18.638Z</time>
      </trkpt>
      <trkpt lat="68.02004" lon="19.83763">
        <ele>505.133648</ele>
        <time>2020-09-18T11:45:00.630Z</time>
      </trkpt>
      <trkpt lat="68.01793" lon="19.83837">
        <ele>504.136858</ele>
        <time>2020-09-18T11:45:40.644Z</time>
      </trkpt>
      <trkpt lat="68.01546" lon="19.83981">
        <ele>499.798503</ele>
        <time>2020-09-18T11:46:20.631Z</time>
      </trkpt>
      <trkpt lat="68.01312" lon="19.8416">
        <ele>495.678083</ele>
        <time>2020-09-18T11:47:02.673Z</time>
      </trkpt>
      <trkpt lat="68.0111" lon="19.84357">
        <ele>499.506889</ele>
        <time>2020-09-18T11:47:55.661Z</time>
      </trkpt>
      <trkpt lat="68.00907" lon="19.8459">
        <ele>502.555705</ele>
        <time>2020-09-18T11:48:55.645Z</time>
      </trkpt>
      <trkpt lat="68.00714" lon="19.84847">
        <ele>501.828799</ele>
        <time>2020-09-18T11:49:41.664Z</time>
      </trkpt>
      <trkpt lat="68.00546" lon="19.85105">
        <ele>501.777875</ele>
        <time>2020-09-18T11:50:22.658Z</time>
      </trkpt>
      <trkpt lat="68.00386" lon="19.85388">
        <ele>501.704095</ele>
        <time>2020-09-18T11:51:02.675Z</time>
      </trkpt>
      <trkpt lat="68.00207" lon="19.85742">
        <ele>500.450636</ele>
        <time>2020-09-18T11:51:44.634Z</time>
      </trkpt>
      <trkpt lat="68.00008" lon="19.8619">
        <ele>498.038627</ele>
        <time>2020-09-18T11:52:24.674Z</time>
      </trkpt>
      <trkpt lat="67.99833" lon="19.86648">
        <ele>497.299562</ele>
        <time>2020-09-18T11:53:04.674Z</time>
      </trkpt>
      <trkpt lat="67.99673" lon="19.87127">
        <ele>497.44795</ele>
        <time>2020-09-18T11:53:46.659Z</time>
      </trkpt>
      <trkpt lat="67.99543" lon="19.87671">
        <ele>496.615486</ele>
        <time>2020-09-18T11:54:26.683Z</time>
      </trkpt>
      <trkpt lat="67.99471" lon="19.8834">
        <ele>493.446503</ele>
        <time>2020-09-18T11:55:06.642Z</time>
      </trkpt>
      <trkpt lat="67.99472" lon="19.89032">
        <ele>490.585966</ele>
        <time>2020-09-18T11:55:48.677Z</time>
      </trkpt>
      <trkpt lat="67.99449" lon="19.89509">
        <ele>492.70187</ele>
        <time>2020-09-18T12:09:47.978Z</time>
      </trkpt>
      <trkpt lat="67.99479" lon="19.89994">
        <ele>492.893132</ele>
        <time>2020-09-18T12:10:45.000Z</time>
      </trkpt>
      <trkpt lat="67.99419" lon="19.9054">
        <ele>491.484575</ele>
        <time>2020-09-18T12:11:28.025Z</time>
      </trkpt>
      <trkpt lat="67.99308" lon="19.91085">
        <ele>491.438426</ele>
        <time>2020-09-18T12:12:07.996Z</time>
      </trkpt>
      <trkpt lat="67.99193" lon="19.9164">
        <ele>491.93092</ele>
        <time>2020-09-18T12:12:47.988Z</time>
      </trkpt>
      <trkpt lat="67.99062" lon="19.92266">
        <ele>491.652865</ele>
        <time>2020-09-18T12:13:29.990Z</time>
      </trkpt>
      <trkpt lat="67.98946" lon="19.9283">
        <ele>491.323698</ele>
        <time>2020-09-18T12:14:09.986Z</time>
      </trkpt>
      <trkpt lat="67.98807" lon="19.9337">
        <ele>488.677773</ele>
        <time>2020-09-18T12:14:49.999Z</time>
      </trkpt>
      <trkpt lat="67.98645" lon="19.93797">
        <ele>489.4466</ele>
        <time>2020-09-18T12:15:34.032Z</time>
      </trkpt>
      <trkpt lat="67.98439" lon="19.94163">
        <ele>491.012366</ele>
        <time>2020-09-18T12:16:34.023Z</time>
      </trkpt>
      <trkpt lat="67.98245" lon="19.94383">
        <ele>488.05987</ele>
        <time>2020-09-18T12:17:16.011Z</time>
      </trkpt>
      <trkpt lat="67.98029" lon="19.94586">
        <ele>486.467228</ele>
        <time>2020-09-18T12:17:58.014Z</time>
      </trkpt>
      <trkpt lat="67.97837" lon="19.94813">
        <ele>488.550595</ele>
        <time>2020-09-18T12:18:37.988Z</time>
      </trkpt>
      <trkpt lat="67.9766" lon="19.95062">
        <ele>490.748039</ele>
        <time>2020-09-18T12:19:18.004Z</time>
      </trkpt>
      <trkpt lat="67.97482" lon="19.95329">
        <ele>492.599906</ele>
        <time>2020-09-18T12:19:59.989Z</time>
      </trkpt>
      <trkpt lat="67.97317" lon="19.95601">
        <ele>494.996356</ele>
        <time>2020-09-18T12:20:39.994Z</time>
      </trkpt>
      <trkpt lat="67.97121" lon="19.95955">
        <ele>496.299431</ele>
        <time>2020-09-18T12:21:33.985Z</time>
      </trkpt>
      <trkpt lat="67.96919" lon="19.96356">
        <ele>499.840781</ele>
        <time>2020-09-18T12:22:34.982Z</time>
      </trkpt>
      <trkpt lat="67.96754" lon="19.96718">
        <ele>504.994735</ele>
        <time>2020-09-18T12:23:34.987Z</time>
      </trkpt>
      <trkpt lat="67.96596" lon="19.97196">
        <ele>504.02594</ele>
        <time>2020-09-18T12:24:20.989Z</time>
      </trkpt>
      <trkpt lat="67.96439" lon="19.97745">
        <ele>503.047496</ele>
        <time>2020-09-18T12:25:03.009Z</time>
      </trkpt>
      <trkpt lat="67.96295" lon="19.98209">
        <ele>507.045434</ele>
        <time>2020-09-18T12:25:52.983Z</time>
      </trkpt>
      <trkpt lat="67.96186" lon="19.98744">
        <ele>506.01956</ele>
        <time>2020-09-18T12:26:32.985Z</time>
      </trkpt>
      <trkpt lat="67.9607" lon="19.99434">
        <ele>502.441006</ele>
        <time>2020-09-18T12:27:15.029Z</time>
      </trkpt>
      <trkpt lat="67.95917" lon="19.99974">
        <ele>495.437369</ele>
        <time>2020-09-18T12:27:44.989Z</time>
      </trkpt>
      <trkpt lat="67.95729" lon="20.00433">
        <ele>489.759067</ele>
        <time>2020-09-18T12:28:18.981Z</time>
      </trkpt>
      <trkpt lat="67.95556" lon="20.00899">
        <ele>491.200628</ele>
        <time>2020-09-18T12:29:01.015Z</time>
      </trkpt>
      <trkpt lat="67.95407" lon="20.0139">
        <ele>493.596045</ele>
        <time>2020-09-18T12:29:40.998Z</time>
      </trkpt>
      <trkpt lat="67.95276" lon="20.01881">
        <ele>495.319572</ele>
        <time>2020-09-18T12:30:21.021Z</time>
      </trkpt>
      <trkpt lat="67.9514" lon="20.02477">
        <ele>495.077414</ele>
        <time>2020-09-18T12:31:02.995Z</time>
      </trkpt>
      <trkpt lat="67.94976" lon="20.03229">
        <ele>489.292228</ele>
        <time>2020-09-18T12:31:42.997Z</time>
      </trkpt>
      <trkpt lat="67.94799" lon="20.03934">
        <ele>484.33918</ele>
        <time>2020-09-18T12:32:22.983Z</time>
      </trkpt>
      <trkpt lat="67.94636" lon="20.04477">
        <ele>484.907288</ele>
        <time>2020-09-18T12:33:04.991Z</time>
      </trkpt>
      <trkpt lat="67.94488" lon="20.04898">
        <ele>485.245964</ele>
        <time>2020-09-18T12:33:44.979Z</time>
      </trkpt>
      <trkpt lat="67.94307" lon="20.05291">
        <ele>489.416426</ele>
        <time>2020-09-18T12:34:38.994Z</time>
      </trkpt>
      <trkpt lat="67.94105" lon="20.05598">
        <ele>491.10918</ele>
        <time>2020-09-18T12:35:28.012Z</time>
      </trkpt>
      <trkpt lat="67.93881" lon="20.05844">
        <ele>488.681539</ele>
        <time>2020-09-18T12:36:07.987Z</time>
      </trkpt>
      <trkpt lat="67.93683" lon="20.06057">
        <ele>488.580845</ele>
        <time>2020-09-18T12:36:48.012Z</time>
      </trkpt>
      <trkpt lat="67.9349" lon="20.06312">
        <ele>489.660576</ele>
        <time>2020-09-18T12:37:30.004Z</time>
      </trkpt>
      <trkpt lat="67.93298" lon="20.06629">
        <ele>487.686766</ele>
        <time>2020-09-18T12:38:10.002Z</time>
      </trkpt>
      <trkpt lat="67.93094" lon="20.07059">
        <ele>485.327056</ele>
        <time>2020-09-18T12:38:52.011Z</time>
      </trkpt>
      <trkpt lat="67.92909" lon="20.07477">
        <ele>483.616539</ele>
        <time>2020-09-18T12:39:31.996Z</time>
      </trkpt>
      <trkpt lat="67.92717" lon="20.0786">
        <ele>481.786025</ele>
        <time>2020-09-18T12:40:11.996Z</time>
      </trkpt>
      <trkpt lat="67.92487" lon="20.08207">
        <ele>482.166088</ele>
        <time>2020-09-18T12:40:53.991Z</time>
      </trkpt>
      <trkpt lat="67.92256" lon="20.08495">
        <ele>480.867823</ele>
        <time>2020-09-18T12:41:34.032Z</time>
      </trkpt>
      <trkpt lat="67.92049" lon="20.08757">
        <ele>482.539343</ele>
        <time>2020-09-18T12:42:14.000Z</time>
      </trkpt>
      <trkpt lat="67.91853" lon="20.09004">
        <ele>483.428899</ele>
        <time>2020-09-18T12:42:56.022Z</time>
      </trkpt>
      <trkpt lat="67.91679" lon="20.09256">
        <ele>486.22366</ele>
        <time>2020-09-18T12:43:35.999Z</time>
      </trkpt>
      <trkpt lat="67.91508" lon="20.09536">
        <ele>488.98166</ele>
        <time>2020-09-18T12:44:16.016Z</time>
      </trkpt>
      <trkpt lat="67.91326" lon="20.09876">
        <ele>489.858469</ele>
        <time>2020-09-18T12:44:58.061Z</time>
      </trkpt>
      <trkpt lat="67.91142" lon="20.10245">
        <ele>488.289162</ele>
        <time>2020-09-18T12:45:38.043Z</time>
      </trkpt>
      <trkpt lat="67.9098" lon="20.10539">
        <ele>489.242316</ele>
        <time>2020-09-18T12:46:18.012Z</time>
      </trkpt>
      <trkpt lat="67.90802" lon="20.10805">
        <ele>491.973245</ele>
        <time>2020-09-18T12:47:02.006Z</time>
      </trkpt>
      <trkpt lat="67.90628" lon="20.1103">
        <ele>491.90478</ele>
        <time>2020-09-18T12:47:41.991Z</time>
      </trkpt>
      <trkpt lat="67.90446" lon="20.11257">
        <ele>492.852055</ele>
        <time>2020-09-18T12:48:22.001Z</time>
      </trkpt>
      <trkpt lat="67.90262" lon="20.11524">
        <ele>495.702853</ele>
        <time>2020-09-18T12:49:04.023Z</time>
      </trkpt>
      <trkpt lat="67.90065" lon="20.11856">
        <ele>499.138256</ele>
        <time>2020-09-18T12:49:59.998Z</time>
      </trkpt>
      <trkpt lat="67.89889" lon="20.1218">
        <ele>500.605711</ele>
        <time>2020-09-18T12:50:49.015Z</time>
      </trkpt>
      <trkpt lat="67.89729" lon="20.1248">
        <ele>502.204031</ele>
        <time>2020-09-18T12:51:31.044Z</time>
      </trkpt>
      <trkpt lat="67.89566" lon="20.12778">
        <ele>504.89499</ele>
        <time>2020-09-18T12:52:14.001Z</time>
      </trkpt>
      <trkpt lat="67.89336" lon="20.1304">
        <ele>506.898186</ele>
        <time>2020-09-18T12:53:14.007Z</time>
      </trkpt>
      <trkpt lat="67.89099" lon="20.13151">
        <ele>508.120024</ele>
        <time>2020-09-18T12:54:17.026Z</time>
      </trkpt>
      <trkpt lat="67.88859" lon="20.13337">
        <ele>509.340109</ele>
        <time>2020-09-18T12:55:16.011Z</time>
      </trkpt>
      <trkpt lat="67.88641" lon="20.13637">
        <ele>513.996412</ele>
        <time>2020-09-18T12:56:16.036Z</time>
      </trkpt>
      <trkpt lat="67.88439" lon="20.14026">
        <ele>516.785703</ele>
        <time>2020-09-18T12:57:19.004Z</time>
      </trkpt>
      <trkpt lat="67.88268" lon="20.14502">
        <ele>518.545667</ele>
        <time>2020-09-18T12:58:18.997Z</time>
      </trkpt>
      <trkpt lat="67.8818" lon="20.15092">
        <ele>523.486001</ele>
        <time>2020-09-18T12:59:14.996Z</time>
      </trkpt>
      <trkpt lat="67.88105" lon="20.15647">
        <ele>526.749019</ele>
        <time>2020-09-18T13:00:18.029Z</time>
      </trkpt>
      <trkpt lat="67.8799" lon="20.16106">
        <ele>528.73209</ele>
        <time>2020-09-18T13:01:18.018Z</time>
      </trkpt>
      <trkpt lat="67.87853" lon="20.16593">
        <ele>530.799465</ele>
        <time>2020-09-18T13:02:18.003Z</time>
      </trkpt>
      <trkpt lat="67.87759" lon="20.17168">
        <ele>536.825963</ele>
        <time>2020-09-18T13:03:21.014Z</time>
      </trkpt>
      <trkpt lat="67.8773" lon="20.17768">
        <ele>537.214938</ele>
        <time>2020-09-18T13:04:14.993Z</time>
      </trkpt>
      <trkpt lat="67.87736" lon="20.18305">
        <ele>536.222917</ele>
        <time>2020-09-18T13:04:55.018Z</time>
      </trkpt>
      <trkpt lat="67.87667" lon="20.18795">
        <ele>537.566571</ele>
        <time>2020-09-18T13:05:38.010Z</time>
      </trkpt>
      <trkpt lat="67.87562" lon="20.19279">
        <ele>541.2044</ele>
        <time>2020-09-18T13:06:28.008Z</time>
      </trkpt>
      <trkpt lat="67.87354" lon="20.19267">
        <ele>533.649224</ele>
        <time>2020-09-18T13:07:08.025Z</time>
      </trkpt>
      <trkpt lat="67.87159" lon="20.19552">
        <ele>532.341635</ele>
        <time>2020-09-18T13:07:58.050Z</time>
      </trkpt>
      <trkpt lat="67.86953" lon="20.19841">
        <ele>534.941437</ele>
        <time>2020-09-18T13:08:52.003Z</time>
      </trkpt>
      <trkpt lat="67.86749" lon="20.20055">
        <ele>541.03539</ele>
        <time>2020-09-18T13:09:41.998Z</time>
      </trkpt>
      <trkpt lat="67.86644" lon="20.20398">
        <ele>542.709484</ele>
        <time>2020-09-18T13:10:53.012Z</time>
      </trkpt>
      <trkpt lat="67.86504" lon="20.20673">
        <ele>551.080302</ele>
        <time>2020-09-18T13:12:22.000Z</time>
      </trkpt>
      <trkpt lat="67.86352" lon="20.20975">
        <ele>556.780314</ele>
        <time>2020-09-18T13:13:40.019Z</time>
      </trkpt>
      <trkpt lat="67.86317" lon="20.2149">
        <ele>564.275559</ele>
        <time>2020-09-18T13:15:06.035Z</time>
      </trkpt>
      <trkpt lat="67.86129" lon="20.2169">
        <ele>575.406964</ele>
        <time>2020-09-18T13:16:31.026Z</time>
      </trkpt>
      <trkpt lat="67.85997" lon="20.22102">
        <ele>580.869624</ele>
        <time>2020-09-18T13:17:39.997Z</time>
      </trkpt>
      <trkpt lat="67.85879" lon="20.2251">
        <ele>585.178711</ele>
        <time>2020-09-18T13:19:11.030Z</time>
      </trkpt>
      <trkpt lat="67.8577" lon="20.22926">
        <ele>610.935484</ele>
        <time>2020-09-18T13:21:12.003Z</time>
      </trkpt>
      <trkpt lat="67.85584" lon="20.23258">
        <ele>602.523362</ele>
        <time>2020-09-18T13:22:14.032Z</time>
      </trkpt>
      <trkpt lat="67.85359" lon="20.23769">
        <ele>591.275177</ele>
        <time>2020-09-18T13:22:58.007Z</time>
      </trkpt>
      <trkpt lat="67.85262" lon="20.24354">
        <ele>572.789135</ele>
        <time>2020-09-18T13:23:43.011Z</time>
      </trkpt>
      <trkpt lat="67.85195" lon="20.24927">
        <ele>558.589722</ele>
        <time>2020-09-18T13:24:30.052Z</time>
      </trkpt>
      <trkpt lat="67.85192" lon="20.25447">
        <ele>552.939627</ele>
        <time>2020-09-18T13:25:25.017Z</time>
      </trkpt>
    </trkseg>
  </trk>
  <trk>
    <name><![CDATA[Tour d'Europe: étape 083]]></name>
    <trkseg>
      <trkpt lat="67.85218" lon="20.25872">
        <ele>542.098292</ele>
        <time>2020-09-19T09:40:24.218Z</time>
      </trkpt>
      <trkpt lat="67.85014" lon="20.25574">
        <ele>530.138279</ele>
        <time>2020-09-19T09:41:05.254Z</time>
      </trkpt>
      <trkpt lat="67.84895" lon="20.2602">
        <ele>525.897464</ele>
        <time>2020-09-19T09:41:49.215Z</time>
      </trkpt>
      <trkpt lat="67.84886" lon="20.26623">
        <ele>514.831829</ele>
        <time>2020-09-19T09:42:29.223Z</time>
      </trkpt>
      <trkpt lat="67.84854" lon="20.2722">
        <ele>514.028283</ele>
        <time>2020-09-19T09:43:09.191Z</time>
      </trkpt>
      <trkpt lat="67.84822" lon="20.2777">
        <ele>513.015087</ele>
        <time>2020-09-19T09:43:50.189Z</time>
      </trkpt>
      <trkpt lat="67.84808" lon="20.28435">
        <ele>508.719568</ele>
        <time>2020-09-19T09:44:30.245Z</time>
      </trkpt>
      <trkpt lat="67.84807" lon="20.29094">
        <ele>497.226212</ele>
        <time>2020-09-19T09:45:10.253Z</time>
      </trkpt>
      <trkpt lat="67.84813" lon="20.29801">
        <ele>485.988435</ele>
        <time>2020-09-19T09:45:52.207Z</time>
      </trkpt>
      <trkpt lat="67.84747" lon="20.3017">
        <ele>488.060422</ele>
        <time>2020-09-19T09:46:40.203Z</time>
      </trkpt>
      <trkpt lat="67.84711" lon="20.30545">
        <ele>483.143278</ele>
        <time>2020-09-19T09:47:47.205Z</time>
      </trkpt>
      <trkpt lat="67.84682" lon="20.31104">
        <ele>478.379134</ele>
        <time>2020-09-19T09:48:29.196Z</time>
      </trkpt>
      <trkpt lat="67.84583" lon="20.31486">
        <ele>467.808419</ele>
        <time>2020-09-19T09:49:07.195Z</time>
      </trkpt>
      <trkpt lat="67.84709" lon="20.31838">
        <ele>466.467003</ele>
        <time>2020-09-19T09:50:26.198Z</time>
      </trkpt>
      <trkpt lat="67.84875" lon="20.32029">
        <ele>473.358008</ele>
        <time>2020-09-19T09:51:49.194Z</time>
      </trkpt>
      <trkpt lat="67.84948" lon="20.32484">
        <ele>478.163492</ele>
        <time>2020-09-19T09:52:53.204Z</time>
      </trkpt>
      <trkpt lat="67.84902" lon="20.33009">
        <ele>476.891039</ele>
        <time>2020-09-19T09:53:40.202Z</time>
      </trkpt>
      <trkpt lat="67.84832" lon="20.3358">
        <ele>472.515286</ele>
        <time>2020-09-19T09:54:27.209Z</time>
      </trkpt>
      <trkpt lat="67.84753" lon="20.34236">
        <ele>464.322851</ele>
        <time>2020-09-19T09:55:07.191Z</time>
      </trkpt>
      <trkpt lat="67.84693" lon="20.34909">
        <ele>456.96105</ele>
        <time>2020-09-19T09:55:45.190Z</time>
      </trkpt>
      <trkpt lat="67.84579" lon="20.35202">
        <ele>449.63661</ele>
        <time>2020-09-19T09:56:34.221Z</time>
      </trkpt>
      <trkpt lat="67.84625" lon="20.35836">
        <ele>442.495984</ele>
        <time>2020-09-19T09:57:14.247Z</time>
      </trkpt>
      <trkpt lat="67.84657" lon="20.3658">
        <ele>439.731976</ele>
        <time>2020-09-19T09:57:54.254Z</time>
      </trkpt>
      <trkpt lat="67.84648" lon="20.37228">
        <ele>439.439622</ele>
        <time>2020-09-19T09:58:32.254Z</time>
      </trkpt>
      <trkpt lat="67.84631" lon="20.37874">
        <ele>437.186954</ele>
        <time>2020-09-19T09:59:12.251Z</time>
      </trkpt>
      <trkpt lat="67.84611" lon="20.38507">
        <ele>437.373374</ele>
        <time>2020-09-19T09:59:52.202Z</time>
      </trkpt>
      <trkpt lat="67.84545" lon="20.39143">
        <ele>438.014153</ele>
        <time>2020-09-19T10:00:30.217Z</time>
      </trkpt>
      <trkpt lat="67.84447" lon="20.39823">
        <ele>434.386064</ele>
        <time>2020-09-19T10:01:10.247Z</time>
      </trkpt>
      <trkpt lat="67.84351" lon="20.40618">
        <ele>427.494135</ele>
        <time>2020-09-19T10:01:50.211Z</time>
      </trkpt>
      <trkpt lat="67.84271" lon="20.41323">
        <ele>421.88849</ele>
        <time>2020-09-19T10:02:30.218Z</time>
      </trkpt>
      <trkpt lat="67.84201" lon="20.41962">
        <ele>419.066429</ele>
        <time>2020-09-19T10:03:08.187Z</time>
      </trkpt>
      <trkpt lat="67.84162" lon="20.42637">
        <ele>419.07811</ele>
        <time>2020-09-19T10:03:48.229Z</time>
      </trkpt>
      <trkpt lat="67.8417" lon="20.43291">
        <ele>413.784521</ele>
        <time>2020-09-19T10:04:28.235Z</time>
      </trkpt>
      <trkpt lat="67.84164" lon="20.4389">
        <ele>413.057519</ele>
        <time>2020-09-19T10:05:06.233Z</time>
      </trkpt>
      <trkpt lat="67.84108" lon="20.44529">
        <ele>414.181275</ele>
        <time>2020-09-19T10:05:46.251Z</time>
      </trkpt>
      <trkpt lat="67.84031" lon="20.45138">
        <ele>413.871573</ele>
        <time>2020-09-19T10:06:26.241Z</time>
      </trkpt>
      <trkpt lat="67.83974" lon="20.45716">
        <ele>416.242949</ele>
        <time>2020-09-19T10:07:15.266Z</time>
      </trkpt>
      <trkpt lat="67.83936" lon="20.46211">
        <ele>416.790947</ele>
        <time>2020-09-19T10:07:53.226Z</time>
      </trkpt>
      <trkpt lat="67.83912" lon="20.46825">
        <ele>414.20394</ele>
        <time>2020-09-19T10:08:33.203Z</time>
      </trkpt>
      <trkpt lat="67.839" lon="20.4744">
        <ele>411.257626</ele>
        <time>2020-09-19T10:09:13.210Z</time>
      </trkpt>
      <trkpt lat="67.83888" lon="20.47954">
        <ele>410.865417</ele>
        <time>2020-09-19T10:09:51.266Z</time>
      </trkpt>
      <trkpt lat="67.83863" lon="20.48492">
        <ele>413.416929</ele>
        <time>2020-09-19T10:10:31.295Z</time>
      </trkpt>
      <trkpt lat="67.83825" lon="20.49143">
        <ele>410.334498</ele>
        <time>2020-09-19T10:11:11.244Z</time>
      </trkpt>
      <trkpt lat="67.83761" lon="20.49763">
        <ele>406.804275</ele>
        <time>2020-09-19T10:11:51.232Z</time>
      </trkpt>
      <trkpt lat="67.83693" lon="20.50252">
        <ele>405.628145</ele>
        <time>2020-09-19T10:12:29.249Z</time>
      </trkpt>
      <trkpt lat="67.83607" lon="20.50746">
        <ele>407.278676</ele>
        <time>2020-09-19T10:13:09.224Z</time>
      </trkpt>
      <trkpt lat="67.83511" lon="20.51195">
        <ele>408.682076</ele>
        <time>2020-09-19T10:13:50.227Z</time>
      </trkpt>
      <trkpt lat="67.83404" lon="20.5163">
        <ele>408.382829</ele>
        <time>2020-09-19T10:14:30.210Z</time>
      </trkpt>
      <trkpt lat="67.83283" lon="20.52052">
        <ele>407.876199</ele>
        <time>2020-09-19T10:15:08.241Z</time>
      </trkpt>
      <trkpt lat="67.83147" lon="20.52456">
        <ele>411.333076</ele>
        <time>2020-09-19T10:15:49.274Z</time>
      </trkpt>
      <trkpt lat="67.82975" lon="20.52891">
        <ele>421.87956</ele>
        <time>2020-09-19T10:16:47.208Z</time>
      </trkpt>
      <trkpt lat="67.82819" lon="20.53242">
        <ele>429.987938</ele>
        <time>2020-09-19T10:17:44.249Z</time>
      </trkpt>
      <trkpt lat="67.82652" lon="20.53609">
        <ele>434.198908</ele>
        <time>2020-09-19T10:18:44.194Z</time>
      </trkpt>
      <trkpt lat="67.82484" lon="20.53985">
        <ele>434.352103</ele>
        <time>2020-09-19T10:19:44.251Z</time>
      </trkpt>
      <trkpt lat="67.82324" lon="20.54458">
        <ele>435.926659</ele>
        <time>2020-09-19T10:20:44.226Z</time>
      </trkpt>
      <trkpt lat="67.82199" lon="20.54971">
        <ele>435.168177</ele>
        <time>2020-09-19T10:21:41.193Z</time>
      </trkpt>
      <trkpt lat="67.82098" lon="20.55447">
        <ele>434.302776</ele>
        <time>2020-09-19T10:22:21.226Z</time>
      </trkpt>
      <trkpt lat="67.81983" lon="20.56004">
        <ele>431.849577</ele>
        <time>2020-09-19T10:23:01.207Z</time>
      </trkpt>
      <trkpt lat="67.81868" lon="20.56562">
        <ele>432.629332</ele>
        <time>2020-09-19T10:23:39.224Z</time>
      </trkpt>
      <trkpt lat="67.8176" lon="20.57091">
        <ele>440.060004</ele>
        <time>2020-09-19T10:24:29.226Z</time>
      </trkpt>
      <trkpt lat="67.81664" lon="20.5756">
        <ele>440.404572</ele>
        <time>2020-09-19T10:25:11.209Z</time>
      </trkpt>
      <trkpt lat="67.81552" lon="20.58086">
        <ele>436.915081</ele>
        <time>2020-09-19T10:25:51.222Z</time>
      </trkpt>
      <trkpt lat="67.81406" lon="20.58545">
        <ele>435.698538</ele>
        <time>2020-09-19T10:26:29.217Z</time>
      </trkpt>
      <trkpt lat="67.81227" lon="20.58863">
        <ele>441.851999</ele>
        <time>2020-09-19T10:27:16.196Z</time>
      </trkpt>
      <trkpt lat="67.81045" lon="20.59033">
        <ele>440.77945</ele>
        <time>2020-09-19T10:27:56.216Z</time>
      </trkpt>
      <trkpt lat="67.80836" lon="20.59082">
        <ele>445.141935</ele>
        <time>2020-09-19T10:28:50.227Z</time>
      </trkpt>
      <trkpt lat="67.80642" lon="20.59049">
        <ele>453.227857</ele>
        <time>2020-09-19T10:29:52.216Z</time>
      </trkpt>
      <trkpt lat="67.80417" lon="20.59046">
        <ele>451.707156</ele>
        <time>2020-09-19T10:30:43.237Z</time>
      </trkpt>
      <trkpt lat="67.80174" lon="20.59099">
        <ele>446.675966</ele>
        <time>2020-09-19T10:31:23.205Z</time>
      </trkpt>
      <trkpt lat="67.79966" lon="20.59187">
        <ele>448.188824</ele>
        <time>2020-09-19T10:32:01.203Z</time>
      </trkpt>
      <trkpt lat="67.79757" lon="20.59306">
        <ele>452.191669</ele>
        <time>2020-09-19T10:32:49.227Z</time>
      </trkpt>
      <trkpt lat="67.79522" lon="20.59445">
        <ele>454.586583</ele>
        <time>2020-09-19T10:33:49.267Z</time>
      </trkpt>
      <trkpt lat="67.79311" lon="20.5957">
        <ele>455.519302</ele>
        <time>2020-09-19T10:34:38.210Z</time>
      </trkpt>
      <trkpt lat="67.79107" lon="20.59687">
        <ele>457.622021</ele>
        <time>2020-09-19T10:35:23.254Z</time>
      </trkpt>
      <trkpt lat="67.78887" lon="20.5989">
        <ele>462.754854</ele>
        <time>2020-09-19T10:36:23.267Z</time>
      </trkpt>
      <trkpt lat="67.78689" lon="20.60193">
        <ele>467.363102</ele>
        <time>2020-09-19T10:37:23.197Z</time>
      </trkpt>
      <trkpt lat="67.78501" lon="20.60484">
        <ele>469.382446</ele>
        <time>2020-09-19T10:38:20.232Z</time>
      </trkpt>
      <trkpt lat="67.78302" lon="20.60796">
        <ele>468.976268</ele>
        <time>2020-09-19T10:39:20.250Z</time>
      </trkpt>
      <trkpt lat="67.78127" lon="20.61069">
        <ele>476.745718</ele>
        <time>2020-09-19T10:40:27.204Z</time>
      </trkpt>
      <trkpt lat="67.77962" lon="20.61328">
        <ele>483.278878</ele>
        <time>2020-09-19T10:41:28.225Z</time>
      </trkpt>
      <trkpt lat="67.77757" lon="20.61534">
        <ele>480.54994</ele>
        <time>2020-09-19T10:42:17.249Z</time>
      </trkpt>
      <trkpt lat="67.77484" lon="20.61602">
        <ele>473.531877</ele>
        <time>2020-09-19T10:42:57.224Z</time>
      </trkpt>
      <trkpt lat="67.77231" lon="20.61693">
        <ele>472.257064</ele>
        <time>2020-09-19T10:43:37.234Z</time>
      </trkpt>
      <trkpt lat="67.77024" lon="20.61878">
        <ele>472.533542</ele>
        <time>2020-09-19T10:44:15.214Z</time>
      </trkpt>
      <trkpt lat="67.76803" lon="20.62091">
        <ele>472.447509</ele>
        <time>2020-09-19T10:44:55.249Z</time>
      </trkpt>
      <trkpt lat="67.76602" lon="20.62314">
        <ele>475.283618</ele>
        <time>2020-09-19T10:45:35.237Z</time>
      </trkpt>
      <trkpt lat="67.7643" lon="20.62511">
        <ele>476.634128</ele>
        <time>2020-09-19T10:46:13.239Z</time>
      </trkpt>
      <trkpt lat="67.76246" lon="20.62718">
        <ele>477.542289</ele>
        <time>2020-09-19T10:46:53.228Z</time>
      </trkpt>
      <trkpt lat="67.76053" lon="20.62927">
        <ele>477.841411</ele>
        <time>2020-09-19T10:47:33.226Z</time>
      </trkpt>
      <trkpt lat="67.75833" lon="20.631">
        <ele>482.713967</ele>
        <time>2020-09-19T10:48:27.231Z</time>
      </trkpt>
      <trkpt lat="67.75637" lon="20.63267">
        <ele>483.601941</ele>
        <time>2020-09-19T10:49:10.230Z</time>
      </trkpt>
      <trkpt lat="67.754" lon="20.63557">
        <ele>478.960123</ele>
        <time>2020-09-19T10:49:50.259Z</time>
      </trkpt>
      <trkpt lat="67.75187" lon="20.63887">
        <ele>477.191583</ele>
        <time>2020-09-19T10:50:30.231Z</time>
      </trkpt>
      <trkpt lat="67.75" lon="20.64176">
        <ele>478.86797</ele>
        <time>2020-09-19T10:51:08.229Z</time>
      </trkpt>
      <trkpt lat="67.74801" lon="20.645">
        <ele>476.684312</ele>
        <time>2020-09-19T10:51:48.223Z</time>
      </trkpt>
      <trkpt lat="67.74632" lon="20.64919">
        <ele>475.367683</ele>
        <time>2020-09-19T10:52:28.257Z</time>
      </trkpt>
      <trkpt lat="67.74499" lon="20.65364">
        <ele>475.183269</ele>
        <time>2020-09-19T10:53:08.232Z</time>
      </trkpt>
      <trkpt lat="67.74376" lon="20.65784">
        <ele>476.527029</ele>
        <time>2020-09-19T10:53:46.232Z</time>
      </trkpt>
      <trkpt lat="67.74234" lon="20.66223">
        <ele>477.479283</ele>
        <time>2020-09-19T10:54:26.218Z</time>
      </trkpt>
      <trkpt lat="67.74048" lon="20.6664">
        <ele>476.980079</ele>
        <time>2020-09-19T10:55:06.229Z</time>
      </trkpt>
      <trkpt lat="67.73889" lon="20.66923">
        <ele>478.463558</ele>
        <time>2020-09-19T10:55:44.250Z</time>
      </trkpt>
      <trkpt lat="67.73712" lon="20.67238">
        <ele>479.621011</ele>
        <time>2020-09-19T10:56:25.222Z</time>
      </trkpt>
      <trkpt lat="67.73504" lon="20.67645">
        <ele>477.267525</ele>
        <time>2020-09-19T10:57:05.220Z</time>
      </trkpt>
      <trkpt lat="67.73301" lon="20.68061">
        <ele>472.918781</ele>
        <time>2020-09-19T10:57:45.275Z</time>
      </trkpt>
      <trkpt lat="67.73139" lon="20.68473">
        <ele>471.416455</ele>
        <time>2020-09-19T10:58:23.210Z</time>
      </trkpt>
      <trkpt lat="67.72989" lon="20.69032">
        <ele>467.907469</ele>
        <time>2020-09-19T10:59:03.246Z</time>
      </trkpt>
      <trkpt lat="67.72864" lon="20.69687">
        <ele>461.639308</ele>
        <time>2020-09-19T10:59:43.231Z</time>
      </trkpt>
      <trkpt lat="67.72714" lon="20.70397">
        <ele>451.927991</ele>
        <time>2020-09-19T11:00:21.241Z</time>
      </trkpt>
      <trkpt lat="67.72526" lon="20.70984">
        <ele>448.045174</ele>
        <time>2020-09-19T11:01:01.233Z</time>
      </trkpt>
      <trkpt lat="67.72327" lon="20.71427">
        <ele>446.046777</ele>
        <time>2020-09-19T11:01:41.261Z</time>
      </trkpt>
      <trkpt lat="67.72135" lon="20.71837">
        <ele>447.390027</ele>
        <time>2020-09-19T11:02:21.285Z</time>
      </trkpt>
      <trkpt lat="67.71974" lon="20.72181">
        <ele>450.111564</ele>
        <time>2020-09-19T11:02:59.225Z</time>
      </trkpt>
      <trkpt lat="67.71805" lon="20.7255">
        <ele>451.232082</ele>
        <time>2020-09-19T11:03:39.223Z</time>
      </trkpt>
      <trkpt lat="67.71627" lon="20.72928">
        <ele>449.811708</ele>
        <time>2020-09-19T11:04:19.238Z</time>
      </trkpt>
      <trkpt lat="67.71446" lon="20.73322">
        <ele>448.090596</ele>
        <time>2020-09-19T11:04:57.230Z</time>
      </trkpt>
      <trkpt lat="67.71233" lon="20.73785">
        <ele>441.884577</ele>
        <time>2020-09-19T11:05:37.224Z</time>
      </trkpt>
      <trkpt lat="67.70995" lon="20.74297">
        <ele>434.027483</ele>
        <time>2020-09-19T11:06:17.248Z</time>
      </trkpt>
      <trkpt lat="67.70778" lon="20.74787">
        <ele>429.395226</ele>
        <time>2020-09-19T11:06:57.221Z</time>
      </trkpt>
      <trkpt lat="67.70601" lon="20.75243">
        <ele>428.854047</ele>
        <time>2020-09-19T11:07:35.265Z</time>
      </trkpt>
      <trkpt lat="67.70429" lon="20.75744">
        <ele>428.930183</ele>
        <time>2020-09-19T11:08:15.242Z</time>
      </trkpt>
      <trkpt lat="67.70274" lon="20.76258">
        <ele>428.070832</ele>
        <time>2020-09-19T11:08:55.266Z</time>
      </trkpt>
      <trkpt lat="67.70146" lon="20.76737">
        <ele>428.280086</ele>
        <time>2020-09-19T11:09:33.216Z</time>
      </trkpt>
      <trkpt lat="67.70018" lon="20.77278">
        <ele>425.646323</ele>
        <time>2020-09-19T11:10:13.234Z</time>
      </trkpt>
      <trkpt lat="67.69893" lon="20.77888">
        <ele>423.238429</ele>
        <time>2020-09-19T11:10:53.226Z</time>
      </trkpt>
      <trkpt lat="67.69794" lon="20.78448">
        <ele>421.948165</ele>
        <time>2020-09-19T11:11:33.277Z</time>
      </trkpt>
      <trkpt lat="67.69715" lon="20.7897">
        <ele>420.980278</ele>
        <time>2020-09-19T11:12:11.252Z</time>
      </trkpt>
      <trkpt lat="67.69635" lon="20.79535">
        <ele>419.985033</ele>
        <time>2020-09-19T11:12:51.230Z</time>
      </trkpt>
      <trkpt lat="67.69549" lon="20.80146">
        <ele>418.038544</ele>
        <time>2020-09-19T11:13:31.231Z</time>
      </trkpt>
      <trkpt lat="67.69459" lon="20.80779">
        <ele>414.418655</ele>
        <time>2020-09-19T11:14:11.255Z</time>
      </trkpt>
      <trkpt lat="67.69384" lon="20.81314">
        <ele>412.510946</ele>
        <time>2020-09-19T11:14:54.235Z</time>
      </trkpt>
      <trkpt lat="67.69283" lon="20.81994">
        <ele>408.0879</ele>
        <time>2020-09-19T11:15:34.223Z</time>
      </trkpt>
      <trkpt lat="67.69181" lon="20.82636">
        <ele>405.824799</ele>
        <time>2020-09-19T11:16:14.219Z</time>
      </trkpt>
      <trkpt lat="67.69072" lon="20.83259">
        <ele>401.811408</ele>
        <time>2020-09-19T11:16:52.234Z</time>
      </trkpt>
      <trkpt lat="67.6895" lon="20.83908">
        <ele>397.882013</ele>
        <time>2020-09-19T11:17:32.245Z</time>
      </trkpt>
      <trkpt lat="67.6882" lon="20.84551">
        <ele>395.847187</ele>
        <time>2020-09-19T11:18:12.248Z</time>
      </trkpt>
      <trkpt lat="67.68673" lon="20.85222">
        <ele>390.268847</ele>
        <time>2020-09-19T11:18:52.225Z</time>
      </trkpt>
      <trkpt lat="67.6852" lon="20.85874">
        <ele>386.116707</ele>
        <time>2020-09-19T11:19:30.213Z</time>
      </trkpt>
      <trkpt lat="67.68386" lon="20.86393">
        <ele>386.20468</ele>
        <time>2020-09-19T11:20:10.216Z</time>
      </trkpt>
      <trkpt lat="67.68271" lon="20.86837">
        <ele>387.014573</ele>
        <time>2020-09-19T11:20:50.235Z</time>
      </trkpt>
      <trkpt lat="67.68148" lon="20.87312">
        <ele>384.868172</ele>
        <time>2020-09-19T11:21:28.228Z</time>
      </trkpt>
      <trkpt lat="67.67991" lon="20.87915">
        <ele>379.616163</ele>
        <time>2020-09-19T11:22:08.250Z</time>
      </trkpt>
      <trkpt lat="67.6783" lon="20.8853">
        <ele>377.356145</ele>
        <time>2020-09-19T11:22:48.249Z</time>
      </trkpt>
      <trkpt lat="67.67699" lon="20.89069">
        <ele>377.596572</ele>
        <time>2020-09-19T11:23:28.240Z</time>
      </trkpt>
      <trkpt lat="67.67589" lon="20.89597">
        <ele>376.500434</ele>
        <time>2020-09-19T11:24:06.264Z</time>
      </trkpt>
      <trkpt lat="67.67479" lon="20.90214">
        <ele>374.840016</ele>
        <time>2020-09-19T11:24:46.261Z</time>
      </trkpt>
      <trkpt lat="67.67374" lon="20.90803">
        <ele>374.303643</ele>
        <time>2020-09-19T11:25:26.229Z</time>
      </trkpt>
      <trkpt lat="67.67272" lon="20.91431">
        <ele>373.105455</ele>
        <time>2020-09-19T11:26:04.254Z</time>
      </trkpt>
      <trkpt lat="67.67222" lon="20.91995">
        <ele>372.744713</ele>
        <time>2020-09-19T11:26:44.250Z</time>
      </trkpt>
      <trkpt lat="67.67219" lon="20.92684">
        <ele>369.388551</ele>
        <time>2020-09-19T11:27:24.265Z</time>
      </trkpt>
      <trkpt lat="67.67218" lon="20.93352">
        <ele>367.962408</ele>
        <time>2020-09-19T11:28:04.235Z</time>
      </trkpt>
      <trkpt lat="67.67183" lon="20.94005">
        <ele>363.938908</ele>
        <time>2020-09-19T11:28:42.247Z</time>
      </trkpt>
      <trkpt lat="67.67115" lon="20.94602">
        <ele>360.580719</ele>
        <time>2020-09-19T11:39:37.232Z</time>
      </trkpt>
      <trkpt lat="67.66988" lon="20.95262">
        <ele>357.191392</ele>
        <time>2020-09-19T11:40:17.240Z</time>
      </trkpt>
      <trkpt lat="67.6689" lon="20.95742">
        <ele>360.980669</ele>
        <time>2020-09-19T11:40:55.240Z</time>
      </trkpt>
      <trkpt lat="67.668" lon="20.9619">
        <ele>365.649765</ele>
        <time>2020-09-19T11:41:36.286Z</time>
      </trkpt>
      <trkpt lat="67.66712" lon="20.96724">
        <ele>364.15508</ele>
        <time>2020-09-19T11:42:16.229Z</time>
      </trkpt>
      <trkpt lat="67.66664" lon="20.97399">
        <ele>356.688495</ele>
        <time>2020-09-19T11:42:56.217Z</time>
      </trkpt>
      <trkpt lat="67.66631" lon="20.98094">
        <ele>350.490217</ele>
        <time>2020-09-19T11:43:32.234Z</time>
      </trkpt>
      <trkpt lat="67.66539" lon="20.98647">
        <ele>353.862851</ele>
        <time>2020-09-19T11:44:24.280Z</time>
      </trkpt>
      <trkpt lat="67.66395" lon="20.99119">
        <ele>352.317701</ele>
        <time>2020-09-19T11:45:04.258Z</time>
      </trkpt>
      <trkpt lat="67.66179" lon="20.99578">
        <ele>348.808332</ele>
        <time>2020-09-19T11:45:42.282Z</time>
      </trkpt>
      <trkpt lat="67.65996" lon="21.00043">
        <ele>347.786834</ele>
        <time>2020-09-19T11:46:22.266Z</time>
      </trkpt>
      <trkpt lat="67.65858" lon="21.00535">
        <ele>348.454169</ele>
        <time>2020-09-19T11:47:02.263Z</time>
      </trkpt>
      <trkpt lat="67.65705" lon="21.00901">
        <ele>348.642137</ele>
        <time>2020-09-19T11:47:42.238Z</time>
      </trkpt>
      <trkpt lat="67.65543" lon="21.01165">
        <ele>348.857755</ele>
        <time>2020-09-19T11:48:20.231Z</time>
      </trkpt>
      <trkpt lat="67.65362" lon="21.01443">
        <ele>350.17368</ele>
        <time>2020-09-19T11:49:00.222Z</time>
      </trkpt>
      <trkpt lat="67.6518" lon="21.0172">
        <ele>352.194554</ele>
        <time>2020-09-19T11:49:40.276Z</time>
      </trkpt>
      <trkpt lat="67.65" lon="21.02012">
        <ele>353.725742</ele>
        <time>2020-09-19T11:50:25.251Z</time>
      </trkpt>
      <trkpt lat="67.64832" lon="21.0241">
        <ele>356.777932</ele>
        <time>2020-09-19T11:51:23.326Z</time>
      </trkpt>
      <trkpt lat="67.64675" lon="21.02996">
        <ele>350.265835</ele>
        <time>2020-09-19T11:52:03.225Z</time>
      </trkpt>
      <trkpt lat="67.64584" lon="21.03596">
        <ele>348.408182</ele>
        <time>2020-09-19T11:52:43.230Z</time>
      </trkpt>
      <trkpt lat="67.64518" lon="21.04069">
        <ele>350.568265</ele>
        <time>2020-09-19T11:53:21.231Z</time>
      </trkpt>
      <trkpt lat="67.64458" lon="21.0458">
        <ele>351.597426</ele>
        <time>2020-09-19T11:54:04.235Z</time>
      </trkpt>
      <trkpt lat="67.64375" lon="21.05073">
        <ele>351.740311</ele>
        <time>2020-09-19T11:54:44.241Z</time>
      </trkpt>
      <trkpt lat="67.64262" lon="21.05502">
        <ele>353.197417</ele>
        <time>2020-09-19T11:55:22.223Z</time>
      </trkpt>
      <trkpt lat="67.6412" lon="21.05875">
        <ele>352.464183</ele>
        <time>2020-09-19T11:56:02.217Z</time>
      </trkpt>
      <trkpt lat="67.63957" lon="21.06167">
        <ele>352.997155</ele>
        <time>2020-09-19T11:56:42.266Z</time>
      </trkpt>
      <trkpt lat="67.63738" lon="21.06445">
        <ele>359.940831</ele>
        <time>2020-09-19T11:57:42.229Z</time>
      </trkpt>
      <trkpt lat="67.6356" lon="21.06665">
        <ele>365.800972</ele>
        <time>2020-09-19T11:58:39.257Z</time>
      </trkpt>
      <trkpt lat="67.6338" lon="21.06992">
        <ele>365.891242</ele>
        <time>2020-09-19T11:59:30.275Z</time>
      </trkpt>
      <trkpt lat="67.63233" lon="21.07367">
        <ele>367.345997</ele>
        <time>2020-09-19T12:00:11.233Z</time>
      </trkpt>
      <trkpt lat="67.63106" lon="21.07724">
        <ele>370.048003</ele>
        <time>2020-09-19T12:00:51.230Z</time>
      </trkpt>
      <trkpt lat="67.62941" lon="21.0818">
        <ele>366.369909</ele>
        <time>2020-09-19T12:01:31.247Z</time>
      </trkpt>
      <trkpt lat="67.62761" lon="21.08507">
        <ele>366.99795</ele>
        <time>2020-09-19T12:02:11.222Z</time>
      </trkpt>
      <trkpt lat="67.62567" lon="21.08725">
        <ele>376.337871</ele>
        <time>2020-09-19T12:03:08.253Z</time>
      </trkpt>
      <trkpt lat="67.62375" lon="21.08906">
        <ele>383.348401</ele>
        <time>2020-09-19T12:04:20.268Z</time>
      </trkpt>
      <trkpt lat="67.62172" lon="21.09106">
        <ele>392.6228</ele>
        <time>2020-09-19T12:05:38.237Z</time>
      </trkpt>
      <trkpt lat="67.61985" lon="21.09287">
        <ele>407.214261</ele>
        <time>2020-09-19T12:07:22.251Z</time>
      </trkpt>
      <trkpt lat="67.61805" lon="21.09461">
        <ele>419.82807</ele>
        <time>2020-09-19T12:09:03.237Z</time>
      </trkpt>
      <trkpt lat="67.61622" lon="21.09684">
        <ele>421.912102</ele>
        <time>2020-09-19T12:10:28.250Z</time>
      </trkpt>
      <trkpt lat="67.61456" lon="21.09975">
        <ele>423.598696</ele>
        <time>2020-09-19T12:11:48.246Z</time>
      </trkpt>
      <trkpt lat="67.61301" lon="21.10323">
        <ele>426.475631</ele>
        <time>2020-09-19T12:13:06.223Z</time>
      </trkpt>
      <trkpt lat="67.61151" lon="21.10684">
        <ele>427.581625</ele>
        <time>2020-09-19T12:14:03.298Z</time>
      </trkpt>
      <trkpt lat="67.60989" lon="21.11065">
        <ele>430.577523</ele>
        <time>2020-09-19T12:14:53.253Z</time>
      </trkpt>
      <trkpt lat="67.6079" lon="21.11421">
        <ele>435.850428</ele>
        <time>2020-09-19T12:15:53.257Z</time>
      </trkpt>
      <trkpt lat="67.60591" lon="21.11734">
        <ele>437.890901</ele>
        <time>2020-09-19T12:16:50.268Z</time>
      </trkpt>
      <trkpt lat="67.60366" lon="21.11979">
        <ele>437.387302</ele>
        <time>2020-09-19T12:17:48.268Z</time>
      </trkpt>
      <trkpt lat="67.60129" lon="21.12112">
        <ele>438.812836</ele>
        <time>2020-09-19T12:18:44.243Z</time>
      </trkpt>
      <trkpt lat="67.59898" lon="21.12155">
        <ele>439.279937</ele>
        <time>2020-09-19T12:19:42.258Z</time>
      </trkpt>
      <trkpt lat="67.59686" lon="21.122">
        <ele>440.717917</ele>
        <time>2020-09-19T12:20:34.265Z</time>
      </trkpt>
      <trkpt lat="67.59441" lon="21.12336">
        <ele>436.6272</ele>
        <time>2020-09-19T12:21:14.255Z</time>
      </trkpt>
      <trkpt lat="67.59217" lon="21.12475">
        <ele>435.559045</ele>
        <time>2020-09-19T12:21:54.268Z</time>
      </trkpt>
      <trkpt lat="67.58978" lon="21.1262">
        <ele>436.827077</ele>
        <time>2020-09-19T12:22:32.254Z</time>
      </trkpt>
      <trkpt lat="67.5874" lon="21.12767">
        <ele>435.070582</ele>
        <time>2020-09-19T12:23:12.262Z</time>
      </trkpt>
      <trkpt lat="67.5852" lon="21.12904">
        <ele>432.861479</ele>
        <time>2020-09-19T12:23:52.285Z</time>
      </trkpt>
      <trkpt lat="67.58277" lon="21.1307">
        <ele>432.78728</ele>
        <time>2020-09-19T12:24:32.270Z</time>
      </trkpt>
      <trkpt lat="67.58099" lon="21.13274">
        <ele>437.20094</ele>
        <time>2020-09-19T12:25:10.268Z</time>
      </trkpt>
      <trkpt lat="67.5792" lon="21.13498">
        <ele>440.292286</ele>
        <time>2020-09-19T12:25:52.274Z</time>
      </trkpt>
      <trkpt lat="67.57716" lon="21.13745">
        <ele>438.838537</ele>
        <time>2020-09-19T12:26:32.236Z</time>
      </trkpt>
      <trkpt lat="67.5753" lon="21.13914">
        <ele>440.772296</ele>
        <time>2020-09-19T12:27:12.251Z</time>
      </trkpt>
      <trkpt lat="67.57348" lon="21.14037">
        <ele>442.399959</ele>
        <time>2020-09-19T12:27:53.227Z</time>
      </trkpt>
      <trkpt lat="67.57156" lon="21.14161">
        <ele>441.826279</ele>
        <time>2020-09-19T12:28:36.241Z</time>
      </trkpt>
      <trkpt lat="67.56972" lon="21.14283">
        <ele>441.432802</ele>
        <time>2020-09-19T12:29:16.270Z</time>
      </trkpt>
      <trkpt lat="67.56796" lon="21.14402">
        <ele>442.302657</ele>
        <time>2020-09-19T12:29:55.230Z</time>
      </trkpt>
      <trkpt lat="67.56605" lon="21.14526">
        <ele>444.483038</ele>
        <time>2020-09-19T12:30:37.251Z</time>
      </trkpt>
      <trkpt lat="67.56425" lon="21.14646">
        <ele>448.345686</ele>
        <time>2020-09-19T12:31:17.253Z</time>
      </trkpt>
      <trkpt lat="67.56237" lon="21.14765">
        <ele>448.534784</ele>
        <time>2020-09-19T12:31:58.276Z</time>
      </trkpt>
      <trkpt lat="67.56053" lon="21.14828">
        <ele>447.082429</ele>
        <time>2020-09-19T12:32:37.242Z</time>
      </trkpt>
      <trkpt lat="67.55818" lon="21.14816">
        <ele>445.441721</ele>
        <time>2020-09-19T12:33:17.297Z</time>
      </trkpt>
      <trkpt lat="67.55552" lon="21.14715">
        <ele>441.926042</ele>
        <time>2020-09-19T12:33:57.245Z</time>
      </trkpt>
      <trkpt lat="67.55293" lon="21.14611">
        <ele>440.975821</ele>
        <time>2020-09-19T12:34:35.254Z</time>
      </trkpt>
      <trkpt lat="67.5504" lon="21.14511">
        <ele>438.500088</ele>
        <time>2020-09-19T12:35:15.222Z</time>
      </trkpt>
      <trkpt lat="67.54791" lon="21.14413">
        <ele>433.966429</ele>
        <time>2020-09-19T12:35:55.262Z</time>
      </trkpt>
      <trkpt lat="67.54537" lon="21.14364">
        <ele>434.736481</ele>
        <time>2020-09-19T12:36:35.242Z</time>
      </trkpt>
      <trkpt lat="67.54247" lon="21.14547">
        <ele>428.049785</ele>
        <time>2020-09-19T12:37:13.249Z</time>
      </trkpt>
      <trkpt lat="67.54007" lon="21.14844">
        <ele>424.218548</ele>
        <time>2020-09-19T12:37:53.285Z</time>
      </trkpt>
      <trkpt lat="67.5376" lon="21.15119">
        <ele>417.613858</ele>
        <time>2020-09-19T12:38:24.263Z</time>
      </trkpt>
      <trkpt lat="67.53569" lon="21.15199">
        <ele>408.507271</ele>
        <time>2020-09-19T12:38:43.250Z</time>
      </trkpt>
      <trkpt lat="67.53357" lon="21.1517">
        <ele>400.275461</ele>
        <time>2020-09-19T12:39:05.248Z</time>
      </trkpt>
      <trkpt lat="67.53096" lon="21.15082">
        <ele>397.186432</ele>
        <time>2020-09-19T12:39:45.290Z</time>
      </trkpt>
      <trkpt lat="67.52878" lon="21.15004">
        <ele>398.224929</ele>
        <time>2020-09-19T12:40:25.230Z</time>
      </trkpt>
      <trkpt lat="67.52687" lon="21.14941">
        <ele>396.122991</ele>
        <time>2020-09-19T12:41:03.221Z</time>
      </trkpt>
      <trkpt lat="67.52488" lon="21.14873">
        <ele>398.819164</ele>
        <time>2020-09-19T12:41:44.241Z</time>
      </trkpt>
      <trkpt lat="67.52297" lon="21.14754">
        <ele>401.689355</ele>
        <time>2020-09-19T12:42:25.231Z</time>
      </trkpt>
      <trkpt lat="67.52122" lon="21.14611">
        <ele>402.604407</ele>
        <time>2020-09-19T12:43:03.248Z</time>
      </trkpt>
      <trkpt lat="67.51929" lon="21.14459">
        <ele>403.495116</ele>
        <time>2020-09-19T12:43:43.243Z</time>
      </trkpt>
      <trkpt lat="67.51722" lon="21.14373">
        <ele>401.869437</ele>
        <time>2020-09-19T12:44:23.262Z</time>
      </trkpt>
      <trkpt lat="67.5152" lon="21.14327">
        <ele>401.380412</ele>
        <time>2020-09-19T12:45:03.251Z</time>
      </trkpt>
      <trkpt lat="67.51332" lon="21.14283">
        <ele>401.418882</ele>
        <time>2020-09-19T12:45:41.269Z</time>
      </trkpt>
      <trkpt lat="67.51133" lon="21.14226">
        <ele>401.794825</ele>
        <time>2020-09-19T12:46:25.236Z</time>
      </trkpt>
      <trkpt lat="67.50936" lon="21.14123">
        <ele>403.771172</ele>
        <time>2020-09-19T12:47:05.246Z</time>
      </trkpt>
      <trkpt lat="67.50694" lon="21.13925">
        <ele>399.995014</ele>
        <time>2020-09-19T12:47:43.257Z</time>
      </trkpt>
      <trkpt lat="67.50509" lon="21.13722">
        <ele>401.247261</ele>
        <time>2020-09-19T12:48:24.248Z</time>
      </trkpt>
      <trkpt lat="67.50332" lon="21.13508">
        <ele>404.765927</ele>
        <time>2020-09-19T12:49:05.248Z</time>
      </trkpt>
      <trkpt lat="67.50151" lon="21.1329">
        <ele>407.046569</ele>
        <time>2020-09-19T12:49:46.227Z</time>
      </trkpt>
      <trkpt lat="67.49956" lon="21.13055">
        <ele>404.999649</ele>
        <time>2020-09-19T12:50:24.263Z</time>
      </trkpt>
      <trkpt lat="67.49739" lon="21.12795">
        <ele>402.712569</ele>
        <time>2020-09-19T12:51:04.289Z</time>
      </trkpt>
      <trkpt lat="67.49477" lon="21.1248">
        <ele>396.574581</ele>
        <time>2020-09-19T12:51:44.281Z</time>
      </trkpt>
      <trkpt lat="67.49273" lon="21.12214">
        <ele>392.740609</ele>
        <time>2020-09-19T12:52:22.267Z</time>
      </trkpt>
      <trkpt lat="67.49072" lon="21.11997">
        <ele>393.756534</ele>
        <time>2020-09-19T12:53:16.242Z</time>
      </trkpt>
    </trkseg>
  </trk>
  <trk>
    <name><![CDATA[Tour d'Europe: étape 084]]></name>
    <trkseg>
      <trkpt lat="67.49186" lon="21.12051">
        <ele>398.750498</ele>
        <time>2020-09-20T10:12:38.562Z</time>
      </trkpt>
      <trkpt lat="67.49069" lon="21.11994">
        <ele>395.904088</ele>
        <time>2020-09-20T10:24:29.546Z</time>
      </trkpt>
      <trkpt lat="67.48944" lon="21.12072">
        <ele>395.667373</ele>
        <time>2020-09-20T10:25:39.550Z</time>
      </trkpt>
      <trkpt lat="67.48721" lon="21.12066">
        <ele>399.82485</ele>
        <time>2020-09-20T10:26:39.567Z</time>
      </trkpt>
      <trkpt lat="67.48526" lon="21.12125">
        <ele>405.615047</ele>
        <time>2020-09-20T10:27:40.557Z</time>
      </trkpt>
      <trkpt lat="67.48313" lon="21.1226">
        <ele>406.078803</ele>
        <time>2020-09-20T10:28:40.592Z</time>
      </trkpt>
      <trkpt lat="67.48115" lon="21.12452">
        <ele>401.512961</ele>
        <time>2020-09-20T10:29:23.576Z</time>
      </trkpt>
      <trkpt lat="67.47902" lon="21.1265">
        <ele>396.979659</ele>
        <time>2020-09-20T10:30:03.573Z</time>
      </trkpt>
      <trkpt lat="67.47689" lon="21.12794">
        <ele>400.170594</ele>
        <time>2020-09-20T10:30:53.582Z</time>
      </trkpt>
      <trkpt lat="67.47482" lon="21.12858">
        <ele>406.952164</ele>
        <time>2020-09-20T10:32:10.580Z</time>
      </trkpt>
      <trkpt lat="67.47271" lon="21.12791">
        <ele>416.502763</ele>
        <time>2020-09-20T10:33:36.580Z</time>
      </trkpt>
      <trkpt lat="67.47079" lon="21.12615">
        <ele>421.261124</ele>
        <time>2020-09-20T10:34:54.586Z</time>
      </trkpt>
      <trkpt lat="67.46866" lon="21.12462">
        <ele>417.378865</ele>
        <time>2020-09-20T10:35:54.558Z</time>
      </trkpt>
      <trkpt lat="67.46641" lon="21.12422">
        <ele>418.806582</ele>
        <time>2020-09-20T10:36:54.597Z</time>
      </trkpt>
      <trkpt lat="67.46404" lon="21.12474">
        <ele>419.188032</ele>
        <time>2020-09-20T10:37:49.546Z</time>
      </trkpt>
      <trkpt lat="67.46195" lon="21.12513">
        <ele>421.641586</ele>
        <time>2020-09-20T10:38:49.572Z</time>
      </trkpt>
      <trkpt lat="67.45997" lon="21.12454">
        <ele>426.228372</ele>
        <time>2020-09-20T10:39:51.543Z</time>
      </trkpt>
      <trkpt lat="67.45794" lon="21.12319">
        <ele>430.530699</ele>
        <time>2020-09-20T10:40:58.565Z</time>
      </trkpt>
      <trkpt lat="67.45579" lon="21.12253">
        <ele>437.05777</ele>
        <time>2020-09-20T10:42:18.557Z</time>
      </trkpt>
      <trkpt lat="67.45369" lon="21.12223">
        <ele>437.760091</ele>
        <time>2020-09-20T10:43:26.566Z</time>
      </trkpt>
      <trkpt lat="67.45137" lon="21.12185">
        <ele>436.792561</ele>
        <time>2020-09-20T10:44:26.594Z</time>
      </trkpt>
      <trkpt lat="67.44906" lon="21.12141">
        <ele>434.830378</ele>
        <time>2020-09-20T10:45:26.552Z</time>
      </trkpt>
      <trkpt lat="67.44698" lon="21.12064">
        <ele>437.588079</ele>
        <time>2020-09-20T10:46:26.566Z</time>
      </trkpt>
      <trkpt lat="67.4448" lon="21.11856">
        <ele>436.175559</ele>
        <time>2020-09-20T10:47:26.576Z</time>
      </trkpt>
      <trkpt lat="67.44287" lon="21.11685">
        <ele>432.269214</ele>
        <time>2020-09-20T10:48:11.576Z</time>
      </trkpt>
      <trkpt lat="67.44055" lon="21.11616">
        <ele>435.560346</ele>
        <time>2020-09-20T10:49:05.614Z</time>
      </trkpt>
      <trkpt lat="67.43836" lon="21.11636">
        <ele>431.451307</ele>
        <time>2020-09-20T10:49:45.562Z</time>
      </trkpt>
      <trkpt lat="67.43632" lon="21.11819">
        <ele>431.564503</ele>
        <time>2020-09-20T10:50:32.619Z</time>
      </trkpt>
      <trkpt lat="67.43425" lon="21.12165">
        <ele>431.782185</ele>
        <time>2020-09-20T10:51:12.558Z</time>
      </trkpt>
      <trkpt lat="67.43233" lon="21.1252">
        <ele>421.408747</ele>
        <time>2020-09-20T10:51:54.585Z</time>
      </trkpt>
      <trkpt lat="67.43036" lon="21.1282">
        <ele>417.590109</ele>
        <time>2020-09-20T10:52:34.575Z</time>
      </trkpt>
      <trkpt lat="67.42843" lon="21.13071">
        <ele>416.007135</ele>
        <time>2020-09-20T10:53:14.562Z</time>
      </trkpt>
      <trkpt lat="67.42665" lon="21.13313">
        <ele>415.472253</ele>
        <time>2020-09-20T10:53:55.565Z</time>
      </trkpt>
      <trkpt lat="67.42472" lon="21.13551">
        <ele>417.120634</ele>
        <time>2020-09-20T10:54:40.573Z</time>
      </trkpt>
      <trkpt lat="67.42252" lon="21.13724">
        <ele>415.317213</ele>
        <time>2020-09-20T10:55:31.559Z</time>
      </trkpt>
      <trkpt lat="67.42035" lon="21.13588">
        <ele>407.176361</ele>
        <time>2020-09-20T10:56:16.572Z</time>
      </trkpt>
      <trkpt lat="67.41874" lon="21.13227">
        <ele>410.870841</ele>
        <time>2020-09-20T10:57:18.548Z</time>
      </trkpt>
      <trkpt lat="67.41809" lon="21.1273">
        <ele>410.325413</ele>
        <time>2020-09-20T10:58:19.552Z</time>
      </trkpt>
      <trkpt lat="67.41757" lon="21.12184">
        <ele>414.024567</ele>
        <time>2020-09-20T10:59:19.594Z</time>
      </trkpt>
      <trkpt lat="67.41653" lon="21.1174">
        <ele>421.719546</ele>
        <time>2020-09-20T11:00:56.592Z</time>
      </trkpt>
      <trkpt lat="67.41503" lon="21.11418">
        <ele>421.237423</ele>
        <time>2020-09-20T11:02:05.580Z</time>
      </trkpt>
      <trkpt lat="67.41316" lon="21.11184">
        <ele>417.726754</ele>
        <time>2020-09-20T11:02:48.559Z</time>
      </trkpt>
      <trkpt lat="67.41122" lon="21.10898">
        <ele>412.66896</ele>
        <time>2020-09-20T11:03:28.551Z</time>
      </trkpt>
      <trkpt lat="67.40939" lon="21.10595">
        <ele>412.943835</ele>
        <time>2020-09-20T11:04:16.585Z</time>
      </trkpt>
      <trkpt lat="67.40741" lon="21.10455">
        <ele>416.060069</ele>
        <time>2020-09-20T11:05:00.544Z</time>
      </trkpt>
      <trkpt lat="67.40507" lon="21.10499">
        <ele>417.798987</ele>
        <time>2020-09-20T11:05:57.579Z</time>
      </trkpt>
      <trkpt lat="67.40316" lon="21.10727">
        <ele>417.066373</ele>
        <time>2020-09-20T11:06:38.539Z</time>
      </trkpt>
      <trkpt lat="67.40127" lon="21.10964">
        <ele>413.991972</ele>
        <time>2020-09-20T11:07:18.556Z</time>
      </trkpt>
      <trkpt lat="67.39895" lon="21.11083">
        <ele>419.786765</ele>
        <time>2020-09-20T11:08:13.549Z</time>
      </trkpt>
      <trkpt lat="67.3965" lon="21.11027">
        <ele>421.934754</ele>
        <time>2020-09-20T11:09:13.566Z</time>
      </trkpt>
      <trkpt lat="67.39437" lon="21.10842">
        <ele>418.259341</ele>
        <time>2020-09-20T11:10:10.566Z</time>
      </trkpt>
      <trkpt lat="67.39237" lon="21.10522">
        <ele>419.565686</ele>
        <time>2020-09-20T11:11:10.568Z</time>
      </trkpt>
      <trkpt lat="67.39051" lon="21.10219">
        <ele>421.145715</ele>
        <time>2020-09-20T11:12:01.567Z</time>
      </trkpt>
      <trkpt lat="67.38858" lon="21.09916">
        <ele>425.916918</ele>
        <time>2020-09-20T11:13:04.599Z</time>
      </trkpt>
      <trkpt lat="67.38698" lon="21.09548">
        <ele>433.412666</ele>
        <time>2020-09-20T11:14:24.558Z</time>
      </trkpt>
      <trkpt lat="67.38574" lon="21.09094">
        <ele>431.966996</ele>
        <time>2020-09-20T11:15:31.562Z</time>
      </trkpt>
      <trkpt lat="67.38476" lon="21.0861">
        <ele>435.810176</ele>
        <time>2020-09-20T11:16:35.581Z</time>
      </trkpt>
      <trkpt lat="67.38337" lon="21.08163">
        <ele>430.348697</ele>
        <time>2020-09-20T11:17:15.617Z</time>
      </trkpt>
      <trkpt lat="67.38171" lon="21.07876">
        <ele>424.106747</ele>
        <time>2020-09-20T11:17:55.586Z</time>
      </trkpt>
      <trkpt lat="67.37958" lon="21.07722">
        <ele>418.139833</ele>
        <time>2020-09-20T11:18:35.552Z</time>
      </trkpt>
      <trkpt lat="67.37749" lon="21.07732">
        <ele>420.68231</ele>
        <time>2020-09-20T11:19:24.573Z</time>
      </trkpt>
      <trkpt lat="67.37545" lon="21.07916">
        <ele>422.673095</ele>
        <time>2020-09-20T11:20:22.606Z</time>
      </trkpt>
      <trkpt lat="67.37373" lon="21.08252">
        <ele>420.958389</ele>
        <time>2020-09-20T11:21:11.609Z</time>
      </trkpt>
      <trkpt lat="67.37186" lon="21.08579">
        <ele>420.387739</ele>
        <time>2020-09-20T11:22:02.605Z</time>
      </trkpt>
      <trkpt lat="67.36984" lon="21.08824">
        <ele>417.557251</ele>
        <time>2020-09-20T11:22:42.600Z</time>
      </trkpt>
      <trkpt lat="67.3682" lon="21.09123">
        <ele>419.250974</ele>
        <time>2020-09-20T11:23:22.561Z</time>
      </trkpt>
      <trkpt lat="67.36624" lon="21.0936">
        <ele>425.762788</ele>
        <time>2020-09-20T11:24:23.569Z</time>
      </trkpt>
      <trkpt lat="67.36396" lon="21.09469">
        <ele>425.727532</ele>
        <time>2020-09-20T11:25:14.570Z</time>
      </trkpt>
      <trkpt lat="67.3618" lon="21.095">
        <ele>423.926609</ele>
        <time>2020-09-20T11:26:01.556Z</time>
      </trkpt>
      <trkpt lat="67.35971" lon="21.09539">
        <ele>428.148187</ele>
        <time>2020-09-20T11:26:48.570Z</time>
      </trkpt>
      <trkpt lat="67.35765" lon="21.0963">
        <ele>430.006762</ele>
        <time>2020-09-20T11:27:49.570Z</time>
      </trkpt>
      <trkpt lat="67.35568" lon="21.0972">
        <ele>438.00637</ele>
        <time>2020-09-20T11:29:10.588Z</time>
      </trkpt>
      <trkpt lat="67.35369" lon="21.09748">
        <ele>445.672363</ele>
        <time>2020-09-20T11:30:42.565Z</time>
      </trkpt>
      <trkpt lat="67.35175" lon="21.09675">
        <ele>453.062021</ele>
        <time>2020-09-20T11:32:25.559Z</time>
      </trkpt>
      <trkpt lat="67.34986" lon="21.09534">
        <ele>458.204522</ele>
        <time>2020-09-20T11:33:53.560Z</time>
      </trkpt>
      <trkpt lat="67.34788" lon="21.09438">
        <ele>464.618057</ele>
        <time>2020-09-20T11:35:25.576Z</time>
      </trkpt>
      <trkpt lat="67.3459" lon="21.0942">
        <ele>472.82903</ele>
        <time>2020-09-20T11:37:01.571Z</time>
      </trkpt>
      <trkpt lat="67.34363" lon="21.09482">
        <ele>470.407892</ele>
        <time>2020-09-20T11:37:59.567Z</time>
      </trkpt>
      <trkpt lat="67.34153" lon="21.09425">
        <ele>467.158271</ele>
        <time>2020-09-20T11:38:41.559Z</time>
      </trkpt>
      <trkpt lat="67.3396" lon="21.0922">
        <ele>470.521736</ele>
        <time>2020-09-20T11:39:21.600Z</time>
      </trkpt>
      <trkpt lat="67.33799" lon="21.08874">
        <ele>471.285523</ele>
        <time>2020-09-20T11:40:32.574Z</time>
      </trkpt>
      <trkpt lat="67.33659" lon="21.08497">
        <ele>474.323962</ele>
        <time>2020-09-20T11:41:38.565Z</time>
      </trkpt>
      <trkpt lat="67.33494" lon="21.08185">
        <ele>479.06659</ele>
        <time>2020-09-20T11:42:58.564Z</time>
      </trkpt>
      <trkpt lat="67.3331" lon="21.07989">
        <ele>480.070686</ele>
        <time>2020-09-20T11:44:05.576Z</time>
      </trkpt>
      <trkpt lat="67.33099" lon="21.0788">
        <ele>479.575696</ele>
        <time>2020-09-20T11:45:23.578Z</time>
      </trkpt>
      <trkpt lat="67.32895" lon="21.07841">
        <ele>481.836976</ele>
        <time>2020-09-20T11:46:35.598Z</time>
      </trkpt>
      <trkpt lat="67.32657" lon="21.07982">
        <ele>482.904257</ele>
        <time>2020-09-20T11:47:38.566Z</time>
      </trkpt>
      <trkpt lat="67.32447" lon="21.08202">
        <ele>486.499163</ele>
        <time>2020-09-20T11:48:38.588Z</time>
      </trkpt>
      <trkpt lat="67.32252" lon="21.08281">
        <ele>487.756089</ele>
        <time>2020-09-20T11:49:57.583Z</time>
      </trkpt>
      <trkpt lat="67.32025" lon="21.08228">
        <ele>486.427301</ele>
        <time>2020-09-20T11:50:59.576Z</time>
      </trkpt>
      <trkpt lat="67.31823" lon="21.08168">
        <ele>489.513523</ele>
        <time>2020-09-20T11:52:01.582Z</time>
      </trkpt>
      <trkpt lat="67.31615" lon="21.08112">
        <ele>494.67838</ele>
        <time>2020-09-20T11:53:13.572Z</time>
      </trkpt>
      <trkpt lat="67.31377" lon="21.08101">
        <ele>491.545548</ele>
        <time>2020-09-20T11:54:11.577Z</time>
      </trkpt>
      <trkpt lat="67.31157" lon="21.08137">
        <ele>493.269378</ele>
        <time>2020-09-20T11:55:19.574Z</time>
      </trkpt>
      <trkpt lat="67.30956" lon="21.08223">
        <ele>508.725109</ele>
        <time>2020-09-20T11:56:56.574Z</time>
      </trkpt>
      <trkpt lat="67.3074" lon="21.08333">
        <ele>512.623194</ele>
        <time>2020-09-20T11:58:07.566Z</time>
      </trkpt>
      <trkpt lat="67.30514" lon="21.08428">
        <ele>501.916313</ele>
        <time>2020-09-20T11:58:52.576Z</time>
      </trkpt>
      <trkpt lat="67.30296" lon="21.08445">
        <ele>500.275954</ele>
        <time>2020-09-20T11:59:38.569Z</time>
      </trkpt>
      <trkpt lat="67.30097" lon="21.08402">
        <ele>504.698262</ele>
        <time>2020-09-20T12:00:42.575Z</time>
      </trkpt>
      <trkpt lat="67.29887" lon="21.08299">
        <ele>505.322825</ele>
        <time>2020-09-20T12:01:31.574Z</time>
      </trkpt>
      <trkpt lat="67.29677" lon="21.08184">
        <ele>507.789239</ele>
        <time>2020-09-20T12:02:17.564Z</time>
      </trkpt>
      <trkpt lat="67.29474" lon="21.08071">
        <ele>512.5734</ele>
        <time>2020-09-20T12:03:33.617Z</time>
      </trkpt>
      <trkpt lat="67.29281" lon="21.07967">
        <ele>519.354946</ele>
        <time>2020-09-20T12:04:54.573Z</time>
      </trkpt>
      <trkpt lat="67.29091" lon="21.07838">
        <ele>528.462098</ele>
        <time>2020-09-20T12:06:26.571Z</time>
      </trkpt>
      <trkpt lat="67.28906" lon="21.07652">
        <ele>539.538616</ele>
        <time>2020-09-20T12:08:07.567Z</time>
      </trkpt>
      <trkpt lat="67.28714" lon="21.07391">
        <ele>542.84419</ele>
        <time>2020-09-20T12:09:39.583Z</time>
      </trkpt>
      <trkpt lat="67.28539" lon="21.07081">
        <ele>540.919278</ele>
        <time>2020-09-20T12:10:33.571Z</time>
      </trkpt>
      <trkpt lat="67.28377" lon="21.06713">
        <ele>533.456889</ele>
        <time>2020-09-20T12:11:13.564Z</time>
      </trkpt>
      <trkpt lat="67.28211" lon="21.06303">
        <ele>524.963115</ele>
        <time>2020-09-20T12:11:53.568Z</time>
      </trkpt>
      <trkpt lat="67.28061" lon="21.05933">
        <ele>524.669667</ele>
        <time>2020-09-20T12:12:33.611Z</time>
      </trkpt>
      <trkpt lat="67.279" lon="21.05542">
        <ele>526.481852</ele>
        <time>2020-09-20T12:13:25.570Z</time>
      </trkpt>
      <trkpt lat="67.27739" lon="21.05169">
        <ele>530.578166</ele>
        <time>2020-09-20T12:14:39.568Z</time>
      </trkpt>
      <trkpt lat="67.27572" lon="21.04825">
        <ele>539.149229</ele>
        <time>2020-09-20T12:15:59.577Z</time>
      </trkpt>
      <trkpt lat="67.27402" lon="21.04506">
        <ele>541.474539</ele>
        <time>2020-09-20T12:17:07.585Z</time>
      </trkpt>
      <trkpt lat="67.27215" lon="21.04185">
        <ele>539.240968</ele>
        <time>2020-09-20T12:17:52.580Z</time>
      </trkpt>
      <trkpt lat="67.26949" lon="21.03787">
        <ele>529.205342</ele>
        <time>2020-09-20T12:18:31.582Z</time>
      </trkpt>
      <trkpt lat="67.2674" lon="21.03508">
        <ele>520.434359</ele>
        <time>2020-09-20T12:18:57.584Z</time>
      </trkpt>
      <trkpt lat="67.26517" lon="21.0322">
        <ele>515.099134</ele>
        <time>2020-09-20T12:19:37.580Z</time>
      </trkpt>
      <trkpt lat="67.26257" lon="21.02949">
        <ele>507.655499</ele>
        <time>2020-09-20T12:20:17.598Z</time>
      </trkpt>
      <trkpt lat="67.26034" lon="21.02765">
        <ele>497.517543</ele>
        <time>2020-09-20T12:20:42.571Z</time>
      </trkpt>
      <trkpt lat="67.25832" lon="21.026">
        <ele>487.065295</ele>
        <time>2020-09-20T12:21:02.572Z</time>
      </trkpt>
      <trkpt lat="67.25605" lon="21.02423">
        <ele>480.078894</ele>
        <time>2020-09-20T12:21:37.593Z</time>
      </trkpt>
      <trkpt lat="67.25391" lon="21.02233">
        <ele>483.721072</ele>
        <time>2020-09-20T12:22:36.580Z</time>
      </trkpt>
      <trkpt lat="67.25187" lon="21.01995">
        <ele>484.208845</ele>
        <time>2020-09-20T12:23:36.611Z</time>
      </trkpt>
      <trkpt lat="67.25011" lon="21.01711">
        <ele>480.198755</ele>
        <time>2020-09-20T12:38:50.644Z</time>
      </trkpt>
      <trkpt lat="67.24842" lon="21.01365">
        <ele>477.784925</ele>
        <time>2020-09-20T12:39:33.602Z</time>
      </trkpt>
      <trkpt lat="67.2468" lon="21.01008">
        <ele>475.064523</ele>
        <time>2020-09-20T12:40:13.599Z</time>
      </trkpt>
      <trkpt lat="67.24518" lon="21.00657">
        <ele>471.315652</ele>
        <time>2020-09-20T12:40:53.578Z</time>
      </trkpt>
      <trkpt lat="67.24338" lon="21.00369">
        <ele>468.752736</ele>
        <time>2020-09-20T12:41:33.572Z</time>
      </trkpt>
      <trkpt lat="67.24058" lon="21.00166">
        <ele>461.51257</ele>
        <time>2020-09-20T12:42:13.608Z</time>
      </trkpt>
      <trkpt lat="67.23722" lon="21.0023">
        <ele>447.980208</ele>
        <time>2020-09-20T12:42:53.624Z</time>
      </trkpt>
      <trkpt lat="67.23501" lon="21.00345">
        <ele>438.13191</ele>
        <time>2020-09-20T12:43:18.584Z</time>
      </trkpt>
      <trkpt lat="67.23317" lon="21.00441">
        <ele>430.096703</ele>
        <time>2020-09-20T12:43:38.622Z</time>
      </trkpt>
      <trkpt lat="67.23045" lon="21.00578">
        <ele>422.260805</ele>
        <time>2020-09-20T12:44:14.618Z</time>
      </trkpt>
      <trkpt lat="67.22815" lon="21.00706">
        <ele>422.12695</ele>
        <time>2020-09-20T12:44:54.638Z</time>
      </trkpt>
      <trkpt lat="67.22578" lon="21.00985">
        <ele>421.756024</ele>
        <time>2020-09-20T12:45:34.611Z</time>
      </trkpt>
      <trkpt lat="67.22316" lon="21.01426">
        <ele>413.375495</ele>
        <time>2020-09-20T12:46:14.583Z</time>
      </trkpt>
      <trkpt lat="67.22081" lon="21.01697">
        <ele>409.966771</ele>
        <time>2020-09-20T12:46:54.589Z</time>
      </trkpt>
      <trkpt lat="67.21875" lon="21.01833">
        <ele>410.111804</ele>
        <time>2020-09-20T12:47:34.585Z</time>
      </trkpt>
      <trkpt lat="67.21667" lon="21.01917">
        <ele>413.532962</ele>
        <time>2020-09-20T12:48:23.616Z</time>
      </trkpt>
      <trkpt lat="67.21467" lon="21.01926">
        <ele>422.971662</ele>
        <time>2020-09-20T12:49:45.618Z</time>
      </trkpt>
      <trkpt lat="67.21269" lon="21.01815">
        <ele>432.117449</ele>
        <time>2020-09-20T12:51:13.586Z</time>
      </trkpt>
      <trkpt lat="67.2108" lon="21.01582">
        <ele>434.577419</ele>
        <time>2020-09-20T12:52:32.589Z</time>
      </trkpt>
      <trkpt lat="67.20918" lon="21.01244">
        <ele>430.704653</ele>
        <time>2020-09-20T12:53:20.592Z</time>
      </trkpt>
      <trkpt lat="67.2078" lon="21.00796">
        <ele>429.322689</ele>
        <time>2020-09-20T12:54:10.593Z</time>
      </trkpt>
      <trkpt lat="67.20657" lon="21.00354">
        <ele>433.106686</ele>
        <time>2020-09-20T12:55:18.637Z</time>
      </trkpt>
      <trkpt lat="67.20531" lon="20.99901">
        <ele>435.837551</ele>
        <time>2020-09-20T12:56:33.627Z</time>
      </trkpt>
      <trkpt lat="67.20415" lon="20.99484">
        <ele>435.578253</ele>
        <time>2020-09-20T12:57:39.662Z</time>
      </trkpt>
      <trkpt lat="67.20282" lon="20.99026">
        <ele>436.274701</ele>
        <time>2020-09-20T13:00:51.636Z</time>
      </trkpt>
      <trkpt lat="67.20144" lon="20.9862">
        <ele>439.369695</ele>
        <time>2020-09-20T13:01:51.599Z</time>
      </trkpt>
      <trkpt lat="67.19987" lon="20.98259">
        <ele>439.713789</ele>
        <time>2020-09-20T13:02:51.586Z</time>
      </trkpt>
      <trkpt lat="67.19796" lon="20.98033">
        <ele>439.369</ele>
        <time>2020-09-20T13:03:51.620Z</time>
      </trkpt>
      <trkpt lat="67.19587" lon="20.97908">
        <ele>443.615348</ele>
        <time>2020-09-20T13:04:51.602Z</time>
      </trkpt>
      <trkpt lat="67.19364" lon="20.97809">
        <ele>444.627096</ele>
        <time>2020-09-20T13:05:51.600Z</time>
      </trkpt>
      <trkpt lat="67.19161" lon="20.97697">
        <ele>437.890566</ele>
        <time>2020-09-20T13:06:32.632Z</time>
      </trkpt>
      <trkpt lat="67.18928" lon="20.97514">
        <ele>424.966143</ele>
        <time>2020-09-20T13:07:12.601Z</time>
      </trkpt>
      <trkpt lat="67.18723" lon="20.9733">
        <ele>413.490462</ele>
        <time>2020-09-20T13:07:53.604Z</time>
      </trkpt>
      <trkpt lat="67.18512" lon="20.9714">
        <ele>401.969185</ele>
        <time>2020-09-20T13:08:35.672Z</time>
      </trkpt>
      <trkpt lat="67.18293" lon="20.96931">
        <ele>393.520683</ele>
        <time>2020-09-20T13:09:15.591Z</time>
      </trkpt>
      <trkpt lat="67.18087" lon="20.96707">
        <ele>387.496147</ele>
        <time>2020-09-20T13:10:08.600Z</time>
      </trkpt>
      <trkpt lat="67.17903" lon="20.96446">
        <ele>378.67434</ele>
        <time>2020-09-20T13:10:55.594Z</time>
      </trkpt>
      <trkpt lat="67.17701" lon="20.96079">
        <ele>368.971656</ele>
        <time>2020-09-20T13:11:45.597Z</time>
      </trkpt>
      <trkpt lat="67.1746" lon="20.95619">
        <ele>358.131218</ele>
        <time>2020-09-20T13:12:25.590Z</time>
      </trkpt>
      <trkpt lat="67.17202" lon="20.95136">
        <ele>348.620029</ele>
        <time>2020-09-20T13:13:07.597Z</time>
      </trkpt>
      <trkpt lat="67.17015" lon="20.94782">
        <ele>347.08377</ele>
        <time>2020-09-20T13:13:47.596Z</time>
      </trkpt>
      <trkpt lat="67.16817" lon="20.94427">
        <ele>352.673872</ele>
        <time>2020-09-20T13:14:43.606Z</time>
      </trkpt>
      <trkpt lat="67.166" lon="20.94206">
        <ele>347.881627</ele>
        <time>2020-09-20T13:15:39.611Z</time>
      </trkpt>
      <trkpt lat="67.1637" lon="20.94123">
        <ele>342.966641</ele>
        <time>2020-09-20T13:16:19.594Z</time>
      </trkpt>
      <trkpt lat="67.16116" lon="20.94055">
        <ele>336.795496</ele>
        <time>2020-09-20T13:16:59.599Z</time>
      </trkpt>
      <trkpt lat="67.15887" lon="20.93898">
        <ele>335.2871</ele>
        <time>2020-09-20T13:17:39.633Z</time>
      </trkpt>
      <trkpt lat="67.15701" lon="20.9365">
        <ele>347.165829</ele>
        <time>2020-09-20T13:18:32.603Z</time>
      </trkpt>
      <trkpt lat="67.1554" lon="20.93329">
        <ele>349.708275</ele>
        <time>2020-09-20T13:19:36.593Z</time>
      </trkpt>
      <trkpt lat="67.15378" lon="20.92989">
        <ele>350.738199</ele>
        <time>2020-09-20T13:20:56.601Z</time>
      </trkpt>
      <trkpt lat="67.15224" lon="20.92674">
        <ele>361.398123</ele>
        <time>2020-09-20T13:22:16.603Z</time>
      </trkpt>
      <trkpt lat="67.15054" lon="20.92358">
        <ele>364.777324</ele>
        <time>2020-09-20T13:23:31.594Z</time>
      </trkpt>
      <trkpt lat="67.14875" lon="20.92042">
        <ele>358.491547</ele>
        <time>2020-09-20T13:24:21.641Z</time>
      </trkpt>
      <trkpt lat="67.14647" lon="20.91654">
        <ele>349.228184</ele>
        <time>2020-09-20T13:25:01.596Z</time>
      </trkpt>
      <trkpt lat="67.14453" lon="20.91327">
        <ele>344.841369</ele>
        <time>2020-09-20T13:25:41.598Z</time>
      </trkpt>
      <trkpt lat="67.14259" lon="20.91012">
        <ele>342.352502</ele>
        <time>2020-09-20T13:26:21.651Z</time>
      </trkpt>
      <trkpt lat="67.14013" lon="20.90702">
        <ele>336.270331</ele>
        <time>2020-09-20T13:27:01.588Z</time>
      </trkpt>
      <trkpt lat="67.13769" lon="20.90374">
        <ele>329.972899</ele>
        <time>2020-09-20T13:27:41.599Z</time>
      </trkpt>
      <trkpt lat="67.13816" lon="20.89821">
        <ele>318.784978</ele>
        <time>2020-09-20T13:28:21.646Z</time>
      </trkpt>
      <trkpt lat="67.13882" lon="20.89299">
        <ele>313.415505</ele>
        <time>2020-09-20T13:29:06.613Z</time>
      </trkpt>
      <trkpt lat="67.13967" lon="20.88711">
        <ele>310.092496</ele>
        <time>2020-09-20T13:30:06.634Z</time>
      </trkpt>
      <trkpt lat="67.14039" lon="20.88194">
        <ele>311.867077</ele>
        <time>2020-09-20T13:31:06.636Z</time>
      </trkpt>
      <trkpt lat="67.14103" lon="20.87678">
        <ele>320.895174</ele>
        <time>2020-09-20T13:32:06.613Z</time>
      </trkpt>
      <trkpt lat="67.14161" lon="20.87153">
        <ele>325.412905</ele>
        <time>2020-09-20T13:33:06.624Z</time>
      </trkpt>
      <trkpt lat="67.14219" lon="20.86614">
        <ele>322.409788</ele>
        <time>2020-09-20T13:34:06.604Z</time>
      </trkpt>
      <trkpt lat="67.14269" lon="20.86104">
        <ele>321.209256</ele>
        <time>2020-09-20T13:35:06.601Z</time>
      </trkpt>
      <trkpt lat="67.14328" lon="20.85567">
        <ele>323.113136</ele>
        <time>2020-09-20T13:36:21.617Z</time>
      </trkpt>
      <trkpt lat="67.14385" lon="20.85027">
        <ele>327.447088</ele>
        <time>2020-09-20T13:37:40.600Z</time>
      </trkpt>
      <trkpt lat="67.14445" lon="20.84484">
        <ele>339.376542</ele>
        <time>2020-09-20T13:38:58.599Z</time>
      </trkpt>
      <trkpt lat="67.145" lon="20.83983">
        <ele>343.454692</ele>
        <time>2020-09-20T13:40:05.601Z</time>
      </trkpt>
      <trkpt lat="67.14553" lon="20.83483">
        <ele>335.203997</ele>
        <time>2020-09-20T13:41:08.660Z</time>
      </trkpt>
      <trkpt lat="67.14606" lon="20.82998">
        <ele>331.517318</ele>
        <time>2020-09-20T13:42:09.597Z</time>
      </trkpt>
      <trkpt lat="67.14681" lon="20.82484">
        <ele>336.608728</ele>
        <time>2020-09-20T13:43:23.601Z</time>
      </trkpt>
      <trkpt lat="67.14765" lon="20.81984">
        <ele>338.174293</ele>
        <time>2020-09-20T13:44:39.606Z</time>
      </trkpt>
      <trkpt lat="67.14838" lon="20.81479">
        <ele>332.201796</ele>
        <time>2020-09-20T13:45:41.646Z</time>
      </trkpt>
      <trkpt lat="67.14885" lon="20.80938">
        <ele>326.974877</ele>
        <time>2020-09-20T13:46:34.617Z</time>
      </trkpt>
      <trkpt lat="67.14875" lon="20.80409">
        <ele>322.199419</ele>
        <time>2020-09-20T13:47:19.626Z</time>
      </trkpt>
      <trkpt lat="67.14827" lon="20.7985">
        <ele>326.873809</ele>
        <time>2020-09-20T13:48:09.613Z</time>
      </trkpt>
      <trkpt lat="67.1475" lon="20.79265">
        <ele>332.893071</ele>
        <time>2020-09-20T13:49:05.622Z</time>
      </trkpt>
      <trkpt lat="67.14653" lon="20.78718">
        <ele>331.397522</ele>
        <time>2020-09-20T13:49:58.615Z</time>
      </trkpt>
      <trkpt lat="67.14566" lon="20.78174">
        <ele>335.992696</ele>
        <time>2020-09-20T13:50:58.640Z</time>
      </trkpt>
      <trkpt lat="67.14492" lon="20.77617">
        <ele>337.850971</ele>
        <time>2020-09-20T13:51:58.602Z</time>
      </trkpt>
      <trkpt lat="67.14443" lon="20.77068">
        <ele>336.588553</ele>
        <time>2020-09-20T13:52:58.636Z</time>
      </trkpt>
      <trkpt lat="67.14405" lon="20.76544">
        <ele>339.500683</ele>
        <time>2020-09-20T13:54:00.599Z</time>
      </trkpt>
      <trkpt lat="67.14377" lon="20.75988">
        <ele>343.173196</ele>
        <time>2020-09-20T13:55:16.560Z</time>
      </trkpt>
      <trkpt lat="67.14366" lon="20.75429">
        <ele>356.042725</ele>
        <time>2020-09-20T13:56:35.565Z</time>
      </trkpt>
      <trkpt lat="67.1438" lon="20.74864">
        <ele>362.439864</ele>
        <time>2020-09-20T13:57:54.554Z</time>
      </trkpt>
      <trkpt lat="67.14394" lon="20.74299">
        <ele>357.478809</ele>
        <time>2020-09-20T13:59:14.573Z</time>
      </trkpt>
      <trkpt lat="67.14409" lon="20.73742">
        <ele>360.297764</ele>
        <time>2020-09-20T14:00:34.546Z</time>
      </trkpt>
      <trkpt lat="67.14401" lon="20.73241">
        <ele>364.067507</ele>
        <time>2020-09-20T14:01:54.566Z</time>
      </trkpt>
      <trkpt lat="67.14368" lon="20.72732">
        <ele>371.309158</ele>
        <time>2020-09-20T14:03:14.560Z</time>
      </trkpt>
      <trkpt lat="67.14309" lon="20.72221">
        <ele>369.056613</ele>
        <time>2020-09-20T14:04:28.583Z</time>
      </trkpt>
      <trkpt lat="67.1423" lon="20.71748">
        <ele>371.252357</ele>
        <time>2020-09-20T14:05:34.569Z</time>
      </trkpt>
      <trkpt lat="67.14131" lon="20.71297">
        <ele>380.639412</ele>
        <time>2020-09-20T14:07:00.550Z</time>
      </trkpt>
      <trkpt lat="67.14048" lon="20.70827">
        <ele>380.506417</ele>
        <time>2020-09-20T14:09:24.590Z</time>
      </trkpt>
      <trkpt lat="67.14029" lon="20.70279">
        <ele>378.883976</ele>
        <time>2020-09-20T14:10:24.561Z</time>
      </trkpt>
      <trkpt lat="67.14014" lon="20.69759">
        <ele>379.840495</ele>
        <time>2020-09-20T14:11:23.567Z</time>
      </trkpt>
      <trkpt lat="67.1401" lon="20.69205">
        <ele>377.988583</ele>
        <time>2020-09-20T14:12:15.587Z</time>
      </trkpt>
      <trkpt lat="67.13898" lon="20.68886">
        <ele>381.417856</ele>
        <time>2020-09-20T14:13:28.559Z</time>
      </trkpt>
      <trkpt lat="67.13707" lon="20.68841">
        <ele>395.750587</ele>
        <time>2020-09-20T14:15:37.614Z</time>
      </trkpt>
      <trkpt lat="67.13689" lon="20.68324">
        <ele>396.938607</ele>
        <time>2020-09-20T14:16:51.589Z</time>
      </trkpt>
      <trkpt lat="67.13542" lon="20.67999">
        <ele>381.929745</ele>
        <time>2020-09-20T14:18:10.587Z</time>
      </trkpt>
      <trkpt lat="67.13371" lon="20.67771">
        <ele>377.778541</ele>
        <time>2020-09-20T14:35:07.576Z</time>
      </trkpt>
      <trkpt lat="67.13316" lon="20.67283">
        <ele>382.163394</ele>
        <time>2020-09-20T14:36:10.561Z</time>
      </trkpt>
      <trkpt lat="67.13134" lon="20.67169">
        <ele>378.76801</ele>
        <time>2020-09-20T14:37:15.566Z</time>
      </trkpt>
      <trkpt lat="67.12939" lon="20.67147">
        <ele>379.07464</ele>
        <time>2020-09-20T14:38:08.606Z</time>
      </trkpt>
      <trkpt lat="67.12763" lon="20.67414">
        <ele>383.079031</ele>
        <time>2020-09-20T14:41:38.587Z</time>
      </trkpt>
    </trkseg>
  </trk>
  <trk>
    <name><![CDATA[Tour d'Europe: étape 085]]></name>
    <trkseg>
      <trkpt lat="67.1275" lon="20.67453">
        <ele>385.679344</ele>
        <time>2020-09-21T07:48:02.019Z</time>
      </trkpt>
      <trkpt lat="67.12944" lon="20.67147">
        <ele>391.112876</ele>
        <time>2020-09-21T07:56:44.023Z</time>
      </trkpt>
      <trkpt lat="67.12757" lon="20.66958">
        <ele>386.709685</ele>
        <time>2020-09-21T07:57:44.026Z</time>
      </trkpt>
      <trkpt lat="67.12619" lon="20.67379">
        <ele>382.748381</ele>
        <time>2020-09-21T07:58:32.023Z</time>
      </trkpt>
      <trkpt lat="67.12543" lon="20.67859">
        <ele>383.546365</ele>
        <time>2020-09-21T07:59:12.025Z</time>
      </trkpt>
      <trkpt lat="67.12466" lon="20.6839">
        <ele>385.324297</ele>
        <time>2020-09-21T08:00:02.030Z</time>
      </trkpt>
      <trkpt lat="67.12355" lon="20.68847">
        <ele>391.922249</ele>
        <time>2020-09-21T08:00:50.046Z</time>
      </trkpt>
      <trkpt lat="67.12215" lon="20.69209">
        <ele>395.975636</ele>
        <time>2020-09-21T08:01:34.011Z</time>
      </trkpt>
      <trkpt lat="67.12052" lon="20.69587">
        <ele>396.793624</ele>
        <time>2020-09-21T08:02:29.032Z</time>
      </trkpt>
      <trkpt lat="67.11886" lon="20.69922">
        <ele>400.527623</ele>
        <time>2020-09-21T08:03:29.022Z</time>
      </trkpt>
      <trkpt lat="67.11703" lon="20.70179">
        <ele>401.410435</ele>
        <time>2020-09-21T08:04:29.030Z</time>
      </trkpt>
      <trkpt lat="67.11464" lon="20.70386">
        <ele>398.322045</ele>
        <time>2020-09-21T08:05:29.057Z</time>
      </trkpt>
      <trkpt lat="67.11225" lon="20.70503">
        <ele>403.207997</ele>
        <time>2020-09-21T08:06:29.019Z</time>
      </trkpt>
      <trkpt lat="67.10998" lon="20.70607">
        <ele>401.094246</ele>
        <time>2020-09-21T08:07:23.030Z</time>
      </trkpt>
      <trkpt lat="67.10783" lon="20.70762">
        <ele>392.749646</ele>
        <time>2020-09-21T08:08:15.025Z</time>
      </trkpt>
      <trkpt lat="67.10605" lon="20.70992">
        <ele>390.802383</ele>
        <time>2020-09-21T08:08:59.027Z</time>
      </trkpt>
      <trkpt lat="67.10415" lon="20.71376">
        <ele>391.618563</ele>
        <time>2020-09-21T08:09:58.041Z</time>
      </trkpt>
      <trkpt lat="67.10237" lon="20.71771">
        <ele>391.373909</ele>
        <time>2020-09-21T08:10:58.036Z</time>
      </trkpt>
      <trkpt lat="67.10052" lon="20.72186">
        <ele>389.383556</ele>
        <time>2020-09-21T08:11:56.038Z</time>
      </trkpt>
      <trkpt lat="67.09899" lon="20.72605">
        <ele>386.910692</ele>
        <time>2020-09-21T08:12:36.036Z</time>
      </trkpt>
      <trkpt lat="67.09769" lon="20.73069">
        <ele>383.978096</ele>
        <time>2020-09-21T08:13:16.028Z</time>
      </trkpt>
      <trkpt lat="67.09632" lon="20.73566">
        <ele>381.557477</ele>
        <time>2020-09-21T08:13:56.037Z</time>
      </trkpt>
      <trkpt lat="67.09474" lon="20.73998">
        <ele>379.288895</ele>
        <time>2020-09-21T08:14:36.043Z</time>
      </trkpt>
      <trkpt lat="67.09285" lon="20.74335">
        <ele>374.369772</ele>
        <time>2020-09-21T08:15:16.047Z</time>
      </trkpt>
      <trkpt lat="67.09091" lon="20.7455">
        <ele>369.953489</ele>
        <time>2020-09-21T08:15:56.030Z</time>
      </trkpt>
      <trkpt lat="67.08886" lon="20.74681">
        <ele>370.402169</ele>
        <time>2020-09-21T08:16:37.048Z</time>
      </trkpt>
      <trkpt lat="67.08679" lon="20.74802">
        <ele>374.415199</ele>
        <time>2020-09-21T08:17:32.057Z</time>
      </trkpt>
      <trkpt lat="67.08474" lon="20.74975">
        <ele>375.927372</ele>
        <time>2020-09-21T08:18:32.045Z</time>
      </trkpt>
      <trkpt lat="67.08263" lon="20.75172">
        <ele>376.588136</ele>
        <time>2020-09-21T08:19:27.025Z</time>
      </trkpt>
      <trkpt lat="67.08046" lon="20.75309">
        <ele>373.926805</ele>
        <time>2020-09-21T08:20:26.058Z</time>
      </trkpt>
      <trkpt lat="67.07833" lon="20.75372">
        <ele>376.361377</ele>
        <time>2020-09-21T08:21:26.025Z</time>
      </trkpt>
      <trkpt lat="67.07625" lon="20.75372">
        <ele>383.558611</ele>
        <time>2020-09-21T08:22:42.057Z</time>
      </trkpt>
      <trkpt lat="67.07424" lon="20.75308">
        <ele>390.354774</ele>
        <time>2020-09-21T08:24:02.037Z</time>
      </trkpt>
      <trkpt lat="67.07232" lon="20.75203">
        <ele>389.662245</ele>
        <time>2020-09-21T08:25:08.053Z</time>
      </trkpt>
      <trkpt lat="67.07023" lon="20.75009">
        <ele>384.287624</ele>
        <time>2020-09-21T08:26:08.035Z</time>
      </trkpt>
      <trkpt lat="67.06834" lon="20.74807">
        <ele>386.216166</ele>
        <time>2020-09-21T08:27:12.023Z</time>
      </trkpt>
      <trkpt lat="67.06641" lon="20.74597">
        <ele>391.789103</ele>
        <time>2020-09-21T08:28:29.073Z</time>
      </trkpt>
      <trkpt lat="67.06456" lon="20.74398">
        <ele>398.245182</ele>
        <time>2020-09-21T08:29:55.033Z</time>
      </trkpt>
      <trkpt lat="67.06304" lon="20.74077">
        <ele>398.678643</ele>
        <time>2020-09-21T08:31:18.037Z</time>
      </trkpt>
      <trkpt lat="67.06145" lon="20.73793">
        <ele>402.50661</ele>
        <time>2020-09-21T08:32:38.076Z</time>
      </trkpt>
      <trkpt lat="67.05946" lon="20.73703">
        <ele>412.095942</ele>
        <time>2020-09-21T08:34:11.034Z</time>
      </trkpt>
      <trkpt lat="67.05754" lon="20.73572">
        <ele>421.572286</ele>
        <time>2020-09-21T08:35:40.088Z</time>
      </trkpt>
      <trkpt lat="67.05551" lon="20.73554">
        <ele>422.810186</ele>
        <time>2020-09-21T08:36:55.030Z</time>
      </trkpt>
      <trkpt lat="67.05335" lon="20.73666">
        <ele>424.02123</ele>
        <time>2020-09-21T08:38:14.067Z</time>
      </trkpt>
      <trkpt lat="67.05124" lon="20.73806">
        <ele>425.532137</ele>
        <time>2020-09-21T08:39:34.096Z</time>
      </trkpt>
      <trkpt lat="67.04911" lon="20.73878">
        <ele>431.472072</ele>
        <time>2020-09-21T08:40:49.031Z</time>
      </trkpt>
      <trkpt lat="67.04708" lon="20.73873">
        <ele>436.097068</ele>
        <time>2020-09-21T08:42:11.060Z</time>
      </trkpt>
      <trkpt lat="67.04501" lon="20.73797">
        <ele>436.320592</ele>
        <time>2020-09-21T08:43:18.053Z</time>
      </trkpt>
      <trkpt lat="67.04299" lon="20.73662">
        <ele>429.697721</ele>
        <time>2020-09-21T08:44:19.048Z</time>
      </trkpt>
      <trkpt lat="67.04119" lon="20.73475">
        <ele>432.024114</ele>
        <time>2020-09-21T08:45:22.036Z</time>
      </trkpt>
      <trkpt lat="67.03932" lon="20.73232">
        <ele>439.954998</ele>
        <time>2020-09-21T08:46:42.031Z</time>
      </trkpt>
      <trkpt lat="67.0375" lon="20.73008">
        <ele>443.280218</ele>
        <time>2020-09-21T08:48:05.050Z</time>
      </trkpt>
      <trkpt lat="67.03543" lon="20.72781">
        <ele>435.922506</ele>
        <time>2020-09-21T08:48:56.038Z</time>
      </trkpt>
      <trkpt lat="67.03316" lon="20.72678">
        <ele>434.867075</ele>
        <time>2020-09-21T08:49:46.065Z</time>
      </trkpt>
      <trkpt lat="67.03085" lon="20.72713">
        <ele>436.974232</ele>
        <time>2020-09-21T08:50:46.033Z</time>
      </trkpt>
      <trkpt lat="67.02852" lon="20.72893">
        <ele>436.348446</ele>
        <time>2020-09-21T08:51:43.082Z</time>
      </trkpt>
      <trkpt lat="67.02665" lon="20.73145">
        <ele>440.719824</ele>
        <time>2020-09-21T08:52:50.066Z</time>
      </trkpt>
      <trkpt lat="67.02469" lon="20.7334">
        <ele>436.89505</ele>
        <time>2020-09-21T08:53:42.032Z</time>
      </trkpt>
      <trkpt lat="67.02266" lon="20.73503">
        <ele>435.361332</ele>
        <time>2020-09-21T08:54:27.046Z</time>
      </trkpt>
      <trkpt lat="67.02044" lon="20.73654">
        <ele>433.558299</ele>
        <time>2020-09-21T08:55:19.041Z</time>
      </trkpt>
      <trkpt lat="67.01842" lon="20.73673">
        <ele>431.678922</ele>
        <time>2020-09-21T08:56:02.046Z</time>
      </trkpt>
      <trkpt lat="67.01629" lon="20.7356">
        <ele>434.203928</ele>
        <time>2020-09-21T08:56:59.068Z</time>
      </trkpt>
      <trkpt lat="67.01404" lon="20.73474">
        <ele>432.326203</ele>
        <time>2020-09-21T08:57:59.049Z</time>
      </trkpt>
      <trkpt lat="67.01209" lon="20.73498">
        <ele>433.138101</ele>
        <time>2020-09-21T08:58:59.075Z</time>
      </trkpt>
      <trkpt lat="67.00997" lon="20.73569">
        <ele>436.719779</ele>
        <time>2020-09-21T09:00:12.069Z</time>
      </trkpt>
      <trkpt lat="67.00789" lon="20.73553">
        <ele>444.042683</ele>
        <time>2020-09-21T09:01:19.048Z</time>
      </trkpt>
      <trkpt lat="67.00593" lon="20.73513">
        <ele>456.135444</ele>
        <time>2020-09-21T09:02:58.054Z</time>
      </trkpt>
      <trkpt lat="67.00395" lon="20.73554">
        <ele>466.288966</ele>
        <time>2020-09-21T09:04:47.069Z</time>
      </trkpt>
      <trkpt lat="67.00196" lon="20.73689">
        <ele>470.700003</ele>
        <time>2020-09-21T09:06:25.052Z</time>
      </trkpt>
      <trkpt lat="67.00006" lon="20.73893">
        <ele>467.838919</ele>
        <time>2020-09-21T09:07:20.052Z</time>
      </trkpt>
      <trkpt lat="66.99813" lon="20.7406">
        <ele>463.639284</ele>
        <time>2020-09-21T09:08:02.065Z</time>
      </trkpt>
      <trkpt lat="66.99581" lon="20.74154">
        <ele>464.732669</ele>
        <time>2020-09-21T09:08:57.046Z</time>
      </trkpt>
      <trkpt lat="66.99356" lon="20.74158">
        <ele>470.147926</ele>
        <time>2020-09-21T09:09:57.071Z</time>
      </trkpt>
      <trkpt lat="66.99132" lon="20.74157">
        <ele>470.455479</ele>
        <time>2020-09-21T09:10:55.047Z</time>
      </trkpt>
      <trkpt lat="66.98913" lon="20.74152">
        <ele>468.465465</ele>
        <time>2020-09-21T09:11:43.077Z</time>
      </trkpt>
      <trkpt lat="66.98712" lon="20.74149">
        <ele>467.432955</ele>
        <time>2020-09-21T09:12:25.075Z</time>
      </trkpt>
      <trkpt lat="66.98493" lon="20.74161">
        <ele>465.245618</ele>
        <time>2020-09-21T09:13:15.042Z</time>
      </trkpt>
      <trkpt lat="66.98264" lon="20.74199">
        <ele>463.390421</ele>
        <time>2020-09-21T09:14:05.044Z</time>
      </trkpt>
      <trkpt lat="66.98046" lon="20.74269">
        <ele>458.773922</ele>
        <time>2020-09-21T09:14:48.050Z</time>
      </trkpt>
      <trkpt lat="66.9783" lon="20.74359">
        <ele>455.29297</ele>
        <time>2020-09-21T09:15:32.065Z</time>
      </trkpt>
      <trkpt lat="66.97628" lon="20.74447">
        <ele>455.974792</ele>
        <time>2020-09-21T09:16:15.051Z</time>
      </trkpt>
      <trkpt lat="66.97403" lon="20.74545">
        <ele>457.719357</ele>
        <time>2020-09-21T09:17:07.042Z</time>
      </trkpt>
      <trkpt lat="66.97199" lon="20.7468">
        <ele>453.407135</ele>
        <time>2020-09-21T09:17:54.048Z</time>
      </trkpt>
      <trkpt lat="66.96994" lon="20.74956">
        <ele>452.753193</ele>
        <time>2020-09-21T09:18:50.043Z</time>
      </trkpt>
      <trkpt lat="66.96824" lon="20.75336">
        <ele>450.912184</ele>
        <time>2020-09-21T09:19:41.095Z</time>
      </trkpt>
      <trkpt lat="66.96672" lon="20.75743">
        <ele>452.417984</ele>
        <time>2020-09-21T09:20:34.100Z</time>
      </trkpt>
      <trkpt lat="66.96559" lon="20.76201">
        <ele>454.526336</ele>
        <time>2020-09-21T09:21:35.061Z</time>
      </trkpt>
      <trkpt lat="66.96439" lon="20.76705">
        <ele>453.79742</ele>
        <time>2020-09-21T09:22:34.051Z</time>
      </trkpt>
      <trkpt lat="66.9631" lon="20.77199">
        <ele>451.442253</ele>
        <time>2020-09-21T09:23:16.050Z</time>
      </trkpt>
      <trkpt lat="66.96142" lon="20.7765">
        <ele>446.405226</ele>
        <time>2020-09-21T09:23:56.068Z</time>
      </trkpt>
      <trkpt lat="66.95986" lon="20.78046">
        <ele>444.87564</ele>
        <time>2020-09-21T09:24:36.046Z</time>
      </trkpt>
      <trkpt lat="66.95836" lon="20.78469">
        <ele>442.866934</ele>
        <time>2020-09-21T09:25:16.057Z</time>
      </trkpt>
      <trkpt lat="66.95656" lon="20.78784">
        <ele>443.336135</ele>
        <time>2020-09-21T09:26:06.045Z</time>
      </trkpt>
      <trkpt lat="66.95449" lon="20.79023">
        <ele>443.098245</ele>
        <time>2020-09-21T09:27:05.072Z</time>
      </trkpt>
      <trkpt lat="66.95267" lon="20.79284">
        <ele>441.150062</ele>
        <time>2020-09-21T09:27:51.045Z</time>
      </trkpt>
      <trkpt lat="66.95079" lon="20.79546">
        <ele>435.336057</ele>
        <time>2020-09-21T09:28:32.049Z</time>
      </trkpt>
      <trkpt lat="66.9487" lon="20.79842">
        <ele>432.497858</ele>
        <time>2020-09-21T09:29:12.083Z</time>
      </trkpt>
      <trkpt lat="66.9468" lon="20.80118">
        <ele>431.416598</ele>
        <time>2020-09-21T09:29:52.053Z</time>
      </trkpt>
      <trkpt lat="66.94501" lon="20.80488">
        <ele>433.543667</ele>
        <time>2020-09-21T09:30:32.062Z</time>
      </trkpt>
      <trkpt lat="66.9435" lon="20.80879">
        <ele>437.232308</ele>
        <time>2020-09-21T09:31:30.077Z</time>
      </trkpt>
      <trkpt lat="66.94201" lon="20.81272">
        <ele>437.946138</ele>
        <time>2020-09-21T09:32:21.094Z</time>
      </trkpt>
      <trkpt lat="66.94074" lon="20.81682">
        <ele>437.059796</ele>
        <time>2020-09-21T09:33:02.046Z</time>
      </trkpt>
      <trkpt lat="66.93978" lon="20.82178">
        <ele>433.613714</ele>
        <time>2020-09-21T09:33:45.044Z</time>
      </trkpt>
      <trkpt lat="66.93881" lon="20.82722">
        <ele>435.06606</ele>
        <time>2020-09-21T09:34:43.104Z</time>
      </trkpt>
      <trkpt lat="66.93815" lon="20.83231">
        <ele>439.516617</ele>
        <time>2020-09-21T09:35:44.071Z</time>
      </trkpt>
      <trkpt lat="66.93753" lon="20.83745">
        <ele>439.539978</ele>
        <time>2020-09-21T09:36:34.062Z</time>
      </trkpt>
      <trkpt lat="66.93693" lon="20.84237">
        <ele>441.432163</ele>
        <time>2020-09-21T09:37:59.062Z</time>
      </trkpt>
      <trkpt lat="66.93658" lon="20.84813">
        <ele>438.972653</ele>
        <time>2020-09-21T09:38:43.072Z</time>
      </trkpt>
      <trkpt lat="66.93641" lon="20.85364">
        <ele>439.848251</ele>
        <time>2020-09-21T09:39:23.074Z</time>
      </trkpt>
      <trkpt lat="66.93561" lon="20.859">
        <ele>439.470761</ele>
        <time>2020-09-21T09:40:03.095Z</time>
      </trkpt>
      <trkpt lat="66.93413" lon="20.86351">
        <ele>434.992993</ele>
        <time>2020-09-21T09:40:43.070Z</time>
      </trkpt>
      <trkpt lat="66.93267" lon="20.86749">
        <ele>434.086356</ele>
        <time>2020-09-21T09:41:23.098Z</time>
      </trkpt>
      <trkpt lat="66.93104" lon="20.87069">
        <ele>435.222767</ele>
        <time>2020-09-21T09:42:14.052Z</time>
      </trkpt>
      <trkpt lat="66.92923" lon="20.87358">
        <ele>437.995625</ele>
        <time>2020-09-21T09:43:14.100Z</time>
      </trkpt>
      <trkpt lat="66.92789" lon="20.87698">
        <ele>436.292935</ele>
        <time>2020-09-21T09:43:54.055Z</time>
      </trkpt>
      <trkpt lat="66.92627" lon="20.88102">
        <ele>433.537499</ele>
        <time>2020-09-21T09:44:34.087Z</time>
      </trkpt>
      <trkpt lat="66.92389" lon="20.88233">
        <ele>434.288108</ele>
        <time>2020-09-21T09:45:33.073Z</time>
      </trkpt>
      <trkpt lat="66.9218" lon="20.88161">
        <ele>433.106311</ele>
        <time>2020-09-21T09:46:23.049Z</time>
      </trkpt>
      <trkpt lat="66.91967" lon="20.88092">
        <ele>430.376423</ele>
        <time>2020-09-21T09:47:11.055Z</time>
      </trkpt>
      <trkpt lat="66.91749" lon="20.88099">
        <ele>423.88271</ele>
        <time>2020-09-21T09:47:52.084Z</time>
      </trkpt>
      <trkpt lat="66.91543" lon="20.88095">
        <ele>421.163559</ele>
        <time>2020-09-21T09:48:32.083Z</time>
      </trkpt>
      <trkpt lat="66.91352" lon="20.88067">
        <ele>421.107802</ele>
        <time>2020-09-21T09:49:12.053Z</time>
      </trkpt>
      <trkpt lat="66.91153" lon="20.88112">
        <ele>419.176268</ele>
        <time>2020-09-21T09:49:52.058Z</time>
      </trkpt>
      <trkpt lat="66.9095" lon="20.88301">
        <ele>416.589129</ele>
        <time>2020-09-21T09:50:32.059Z</time>
      </trkpt>
      <trkpt lat="66.90777" lon="20.88599">
        <ele>414.109043</ele>
        <time>2020-09-21T09:51:12.063Z</time>
      </trkpt>
      <trkpt lat="66.90608" lon="20.88933">
        <ele>413.24162</ele>
        <time>2020-09-21T09:52:00.065Z</time>
      </trkpt>
      <trkpt lat="66.90435" lon="20.89273">
        <ele>419.951448</ele>
        <time>2020-09-21T10:05:38.112Z</time>
      </trkpt>
      <trkpt lat="66.90233" lon="20.89507">
        <ele>418.83975</ele>
        <time>2020-09-21T10:06:40.068Z</time>
      </trkpt>
      <trkpt lat="66.90033" lon="20.89715">
        <ele>417.642223</ele>
        <time>2020-09-21T10:07:40.054Z</time>
      </trkpt>
      <trkpt lat="66.89871" lon="20.90054">
        <ele>417.302057</ele>
        <time>2020-09-21T10:08:40.065Z</time>
      </trkpt>
      <trkpt lat="66.89747" lon="20.90536">
        <ele>412.883435</ele>
        <time>2020-09-21T10:09:33.093Z</time>
      </trkpt>
      <trkpt lat="66.89656" lon="20.91099">
        <ele>413.485037</ele>
        <time>2020-09-21T10:10:13.065Z</time>
      </trkpt>
      <trkpt lat="66.89539" lon="20.91537">
        <ele>413.136103</ele>
        <time>2020-09-21T10:10:53.055Z</time>
      </trkpt>
      <trkpt lat="66.8942" lon="20.91931">
        <ele>413.891991</ele>
        <time>2020-09-21T10:11:33.096Z</time>
      </trkpt>
      <trkpt lat="66.89265" lon="20.92305">
        <ele>413.491772</ele>
        <time>2020-09-21T10:12:13.101Z</time>
      </trkpt>
      <trkpt lat="66.89093" lon="20.92715">
        <ele>409.587291</ele>
        <time>2020-09-21T10:12:53.077Z</time>
      </trkpt>
      <trkpt lat="66.88924" lon="20.9311">
        <ele>408.916511</ele>
        <time>2020-09-21T10:13:33.075Z</time>
      </trkpt>
      <trkpt lat="66.8875" lon="20.93388">
        <ele>408.757375</ele>
        <time>2020-09-21T10:14:16.067Z</time>
      </trkpt>
      <trkpt lat="66.88557" lon="20.9357">
        <ele>405.509971</ele>
        <time>2020-09-21T10:14:57.084Z</time>
      </trkpt>
      <trkpt lat="66.88352" lon="20.93883">
        <ele>402.821517</ele>
        <time>2020-09-21T10:15:37.094Z</time>
      </trkpt>
      <trkpt lat="66.88193" lon="20.9426">
        <ele>400.9015</ele>
        <time>2020-09-21T10:16:17.056Z</time>
      </trkpt>
      <trkpt lat="66.88033" lon="20.94642">
        <ele>396.884955</ele>
        <time>2020-09-21T10:16:57.093Z</time>
      </trkpt>
      <trkpt lat="66.87868" lon="20.95084">
        <ele>393.171072</ele>
        <time>2020-09-21T10:17:37.070Z</time>
      </trkpt>
      <trkpt lat="66.87742" lon="20.95534">
        <ele>397.430925</ele>
        <time>2020-09-21T10:18:20.060Z</time>
      </trkpt>
      <trkpt lat="66.87628" lon="20.95971">
        <ele>396.341624</ele>
        <time>2020-09-21T10:19:00.056Z</time>
      </trkpt>
      <trkpt lat="66.87495" lon="20.96352">
        <ele>395.781353</ele>
        <time>2020-09-21T10:19:44.088Z</time>
      </trkpt>
      <trkpt lat="66.87327" lon="20.96674">
        <ele>396.140714</ele>
        <time>2020-09-21T10:20:25.063Z</time>
      </trkpt>
      <trkpt lat="66.87157" lon="20.97011">
        <ele>395.103063</ele>
        <time>2020-09-21T10:21:05.094Z</time>
      </trkpt>
      <trkpt lat="66.86983" lon="20.97474">
        <ele>392.30476</ele>
        <time>2020-09-21T10:21:45.073Z</time>
      </trkpt>
      <trkpt lat="66.86826" lon="20.97897">
        <ele>388.787547</ele>
        <time>2020-09-21T10:22:25.086Z</time>
      </trkpt>
      <trkpt lat="66.86663" lon="20.9833">
        <ele>385.086779</ele>
        <time>2020-09-21T10:23:05.086Z</time>
      </trkpt>
      <trkpt lat="66.86502" lon="20.98759">
        <ele>384.245907</ele>
        <time>2020-09-21T10:23:45.060Z</time>
      </trkpt>
      <trkpt lat="66.8633" lon="20.99128">
        <ele>384.25493</ele>
        <time>2020-09-21T10:24:27.108Z</time>
      </trkpt>
      <trkpt lat="66.86137" lon="20.99353">
        <ele>383.780577</ele>
        <time>2020-09-21T10:25:07.065Z</time>
      </trkpt>
      <trkpt lat="66.85935" lon="20.99464">
        <ele>383.102305</ele>
        <time>2020-09-21T10:25:47.083Z</time>
      </trkpt>
      <trkpt lat="66.85697" lon="20.99694">
        <ele>378.616402</ele>
        <time>2020-09-21T10:26:27.054Z</time>
      </trkpt>
      <trkpt lat="66.85504" lon="20.99939">
        <ele>378.275439</ele>
        <time>2020-09-21T10:27:07.114Z</time>
      </trkpt>
      <trkpt lat="66.85313" lon="21.00142">
        <ele>385.422901</ele>
        <time>2020-09-21T10:28:03.081Z</time>
      </trkpt>
      <trkpt lat="66.85133" lon="21.00331">
        <ele>400.08529</ele>
        <time>2020-09-21T10:29:55.069Z</time>
      </trkpt>
      <trkpt lat="66.84951" lon="21.00519">
        <ele>409.859544</ele>
        <time>2020-09-21T10:31:36.066Z</time>
      </trkpt>
      <trkpt lat="66.8476" lon="21.00716">
        <ele>410.629991</ele>
        <time>2020-09-21T10:32:55.064Z</time>
      </trkpt>
      <trkpt lat="66.84557" lon="21.01029">
        <ele>398.124661</ele>
        <time>2020-09-21T10:33:39.075Z</time>
      </trkpt>
      <trkpt lat="66.84396" lon="21.01451">
        <ele>387.312344</ele>
        <time>2020-09-21T10:34:03.125Z</time>
      </trkpt>
      <trkpt lat="66.84258" lon="21.02057">
        <ele>380.964685</ele>
        <time>2020-09-21T10:34:43.092Z</time>
      </trkpt>
      <trkpt lat="66.8412" lon="21.02529">
        <ele>380.289921</ele>
        <time>2020-09-21T10:35:23.076Z</time>
      </trkpt>
      <trkpt lat="66.84042" lon="21.03058">
        <ele>379.722413</ele>
        <time>2020-09-21T10:36:03.064Z</time>
      </trkpt>
      <trkpt lat="66.83939" lon="21.036">
        <ele>380.204501</ele>
        <time>2020-09-21T10:36:43.068Z</time>
      </trkpt>
      <trkpt lat="66.83773" lon="21.03963">
        <ele>384.462235</ele>
        <time>2020-09-21T10:37:39.074Z</time>
      </trkpt>
      <trkpt lat="66.83563" lon="21.04166">
        <ele>384.982844</ele>
        <time>2020-09-21T10:38:32.071Z</time>
      </trkpt>
      <trkpt lat="66.83343" lon="21.03991">
        <ele>382.907756</ele>
        <time>2020-09-21T10:39:26.087Z</time>
      </trkpt>
      <trkpt lat="66.83117" lon="21.03829">
        <ele>380.381178</ele>
        <time>2020-09-21T10:40:22.093Z</time>
      </trkpt>
      <trkpt lat="66.82895" lon="21.03974">
        <ele>381.195845</ele>
        <time>2020-09-21T10:41:15.085Z</time>
      </trkpt>
      <trkpt lat="66.82663" lon="21.03967">
        <ele>382.913369</ele>
        <time>2020-09-21T10:42:09.072Z</time>
      </trkpt>
      <trkpt lat="66.82462" lon="21.04123">
        <ele>381.880944</ele>
        <time>2020-09-21T10:42:55.068Z</time>
      </trkpt>
      <trkpt lat="66.82244" lon="21.04256">
        <ele>378.650407</ele>
        <time>2020-09-21T10:43:44.116Z</time>
      </trkpt>
      <trkpt lat="66.82019" lon="21.04297">
        <ele>379.596291</ele>
        <time>2020-09-21T10:44:38.085Z</time>
      </trkpt>
      <trkpt lat="66.81791" lon="21.0431">
        <ele>379.243863</ele>
        <time>2020-09-21T10:45:38.072Z</time>
      </trkpt>
      <trkpt lat="66.81572" lon="21.04231">
        <ele>382.248271</ele>
        <time>2020-09-21T10:46:38.066Z</time>
      </trkpt>
      <trkpt lat="66.81339" lon="21.04385">
        <ele>382.898852</ele>
        <time>2020-09-21T10:47:34.081Z</time>
      </trkpt>
      <trkpt lat="66.81101" lon="21.0441">
        <ele>382.609654</ele>
        <time>2020-09-21T10:48:34.063Z</time>
      </trkpt>
      <trkpt lat="66.80882" lon="21.04231">
        <ele>379.387343</ele>
        <time>2020-09-21T10:49:27.079Z</time>
      </trkpt>
      <trkpt lat="66.80675" lon="21.03964">
        <ele>376.048356</ele>
        <time>2020-09-21T10:50:21.064Z</time>
      </trkpt>
      <trkpt lat="66.80446" lon="21.03779">
        <ele>375.527511</ele>
        <time>2020-09-21T10:51:19.102Z</time>
      </trkpt>
      <trkpt lat="66.80218" lon="21.03846">
        <ele>376.679315</ele>
        <time>2020-09-21T10:52:12.066Z</time>
      </trkpt>
      <trkpt lat="66.79995" lon="21.03901">
        <ele>376.523604</ele>
        <time>2020-09-21T10:53:03.065Z</time>
      </trkpt>
      <trkpt lat="66.7976" lon="21.03881">
        <ele>377.104866</ele>
        <time>2020-09-21T10:54:03.092Z</time>
      </trkpt>
      <trkpt lat="66.79529" lon="21.03858">
        <ele>373.758902</ele>
        <time>2020-09-21T10:55:03.089Z</time>
      </trkpt>
      <trkpt lat="66.79317" lon="21.03835">
        <ele>375.109996</ele>
        <time>2020-09-21T10:56:03.086Z</time>
      </trkpt>
      <trkpt lat="66.79102" lon="21.03819">
        <ele>374.977566</ele>
        <time>2020-09-21T10:57:03.106Z</time>
      </trkpt>
      <trkpt lat="66.78876" lon="21.03906">
        <ele>375.078487</ele>
        <time>2020-09-21T10:58:03.064Z</time>
      </trkpt>
      <trkpt lat="66.78648" lon="21.04074">
        <ele>374.303333</ele>
        <time>2020-09-21T10:58:58.077Z</time>
      </trkpt>
      <trkpt lat="66.78426" lon="21.04233">
        <ele>375.258369</ele>
        <time>2020-09-21T10:59:57.088Z</time>
      </trkpt>
      <trkpt lat="66.78208" lon="21.04407">
        <ele>376.377316</ele>
        <time>2020-09-21T11:00:55.072Z</time>
      </trkpt>
      <trkpt lat="66.78007" lon="21.04715">
        <ele>377.464951</ele>
        <time>2020-09-21T11:01:55.068Z</time>
      </trkpt>
      <trkpt lat="66.77815" lon="21.05018">
        <ele>377.931127</ele>
        <time>2020-09-21T11:02:55.105Z</time>
      </trkpt>
      <trkpt lat="66.77611" lon="21.0521">
        <ele>380.065565</ele>
        <time>2020-09-21T11:03:55.069Z</time>
      </trkpt>
      <trkpt lat="66.77415" lon="21.05267">
        <ele>387.14822</ele>
        <time>2020-09-21T11:05:13.077Z</time>
      </trkpt>
      <trkpt lat="66.7722" lon="21.05208">
        <ele>397.030252</ele>
        <time>2020-09-21T11:06:41.076Z</time>
      </trkpt>
      <trkpt lat="66.77034" lon="21.05">
        <ele>396.282134</ele>
        <time>2020-09-21T11:07:49.064Z</time>
      </trkpt>
      <trkpt lat="66.76864" lon="21.04578">
        <ele>381.066381</ele>
        <time>2020-09-21T11:08:32.092Z</time>
      </trkpt>
      <trkpt lat="66.76746" lon="21.04121">
        <ele>372.220572</ele>
        <time>2020-09-21T11:09:16.067Z</time>
      </trkpt>
      <trkpt lat="66.76637" lon="21.037">
        <ele>367.102114</ele>
        <time>2020-09-21T11:09:56.082Z</time>
      </trkpt>
      <trkpt lat="66.7651" lon="21.03315">
        <ele>365.650643</ele>
        <time>2020-09-21T11:10:36.110Z</time>
      </trkpt>
      <trkpt lat="66.76376" lon="21.0296">
        <ele>367.089211</ele>
        <time>2020-09-21T11:11:17.077Z</time>
      </trkpt>
      <trkpt lat="66.7621" lon="21.02607">
        <ele>368.326359</ele>
        <time>2020-09-21T11:12:09.094Z</time>
      </trkpt>
      <trkpt lat="66.76038" lon="21.02148">
        <ele>359.45256</ele>
        <time>2020-09-21T11:12:50.082Z</time>
      </trkpt>
      <trkpt lat="66.75902" lon="21.01783">
        <ele>357.269546</ele>
        <time>2020-09-21T11:13:33.090Z</time>
      </trkpt>
      <trkpt lat="66.75734" lon="21.01415">
        <ele>360.290028</ele>
        <time>2020-09-21T11:14:24.104Z</time>
      </trkpt>
      <trkpt lat="66.75548" lon="21.01008">
        <ele>360.490371</ele>
        <time>2020-09-21T11:15:24.076Z</time>
      </trkpt>
      <trkpt lat="66.75406" lon="21.00642">
        <ele>357.131144</ele>
        <time>2020-09-21T11:16:08.128Z</time>
      </trkpt>
      <trkpt lat="66.75301" lon="21.00149">
        <ele>352.227022</ele>
        <time>2020-09-21T11:17:10.071Z</time>
      </trkpt>
      <trkpt lat="66.75255" lon="20.99652">
        <ele>350.901209</ele>
        <time>2020-09-21T11:18:11.072Z</time>
      </trkpt>
      <trkpt lat="66.75249" lon="20.99071">
        <ele>352.233928</ele>
        <time>2020-09-21T11:19:11.115Z</time>
      </trkpt>
      <trkpt lat="66.75307" lon="20.98558">
        <ele>347.627311</ele>
        <time>2020-09-21T11:20:11.071Z</time>
      </trkpt>
      <trkpt lat="66.75417" lon="20.98033">
        <ele>346.297169</ele>
        <time>2020-09-21T11:21:09.108Z</time>
      </trkpt>
      <trkpt lat="66.75531" lon="20.97497">
        <ele>346.058593</ele>
        <time>2020-09-21T11:22:07.087Z</time>
      </trkpt>
      <trkpt lat="66.75566" lon="20.96954">
        <ele>349.746428</ele>
        <time>2020-09-21T11:23:07.104Z</time>
      </trkpt>
      <trkpt lat="66.75554" lon="20.96409">
        <ele>355.200478</ele>
        <time>2020-09-21T11:24:08.073Z</time>
      </trkpt>
      <trkpt lat="66.75548" lon="20.9586">
        <ele>353.512278</ele>
        <time>2020-09-21T11:24:59.076Z</time>
      </trkpt>
      <trkpt lat="66.75553" lon="20.95451">
        <ele>353.501348</ele>
        <time>2020-09-21T11:25:58.086Z</time>
      </trkpt>
      <trkpt lat="66.75305" lon="20.95459">
        <ele>351.826195</ele>
        <time>2020-09-21T11:26:58.086Z</time>
      </trkpt>
      <trkpt lat="66.75145" lon="20.95278">
        <ele>358.160999</ele>
        <time>2020-09-21T11:28:03.096Z</time>
      </trkpt>
      <trkpt lat="66.75152" lon="20.94757">
        <ele>352.978116</ele>
        <time>2020-09-21T11:29:08.076Z</time>
      </trkpt>
      <trkpt lat="66.75155" lon="20.94227">
        <ele>354.091543</ele>
        <time>2020-09-21T11:30:08.101Z</time>
      </trkpt>
      <trkpt lat="66.75033" lon="20.93853">
        <ele>359.353164</ele>
        <time>2020-09-21T11:31:09.100Z</time>
      </trkpt>
      <trkpt lat="66.74857" lon="20.93605">
        <ele>366.73957</ele>
        <time>2020-09-21T11:32:26.114Z</time>
      </trkpt>
      <trkpt lat="66.74748" lon="20.93146">
        <ele>365.248388</ele>
        <time>2020-09-21T11:33:42.125Z</time>
      </trkpt>
      <trkpt lat="66.74547" lon="20.93179">
        <ele>365.709463</ele>
        <time>2020-09-21T11:34:36.084Z</time>
      </trkpt>
      <trkpt lat="66.74335" lon="20.93139">
        <ele>362.913909</ele>
        <time>2020-09-21T11:35:22.064Z</time>
      </trkpt>
      <trkpt lat="66.74149" lon="20.92928">
        <ele>364.462641</ele>
        <time>2020-09-21T11:36:22.069Z</time>
      </trkpt>
      <trkpt lat="66.73967" lon="20.92689">
        <ele>370.426416</ele>
        <time>2020-09-21T11:37:30.170Z</time>
      </trkpt>
      <trkpt lat="66.73782" lon="20.92451">
        <ele>376.444253</ele>
        <time>2020-09-21T11:38:49.099Z</time>
      </trkpt>
      <trkpt lat="66.73603" lon="20.92217">
        <ele>374.317821</ele>
        <time>2020-09-21T11:39:49.105Z</time>
      </trkpt>
      <trkpt lat="66.73432" lon="20.91993">
        <ele>372.288159</ele>
        <time>2020-09-21T11:40:48.100Z</time>
      </trkpt>
      <trkpt lat="66.73258" lon="20.91699">
        <ele>374.388284</ele>
        <time>2020-09-21T11:42:00.103Z</time>
      </trkpt>
      <trkpt lat="66.73147" lon="20.91291">
        <ele>376.380558</ele>
        <time>2020-09-21T11:43:12.076Z</time>
      </trkpt>
      <trkpt lat="66.73016" lon="20.90903">
        <ele>386.360217</ele>
        <time>2020-09-21T11:44:49.079Z</time>
      </trkpt>
      <trkpt lat="66.72837" lon="20.90622">
        <ele>390.964083</ele>
        <time>2020-09-21T11:46:04.125Z</time>
      </trkpt>
      <trkpt lat="66.72644" lon="20.9032">
        <ele>380.226446</ele>
        <time>2020-09-21T11:46:44.083Z</time>
      </trkpt>
      <trkpt lat="66.72463" lon="20.90042">
        <ele>371.833089</ele>
        <time>2020-09-21T11:47:31.104Z</time>
      </trkpt>
      <trkpt lat="66.72285" lon="20.89767">
        <ele>379.368713</ele>
        <time>2020-09-21T11:48:42.104Z</time>
      </trkpt>
      <trkpt lat="66.72075" lon="20.89554">
        <ele>381.594984</ele>
        <time>2020-09-21T11:49:33.105Z</time>
      </trkpt>
      <trkpt lat="66.71852" lon="20.89524">
        <ele>376.131824</ele>
        <time>2020-09-21T11:50:24.082Z</time>
      </trkpt>
      <trkpt lat="66.7164" lon="20.89538">
        <ele>367.695095</ele>
        <time>2020-09-21T11:51:04.105Z</time>
      </trkpt>
      <trkpt lat="66.71417" lon="20.89549">
        <ele>359.995967</ele>
        <time>2020-09-21T11:51:44.125Z</time>
      </trkpt>
      <trkpt lat="66.71193" lon="20.89533">
        <ele>366.904392</ele>
        <time>2020-09-21T11:52:44.105Z</time>
      </trkpt>
      <trkpt lat="66.70973" lon="20.89431">
        <ele>368.441727</ele>
        <time>2020-09-21T11:53:26.084Z</time>
      </trkpt>
      <trkpt lat="66.70738" lon="20.89292">
        <ele>362.755147</ele>
        <time>2020-09-21T11:54:06.088Z</time>
      </trkpt>
      <trkpt lat="66.7053" lon="20.89219">
        <ele>359.308503</ele>
        <time>2020-09-21T11:54:46.088Z</time>
      </trkpt>
      <trkpt lat="66.70296" lon="20.89187">
        <ele>363.44999</ele>
        <time>2020-09-21T11:55:45.093Z</time>
      </trkpt>
      <trkpt lat="66.70087" lon="20.89156">
        <ele>368.963563</ele>
        <time>2020-09-21T11:56:45.101Z</time>
      </trkpt>
      <trkpt lat="66.69886" lon="20.89086">
        <ele>372.969037</ele>
        <time>2020-09-21T11:57:46.092Z</time>
      </trkpt>
      <trkpt lat="66.6969" lon="20.88926">
        <ele>377.712838</ele>
        <time>2020-09-21T11:58:56.088Z</time>
      </trkpt>
      <trkpt lat="66.69496" lon="20.88766">
        <ele>383.405801</ele>
        <time>2020-09-21T12:00:12.095Z</time>
      </trkpt>
      <trkpt lat="66.69293" lon="20.88682">
        <ele>380.474502</ele>
        <time>2020-09-21T12:01:19.106Z</time>
      </trkpt>
      <trkpt lat="66.69095" lon="20.88837">
        <ele>377.677788</ele>
        <time>2020-09-21T12:02:11.102Z</time>
      </trkpt>
      <trkpt lat="66.68934" lon="20.89129">
        <ele>371.905628</ele>
        <time>2020-09-21T12:02:51.094Z</time>
      </trkpt>
      <trkpt lat="66.68771" lon="20.89427">
        <ele>363.718456</ele>
        <time>2020-09-21T12:03:33.083Z</time>
      </trkpt>
      <trkpt lat="66.68589" lon="20.89757">
        <ele>360.813278</ele>
        <time>2020-09-21T12:22:44.093Z</time>
      </trkpt>
      <trkpt lat="66.68392" lon="20.90125">
        <ele>361.890954</ele>
        <time>2020-09-21T12:23:43.091Z</time>
      </trkpt>
      <trkpt lat="66.6822" lon="20.9044">
        <ele>370.073165</ele>
        <time>2020-09-21T12:24:53.099Z</time>
      </trkpt>
      <trkpt lat="66.68049" lon="20.90758">
        <ele>372.415741</ele>
        <time>2020-09-21T12:25:58.109Z</time>
      </trkpt>
      <trkpt lat="66.67865" lon="20.91132">
        <ele>365.88144</ele>
        <time>2020-09-21T12:26:41.100Z</time>
      </trkpt>
      <trkpt lat="66.67716" lon="20.91488">
        <ele>363.833875</ele>
        <time>2020-09-21T12:27:21.116Z</time>
      </trkpt>
      <trkpt lat="66.67563" lon="20.91844">
        <ele>361.353044</ele>
        <time>2020-09-21T12:28:01.093Z</time>
      </trkpt>
      <trkpt lat="66.67404" lon="20.92217">
        <ele>357.033964</ele>
        <time>2020-09-21T12:28:41.091Z</time>
      </trkpt>
      <trkpt lat="66.67242" lon="20.92598">
        <ele>356.740903</ele>
        <time>2020-09-21T12:29:22.104Z</time>
      </trkpt>
      <trkpt lat="66.67083" lon="20.92969">
        <ele>359.923527</ele>
        <time>2020-09-21T12:30:11.115Z</time>
      </trkpt>
      <trkpt lat="66.66928" lon="20.93338">
        <ele>361.411859</ele>
        <time>2020-09-21T12:31:01.102Z</time>
      </trkpt>
      <trkpt lat="66.66774" lon="20.93701">
        <ele>358.688412</ele>
        <time>2020-09-21T12:31:47.117Z</time>
      </trkpt>
      <trkpt lat="66.66608" lon="20.94105">
        <ele>355.341378</ele>
        <time>2020-09-21T12:32:30.114Z</time>
      </trkpt>
      <trkpt lat="66.66509" lon="20.94577">
        <ele>354.567947</ele>
        <time>2020-09-21T12:33:25.097Z</time>
      </trkpt>
      <trkpt lat="66.66365" lon="20.9502">
        <ele>350.157455</ele>
        <time>2020-09-21T12:34:05.122Z</time>
      </trkpt>
      <trkpt lat="66.66212" lon="20.95367">
        <ele>350.735689</ele>
        <time>2020-09-21T12:34:45.107Z</time>
      </trkpt>
      <trkpt lat="66.6606" lon="20.95689">
        <ele>350.924861</ele>
        <time>2020-09-21T12:35:26.118Z</time>
      </trkpt>
      <trkpt lat="66.65901" lon="20.96031">
        <ele>349.670285</ele>
        <time>2020-09-21T12:36:12.101Z</time>
      </trkpt>
      <trkpt lat="66.65738" lon="20.96378">
        <ele>346.919121</ele>
        <time>2020-09-21T12:36:53.086Z</time>
      </trkpt>
      <trkpt lat="66.65613" lon="20.96821">
        <ele>345.266268</ele>
        <time>2020-09-21T12:37:38.096Z</time>
      </trkpt>
      <trkpt lat="66.65576" lon="20.97394">
        <ele>344.701919</ele>
        <time>2020-09-21T12:38:18.107Z</time>
      </trkpt>
      <trkpt lat="66.65636" lon="20.97961">
        <ele>340.503796</ele>
        <time>2020-09-21T12:38:58.113Z</time>
      </trkpt>
      <trkpt lat="66.65678" lon="20.98506">
        <ele>339.738732</ele>
        <time>2020-09-21T12:39:43.117Z</time>
      </trkpt>
      <trkpt lat="66.65546" lon="20.98916">
        <ele>334.149516</ele>
        <time>2020-09-21T12:40:24.102Z</time>
      </trkpt>
      <trkpt lat="66.65336" lon="20.99022">
        <ele>333.643699</ele>
        <time>2020-09-21T12:41:11.104Z</time>
      </trkpt>
      <trkpt lat="66.6514" lon="20.99106">
        <ele>332.714107</ele>
        <time>2020-09-21T12:41:51.110Z</time>
      </trkpt>
      <trkpt lat="66.64924" lon="20.99196">
        <ele>336.763551</ele>
        <time>2020-09-21T12:42:51.097Z</time>
      </trkpt>
      <trkpt lat="66.64732" lon="20.9941">
        <ele>337.890157</ele>
        <time>2020-09-21T12:43:46.124Z</time>
      </trkpt>
      <trkpt lat="66.64588" lon="20.99805">
        <ele>340.106879</ele>
        <time>2020-09-21T12:47:05.086Z</time>
      </trkpt>
      <trkpt lat="66.64438" lon="21.00223">
        <ele>337.216046</ele>
        <time>2020-09-21T12:47:47.141Z</time>
      </trkpt>
      <trkpt lat="66.64289" lon="21.00647">
        <ele>339.532772</ele>
        <time>2020-09-21T12:48:41.102Z</time>
      </trkpt>
      <trkpt lat="66.64131" lon="21.01081">
        <ele>337.692446</ele>
        <time>2020-09-21T12:49:21.107Z</time>
      </trkpt>
      <trkpt lat="66.63983" lon="21.01449">
        <ele>336.282203</ele>
        <time>2020-09-21T12:50:06.099Z</time>
      </trkpt>
      <trkpt lat="66.638" lon="21.01701">
        <ele>332.897996</ele>
        <time>2020-09-21T12:50:53.104Z</time>
      </trkpt>
      <trkpt lat="66.63584" lon="21.01809">
        <ele>331.563919</ele>
        <time>2020-09-21T12:51:52.103Z</time>
      </trkpt>
      <trkpt lat="66.63376" lon="21.01862">
        <ele>333.467072</ele>
        <time>2020-09-21T12:52:40.096Z</time>
      </trkpt>
      <trkpt lat="66.63159" lon="21.01915">
        <ele>335.75328</ele>
        <time>2020-09-21T12:53:40.103Z</time>
      </trkpt>
      <trkpt lat="66.6294" lon="21.01974">
        <ele>334.380722</ele>
        <time>2020-09-21T12:54:34.107Z</time>
      </trkpt>
      <trkpt lat="66.6271" lon="21.02028">
        <ele>332.836986</ele>
        <time>2020-09-21T12:55:33.095Z</time>
      </trkpt>
      <trkpt lat="66.62462" lon="21.02092">
        <ele>333.405075</ele>
        <time>2020-09-21T12:56:33.123Z</time>
      </trkpt>
      <trkpt lat="66.62233" lon="21.02151">
        <ele>335.682186</ele>
        <time>2020-09-21T12:57:33.112Z</time>
      </trkpt>
      <trkpt lat="66.62023" lon="21.02267">
        <ele>340.835814</ele>
        <time>2020-09-21T12:58:39.095Z</time>
      </trkpt>
      <trkpt lat="66.61845" lon="21.02475">
        <ele>345.546892</ele>
        <time>2020-09-21T12:59:45.124Z</time>
      </trkpt>
      <trkpt lat="66.61679" lon="21.02801">
        <ele>345.123746</ele>
        <time>2020-09-21T13:00:49.092Z</time>
      </trkpt>
      <trkpt lat="66.6153" lon="21.03167">
        <ele>340.324754</ele>
        <time>2020-09-21T13:01:29.120Z</time>
      </trkpt>
      <trkpt lat="66.61379" lon="21.03544">
        <ele>336.025655</ele>
        <time>2020-09-21T13:02:09.142Z</time>
      </trkpt>
      <trkpt lat="66.61214" lon="21.03949">
        <ele>333.997657</ele>
        <time>2020-09-21T13:03:00.161Z</time>
      </trkpt>
      <trkpt lat="66.61058" lon="21.04329">
        <ele>339.551499</ele>
        <time>2020-09-21T13:04:00.116Z</time>
      </trkpt>
      <trkpt lat="66.60906" lon="21.04707">
        <ele>338.688095</ele>
        <time>2020-09-21T13:04:48.110Z</time>
      </trkpt>
      <trkpt lat="66.60757" lon="21.0507">
        <ele>333.276506</ele>
        <time>2020-09-21T13:05:28.117Z</time>
      </trkpt>
      <trkpt lat="66.60618" lon="21.05413">
        <ele>329.673336</ele>
        <time>2020-09-21T13:06:08.125Z</time>
      </trkpt>
      <trkpt lat="66.60455" lon="21.05814">
        <ele>329.741402</ele>
        <time>2020-09-21T13:07:00.112Z</time>
      </trkpt>
      <trkpt lat="66.60293" lon="21.0618">
        <ele>326.909885</ele>
        <time>2020-09-21T13:07:40.096Z</time>
      </trkpt>
      <trkpt lat="66.60106" lon="21.06502">
        <ele>328.537554</ele>
        <time>2020-09-21T13:08:34.122Z</time>
      </trkpt>
      <trkpt lat="66.59924" lon="21.06812">
        <ele>331.313733</ele>
        <time>2020-09-21T13:09:38.150Z</time>
      </trkpt>
      <trkpt lat="66.59751" lon="21.07108">
        <ele>326.718755</ele>
        <time>2020-09-21T13:10:24.100Z</time>
      </trkpt>
      <trkpt lat="66.59564" lon="21.07433">
        <ele>321.814225</ele>
        <time>2020-09-21T13:11:14.134Z</time>
      </trkpt>
      <trkpt lat="66.59401" lon="21.07711">
        <ele>319.131792</ele>
        <time>2020-09-21T13:11:54.108Z</time>
      </trkpt>
      <trkpt lat="66.59197" lon="21.07941">
        <ele>319.227787</ele>
        <time>2020-09-21T13:12:34.122Z</time>
      </trkpt>
      <trkpt lat="66.58972" lon="21.07865">
        <ele>326.389367</ele>
        <time>2020-09-21T13:13:27.112Z</time>
      </trkpt>
      <trkpt lat="66.58772" lon="21.07782">
        <ele>329.200109</ele>
        <time>2020-09-21T13:14:11.108Z</time>
      </trkpt>
      <trkpt lat="66.58555" lon="21.07695">
        <ele>329.926481</ele>
        <time>2020-09-21T13:15:09.098Z</time>
      </trkpt>
      <trkpt lat="66.58347" lon="21.07607">
        <ele>329.293635</ele>
        <time>2020-09-21T13:16:09.098Z</time>
      </trkpt>
      <trkpt lat="66.5813" lon="21.07519">
        <ele>328.47234</ele>
        <time>2020-09-21T13:17:08.112Z</time>
      </trkpt>
      <trkpt lat="66.5791" lon="21.07424">
        <ele>333.463226</ele>
        <time>2020-09-21T13:18:08.102Z</time>
      </trkpt>
      <trkpt lat="66.57686" lon="21.07335">
        <ele>333.597226</ele>
        <time>2020-09-21T13:19:09.120Z</time>
      </trkpt>
      <trkpt lat="66.57468" lon="21.07247">
        <ele>333.207996</ele>
        <time>2020-09-21T13:20:09.110Z</time>
      </trkpt>
      <trkpt lat="66.57238" lon="21.07153">
        <ele>324.913659</ele>
        <time>2020-09-21T13:20:54.129Z</time>
      </trkpt>
      <trkpt lat="66.57216" lon="21.06637">
        <ele>318.990986</ele>
        <time>2020-09-21T13:21:53.122Z</time>
      </trkpt>
      <trkpt lat="66.57228" lon="21.06116">
        <ele>322.00079</ele>
        <time>2020-09-21T13:22:59.129Z</time>
      </trkpt>
      <trkpt lat="66.57235" lon="21.05597">
        <ele>326.717103</ele>
        <time>2020-09-21T13:24:05.113Z</time>
      </trkpt>
      <trkpt lat="66.57246" lon="21.05088">
        <ele>329.292034</ele>
        <time>2020-09-21T13:25:08.108Z</time>
      </trkpt>
      <trkpt lat="66.57142" lon="21.04584">
        <ele>320.302844</ele>
        <time>2020-09-21T13:25:48.138Z</time>
      </trkpt>
      <trkpt lat="66.57079" lon="21.04063">
        <ele>319.858169</ele>
        <time>2020-09-21T13:26:36.122Z</time>
      </trkpt>
      <trkpt lat="66.57071" lon="21.03542">
        <ele>324.243853</ele>
        <time>2020-09-21T13:27:36.100Z</time>
      </trkpt>
      <trkpt lat="66.57077" lon="21.03031">
        <ele>327.379813</ele>
        <time>2020-09-21T13:28:42.122Z</time>
      </trkpt>
      <trkpt lat="66.5709" lon="21.02498">
        <ele>332.996572</ele>
        <time>2020-09-21T13:30:02.116Z</time>
      </trkpt>
      <trkpt lat="66.57054" lon="21.01989">
        <ele>335.689271</ele>
        <time>2020-09-21T13:31:20.106Z</time>
      </trkpt>
      <trkpt lat="66.5686" lon="21.01849">
        <ele>336.056172</ele>
        <time>2020-09-21T13:32:35.114Z</time>
      </trkpt>
      <trkpt lat="66.56652" lon="21.01766">
        <ele>334.341794</ele>
        <time>2020-09-21T13:33:25.148Z</time>
      </trkpt>
      <trkpt lat="66.56478" lon="21.01469">
        <ele>335.503994</ele>
        <time>2020-09-21T13:34:33.192Z</time>
      </trkpt>
      <trkpt lat="66.56298" lon="21.01165">
        <ele>328.784909</ele>
        <time>2020-09-21T13:35:16.106Z</time>
      </trkpt>
      <trkpt lat="66.56108" lon="21.0089">
        <ele>322.532063</ele>
        <time>2020-09-21T13:36:11.149Z</time>
      </trkpt>
      <trkpt lat="66.55932" lon="21.00623">
        <ele>334.549306</ele>
        <time>2020-09-21T13:37:34.129Z</time>
      </trkpt>
      <trkpt lat="66.55752" lon="21.004">
        <ele>341.601862</ele>
        <time>2020-09-21T13:39:07.145Z</time>
      </trkpt>
      <trkpt lat="66.55537" lon="21.00288">
        <ele>335.588193</ele>
        <time>2020-09-21T13:39:53.118Z</time>
      </trkpt>
      <trkpt lat="66.55334" lon="21.00229">
        <ele>333.333426</ele>
        <time>2020-09-21T13:40:37.149Z</time>
      </trkpt>
      <trkpt lat="66.55134" lon="21.00175">
        <ele>337.121988</ele>
        <time>2020-09-21T13:41:40.145Z</time>
      </trkpt>
      <trkpt lat="66.54928" lon="21.0002">
        <ele>336.725507</ele>
        <time>2020-09-21T13:45:55.114Z</time>
      </trkpt>
      <trkpt lat="66.54824" lon="20.99565">
        <ele>331.2608</ele>
        <time>2020-09-21T13:46:48.124Z</time>
      </trkpt>
      <trkpt lat="66.54724" lon="20.99044">
        <ele>322.983474</ele>
        <time>2020-09-21T13:47:42.115Z</time>
      </trkpt>
      <trkpt lat="66.54514" lon="20.98611">
        <ele>305.10677</ele>
        <time>2020-09-21T13:48:22.123Z</time>
      </trkpt>
      <trkpt lat="66.54305" lon="20.98326">
        <ele>300.601466</ele>
        <time>2020-09-21T13:49:11.109Z</time>
      </trkpt>
      <trkpt lat="66.5409" lon="20.98316">
        <ele>305.750999</ele>
        <time>2020-09-21T13:50:14.136Z</time>
      </trkpt>
      <trkpt lat="66.53897" lon="20.98211">
        <ele>302.471128</ele>
        <time>2020-09-21T13:50:57.109Z</time>
      </trkpt>
      <trkpt lat="66.53736" lon="20.97879">
        <ele>301.053823</ele>
        <time>2020-09-21T13:51:38.113Z</time>
      </trkpt>
      <trkpt lat="66.53518" lon="20.978">
        <ele>300.479831</ele>
        <time>2020-09-21T13:52:27.115Z</time>
      </trkpt>
      <trkpt lat="66.53295" lon="20.97706">
        <ele>298.222297</ele>
        <time>2020-09-21T13:53:19.170Z</time>
      </trkpt>
      <trkpt lat="66.53114" lon="20.97372">
        <ele>305.061226</ele>
        <time>2020-09-21T13:54:19.134Z</time>
      </trkpt>
      <trkpt lat="66.52982" lon="20.96911">
        <ele>305.237637</ele>
        <time>2020-09-21T13:55:14.114Z</time>
      </trkpt>
      <trkpt lat="66.52853" lon="20.96473">
        <ele>302.105695</ele>
        <time>2020-09-21T13:55:58.126Z</time>
      </trkpt>
      <trkpt lat="66.52745" lon="20.96026">
        <ele>305.329783</ele>
        <time>2020-09-21T13:57:11.127Z</time>
      </trkpt>
      <trkpt lat="66.52715" lon="20.95519">
        <ele>305.200351</ele>
        <time>2020-09-21T13:58:14.151Z</time>
      </trkpt>
      <trkpt lat="66.52555" lon="20.95159">
        <ele>296.558107</ele>
        <time>2020-09-21T13:59:04.105Z</time>
      </trkpt>
      <trkpt lat="66.52376" lon="20.94825">
        <ele>291.492854</ele>
        <time>2020-09-21T13:59:44.148Z</time>
      </trkpt>
      <trkpt lat="66.52191" lon="20.94476">
        <ele>291.089339</ele>
        <time>2020-09-21T14:00:35.130Z</time>
      </trkpt>
      <trkpt lat="66.52014" lon="20.94129">
        <ele>287.069017</ele>
        <time>2020-09-21T14:01:25.111Z</time>
      </trkpt>
      <trkpt lat="66.51878" lon="20.93737">
        <ele>285.395986</ele>
        <time>2020-09-21T14:02:08.117Z</time>
      </trkpt>
      <trkpt lat="66.51814" lon="20.93235">
        <ele>284.795924</ele>
        <time>2020-09-21T14:03:04.134Z</time>
      </trkpt>
      <trkpt lat="66.51679" lon="20.92795">
        <ele>284.171782</ele>
        <time>2020-09-21T14:03:57.150Z</time>
      </trkpt>
      <trkpt lat="66.51631" lon="20.92275">
        <ele>285.179117</ele>
        <time>2020-09-21T14:04:46.120Z</time>
      </trkpt>
      <trkpt lat="66.51596" lon="20.91744">
        <ele>284.867029</ele>
        <time>2020-09-21T14:05:36.158Z</time>
      </trkpt>
      <trkpt lat="66.51562" lon="20.91203">
        <ele>286.79738</ele>
        <time>2020-09-21T14:06:45.104Z</time>
      </trkpt>
      <trkpt lat="66.51527" lon="20.90657">
        <ele>285.172234</ele>
        <time>2020-09-21T14:07:45.125Z</time>
      </trkpt>
      <trkpt lat="66.51488" lon="20.90155">
        <ele>293.173486</ele>
        <time>2020-09-21T14:09:08.108Z</time>
      </trkpt>
      <trkpt lat="66.51407" lon="20.89693">
        <ele>301.948078</ele>
        <time>2020-09-21T14:10:56.114Z</time>
      </trkpt>
      <trkpt lat="66.51284" lon="20.8923">
        <ele>302.182157</ele>
        <time>2020-09-21T14:12:04.116Z</time>
      </trkpt>
      <trkpt lat="66.51165" lon="20.88793">
        <ele>297.227451</ele>
        <time>2020-09-21T14:13:06.137Z</time>
      </trkpt>
      <trkpt lat="66.50967" lon="20.88402">
        <ele>283.560419</ele>
        <time>2020-09-21T14:13:50.123Z</time>
      </trkpt>
      <trkpt lat="66.50769" lon="20.88094">
        <ele>275.780952</ele>
        <time>2020-09-21T14:14:30.114Z</time>
      </trkpt>
      <trkpt lat="66.50556" lon="20.8781">
        <ele>271.384391</ele>
        <time>2020-09-21T14:15:11.156Z</time>
      </trkpt>
      <trkpt lat="66.50322" lon="20.87599">
        <ele>267.849175</ele>
        <time>2020-09-21T14:15:51.121Z</time>
      </trkpt>
      <trkpt lat="66.455" lon="20.65661">
        <ele>120.983987</ele>
        <time>2020-09-21T15:28:33.158Z</time>
      </trkpt>
      <trkpt lat="66.45264" lon="20.65679">
        <ele>110.029784</ele>
        <time>2020-09-21T15:28:59.153Z</time>
      </trkpt>
      <trkpt lat="66.45061" lon="20.65482">
        <ele>104.753157</ele>
        <time>2020-09-21T15:29:35.170Z</time>
      </trkpt>
      <trkpt lat="66.44873" lon="20.65288">
        <ele>111.610458</ele>
        <time>2020-09-21T15:30:44.129Z</time>
      </trkpt>
      <trkpt lat="66.44662" lon="20.65218">
        <ele>115.240261</ele>
        <time>2020-09-21T15:31:33.126Z</time>
      </trkpt>
      <trkpt lat="66.44459" lon="20.64997">
        <ele>120.111163</ele>
        <time>2020-09-21T15:32:24.127Z</time>
      </trkpt>
      <trkpt lat="66.44308" lon="20.64634">
        <ele>121.209074</ele>
        <time>2020-09-21T15:33:11.131Z</time>
      </trkpt>
      <trkpt lat="66.44182" lon="20.64133">
        <ele>119.083075</ele>
        <time>2020-09-21T15:34:08.147Z</time>
      </trkpt>
      <trkpt lat="66.44082" lon="20.63673">
        <ele>132.478048</ele>
        <time>2020-09-21T15:35:28.129Z</time>
      </trkpt>
      <trkpt lat="66.43999" lon="20.63231">
        <ele>147.377752</ele>
        <time>2020-09-21T15:37:10.151Z</time>
      </trkpt>
      <trkpt lat="66.43915" lon="20.62779">
        <ele>151.018875</ele>
        <time>2020-09-21T15:38:42.143Z</time>
      </trkpt>
      <trkpt lat="66.43839" lon="20.62292">
        <ele>151.153506</ele>
        <time>2020-09-21T15:39:48.152Z</time>
      </trkpt>
      <trkpt lat="66.43783" lon="20.61803">
        <ele>158.915263</ele>
        <time>2020-09-21T15:40:48.144Z</time>
      </trkpt>
      <trkpt lat="66.4369" lon="20.61359">
        <ele>172.0254</ele>
        <time>2020-09-21T15:41:57.129Z</time>
      </trkpt>
      <trkpt lat="66.43528" lon="20.61054">
        <ele>155.079147</ele>
        <time>2020-09-21T15:42:57.191Z</time>
      </trkpt>
      <trkpt lat="66.43358" lon="20.60811">
        <ele>155.153957</ele>
        <time>2020-09-21T15:44:00.134Z</time>
      </trkpt>
      <trkpt lat="66.43185" lon="20.60529">
        <ele>158.681913</ele>
        <time>2020-09-21T15:45:01.152Z</time>
      </trkpt>
      <trkpt lat="66.43089" lon="20.60367">
        <ele>159.135676</ele>
        <time>2020-09-21T16:01:19.140Z</time>
      </trkpt>
      <trkpt lat="66.43122" lon="20.59937">
        <ele>156.481889</ele>
        <time>2020-09-21T16:10:07.149Z</time>
      </trkpt>
      <trkpt lat="66.4313" lon="20.59376">
        <ele>151.001313</ele>
        <time>2020-09-21T16:11:06.143Z</time>
      </trkpt>
    </trkseg>
  </trk>
  <trk>
    <name><![CDATA[Tour d'Europe: étape 086]]></name>
    <trkseg>
      <trkpt lat="66.4314" lon="20.59459">
        <ele>157.067796</ele>
        <time>2020-09-22T07:44:40.357Z</time>
      </trkpt>
      <trkpt lat="66.43119" lon="20.59968">
        <ele>153.460071</ele>
        <time>2020-09-22T07:45:40.363Z</time>
      </trkpt>
      <trkpt lat="66.4307" lon="20.60438">
        <ele>152.393981</ele>
        <time>2020-09-22T07:46:34.404Z</time>
      </trkpt>
      <trkpt lat="66.42999" lon="20.61057">
        <ele>140.478696</ele>
        <time>2020-09-22T07:47:11.337Z</time>
      </trkpt>
      <trkpt lat="66.42959" lon="20.6165">
        <ele>133.196856</ele>
        <time>2020-09-22T07:47:41.380Z</time>
      </trkpt>
      <trkpt lat="66.42906" lon="20.62184">
        <ele>134.175585</ele>
        <time>2020-09-22T07:48:21.345Z</time>
      </trkpt>
      <trkpt lat="66.42843" lon="20.62645">
        <ele>133.348093</ele>
        <time>2020-09-22T07:48:59.356Z</time>
      </trkpt>
      <trkpt lat="66.4265" lon="20.62954">
        <ele>130.462503</ele>
        <time>2020-09-22T07:49:39.368Z</time>
      </trkpt>
      <trkpt lat="66.42466" lon="20.63245">
        <ele>132.439853</ele>
        <time>2020-09-22T07:50:19.364Z</time>
      </trkpt>
      <trkpt lat="66.42266" lon="20.63391">
        <ele>135.104664</ele>
        <time>2020-09-22T07:51:18.352Z</time>
      </trkpt>
      <trkpt lat="66.42119" lon="20.6371">
        <ele>139.215365</ele>
        <time>2020-09-22T07:52:21.346Z</time>
      </trkpt>
      <trkpt lat="66.4191" lon="20.64174">
        <ele>132.003073</ele>
        <time>2020-09-22T07:52:59.335Z</time>
      </trkpt>
      <trkpt lat="66.41734" lon="20.64549">
        <ele>131.639875</ele>
        <time>2020-09-22T07:53:42.360Z</time>
      </trkpt>
      <trkpt lat="66.4159" lon="20.64899">
        <ele>136.356171</ele>
        <time>2020-09-22T07:54:42.369Z</time>
      </trkpt>
      <trkpt lat="66.41438" lon="20.65299">
        <ele>137.818776</ele>
        <time>2020-09-22T07:55:41.357Z</time>
      </trkpt>
      <trkpt lat="66.41312" lon="20.65664">
        <ele>139.505317</ele>
        <time>2020-09-22T07:56:21.362Z</time>
      </trkpt>
      <trkpt lat="66.4117" lon="20.66073">
        <ele>139.6833</ele>
        <time>2020-09-22T07:57:01.380Z</time>
      </trkpt>
      <trkpt lat="66.41032" lon="20.66494">
        <ele>144.45939</ele>
        <time>2020-09-22T07:57:51.348Z</time>
      </trkpt>
      <trkpt lat="66.40888" lon="20.6695">
        <ele>147.647508</ele>
        <time>2020-09-22T07:58:46.336Z</time>
      </trkpt>
      <trkpt lat="66.40769" lon="20.67358">
        <ele>141.870126</ele>
        <time>2020-09-22T07:59:24.355Z</time>
      </trkpt>
      <trkpt lat="66.40636" lon="20.67818">
        <ele>137.25018</ele>
        <time>2020-09-22T08:00:04.345Z</time>
      </trkpt>
      <trkpt lat="66.40514" lon="20.68209">
        <ele>139.655065</ele>
        <time>2020-09-22T08:00:44.357Z</time>
      </trkpt>
      <trkpt lat="66.40365" lon="20.68574">
        <ele>145.66715</ele>
        <time>2020-09-22T08:01:30.335Z</time>
      </trkpt>
      <trkpt lat="66.4019" lon="20.68896">
        <ele>145.648626</ele>
        <time>2020-09-22T08:02:18.393Z</time>
      </trkpt>
      <trkpt lat="66.40023" lon="20.69113">
        <ele>144.748936</ele>
        <time>2020-09-22T08:02:57.341Z</time>
      </trkpt>
      <trkpt lat="66.39828" lon="20.69288">
        <ele>149.839856</ele>
        <time>2020-09-22T08:03:57.352Z</time>
      </trkpt>
      <trkpt lat="66.39617" lon="20.69397">
        <ele>149.464091</ele>
        <time>2020-09-22T08:04:57.373Z</time>
      </trkpt>
      <trkpt lat="66.39391" lon="20.69507">
        <ele>143.236819</ele>
        <time>2020-09-22T08:05:50.371Z</time>
      </trkpt>
      <trkpt lat="66.39207" lon="20.6964">
        <ele>142.825026</ele>
        <time>2020-09-22T08:06:31.363Z</time>
      </trkpt>
      <trkpt lat="66.39007" lon="20.69855">
        <ele>143.070692</ele>
        <time>2020-09-22T08:07:11.368Z</time>
      </trkpt>
      <trkpt lat="66.38768" lon="20.70169">
        <ele>135.632548</ele>
        <time>2020-09-22T08:07:51.381Z</time>
      </trkpt>
      <trkpt lat="66.38544" lon="20.70444">
        <ele>134.938154</ele>
        <time>2020-09-22T08:08:31.391Z</time>
      </trkpt>
      <trkpt lat="66.38361" lon="20.70598">
        <ele>136.411489</ele>
        <time>2020-09-22T08:09:09.373Z</time>
      </trkpt>
      <trkpt lat="66.38143" lon="20.70738">
        <ele>132.325457</ele>
        <time>2020-09-22T08:09:49.361Z</time>
      </trkpt>
      <trkpt lat="66.37888" lon="20.70894">
        <ele>126.899539</ele>
        <time>2020-09-22T08:10:29.350Z</time>
      </trkpt>
      <trkpt lat="66.37649" lon="20.7107">
        <ele>123.169216</ele>
        <time>2020-09-22T08:11:09.344Z</time>
      </trkpt>
      <trkpt lat="66.37409" lon="20.71412">
        <ele>122.428708</ele>
        <time>2020-09-22T08:11:49.362Z</time>
      </trkpt>
      <trkpt lat="66.37246" lon="20.71746">
        <ele>127.633546</ele>
        <time>2020-09-22T08:12:41.369Z</time>
      </trkpt>
      <trkpt lat="66.37063" lon="20.72085">
        <ele>127.275814</ele>
        <time>2020-09-22T08:13:37.412Z</time>
      </trkpt>
      <trkpt lat="66.36867" lon="20.72341">
        <ele>122.0285</ele>
        <time>2020-09-22T08:14:17.333Z</time>
      </trkpt>
      <trkpt lat="66.3668" lon="20.72507">
        <ele>122.740827</ele>
        <time>2020-09-22T08:14:58.393Z</time>
      </trkpt>
      <trkpt lat="66.3647" lon="20.72605">
        <ele>121.700452</ele>
        <time>2020-09-22T08:15:36.375Z</time>
      </trkpt>
      <trkpt lat="66.36203" lon="20.72627">
        <ele>110.764508</ele>
        <time>2020-09-22T08:16:09.386Z</time>
      </trkpt>
      <trkpt lat="66.35938" lon="20.72616">
        <ele>104.765803</ele>
        <time>2020-09-22T08:16:45.395Z</time>
      </trkpt>
      <trkpt lat="66.3571" lon="20.7268">
        <ele>104.961291</ele>
        <time>2020-09-22T08:17:25.350Z</time>
      </trkpt>
      <trkpt lat="66.35525" lon="20.72737">
        <ele>106.950077</ele>
        <time>2020-09-22T08:18:03.351Z</time>
      </trkpt>
      <trkpt lat="66.35294" lon="20.72883">
        <ele>109.232285</ele>
        <time>2020-09-22T08:18:59.352Z</time>
      </trkpt>
      <trkpt lat="66.35106" lon="20.73077">
        <ele>105.783899</ele>
        <time>2020-09-22T08:19:43.355Z</time>
      </trkpt>
      <trkpt lat="66.34923" lon="20.73283">
        <ele>103.061768</ele>
        <time>2020-09-22T08:20:23.368Z</time>
      </trkpt>
      <trkpt lat="66.34749" lon="20.73481">
        <ele>102.91428</ele>
        <time>2020-09-22T08:21:01.370Z</time>
      </trkpt>
      <trkpt lat="66.34553" lon="20.73696">
        <ele>100.853714</ele>
        <time>2020-09-22T08:21:41.381Z</time>
      </trkpt>
      <trkpt lat="66.3435" lon="20.73933">
        <ele>100.917379</ele>
        <time>2020-09-22T08:22:21.352Z</time>
      </trkpt>
      <trkpt lat="66.34113" lon="20.7423">
        <ele>98.468399</ele>
        <time>2020-09-22T08:23:01.380Z</time>
      </trkpt>
      <trkpt lat="66.33889" lon="20.74627">
        <ele>98.51272</ele>
        <time>2020-09-22T08:23:41.383Z</time>
      </trkpt>
      <trkpt lat="66.33732" lon="20.74987">
        <ele>94.383901</ele>
        <time>2020-09-22T08:24:19.344Z</time>
      </trkpt>
      <trkpt lat="66.33591" lon="20.754">
        <ele>92.4492</ele>
        <time>2020-09-22T08:24:59.381Z</time>
      </trkpt>
      <trkpt lat="66.33442" lon="20.75859">
        <ele>88.958156</ele>
        <time>2020-09-22T08:25:39.384Z</time>
      </trkpt>
      <trkpt lat="66.33288" lon="20.76297">
        <ele>89.627199</ele>
        <time>2020-09-22T08:26:19.344Z</time>
      </trkpt>
      <trkpt lat="66.33142" lon="20.76621">
        <ele>91.134421</ele>
        <time>2020-09-22T08:26:57.378Z</time>
      </trkpt>
      <trkpt lat="66.32978" lon="20.76913">
        <ele>92.504573</ele>
        <time>2020-09-22T08:27:39.355Z</time>
      </trkpt>
      <trkpt lat="66.328" lon="20.77155">
        <ele>91.730995</ele>
        <time>2020-09-22T08:28:20.339Z</time>
      </trkpt>
      <trkpt lat="66.32611" lon="20.77346">
        <ele>89.841261</ele>
        <time>2020-09-22T08:29:00.352Z</time>
      </trkpt>
      <trkpt lat="66.32411" lon="20.77536">
        <ele>89.79707</ele>
        <time>2020-09-22T08:29:49.345Z</time>
      </trkpt>
      <trkpt lat="66.32199" lon="20.77815">
        <ele>96.770537</ele>
        <time>2020-09-22T08:30:47.353Z</time>
      </trkpt>
      <trkpt lat="66.32033" lon="20.78114">
        <ele>96.657614</ele>
        <time>2020-09-22T08:31:31.355Z</time>
      </trkpt>
      <trkpt lat="66.3186" lon="20.78512">
        <ele>93.281142</ele>
        <time>2020-09-22T08:32:12.396Z</time>
      </trkpt>
      <trkpt lat="66.31648" lon="20.78954">
        <ele>89.444699</ele>
        <time>2020-09-22T08:32:52.396Z</time>
      </trkpt>
      <trkpt lat="66.31458" lon="20.79269">
        <ele>87.055214</ele>
        <time>2020-09-22T08:33:30.341Z</time>
      </trkpt>
      <trkpt lat="66.31275" lon="20.79508">
        <ele>85.857419</ele>
        <time>2020-09-22T08:34:10.366Z</time>
      </trkpt>
      <trkpt lat="66.31085" lon="20.79703">
        <ele>85.916525</ele>
        <time>2020-09-22T08:34:55.359Z</time>
      </trkpt>
      <trkpt lat="66.3085" lon="20.79882">
        <ele>87.82143</ele>
        <time>2020-09-22T08:35:53.359Z</time>
      </trkpt>
      <trkpt lat="66.30657" lon="20.80012">
        <ele>95.109425</ele>
        <time>2020-09-22T08:36:50.395Z</time>
      </trkpt>
      <trkpt lat="66.30464" lon="20.80161">
        <ele>101.587111</ele>
        <time>2020-09-22T08:37:51.355Z</time>
      </trkpt>
      <trkpt lat="66.30253" lon="20.80411">
        <ele>99.957323</ele>
        <time>2020-09-22T08:38:50.358Z</time>
      </trkpt>
      <trkpt lat="66.30077" lon="20.80681">
        <ele>97.598613</ele>
        <time>2020-09-22T08:39:34.392Z</time>
      </trkpt>
      <trkpt lat="66.29913" lon="20.80907">
        <ele>97.123462</ele>
        <time>2020-09-22T08:40:12.368Z</time>
      </trkpt>
      <trkpt lat="66.29727" lon="20.81118">
        <ele>100.547127</ele>
        <time>2020-09-22T08:40:56.382Z</time>
      </trkpt>
      <trkpt lat="66.29515" lon="20.81304">
        <ele>96.186898</ele>
        <time>2020-09-22T08:41:38.360Z</time>
      </trkpt>
      <trkpt lat="66.29283" lon="20.81441">
        <ele>92.085512</ele>
        <time>2020-09-22T08:42:18.348Z</time>
      </trkpt>
      <trkpt lat="66.29055" lon="20.81547">
        <ele>95.225881</ele>
        <time>2020-09-22T08:43:10.360Z</time>
      </trkpt>
      <trkpt lat="66.28852" lon="20.81637">
        <ele>91.699215</ele>
        <time>2020-09-22T08:43:50.357Z</time>
      </trkpt>
      <trkpt lat="66.2862" lon="20.81754">
        <ele>85.908397</ele>
        <time>2020-09-22T08:44:30.361Z</time>
      </trkpt>
      <trkpt lat="66.28398" lon="20.81931">
        <ele>85.157124</ele>
        <time>2020-09-22T08:45:10.389Z</time>
      </trkpt>
      <trkpt lat="66.28173" lon="20.82091">
        <ele>85.452075</ele>
        <time>2020-09-22T08:45:50.396Z</time>
      </trkpt>
      <trkpt lat="66.2797" lon="20.82183">
        <ele>87.734411</ele>
        <time>2020-09-22T08:46:39.358Z</time>
      </trkpt>
      <trkpt lat="66.27765" lon="20.82265">
        <ele>91.93359</ele>
        <time>2020-09-22T08:47:42.357Z</time>
      </trkpt>
      <trkpt lat="66.27551" lon="20.82413">
        <ele>90.635417</ele>
        <time>2020-09-22T08:48:42.381Z</time>
      </trkpt>
      <trkpt lat="66.27335" lon="20.8264">
        <ele>90.187181</ele>
        <time>2020-09-22T08:49:42.362Z</time>
      </trkpt>
      <trkpt lat="66.2713" lon="20.82859">
        <ele>93.077668</ele>
        <time>2020-09-22T08:50:39.365Z</time>
      </trkpt>
      <trkpt lat="66.26908" lon="20.83041">
        <ele>95.515557</ele>
        <time>2020-09-22T08:51:39.409Z</time>
      </trkpt>
      <trkpt lat="66.2669" lon="20.83198">
        <ele>91.30981</ele>
        <time>2020-09-22T08:52:23.373Z</time>
      </trkpt>
      <trkpt lat="66.26446" lon="20.83391">
        <ele>82.766301</ele>
        <time>2020-09-22T08:53:03.367Z</time>
      </trkpt>
      <trkpt lat="66.26244" lon="20.83606">
        <ele>78.127274</ele>
        <time>2020-09-22T08:53:41.374Z</time>
      </trkpt>
      <trkpt lat="66.26043" lon="20.83862">
        <ele>85.801571</ele>
        <time>2020-09-22T08:54:38.393Z</time>
      </trkpt>
      <trkpt lat="66.25866" lon="20.8413">
        <ele>86.749709</ele>
        <time>2020-09-22T08:55:24.385Z</time>
      </trkpt>
      <trkpt lat="66.25695" lon="20.84395">
        <ele>87.798729</ele>
        <time>2020-09-22T08:56:04.363Z</time>
      </trkpt>
      <trkpt lat="66.25522" lon="20.8466">
        <ele>89.205036</ele>
        <time>2020-09-22T08:56:44.357Z</time>
      </trkpt>
      <trkpt lat="66.2536" lon="20.84908">
        <ele>86.217271</ele>
        <time>2020-09-22T08:57:22.357Z</time>
      </trkpt>
      <trkpt lat="66.25172" lon="20.85195">
        <ele>85.493972</ele>
        <time>2020-09-22T08:58:11.357Z</time>
      </trkpt>
      <trkpt lat="66.25001" lon="20.85422">
        <ele>87.435698</ele>
        <time>2020-09-22T08:58:53.381Z</time>
      </trkpt>
      <trkpt lat="66.24832" lon="20.85643">
        <ele>85.925026</ele>
        <time>2020-09-22T08:59:33.356Z</time>
      </trkpt>
      <trkpt lat="66.24658" lon="20.85867">
        <ele>85.971038</ele>
        <time>2020-09-22T09:00:15.354Z</time>
      </trkpt>
      <trkpt lat="66.24475" lon="20.86091">
        <ele>83.537773</ele>
        <time>2020-09-22T09:00:58.375Z</time>
      </trkpt>
      <trkpt lat="66.24284" lon="20.8625">
        <ele>81.817339</ele>
        <time>2020-09-22T09:01:42.355Z</time>
      </trkpt>
      <trkpt lat="66.24083" lon="20.86343">
        <ele>84.529077</ele>
        <time>2020-09-22T09:02:27.357Z</time>
      </trkpt>
      <trkpt lat="66.23884" lon="20.86357">
        <ele>86.352353</ele>
        <time>2020-09-22T09:03:11.401Z</time>
      </trkpt>
      <trkpt lat="66.23652" lon="20.86406">
        <ele>92.019623</ele>
        <time>2020-09-22T09:04:11.366Z</time>
      </trkpt>
      <trkpt lat="66.23455" lon="20.86583">
        <ele>87.870455</ele>
        <time>2020-09-22T09:04:59.356Z</time>
      </trkpt>
      <trkpt lat="66.23337" lon="20.86841">
        <ele>86.782464</ele>
        <time>2020-09-22T09:07:47.398Z</time>
      </trkpt>
      <trkpt lat="66.23211" lon="20.86456">
        <ele>93.169376</ele>
        <time>2020-09-22T09:09:13.376Z</time>
      </trkpt>
      <trkpt lat="66.23103" lon="20.86081">
        <ele>101.678242</ele>
        <time>2020-09-22T09:10:48.366Z</time>
      </trkpt>
      <trkpt lat="66.22995" lon="20.85632">
        <ele>104.520181</ele>
        <time>2020-09-22T09:12:00.349Z</time>
      </trkpt>
      <trkpt lat="66.22953" lon="20.85111">
        <ele>108.654921</ele>
        <time>2020-09-22T09:12:55.413Z</time>
      </trkpt>
      <trkpt lat="66.22931" lon="20.84564">
        <ele>109.176757</ele>
        <time>2020-09-22T09:13:42.376Z</time>
      </trkpt>
      <trkpt lat="66.22749" lon="20.84443">
        <ele>118.379112</ele>
        <time>2020-09-22T09:15:03.365Z</time>
      </trkpt>
      <trkpt lat="66.22556" lon="20.84417">
        <ele>129.365052</ele>
        <time>2020-09-22T09:17:02.389Z</time>
      </trkpt>
      <trkpt lat="66.22359" lon="20.84321">
        <ele>126.399997</ele>
        <time>2020-09-22T09:18:26.366Z</time>
      </trkpt>
      <trkpt lat="66.22115" lon="20.84576">
        <ele>111.211527</ele>
        <time>2020-09-22T09:19:07.393Z</time>
      </trkpt>
      <trkpt lat="66.219" lon="20.84655">
        <ele>98.432778</ele>
        <time>2020-09-22T09:19:33.393Z</time>
      </trkpt>
      <trkpt lat="66.21674" lon="20.84673">
        <ele>89.387061</ele>
        <time>2020-09-22T09:20:23.395Z</time>
      </trkpt>
      <trkpt lat="66.21474" lon="20.84447">
        <ele>83.659169</ele>
        <time>2020-09-22T09:21:03.362Z</time>
      </trkpt>
      <trkpt lat="66.21303" lon="20.84136">
        <ele>77.788221</ele>
        <time>2020-09-22T09:21:43.369Z</time>
      </trkpt>
      <trkpt lat="66.21076" lon="20.83984">
        <ele>84.835274</ele>
        <time>2020-09-22T09:22:42.376Z</time>
      </trkpt>
      <trkpt lat="66.20883" lon="20.84015">
        <ele>91.447952</ele>
        <time>2020-09-22T09:23:29.376Z</time>
      </trkpt>
      <trkpt lat="66.20682" lon="20.84046">
        <ele>95.258969</ele>
        <time>2020-09-22T09:24:31.376Z</time>
      </trkpt>
      <trkpt lat="66.20466" lon="20.84077">
        <ele>94.986514</ele>
        <time>2020-09-22T09:25:21.355Z</time>
      </trkpt>
      <trkpt lat="66.2026" lon="20.84055">
        <ele>95.225403</ele>
        <time>2020-09-22T09:26:05.381Z</time>
      </trkpt>
      <trkpt lat="66.20063" lon="20.83986">
        <ele>100.051993</ele>
        <time>2020-09-22T09:26:52.359Z</time>
      </trkpt>
      <trkpt lat="66.19827" lon="20.84063">
        <ele>95.12396</ele>
        <time>2020-09-22T09:27:42.386Z</time>
      </trkpt>
      <trkpt lat="66.19626" lon="20.84264">
        <ele>90.616462</ele>
        <time>2020-09-22T09:28:31.373Z</time>
      </trkpt>
      <trkpt lat="66.19416" lon="20.84338">
        <ele>96.652901</ele>
        <time>2020-09-22T09:29:19.372Z</time>
      </trkpt>
      <trkpt lat="66.19208" lon="20.84398">
        <ele>96.783443</ele>
        <time>2020-09-22T09:30:06.370Z</time>
      </trkpt>
      <trkpt lat="66.18981" lon="20.8447">
        <ele>99.850276</ele>
        <time>2020-09-22T09:31:06.379Z</time>
      </trkpt>
      <trkpt lat="66.18758" lon="20.84533">
        <ele>98.688624</ele>
        <time>2020-09-22T09:31:54.371Z</time>
      </trkpt>
      <trkpt lat="66.18533" lon="20.84602">
        <ele>98.479169</ele>
        <time>2020-09-22T09:32:53.366Z</time>
      </trkpt>
      <trkpt lat="66.18307" lon="20.84666">
        <ele>101.387401</ele>
        <time>2020-09-22T09:33:49.372Z</time>
      </trkpt>
      <trkpt lat="66.18099" lon="20.84879">
        <ele>100.230784</ele>
        <time>2020-09-22T09:34:56.421Z</time>
      </trkpt>
      <trkpt lat="66.17927" lon="20.85162">
        <ele>105.386246</ele>
        <time>2020-09-22T09:36:14.386Z</time>
      </trkpt>
      <trkpt lat="66.17706" lon="20.85511">
        <ele>97.057425</ele>
        <time>2020-09-22T09:53:59.367Z</time>
      </trkpt>
      <trkpt lat="66.17526" lon="20.85781">
        <ele>93.659094</ele>
        <time>2020-09-22T09:55:07.387Z</time>
      </trkpt>
      <trkpt lat="66.17318" lon="20.85998">
        <ele>85.799021</ele>
        <time>2020-09-22T09:55:38.414Z</time>
      </trkpt>
      <trkpt lat="66.17099" lon="20.86206">
        <ele>77.144942</ele>
        <time>2020-09-22T09:56:03.365Z</time>
      </trkpt>
      <trkpt lat="66.16893" lon="20.86355">
        <ele>74.278629</ele>
        <time>2020-09-22T09:56:48.402Z</time>
      </trkpt>
      <trkpt lat="66.16632" lon="20.86418">
        <ele>71.149094</ele>
        <time>2020-09-22T09:57:29.373Z</time>
      </trkpt>
      <trkpt lat="66.16441" lon="20.86309">
        <ele>66.178407</ele>
        <time>2020-09-22T09:57:50.374Z</time>
      </trkpt>
      <trkpt lat="66.16214" lon="20.86191">
        <ele>63.501262</ele>
        <time>2020-09-22T09:58:34.363Z</time>
      </trkpt>
      <trkpt lat="66.16007" lon="20.86158">
        <ele>64.160694</ele>
        <time>2020-09-22T09:59:19.366Z</time>
      </trkpt>
      <trkpt lat="66.15777" lon="20.86123">
        <ele>71.349398</ele>
        <time>2020-09-22T10:00:15.372Z</time>
      </trkpt>
      <trkpt lat="66.15593" lon="20.85983">
        <ele>79.617102</ele>
        <time>2020-09-22T10:01:23.370Z</time>
      </trkpt>
      <trkpt lat="66.15393" lon="20.85862">
        <ele>83.975742</ele>
        <time>2020-09-22T10:02:36.419Z</time>
      </trkpt>
      <trkpt lat="66.15177" lon="20.85796">
        <ele>75.340133</ele>
        <time>2020-09-22T10:03:39.392Z</time>
      </trkpt>
      <trkpt lat="66.14965" lon="20.85951">
        <ele>76.25791</ele>
        <time>2020-09-22T10:04:36.415Z</time>
      </trkpt>
      <trkpt lat="66.14745" lon="20.8617">
        <ele>66.788228</ele>
        <time>2020-09-22T10:05:16.385Z</time>
      </trkpt>
      <trkpt lat="66.14562" lon="20.86376">
        <ele>65.30853</ele>
        <time>2020-09-22T10:05:54.376Z</time>
      </trkpt>
      <trkpt lat="66.14388" lon="20.86701">
        <ele>66.954286</ele>
        <time>2020-09-22T10:06:46.445Z</time>
      </trkpt>
      <trkpt lat="66.14171" lon="20.86898">
        <ele>67.394623</ele>
        <time>2020-09-22T10:07:33.373Z</time>
      </trkpt>
      <trkpt lat="66.13953" lon="20.87038">
        <ele>65.025061</ele>
        <time>2020-09-22T10:08:17.382Z</time>
      </trkpt>
      <trkpt lat="66.13737" lon="20.87183">
        <ele>74.737688</ele>
        <time>2020-09-22T10:09:09.398Z</time>
      </trkpt>
      <trkpt lat="66.13481" lon="20.87197">
        <ele>71.672187</ele>
        <time>2020-09-22T10:09:56.402Z</time>
      </trkpt>
      <trkpt lat="66.13285" lon="20.87228">
        <ele>70.688813</ele>
        <time>2020-09-22T10:10:37.389Z</time>
      </trkpt>
      <trkpt lat="66.13089" lon="20.87377">
        <ele>74.329401</ele>
        <time>2020-09-22T10:11:22.388Z</time>
      </trkpt>
      <trkpt lat="66.12899" lon="20.87529">
        <ele>82.382347</ele>
        <time>2020-09-22T10:12:48.379Z</time>
      </trkpt>
      <trkpt lat="66.12697" lon="20.87604">
        <ele>80.220179</ele>
        <time>2020-09-22T10:13:56.375Z</time>
      </trkpt>
      <trkpt lat="66.12486" lon="20.87704">
        <ele>81.00059</ele>
        <time>2020-09-22T10:14:53.396Z</time>
      </trkpt>
      <trkpt lat="66.12281" lon="20.87788">
        <ele>81.893229</ele>
        <time>2020-09-22T10:15:34.396Z</time>
      </trkpt>
      <trkpt lat="66.12067" lon="20.87857">
        <ele>81.024264</ele>
        <time>2020-09-22T10:16:14.408Z</time>
      </trkpt>
      <trkpt lat="66.11882" lon="20.88152">
        <ele>75.950665</ele>
        <time>2020-09-22T10:17:05.374Z</time>
      </trkpt>
      <trkpt lat="66.11692" lon="20.88395">
        <ele>76.485837</ele>
        <time>2020-09-22T10:18:01.414Z</time>
      </trkpt>
      <trkpt lat="66.11499" lon="20.88637">
        <ele>73.964603</ele>
        <time>2020-09-22T10:18:48.409Z</time>
      </trkpt>
      <trkpt lat="66.11307" lon="20.88878">
        <ele>72.197365</ele>
        <time>2020-09-22T10:19:32.379Z</time>
      </trkpt>
      <trkpt lat="66.11111" lon="20.89119">
        <ele>70.253993</ele>
        <time>2020-09-22T10:20:10.381Z</time>
      </trkpt>
      <trkpt lat="66.10924" lon="20.89356">
        <ele>70.66391</ele>
        <time>2020-09-22T10:20:50.415Z</time>
      </trkpt>
      <trkpt lat="66.10722" lon="20.89511">
        <ele>67.795785</ele>
        <time>2020-09-22T10:21:32.391Z</time>
      </trkpt>
      <trkpt lat="66.10488" lon="20.89456">
        <ele>72.59411</ele>
        <time>2020-09-22T10:22:24.382Z</time>
      </trkpt>
      <trkpt lat="66.10298" lon="20.89413">
        <ele>68.851098</ele>
        <time>2020-09-22T10:23:03.400Z</time>
      </trkpt>
      <trkpt lat="66.10099" lon="20.89368">
        <ele>67.115462</ele>
        <time>2020-09-22T10:23:46.374Z</time>
      </trkpt>
      <trkpt lat="66.0987" lon="20.89302">
        <ele>75.734458</ele>
        <time>2020-09-22T10:24:45.387Z</time>
      </trkpt>
      <trkpt lat="66.09672" lon="20.89257">
        <ele>81.77231</ele>
        <time>2020-09-22T10:26:04.385Z</time>
      </trkpt>
      <trkpt lat="66.0948" lon="20.89203">
        <ele>89.290105</ele>
        <time>2020-09-22T10:27:23.416Z</time>
      </trkpt>
      <trkpt lat="66.09248" lon="20.89148">
        <ele>83.678924</ele>
        <time>2020-09-22T10:28:21.388Z</time>
      </trkpt>
      <trkpt lat="66.09046" lon="20.89217">
        <ele>77.557476</ele>
        <time>2020-09-22T10:29:14.391Z</time>
      </trkpt>
      <trkpt lat="66.08814" lon="20.89406">
        <ele>65.388677</ele>
        <time>2020-09-22T10:29:54.383Z</time>
      </trkpt>
      <trkpt lat="66.08677" lon="20.89835">
        <ele>60.085714</ele>
        <time>2020-09-22T10:30:35.391Z</time>
      </trkpt>
      <trkpt lat="66.08531" lon="20.90193">
        <ele>59.09552</ele>
        <time>2020-09-22T10:31:16.389Z</time>
      </trkpt>
      <trkpt lat="66.08318" lon="20.90156">
        <ele>73.053265</ele>
        <time>2020-09-22T10:32:35.376Z</time>
      </trkpt>
      <trkpt lat="66.08145" lon="20.90418">
        <ele>78.087751</ele>
        <time>2020-09-22T10:33:51.381Z</time>
      </trkpt>
      <trkpt lat="66.08013" lon="20.90844">
        <ele>75.324282</ele>
        <time>2020-09-22T10:34:50.411Z</time>
      </trkpt>
      <trkpt lat="66.07886" lon="20.91275">
        <ele>75.666292</ele>
        <time>2020-09-22T10:35:54.389Z</time>
      </trkpt>
      <trkpt lat="66.07769" lon="20.91693">
        <ele>78.086882</ele>
        <time>2020-09-22T10:37:15.379Z</time>
      </trkpt>
      <trkpt lat="66.07602" lon="20.92077">
        <ele>70.575011</ele>
        <time>2020-09-22T10:38:01.396Z</time>
      </trkpt>
      <trkpt lat="66.074" lon="20.92413">
        <ele>72.831312</ele>
        <time>2020-09-22T10:38:56.399Z</time>
      </trkpt>
      <trkpt lat="66.07279" lon="20.92771">
        <ele>81.461263</ele>
        <time>2020-09-22T10:39:58.414Z</time>
      </trkpt>
      <trkpt lat="66.0715" lon="20.9317">
        <ele>97.601591</ele>
        <time>2020-09-22T10:41:17.409Z</time>
      </trkpt>
      <trkpt lat="66.07012" lon="20.93564">
        <ele>97.809548</ele>
        <time>2020-09-22T10:42:36.413Z</time>
      </trkpt>
      <trkpt lat="66.06862" lon="20.93898">
        <ele>89.403385</ele>
        <time>2020-09-22T10:43:36.391Z</time>
      </trkpt>
      <trkpt lat="66.0665" lon="20.94159">
        <ele>82.598015</ele>
        <time>2020-09-22T10:44:36.383Z</time>
      </trkpt>
      <trkpt lat="66.06453" lon="20.94402">
        <ele>81.862205</ele>
        <time>2020-09-22T10:45:27.423Z</time>
      </trkpt>
      <trkpt lat="66.06255" lon="20.94836">
        <ele>72.360547</ele>
        <time>2020-09-22T10:46:05.376Z</time>
      </trkpt>
      <trkpt lat="66.06159" lon="20.95304">
        <ele>63.690207</ele>
        <time>2020-09-22T10:46:25.399Z</time>
      </trkpt>
      <trkpt lat="66.05991" lon="20.9573">
        <ele>60.350354</ele>
        <time>2020-09-22T10:46:58.392Z</time>
      </trkpt>
      <trkpt lat="66.05846" lon="20.96083">
        <ele>60.670908</ele>
        <time>2020-09-22T10:47:41.436Z</time>
      </trkpt>
      <trkpt lat="66.0569" lon="20.96458">
        <ele>64.79795</ele>
        <time>2020-09-22T10:48:32.389Z</time>
      </trkpt>
      <trkpt lat="66.05549" lon="20.9679">
        <ele>73.290921</ele>
        <time>2020-09-22T10:50:08.398Z</time>
      </trkpt>
      <trkpt lat="66.05383" lon="20.97139">
        <ele>70.007337</ele>
        <time>2020-09-22T10:50:59.380Z</time>
      </trkpt>
      <trkpt lat="66.05129" lon="20.97411">
        <ele>59.588728</ele>
        <time>2020-09-22T10:51:37.394Z</time>
      </trkpt>
      <trkpt lat="66.04885" lon="20.97671">
        <ele>54.32419</ele>
        <time>2020-09-22T10:52:17.429Z</time>
      </trkpt>
      <trkpt lat="66.0469" lon="20.9796">
        <ele>52.694995</ele>
        <time>2020-09-22T10:52:57.420Z</time>
      </trkpt>
      <trkpt lat="66.04507" lon="20.98191">
        <ele>53.321224</ele>
        <time>2020-09-22T10:53:37.387Z</time>
      </trkpt>
      <trkpt lat="66.04322" lon="20.98434">
        <ele>58.096267</ele>
        <time>2020-09-22T10:54:43.396Z</time>
      </trkpt>
      <trkpt lat="66.04145" lon="20.9868">
        <ele>62.956101</ele>
        <time>2020-09-22T10:55:44.414Z</time>
      </trkpt>
      <trkpt lat="66.03958" lon="20.98906">
        <ele>68.659671</ele>
        <time>2020-09-22T10:57:00.392Z</time>
      </trkpt>
      <trkpt lat="66.03745" lon="20.99084">
        <ele>74.278667</ele>
        <time>2020-09-22T10:57:59.390Z</time>
      </trkpt>
      <trkpt lat="66.03509" lon="20.99158">
        <ele>71.800369</ele>
        <time>2020-09-22T10:58:37.391Z</time>
      </trkpt>
      <trkpt lat="66.03321" lon="20.99295">
        <ele>77.548816</ele>
        <time>2020-09-22T11:00:02.407Z</time>
      </trkpt>
      <trkpt lat="66.03153" lon="20.9965">
        <ele>72.646259</ele>
        <time>2020-09-22T11:01:06.400Z</time>
      </trkpt>
      <trkpt lat="66.03037" lon="21.00111">
        <ele>72.804264</ele>
        <time>2020-09-22T11:01:50.411Z</time>
      </trkpt>
      <trkpt lat="66.02912" lon="21.00483">
        <ele>71.449084</ele>
        <time>2020-09-22T11:02:31.400Z</time>
      </trkpt>
      <trkpt lat="66.02756" lon="21.00753">
        <ele>68.602059</ele>
        <time>2020-09-22T11:03:09.411Z</time>
      </trkpt>
      <trkpt lat="66.0261" lon="21.01087">
        <ele>69.25136</ele>
        <time>2020-09-22T11:03:51.393Z</time>
      </trkpt>
      <trkpt lat="66.02532" lon="21.01576">
        <ele>65.431113</ele>
        <time>2020-09-22T11:04:33.413Z</time>
      </trkpt>
      <trkpt lat="66.02454" lon="21.02062">
        <ele>63.825968</ele>
        <time>2020-09-22T11:05:13.398Z</time>
      </trkpt>
      <trkpt lat="66.02347" lon="21.02498">
        <ele>67.352938</ele>
        <time>2020-09-22T11:05:53.412Z</time>
      </trkpt>
      <trkpt lat="66.02199" lon="21.02866">
        <ele>74.152906</ele>
        <time>2020-09-22T11:06:56.438Z</time>
      </trkpt>
      <trkpt lat="66.02033" lon="21.03174">
        <ele>79.508306</ele>
        <time>2020-09-22T11:08:11.410Z</time>
      </trkpt>
      <trkpt lat="66.01867" lon="21.03477">
        <ele>85.805403</ele>
        <time>2020-09-22T11:09:31.410Z</time>
      </trkpt>
      <trkpt lat="66.01712" lon="21.03791">
        <ele>86.865068</ele>
        <time>2020-09-22T11:10:36.401Z</time>
      </trkpt>
      <trkpt lat="66.01603" lon="21.04219">
        <ele>87.614395</ele>
        <time>2020-09-22T11:11:20.408Z</time>
      </trkpt>
      <trkpt lat="66.01495" lon="21.04676">
        <ele>90.705975</ele>
        <time>2020-09-22T11:12:28.382Z</time>
      </trkpt>
      <trkpt lat="66.0144" lon="21.05164">
        <ele>85.680931</ele>
        <time>2020-09-22T11:13:22.399Z</time>
      </trkpt>
      <trkpt lat="66.01441" lon="21.05854">
        <ele>74.16512</ele>
        <time>2020-09-22T11:14:02.407Z</time>
      </trkpt>
      <trkpt lat="66.0139" lon="21.0644">
        <ele>72.002468</ele>
        <time>2020-09-22T11:14:40.412Z</time>
      </trkpt>
      <trkpt lat="66.01326" lon="21.06931">
        <ele>75.574665</ele>
        <time>2020-09-22T11:15:21.394Z</time>
      </trkpt>
      <trkpt lat="66.01273" lon="21.07461">
        <ele>76.148767</ele>
        <time>2020-09-22T11:16:07.377Z</time>
      </trkpt>
      <trkpt lat="66.0122" lon="21.08071">
        <ele>69.719739</ele>
        <time>2020-09-22T11:16:47.395Z</time>
      </trkpt>
      <trkpt lat="66.01165" lon="21.0858">
        <ele>69.340465</ele>
        <time>2020-09-22T11:17:25.419Z</time>
      </trkpt>
      <trkpt lat="66.01077" lon="21.09042">
        <ele>73.0369</ele>
        <time>2020-09-22T11:18:05.413Z</time>
      </trkpt>
      <trkpt lat="66.00972" lon="21.0955">
        <ele>76.961717</ele>
        <time>2020-09-22T11:19:01.411Z</time>
      </trkpt>
      <trkpt lat="66.00871" lon="21.10035">
        <ele>83.610903</ele>
        <time>2020-09-22T11:19:56.432Z</time>
      </trkpt>
      <trkpt lat="66.00776" lon="21.10483">
        <ele>90.109055</ele>
        <time>2020-09-22T11:21:31.417Z</time>
      </trkpt>
      <trkpt lat="66.00682" lon="21.1093">
        <ele>91.475188</ele>
        <time>2020-09-22T11:22:40.429Z</time>
      </trkpt>
      <trkpt lat="66.00577" lon="21.11411">
        <ele>88.951086</ele>
        <time>2020-09-22T11:23:37.398Z</time>
      </trkpt>
      <trkpt lat="66.00497" lon="21.11876">
        <ele>89.124363</ele>
        <time>2020-09-22T11:24:34.412Z</time>
      </trkpt>
      <trkpt lat="66.0047" lon="21.12472">
        <ele>80.958502</ele>
        <time>2020-09-22T11:25:14.409Z</time>
      </trkpt>
      <trkpt lat="66.00426" lon="21.12934">
        <ele>79.486647</ele>
        <time>2020-09-22T11:25:52.392Z</time>
      </trkpt>
      <trkpt lat="66.00355" lon="21.13436">
        <ele>82.442203</ele>
        <time>2020-09-22T11:26:37.397Z</time>
      </trkpt>
      <trkpt lat="66.00281" lon="21.13991">
        <ele>88.338936</ele>
        <time>2020-09-22T11:27:33.393Z</time>
      </trkpt>
      <trkpt lat="66.00214" lon="21.14493">
        <ele>92.187084</ele>
        <time>2020-09-22T11:28:27.394Z</time>
      </trkpt>
      <trkpt lat="66.00149" lon="21.14953">
        <ele>98.488676</ele>
        <time>2020-09-22T11:29:42.397Z</time>
      </trkpt>
      <trkpt lat="66.00087" lon="21.15417">
        <ele>103.123315</ele>
        <time>2020-09-22T11:30:58.390Z</time>
      </trkpt>
      <trkpt lat="65.99987" lon="21.15833">
        <ele>112.499527</ele>
        <time>2020-09-22T11:32:17.403Z</time>
      </trkpt>
      <trkpt lat="65.99861" lon="21.16262">
        <ele>114.670475</ele>
        <time>2020-09-22T11:33:25.397Z</time>
      </trkpt>
      <trkpt lat="65.99787" lon="21.16821">
        <ele>101.48853</ele>
        <time>2020-09-22T11:34:14.410Z</time>
      </trkpt>
      <trkpt lat="65.99715" lon="21.17435">
        <ele>86.639474</ele>
        <time>2020-09-22T11:34:45.415Z</time>
      </trkpt>
      <trkpt lat="65.9964" lon="21.17925">
        <ele>86.933082</ele>
        <time>2020-09-22T11:35:18.395Z</time>
      </trkpt>
      <trkpt lat="65.99504" lon="21.18289">
        <ele>100.91601</ele>
        <time>2020-09-22T11:36:41.390Z</time>
      </trkpt>
      <trkpt lat="65.99328" lon="21.18725">
        <ele>93.972484</ele>
        <time>2020-09-22T11:37:42.409Z</time>
      </trkpt>
      <trkpt lat="65.99188" lon="21.19083">
        <ele>92.306182</ele>
        <time>2020-09-22T11:38:25.398Z</time>
      </trkpt>
      <trkpt lat="65.9906" lon="21.19646">
        <ele>85.224405</ele>
        <time>2020-09-22T11:38:59.404Z</time>
      </trkpt>
      <trkpt lat="65.98953" lon="21.20368">
        <ele>75.090305</ele>
        <time>2020-09-22T11:39:39.393Z</time>
      </trkpt>
      <trkpt lat="65.98748" lon="21.20762">
        <ele>68.129761</ele>
        <time>2020-09-22T11:40:19.411Z</time>
      </trkpt>
      <trkpt lat="65.98533" lon="21.20943">
        <ele>62.073887</ele>
        <time>2020-09-22T11:40:57.394Z</time>
      </trkpt>
      <trkpt lat="65.98321" lon="21.21123">
        <ele>69.029355</ele>
        <time>2020-09-22T11:41:53.429Z</time>
      </trkpt>
      <trkpt lat="65.98125" lon="21.21291">
        <ele>73.126922</ele>
        <time>2020-09-22T11:43:08.411Z</time>
      </trkpt>
      <trkpt lat="65.97928" lon="21.21454">
        <ele>80.217353</ele>
        <time>2020-09-22T11:44:28.413Z</time>
      </trkpt>
      <trkpt lat="65.97725" lon="21.21571">
        <ele>83.600712</ele>
        <time>2020-09-22T11:45:25.424Z</time>
      </trkpt>
      <trkpt lat="65.97533" lon="21.21675">
        <ele>83.694403</ele>
        <time>2020-09-22T11:46:04.426Z</time>
      </trkpt>
      <trkpt lat="65.97322" lon="21.21799">
        <ele>83.280869</ele>
        <time>2020-09-22T11:47:02.405Z</time>
      </trkpt>
      <trkpt lat="65.97078" lon="21.21902">
        <ele>72.281951</ele>
        <time>2020-09-22T11:47:42.422Z</time>
      </trkpt>
      <trkpt lat="65.96844" lon="21.21971">
        <ele>69.009562</ele>
        <time>2020-09-22T11:48:22.409Z</time>
      </trkpt>
      <trkpt lat="65.96631" lon="21.2207">
        <ele>68.442166</ele>
        <time>2020-09-22T11:49:16.452Z</time>
      </trkpt>
      <trkpt lat="65.96406" lon="21.22185">
        <ele>64.762462</ele>
        <time>2020-09-22T11:50:00.401Z</time>
      </trkpt>
      <trkpt lat="65.96179" lon="21.22297">
        <ele>60.067146</ele>
        <time>2020-09-22T11:50:46.398Z</time>
      </trkpt>
      <trkpt lat="65.95949" lon="21.22433">
        <ele>66.194221</ele>
        <time>2020-09-22T11:51:45.402Z</time>
      </trkpt>
      <trkpt lat="65.95751" lon="21.22651">
        <ele>65.522731</ele>
        <time>2020-09-22T11:52:36.405Z</time>
      </trkpt>
      <trkpt lat="65.95522" lon="21.22905">
        <ele>59.663271</ele>
        <time>2020-09-22T11:53:16.433Z</time>
      </trkpt>
      <trkpt lat="65.95324" lon="21.2312">
        <ele>56.85112</ele>
        <time>2020-09-22T12:09:38.421Z</time>
      </trkpt>
      <trkpt lat="65.95075" lon="21.23192">
        <ele>48.27182</ele>
        <time>2020-09-22T12:10:18.403Z</time>
      </trkpt>
      <trkpt lat="65.94882" lon="21.2316">
        <ele>50.912932</ele>
        <time>2020-09-22T12:10:58.386Z</time>
      </trkpt>
      <trkpt lat="65.94667" lon="21.23192">
        <ele>52.703652</ele>
        <time>2020-09-22T12:12:02.412Z</time>
      </trkpt>
      <trkpt lat="65.94467" lon="21.23396">
        <ele>54.840225</ele>
        <time>2020-09-22T12:13:05.417Z</time>
      </trkpt>
      <trkpt lat="65.94249" lon="21.2342">
        <ele>58.376361</ele>
        <time>2020-09-22T12:14:05.439Z</time>
      </trkpt>
      <trkpt lat="65.94034" lon="21.23435">
        <ele>58.33828</ele>
        <time>2020-09-22T12:14:54.439Z</time>
      </trkpt>
      <trkpt lat="65.93836" lon="21.23516">
        <ele>57.344405</ele>
        <time>2020-09-22T12:15:38.435Z</time>
      </trkpt>
      <trkpt lat="65.93639" lon="21.23904">
        <ele>53.088377</ele>
        <time>2020-09-22T12:16:18.427Z</time>
      </trkpt>
      <trkpt lat="65.93463" lon="21.24346">
        <ele>50.338434</ele>
        <time>2020-09-22T12:16:58.413Z</time>
      </trkpt>
      <trkpt lat="65.93272" lon="21.24767">
        <ele>47.146462</ele>
        <time>2020-09-22T12:17:38.420Z</time>
      </trkpt>
      <trkpt lat="65.93089" lon="21.25041">
        <ele>45.630521</ele>
        <time>2020-09-22T12:18:25.396Z</time>
      </trkpt>
      <trkpt lat="65.92907" lon="21.2531">
        <ele>46.986917</ele>
        <time>2020-09-22T12:19:12.423Z</time>
      </trkpt>
      <trkpt lat="65.92715" lon="21.25592">
        <ele>47.899764</ele>
        <time>2020-09-22T12:20:05.435Z</time>
      </trkpt>
      <trkpt lat="65.92521" lon="21.25872">
        <ele>47.366882</ele>
        <time>2020-09-22T12:20:56.405Z</time>
      </trkpt>
      <trkpt lat="65.92357" lon="21.26132">
        <ele>47.649342</ele>
        <time>2020-09-22T12:21:36.412Z</time>
      </trkpt>
      <trkpt lat="65.92191" lon="21.26411">
        <ele>47.251133</ele>
        <time>2020-09-22T12:22:16.444Z</time>
      </trkpt>
      <trkpt lat="65.92016" lon="21.26616">
        <ele>45.445042</ele>
        <time>2020-09-22T12:22:56.437Z</time>
      </trkpt>
      <trkpt lat="65.91816" lon="21.26798">
        <ele>44.024991</ele>
        <time>2020-09-22T12:23:36.412Z</time>
      </trkpt>
      <trkpt lat="65.91643" lon="21.27052">
        <ele>45.139507</ele>
        <time>2020-09-22T12:24:16.403Z</time>
      </trkpt>
      <trkpt lat="65.91508" lon="21.27369">
        <ele>46.603852</ele>
        <time>2020-09-22T12:24:54.451Z</time>
      </trkpt>
      <trkpt lat="65.91347" lon="21.27744">
        <ele>48.424182</ele>
        <time>2020-09-22T12:25:41.422Z</time>
      </trkpt>
      <trkpt lat="65.91181" lon="21.28136">
        <ele>50.726485</ele>
        <time>2020-09-22T12:26:36.420Z</time>
      </trkpt>
      <trkpt lat="65.91022" lon="21.28507">
        <ele>49.127235</ele>
        <time>2020-09-22T12:27:24.419Z</time>
      </trkpt>
      <trkpt lat="65.90881" lon="21.28887">
        <ele>48.805127</ele>
        <time>2020-09-22T12:28:09.427Z</time>
      </trkpt>
      <trkpt lat="65.90809" lon="21.29423">
        <ele>47.588354</ele>
        <time>2020-09-22T12:28:55.395Z</time>
      </trkpt>
      <trkpt lat="65.90709" lon="21.30106">
        <ele>41.6972</ele>
        <time>2020-09-22T12:29:35.416Z</time>
      </trkpt>
      <trkpt lat="65.90603" lon="21.3055">
        <ele>43.113159</ele>
        <time>2020-09-22T12:30:17.422Z</time>
      </trkpt>
      <trkpt lat="65.90496" lon="21.31003">
        <ele>47.020161</ele>
        <time>2020-09-22T12:31:14.440Z</time>
      </trkpt>
      <trkpt lat="65.90367" lon="21.3135">
        <ele>51.158545</ele>
        <time>2020-09-22T12:32:18.444Z</time>
      </trkpt>
      <trkpt lat="65.90184" lon="21.31655">
        <ele>50.301903</ele>
        <time>2020-09-22T12:33:18.401Z</time>
      </trkpt>
      <trkpt lat="65.9" lon="21.31958">
        <ele>47.857321</ele>
        <time>2020-09-22T12:34:02.426Z</time>
      </trkpt>
      <trkpt lat="65.89843" lon="21.32307">
        <ele>47.591777</ele>
        <time>2020-09-22T12:34:42.399Z</time>
      </trkpt>
      <trkpt lat="65.89682" lon="21.32704">
        <ele>44.743184</ele>
        <time>2020-09-22T12:35:20.437Z</time>
      </trkpt>
      <trkpt lat="65.89524" lon="21.33074">
        <ele>42.497881</ele>
        <time>2020-09-22T12:36:02.402Z</time>
      </trkpt>
      <trkpt lat="65.89349" lon="21.3341">
        <ele>45.043569</ele>
        <time>2020-09-22T12:36:53.410Z</time>
      </trkpt>
      <trkpt lat="65.89223" lon="21.33827">
        <ele>48.627567</ele>
        <time>2020-09-22T12:37:39.410Z</time>
      </trkpt>
      <trkpt lat="65.89131" lon="21.3432">
        <ele>53.050727</ele>
        <time>2020-09-22T12:38:36.461Z</time>
      </trkpt>
      <trkpt lat="65.89035" lon="21.34822">
        <ele>54.265368</ele>
        <time>2020-09-22T12:39:36.398Z</time>
      </trkpt>
      <trkpt lat="65.88924" lon="21.35303">
        <ele>59.226945</ele>
        <time>2020-09-22T12:40:36.432Z</time>
      </trkpt>
      <trkpt lat="65.88815" lon="21.35712">
        <ele>63.463744</ele>
        <time>2020-09-22T12:41:36.408Z</time>
      </trkpt>
      <trkpt lat="65.88671" lon="21.36109">
        <ele>60.505107</ele>
        <time>2020-09-22T12:42:33.433Z</time>
      </trkpt>
      <trkpt lat="65.88523" lon="21.36511">
        <ele>56.572857</ele>
        <time>2020-09-22T12:43:16.399Z</time>
      </trkpt>
      <trkpt lat="65.88362" lon="21.36942">
        <ele>55.814902</ele>
        <time>2020-09-22T12:43:56.416Z</time>
      </trkpt>
      <trkpt lat="65.88212" lon="21.37303">
        <ele>63.817986</ele>
        <time>2020-09-22T12:44:55.406Z</time>
      </trkpt>
      <trkpt lat="65.88043" lon="21.37564">
        <ele>70.195191</ele>
        <time>2020-09-22T12:45:54.413Z</time>
      </trkpt>
      <trkpt lat="65.87817" lon="21.37764">
        <ele>66.232307</ele>
        <time>2020-09-22T12:46:34.402Z</time>
      </trkpt>
      <trkpt lat="65.87592" lon="21.3794">
        <ele>60.290982</ele>
        <time>2020-09-22T12:47:14.413Z</time>
      </trkpt>
      <trkpt lat="65.87396" lon="21.38032">
        <ele>59.733476</ele>
        <time>2020-09-22T12:47:55.418Z</time>
      </trkpt>
      <trkpt lat="65.87185" lon="21.38058">
        <ele>65.717427</ele>
        <time>2020-09-22T12:48:47.394Z</time>
      </trkpt>
      <trkpt lat="65.87001" lon="21.38187">
        <ele>69.901256</ele>
        <time>2020-09-22T12:49:58.438Z</time>
      </trkpt>
      <trkpt lat="65.86815" lon="21.38446">
        <ele>71.73534</ele>
        <time>2020-09-22T12:50:49.418Z</time>
      </trkpt>
      <trkpt lat="65.86602" lon="21.38826">
        <ele>61.525476</ele>
        <time>2020-09-22T12:51:29.435Z</time>
      </trkpt>
      <trkpt lat="65.86431" lon="21.392">
        <ele>57.114147</ele>
        <time>2020-09-22T12:52:03.452Z</time>
      </trkpt>
      <trkpt lat="65.86279" lon="21.39476">
        <ele>62.378619</ele>
        <time>2020-09-22T12:53:01.440Z</time>
      </trkpt>
      <trkpt lat="65.86093" lon="21.39805">
        <ele>61.977476</ele>
        <time>2020-09-22T12:54:02.426Z</time>
      </trkpt>
      <trkpt lat="65.85992" lon="21.40259">
        <ele>57.724321</ele>
        <time>2020-09-22T12:54:46.432Z</time>
      </trkpt>
      <trkpt lat="65.85924" lon="21.40839">
        <ele>53.403333</ele>
        <time>2020-09-22T12:55:26.414Z</time>
      </trkpt>
      <trkpt lat="65.8584" lon="21.41334">
        <ele>52.718974</ele>
        <time>2020-09-22T12:56:04.417Z</time>
      </trkpt>
      <trkpt lat="65.85727" lon="21.41881">
        <ele>45.020089</ele>
        <time>2020-09-22T12:56:44.424Z</time>
      </trkpt>
      <trkpt lat="65.85619" lon="21.42384">
        <ele>47.262856</ele>
        <time>2020-09-22T12:57:28.434Z</time>
      </trkpt>
      <trkpt lat="65.85483" lon="21.42839">
        <ele>49.687278</ele>
        <time>2020-09-22T12:58:22.461Z</time>
      </trkpt>
      <trkpt lat="65.85327" lon="21.4329">
        <ele>48.328958</ele>
        <time>2020-09-22T12:59:17.440Z</time>
      </trkpt>
      <trkpt lat="65.8521" lon="21.43747">
        <ele>47.399349</ele>
        <time>2020-09-22T13:00:07.419Z</time>
      </trkpt>
      <trkpt lat="65.85116" lon="21.4417">
        <ele>47.487686</ele>
        <time>2020-09-22T13:00:50.449Z</time>
      </trkpt>
      <trkpt lat="65.85017" lon="21.44725">
        <ele>52.698438</ele>
        <time>2020-09-22T13:01:47.434Z</time>
      </trkpt>
      <trkpt lat="65.84945" lon="21.45252">
        <ele>53.884869</ele>
        <time>2020-09-22T13:02:44.439Z</time>
      </trkpt>
      <trkpt lat="65.84893" lon="21.45751">
        <ele>58.879928</ele>
        <time>2020-09-22T13:03:41.429Z</time>
      </trkpt>
      <trkpt lat="65.84854" lon="21.4628">
        <ele>60.840496</ele>
        <time>2020-09-22T13:04:32.453Z</time>
      </trkpt>
      <trkpt lat="65.84791" lon="21.468">
        <ele>58.820601</ele>
        <time>2020-09-22T13:05:12.419Z</time>
      </trkpt>
      <trkpt lat="65.84686" lon="21.47232">
        <ele>59.418582</ele>
        <time>2020-09-22T13:05:52.418Z</time>
      </trkpt>
      <trkpt lat="65.84548" lon="21.47585">
        <ele>57.547475</ele>
        <time>2020-09-22T13:06:35.437Z</time>
      </trkpt>
      <trkpt lat="65.84351" lon="21.47881">
        <ele>61.539765</ele>
        <time>2020-09-22T13:07:35.421Z</time>
      </trkpt>
      <trkpt lat="65.84154" lon="21.48157">
        <ele>62.066564</ele>
        <time>2020-09-22T13:08:30.439Z</time>
      </trkpt>
      <trkpt lat="65.83985" lon="21.48444">
        <ele>59.558971</ele>
        <time>2020-09-22T13:09:10.477Z</time>
      </trkpt>
      <trkpt lat="65.83829" lon="21.48768">
        <ele>58.547957</ele>
        <time>2020-09-22T13:09:51.431Z</time>
      </trkpt>
      <trkpt lat="65.83699" lon="21.49066">
        <ele>60.826568</ele>
        <time>2020-09-22T13:10:29.423Z</time>
      </trkpt>
      <trkpt lat="65.83546" lon="21.49431">
        <ele>56.837859</ele>
        <time>2020-09-22T13:11:09.412Z</time>
      </trkpt>
      <trkpt lat="65.83384" lon="21.4984">
        <ele>54.579434</ele>
        <time>2020-09-22T13:11:49.436Z</time>
      </trkpt>
      <trkpt lat="65.83216" lon="21.50309">
        <ele>54.105841</ele>
        <time>2020-09-22T13:12:29.453Z</time>
      </trkpt>
      <trkpt lat="65.83068" lon="21.50723">
        <ele>52.683454</ele>
        <time>2020-09-22T13:13:07.436Z</time>
      </trkpt>
      <trkpt lat="65.82916" lon="21.51158">
        <ele>50.467071</ele>
        <time>2020-09-22T13:13:47.457Z</time>
      </trkpt>
      <trkpt lat="65.82774" lon="21.51557">
        <ele>48.537079</ele>
        <time>2020-09-22T13:14:27.421Z</time>
      </trkpt>
      <trkpt lat="65.82637" lon="21.51943">
        <ele>44.688835</ele>
        <time>2020-09-22T13:15:07.417Z</time>
      </trkpt>
      <trkpt lat="65.82516" lon="21.52295">
        <ele>44.130893</ele>
        <time>2020-09-22T13:15:45.446Z</time>
      </trkpt>
      <trkpt lat="65.82438" lon="21.52724">
        <ele>47.081915</ele>
        <time>2020-09-22T13:16:25.441Z</time>
      </trkpt>
      <trkpt lat="65.82404" lon="21.53188">
        <ele>47.9203</ele>
        <time>2020-09-22T13:17:05.420Z</time>
      </trkpt>
      <trkpt lat="65.82429" lon="21.53675">
        <ele>51.130068</ele>
        <time>2020-09-22T13:17:45.440Z</time>
      </trkpt>
      <trkpt lat="65.82487" lon="21.54139">
        <ele>48.732975</ele>
        <time>2020-09-22T13:18:23.441Z</time>
      </trkpt>
      <trkpt lat="65.82551" lon="21.54635">
        <ele>43.252225</ele>
        <time>2020-09-22T13:19:03.424Z</time>
      </trkpt>
      <trkpt lat="65.82585" lon="21.5514">
        <ele>46.579824</ele>
        <time>2020-09-22T13:19:43.446Z</time>
      </trkpt>
      <trkpt lat="65.82505" lon="21.55555">
        <ele>48.910237</ele>
        <time>2020-09-22T13:20:24.432Z</time>
      </trkpt>
      <trkpt lat="65.82333" lon="21.55826">
        <ele>49.869665</ele>
        <time>2020-09-22T13:21:30.433Z</time>
      </trkpt>
      <trkpt lat="65.82167" lon="21.56105">
        <ele>48.019416</ele>
        <time>2020-09-22T13:22:11.442Z</time>
      </trkpt>
      <trkpt lat="65.81983" lon="21.56412">
        <ele>52.069566</ele>
        <time>2020-09-22T13:23:11.448Z</time>
      </trkpt>
      <trkpt lat="65.81811" lon="21.56699">
        <ele>55.354936</ele>
        <time>2020-09-22T13:24:11.452Z</time>
      </trkpt>
      <trkpt lat="65.81705" lon="21.57013">
        <ele>64.060255</ele>
        <time>2020-09-22T13:25:15.442Z</time>
      </trkpt>
      <trkpt lat="65.8166" lon="21.57467">
        <ele>74.341316</ele>
        <time>2020-09-22T13:26:43.434Z</time>
      </trkpt>
      <trkpt lat="65.8162" lon="21.57957">
        <ele>76.047852</ele>
        <time>2020-09-22T13:27:44.450Z</time>
      </trkpt>
      <trkpt lat="65.81672" lon="21.58449">
        <ele>71.518495</ele>
        <time>2020-09-22T13:28:41.474Z</time>
      </trkpt>
      <trkpt lat="65.81765" lon="21.58926">
        <ele>69.562193</ele>
        <time>2020-09-22T13:29:29.437Z</time>
      </trkpt>
      <trkpt lat="65.81836" lon="21.59393">
        <ele>67.794345</ele>
        <time>2020-09-22T13:30:08.428Z</time>
      </trkpt>
      <trkpt lat="65.81897" lon="21.59904">
        <ele>67.186499</ele>
        <time>2020-09-22T13:30:52.430Z</time>
      </trkpt>
      <trkpt lat="65.81983" lon="21.60364">
        <ele>66.335219</ele>
        <time>2020-09-22T13:31:33.425Z</time>
      </trkpt>
      <trkpt lat="65.82103" lon="21.60846">
        <ele>59.851153</ele>
        <time>2020-09-22T13:32:18.436Z</time>
      </trkpt>
      <trkpt lat="65.82256" lon="21.6144">
        <ele>50.230906</ele>
        <time>2020-09-22T13:32:58.423Z</time>
      </trkpt>
      <trkpt lat="65.82428" lon="21.6186">
        <ele>39.920137</ele>
        <time>2020-09-22T13:33:36.423Z</time>
      </trkpt>
      <trkpt lat="65.82574" lon="21.62291">
        <ele>41.63402</ele>
        <time>2020-09-22T13:34:25.426Z</time>
      </trkpt>
      <trkpt lat="65.82689" lon="21.62795">
        <ele>44.402413</ele>
        <time>2020-09-22T13:35:21.422Z</time>
      </trkpt>
      <trkpt lat="65.82709" lon="21.63332">
        <ele>50.272729</ele>
        <time>2020-09-22T13:36:17.419Z</time>
      </trkpt>
      <trkpt lat="65.82647" lon="21.63776">
        <ele>56.786107</ele>
        <time>2020-09-22T13:37:15.429Z</time>
      </trkpt>
      <trkpt lat="65.82558" lon="21.64239">
        <ele>55.101325</ele>
        <time>2020-09-22T13:38:02.423Z</time>
      </trkpt>
      <trkpt lat="65.82452" lon="21.64631">
        <ele>51.707129</ele>
        <time>2020-09-22T13:38:43.450Z</time>
      </trkpt>
      <trkpt lat="65.82324" lon="21.65033">
        <ele>49.095151</ele>
        <time>2020-09-22T13:39:26.417Z</time>
      </trkpt>
      <trkpt lat="65.82197" lon="21.65413">
        <ele>49.64538</ele>
        <time>2020-09-22T13:40:16.424Z</time>
      </trkpt>
      <trkpt lat="65.82049" lon="21.65846">
        <ele>53.150689</ele>
        <time>2020-09-22T13:41:14.436Z</time>
      </trkpt>
      <trkpt lat="65.81909" lon="21.66245">
        <ele>46.17305</ele>
        <time>2020-09-22T13:42:03.435Z</time>
      </trkpt>
      <trkpt lat="65.81909" lon="21.6665">
        <ele>44.754578</ele>
        <time>2020-09-22T13:42:54.416Z</time>
      </trkpt>
      <trkpt lat="65.81933" lon="21.67143">
        <ele>47.21598</ele>
        <time>2020-09-22T13:43:37.424Z</time>
      </trkpt>
      <trkpt lat="65.82054" lon="21.67518">
        <ele>46.970114</ele>
        <time>2020-09-22T13:44:30.416Z</time>
      </trkpt>
      <trkpt lat="65.822" lon="21.67847">
        <ele>45.584048</ele>
        <time>2020-09-22T13:45:31.425Z</time>
      </trkpt>
      <trkpt lat="65.82352" lon="21.67718">
        <ele>49.332245</ele>
        <time>2020-09-22T13:46:38.420Z</time>
      </trkpt>
      <trkpt lat="65.82555" lon="21.6771">
        <ele>54.187133</ele>
        <time>2020-09-22T13:47:44.463Z</time>
      </trkpt>
      <trkpt lat="65.82744" lon="21.67695">
        <ele>44.406281</ele>
        <time>2020-09-22T13:48:27.440Z</time>
      </trkpt>
      <trkpt lat="65.82885" lon="21.67583">
        <ele>34.493946</ele>
        <time>2020-09-22T13:49:19.433Z</time>
      </trkpt>
    </trkseg>
  </trk>
  <trk>
    <name><![CDATA[Tour d'Europe: étape 087]]></name>
    <trkseg>
      <trkpt lat="65.82938" lon="21.67173">
        <ele>28.480982</ele>
        <time>2020-09-23T09:16:26.481Z</time>
      </trkpt>
      <trkpt lat="65.82864" lon="21.67604">
        <ele>35.055625</ele>
        <time>2020-09-23T09:21:47.459Z</time>
      </trkpt>
      <trkpt lat="65.82686" lon="21.67857">
        <ele>41.640965</ele>
        <time>2020-09-23T09:23:03.445Z</time>
      </trkpt>
      <trkpt lat="65.82555" lon="21.68071">
        <ele>42.067002</ele>
        <time>2020-09-23T09:24:10.460Z</time>
      </trkpt>
      <trkpt lat="65.82488" lon="21.68524">
        <ele>43.405278</ele>
        <time>2020-09-23T09:25:11.474Z</time>
      </trkpt>
      <trkpt lat="65.82437" lon="21.6893">
        <ele>59.837403</ele>
        <time>2020-09-23T09:26:10.491Z</time>
      </trkpt>
      <trkpt lat="65.82226" lon="21.69057">
        <ele>47.019305</ele>
        <time>2020-09-23T09:27:03.463Z</time>
      </trkpt>
      <trkpt lat="65.8202" lon="21.69138">
        <ele>45.209008</ele>
        <time>2020-09-23T09:28:05.492Z</time>
      </trkpt>
      <trkpt lat="65.8181" lon="21.69225">
        <ele>47.152632</ele>
        <time>2020-09-23T09:29:11.484Z</time>
      </trkpt>
      <trkpt lat="65.81662" lon="21.6941">
        <ele>51.298121</ele>
        <time>2020-09-23T09:30:23.454Z</time>
      </trkpt>
      <trkpt lat="65.81579" lon="21.68853">
        <ele>50.893526</ele>
        <time>2020-09-23T09:31:23.453Z</time>
      </trkpt>
      <trkpt lat="65.81504" lon="21.68339">
        <ele>51.402458</ele>
        <time>2020-09-23T09:32:14.444Z</time>
      </trkpt>
      <trkpt lat="65.81398" lon="21.67899">
        <ele>48.108664</ele>
        <time>2020-09-23T09:32:59.462Z</time>
      </trkpt>
      <trkpt lat="65.81178" lon="21.67694">
        <ele>47.701558</ele>
        <time>2020-09-23T09:33:56.458Z</time>
      </trkpt>
      <trkpt lat="65.80971" lon="21.67715">
        <ele>47.657772</ele>
        <time>2020-09-23T09:34:58.458Z</time>
      </trkpt>
      <trkpt lat="65.80768" lon="21.67648">
        <ele>50.898982</ele>
        <time>2020-09-23T09:36:01.458Z</time>
      </trkpt>
      <trkpt lat="65.80597" lon="21.67375">
        <ele>60.963965</ele>
        <time>2020-09-23T09:37:02.482Z</time>
      </trkpt>
      <trkpt lat="65.80395" lon="21.67169">
        <ele>56.003311</ele>
        <time>2020-09-23T09:37:49.455Z</time>
      </trkpt>
      <trkpt lat="65.80199" lon="21.67161">
        <ele>42.386921</ele>
        <time>2020-09-23T09:38:45.467Z</time>
      </trkpt>
      <trkpt lat="65.80044" lon="21.66638">
        <ele>44.134619</ele>
        <time>2020-09-23T09:39:36.503Z</time>
      </trkpt>
      <trkpt lat="65.79929" lon="21.66224">
        <ele>65.478783</ele>
        <time>2020-09-23T09:41:21.483Z</time>
      </trkpt>
      <trkpt lat="65.79797" lon="21.66159">
        <ele>69.376325</ele>
        <time>2020-09-23T09:43:03.446Z</time>
      </trkpt>
      <trkpt lat="65.79625" lon="21.66533">
        <ele>64.31902</ele>
        <time>2020-09-23T09:44:06.486Z</time>
      </trkpt>
      <trkpt lat="65.7944" lon="21.66881">
        <ele>64.141704</ele>
        <time>2020-09-23T09:45:01.466Z</time>
      </trkpt>
      <trkpt lat="65.79259" lon="21.67133">
        <ele>59.106367</ele>
        <time>2020-09-23T09:45:41.494Z</time>
      </trkpt>
      <trkpt lat="65.79067" lon="21.67324">
        <ele>51.579472</ele>
        <time>2020-09-23T09:46:21.507Z</time>
      </trkpt>
      <trkpt lat="65.78859" lon="21.67465">
        <ele>54.01221</ele>
        <time>2020-09-23T09:47:08.454Z</time>
      </trkpt>
      <trkpt lat="65.78632" lon="21.6755">
        <ele>59.754016</ele>
        <time>2020-09-23T09:48:00.455Z</time>
      </trkpt>
      <trkpt lat="65.784" lon="21.67615">
        <ele>58.1665</ele>
        <time>2020-09-23T09:48:53.519Z</time>
      </trkpt>
      <trkpt lat="65.78172" lon="21.67687">
        <ele>54.940429</ele>
        <time>2020-09-23T09:49:44.457Z</time>
      </trkpt>
      <trkpt lat="65.77924" lon="21.67824">
        <ele>50.285914</ele>
        <time>2020-09-23T09:50:24.453Z</time>
      </trkpt>
      <trkpt lat="65.77693" lon="21.67987">
        <ele>44.952864</ele>
        <time>2020-09-23T09:51:04.464Z</time>
      </trkpt>
      <trkpt lat="65.77511" lon="21.68161">
        <ele>41.997068</ele>
        <time>2020-09-23T09:51:44.472Z</time>
      </trkpt>
      <trkpt lat="65.77323" lon="21.68385">
        <ele>40.664625</ele>
        <time>2020-09-23T09:52:27.477Z</time>
      </trkpt>
      <trkpt lat="65.77147" lon="21.68611">
        <ele>41.207293</ele>
        <time>2020-09-23T09:53:09.458Z</time>
      </trkpt>
      <trkpt lat="65.76975" lon="21.68831">
        <ele>39.569462</ele>
        <time>2020-09-23T09:53:49.494Z</time>
      </trkpt>
      <trkpt lat="65.76789" lon="21.69012">
        <ele>35.512849</ele>
        <time>2020-09-23T09:54:31.487Z</time>
      </trkpt>
      <trkpt lat="65.76552" lon="21.69118">
        <ele>35.652089</ele>
        <time>2020-09-23T09:55:27.461Z</time>
      </trkpt>
      <trkpt lat="65.76345" lon="21.69325">
        <ele>40.624551</ele>
        <time>2020-09-23T09:56:18.456Z</time>
      </trkpt>
      <trkpt lat="65.76178" lon="21.69709">
        <ele>56.744751</ele>
        <time>2020-09-23T09:57:19.479Z</time>
      </trkpt>
      <trkpt lat="65.76039" lon="21.70159">
        <ele>46.368544</ele>
        <time>2020-09-23T09:58:19.459Z</time>
      </trkpt>
      <trkpt lat="65.75871" lon="21.706">
        <ele>43.691776</ele>
        <time>2020-09-23T09:59:19.452Z</time>
      </trkpt>
      <trkpt lat="65.75692" lon="21.70991">
        <ele>42.247912</ele>
        <time>2020-09-23T10:00:18.465Z</time>
      </trkpt>
      <trkpt lat="65.75493" lon="21.71274">
        <ele>41.878211</ele>
        <time>2020-09-23T10:01:21.489Z</time>
      </trkpt>
      <trkpt lat="65.75311" lon="21.71529">
        <ele>41.94412</ele>
        <time>2020-09-23T10:02:21.468Z</time>
      </trkpt>
      <trkpt lat="65.75143" lon="21.71773">
        <ele>43.470788</ele>
        <time>2020-09-23T10:03:23.460Z</time>
      </trkpt>
      <trkpt lat="65.74964" lon="21.7205">
        <ele>49.04556</ele>
        <time>2020-09-23T10:04:32.497Z</time>
      </trkpt>
      <trkpt lat="65.74807" lon="21.72315">
        <ele>54.059074</ele>
        <time>2020-09-23T10:05:33.458Z</time>
      </trkpt>
      <trkpt lat="65.74626" lon="21.72518">
        <ele>54.089754</ele>
        <time>2020-09-23T10:06:39.465Z</time>
      </trkpt>
      <trkpt lat="65.74421" lon="21.72673">
        <ele>59.745321</ele>
        <time>2020-09-23T10:07:52.496Z</time>
      </trkpt>
      <trkpt lat="65.74203" lon="21.72832">
        <ele>63.16148</ele>
        <time>2020-09-23T10:08:55.489Z</time>
      </trkpt>
      <trkpt lat="65.73987" lon="21.73061">
        <ele>58.223096</ele>
        <time>2020-09-23T10:09:53.475Z</time>
      </trkpt>
      <trkpt lat="65.73826" lon="21.73323">
        <ele>58.091688</ele>
        <time>2020-09-23T10:10:34.476Z</time>
      </trkpt>
      <trkpt lat="65.73606" lon="21.73669">
        <ele>55.935076</ele>
        <time>2020-09-23T10:11:16.497Z</time>
      </trkpt>
      <trkpt lat="65.73363" lon="21.73785">
        <ele>50.803625</ele>
        <time>2020-09-23T10:11:56.464Z</time>
      </trkpt>
      <trkpt lat="65.73153" lon="21.73873">
        <ele>49.283587</ele>
        <time>2020-09-23T10:12:43.466Z</time>
      </trkpt>
      <trkpt lat="65.72944" lon="21.74049">
        <ele>45.715564</ele>
        <time>2020-09-23T10:13:34.477Z</time>
      </trkpt>
      <trkpt lat="65.72769" lon="21.74421">
        <ele>45.37954</ele>
        <time>2020-09-23T10:14:27.475Z</time>
      </trkpt>
      <trkpt lat="65.7261" lon="21.74727">
        <ele>44.512287</ele>
        <time>2020-09-23T10:15:11.470Z</time>
      </trkpt>
      <trkpt lat="65.72447" lon="21.75013">
        <ele>40.304384</ele>
        <time>2020-09-23T10:15:51.524Z</time>
      </trkpt>
      <trkpt lat="65.72267" lon="21.75398">
        <ele>33.877636</ele>
        <time>2020-09-23T10:16:33.484Z</time>
      </trkpt>
      <trkpt lat="65.72077" lon="21.7565">
        <ele>28.747587</ele>
        <time>2020-09-23T10:17:13.472Z</time>
      </trkpt>
      <trkpt lat="65.71845" lon="21.75698">
        <ele>29.785886</ele>
        <time>2020-09-23T10:18:11.490Z</time>
      </trkpt>
      <trkpt lat="65.71623" lon="21.75899">
        <ele>29.68315</ele>
        <time>2020-09-23T10:19:14.472Z</time>
      </trkpt>
      <trkpt lat="65.71412" lon="21.76122">
        <ele>29.574779</ele>
        <time>2020-09-23T10:20:14.485Z</time>
      </trkpt>
      <trkpt lat="65.71202" lon="21.7611">
        <ele>36.087942</ele>
        <time>2020-09-23T10:21:31.487Z</time>
      </trkpt>
      <trkpt lat="65.70991" lon="21.76055">
        <ele>39.700858</ele>
        <time>2020-09-23T10:22:47.511Z</time>
      </trkpt>
      <trkpt lat="65.70764" lon="21.76132">
        <ele>33.726888</ele>
        <time>2020-09-23T10:23:37.482Z</time>
      </trkpt>
      <trkpt lat="65.70571" lon="21.76402">
        <ele>30.687925</ele>
        <time>2020-09-23T10:24:17.475Z</time>
      </trkpt>
      <trkpt lat="65.70436" lon="21.76779">
        <ele>33.623673</ele>
        <time>2020-09-23T10:25:12.474Z</time>
      </trkpt>
      <trkpt lat="65.7022" lon="21.76961">
        <ele>32.622653</ele>
        <time>2020-09-23T10:26:14.463Z</time>
      </trkpt>
      <trkpt lat="65.7" lon="21.77208">
        <ele>30.786128</ele>
        <time>2020-09-23T10:27:12.500Z</time>
      </trkpt>
      <trkpt lat="65.69785" lon="21.77519">
        <ele>28.277415</ele>
        <time>2020-09-23T10:28:12.526Z</time>
      </trkpt>
      <trkpt lat="65.69597" lon="21.7781">
        <ele>30.044848</ele>
        <time>2020-09-23T10:29:12.508Z</time>
      </trkpt>
      <trkpt lat="65.694" lon="21.78087">
        <ele>30.944559</ele>
        <time>2020-09-23T10:30:33.470Z</time>
      </trkpt>
      <trkpt lat="65.69202" lon="21.783">
        <ele>29.77497</ele>
        <time>2020-09-23T10:31:33.485Z</time>
      </trkpt>
      <trkpt lat="65.68966" lon="21.7841">
        <ele>31.030239</ele>
        <time>2020-09-23T10:32:33.518Z</time>
      </trkpt>
      <trkpt lat="65.6875" lon="21.78438">
        <ele>33.658055</ele>
        <time>2020-09-23T10:33:48.469Z</time>
      </trkpt>
      <trkpt lat="65.68561" lon="21.78636">
        <ele>33.78963</ele>
        <time>2020-09-23T10:34:52.504Z</time>
      </trkpt>
      <trkpt lat="65.68462" lon="21.79122">
        <ele>33.502366</ele>
        <time>2020-09-23T10:35:52.481Z</time>
      </trkpt>
      <trkpt lat="65.6839" lon="21.79599">
        <ele>35.250868</ele>
        <time>2020-09-23T10:36:52.480Z</time>
      </trkpt>
      <trkpt lat="65.68229" lon="21.79974">
        <ele>36.4435</ele>
        <time>2020-09-23T10:37:48.483Z</time>
      </trkpt>
      <trkpt lat="65.6804" lon="21.80311">
        <ele>37.647105</ele>
        <time>2020-09-23T10:38:45.460Z</time>
      </trkpt>
      <trkpt lat="65.67874" lon="21.80126">
        <ele>36.494135</ele>
        <time>2020-09-23T10:39:34.465Z</time>
      </trkpt>
      <trkpt lat="65.67661" lon="21.79946">
        <ele>34.043452</ele>
        <time>2020-09-23T10:40:31.491Z</time>
      </trkpt>
      <trkpt lat="65.67482" lon="21.79864">
        <ele>32.70316</ele>
        <time>2020-09-23T10:41:44.495Z</time>
      </trkpt>
      <trkpt lat="65.67347" lon="21.80254">
        <ele>28.938824</ele>
        <time>2020-09-23T10:42:30.473Z</time>
      </trkpt>
      <trkpt lat="65.67191" lon="21.80679">
        <ele>27.146122</ele>
        <time>2020-09-23T10:43:23.485Z</time>
      </trkpt>
      <trkpt lat="65.67019" lon="21.80929">
        <ele>26.410407</ele>
        <time>2020-09-23T10:44:07.481Z</time>
      </trkpt>
      <trkpt lat="65.66829" lon="21.81237">
        <ele>29.207448</ele>
        <time>2020-09-23T10:45:06.473Z</time>
      </trkpt>
      <trkpt lat="65.66699" lon="21.81619">
        <ele>35.888105</ele>
        <time>2020-09-23T10:46:12.491Z</time>
      </trkpt>
      <trkpt lat="65.66513" lon="21.81889">
        <ele>35.387353</ele>
        <time>2020-09-23T10:47:26.477Z</time>
      </trkpt>
      <trkpt lat="65.66349" lon="21.82286">
        <ele>32.014894</ele>
        <time>2020-09-23T10:48:26.470Z</time>
      </trkpt>
      <trkpt lat="65.66189" lon="21.82613">
        <ele>33.114573</ele>
        <time>2020-09-23T10:49:26.484Z</time>
      </trkpt>
      <trkpt lat="65.66027" lon="21.83033">
        <ele>32.276595</ele>
        <time>2020-09-23T10:50:29.485Z</time>
      </trkpt>
      <trkpt lat="65.6595" lon="21.83521">
        <ele>31.720135</ele>
        <time>2020-09-23T10:51:17.507Z</time>
      </trkpt>
      <trkpt lat="65.65853" lon="21.84003">
        <ele>29.016428</ele>
        <time>2020-09-23T10:52:02.500Z</time>
      </trkpt>
      <trkpt lat="65.65725" lon="21.84425">
        <ele>24.229864</ele>
        <time>2020-09-23T10:52:44.511Z</time>
      </trkpt>
      <trkpt lat="65.65579" lon="21.84922">
        <ele>24.394363</ele>
        <time>2020-09-23T10:53:47.500Z</time>
      </trkpt>
      <trkpt lat="65.6546" lon="21.85356">
        <ele>25.502696</ele>
        <time>2020-09-23T10:54:47.503Z</time>
      </trkpt>
      <trkpt lat="65.6535" lon="21.85819">
        <ele>23.053983</ele>
        <time>2020-09-23T10:55:36.462Z</time>
      </trkpt>
      <trkpt lat="65.65234" lon="21.8629">
        <ele>24.818381</ele>
        <time>2020-09-23T10:56:42.486Z</time>
      </trkpt>
      <trkpt lat="65.65116" lon="21.86735">
        <ele>27.703706</ele>
        <time>2020-09-23T10:57:59.486Z</time>
      </trkpt>
      <trkpt lat="65.64994" lon="21.87188">
        <ele>29.761801</ele>
        <time>2020-09-23T10:59:19.471Z</time>
      </trkpt>
      <trkpt lat="65.6487" lon="21.87631">
        <ele>33.133979</ele>
        <time>2020-09-23T11:00:39.488Z</time>
      </trkpt>
      <trkpt lat="65.64717" lon="21.88039">
        <ele>37.152291</ele>
        <time>2020-09-23T11:02:02.481Z</time>
      </trkpt>
      <trkpt lat="65.64566" lon="21.88418">
        <ele>36.551776</ele>
        <time>2020-09-23T11:03:02.494Z</time>
      </trkpt>
      <trkpt lat="65.64406" lon="21.88845">
        <ele>30.845923</ele>
        <time>2020-09-23T11:04:02.501Z</time>
      </trkpt>
      <trkpt lat="65.64268" lon="21.89293">
        <ele>34.299309</ele>
        <time>2020-09-23T11:05:05.494Z</time>
      </trkpt>
      <trkpt lat="65.64142" lon="21.89736">
        <ele>33.917178</ele>
        <time>2020-09-23T11:06:05.509Z</time>
      </trkpt>
      <trkpt lat="65.64016" lon="21.90182">
        <ele>29.017439</ele>
        <time>2020-09-23T11:06:53.479Z</time>
      </trkpt>
      <trkpt lat="65.63875" lon="21.90677">
        <ele>26.369985</ele>
        <time>2020-09-23T11:07:51.507Z</time>
      </trkpt>
      <trkpt lat="65.63725" lon="21.91191">
        <ele>25.969179</ele>
        <time>2020-09-23T11:08:52.484Z</time>
      </trkpt>
      <trkpt lat="65.63595" lon="21.91591">
        <ele>36.336057</ele>
        <time>2020-09-23T11:10:05.481Z</time>
      </trkpt>
      <trkpt lat="65.63503" lon="21.91998">
        <ele>41.359033</ele>
        <time>2020-09-23T11:28:41.491Z</time>
      </trkpt>
      <trkpt lat="65.63375" lon="21.92446">
        <ele>46.453767</ele>
        <time>2020-09-23T11:30:00.510Z</time>
      </trkpt>
      <trkpt lat="65.63231" lon="21.9277">
        <ele>46.812831</ele>
        <time>2020-09-23T11:31:04.487Z</time>
      </trkpt>
      <trkpt lat="65.63038" lon="21.92866">
        <ele>44.81723</ele>
        <time>2020-09-23T11:32:04.518Z</time>
      </trkpt>
      <trkpt lat="65.62813" lon="21.92951">
        <ele>45.116292</ele>
        <time>2020-09-23T11:33:06.506Z</time>
      </trkpt>
      <trkpt lat="65.62625" lon="21.93146">
        <ele>50.965081</ele>
        <time>2020-09-23T11:34:13.493Z</time>
      </trkpt>
      <trkpt lat="65.62446" lon="21.93472">
        <ele>45.803996</ele>
        <time>2020-09-23T11:34:58.514Z</time>
      </trkpt>
      <trkpt lat="65.62263" lon="21.93768">
        <ele>36.505363</ele>
        <time>2020-09-23T11:35:38.506Z</time>
      </trkpt>
      <trkpt lat="65.62097" lon="21.94028">
        <ele>36.787875</ele>
        <time>2020-09-23T11:36:20.494Z</time>
      </trkpt>
      <trkpt lat="65.61907" lon="21.94334">
        <ele>39.465186</ele>
        <time>2020-09-23T11:37:20.513Z</time>
      </trkpt>
      <trkpt lat="65.61738" lon="21.94609">
        <ele>42.128034</ele>
        <time>2020-09-23T11:38:20.503Z</time>
      </trkpt>
      <trkpt lat="65.61543" lon="21.94921">
        <ele>38.242132</ele>
        <time>2020-09-23T11:39:04.501Z</time>
      </trkpt>
      <trkpt lat="65.61365" lon="21.9521">
        <ele>36.679233</ele>
        <time>2020-09-23T11:39:44.479Z</time>
      </trkpt>
      <trkpt lat="65.61168" lon="21.95526">
        <ele>32.282055</ele>
        <time>2020-09-23T11:40:24.513Z</time>
      </trkpt>
      <trkpt lat="65.60994" lon="21.95802">
        <ele>30.860536</ele>
        <time>2020-09-23T11:41:07.509Z</time>
      </trkpt>
      <trkpt lat="65.60797" lon="21.96112">
        <ele>38.099158</ele>
        <time>2020-09-23T11:42:14.484Z</time>
      </trkpt>
      <trkpt lat="65.60635" lon="21.96432">
        <ele>44.425164</ele>
        <time>2020-09-23T11:43:25.495Z</time>
      </trkpt>
      <trkpt lat="65.60499" lon="21.96831">
        <ele>38.880274</ele>
        <time>2020-09-23T11:44:10.507Z</time>
      </trkpt>
      <trkpt lat="65.60369" lon="21.97315">
        <ele>36.074416</ele>
        <time>2020-09-23T11:44:52.501Z</time>
      </trkpt>
      <trkpt lat="65.60254" lon="21.97746">
        <ele>38.7615</ele>
        <time>2020-09-23T11:45:32.507Z</time>
      </trkpt>
      <trkpt lat="65.60139" lon="21.98166">
        <ele>37.464743</ele>
        <time>2020-09-23T11:46:12.492Z</time>
      </trkpt>
      <trkpt lat="65.60018" lon="21.98615">
        <ele>35.942957</ele>
        <time>2020-09-23T11:47:05.529Z</time>
      </trkpt>
      <trkpt lat="65.5988" lon="21.99015">
        <ele>42.768277</ele>
        <time>2020-09-23T11:48:09.496Z</time>
      </trkpt>
      <trkpt lat="65.59713" lon="21.99332">
        <ele>42.707882</ele>
        <time>2020-09-23T11:48:58.480Z</time>
      </trkpt>
      <trkpt lat="65.59547" lon="21.9962">
        <ele>43.481284</ele>
        <time>2020-09-23T11:49:39.502Z</time>
      </trkpt>
      <trkpt lat="65.59355" lon="21.99905">
        <ele>49.45282</ele>
        <time>2020-09-23T11:50:34.515Z</time>
      </trkpt>
      <trkpt lat="65.59166" lon="22.00051">
        <ele>56.041405</ele>
        <time>2020-09-23T11:51:39.525Z</time>
      </trkpt>
      <trkpt lat="65.5897" lon="22.00212">
        <ele>46.225203</ele>
        <time>2020-09-23T11:52:39.503Z</time>
      </trkpt>
      <trkpt lat="65.58815" lon="22.00583">
        <ele>47.551035</ele>
        <time>2020-09-23T11:53:41.488Z</time>
      </trkpt>
      <trkpt lat="65.58752" lon="22.01097">
        <ele>47.72919</ele>
        <time>2020-09-23T11:54:35.489Z</time>
      </trkpt>
      <trkpt lat="65.5874" lon="22.01727">
        <ele>39.837106</ele>
        <time>2020-09-23T11:55:15.499Z</time>
      </trkpt>
      <trkpt lat="65.58721" lon="22.02232">
        <ele>35.139963</ele>
        <time>2020-09-23T11:56:00.489Z</time>
      </trkpt>
      <trkpt lat="65.58669" lon="22.02778">
        <ele>31.510985</ele>
        <time>2020-09-23T11:56:45.512Z</time>
      </trkpt>
      <trkpt lat="65.58498" lon="22.03064">
        <ele>30.605773</ele>
        <time>2020-09-23T11:57:33.499Z</time>
      </trkpt>
      <trkpt lat="65.58364" lon="22.03501">
        <ele>29.08118</ele>
        <time>2020-09-23T11:58:24.492Z</time>
      </trkpt>
      <trkpt lat="65.58245" lon="22.04028">
        <ele>30.832624</ele>
        <time>2020-09-23T11:59:21.504Z</time>
      </trkpt>
      <trkpt lat="65.58168" lon="22.04578">
        <ele>30.617932</ele>
        <time>2020-09-23T12:00:18.498Z</time>
      </trkpt>
      <trkpt lat="65.58155" lon="22.05075">
        <ele>28.26699</ele>
        <time>2020-09-23T12:01:03.487Z</time>
      </trkpt>
      <trkpt lat="65.58131" lon="22.05597">
        <ele>28.997076</ele>
        <time>2020-09-23T12:01:51.509Z</time>
      </trkpt>
      <trkpt lat="65.58081" lon="22.06136">
        <ele>34.818721</ele>
        <time>2020-09-23T12:03:00.491Z</time>
      </trkpt>
      <trkpt lat="65.58056" lon="22.06602">
        <ele>47.756582</ele>
        <time>2020-09-23T12:04:22.533Z</time>
      </trkpt>
      <trkpt lat="65.58038" lon="22.07086">
        <ele>51.715058</ele>
        <time>2020-09-23T12:05:32.487Z</time>
      </trkpt>
      <trkpt lat="65.57973" lon="22.07542">
        <ele>44.490583</ele>
        <time>2020-09-23T12:06:18.501Z</time>
      </trkpt>
      <trkpt lat="65.57895" lon="22.08008">
        <ele>44.506476</ele>
        <time>2020-09-23T12:06:58.501Z</time>
      </trkpt>
      <trkpt lat="65.57778" lon="22.08473">
        <ele>45.412359</ele>
        <time>2020-09-23T12:07:38.497Z</time>
      </trkpt>
      <trkpt lat="65.57736" lon="22.08978">
        <ele>41.159143</ele>
        <time>2020-09-23T12:08:18.518Z</time>
      </trkpt>
      <trkpt lat="65.57733" lon="22.095">
        <ele>42.405404</ele>
        <time>2020-09-23T12:09:00.506Z</time>
      </trkpt>
      <trkpt lat="65.57687" lon="22.09964">
        <ele>47.375039</ele>
        <time>2020-09-23T12:10:14.488Z</time>
      </trkpt>
      <trkpt lat="65.57693" lon="22.10539">
        <ele>44.479755</ele>
        <time>2020-09-23T12:10:57.504Z</time>
      </trkpt>
      <trkpt lat="65.57729" lon="22.11057">
        <ele>42.891401</ele>
        <time>2020-09-23T12:12:06.509Z</time>
      </trkpt>
      <trkpt lat="65.57804" lon="22.1158">
        <ele>36.983275</ele>
        <time>2020-09-23T12:12:59.515Z</time>
      </trkpt>
      <trkpt lat="65.57859" lon="22.12138">
        <ele>39.005541</ele>
        <time>2020-09-23T12:13:58.499Z</time>
      </trkpt>
      <trkpt lat="65.5792" lon="22.12705">
        <ele>39.042758</ele>
        <time>2020-09-23T12:15:00.492Z</time>
      </trkpt>
      <trkpt lat="65.57977" lon="22.1323">
        <ele>36.392538</ele>
        <time>2020-09-23T12:15:52.498Z</time>
      </trkpt>
      <trkpt lat="65.58023" lon="22.13716">
        <ele>40.486854</ele>
        <time>2020-09-23T12:16:37.556Z</time>
      </trkpt>
      <trkpt lat="65.58092" lon="22.14243">
        <ele>57.491983</ele>
        <time>2020-09-23T12:18:04.497Z</time>
      </trkpt>
      <trkpt lat="65.58131" lon="22.14632">
        <ele>48.99094</ele>
        <time>2020-09-23T12:19:05.499Z</time>
      </trkpt>
      <trkpt lat="65.58176" lon="22.1511">
        <ele>55.071779</ele>
        <time>2020-09-23T12:20:12.491Z</time>
      </trkpt>
      <trkpt lat="65.58233" lon="22.1562">
        <ele>52.636542</ele>
        <time>2020-09-23T12:21:01.523Z</time>
      </trkpt>
      <trkpt lat="65.58284" lon="22.16127">
        <ele>49.181116</ele>
        <time>2020-09-23T12:22:13.523Z</time>
      </trkpt>
      <trkpt lat="65.58381" lon="22.16259">
        <ele>48.795678</ele>
        <time>2020-09-23T12:24:03.503Z</time>
      </trkpt>
    </trkseg>
  </trk>
  <trk>
    <name><![CDATA[Tour d'Europe: étape 090]]></name>
    <trkseg>
      <trkpt lat="65.58345" lon="22.15888">
        <ele>59.467206</ele>
        <time>2020-09-26T08:03:07.224Z</time>
      </trkpt>
      <trkpt lat="65.58279" lon="22.1537">
        <ele>51.295185</ele>
        <time>2020-09-26T08:04:02.256Z</time>
      </trkpt>
      <trkpt lat="65.58168" lon="22.15019">
        <ele>47.311749</ele>
        <time>2020-09-26T08:05:14.231Z</time>
      </trkpt>
      <trkpt lat="65.58076" lon="22.14591">
        <ele>43.521707</ele>
        <time>2020-09-26T08:06:03.236Z</time>
      </trkpt>
      <trkpt lat="65.57987" lon="22.14092">
        <ele>47.43088</ele>
        <time>2020-09-26T08:06:56.247Z</time>
      </trkpt>
      <trkpt lat="65.57939" lon="22.13566">
        <ele>50.19205</ele>
        <time>2020-09-26T08:08:01.235Z</time>
      </trkpt>
      <trkpt lat="65.57971" lon="22.13162">
        <ele>36.001009</ele>
        <time>2020-09-26T08:09:02.246Z</time>
      </trkpt>
      <trkpt lat="65.57912" lon="22.1261">
        <ele>31.233371</ele>
        <time>2020-09-26T08:10:04.262Z</time>
      </trkpt>
      <trkpt lat="65.57857" lon="22.12091">
        <ele>38.569427</ele>
        <time>2020-09-26T08:10:54.247Z</time>
      </trkpt>
      <trkpt lat="65.57806" lon="22.11606">
        <ele>35.502238</ele>
        <time>2020-09-26T08:11:38.232Z</time>
      </trkpt>
      <trkpt lat="65.57737" lon="22.1111">
        <ele>34.06171</ele>
        <time>2020-09-26T08:12:25.237Z</time>
      </trkpt>
      <trkpt lat="65.57699" lon="22.10613">
        <ele>38.075798</ele>
        <time>2020-09-26T08:13:33.232Z</time>
      </trkpt>
      <trkpt lat="65.57687" lon="22.10052">
        <ele>38.29333</ele>
        <time>2020-09-26T08:14:42.237Z</time>
      </trkpt>
      <trkpt lat="65.57656" lon="22.0957">
        <ele>35.784993</ele>
        <time>2020-09-26T08:18:43.227Z</time>
      </trkpt>
      <trkpt lat="65.5746" lon="22.09441">
        <ele>43.13493</ele>
        <time>2020-09-26T08:19:50.244Z</time>
      </trkpt>
      <trkpt lat="65.57246" lon="22.09272">
        <ele>45.846171</ele>
        <time>2020-09-26T08:20:54.239Z</time>
      </trkpt>
      <trkpt lat="65.57065" lon="22.08939">
        <ele>43.239861</ele>
        <time>2020-09-26T08:21:56.249Z</time>
      </trkpt>
      <trkpt lat="65.56856" lon="22.08706">
        <ele>40.808976</ele>
        <time>2020-09-26T08:22:48.261Z</time>
      </trkpt>
      <trkpt lat="65.56616" lon="22.08595">
        <ele>44.501787</ele>
        <time>2020-09-26T08:23:38.247Z</time>
      </trkpt>
      <trkpt lat="65.56377" lon="22.08736">
        <ele>50.859635</ele>
        <time>2020-09-26T08:24:37.250Z</time>
      </trkpt>
      <trkpt lat="65.56182" lon="22.08633">
        <ele>42.135514</ele>
        <time>2020-09-26T08:25:19.248Z</time>
      </trkpt>
      <trkpt lat="65.55975" lon="22.08499">
        <ele>42.238725</ele>
        <time>2020-09-26T08:26:05.270Z</time>
      </trkpt>
      <trkpt lat="65.55757" lon="22.08363">
        <ele>43.129171</ele>
        <time>2020-09-26T08:26:54.238Z</time>
      </trkpt>
      <trkpt lat="65.55522" lon="22.08215">
        <ele>50.817729</ele>
        <time>2020-09-26T08:27:49.243Z</time>
      </trkpt>
      <trkpt lat="65.55279" lon="22.08111">
        <ele>51.239767</ele>
        <time>2020-09-26T08:28:46.231Z</time>
      </trkpt>
      <trkpt lat="65.55047" lon="22.07962">
        <ele>44.105412</ele>
        <time>2020-09-26T08:29:29.276Z</time>
      </trkpt>
      <trkpt lat="65.54815" lon="22.07798">
        <ele>39.669908</ele>
        <time>2020-09-26T08:30:13.245Z</time>
      </trkpt>
      <trkpt lat="65.5456" lon="22.0762">
        <ele>39.109077</ele>
        <time>2020-09-26T08:30:55.244Z</time>
      </trkpt>
      <trkpt lat="65.54306" lon="22.07482">
        <ele>36.03234</ele>
        <time>2020-09-26T08:31:35.259Z</time>
      </trkpt>
      <trkpt lat="65.54042" lon="22.07309">
        <ele>31.96113</ele>
        <time>2020-09-26T08:32:17.262Z</time>
      </trkpt>
      <trkpt lat="65.53792" lon="22.07116">
        <ele>31.13225</ele>
        <time>2020-09-26T08:32:59.237Z</time>
      </trkpt>
      <trkpt lat="65.53575" lon="22.06871">
        <ele>27.513002</ele>
        <time>2020-09-26T08:33:39.236Z</time>
      </trkpt>
      <trkpt lat="65.53396" lon="22.06523">
        <ele>29.416332</ele>
        <time>2020-09-26T08:34:21.283Z</time>
      </trkpt>
      <trkpt lat="65.53249" lon="22.06153">
        <ele>35.63251</ele>
        <time>2020-09-26T08:35:03.236Z</time>
      </trkpt>
      <trkpt lat="65.53107" lon="22.05824">
        <ele>36.231444</ele>
        <time>2020-09-26T08:35:45.261Z</time>
      </trkpt>
      <trkpt lat="65.52924" lon="22.05407">
        <ele>31.897993</ele>
        <time>2020-09-26T08:36:47.254Z</time>
      </trkpt>
      <trkpt lat="65.52777" lon="22.05015">
        <ele>32.45241</ele>
        <time>2020-09-26T08:37:31.237Z</time>
      </trkpt>
      <trkpt lat="65.52643" lon="22.04661">
        <ele>33.689223</ele>
        <time>2020-09-26T08:38:11.243Z</time>
      </trkpt>
      <trkpt lat="65.5248" lon="22.04191">
        <ele>34.344312</ele>
        <time>2020-09-26T08:39:11.239Z</time>
      </trkpt>
      <trkpt lat="65.52422" lon="22.03673">
        <ele>36.421177</ele>
        <time>2020-09-26T08:40:14.233Z</time>
      </trkpt>
      <trkpt lat="65.52375" lon="22.03122">
        <ele>41.502547</ele>
        <time>2020-09-26T08:41:13.236Z</time>
      </trkpt>
      <trkpt lat="65.52312" lon="22.02604">
        <ele>48.464631</ele>
        <time>2020-09-26T08:42:18.271Z</time>
      </trkpt>
      <trkpt lat="65.5223" lon="22.0211">
        <ele>41.186053</ele>
        <time>2020-09-26T08:43:06.259Z</time>
      </trkpt>
      <trkpt lat="65.52103" lon="22.01674">
        <ele>39.098982</ele>
        <time>2020-09-26T08:43:48.259Z</time>
      </trkpt>
      <trkpt lat="65.51942" lon="22.01343">
        <ele>40.932502</ele>
        <time>2020-09-26T08:44:30.267Z</time>
      </trkpt>
      <trkpt lat="65.51888" lon="22.0089">
        <ele>36.889069</ele>
        <time>2020-09-26T08:45:12.251Z</time>
      </trkpt>
      <trkpt lat="65.51931" lon="22.00267">
        <ele>31.091423</ele>
        <time>2020-09-26T08:45:54.283Z</time>
      </trkpt>
      <trkpt lat="65.52007" lon="21.99778">
        <ele>29.18967</ele>
        <time>2020-09-26T08:46:36.235Z</time>
      </trkpt>
      <trkpt lat="65.52111" lon="21.99296">
        <ele>29.910975</ele>
        <time>2020-09-26T08:47:29.243Z</time>
      </trkpt>
      <trkpt lat="65.52281" lon="21.9882">
        <ele>26.416882</ele>
        <time>2020-09-26T08:48:11.237Z</time>
      </trkpt>
      <trkpt lat="65.52385" lon="21.98351">
        <ele>27.178473</ele>
        <time>2020-09-26T08:48:54.232Z</time>
      </trkpt>
      <trkpt lat="65.52498" lon="21.97803">
        <ele>32.130037</ele>
        <time>2020-09-26T08:49:54.264Z</time>
      </trkpt>
      <trkpt lat="65.52497" lon="21.97249">
        <ele>31.515241</ele>
        <time>2020-09-26T08:50:45.242Z</time>
      </trkpt>
      <trkpt lat="65.52469" lon="21.96715">
        <ele>35.836223</ele>
        <time>2020-09-26T08:51:46.291Z</time>
      </trkpt>
      <trkpt lat="65.52446" lon="21.96208">
        <ele>38.868401</ele>
        <time>2020-09-26T08:52:45.273Z</time>
      </trkpt>
      <trkpt lat="65.5242" lon="21.95644">
        <ele>36.718337</ele>
        <time>2020-09-26T08:53:35.235Z</time>
      </trkpt>
      <trkpt lat="65.52423" lon="21.95089">
        <ele>42.297239</ele>
        <time>2020-09-26T08:54:26.251Z</time>
      </trkpt>
      <trkpt lat="65.52521" lon="21.94667">
        <ele>41.891042</ele>
        <time>2020-09-26T08:55:06.257Z</time>
      </trkpt>
      <trkpt lat="65.52647" lon="21.94148">
        <ele>37.282689</ele>
        <time>2020-09-26T08:56:05.276Z</time>
      </trkpt>
      <trkpt lat="65.52769" lon="21.93639">
        <ele>40.04716</ele>
        <time>2020-09-26T08:57:02.267Z</time>
      </trkpt>
      <trkpt lat="65.52891" lon="21.9313">
        <ele>40.980688</ele>
        <time>2020-09-26T08:58:05.286Z</time>
      </trkpt>
      <trkpt lat="65.53" lon="21.92662">
        <ele>44.315319</ele>
        <time>2020-09-26T08:59:09.249Z</time>
      </trkpt>
      <trkpt lat="65.53108" lon="21.92221">
        <ele>46.322849</ele>
        <time>2020-09-26T09:00:09.257Z</time>
      </trkpt>
      <trkpt lat="65.53232" lon="21.91698">
        <ele>42.87337</ele>
        <time>2020-09-26T09:00:58.244Z</time>
      </trkpt>
      <trkpt lat="65.5337" lon="21.9112">
        <ele>33.760378</ele>
        <time>2020-09-26T09:01:40.244Z</time>
      </trkpt>
      <trkpt lat="65.53485" lon="21.90642">
        <ele>31.338082</ele>
        <time>2020-09-26T09:02:20.248Z</time>
      </trkpt>
      <trkpt lat="65.536" lon="21.90153">
        <ele>30.504255</ele>
        <time>2020-09-26T09:03:02.243Z</time>
      </trkpt>
      <trkpt lat="65.53705" lon="21.89717">
        <ele>30.427684</ele>
        <time>2020-09-26T09:03:47.268Z</time>
      </trkpt>
      <trkpt lat="65.5383" lon="21.89229">
        <ele>31.437635</ele>
        <time>2020-09-26T09:04:41.251Z</time>
      </trkpt>
      <trkpt lat="65.53983" lon="21.88839">
        <ele>30.631875</ele>
        <time>2020-09-26T09:05:31.264Z</time>
      </trkpt>
      <trkpt lat="65.54142" lon="21.88481">
        <ele>32.568741</ele>
        <time>2020-09-26T09:06:37.253Z</time>
      </trkpt>
      <trkpt lat="65.54307" lon="21.88119">
        <ele>30.646786</ele>
        <time>2020-09-26T09:07:29.250Z</time>
      </trkpt>
      <trkpt lat="65.54455" lon="21.87676">
        <ele>32.11117</ele>
        <time>2020-09-26T09:08:23.269Z</time>
      </trkpt>
      <trkpt lat="65.54545" lon="21.87128">
        <ele>32.757954</ele>
        <time>2020-09-26T09:09:22.243Z</time>
      </trkpt>
      <trkpt lat="65.5461" lon="21.86612">
        <ele>31.552013</ele>
        <time>2020-09-26T09:10:03.271Z</time>
      </trkpt>
      <trkpt lat="65.54677" lon="21.86033">
        <ele>29.168349</ele>
        <time>2020-09-26T09:10:45.249Z</time>
      </trkpt>
      <trkpt lat="65.54731" lon="21.85584">
        <ele>29.716094</ele>
        <time>2020-09-26T09:11:26.246Z</time>
      </trkpt>
      <trkpt lat="65.54807" lon="21.84993">
        <ele>30.110089</ele>
        <time>2020-09-26T09:12:26.256Z</time>
      </trkpt>
      <trkpt lat="65.54879" lon="21.84585">
        <ele>28.065743</ele>
        <time>2020-09-26T09:13:21.259Z</time>
      </trkpt>
      <trkpt lat="65.54952" lon="21.84183">
        <ele>37.684438</ele>
        <time>2020-09-26T09:14:42.244Z</time>
      </trkpt>
      <trkpt lat="65.55097" lon="21.83777">
        <ele>39.252398</ele>
        <time>2020-09-26T09:15:51.245Z</time>
      </trkpt>
      <trkpt lat="65.55262" lon="21.83391">
        <ele>39.584164</ele>
        <time>2020-09-26T09:16:54.270Z</time>
      </trkpt>
      <trkpt lat="65.55423" lon="21.83025">
        <ele>39.16965</ele>
        <time>2020-09-26T09:17:54.240Z</time>
      </trkpt>
      <trkpt lat="65.55593" lon="21.82717">
        <ele>45.658842</ele>
        <time>2020-09-26T09:19:04.250Z</time>
      </trkpt>
      <trkpt lat="65.55688" lon="21.82428">
        <ele>46.831283</ele>
        <time>2020-09-26T09:20:13.255Z</time>
      </trkpt>
      <trkpt lat="65.55717" lon="21.81873">
        <ele>44.636703</ele>
        <time>2020-09-26T09:21:08.245Z</time>
      </trkpt>
      <trkpt lat="65.55744" lon="21.81346">
        <ele>45.358585</ele>
        <time>2020-09-26T09:21:51.254Z</time>
      </trkpt>
      <trkpt lat="65.55805" lon="21.80829">
        <ele>42.708801</ele>
        <time>2020-09-26T09:22:34.253Z</time>
      </trkpt>
      <trkpt lat="65.55892" lon="21.80344">
        <ele>37.619475</ele>
        <time>2020-09-26T09:23:14.232Z</time>
      </trkpt>
      <trkpt lat="65.56005" lon="21.79884">
        <ele>36.678354</ele>
        <time>2020-09-26T09:23:56.258Z</time>
      </trkpt>
      <trkpt lat="65.56124" lon="21.7947">
        <ele>37.737256</ele>
        <time>2020-09-26T09:24:38.241Z</time>
      </trkpt>
      <trkpt lat="65.56239" lon="21.79063">
        <ele>35.620433</ele>
        <time>2020-09-26T09:25:22.237Z</time>
      </trkpt>
      <trkpt lat="65.56135" lon="21.7859">
        <ele>27.413308</ele>
        <time>2020-09-26T09:26:05.240Z</time>
      </trkpt>
      <trkpt lat="65.56011" lon="21.78167">
        <ele>22.656916</ele>
        <time>2020-09-26T09:26:46.276Z</time>
      </trkpt>
      <trkpt lat="65.5589" lon="21.77756">
        <ele>26.015583</ele>
        <time>2020-09-26T09:27:31.241Z</time>
      </trkpt>
      <trkpt lat="65.55767" lon="21.77302">
        <ele>27.209765</ele>
        <time>2020-09-26T09:28:21.253Z</time>
      </trkpt>
      <trkpt lat="65.5565" lon="21.76848">
        <ele>27.50426</ele>
        <time>2020-09-26T09:29:07.239Z</time>
      </trkpt>
      <trkpt lat="65.55447" lon="21.76755">
        <ele>29.84282</ele>
        <time>2020-09-26T09:29:49.249Z</time>
      </trkpt>
      <trkpt lat="65.55237" lon="21.76591">
        <ele>27.692182</ele>
        <time>2020-09-26T09:30:34.255Z</time>
      </trkpt>
      <trkpt lat="65.55045" lon="21.76525">
        <ele>32.167462</ele>
        <time>2020-09-26T09:31:14.254Z</time>
      </trkpt>
      <trkpt lat="65.54811" lon="21.76543">
        <ele>39.113987</ele>
        <time>2020-09-26T09:32:08.256Z</time>
      </trkpt>
      <trkpt lat="65.54612" lon="21.76292">
        <ele>32.9715</ele>
        <time>2020-09-26T09:32:58.271Z</time>
      </trkpt>
      <trkpt lat="65.54399" lon="21.76305">
        <ele>28.331372</ele>
        <time>2020-09-26T09:33:49.262Z</time>
      </trkpt>
      <trkpt lat="65.54235" lon="21.76665">
        <ele>32.368626</ele>
        <time>2020-09-26T09:34:38.243Z</time>
      </trkpt>
      <trkpt lat="65.54069" lon="21.7704">
        <ele>36.298777</ele>
        <time>2020-09-26T09:35:30.293Z</time>
      </trkpt>
      <trkpt lat="65.53909" lon="21.77397">
        <ele>34.257341</ele>
        <time>2020-09-26T09:36:18.257Z</time>
      </trkpt>
      <trkpt lat="65.53724" lon="21.77815">
        <ele>31.895155</ele>
        <time>2020-09-26T09:37:19.264Z</time>
      </trkpt>
      <trkpt lat="65.5356" lon="21.78181">
        <ele>30.233564</ele>
        <time>2020-09-26T09:38:08.293Z</time>
      </trkpt>
      <trkpt lat="65.534" lon="21.78535">
        <ele>29.978112</ele>
        <time>2020-09-26T09:38:57.252Z</time>
      </trkpt>
      <trkpt lat="65.53216" lon="21.78891">
        <ele>31.88532</ele>
        <time>2020-09-26T09:39:59.303Z</time>
      </trkpt>
      <trkpt lat="65.53102" lon="21.78553">
        <ele>29.094862</ele>
        <time>2020-09-26T09:40:43.279Z</time>
      </trkpt>
      <trkpt lat="65.52948" lon="21.78202">
        <ele>24.133351</ele>
        <time>2020-09-26T09:41:26.257Z</time>
      </trkpt>
      <trkpt lat="65.52782" lon="21.77841">
        <ele>31.223026</ele>
        <time>2020-09-26T09:42:14.250Z</time>
      </trkpt>
      <trkpt lat="65.52628" lon="21.7749">
        <ele>34.351877</ele>
        <time>2020-09-26T10:03:34.895Z</time>
      </trkpt>
      <trkpt lat="65.52528" lon="21.76965">
        <ele>35.334381</ele>
        <time>2020-09-26T10:04:34.879Z</time>
      </trkpt>
      <trkpt lat="65.52464" lon="21.76481">
        <ele>37.449925</ele>
        <time>2020-09-26T10:05:18.896Z</time>
      </trkpt>
      <trkpt lat="65.52404" lon="21.76029">
        <ele>43.159424</ele>
        <time>2020-09-26T10:05:59.876Z</time>
      </trkpt>
      <trkpt lat="65.52342" lon="21.75573">
        <ele>39.160307</ele>
        <time>2020-09-26T10:06:41.878Z</time>
      </trkpt>
      <trkpt lat="65.52276" lon="21.7507">
        <ele>37.195821</ele>
        <time>2020-09-26T10:07:28.885Z</time>
      </trkpt>
      <trkpt lat="65.52197" lon="21.74488">
        <ele>36.864864</ele>
        <time>2020-09-26T10:08:27.874Z</time>
      </trkpt>
      <trkpt lat="65.52136" lon="21.73978">
        <ele>36.899136</ele>
        <time>2020-09-26T10:09:14.866Z</time>
      </trkpt>
      <trkpt lat="65.52098" lon="21.73495">
        <ele>37.182563</ele>
        <time>2020-09-26T10:09:56.869Z</time>
      </trkpt>
      <trkpt lat="65.52061" lon="21.72992">
        <ele>38.95994</ele>
        <time>2020-09-26T10:10:47.872Z</time>
      </trkpt>
      <trkpt lat="65.52015" lon="21.72418">
        <ele>43.777244</ele>
        <time>2020-09-26T10:11:50.916Z</time>
      </trkpt>
      <trkpt lat="65.51967" lon="21.71809">
        <ele>40.596328</ele>
        <time>2020-09-26T10:12:49.897Z</time>
      </trkpt>
      <trkpt lat="65.51929" lon="21.71293">
        <ele>37.666967</ele>
        <time>2020-09-26T10:13:37.899Z</time>
      </trkpt>
      <trkpt lat="65.51881" lon="21.70667">
        <ele>39.300851</ele>
        <time>2020-09-26T10:14:40.913Z</time>
      </trkpt>
      <trkpt lat="65.51886" lon="21.70119">
        <ele>43.025345</ele>
        <time>2020-09-26T10:15:47.884Z</time>
      </trkpt>
      <trkpt lat="65.51906" lon="21.69605">
        <ele>46.411535</ele>
        <time>2020-09-26T10:17:03.923Z</time>
      </trkpt>
      <trkpt lat="65.51953" lon="21.6908">
        <ele>47.126856</ele>
        <time>2020-09-26T10:18:06.872Z</time>
      </trkpt>
      <trkpt lat="65.5205" lon="21.68627">
        <ele>44.836781</ele>
        <time>2020-09-26T10:19:04.887Z</time>
      </trkpt>
      <trkpt lat="65.52157" lon="21.68125">
        <ele>44.749472</ele>
        <time>2020-09-26T10:20:07.918Z</time>
      </trkpt>
      <trkpt lat="65.52257" lon="21.67668">
        <ele>45.705508</ele>
        <time>2020-09-26T10:21:12.866Z</time>
      </trkpt>
      <trkpt lat="65.5236" lon="21.672">
        <ele>48.600029</ele>
        <time>2020-09-26T10:22:12.872Z</time>
      </trkpt>
      <trkpt lat="65.52471" lon="21.66688">
        <ele>47.544874</ele>
        <time>2020-09-26T10:23:15.873Z</time>
      </trkpt>
      <trkpt lat="65.52578" lon="21.66192">
        <ele>48.513224</ele>
        <time>2020-09-26T10:24:20.899Z</time>
      </trkpt>
      <trkpt lat="65.52671" lon="21.6569">
        <ele>55.03114</ele>
        <time>2020-09-26T10:25:20.883Z</time>
      </trkpt>
      <trkpt lat="65.52669" lon="21.65142">
        <ele>56.286258</ele>
        <time>2020-09-26T10:28:15.873Z</time>
      </trkpt>
      <trkpt lat="65.52625" lon="21.64593">
        <ele>50.990494</ele>
        <time>2020-09-26T10:28:59.886Z</time>
      </trkpt>
      <trkpt lat="65.52556" lon="21.64067">
        <ele>40.298885</ele>
        <time>2020-09-26T10:29:39.906Z</time>
      </trkpt>
      <trkpt lat="65.52425" lon="21.63678">
        <ele>41.274945</ele>
        <time>2020-09-26T10:30:24.877Z</time>
      </trkpt>
      <trkpt lat="65.52248" lon="21.63418">
        <ele>44.086272</ele>
        <time>2020-09-26T10:31:06.875Z</time>
      </trkpt>
      <trkpt lat="65.52069" lon="21.63132">
        <ele>43.126158</ele>
        <time>2020-09-26T10:31:48.892Z</time>
      </trkpt>
      <trkpt lat="65.51874" lon="21.62753">
        <ele>42.217562</ele>
        <time>2020-09-26T10:32:47.874Z</time>
      </trkpt>
      <trkpt lat="65.5171" lon="21.6231">
        <ele>38.357047</ele>
        <time>2020-09-26T10:33:27.901Z</time>
      </trkpt>
      <trkpt lat="65.51561" lon="21.61836">
        <ele>39.872388</ele>
        <time>2020-09-26T10:34:28.880Z</time>
      </trkpt>
      <trkpt lat="65.51513" lon="21.61308">
        <ele>45.724289</ele>
        <time>2020-09-26T10:35:31.876Z</time>
      </trkpt>
      <trkpt lat="65.51495" lon="21.60813">
        <ele>48.307087</ele>
        <time>2020-09-26T10:36:37.884Z</time>
      </trkpt>
      <trkpt lat="65.51471" lon="21.60282">
        <ele>52.959107</ele>
        <time>2020-09-26T10:37:55.885Z</time>
      </trkpt>
      <trkpt lat="65.51398" lon="21.59746">
        <ele>48.31104</ele>
        <time>2020-09-26T10:38:43.887Z</time>
      </trkpt>
      <trkpt lat="65.51249" lon="21.59103">
        <ele>35.470759</ele>
        <time>2020-09-26T10:39:21.879Z</time>
      </trkpt>
      <trkpt lat="65.51134" lon="21.58602">
        <ele>34.882135</ele>
        <time>2020-09-26T10:40:03.916Z</time>
      </trkpt>
      <trkpt lat="65.5096" lon="21.58538">
        <ele>38.458437</ele>
        <time>2020-09-26T10:40:53.876Z</time>
      </trkpt>
      <trkpt lat="65.50751" lon="21.58792">
        <ele>37.031688</ele>
        <time>2020-09-26T10:41:33.899Z</time>
      </trkpt>
      <trkpt lat="65.50553" lon="21.59052">
        <ele>36.823032</ele>
        <time>2020-09-26T10:42:16.877Z</time>
      </trkpt>
      <trkpt lat="65.50343" lon="21.59245">
        <ele>37.410839</ele>
        <time>2020-09-26T10:43:04.914Z</time>
      </trkpt>
      <trkpt lat="65.50113" lon="21.59342">
        <ele>32.933389</ele>
        <time>2020-09-26T10:43:44.886Z</time>
      </trkpt>
      <trkpt lat="65.49893" lon="21.59432">
        <ele>31.888014</ele>
        <time>2020-09-26T10:44:26.897Z</time>
      </trkpt>
      <trkpt lat="65.49712" lon="21.5968">
        <ele>40.622326</ele>
        <time>2020-09-26T10:45:14.878Z</time>
      </trkpt>
      <trkpt lat="65.49556" lon="21.60087">
        <ele>44.113748</ele>
        <time>2020-09-26T10:46:15.899Z</time>
      </trkpt>
      <trkpt lat="65.4935" lon="21.60421">
        <ele>38.942144</ele>
        <time>2020-09-26T10:46:57.876Z</time>
      </trkpt>
      <trkpt lat="65.49157" lon="21.6062">
        <ele>37.205794</ele>
        <time>2020-09-26T10:47:43.905Z</time>
      </trkpt>
      <trkpt lat="65.48937" lon="21.60695">
        <ele>34.101052</ele>
        <time>2020-09-26T10:48:25.881Z</time>
      </trkpt>
      <trkpt lat="65.48823" lon="21.61146">
        <ele>33.898968</ele>
        <time>2020-09-26T10:49:08.907Z</time>
      </trkpt>
      <trkpt lat="65.48714" lon="21.61567">
        <ele>33.326383</ele>
        <time>2020-09-26T10:49:49.906Z</time>
      </trkpt>
      <trkpt lat="65.48734" lon="21.62049">
        <ele>33.369921</ele>
        <time>2020-09-26T10:50:35.902Z</time>
      </trkpt>
      <trkpt lat="65.48707" lon="21.6255">
        <ele>38.835924</ele>
        <time>2020-09-26T10:51:31.905Z</time>
      </trkpt>
      <trkpt lat="65.4856" lon="21.62921">
        <ele>39.677775</ele>
        <time>2020-09-26T10:52:11.924Z</time>
      </trkpt>
      <trkpt lat="65.4842" lon="21.63318">
        <ele>36.547421</ele>
        <time>2020-09-26T10:52:55.883Z</time>
      </trkpt>
      <trkpt lat="65.4827" lon="21.63718">
        <ele>42.384239</ele>
        <time>2020-09-26T10:53:45.903Z</time>
      </trkpt>
      <trkpt lat="65.48144" lon="21.64118">
        <ele>43.494781</ele>
        <time>2020-09-26T10:54:44.917Z</time>
      </trkpt>
      <trkpt lat="65.47961" lon="21.64393">
        <ele>42.958302</ele>
        <time>2020-09-26T10:55:26.889Z</time>
      </trkpt>
      <trkpt lat="65.47812" lon="21.64756">
        <ele>46.019193</ele>
        <time>2020-09-26T10:56:26.875Z</time>
      </trkpt>
      <trkpt lat="65.47623" lon="21.65088">
        <ele>45.70482</ele>
        <time>2020-09-26T10:57:16.884Z</time>
      </trkpt>
      <trkpt lat="65.47479" lon="21.65506">
        <ele>47.423485</ele>
        <time>2020-09-26T10:58:11.895Z</time>
      </trkpt>
      <trkpt lat="65.47307" lon="21.65822">
        <ele>50.879319</ele>
        <time>2020-09-26T10:59:20.908Z</time>
      </trkpt>
      <trkpt lat="65.47105" lon="21.66092">
        <ele>49.083606</ele>
        <time>2020-09-26T11:00:15.882Z</time>
      </trkpt>
      <trkpt lat="65.46913" lon="21.6636">
        <ele>49.875947</ele>
        <time>2020-09-26T11:01:01.899Z</time>
      </trkpt>
      <trkpt lat="65.46686" lon="21.66449">
        <ele>47.837562</ele>
        <time>2020-09-26T11:01:45.887Z</time>
      </trkpt>
      <trkpt lat="65.46492" lon="21.66753">
        <ele>51.088259</ele>
        <time>2020-09-26T11:02:30.891Z</time>
      </trkpt>
      <trkpt lat="65.46275" lon="21.67042">
        <ele>50.23483</ele>
        <time>2020-09-26T11:03:20.896Z</time>
      </trkpt>
      <trkpt lat="65.46051" lon="21.66979">
        <ele>51.49125</ele>
        <time>2020-09-26T11:04:04.910Z</time>
      </trkpt>
      <trkpt lat="65.45791" lon="21.6698">
        <ele>45.3037</ele>
        <time>2020-09-26T11:04:46.882Z</time>
      </trkpt>
      <trkpt lat="65.45566" lon="21.67074">
        <ele>43.53492</ele>
        <time>2020-09-26T11:05:28.879Z</time>
      </trkpt>
      <trkpt lat="65.45317" lon="21.67239">
        <ele>41.586287</ele>
        <time>2020-09-26T11:06:08.892Z</time>
      </trkpt>
      <trkpt lat="65.45073" lon="21.67365">
        <ele>43.770736</ele>
        <time>2020-09-26T11:07:00.925Z</time>
      </trkpt>
      <trkpt lat="65.44869" lon="21.67616">
        <ele>47.995135</ele>
        <time>2020-09-26T11:08:09.901Z</time>
      </trkpt>
      <trkpt lat="65.44667" lon="21.6786">
        <ele>49.231737</ele>
        <time>2020-09-26T11:09:01.938Z</time>
      </trkpt>
      <trkpt lat="65.44453" lon="21.68122">
        <ele>45.453933</ele>
        <time>2020-09-26T11:09:43.875Z</time>
      </trkpt>
      <trkpt lat="65.4423" lon="21.68339">
        <ele>44.018001</ele>
        <time>2020-09-26T11:10:25.912Z</time>
      </trkpt>
      <trkpt lat="65.44042" lon="21.68571">
        <ele>43.423648</ele>
        <time>2020-09-26T11:11:05.903Z</time>
      </trkpt>
      <trkpt lat="65.4384" lon="21.69037">
        <ele>36.157943</ele>
        <time>2020-09-26T11:11:47.915Z</time>
      </trkpt>
      <trkpt lat="65.43589" lon="21.69031">
        <ele>26.226735</ele>
        <time>2020-09-26T11:12:27.891Z</time>
      </trkpt>
      <trkpt lat="65.43345" lon="21.68965">
        <ele>24.394794</ele>
        <time>2020-09-26T11:13:09.889Z</time>
      </trkpt>
      <trkpt lat="65.43131" lon="21.68885">
        <ele>26.602142</ele>
        <time>2020-09-26T11:13:52.893Z</time>
      </trkpt>
      <trkpt lat="65.42899" lon="21.68782">
        <ele>28.222002</ele>
        <time>2020-09-26T11:14:50.877Z</time>
      </trkpt>
      <trkpt lat="65.4281" lon="21.68295">
        <ele>30.820925</ele>
        <time>2020-09-26T11:15:48.937Z</time>
      </trkpt>
      <trkpt lat="65.42744" lon="21.67769">
        <ele>27.787105</ele>
        <time>2020-09-26T11:16:39.907Z</time>
      </trkpt>
      <trkpt lat="65.42711" lon="21.673">
        <ele>25.100231</ele>
        <time>2020-09-26T11:17:19.931Z</time>
      </trkpt>
      <trkpt lat="65.42735" lon="21.66781">
        <ele>28.61232</ele>
        <time>2020-09-26T11:18:13.898Z</time>
      </trkpt>
      <trkpt lat="65.42821" lon="21.66278">
        <ele>34.471013</ele>
        <time>2020-09-26T11:19:26.895Z</time>
      </trkpt>
      <trkpt lat="65.42938" lon="21.65837">
        <ele>38.909845</ele>
        <time>2020-09-26T11:20:25.894Z</time>
      </trkpt>
      <trkpt lat="65.43065" lon="21.6542">
        <ele>38.821578</ele>
        <time>2020-09-26T11:21:09.893Z</time>
      </trkpt>
      <trkpt lat="65.43153" lon="21.64935">
        <ele>36.996494</ele>
        <time>2020-09-26T11:22:12.928Z</time>
      </trkpt>
      <trkpt lat="65.43166" lon="21.64263">
        <ele>30.467168</ele>
        <time>2020-09-26T11:22:57.912Z</time>
      </trkpt>
      <trkpt lat="65.43204" lon="21.63713">
        <ele>31.33519</ele>
        <time>2020-09-26T11:23:51.895Z</time>
      </trkpt>
      <trkpt lat="65.43387" lon="21.63481">
        <ele>34.979857</ele>
        <time>2020-09-26T11:25:14.893Z</time>
      </trkpt>
      <trkpt lat="65.43306" lon="21.62942">
        <ele>36.980431</ele>
        <time>2020-09-26T11:26:14.898Z</time>
      </trkpt>
      <trkpt lat="65.43234" lon="21.62436">
        <ele>44.68748</ele>
        <time>2020-09-26T11:27:28.938Z</time>
      </trkpt>
      <trkpt lat="65.4318" lon="21.61948">
        <ele>55.261133</ele>
        <time>2020-09-26T11:28:48.903Z</time>
      </trkpt>
      <trkpt lat="65.4314" lon="21.61444">
        <ele>61.897724</ele>
        <time>2020-09-26T11:30:12.924Z</time>
      </trkpt>
      <trkpt lat="65.43117" lon="21.60953">
        <ele>60.84382</ele>
        <time>2020-09-26T11:31:17.914Z</time>
      </trkpt>
      <trkpt lat="65.43107" lon="21.6043">
        <ele>57.520099</ele>
        <time>2020-09-26T11:32:03.918Z</time>
      </trkpt>
      <trkpt lat="65.43094" lon="21.59666">
        <ele>45.378859</ele>
        <time>2020-09-26T11:32:45.914Z</time>
      </trkpt>
      <trkpt lat="65.43035" lon="21.58864">
        <ele>35.003587</ele>
        <time>2020-09-26T11:33:27.915Z</time>
      </trkpt>
      <trkpt lat="65.42952" lon="21.5825">
        <ele>29.899348</ele>
        <time>2020-09-26T11:34:07.926Z</time>
      </trkpt>
      <trkpt lat="65.42851" lon="21.57658">
        <ele>29.102377</ele>
        <time>2020-09-26T11:34:49.926Z</time>
      </trkpt>
      <trkpt lat="65.42796" lon="21.57066">
        <ele>27.376367</ele>
        <time>2020-09-26T11:35:31.911Z</time>
      </trkpt>
      <trkpt lat="65.4284" lon="21.56608">
        <ele>31.546294</ele>
        <time>2020-09-26T11:36:12.906Z</time>
      </trkpt>
      <trkpt lat="65.42895" lon="21.56067">
        <ele>37.643986</ele>
        <time>2020-09-26T11:37:17.915Z</time>
      </trkpt>
      <trkpt lat="65.42944" lon="21.55524">
        <ele>39.988903</ele>
        <time>2020-09-26T11:38:22.908Z</time>
      </trkpt>
      <trkpt lat="65.42999" lon="21.55028">
        <ele>36.241754</ele>
        <time>2020-09-26T11:39:02.900Z</time>
      </trkpt>
      <trkpt lat="65.43074" lon="21.54434">
        <ele>28.018489</ele>
        <time>2020-09-26T11:39:44.908Z</time>
      </trkpt>
      <trkpt lat="65.42982" lon="21.53957">
        <ele>29.224253</ele>
        <time>2020-09-26T11:40:38.928Z</time>
      </trkpt>
      <trkpt lat="65.42861" lon="21.5354">
        <ele>34.751662</ele>
        <time>2020-09-26T11:41:56.889Z</time>
      </trkpt>
      <trkpt lat="65.42678" lon="21.53157">
        <ele>30.470957</ele>
        <time>2020-09-26T11:42:45.909Z</time>
      </trkpt>
      <trkpt lat="65.42484" lon="21.52807">
        <ele>26.215009</ele>
        <time>2020-09-26T11:43:25.917Z</time>
      </trkpt>
      <trkpt lat="65.4227" lon="21.52616">
        <ele>29.037053</ele>
        <time>2020-09-26T11:44:21.912Z</time>
      </trkpt>
      <trkpt lat="65.42017" lon="21.52508">
        <ele>24.850167</ele>
        <time>2020-09-26T11:45:03.911Z</time>
      </trkpt>
      <trkpt lat="65.41824" lon="21.52328">
        <ele>28.490572</ele>
        <time>2020-09-26T11:45:51.913Z</time>
      </trkpt>
      <trkpt lat="65.418" lon="21.51959">
        <ele>29.458993</ele>
        <time>2020-09-26T11:46:50.893Z</time>
      </trkpt>
      <trkpt lat="65.41944" lon="21.51542">
        <ele>28.093611</ele>
        <time>2020-09-26T11:47:35.917Z</time>
      </trkpt>
      <trkpt lat="65.42089" lon="21.51178">
        <ele>32.085342</ele>
        <time>2020-09-26T11:48:35.962Z</time>
      </trkpt>
      <trkpt lat="65.42275" lon="21.50831">
        <ele>30.106603</ele>
        <time>2020-09-26T11:49:26.894Z</time>
      </trkpt>
      <trkpt lat="65.42438" lon="21.50448">
        <ele>31.522842</ele>
        <time>2020-09-26T11:50:29.908Z</time>
      </trkpt>
      <trkpt lat="65.42284" lon="21.50083">
        <ele>29.356513</ele>
        <time>2020-09-26T11:51:11.897Z</time>
      </trkpt>
      <trkpt lat="65.42227" lon="21.49576">
        <ele>31.07779</ele>
        <time>2020-09-26T11:52:10.909Z</time>
      </trkpt>
      <trkpt lat="65.42126" lon="21.49112">
        <ele>34.474809</ele>
        <time>2020-09-26T11:53:22.961Z</time>
      </trkpt>
      <trkpt lat="65.41969" lon="21.48614">
        <ele>27.811432</ele>
        <time>2020-09-26T11:54:01.896Z</time>
      </trkpt>
      <trkpt lat="65.41849" lon="21.48163">
        <ele>25.825463</ele>
        <time>2020-09-26T11:54:43.908Z</time>
      </trkpt>
      <trkpt lat="65.41708" lon="21.4776">
        <ele>29.916845</ele>
        <time>2020-09-26T11:55:37.905Z</time>
      </trkpt>
      <trkpt lat="65.41575" lon="21.47375">
        <ele>34.413338</ele>
        <time>2020-09-26T11:56:51.903Z</time>
      </trkpt>
      <trkpt lat="65.41371" lon="21.4687">
        <ele>24.9956</ele>
        <time>2020-09-26T11:57:31.904Z</time>
      </trkpt>
      <trkpt lat="65.41179" lon="21.46574">
        <ele>24.512127</ele>
        <time>2020-09-26T11:58:11.912Z</time>
      </trkpt>
      <trkpt lat="65.40976" lon="21.46293">
        <ele>24.622005</ele>
        <time>2020-09-26T11:59:00.898Z</time>
      </trkpt>
      <trkpt lat="65.40751" lon="21.46156">
        <ele>29.093972</ele>
        <time>2020-09-26T11:59:55.938Z</time>
      </trkpt>
      <trkpt lat="65.4053" lon="21.46196">
        <ele>31.269255</ele>
        <time>2020-09-26T12:00:49.896Z</time>
      </trkpt>
      <trkpt lat="65.40295" lon="21.46011">
        <ele>32.368715</ele>
        <time>2020-09-26T12:01:52.909Z</time>
      </trkpt>
      <trkpt lat="65.40087" lon="21.45778">
        <ele>32.870334</ele>
        <time>2020-09-26T12:02:43.934Z</time>
      </trkpt>
      <trkpt lat="65.39872" lon="21.45676">
        <ele>35.324634</ele>
        <time>2020-09-26T12:03:24.901Z</time>
      </trkpt>
      <trkpt lat="65.39661" lon="21.45557">
        <ele>38.3444</ele>
        <time>2020-09-26T12:04:32.941Z</time>
      </trkpt>
      <trkpt lat="65.39397" lon="21.45355">
        <ele>30.364314</ele>
        <time>2020-09-26T12:05:16.956Z</time>
      </trkpt>
      <trkpt lat="65.39159" lon="21.44963">
        <ele>25.774214</ele>
        <time>2020-09-26T12:05:56.914Z</time>
      </trkpt>
      <trkpt lat="65.38957" lon="21.44633">
        <ele>26.071986</ele>
        <time>2020-09-26T12:06:38.914Z</time>
      </trkpt>
      <trkpt lat="65.38767" lon="21.44321">
        <ele>25.874792</ele>
        <time>2020-09-26T12:07:20.896Z</time>
      </trkpt>
      <trkpt lat="65.38597" lon="21.44045">
        <ele>27.966356</ele>
        <time>2020-09-26T12:08:00.951Z</time>
      </trkpt>
      <trkpt lat="65.38413" lon="21.43775">
        <ele>31.307985</ele>
        <time>2020-09-26T12:08:46.908Z</time>
      </trkpt>
      <trkpt lat="65.38221" lon="21.43512">
        <ele>40.855434</ele>
        <time>2020-09-26T12:09:49.943Z</time>
      </trkpt>
      <trkpt lat="65.38038" lon="21.43278">
        <ele>42.339513</ele>
        <time>2020-09-26T12:10:49.956Z</time>
      </trkpt>
      <trkpt lat="65.3783" lon="21.43088">
        <ele>36.401086</ele>
        <time>2020-09-26T12:11:38.910Z</time>
      </trkpt>
      <trkpt lat="65.37636" lon="21.4298">
        <ele>33.272242</ele>
        <time>2020-09-26T12:12:18.920Z</time>
      </trkpt>
      <trkpt lat="65.37432" lon="21.42734">
        <ele>32.22237</ele>
        <time>2020-09-26T12:13:00.916Z</time>
      </trkpt>
      <trkpt lat="65.37265" lon="21.42751">
        <ele>38.19791</ele>
        <time>2020-09-26T12:14:05.919Z</time>
      </trkpt>
      <trkpt lat="65.37197" lon="21.43113">
        <ele>37.609045</ele>
        <time>2020-09-26T12:14:54.904Z</time>
      </trkpt>
      <trkpt lat="65.36932" lon="21.43056">
        <ele>31.193348</ele>
        <time>2020-09-26T12:15:36.908Z</time>
      </trkpt>
      <trkpt lat="65.3679" lon="21.42873">
        <ele>26.089388</ele>
        <time>2020-09-26T12:16:27.909Z</time>
      </trkpt>
      <trkpt lat="65.36595" lon="21.42732">
        <ele>28.423297</ele>
        <time>2020-09-26T12:17:08.897Z</time>
      </trkpt>
      <trkpt lat="65.36391" lon="21.42494">
        <ele>31.768013</ele>
        <time>2020-09-26T12:18:20.935Z</time>
      </trkpt>
      <trkpt lat="65.36195" lon="21.42268">
        <ele>29.365051</ele>
        <time>2020-09-26T12:19:23.935Z</time>
      </trkpt>
      <trkpt lat="65.35965" lon="21.42028">
        <ele>24.938725</ele>
        <time>2020-09-26T12:20:03.911Z</time>
      </trkpt>
      <trkpt lat="65.35751" lon="21.4211">
        <ele>28.86687</ele>
        <time>2020-09-26T12:20:54.913Z</time>
      </trkpt>
      <trkpt lat="65.35599" lon="21.42507">
        <ele>32.017006</ele>
        <time>2020-09-26T12:22:07.921Z</time>
      </trkpt>
      <trkpt lat="65.35472" lon="21.42925">
        <ele>30.931874</ele>
        <time>2020-09-26T12:23:07.944Z</time>
      </trkpt>
      <trkpt lat="65.35277" lon="21.43217">
        <ele>28.262422</ele>
        <time>2020-09-26T12:23:57.934Z</time>
      </trkpt>
      <trkpt lat="65.35109" lon="21.43564">
        <ele>33.432872</ele>
        <time>2020-09-26T12:25:06.914Z</time>
      </trkpt>
      <trkpt lat="65.35076" lon="21.44073">
        <ele>35.53788</ele>
        <time>2020-09-26T12:26:09.914Z</time>
      </trkpt>
      <trkpt lat="65.34964" lon="21.44616">
        <ele>30.237814</ele>
        <time>2020-09-26T12:26:51.916Z</time>
      </trkpt>
      <trkpt lat="65.34822" lon="21.45027">
        <ele>37.349983</ele>
        <time>2020-09-26T12:27:38.928Z</time>
      </trkpt>
      <trkpt lat="65.34658" lon="21.45385">
        <ele>50.19947</ele>
        <time>2020-09-26T12:28:48.935Z</time>
      </trkpt>
      <trkpt lat="65.34489" lon="21.45742">
        <ele>47.036575</ele>
        <time>2020-09-26T12:29:53.911Z</time>
      </trkpt>
      <trkpt lat="65.34343" lon="21.46145">
        <ele>42.426071</ele>
        <time>2020-09-26T12:30:42.926Z</time>
      </trkpt>
      <trkpt lat="65.34178" lon="21.46592">
        <ele>32.495695</ele>
        <time>2020-09-26T12:31:28.928Z</time>
      </trkpt>
      <trkpt lat="65.34057" lon="21.47039">
        <ele>32.958917</ele>
        <time>2020-09-26T12:32:31.905Z</time>
      </trkpt>
      <trkpt lat="65.34087" lon="21.47473">
        <ele>24.956106</ele>
        <time>2020-09-26T12:33:16.909Z</time>
      </trkpt>
      <trkpt lat="65.33905" lon="21.47754">
        <ele>26.36599</ele>
        <time>2020-09-26T12:34:15.977Z</time>
      </trkpt>
      <trkpt lat="65.33714" lon="21.48017">
        <ele>27.24814</ele>
        <time>2020-09-26T12:35:06.923Z</time>
      </trkpt>
      <trkpt lat="65.33621" lon="21.48478">
        <ele>26.787977</ele>
        <time>2020-09-26T12:35:59.938Z</time>
      </trkpt>
      <trkpt lat="65.33493" lon="21.48911">
        <ele>28.098664</ele>
        <time>2020-09-26T12:36:57.907Z</time>
      </trkpt>
      <trkpt lat="65.3335" lon="21.49314">
        <ele>24.646293</ele>
        <time>2020-09-26T12:37:45.958Z</time>
      </trkpt>
      <trkpt lat="65.33196" lon="21.49626">
        <ele>25.677767</ele>
        <time>2020-09-26T12:38:27.925Z</time>
      </trkpt>
      <trkpt lat="65.33003" lon="21.49803">
        <ele>30.160588</ele>
        <time>2020-09-26T12:39:11.901Z</time>
      </trkpt>
      <trkpt lat="65.32816" lon="21.49609">
        <ele>32.453995</ele>
        <time>2020-09-26T12:39:55.904Z</time>
      </trkpt>
      <trkpt lat="65.32603" lon="21.49545">
        <ele>31.732193</ele>
        <time>2020-09-26T12:40:45.913Z</time>
      </trkpt>
      <trkpt lat="65.32414" lon="21.49353">
        <ele>32.296865</ele>
        <time>2020-09-26T12:41:30.913Z</time>
      </trkpt>
      <trkpt lat="65.32273" lon="21.48998">
        <ele>29.076274</ele>
        <time>2020-09-26T12:42:16.921Z</time>
      </trkpt>
      <trkpt lat="65.32074" lon="21.4863">
        <ele>32.87477</ele>
        <time>2020-09-26T12:43:18.954Z</time>
      </trkpt>
      <trkpt lat="65.31904" lon="21.48314">
        <ele>36.197744</ele>
        <time>2020-09-26T12:44:28.937Z</time>
      </trkpt>
      <trkpt lat="65.31736" lon="21.48027">
        <ele>40.423442</ele>
        <time>2020-09-26T12:45:46.915Z</time>
      </trkpt>
      <trkpt lat="65.31718" lon="21.4763">
        <ele>55.258582</ele>
        <time>2020-09-26T12:49:03.926Z</time>
      </trkpt>
      <trkpt lat="65.31724" lon="21.47869">
        <ele>121.972168</ele>
        <time>2020-09-26T13:09:43.949Z</time>
      </trkpt>
    </trkseg>
  </trk>
  <trk>
    <name><![CDATA[Tour d'Europe: étape 091]]></name>
    <trkseg>
      <trkpt lat="65.31674" lon="21.47726">
        <ele>73.23655</ele>
        <time>2020-09-27T07:44:53.840Z</time>
      </trkpt>
      <trkpt lat="65.3174" lon="21.473">
        <ele>47.790803</ele>
        <time>2020-09-27T07:47:21.842Z</time>
      </trkpt>
      <trkpt lat="65.31734" lon="21.46829">
        <ele>27.474875</ele>
        <time>2020-09-27T07:48:18.860Z</time>
      </trkpt>
      <trkpt lat="65.31747" lon="21.46369">
        <ele>27.665698</ele>
        <time>2020-09-27T07:48:58.846Z</time>
      </trkpt>
      <trkpt lat="65.3172" lon="21.45888">
        <ele>31.853529</ele>
        <time>2020-09-27T07:49:40.847Z</time>
      </trkpt>
      <trkpt lat="65.31689" lon="21.45326">
        <ele>31.736834</ele>
        <time>2020-09-27T07:50:32.851Z</time>
      </trkpt>
      <trkpt lat="65.31725" lon="21.44791">
        <ele>28.936614</ele>
        <time>2020-09-27T07:51:24.843Z</time>
      </trkpt>
      <trkpt lat="65.31691" lon="21.4427">
        <ele>31.611482</ele>
        <time>2020-09-27T07:52:25.834Z</time>
      </trkpt>
      <trkpt lat="65.317" lon="21.43692">
        <ele>31.679122</ele>
        <time>2020-09-27T07:53:21.836Z</time>
      </trkpt>
      <trkpt lat="65.31689" lon="21.43104">
        <ele>31.107976</ele>
        <time>2020-09-27T07:54:20.844Z</time>
      </trkpt>
      <trkpt lat="65.3162" lon="21.4266">
        <ele>32.545302</ele>
        <time>2020-09-27T07:55:15.837Z</time>
      </trkpt>
      <trkpt lat="65.31474" lon="21.42381">
        <ele>32.880884</ele>
        <time>2020-09-27T07:55:57.843Z</time>
      </trkpt>
      <trkpt lat="65.31355" lon="21.41987">
        <ele>29.029813</ele>
        <time>2020-09-27T07:56:47.831Z</time>
      </trkpt>
      <trkpt lat="65.3123" lon="21.41521">
        <ele>34.444869</ele>
        <time>2020-09-27T07:57:51.844Z</time>
      </trkpt>
      <trkpt lat="65.31067" lon="21.41148">
        <ele>32.941074</ele>
        <time>2020-09-27T07:58:56.865Z</time>
      </trkpt>
      <trkpt lat="65.30839" lon="21.40984">
        <ele>29.945825</ele>
        <time>2020-09-27T07:59:38.843Z</time>
      </trkpt>
      <trkpt lat="65.30712" lon="21.40719">
        <ele>41.601947</ele>
        <time>2020-09-27T08:00:41.850Z</time>
      </trkpt>
      <trkpt lat="65.3052" lon="21.40562">
        <ele>58.215977</ele>
        <time>2020-09-27T08:02:26.846Z</time>
      </trkpt>
      <trkpt lat="65.30314" lon="21.40486">
        <ele>56.122895</ele>
        <time>2020-09-27T08:03:39.879Z</time>
      </trkpt>
      <trkpt lat="65.30177" lon="21.40812">
        <ele>45.630628</ele>
        <time>2020-09-27T08:04:21.854Z</time>
      </trkpt>
      <trkpt lat="65.29975" lon="21.41246">
        <ele>35.599929</ele>
        <time>2020-09-27T08:05:03.842Z</time>
      </trkpt>
      <trkpt lat="65.29724" lon="21.41359">
        <ele>30.147736</ele>
        <time>2020-09-27T08:05:45.872Z</time>
      </trkpt>
      <trkpt lat="65.29519" lon="21.41344">
        <ele>37.833953</ele>
        <time>2020-09-27T08:06:34.868Z</time>
      </trkpt>
      <trkpt lat="65.29291" lon="21.41365">
        <ele>38.989212</ele>
        <time>2020-09-27T08:07:27.828Z</time>
      </trkpt>
      <trkpt lat="65.29064" lon="21.41352">
        <ele>33.616221</ele>
        <time>2020-09-27T08:08:12.829Z</time>
      </trkpt>
      <trkpt lat="65.2883" lon="21.41299">
        <ele>30.837477</ele>
        <time>2020-09-27T08:08:55.839Z</time>
      </trkpt>
      <trkpt lat="65.28629" lon="21.41094">
        <ele>31.950424</ele>
        <time>2020-09-27T08:09:55.831Z</time>
      </trkpt>
      <trkpt lat="65.2842" lon="21.40752">
        <ele>33.659137</ele>
        <time>2020-09-27T08:10:56.828Z</time>
      </trkpt>
      <trkpt lat="65.28205" lon="21.40421">
        <ele>35.509368</ele>
        <time>2020-09-27T08:11:59.843Z</time>
      </trkpt>
      <trkpt lat="65.28038" lon="21.40101">
        <ele>40.402669</ele>
        <time>2020-09-27T08:13:01.848Z</time>
      </trkpt>
      <trkpt lat="65.2789" lon="21.39645">
        <ele>36.165722</ele>
        <time>2020-09-27T08:13:46.846Z</time>
      </trkpt>
      <trkpt lat="65.278" lon="21.39142">
        <ele>37.527017</ele>
        <time>2020-09-27T08:14:36.828Z</time>
      </trkpt>
      <trkpt lat="65.27755" lon="21.38653">
        <ele>38.883104</ele>
        <time>2020-09-27T08:15:44.876Z</time>
      </trkpt>
      <trkpt lat="65.277" lon="21.38148">
        <ele>46.796842</ele>
        <time>2020-09-27T08:16:49.858Z</time>
      </trkpt>
      <trkpt lat="65.2762" lon="21.37636">
        <ele>43.88281</ele>
        <time>2020-09-27T08:17:31.837Z</time>
      </trkpt>
      <trkpt lat="65.27537" lon="21.37166">
        <ele>49.028722</ele>
        <time>2020-09-27T08:18:38.891Z</time>
      </trkpt>
      <trkpt lat="65.27443" lon="21.36693">
        <ele>54.003167</ele>
        <time>2020-09-27T08:19:53.867Z</time>
      </trkpt>
      <trkpt lat="65.27323" lon="21.36175">
        <ele>54.311527</ele>
        <time>2020-09-27T08:20:56.860Z</time>
      </trkpt>
      <trkpt lat="65.27219" lon="21.35719">
        <ele>59.795657</ele>
        <time>2020-09-27T08:21:57.835Z</time>
      </trkpt>
      <trkpt lat="65.27128" lon="21.3525">
        <ele>66.490173</ele>
        <time>2020-09-27T08:23:21.835Z</time>
      </trkpt>
      <trkpt lat="65.27056" lon="21.34799">
        <ele>74.172268</ele>
        <time>2020-09-27T08:24:47.863Z</time>
      </trkpt>
      <trkpt lat="65.26991" lon="21.34317">
        <ele>81.465334</ele>
        <time>2020-09-27T08:26:03.843Z</time>
      </trkpt>
      <trkpt lat="65.26929" lon="21.33802">
        <ele>79.986116</ele>
        <time>2020-09-27T08:27:03.857Z</time>
      </trkpt>
      <trkpt lat="65.26873" lon="21.33219">
        <ele>82.740409</ele>
        <time>2020-09-27T08:28:06.861Z</time>
      </trkpt>
      <trkpt lat="65.26831" lon="21.32724">
        <ele>84.876357</ele>
        <time>2020-09-27T08:29:09.848Z</time>
      </trkpt>
      <trkpt lat="65.26789" lon="21.32217">
        <ele>81.849405</ele>
        <time>2020-09-27T08:30:09.870Z</time>
      </trkpt>
      <trkpt lat="65.26742" lon="21.31648">
        <ele>76.045517</ele>
        <time>2020-09-27T08:30:51.846Z</time>
      </trkpt>
      <trkpt lat="65.26695" lon="21.31105">
        <ele>69.250599</ele>
        <time>2020-09-27T08:31:33.845Z</time>
      </trkpt>
      <trkpt lat="65.26655" lon="21.30583">
        <ele>68.177648</ele>
        <time>2020-09-27T08:32:13.864Z</time>
      </trkpt>
      <trkpt lat="65.26609" lon="21.30047">
        <ele>72.706735</ele>
        <time>2020-09-27T08:33:06.848Z</time>
      </trkpt>
      <trkpt lat="65.26567" lon="21.29531">
        <ele>72.251319</ele>
        <time>2020-09-27T08:33:48.853Z</time>
      </trkpt>
      <trkpt lat="65.26444" lon="21.29269">
        <ele>75.091685</ele>
        <time>2020-09-27T08:34:46.877Z</time>
      </trkpt>
      <trkpt lat="65.26205" lon="21.29402">
        <ele>71.989172</ele>
        <time>2020-09-27T08:35:34.867Z</time>
      </trkpt>
      <trkpt lat="65.25958" lon="21.29368">
        <ele>72.531838</ele>
        <time>2020-09-27T08:36:26.857Z</time>
      </trkpt>
      <trkpt lat="65.25749" lon="21.29343">
        <ele>76.099034</ele>
        <time>2020-09-27T08:37:15.928Z</time>
      </trkpt>
      <trkpt lat="65.25543" lon="21.29447">
        <ele>77.522855</ele>
        <time>2020-09-27T08:38:04.862Z</time>
      </trkpt>
      <trkpt lat="65.25331" lon="21.29461">
        <ele>92.828654</ele>
        <time>2020-09-27T08:39:34.837Z</time>
      </trkpt>
      <trkpt lat="65.25115" lon="21.2935">
        <ele>97.760562</ele>
        <time>2020-09-27T08:40:49.857Z</time>
      </trkpt>
      <trkpt lat="65.24916" lon="21.29269">
        <ele>94.214455</ele>
        <time>2020-09-27T08:41:32.845Z</time>
      </trkpt>
      <trkpt lat="65.24685" lon="21.29201">
        <ele>88.532741</ele>
        <time>2020-09-27T08:42:14.858Z</time>
      </trkpt>
      <trkpt lat="65.24433" lon="21.29163">
        <ele>78.110491</ele>
        <time>2020-09-27T08:42:56.862Z</time>
      </trkpt>
      <trkpt lat="65.24231" lon="21.29144">
        <ele>78.296299</ele>
        <time>2020-09-27T08:43:36.857Z</time>
      </trkpt>
      <trkpt lat="65.24007" lon="21.29127">
        <ele>80.607678</ele>
        <time>2020-09-27T08:44:26.847Z</time>
      </trkpt>
      <trkpt lat="65.23771" lon="21.29149">
        <ele>88.690687</ele>
        <time>2020-09-27T08:45:29.854Z</time>
      </trkpt>
      <trkpt lat="65.23551" lon="21.29243">
        <ele>86.450924</ele>
        <time>2020-09-27T08:46:14.855Z</time>
      </trkpt>
      <trkpt lat="65.23297" lon="21.29423">
        <ele>76.650325</ele>
        <time>2020-09-27T08:46:56.858Z</time>
      </trkpt>
      <trkpt lat="65.23063" lon="21.29543">
        <ele>75.714014</ele>
        <time>2020-09-27T08:47:38.851Z</time>
      </trkpt>
      <trkpt lat="65.2286" lon="21.29512">
        <ele>77.832125</ele>
        <time>2020-09-27T08:48:20.859Z</time>
      </trkpt>
      <trkpt lat="65.22627" lon="21.2932">
        <ele>68.08365</ele>
        <time>2020-09-27T08:49:02.876Z</time>
      </trkpt>
      <trkpt lat="65.22418" lon="21.28972">
        <ele>61.996008</ele>
        <time>2020-09-27T08:49:44.850Z</time>
      </trkpt>
      <trkpt lat="65.22281" lon="21.28569">
        <ele>70.692564</ele>
        <time>2020-09-27T08:50:51.841Z</time>
      </trkpt>
      <trkpt lat="65.22183" lon="21.28131">
        <ele>70.569915</ele>
        <time>2020-09-27T08:51:44.875Z</time>
      </trkpt>
      <trkpt lat="65.22111" lon="21.276">
        <ele>66.728583</ele>
        <time>2020-09-27T08:52:38.854Z</time>
      </trkpt>
      <trkpt lat="65.22039" lon="21.27055">
        <ele>64.45865</ele>
        <time>2020-09-27T08:53:29.883Z</time>
      </trkpt>
      <trkpt lat="65.21975" lon="21.2655">
        <ele>69.058827</ele>
        <time>2020-09-27T08:54:21.861Z</time>
      </trkpt>
      <trkpt lat="65.2191" lon="21.26028">
        <ele>71.733745</ele>
        <time>2020-09-27T08:55:11.876Z</time>
      </trkpt>
      <trkpt lat="65.2183" lon="21.25512">
        <ele>76.99506</ele>
        <time>2020-09-27T08:56:21.862Z</time>
      </trkpt>
      <trkpt lat="65.21738" lon="21.25074">
        <ele>80.805838</ele>
        <time>2020-09-27T08:57:42.882Z</time>
      </trkpt>
      <trkpt lat="65.21642" lon="21.24625">
        <ele>83.454054</ele>
        <time>2020-09-27T08:58:46.842Z</time>
      </trkpt>
      <trkpt lat="65.21537" lon="21.24163">
        <ele>81.515578</ele>
        <time>2020-09-27T08:59:56.863Z</time>
      </trkpt>
      <trkpt lat="65.21444" lon="21.23736">
        <ele>89.656372</ele>
        <time>2020-09-27T09:01:29.860Z</time>
      </trkpt>
      <trkpt lat="65.21345" lon="21.23276">
        <ele>105.118382</ele>
        <time>2020-09-27T09:03:13.898Z</time>
      </trkpt>
      <trkpt lat="65.21246" lon="21.22826">
        <ele>118.66881</ele>
        <time>2020-09-27T09:04:54.871Z</time>
      </trkpt>
      <trkpt lat="65.21152" lon="21.22392">
        <ele>125.901988</ele>
        <time>2020-09-27T09:06:31.894Z</time>
      </trkpt>
      <trkpt lat="65.2105" lon="21.21927">
        <ele>130.052493</ele>
        <time>2020-09-27T09:07:56.871Z</time>
      </trkpt>
      <trkpt lat="65.20955" lon="21.21484">
        <ele>143.144141</ele>
        <time>2020-09-27T09:09:20.850Z</time>
      </trkpt>
      <trkpt lat="65.20857" lon="21.21041">
        <ele>137.622931</ele>
        <time>2020-09-27T09:10:33.872Z</time>
      </trkpt>
      <trkpt lat="65.20742" lon="21.20527">
        <ele>135.507179</ele>
        <time>2020-09-27T09:11:33.859Z</time>
      </trkpt>
      <trkpt lat="65.20631" lon="21.20011">
        <ele>140.978881</ele>
        <time>2020-09-27T09:12:33.879Z</time>
      </trkpt>
      <trkpt lat="65.20525" lon="21.1952">
        <ele>152.150645</ele>
        <time>2020-09-27T09:13:52.859Z</time>
      </trkpt>
      <trkpt lat="65.20428" lon="21.19081">
        <ele>153.293296</ele>
        <time>2020-09-27T09:15:03.891Z</time>
      </trkpt>
      <trkpt lat="65.20333" lon="21.18648">
        <ele>160.674817</ele>
        <time>2020-09-27T09:16:22.885Z</time>
      </trkpt>
      <trkpt lat="65.20253" lon="21.18188">
        <ele>169.856616</ele>
        <time>2020-09-27T09:17:51.864Z</time>
      </trkpt>
      <trkpt lat="65.2025" lon="21.17708">
        <ele>165.170709</ele>
        <time>2020-09-27T09:18:51.866Z</time>
      </trkpt>
      <trkpt lat="65.20237" lon="21.17156">
        <ele>164.009377</ele>
        <time>2020-09-27T09:19:54.865Z</time>
      </trkpt>
      <trkpt lat="65.20181" lon="21.16571">
        <ele>167.63535</ele>
        <time>2020-09-27T09:20:57.900Z</time>
      </trkpt>
      <trkpt lat="65.20127" lon="21.16029">
        <ele>167.342262</ele>
        <time>2020-09-27T09:21:50.861Z</time>
      </trkpt>
      <trkpt lat="65.20074" lon="21.15492">
        <ele>162.341771</ele>
        <time>2020-09-27T09:22:34.874Z</time>
      </trkpt>
      <trkpt lat="65.20019" lon="21.14947">
        <ele>159.222665</ele>
        <time>2020-09-27T09:23:16.851Z</time>
      </trkpt>
      <trkpt lat="65.19969" lon="21.14449">
        <ele>159.316186</ele>
        <time>2020-09-27T09:23:56.876Z</time>
      </trkpt>
      <trkpt lat="65.19921" lon="21.13969">
        <ele>160.104936</ele>
        <time>2020-09-27T09:24:39.869Z</time>
      </trkpt>
      <trkpt lat="65.19871" lon="21.13476">
        <ele>159.272229</ele>
        <time>2020-09-27T09:25:21.876Z</time>
      </trkpt>
      <trkpt lat="65.19821" lon="21.12969">
        <ele>161.165263</ele>
        <time>2020-09-27T09:26:03.876Z</time>
      </trkpt>
      <trkpt lat="65.19768" lon="21.12432">
        <ele>161.052629</ele>
        <time>2020-09-27T09:26:43.893Z</time>
      </trkpt>
      <trkpt lat="65.19708" lon="21.11865">
        <ele>154.853915</ele>
        <time>2020-09-27T09:27:25.851Z</time>
      </trkpt>
      <trkpt lat="65.19653" lon="21.11307">
        <ele>149.341362</ele>
        <time>2020-09-27T09:28:07.893Z</time>
      </trkpt>
      <trkpt lat="65.19605" lon="21.10821">
        <ele>151.884121</ele>
        <time>2020-09-27T09:28:47.896Z</time>
      </trkpt>
      <trkpt lat="65.19549" lon="21.10266">
        <ele>156.564414</ele>
        <time>2020-09-27T09:29:46.890Z</time>
      </trkpt>
      <trkpt lat="65.19492" lon="21.09744">
        <ele>159.082726</ele>
        <time>2020-09-27T09:30:31.898Z</time>
      </trkpt>
      <trkpt lat="65.19398" lon="21.0928">
        <ele>150.013104</ele>
        <time>2020-09-27T09:31:23.856Z</time>
      </trkpt>
      <trkpt lat="65.1929" lon="21.08823">
        <ele>145.879168</ele>
        <time>2020-09-27T09:32:05.865Z</time>
      </trkpt>
      <trkpt lat="65.19194" lon="21.08414">
        <ele>147.893068</ele>
        <time>2020-09-27T09:32:47.855Z</time>
      </trkpt>
      <trkpt lat="65.19085" lon="21.07944">
        <ele>149.420475</ele>
        <time>2020-09-27T09:33:36.864Z</time>
      </trkpt>
      <trkpt lat="65.18968" lon="21.07443">
        <ele>145.940506</ele>
        <time>2020-09-27T09:34:18.850Z</time>
      </trkpt>
      <trkpt lat="65.18856" lon="21.06968">
        <ele>146.83942</ele>
        <time>2020-09-27T09:35:00.876Z</time>
      </trkpt>
      <trkpt lat="65.18732" lon="21.06575">
        <ele>146.229608</ele>
        <time>2020-09-27T09:35:40.887Z</time>
      </trkpt>
      <trkpt lat="65.18582" lon="21.06197">
        <ele>144.990268</ele>
        <time>2020-09-27T09:36:22.875Z</time>
      </trkpt>
      <trkpt lat="65.18428" lon="21.05785">
        <ele>146.324166</ele>
        <time>2020-09-27T09:37:07.872Z</time>
      </trkpt>
      <trkpt lat="65.18314" lon="21.05359">
        <ele>153.784668</ele>
        <time>2020-09-27T09:38:31.866Z</time>
      </trkpt>
      <trkpt lat="65.18166" lon="21.05042">
        <ele>159.698526</ele>
        <time>2020-09-27T09:39:51.856Z</time>
      </trkpt>
      <trkpt lat="65.17968" lon="21.04882">
        <ele>166.103738</ele>
        <time>2020-09-27T09:41:16.905Z</time>
      </trkpt>
      <trkpt lat="65.17768" lon="21.04671">
        <ele>170.682526</ele>
        <time>2020-09-27T09:42:34.869Z</time>
      </trkpt>
      <trkpt lat="65.17558" lon="21.04616">
        <ele>170.231769</ele>
        <time>2020-09-27T09:43:42.897Z</time>
      </trkpt>
      <trkpt lat="65.17354" lon="21.04469">
        <ele>174.842369</ele>
        <time>2020-09-27T09:44:45.869Z</time>
      </trkpt>
      <trkpt lat="65.17161" lon="21.04337">
        <ele>178.925413</ele>
        <time>2020-09-27T09:45:49.880Z</time>
      </trkpt>
      <trkpt lat="65.16961" lon="21.04426">
        <ele>177.375081</ele>
        <time>2020-09-27T09:46:49.867Z</time>
      </trkpt>
      <trkpt lat="65.16742" lon="21.04471">
        <ele>177.014948</ele>
        <time>2020-09-27T09:47:32.884Z</time>
      </trkpt>
      <trkpt lat="65.16505" lon="21.04357">
        <ele>177.562153</ele>
        <time>2020-09-27T09:48:27.866Z</time>
      </trkpt>
      <trkpt lat="65.16248" lon="21.04116">
        <ele>168.688314</ele>
        <time>2020-09-27T09:49:06.878Z</time>
      </trkpt>
      <trkpt lat="65.16049" lon="21.03915">
        <ele>161.65875</ele>
        <time>2020-09-27T09:49:29.885Z</time>
      </trkpt>
      <trkpt lat="65.15769" lon="21.0361">
        <ele>155.854994</ele>
        <time>2020-09-27T09:50:07.879Z</time>
      </trkpt>
      <trkpt lat="65.15479" lon="21.03343">
        <ele>146.429692</ele>
        <time>2020-09-27T09:50:47.927Z</time>
      </trkpt>
      <trkpt lat="65.15222" lon="21.03334">
        <ele>136.586041</ele>
        <time>2020-09-27T09:51:16.882Z</time>
      </trkpt>
      <trkpt lat="65.15081" lon="21.02997">
        <ele>130.519606</ele>
        <time>2020-09-27T09:51:37.867Z</time>
      </trkpt>
      <trkpt lat="65.14859" lon="21.02807">
        <ele>124.74879</ele>
        <time>2020-09-27T09:52:08.882Z</time>
      </trkpt>
      <trkpt lat="65.1463" lon="21.02772">
        <ele>116.991267</ele>
        <time>2020-09-27T09:52:33.888Z</time>
      </trkpt>
      <trkpt lat="65.14395" lon="21.02616">
        <ele>116.512339</ele>
        <time>2020-09-27T09:53:21.874Z</time>
      </trkpt>
      <trkpt lat="65.14134" lon="21.02449">
        <ele>109.948926</ele>
        <time>2020-09-27T09:53:55.919Z</time>
      </trkpt>
      <trkpt lat="65.13915" lon="21.02312">
        <ele>111.749529</ele>
        <time>2020-09-27T09:54:43.876Z</time>
      </trkpt>
      <trkpt lat="65.137" lon="21.02089">
        <ele>112.45634</ele>
        <time>2020-09-27T09:55:26.867Z</time>
      </trkpt>
      <trkpt lat="65.13505" lon="21.01649">
        <ele>106.585846</ele>
        <time>2020-09-27T09:56:11.869Z</time>
      </trkpt>
      <trkpt lat="65.134" lon="21.01429">
        <ele>104.033623</ele>
        <time>2020-09-27T10:25:45.386Z</time>
      </trkpt>
      <trkpt lat="65.13201" lon="21.01231">
        <ele>104.481144</ele>
        <time>2020-09-27T10:26:52.375Z</time>
      </trkpt>
      <trkpt lat="65.12985" lon="21.01363">
        <ele>106.018832</ele>
        <time>2020-09-27T10:27:52.382Z</time>
      </trkpt>
      <trkpt lat="65.12788" lon="21.01483">
        <ele>108.471375</ele>
        <time>2020-09-27T10:28:40.352Z</time>
      </trkpt>
      <trkpt lat="65.1259" lon="21.01604">
        <ele>106.466168</ele>
        <time>2020-09-27T10:29:22.361Z</time>
      </trkpt>
      <trkpt lat="65.12372" lon="21.01757">
        <ele>108.036931</ele>
        <time>2020-09-27T10:30:22.412Z</time>
      </trkpt>
      <trkpt lat="65.12187" lon="21.01944">
        <ele>112.020018</ele>
        <time>2020-09-27T10:31:07.381Z</time>
      </trkpt>
      <trkpt lat="65.11999" lon="21.02131">
        <ele>112.081984</ele>
        <time>2020-09-27T10:31:51.372Z</time>
      </trkpt>
      <trkpt lat="65.11782" lon="21.02358">
        <ele>114.061476</ele>
        <time>2020-09-27T10:32:51.368Z</time>
      </trkpt>
      <trkpt lat="65.11595" lon="21.02699">
        <ele>118.884945</ele>
        <time>2020-09-27T10:33:53.377Z</time>
      </trkpt>
      <trkpt lat="65.11424" lon="21.03083">
        <ele>110.616208</ele>
        <time>2020-09-27T10:34:33.362Z</time>
      </trkpt>
      <trkpt lat="65.1124" lon="21.03491">
        <ele>107.083983</ele>
        <time>2020-09-27T10:35:20.370Z</time>
      </trkpt>
      <trkpt lat="65.11091" lon="21.03827">
        <ele>107.971028</ele>
        <time>2020-09-27T10:36:04.380Z</time>
      </trkpt>
      <trkpt lat="65.10939" lon="21.0417">
        <ele>107.499396</ele>
        <time>2020-09-27T10:36:50.426Z</time>
      </trkpt>
      <trkpt lat="65.10785" lon="21.04516">
        <ele>110.897676</ele>
        <time>2020-09-27T10:37:43.369Z</time>
      </trkpt>
      <trkpt lat="65.10626" lon="21.04871">
        <ele>119.554982</ele>
        <time>2020-09-27T10:39:07.370Z</time>
      </trkpt>
      <trkpt lat="65.10436" lon="21.05026">
        <ele>132.330642</ele>
        <time>2020-09-27T10:40:18.373Z</time>
      </trkpt>
      <trkpt lat="65.10218" lon="21.05177">
        <ele>124.178643</ele>
        <time>2020-09-27T10:41:00.366Z</time>
      </trkpt>
      <trkpt lat="65.10014" lon="21.05556">
        <ele>108.713083</ele>
        <time>2020-09-27T10:41:42.387Z</time>
      </trkpt>
      <trkpt lat="65.09871" lon="21.05934">
        <ele>106.010169</ele>
        <time>2020-09-27T10:42:22.364Z</time>
      </trkpt>
      <trkpt lat="65.09718" lon="21.06349">
        <ele>107.178292</ele>
        <time>2020-09-27T10:43:13.363Z</time>
      </trkpt>
      <trkpt lat="65.09658" lon="21.06912">
        <ele>113.41361</ele>
        <time>2020-09-27T10:44:19.387Z</time>
      </trkpt>
      <trkpt lat="65.0962" lon="21.07428">
        <ele>112.718652</ele>
        <time>2020-09-27T10:45:15.374Z</time>
      </trkpt>
      <trkpt lat="65.09514" lon="21.07886">
        <ele>110.086652</ele>
        <time>2020-09-27T10:46:03.379Z</time>
      </trkpt>
      <trkpt lat="65.09396" lon="21.08368">
        <ele>110.703032</ele>
        <time>2020-09-27T10:47:06.403Z</time>
      </trkpt>
      <trkpt lat="65.09266" lon="21.08882">
        <ele>111.23302</ele>
        <time>2020-09-27T10:48:05.371Z</time>
      </trkpt>
      <trkpt lat="65.09118" lon="21.09197">
        <ele>109.328383</ele>
        <time>2020-09-27T10:48:45.382Z</time>
      </trkpt>
      <trkpt lat="65.08956" lon="21.0952">
        <ele>106.280247</ele>
        <time>2020-09-27T10:49:27.400Z</time>
      </trkpt>
      <trkpt lat="65.08784" lon="21.09861">
        <ele>110.809968</ele>
        <time>2020-09-27T10:50:27.376Z</time>
      </trkpt>
      <trkpt lat="65.08595" lon="21.10182">
        <ele>113.8136</ele>
        <time>2020-09-27T10:51:26.404Z</time>
      </trkpt>
      <trkpt lat="65.08415" lon="21.10486">
        <ele>112.254186</ele>
        <time>2020-09-27T10:52:13.408Z</time>
      </trkpt>
      <trkpt lat="65.08227" lon="21.108">
        <ele>108.281969</ele>
        <time>2020-09-27T10:52:55.379Z</time>
      </trkpt>
      <trkpt lat="65.08036" lon="21.11121">
        <ele>103.841571</ele>
        <time>2020-09-27T10:53:35.389Z</time>
      </trkpt>
      <trkpt lat="65.07833" lon="21.11463">
        <ele>100.968915</ele>
        <time>2020-09-27T10:54:17.374Z</time>
      </trkpt>
      <trkpt lat="65.07636" lon="21.11795">
        <ele>98.582211</ele>
        <time>2020-09-27T10:54:59.386Z</time>
      </trkpt>
      <trkpt lat="65.07455" lon="21.12097">
        <ele>97.055582</ele>
        <time>2020-09-27T10:55:39.376Z</time>
      </trkpt>
      <trkpt lat="65.07259" lon="21.12425">
        <ele>94.278143</ele>
        <time>2020-09-27T10:56:21.411Z</time>
      </trkpt>
      <trkpt lat="65.07058" lon="21.12762">
        <ele>93.188384</ele>
        <time>2020-09-27T10:57:03.398Z</time>
      </trkpt>
      <trkpt lat="65.06878" lon="21.13064">
        <ele>92.303764</ele>
        <time>2020-09-27T10:57:43.371Z</time>
      </trkpt>
      <trkpt lat="65.06681" lon="21.13321">
        <ele>90.722854</ele>
        <time>2020-09-27T10:58:25.375Z</time>
      </trkpt>
      <trkpt lat="65.06489" lon="21.13465">
        <ele>94.598563</ele>
        <time>2020-09-27T10:59:07.403Z</time>
      </trkpt>
      <trkpt lat="65.06274" lon="21.1362">
        <ele>95.901187</ele>
        <time>2020-09-27T10:59:58.406Z</time>
      </trkpt>
      <trkpt lat="65.06062" lon="21.1377">
        <ele>94.615211</ele>
        <time>2020-09-27T11:00:48.368Z</time>
      </trkpt>
      <trkpt lat="65.05869" lon="21.1391">
        <ele>91.686265</ele>
        <time>2020-09-27T11:01:31.383Z</time>
      </trkpt>
      <trkpt lat="65.05635" lon="21.14078">
        <ele>93.477512</ele>
        <time>2020-09-27T11:02:32.386Z</time>
      </trkpt>
      <trkpt lat="65.05413" lon="21.14206">
        <ele>93.144409</ele>
        <time>2020-09-27T11:03:21.388Z</time>
      </trkpt>
      <trkpt lat="65.05184" lon="21.1423">
        <ele>94.823983</ele>
        <time>2020-09-27T11:04:03.417Z</time>
      </trkpt>
      <trkpt lat="65.04953" lon="21.14261">
        <ele>86.859439</ele>
        <time>2020-09-27T11:04:46.373Z</time>
      </trkpt>
      <trkpt lat="65.04704" lon="21.14291">
        <ele>82.644197</ele>
        <time>2020-09-27T11:05:26.401Z</time>
      </trkpt>
      <trkpt lat="65.04474" lon="21.14325">
        <ele>84.321666</ele>
        <time>2020-09-27T11:06:08.407Z</time>
      </trkpt>
      <trkpt lat="65.04261" lon="21.14278">
        <ele>86.478283</ele>
        <time>2020-09-27T11:06:54.372Z</time>
      </trkpt>
      <trkpt lat="65.04042" lon="21.14213">
        <ele>84.557906</ele>
        <time>2020-09-27T11:07:34.395Z</time>
      </trkpt>
      <trkpt lat="65.03839" lon="21.14414">
        <ele>80.855533</ele>
        <time>2020-09-27T11:08:20.403Z</time>
      </trkpt>
      <trkpt lat="65.03663" lon="21.14792">
        <ele>78.951118</ele>
        <time>2020-09-27T11:09:13.375Z</time>
      </trkpt>
      <trkpt lat="65.03504" lon="21.15205">
        <ele>84.765121</ele>
        <time>2020-09-27T11:10:16.402Z</time>
      </trkpt>
      <trkpt lat="65.03315" lon="21.15525">
        <ele>86.244434</ele>
        <time>2020-09-27T11:11:10.446Z</time>
      </trkpt>
      <trkpt lat="65.03095" lon="21.15439">
        <ele>80.886405</ele>
        <time>2020-09-27T11:12:01.383Z</time>
      </trkpt>
      <trkpt lat="65.0288" lon="21.15261">
        <ele>90.01677</ele>
        <time>2020-09-27T11:13:01.405Z</time>
      </trkpt>
      <trkpt lat="65.02644" lon="21.15277">
        <ele>89.243674</ele>
        <time>2020-09-27T11:13:55.390Z</time>
      </trkpt>
      <trkpt lat="65.02427" lon="21.15299">
        <ele>83.879132</ele>
        <time>2020-09-27T11:14:41.407Z</time>
      </trkpt>
      <trkpt lat="65.02216" lon="21.15317">
        <ele>84.371237</ele>
        <time>2020-09-27T11:15:34.428Z</time>
      </trkpt>
      <trkpt lat="65.02013" lon="21.15333">
        <ele>86.364242</ele>
        <time>2020-09-27T11:16:24.399Z</time>
      </trkpt>
      <trkpt lat="65.01781" lon="21.1535">
        <ele>87.16746</ele>
        <time>2020-09-27T11:17:27.386Z</time>
      </trkpt>
      <trkpt lat="65.01569" lon="21.1531">
        <ele>86.650815</ele>
        <time>2020-09-27T11:18:10.396Z</time>
      </trkpt>
      <trkpt lat="65.01321" lon="21.15203">
        <ele>84.091697</ele>
        <time>2020-09-27T11:18:54.386Z</time>
      </trkpt>
      <trkpt lat="65.01086" lon="21.15094">
        <ele>82.747456</ele>
        <time>2020-09-27T11:19:36.394Z</time>
      </trkpt>
      <trkpt lat="65.00795" lon="21.14835">
        <ele>75.932339</ele>
        <time>2020-09-27T11:20:18.403Z</time>
      </trkpt>
      <trkpt lat="65.00578" lon="21.1471">
        <ele>73.757227</ele>
        <time>2020-09-27T11:20:58.396Z</time>
      </trkpt>
      <trkpt lat="65.00337" lon="21.14631">
        <ele>68.709224</ele>
        <time>2020-09-27T11:21:40.427Z</time>
      </trkpt>
      <trkpt lat="65.00079" lon="21.14803">
        <ele>63.70125</ele>
        <time>2020-09-27T11:22:22.395Z</time>
      </trkpt>
      <trkpt lat="64.99907" lon="21.15077">
        <ele>64.845211</ele>
        <time>2020-09-27T11:23:05.388Z</time>
      </trkpt>
      <trkpt lat="64.99731" lon="21.15366">
        <ele>64.94884</ele>
        <time>2020-09-27T11:23:45.397Z</time>
      </trkpt>
      <trkpt lat="64.9959" lon="21.15752">
        <ele>64.548316</ele>
        <time>2020-09-27T11:24:27.396Z</time>
      </trkpt>
      <trkpt lat="64.99416" lon="21.16094">
        <ele>65.364176</ele>
        <time>2020-09-27T11:25:17.454Z</time>
      </trkpt>
      <trkpt lat="64.99215" lon="21.16298">
        <ele>68.366267</ele>
        <time>2020-09-27T11:26:06.425Z</time>
      </trkpt>
      <trkpt lat="64.98943" lon="21.16499">
        <ele>64.539288</ele>
        <time>2020-09-27T11:26:48.414Z</time>
      </trkpt>
      <trkpt lat="64.98743" lon="21.16802">
        <ele>61.517568</ele>
        <time>2020-09-27T11:27:39.406Z</time>
      </trkpt>
      <trkpt lat="64.98587" lon="21.17083">
        <ele>59.758764</ele>
        <time>2020-09-27T11:28:19.409Z</time>
      </trkpt>
      <trkpt lat="64.98385" lon="21.17296">
        <ele>55.453893</ele>
        <time>2020-09-27T11:29:01.405Z</time>
      </trkpt>
      <trkpt lat="64.98125" lon="21.17486">
        <ele>55.922022</ele>
        <time>2020-09-27T11:29:43.401Z</time>
      </trkpt>
      <trkpt lat="64.97924" lon="21.17643">
        <ele>53.742938</ele>
        <time>2020-09-27T11:30:23.435Z</time>
      </trkpt>
      <trkpt lat="64.97704" lon="21.17794">
        <ele>52.80394</ele>
        <time>2020-09-27T11:31:05.414Z</time>
      </trkpt>
      <trkpt lat="64.97473" lon="21.17919">
        <ele>51.483334</ele>
        <time>2020-09-27T11:31:47.401Z</time>
      </trkpt>
      <trkpt lat="64.97222" lon="21.17917">
        <ele>44.966403</ele>
        <time>2020-09-27T11:32:27.402Z</time>
      </trkpt>
      <trkpt lat="64.9697" lon="21.17907">
        <ele>43.44681</ele>
        <time>2020-09-27T11:33:09.418Z</time>
      </trkpt>
      <trkpt lat="64.9671" lon="21.17866">
        <ele>45.046743</ele>
        <time>2020-09-27T11:33:51.419Z</time>
      </trkpt>
      <trkpt lat="64.9649" lon="21.17803">
        <ele>48.226779</ele>
        <time>2020-09-27T12:06:36.290Z</time>
      </trkpt>
      <trkpt lat="64.96253" lon="21.17741">
        <ele>45.519932</ele>
        <time>2020-09-27T12:07:32.243Z</time>
      </trkpt>
      <trkpt lat="64.96095" lon="21.17972">
        <ele>44.031477</ele>
        <time>2020-09-27T12:08:19.247Z</time>
      </trkpt>
      <trkpt lat="64.96001" lon="21.18412">
        <ele>43.710754</ele>
        <time>2020-09-27T12:09:01.261Z</time>
      </trkpt>
      <trkpt lat="64.95912" lon="21.18821">
        <ele>44.783858</ele>
        <time>2020-09-27T12:09:44.261Z</time>
      </trkpt>
      <trkpt lat="64.95795" lon="21.19309">
        <ele>50.350718</ele>
        <time>2020-09-27T12:10:47.273Z</time>
      </trkpt>
      <trkpt lat="64.9562" lon="21.19278">
        <ele>54.684381</ele>
        <time>2020-09-27T12:12:02.262Z</time>
      </trkpt>
      <trkpt lat="64.95455" lon="21.19712">
        <ele>45.245706</ele>
        <time>2020-09-27T12:12:42.247Z</time>
      </trkpt>
      <trkpt lat="64.95294" lon="21.2015">
        <ele>39.730207</ele>
        <time>2020-09-27T12:13:27.250Z</time>
      </trkpt>
      <trkpt lat="64.95153" lon="21.19834">
        <ele>43.303147</ele>
        <time>2020-09-27T12:14:33.241Z</time>
      </trkpt>
      <trkpt lat="64.94955" lon="21.19864">
        <ele>46.903495</ele>
        <time>2020-09-27T12:15:41.271Z</time>
      </trkpt>
      <trkpt lat="64.94724" lon="21.20096">
        <ele>43.51151</ele>
        <time>2020-09-27T12:16:32.273Z</time>
      </trkpt>
      <trkpt lat="64.94477" lon="21.20329">
        <ele>38.12773</ele>
        <time>2020-09-27T12:17:16.353Z</time>
      </trkpt>
      <trkpt lat="64.9425" lon="21.20552">
        <ele>34.212375</ele>
        <time>2020-09-27T12:17:56.263Z</time>
      </trkpt>
      <trkpt lat="64.94063" lon="21.20883">
        <ele>30.92505</ele>
        <time>2020-09-27T12:18:38.266Z</time>
      </trkpt>
      <trkpt lat="64.93905" lon="21.2118">
        <ele>32.815642</ele>
        <time>2020-09-27T12:19:20.253Z</time>
      </trkpt>
      <trkpt lat="64.93743" lon="21.21491">
        <ele>37.903343</ele>
        <time>2020-09-27T12:20:02.266Z</time>
      </trkpt>
      <trkpt lat="64.93581" lon="21.21806">
        <ele>50.220656</ele>
        <time>2020-09-27T12:21:11.243Z</time>
      </trkpt>
      <trkpt lat="64.93416" lon="21.22115">
        <ele>55.001457</ele>
        <time>2020-09-27T12:22:29.251Z</time>
      </trkpt>
      <trkpt lat="64.93242" lon="21.2243">
        <ele>48.412924</ele>
        <time>2020-09-27T12:23:19.253Z</time>
      </trkpt>
      <trkpt lat="64.93043" lon="21.22332">
        <ele>50.782295</ele>
        <time>2020-09-27T12:24:24.269Z</time>
      </trkpt>
      <trkpt lat="64.9284" lon="21.22173">
        <ele>57.507004</ele>
        <time>2020-09-27T12:25:37.273Z</time>
      </trkpt>
      <trkpt lat="64.92652" lon="21.21874">
        <ele>60.413106</ele>
        <time>2020-09-27T12:26:39.259Z</time>
      </trkpt>
      <trkpt lat="64.92412" lon="21.21728">
        <ele>46.581886</ele>
        <time>2020-09-27T12:27:19.294Z</time>
      </trkpt>
      <trkpt lat="64.92151" lon="21.21934">
        <ele>36.426878</ele>
        <time>2020-09-27T12:28:01.253Z</time>
      </trkpt>
      <trkpt lat="64.91918" lon="21.22126">
        <ele>36.106395</ele>
        <time>2020-09-27T12:28:43.275Z</time>
      </trkpt>
      <trkpt lat="64.91769" lon="21.21875">
        <ele>38.949789</ele>
        <time>2020-09-27T12:29:49.244Z</time>
      </trkpt>
      <trkpt lat="64.91569" lon="21.21672">
        <ele>47.412675</ele>
        <time>2020-09-27T12:30:46.258Z</time>
      </trkpt>
      <trkpt lat="64.91342" lon="21.21391">
        <ele>52.092114</ele>
        <time>2020-09-27T12:31:40.253Z</time>
      </trkpt>
      <trkpt lat="64.9117" lon="21.21128">
        <ele>59.793002</ele>
        <time>2020-09-27T12:33:11.249Z</time>
      </trkpt>
      <trkpt lat="64.90963" lon="21.20847">
        <ele>51.983944</ele>
        <time>2020-09-27T12:34:11.255Z</time>
      </trkpt>
      <trkpt lat="64.90705" lon="21.20683">
        <ele>38.779489</ele>
        <time>2020-09-27T12:34:53.262Z</time>
      </trkpt>
      <trkpt lat="64.90464" lon="21.20514">
        <ele>39.193875</ele>
        <time>2020-09-27T12:35:35.266Z</time>
      </trkpt>
      <trkpt lat="64.9027" lon="21.20136">
        <ele>48.579859</ele>
        <time>2020-09-27T12:36:21.256Z</time>
      </trkpt>
      <trkpt lat="64.90095" lon="21.19719">
        <ele>50.433938</ele>
        <time>2020-09-27T12:37:06.258Z</time>
      </trkpt>
      <trkpt lat="64.89937" lon="21.19339">
        <ele>47.168239</ele>
        <time>2020-09-27T12:38:09.247Z</time>
      </trkpt>
      <trkpt lat="64.89766" lon="21.19021">
        <ele>34.580666</ele>
        <time>2020-09-27T12:38:55.324Z</time>
      </trkpt>
      <trkpt lat="64.89598" lon="21.18629">
        <ele>41.665931</ele>
        <time>2020-09-27T12:40:03.283Z</time>
      </trkpt>
      <trkpt lat="64.89441" lon="21.18248">
        <ele>64.657534</ele>
        <time>2020-09-27T12:41:41.292Z</time>
      </trkpt>
      <trkpt lat="64.89275" lon="21.17958">
        <ele>60.578096</ele>
        <time>2020-09-27T12:42:46.294Z</time>
      </trkpt>
      <trkpt lat="64.89035" lon="21.17809">
        <ele>48.926611</ele>
        <time>2020-09-27T12:45:51.272Z</time>
      </trkpt>
      <trkpt lat="64.88855" lon="21.17546">
        <ele>46.090477</ele>
        <time>2020-09-27T12:46:46.255Z</time>
      </trkpt>
      <trkpt lat="64.88725" lon="21.1708">
        <ele>43.549193</ele>
        <time>2020-09-27T12:47:42.280Z</time>
      </trkpt>
      <trkpt lat="64.88681" lon="21.16511">
        <ele>31.410094</ele>
        <time>2020-09-27T12:48:24.262Z</time>
      </trkpt>
      <trkpt lat="64.8864" lon="21.15981">
        <ele>40.937921</ele>
        <time>2020-09-27T12:49:20.304Z</time>
      </trkpt>
      <trkpt lat="64.88533" lon="21.15582">
        <ele>60.411708</ele>
        <time>2020-09-27T12:50:52.285Z</time>
      </trkpt>
      <trkpt lat="64.88407" lon="21.15188">
        <ele>58.692415</ele>
        <time>2020-09-27T12:51:58.294Z</time>
      </trkpt>
      <trkpt lat="64.88269" lon="21.14769">
        <ele>56.630167</ele>
        <time>2020-09-27T12:53:01.276Z</time>
      </trkpt>
      <trkpt lat="64.8821" lon="21.14292">
        <ele>60.221394</ele>
        <time>2020-09-27T12:54:07.305Z</time>
      </trkpt>
      <trkpt lat="64.88193" lon="21.13768">
        <ele>54.406357</ele>
        <time>2020-09-27T12:54:50.249Z</time>
      </trkpt>
      <trkpt lat="64.88093" lon="21.13282">
        <ele>56.157905</ele>
        <time>2020-09-27T12:55:46.301Z</time>
      </trkpt>
      <trkpt lat="64.87979" lon="21.128">
        <ele>60.453145</ele>
        <time>2020-09-27T12:56:49.300Z</time>
      </trkpt>
      <trkpt lat="64.87879" lon="21.12374">
        <ele>70.046408</ele>
        <time>2020-09-27T12:58:08.271Z</time>
      </trkpt>
      <trkpt lat="64.87773" lon="21.11915">
        <ele>65.702637</ele>
        <time>2020-09-27T12:59:01.298Z</time>
      </trkpt>
      <trkpt lat="64.87631" lon="21.11387">
        <ele>53.480835</ele>
        <time>2020-09-27T12:59:39.280Z</time>
      </trkpt>
      <trkpt lat="64.8762" lon="21.10849">
        <ele>53.482121</ele>
        <time>2020-09-27T13:00:32.253Z</time>
      </trkpt>
      <trkpt lat="64.87617" lon="21.10347">
        <ele>58.020102</ele>
        <time>2020-09-27T13:01:18.287Z</time>
      </trkpt>
      <trkpt lat="64.87567" lon="21.09803">
        <ele>51.258054</ele>
        <time>2020-09-27T13:02:11.293Z</time>
      </trkpt>
      <trkpt lat="64.8754" lon="21.09257">
        <ele>52.075521</ele>
        <time>2020-09-27T13:03:04.256Z</time>
      </trkpt>
      <trkpt lat="64.87502" lon="21.08773">
        <ele>53.376452</ele>
        <time>2020-09-27T13:04:09.285Z</time>
      </trkpt>
      <trkpt lat="64.87345" lon="21.08284">
        <ele>41.369278</ele>
        <time>2020-09-27T13:04:40.266Z</time>
      </trkpt>
      <trkpt lat="64.87342" lon="21.07783">
        <ele>35.272167</ele>
        <time>2020-09-27T13:05:20.253Z</time>
      </trkpt>
      <trkpt lat="64.87315" lon="21.07312">
        <ele>33.379797</ele>
        <time>2020-09-27T13:06:02.288Z</time>
      </trkpt>
      <trkpt lat="64.874" lon="21.06845">
        <ele>38.738743</ele>
        <time>2020-09-27T13:07:14.272Z</time>
      </trkpt>
      <trkpt lat="64.87319" lon="21.06348">
        <ele>41.336081</ele>
        <time>2020-09-27T13:08:17.262Z</time>
      </trkpt>
      <trkpt lat="64.87175" lon="21.05957">
        <ele>40.169856</ele>
        <time>2020-09-27T13:09:09.278Z</time>
      </trkpt>
      <trkpt lat="64.87107" lon="21.05469">
        <ele>35.897535</ele>
        <time>2020-09-27T13:09:52.290Z</time>
      </trkpt>
      <trkpt lat="64.87043" lon="21.04889">
        <ele>40.044269</ele>
        <time>2020-09-27T13:10:55.272Z</time>
      </trkpt>
      <trkpt lat="64.86877" lon="21.0455">
        <ele>35.684915</ele>
        <time>2020-09-27T13:11:31.278Z</time>
      </trkpt>
      <trkpt lat="64.8676" lon="21.04058">
        <ele>30.96587</ele>
        <time>2020-09-27T13:12:09.269Z</time>
      </trkpt>
      <trkpt lat="64.86674" lon="21.03566">
        <ele>30.764975</ele>
        <time>2020-09-27T13:12:58.267Z</time>
      </trkpt>
      <trkpt lat="64.86628" lon="21.03069">
        <ele>32.443024</ele>
        <time>2020-09-27T13:13:55.265Z</time>
      </trkpt>
      <trkpt lat="64.86644" lon="21.02589">
        <ele>29.200768</ele>
        <time>2020-09-27T13:14:41.272Z</time>
      </trkpt>
      <trkpt lat="64.86757" lon="21.02169">
        <ele>28.512465</ele>
        <time>2020-09-27T13:15:24.302Z</time>
      </trkpt>
      <trkpt lat="64.86766" lon="21.01725">
        <ele>31.979326</ele>
        <time>2020-09-27T13:16:19.282Z</time>
      </trkpt>
      <trkpt lat="64.86759" lon="21.01311">
        <ele>39.769677</ele>
        <time>2020-09-27T13:17:26.278Z</time>
      </trkpt>
      <trkpt lat="64.86583" lon="21.0107">
        <ele>52.047811</ele>
        <time>2020-09-27T13:19:03.295Z</time>
      </trkpt>
      <trkpt lat="64.86397" lon="21.00887">
        <ele>60.650468</ele>
        <time>2020-09-27T13:20:27.294Z</time>
      </trkpt>
      <trkpt lat="64.86198" lon="21.00706">
        <ele>60.086349</ele>
        <time>2020-09-27T13:21:47.286Z</time>
      </trkpt>
      <trkpt lat="64.85969" lon="21.00855">
        <ele>58.305705</ele>
        <time>2020-09-27T13:22:32.278Z</time>
      </trkpt>
      <trkpt lat="64.85741" lon="21.00604">
        <ele>38.574681</ele>
        <time>2020-09-27T13:23:05.294Z</time>
      </trkpt>
      <trkpt lat="64.85578" lon="21.00295">
        <ele>31.180318</ele>
        <time>2020-09-27T13:23:47.273Z</time>
      </trkpt>
      <trkpt lat="64.85478" lon="20.99855">
        <ele>26.96873</ele>
        <time>2020-09-27T13:24:29.275Z</time>
      </trkpt>
      <trkpt lat="64.85272" lon="20.99634">
        <ele>28.672063</ele>
        <time>2020-09-27T13:25:30.289Z</time>
      </trkpt>
      <trkpt lat="64.85164" lon="20.9921">
        <ele>32.686695</ele>
        <time>2020-09-27T13:26:29.303Z</time>
      </trkpt>
      <trkpt lat="64.85009" lon="20.98822">
        <ele>28.024508</ele>
        <time>2020-09-27T13:27:11.270Z</time>
      </trkpt>
      <trkpt lat="64.84921" lon="20.98371">
        <ele>27.947776</ele>
        <time>2020-09-27T13:27:57.265Z</time>
      </trkpt>
      <trkpt lat="64.8478" lon="20.98064">
        <ele>25.308035</ele>
        <time>2020-09-27T13:28:40.290Z</time>
      </trkpt>
      <trkpt lat="64.84556" lon="20.98043">
        <ele>28.745452</ele>
        <time>2020-09-27T13:29:32.268Z</time>
      </trkpt>
      <trkpt lat="64.84335" lon="20.98171">
        <ele>37.816337</ele>
        <time>2020-09-27T13:30:41.271Z</time>
      </trkpt>
      <trkpt lat="64.8415" lon="20.98336">
        <ele>47.18941</ele>
        <time>2020-09-27T13:32:22.293Z</time>
      </trkpt>
      <trkpt lat="64.83988" lon="20.98515">
        <ele>40.854396</ele>
        <time>2020-09-27T13:33:24.296Z</time>
      </trkpt>
      <trkpt lat="64.83759" lon="20.98426">
        <ele>35.347175</ele>
        <time>2020-09-27T13:34:12.290Z</time>
      </trkpt>
      <trkpt lat="64.83537" lon="20.98503">
        <ele>38.143237</ele>
        <time>2020-09-27T13:35:02.287Z</time>
      </trkpt>
      <trkpt lat="64.83343" lon="20.98765">
        <ele>42.490838</ele>
        <time>2020-09-27T13:35:49.284Z</time>
      </trkpt>
      <trkpt lat="64.8322" lon="20.98798">
        <ele>42.862548</ele>
        <time>2020-09-27T13:52:57.281Z</time>
      </trkpt>
      <trkpt lat="64.83199" lon="20.98466">
        <ele>40.98426</ele>
        <time>2020-09-27T14:00:18.270Z</time>
      </trkpt>
      <trkpt lat="64.83102" lon="20.988">
        <ele>43.682869</ele>
        <time>2020-09-27T14:01:28.283Z</time>
      </trkpt>
      <trkpt lat="64.82856" lon="20.98817">
        <ele>42.950904</ele>
        <time>2020-09-27T14:02:46.290Z</time>
      </trkpt>
      <trkpt lat="64.82663" lon="20.98639">
        <ele>60.310499</ele>
        <time>2020-09-27T14:04:22.293Z</time>
      </trkpt>
      <trkpt lat="64.82539" lon="20.98254">
        <ele>65.207038</ele>
        <time>2020-09-27T14:05:50.293Z</time>
      </trkpt>
      <trkpt lat="64.82376" lon="20.97955">
        <ele>67.183832</ele>
        <time>2020-09-27T14:07:15.275Z</time>
      </trkpt>
      <trkpt lat="64.82189" lon="20.97759">
        <ele>72.839649</ele>
        <time>2020-09-27T14:08:46.319Z</time>
      </trkpt>
      <trkpt lat="64.82019" lon="20.97508">
        <ele>83.270284</ele>
        <time>2020-09-27T14:10:24.273Z</time>
      </trkpt>
      <trkpt lat="64.81821" lon="20.97355">
        <ele>90.444136</ele>
        <time>2020-09-27T14:11:55.285Z</time>
      </trkpt>
      <trkpt lat="64.81598" lon="20.97092">
        <ele>83.959151</ele>
        <time>2020-09-27T14:12:42.293Z</time>
      </trkpt>
      <trkpt lat="64.81414" lon="20.96933">
        <ele>81.506396</ele>
        <time>2020-09-27T14:13:22.281Z</time>
      </trkpt>
      <trkpt lat="64.81208" lon="20.9677">
        <ele>86.072806</ele>
        <time>2020-09-27T14:14:13.295Z</time>
      </trkpt>
      <trkpt lat="64.81001" lon="20.96547">
        <ele>93.448665</ele>
        <time>2020-09-27T14:15:22.296Z</time>
      </trkpt>
      <trkpt lat="64.80833" lon="20.96186">
        <ele>91.092753</ele>
        <time>2020-09-27T14:16:06.303Z</time>
      </trkpt>
      <trkpt lat="64.80697" lon="20.95785">
        <ele>86.483481</ele>
        <time>2020-09-27T14:16:52.294Z</time>
      </trkpt>
      <trkpt lat="64.80444" lon="20.95626">
        <ele>78.076448</ele>
        <time>2020-09-27T14:17:23.324Z</time>
      </trkpt>
      <trkpt lat="64.80264" lon="20.95225">
        <ele>75.596356</ele>
        <time>2020-09-27T14:18:05.298Z</time>
      </trkpt>
      <trkpt lat="64.80078" lon="20.9489">
        <ele>79.744869</ele>
        <time>2020-09-27T14:18:45.295Z</time>
      </trkpt>
      <trkpt lat="64.79865" lon="20.94675">
        <ele>86.664355</ele>
        <time>2020-09-27T14:19:32.306Z</time>
      </trkpt>
      <trkpt lat="64.79605" lon="20.94436">
        <ele>71.295385</ele>
        <time>2020-09-27T14:20:14.327Z</time>
      </trkpt>
      <trkpt lat="64.79375" lon="20.94065">
        <ele>62.005397</ele>
        <time>2020-09-27T14:20:54.286Z</time>
      </trkpt>
      <trkpt lat="64.7918" lon="20.93817">
        <ele>62.534753</ele>
        <time>2020-09-27T14:21:40.285Z</time>
      </trkpt>
      <trkpt lat="64.79009" lon="20.93601">
        <ele>64.990739</ele>
        <time>2020-09-27T14:22:22.285Z</time>
      </trkpt>
      <trkpt lat="64.78848" lon="20.9324">
        <ele>73.693166</ele>
        <time>2020-09-27T14:23:17.305Z</time>
      </trkpt>
      <trkpt lat="64.78643" lon="20.93134">
        <ele>82.070074</ele>
        <time>2020-09-27T14:24:25.300Z</time>
      </trkpt>
      <trkpt lat="64.78464" lon="20.92888">
        <ele>81.8891</ele>
        <time>2020-09-27T14:25:29.277Z</time>
      </trkpt>
      <trkpt lat="64.78324" lon="20.92576">
        <ele>91.189122</ele>
        <time>2020-09-27T14:26:55.285Z</time>
      </trkpt>
      <trkpt lat="64.7811" lon="20.92514">
        <ele>86.230255</ele>
        <time>2020-09-27T14:28:03.294Z</time>
      </trkpt>
      <trkpt lat="64.77886" lon="20.92269">
        <ele>88.739736</ele>
        <time>2020-09-27T14:29:06.288Z</time>
      </trkpt>
      <trkpt lat="64.77687" lon="20.92376">
        <ele>93.796949</ele>
        <time>2020-09-27T14:30:09.288Z</time>
      </trkpt>
      <trkpt lat="64.77476" lon="20.92215">
        <ele>93.693513</ele>
        <time>2020-09-27T14:31:06.302Z</time>
      </trkpt>
      <trkpt lat="64.7731" lon="20.91935">
        <ele>90.677952</ele>
        <time>2020-09-27T14:31:48.325Z</time>
      </trkpt>
      <trkpt lat="64.7708" lon="20.91639">
        <ele>87.985824</ele>
        <time>2020-09-27T14:32:32.297Z</time>
      </trkpt>
      <trkpt lat="64.76959" lon="20.91168">
        <ele>74.818127</ele>
        <time>2020-09-27T14:32:52.329Z</time>
      </trkpt>
      <trkpt lat="64.76813" lon="20.90745">
        <ele>55.312682</ele>
        <time>2020-09-27T14:33:13.289Z</time>
      </trkpt>
      <trkpt lat="64.76624" lon="20.90563">
        <ele>44.079414</ele>
        <time>2020-09-27T14:33:34.320Z</time>
      </trkpt>
      <trkpt lat="64.76419" lon="20.90836">
        <ele>38.643081</ele>
        <time>2020-09-27T14:34:11.303Z</time>
      </trkpt>
      <trkpt lat="64.76264" lon="20.91215">
        <ele>38.024843</ele>
        <time>2020-09-27T14:35:18.324Z</time>
      </trkpt>
      <trkpt lat="64.76086" lon="20.91573">
        <ele>39.317886</ele>
        <time>2020-09-27T14:36:25.288Z</time>
      </trkpt>
      <trkpt lat="64.75978" lon="20.92069">
        <ele>40.43116</ele>
        <time>2020-09-27T14:37:25.315Z</time>
      </trkpt>
      <trkpt lat="64.7591" lon="20.92546">
        <ele>43.238604</ele>
        <time>2020-09-27T14:38:15.293Z</time>
      </trkpt>
      <trkpt lat="64.75941" lon="20.92992">
        <ele>43.447643</ele>
        <time>2020-09-27T14:39:59.302Z</time>
      </trkpt>
      <trkpt lat="64.76052" lon="20.93393">
        <ele>48.780677</ele>
        <time>2020-09-27T14:41:05.333Z</time>
      </trkpt>
      <trkpt lat="64.76116" lon="20.93858">
        <ele>63.807014</ele>
        <time>2020-09-27T14:42:49.292Z</time>
      </trkpt>
      <trkpt lat="64.76105" lon="20.94314">
        <ele>86.688883</ele>
        <time>2020-09-27T14:45:06.336Z</time>
      </trkpt>
      <trkpt lat="64.76078" lon="20.94809">
        <ele>84.390147</ele>
        <time>2020-09-27T14:46:03.284Z</time>
      </trkpt>
      <trkpt lat="64.75943" lon="20.95125">
        <ele>70.302154</ele>
        <time>2020-09-27T14:47:24.296Z</time>
      </trkpt>
      <trkpt lat="64.75852" lon="20.95639">
        <ele>59.061771</ele>
        <time>2020-09-27T14:48:06.304Z</time>
      </trkpt>
      <trkpt lat="64.75822" lon="20.96117">
        <ele>58.382842</ele>
        <time>2020-09-27T14:49:06.293Z</time>
      </trkpt>
      <trkpt lat="64.75872" lon="20.96579">
        <ele>58.231913</ele>
        <time>2020-09-27T14:50:15.309Z</time>
      </trkpt>
      <trkpt lat="64.75999" lon="20.96998">
        <ele>65.700077</ele>
        <time>2020-09-27T14:51:49.289Z</time>
      </trkpt>
      <trkpt lat="64.76095" lon="20.97362">
        <ele>64.613283</ele>
        <time>2020-09-27T14:53:05.299Z</time>
      </trkpt>
    </trkseg>
  </trk>
  <trk>
    <name><![CDATA[Tour d'Europe: étape 092]]></name>
    <trkseg>
      <trkpt lat="64.76123" lon="20.97437">
        <ele>71.919678</ele>
        <time>2020-09-28T10:04:03.561Z</time>
      </trkpt>
      <trkpt lat="64.76003" lon="20.97028">
        <ele>62.743485</ele>
        <time>2020-09-28T10:04:41.562Z</time>
      </trkpt>
      <trkpt lat="64.75846" lon="20.96517">
        <ele>55.913457</ele>
        <time>2020-09-28T10:05:33.573Z</time>
      </trkpt>
      <trkpt lat="64.75731" lon="20.96342">
        <ele>55.931252</ele>
        <time>2020-09-28T10:06:34.552Z</time>
      </trkpt>
      <trkpt lat="64.75604" lon="20.96557">
        <ele>57.906542</ele>
        <time>2020-09-28T10:07:39.559Z</time>
      </trkpt>
      <trkpt lat="64.75398" lon="20.96382">
        <ele>53.871998</ele>
        <time>2020-09-28T10:08:26.569Z</time>
      </trkpt>
      <trkpt lat="64.75302" lon="20.96687">
        <ele>51.552985</ele>
        <time>2020-09-28T10:09:40.561Z</time>
      </trkpt>
      <trkpt lat="64.75316" lon="20.96519">
        <ele>50.366354</ele>
        <time>2020-09-28T10:11:37.566Z</time>
      </trkpt>
      <trkpt lat="64.75369" lon="20.96037">
        <ele>46.252003</ele>
        <time>2020-09-28T10:12:32.601Z</time>
      </trkpt>
      <trkpt lat="64.75185" lon="20.96093">
        <ele>41.853565</ele>
        <time>2020-09-28T10:13:13.546Z</time>
      </trkpt>
      <trkpt lat="64.74958" lon="20.96015">
        <ele>41.865139</ele>
        <time>2020-09-28T10:13:59.570Z</time>
      </trkpt>
      <trkpt lat="64.7474" lon="20.95972">
        <ele>40.168411</ele>
        <time>2020-09-28T10:14:56.571Z</time>
      </trkpt>
      <trkpt lat="64.74519" lon="20.95921">
        <ele>37.432247</ele>
        <time>2020-09-28T10:15:46.598Z</time>
      </trkpt>
      <trkpt lat="64.7431" lon="20.95988">
        <ele>40.59947</ele>
        <time>2020-09-28T10:16:35.562Z</time>
      </trkpt>
      <trkpt lat="64.74101" lon="20.96156">
        <ele>38.64042</ele>
        <time>2020-09-28T10:17:32.600Z</time>
      </trkpt>
      <trkpt lat="64.73873" lon="20.96092">
        <ele>41.610529</ele>
        <time>2020-09-28T10:18:35.563Z</time>
      </trkpt>
      <trkpt lat="64.73672" lon="20.95915">
        <ele>45.784488</ele>
        <time>2020-09-28T10:19:33.558Z</time>
      </trkpt>
      <trkpt lat="64.73475" lon="20.95669">
        <ele>51.606278</ele>
        <time>2020-09-28T10:20:42.608Z</time>
      </trkpt>
      <trkpt lat="64.73285" lon="20.95504">
        <ele>51.499628</ele>
        <time>2020-09-28T10:21:40.545Z</time>
      </trkpt>
      <trkpt lat="64.73111" lon="20.95224">
        <ele>62.569791</ele>
        <time>2020-09-28T10:23:02.579Z</time>
      </trkpt>
      <trkpt lat="64.72922" lon="20.95083">
        <ele>77.594651</ele>
        <time>2020-09-28T10:24:44.565Z</time>
      </trkpt>
      <trkpt lat="64.72714" lon="20.95023">
        <ele>78.378781</ele>
        <time>2020-09-28T10:26:10.560Z</time>
      </trkpt>
      <trkpt lat="64.72499" lon="20.94968">
        <ele>80.192982</ele>
        <time>2020-09-28T10:27:21.562Z</time>
      </trkpt>
      <trkpt lat="64.72274" lon="20.94903">
        <ele>78.866541</ele>
        <time>2020-09-28T10:28:15.574Z</time>
      </trkpt>
      <trkpt lat="64.72041" lon="20.94881">
        <ele>83.845073</ele>
        <time>2020-09-28T10:29:15.579Z</time>
      </trkpt>
      <trkpt lat="64.7183" lon="20.9495">
        <ele>92.209098</ele>
        <time>2020-09-28T10:30:25.554Z</time>
      </trkpt>
      <trkpt lat="64.7164" lon="20.95025">
        <ele>93.690093</ele>
        <time>2020-09-28T10:31:25.585Z</time>
      </trkpt>
      <trkpt lat="64.71417" lon="20.95048">
        <ele>95.800364</ele>
        <time>2020-09-28T10:32:25.576Z</time>
      </trkpt>
      <trkpt lat="64.71208" lon="20.94962">
        <ele>95.938038</ele>
        <time>2020-09-28T10:33:08.601Z</time>
      </trkpt>
      <trkpt lat="64.70999" lon="20.94771">
        <ele>96.226032</ele>
        <time>2020-09-28T10:33:50.607Z</time>
      </trkpt>
      <trkpt lat="64.70797" lon="20.94464">
        <ele>101.653475</ele>
        <time>2020-09-28T10:34:48.577Z</time>
      </trkpt>
      <trkpt lat="64.70588" lon="20.94208">
        <ele>101.610781</ele>
        <time>2020-09-28T10:35:44.582Z</time>
      </trkpt>
      <trkpt lat="64.70395" lon="20.94128">
        <ele>98.495099</ele>
        <time>2020-09-28T10:36:24.575Z</time>
      </trkpt>
      <trkpt lat="64.70192" lon="20.94115">
        <ele>99.090172</ele>
        <time>2020-09-28T10:37:07.573Z</time>
      </trkpt>
      <trkpt lat="64.70001" lon="20.9417">
        <ele>99.573644</ele>
        <time>2020-09-28T10:37:47.561Z</time>
      </trkpt>
      <trkpt lat="64.69774" lon="20.94248">
        <ele>102.48428</ele>
        <time>2020-09-28T10:38:44.584Z</time>
      </trkpt>
      <trkpt lat="64.6954" lon="20.94246">
        <ele>106.530641</ele>
        <time>2020-09-28T10:39:44.561Z</time>
      </trkpt>
      <trkpt lat="64.69321" lon="20.94239">
        <ele>104.749494</ele>
        <time>2020-09-28T10:40:29.549Z</time>
      </trkpt>
      <trkpt lat="64.69052" lon="20.9424">
        <ele>98.911971</ele>
        <time>2020-09-28T10:41:09.575Z</time>
      </trkpt>
      <trkpt lat="64.68824" lon="20.94236">
        <ele>97.781218</ele>
        <time>2020-09-28T10:41:49.569Z</time>
      </trkpt>
      <trkpt lat="64.68604" lon="20.94238">
        <ele>101.308447</ele>
        <time>2020-09-28T10:42:37.561Z</time>
      </trkpt>
      <trkpt lat="64.68375" lon="20.94359">
        <ele>99.326388</ele>
        <time>2020-09-28T10:43:28.568Z</time>
      </trkpt>
      <trkpt lat="64.68103" lon="20.94531">
        <ele>90.54583</ele>
        <time>2020-09-28T10:44:08.559Z</time>
      </trkpt>
      <trkpt lat="64.67904" lon="20.94588">
        <ele>83.237784</ele>
        <time>2020-09-28T10:44:29.576Z</time>
      </trkpt>
      <trkpt lat="64.67646" lon="20.94681">
        <ele>75.378061</ele>
        <time>2020-09-28T10:45:01.587Z</time>
      </trkpt>
      <trkpt lat="64.67425" lon="20.94755">
        <ele>77.072681</ele>
        <time>2020-09-28T10:45:41.595Z</time>
      </trkpt>
      <trkpt lat="64.67212" lon="20.94826">
        <ele>79.937953</ele>
        <time>2020-09-28T10:46:21.604Z</time>
      </trkpt>
      <trkpt lat="64.67003" lon="20.94898">
        <ele>80.839228</ele>
        <time>2020-09-28T10:47:07.592Z</time>
      </trkpt>
      <trkpt lat="64.66763" lon="20.94981">
        <ele>85.44267</ele>
        <time>2020-09-28T10:48:10.582Z</time>
      </trkpt>
      <trkpt lat="64.66545" lon="20.9506">
        <ele>83.6938</ele>
        <time>2020-09-28T10:48:58.598Z</time>
      </trkpt>
      <trkpt lat="64.66431" lon="20.95586">
        <ele>76.506274</ele>
        <time>2020-09-28T10:49:38.570Z</time>
      </trkpt>
      <trkpt lat="64.66263" lon="20.95976">
        <ele>71.777909</ele>
        <time>2020-09-28T10:50:18.566Z</time>
      </trkpt>
      <trkpt lat="64.661" lon="20.96353">
        <ele>68.536969</ele>
        <time>2020-09-28T10:51:01.572Z</time>
      </trkpt>
      <trkpt lat="64.6595" lon="20.96823">
        <ele>67.469619</ele>
        <time>2020-09-28T10:51:41.560Z</time>
      </trkpt>
      <trkpt lat="64.65836" lon="20.97234">
        <ele>70.29193</ele>
        <time>2020-09-28T10:52:24.576Z</time>
      </trkpt>
      <trkpt lat="64.65719" lon="20.97642">
        <ele>74.441957</ele>
        <time>2020-09-28T10:53:04.583Z</time>
      </trkpt>
      <trkpt lat="64.6561" lon="20.98066">
        <ele>74.592841</ele>
        <time>2020-09-28T10:53:47.580Z</time>
      </trkpt>
      <trkpt lat="64.65496" lon="20.98478">
        <ele>72.208573</ele>
        <time>2020-09-28T10:54:31.594Z</time>
      </trkpt>
      <trkpt lat="64.65364" lon="20.98841">
        <ele>71.447051</ele>
        <time>2020-09-28T10:55:11.599Z</time>
      </trkpt>
      <trkpt lat="64.65199" lon="20.99117">
        <ele>72.193627</ele>
        <time>2020-09-28T10:55:51.562Z</time>
      </trkpt>
      <trkpt lat="64.65011" lon="20.9934">
        <ele>65.668126</ele>
        <time>2020-09-28T10:56:33.595Z</time>
      </trkpt>
      <trkpt lat="64.64825" lon="20.99551">
        <ele>70.250829</ele>
        <time>2020-09-28T10:57:27.599Z</time>
      </trkpt>
      <trkpt lat="64.6463" lon="20.99776">
        <ele>74.988757</ele>
        <time>2020-09-28T10:58:14.578Z</time>
      </trkpt>
      <trkpt lat="64.6444" lon="20.99994">
        <ele>68.854698</ele>
        <time>2020-09-28T10:58:54.591Z</time>
      </trkpt>
      <trkpt lat="64.64247" lon="21.00217">
        <ele>73.398978</ele>
        <time>2020-09-28T10:59:56.573Z</time>
      </trkpt>
      <trkpt lat="64.64053" lon="21.0044">
        <ele>71.687358</ele>
        <time>2020-09-28T11:00:45.598Z</time>
      </trkpt>
      <trkpt lat="64.6383" lon="21.00691">
        <ele>65.404753</ele>
        <time>2020-09-28T11:01:25.575Z</time>
      </trkpt>
      <trkpt lat="64.6363" lon="21.00927">
        <ele>63.370769</ele>
        <time>2020-09-28T11:02:05.590Z</time>
      </trkpt>
      <trkpt lat="64.63451" lon="21.01252">
        <ele>75.201258</ele>
        <time>2020-09-28T11:03:15.607Z</time>
      </trkpt>
      <trkpt lat="64.6337" lon="21.01746">
        <ele>71.440206</ele>
        <time>2020-09-28T11:04:06.565Z</time>
      </trkpt>
      <trkpt lat="64.63341" lon="21.02315">
        <ele>64.904586</ele>
        <time>2020-09-28T11:04:46.608Z</time>
      </trkpt>
      <trkpt lat="64.63311" lon="21.02823">
        <ele>65.115968</ele>
        <time>2020-09-28T11:05:28.601Z</time>
      </trkpt>
      <trkpt lat="64.63206" lon="21.03233">
        <ele>63.984495</ele>
        <time>2020-09-28T11:06:09.594Z</time>
      </trkpt>
      <trkpt lat="64.63089" lon="21.03587">
        <ele>63.750055</ele>
        <time>2020-09-28T11:06:50.600Z</time>
      </trkpt>
      <trkpt lat="64.62973" lon="21.03951">
        <ele>63.508005</ele>
        <time>2020-09-28T11:07:31.573Z</time>
      </trkpt>
      <trkpt lat="64.62836" lon="21.04374">
        <ele>66.545062</ele>
        <time>2020-09-28T11:08:34.564Z</time>
      </trkpt>
      <trkpt lat="64.62693" lon="21.04808">
        <ele>68.219357</ele>
        <time>2020-09-28T11:09:29.583Z</time>
      </trkpt>
      <trkpt lat="64.6257" lon="21.05189">
        <ele>68.309171</ele>
        <time>2020-09-28T11:10:14.571Z</time>
      </trkpt>
      <trkpt lat="64.62443" lon="21.05581">
        <ele>71.557869</ele>
        <time>2020-09-28T11:11:00.577Z</time>
      </trkpt>
      <trkpt lat="64.62268" lon="21.05912">
        <ele>72.489972</ele>
        <time>2020-09-28T11:11:46.562Z</time>
      </trkpt>
      <trkpt lat="64.62063" lon="21.06246">
        <ele>66.811881</ele>
        <time>2020-09-28T11:12:26.590Z</time>
      </trkpt>
      <trkpt lat="64.61889" lon="21.06531">
        <ele>66.129068</ele>
        <time>2020-09-28T11:13:06.581Z</time>
      </trkpt>
      <trkpt lat="64.61714" lon="21.06824">
        <ele>77.668852</ele>
        <time>2020-09-28T11:14:04.570Z</time>
      </trkpt>
      <trkpt lat="64.61531" lon="21.07131">
        <ele>83.270572</ele>
        <time>2020-09-28T11:15:07.596Z</time>
      </trkpt>
      <trkpt lat="64.61354" lon="21.07407">
        <ele>83.801201</ele>
        <time>2020-09-28T11:16:14.590Z</time>
      </trkpt>
      <trkpt lat="64.61176" lon="21.07689">
        <ele>90.92792</ele>
        <time>2020-09-28T11:17:05.583Z</time>
      </trkpt>
      <trkpt lat="64.60984" lon="21.07964">
        <ele>93.95046</ele>
        <time>2020-09-28T11:17:56.576Z</time>
      </trkpt>
      <trkpt lat="64.60771" lon="21.08175">
        <ele>92.496899</ele>
        <time>2020-09-28T11:18:52.592Z</time>
      </trkpt>
      <trkpt lat="64.60571" lon="21.08366">
        <ele>91.003165</ele>
        <time>2020-09-28T11:19:53.574Z</time>
      </trkpt>
      <trkpt lat="64.6034" lon="21.08535">
        <ele>81.923772</ele>
        <time>2020-09-28T11:20:34.582Z</time>
      </trkpt>
      <trkpt lat="64.60122" lon="21.08682">
        <ele>75.821286</ele>
        <time>2020-09-28T11:21:14.574Z</time>
      </trkpt>
      <trkpt lat="64.59889" lon="21.08843">
        <ele>75.839367</ele>
        <time>2020-09-28T11:22:10.588Z</time>
      </trkpt>
      <trkpt lat="64.59669" lon="21.08996">
        <ele>79.527151</ele>
        <time>2020-09-28T11:23:03.602Z</time>
      </trkpt>
      <trkpt lat="64.59466" lon="21.09124">
        <ele>79.475197</ele>
        <time>2020-09-28T11:23:50.601Z</time>
      </trkpt>
      <trkpt lat="64.59221" lon="21.09247">
        <ele>70.943628</ele>
        <time>2020-09-28T11:24:30.568Z</time>
      </trkpt>
      <trkpt lat="64.5899" lon="21.09364">
        <ele>68.078516</ele>
        <time>2020-09-28T11:25:12.631Z</time>
      </trkpt>
      <trkpt lat="64.58784" lon="21.09467">
        <ele>66.881285</ele>
        <time>2020-09-28T11:25:52.575Z</time>
      </trkpt>
      <trkpt lat="64.58587" lon="21.09566">
        <ele>70.275432</ele>
        <time>2020-09-28T11:26:35.579Z</time>
      </trkpt>
      <trkpt lat="64.58347" lon="21.09688">
        <ele>67.226966</ele>
        <time>2020-09-28T11:27:15.571Z</time>
      </trkpt>
      <trkpt lat="64.58135" lon="21.09798">
        <ele>66.79913</ele>
        <time>2020-09-28T11:28:00.578Z</time>
      </trkpt>
      <trkpt lat="64.57938" lon="21.09896">
        <ele>67.719221</ele>
        <time>2020-09-28T11:28:40.577Z</time>
      </trkpt>
      <trkpt lat="64.5773" lon="21.09997">
        <ele>65.169581</ele>
        <time>2020-09-28T11:29:20.578Z</time>
      </trkpt>
      <trkpt lat="64.57482" lon="21.10105">
        <ele>63.21702</ele>
        <time>2020-09-28T11:30:20.579Z</time>
      </trkpt>
      <trkpt lat="64.57271" lon="21.10188">
        <ele>66.264943</ele>
        <time>2020-09-28T11:31:20.580Z</time>
      </trkpt>
      <trkpt lat="64.57065" lon="21.10278">
        <ele>68.891846</ele>
        <time>2020-09-28T11:32:07.575Z</time>
      </trkpt>
      <trkpt lat="64.56837" lon="21.10371">
        <ele>69.485595</ele>
        <time>2020-09-28T11:33:03.570Z</time>
      </trkpt>
      <trkpt lat="64.56601" lon="21.10399">
        <ele>66.844596</ele>
        <time>2020-09-28T11:33:51.572Z</time>
      </trkpt>
      <trkpt lat="64.56392" lon="21.10395">
        <ele>65.70386</ele>
        <time>2020-09-28T11:34:35.571Z</time>
      </trkpt>
      <trkpt lat="64.56185" lon="21.10387">
        <ele>73.021001</ele>
        <time>2020-09-28T11:35:37.603Z</time>
      </trkpt>
      <trkpt lat="64.55971" lon="21.1036">
        <ele>74.073635</ele>
        <time>2020-09-28T11:36:34.671Z</time>
      </trkpt>
      <trkpt lat="64.55731" lon="21.10319">
        <ele>78.278603</ele>
        <time>2020-09-28T11:37:37.572Z</time>
      </trkpt>
      <trkpt lat="64.55505" lon="21.10285">
        <ele>81.257036</ele>
        <time>2020-09-28T11:38:39.602Z</time>
      </trkpt>
      <trkpt lat="64.55304" lon="21.10254">
        <ele>95.959126</ele>
        <time>2020-09-28T11:40:06.570Z</time>
      </trkpt>
      <trkpt lat="64.55103" lon="21.10221">
        <ele>105.913077</ele>
        <time>2020-09-28T11:41:40.583Z</time>
      </trkpt>
      <trkpt lat="64.54887" lon="21.10184">
        <ele>109.48305</ele>
        <time>2020-09-28T11:43:00.581Z</time>
      </trkpt>
      <trkpt lat="64.54678" lon="21.10113">
        <ele>102.058738</ele>
        <time>2020-09-28T11:43:40.616Z</time>
      </trkpt>
      <trkpt lat="64.54439" lon="21.09826">
        <ele>93.607855</ele>
        <time>2020-09-28T11:44:20.572Z</time>
      </trkpt>
      <trkpt lat="64.54232" lon="21.09568">
        <ele>89.14389</ele>
        <time>2020-09-28T11:45:00.602Z</time>
      </trkpt>
      <trkpt lat="64.53969" lon="21.09374">
        <ele>81.930417</ele>
        <time>2020-09-28T11:45:39.568Z</time>
      </trkpt>
      <trkpt lat="64.5373" lon="21.09213">
        <ele>81.401748</ele>
        <time>2020-09-28T11:46:23.601Z</time>
      </trkpt>
      <trkpt lat="64.53513" lon="21.09065">
        <ele>91.876117</ele>
        <time>2020-09-28T11:47:26.604Z</time>
      </trkpt>
      <trkpt lat="64.5331" lon="21.08919">
        <ele>103.728011</ele>
        <time>2020-09-28T11:48:48.583Z</time>
      </trkpt>
      <trkpt lat="64.53108" lon="21.08787">
        <ele>111.741218</ele>
        <time>2020-09-28T11:50:13.581Z</time>
      </trkpt>
      <trkpt lat="64.52899" lon="21.08586">
        <ele>105.183548</ele>
        <time>2020-09-28T11:51:07.594Z</time>
      </trkpt>
      <trkpt lat="64.527" lon="21.0838">
        <ele>108.563175</ele>
        <time>2020-09-28T11:52:10.580Z</time>
      </trkpt>
      <trkpt lat="64.52517" lon="21.0819">
        <ele>113.276414</ele>
        <time>2020-09-28T11:53:21.579Z</time>
      </trkpt>
      <trkpt lat="64.52325" lon="21.07983">
        <ele>114.301343</ele>
        <time>2020-09-28T11:54:34.613Z</time>
      </trkpt>
      <trkpt lat="64.5212" lon="21.07624">
        <ele>107.635417</ele>
        <time>2020-09-28T11:55:14.608Z</time>
      </trkpt>
      <trkpt lat="64.51941" lon="21.07305">
        <ele>101.457354</ele>
        <time>2020-09-28T11:55:56.590Z</time>
      </trkpt>
      <trkpt lat="64.51761" lon="21.0699">
        <ele>101.88067</ele>
        <time>2020-09-28T11:56:47.592Z</time>
      </trkpt>
      <trkpt lat="64.51589" lon="21.0668">
        <ele>103.238048</ele>
        <time>2020-09-28T11:57:37.582Z</time>
      </trkpt>
      <trkpt lat="64.51414" lon="21.06399">
        <ele>109.297948</ele>
        <time>2020-09-28T11:58:41.595Z</time>
      </trkpt>
      <trkpt lat="64.51216" lon="21.06226">
        <ele>107.853592</ele>
        <time>2020-09-28T11:59:44.590Z</time>
      </trkpt>
      <trkpt lat="64.5096" lon="21.06013">
        <ele>101.094055</ele>
        <time>2020-09-28T12:00:29.615Z</time>
      </trkpt>
      <trkpt lat="64.50765" lon="21.05874">
        <ele>111.576889</ele>
        <time>2020-09-28T12:01:53.583Z</time>
      </trkpt>
      <trkpt lat="64.50566" lon="21.05758">
        <ele>115.835774</ele>
        <time>2020-09-28T12:03:02.675Z</time>
      </trkpt>
      <trkpt lat="64.50353" lon="21.05645">
        <ele>118.969811</ele>
        <time>2020-09-28T12:03:48.603Z</time>
      </trkpt>
      <trkpt lat="64.50131" lon="21.05518">
        <ele>113.738817</ele>
        <time>2020-09-28T12:04:30.610Z</time>
      </trkpt>
      <trkpt lat="64.49924" lon="21.05404">
        <ele>115.668434</ele>
        <time>2020-09-28T12:05:12.614Z</time>
      </trkpt>
      <trkpt lat="64.49685" lon="21.05267">
        <ele>112.788712</ele>
        <time>2020-09-28T12:05:53.593Z</time>
      </trkpt>
      <trkpt lat="64.49468" lon="21.05145">
        <ele>109.815221</ele>
        <time>2020-09-28T12:06:34.609Z</time>
      </trkpt>
      <trkpt lat="64.49231" lon="21.05014">
        <ele>114.371265</ele>
        <time>2020-09-28T12:07:34.580Z</time>
      </trkpt>
      <trkpt lat="64.48984" lon="21.04874">
        <ele>109.749605</ele>
        <time>2020-09-28T12:08:17.592Z</time>
      </trkpt>
      <trkpt lat="64.48784" lon="21.04613">
        <ele>99.278062</ele>
        <time>2020-09-28T12:08:54.584Z</time>
      </trkpt>
      <trkpt lat="64.4855" lon="21.04453">
        <ele>90.553948</ele>
        <time>2020-09-28T12:09:22.587Z</time>
      </trkpt>
      <trkpt lat="64.483" lon="21.0431">
        <ele>92.375098</ele>
        <time>2020-09-28T12:10:09.589Z</time>
      </trkpt>
      <trkpt lat="64.48115" lon="21.04465">
        <ele>92.189763</ele>
        <time>2020-09-28T12:11:01.614Z</time>
      </trkpt>
      <trkpt lat="64.47956" lon="21.04761">
        <ele>86.021985</ele>
        <time>2020-09-28T12:11:43.603Z</time>
      </trkpt>
      <trkpt lat="64.47766" lon="21.04521">
        <ele>78.056392</ele>
        <time>2020-09-28T12:12:28.581Z</time>
      </trkpt>
      <trkpt lat="64.47572" lon="21.04118">
        <ele>73.729784</ele>
        <time>2020-09-28T12:13:10.579Z</time>
      </trkpt>
      <trkpt lat="64.47413" lon="21.03791">
        <ele>74.460587</ele>
        <time>2020-09-28T12:14:00.587Z</time>
      </trkpt>
      <trkpt lat="64.47296" lon="21.03558">
        <ele>73.247453</ele>
        <time>2020-09-28T12:36:58.219Z</time>
      </trkpt>
      <trkpt lat="64.47136" lon="21.03242">
        <ele>77.773153</ele>
        <time>2020-09-28T12:38:03.191Z</time>
      </trkpt>
      <trkpt lat="64.46963" lon="21.03454">
        <ele>88.547559</ele>
        <time>2020-09-28T12:39:32.212Z</time>
      </trkpt>
      <trkpt lat="64.4674" lon="21.03636">
        <ele>80.198157</ele>
        <time>2020-09-28T12:40:23.206Z</time>
      </trkpt>
      <trkpt lat="64.46545" lon="21.03763">
        <ele>96.813278</ele>
        <time>2020-09-28T12:41:42.217Z</time>
      </trkpt>
      <trkpt lat="64.4637" lon="21.04033">
        <ele>105.06325</ele>
        <time>2020-09-28T12:42:55.197Z</time>
      </trkpt>
      <trkpt lat="64.46182" lon="21.03922">
        <ele>90.60776</ele>
        <time>2020-09-28T12:43:44.237Z</time>
      </trkpt>
      <trkpt lat="64.46003" lon="21.03617">
        <ele>80.412923</ele>
        <time>2020-09-28T12:44:27.210Z</time>
      </trkpt>
      <trkpt lat="64.45807" lon="21.03237">
        <ele>75.298952</ele>
        <time>2020-09-28T12:45:13.205Z</time>
      </trkpt>
      <trkpt lat="64.45603" lon="21.02979">
        <ele>90.126679</ele>
        <time>2020-09-28T12:46:15.221Z</time>
      </trkpt>
      <trkpt lat="64.45407" lon="21.02822">
        <ele>95.478589</ele>
        <time>2020-09-28T12:46:59.206Z</time>
      </trkpt>
      <trkpt lat="64.4519" lon="21.02655">
        <ele>88.906937</ele>
        <time>2020-09-28T12:47:41.217Z</time>
      </trkpt>
      <trkpt lat="64.4496" lon="21.02465">
        <ele>76.756365</ele>
        <time>2020-09-28T12:48:21.210Z</time>
      </trkpt>
      <trkpt lat="64.44712" lon="21.02266">
        <ele>72.736709</ele>
        <time>2020-09-28T12:49:03.217Z</time>
      </trkpt>
      <trkpt lat="64.44513" lon="21.0211">
        <ele>77.677645</ele>
        <time>2020-09-28T12:49:49.213Z</time>
      </trkpt>
      <trkpt lat="64.44329" lon="21.01958">
        <ele>85.595898</ele>
        <time>2020-09-28T12:51:43.247Z</time>
      </trkpt>
      <trkpt lat="64.44116" lon="21.01792">
        <ele>89.569761</ele>
        <time>2020-09-28T12:52:44.217Z</time>
      </trkpt>
      <trkpt lat="64.43876" lon="21.01672">
        <ele>100.381538</ele>
        <time>2020-09-28T12:53:40.199Z</time>
      </trkpt>
      <trkpt lat="64.43655" lon="21.0161">
        <ele>101.231852</ele>
        <time>2020-09-28T12:54:24.212Z</time>
      </trkpt>
      <trkpt lat="64.43439" lon="21.01555">
        <ele>93.173694</ele>
        <time>2020-09-28T12:55:05.245Z</time>
      </trkpt>
      <trkpt lat="64.43211" lon="21.01486">
        <ele>96.790438</ele>
        <time>2020-09-28T12:55:49.222Z</time>
      </trkpt>
      <trkpt lat="64.42969" lon="21.01421">
        <ele>97.660187</ele>
        <time>2020-09-28T12:56:51.220Z</time>
      </trkpt>
      <trkpt lat="64.42746" lon="21.01356">
        <ele>85.920214</ele>
        <time>2020-09-28T12:57:51.236Z</time>
      </trkpt>
      <trkpt lat="64.42547" lon="21.0127">
        <ele>91.255108</ele>
        <time>2020-09-28T12:58:56.229Z</time>
      </trkpt>
      <trkpt lat="64.4235" lon="21.01138">
        <ele>104.917567</ele>
        <time>2020-09-28T12:59:53.209Z</time>
      </trkpt>
      <trkpt lat="64.4207" lon="21.00935">
        <ele>92.608453</ele>
        <time>2020-09-28T13:00:46.232Z</time>
      </trkpt>
      <trkpt lat="64.4186" lon="21.00747">
        <ele>77.611401</ele>
        <time>2020-09-28T13:01:34.233Z</time>
      </trkpt>
      <trkpt lat="64.4166" lon="21.00531">
        <ele>75.915725</ele>
        <time>2020-09-28T13:02:34.206Z</time>
      </trkpt>
      <trkpt lat="64.41425" lon="21.00286">
        <ele>70.621923</ele>
        <time>2020-09-28T13:03:14.228Z</time>
      </trkpt>
      <trkpt lat="64.41198" lon="21.00076">
        <ele>68.152492</ele>
        <time>2020-09-28T13:04:11.212Z</time>
      </trkpt>
      <trkpt lat="64.40984" lon="21.00296">
        <ele>71.887164</ele>
        <time>2020-09-28T13:05:06.218Z</time>
      </trkpt>
      <trkpt lat="64.40782" lon="21.00435">
        <ele>84.827895</ele>
        <time>2020-09-28T13:06:19.197Z</time>
      </trkpt>
      <trkpt lat="64.4057" lon="21.00542">
        <ele>82.516401</ele>
        <time>2020-09-28T13:07:13.223Z</time>
      </trkpt>
      <trkpt lat="64.40353" lon="21.00805">
        <ele>76.499808</ele>
        <time>2020-09-28T13:07:55.246Z</time>
      </trkpt>
      <trkpt lat="64.40147" lon="21.00675">
        <ele>68.769562</ele>
        <time>2020-09-28T13:08:38.211Z</time>
      </trkpt>
      <trkpt lat="64.39977" lon="21.00346">
        <ele>64.854742</ele>
        <time>2020-09-28T13:09:20.251Z</time>
      </trkpt>
      <trkpt lat="64.39735" lon="21.003">
        <ele>67.135372</ele>
        <time>2020-09-28T13:10:14.233Z</time>
      </trkpt>
      <trkpt lat="64.39535" lon="21.00168">
        <ele>76.42396</ele>
        <time>2020-09-28T13:11:18.219Z</time>
      </trkpt>
      <trkpt lat="64.39336" lon="21.00164">
        <ele>80.240369</ele>
        <time>2020-09-28T13:12:29.211Z</time>
      </trkpt>
      <trkpt lat="64.39134" lon="21.00176">
        <ele>94.378001</ele>
        <time>2020-09-28T13:13:53.240Z</time>
      </trkpt>
      <trkpt lat="64.38912" lon="21.0012">
        <ele>95.080442</ele>
        <time>2020-09-28T13:14:54.216Z</time>
      </trkpt>
      <trkpt lat="64.38757" lon="21.00426">
        <ele>87.587923</ele>
        <time>2020-09-28T13:15:36.224Z</time>
      </trkpt>
      <trkpt lat="64.38592" lon="21.00688">
        <ele>84.448477</ele>
        <time>2020-09-28T13:16:18.213Z</time>
      </trkpt>
      <trkpt lat="64.38421" lon="21.00678">
        <ele>85.849333</ele>
        <time>2020-09-28T13:17:02.244Z</time>
      </trkpt>
      <trkpt lat="64.3826" lon="21.00321">
        <ele>85.307521</ele>
        <time>2020-09-28T13:17:57.231Z</time>
      </trkpt>
      <trkpt lat="64.3805" lon="21.00088">
        <ele>86.21762</ele>
        <time>2020-09-28T13:18:44.215Z</time>
      </trkpt>
      <trkpt lat="64.37884" lon="20.99759">
        <ele>87.822924</ele>
        <time>2020-09-28T13:19:44.216Z</time>
      </trkpt>
      <trkpt lat="64.37667" lon="20.99752">
        <ele>85.057995</ele>
        <time>2020-09-28T13:20:31.223Z</time>
      </trkpt>
      <trkpt lat="64.37441" lon="20.99749">
        <ele>84.040369</ele>
        <time>2020-09-28T13:21:37.210Z</time>
      </trkpt>
      <trkpt lat="64.37279" lon="20.99412">
        <ele>84.24133</ele>
        <time>2020-09-28T13:22:58.213Z</time>
      </trkpt>
      <trkpt lat="64.37101" lon="20.99243">
        <ele>91.934413</ele>
        <time>2020-09-28T13:24:10.208Z</time>
      </trkpt>
      <trkpt lat="64.36968" lon="20.98884">
        <ele>93.330457</ele>
        <time>2020-09-28T13:25:21.201Z</time>
      </trkpt>
      <trkpt lat="64.36812" lon="20.98433">
        <ele>87.341121</ele>
        <time>2020-09-28T13:26:06.224Z</time>
      </trkpt>
      <trkpt lat="64.36647" lon="20.98244">
        <ele>96.116102</ele>
        <time>2020-09-28T13:27:19.242Z</time>
      </trkpt>
      <trkpt lat="64.36447" lon="20.98087">
        <ele>96.295783</ele>
        <time>2020-09-28T13:28:13.212Z</time>
      </trkpt>
      <trkpt lat="64.36271" lon="20.9792">
        <ele>101.197283</ele>
        <time>2020-09-28T13:29:55.231Z</time>
      </trkpt>
      <trkpt lat="64.36072" lon="20.9777">
        <ele>109.944288</ele>
        <time>2020-09-28T13:31:32.225Z</time>
      </trkpt>
      <trkpt lat="64.35872" lon="20.97596">
        <ele>112.893304</ele>
        <time>2020-09-28T13:32:44.224Z</time>
      </trkpt>
      <trkpt lat="64.35677" lon="20.97752">
        <ele>110.555148</ele>
        <time>2020-09-28T13:33:24.220Z</time>
      </trkpt>
      <trkpt lat="64.35455" lon="20.97727">
        <ele>108.552161</ele>
        <time>2020-09-28T13:34:04.265Z</time>
      </trkpt>
      <trkpt lat="64.35239" lon="20.97649">
        <ele>102.705652</ele>
        <time>2020-09-28T13:34:46.247Z</time>
      </trkpt>
      <trkpt lat="64.34987" lon="20.97825">
        <ele>96.825625</ele>
        <time>2020-09-28T13:35:26.229Z</time>
      </trkpt>
      <trkpt lat="64.34782" lon="20.98084">
        <ele>88.488425</ele>
        <time>2020-09-28T13:36:06.206Z</time>
      </trkpt>
      <trkpt lat="64.34564" lon="20.98378">
        <ele>75.034776</ele>
        <time>2020-09-28T13:36:35.235Z</time>
      </trkpt>
      <trkpt lat="64.34459" lon="20.98784">
        <ele>62.692517</ele>
        <time>2020-09-28T13:36:55.221Z</time>
      </trkpt>
      <trkpt lat="64.3437" lon="20.99255">
        <ele>60.386489</ele>
        <time>2020-09-28T13:37:23.220Z</time>
      </trkpt>
      <trkpt lat="64.34276" lon="20.99727">
        <ele>69.286555</ele>
        <time>2020-09-28T13:38:17.245Z</time>
      </trkpt>
      <trkpt lat="64.34114" lon="21.00184">
        <ele>64.667833</ele>
        <time>2020-09-28T13:38:59.245Z</time>
      </trkpt>
      <trkpt lat="64.33922" lon="21.00642">
        <ele>52.714786</ele>
        <time>2020-09-28T13:39:39.238Z</time>
      </trkpt>
      <trkpt lat="64.3368" lon="21.00872">
        <ele>44.400006</ele>
        <time>2020-09-28T13:40:19.210Z</time>
      </trkpt>
      <trkpt lat="64.33462" lon="21.0088">
        <ele>48.875357</ele>
        <time>2020-09-28T13:41:18.242Z</time>
      </trkpt>
      <trkpt lat="64.33184" lon="21.00901">
        <ele>45.430884</ele>
        <time>2020-09-28T13:42:06.241Z</time>
      </trkpt>
      <trkpt lat="64.32959" lon="21.01092">
        <ele>42.039552</ele>
        <time>2020-09-28T13:42:46.225Z</time>
      </trkpt>
      <trkpt lat="64.32775" lon="21.01364">
        <ele>43.148697</ele>
        <time>2020-09-28T13:43:26.238Z</time>
      </trkpt>
      <trkpt lat="64.32601" lon="21.01627">
        <ele>44.244196</ele>
        <time>2020-09-28T13:44:10.250Z</time>
      </trkpt>
      <trkpt lat="64.32421" lon="21.01892">
        <ele>47.762924</ele>
        <time>2020-09-28T13:45:14.224Z</time>
      </trkpt>
      <trkpt lat="64.32228" lon="21.02067">
        <ele>50.234419</ele>
        <time>2020-09-28T13:46:14.226Z</time>
      </trkpt>
      <trkpt lat="64.32018" lon="21.02241">
        <ele>48.899429</ele>
        <time>2020-09-28T13:47:03.238Z</time>
      </trkpt>
      <trkpt lat="64.31794" lon="21.02331">
        <ele>43.834786</ele>
        <time>2020-09-28T13:47:43.226Z</time>
      </trkpt>
      <trkpt lat="64.31574" lon="21.02402">
        <ele>46.131661</ele>
        <time>2020-09-28T13:48:29.211Z</time>
      </trkpt>
      <trkpt lat="64.31357" lon="21.0247">
        <ele>49.470559</ele>
        <time>2020-09-28T13:49:24.220Z</time>
      </trkpt>
      <trkpt lat="64.31143" lon="21.02537">
        <ele>44.822158</ele>
        <time>2020-09-28T13:50:04.233Z</time>
      </trkpt>
      <trkpt lat="64.30928" lon="21.02606">
        <ele>42.784481</ele>
        <time>2020-09-28T13:50:44.238Z</time>
      </trkpt>
      <trkpt lat="64.30698" lon="21.02674">
        <ele>42.147528</ele>
        <time>2020-09-28T13:51:26.221Z</time>
      </trkpt>
      <trkpt lat="64.30483" lon="21.02748">
        <ele>41.870596</ele>
        <time>2020-09-28T13:52:06.228Z</time>
      </trkpt>
      <trkpt lat="64.30274" lon="21.02812">
        <ele>38.716245</ele>
        <time>2020-09-28T13:52:46.233Z</time>
      </trkpt>
      <trkpt lat="64.30048" lon="21.02931">
        <ele>37.797607</ele>
        <time>2020-09-28T13:53:26.243Z</time>
      </trkpt>
      <trkpt lat="64.29831" lon="21.03118">
        <ele>38.167989</ele>
        <time>2020-09-28T13:54:08.245Z</time>
      </trkpt>
      <trkpt lat="64.29631" lon="21.03193">
        <ele>37.624656</ele>
        <time>2020-09-28T13:54:52.237Z</time>
      </trkpt>
      <trkpt lat="64.29439" lon="21.03227">
        <ele>38.828166</ele>
        <time>2020-09-28T13:55:33.244Z</time>
      </trkpt>
      <trkpt lat="64.29216" lon="21.03268">
        <ele>40.459154</ele>
        <time>2020-09-28T13:56:22.240Z</time>
      </trkpt>
      <trkpt lat="64.28986" lon="21.0331">
        <ele>47.890978</ele>
        <time>2020-09-28T13:57:20.241Z</time>
      </trkpt>
      <trkpt lat="64.28769" lon="21.03373">
        <ele>44.719552</ele>
        <time>2020-09-28T13:58:15.268Z</time>
      </trkpt>
      <trkpt lat="64.28564" lon="21.03505">
        <ele>43.434098</ele>
        <time>2020-09-28T13:58:57.238Z</time>
      </trkpt>
      <trkpt lat="64.28353" lon="21.03646">
        <ele>46.318411</ele>
        <time>2020-09-28T13:59:54.233Z</time>
      </trkpt>
      <trkpt lat="64.28199" lon="21.03941">
        <ele>45.62352</ele>
        <time>2020-09-28T14:00:35.227Z</time>
      </trkpt>
      <trkpt lat="64.28017" lon="21.04131">
        <ele>42.923768</ele>
        <time>2020-09-28T14:01:15.246Z</time>
      </trkpt>
      <trkpt lat="64.27836" lon="21.03992">
        <ele>39.187328</ele>
        <time>2020-09-28T14:01:58.222Z</time>
      </trkpt>
      <trkpt lat="64.27653" lon="21.04288">
        <ele>42.475007</ele>
        <time>2020-09-28T14:02:47.279Z</time>
      </trkpt>
      <trkpt lat="64.2746" lon="21.04562">
        <ele>40.538255</ele>
        <time>2020-09-28T14:03:43.233Z</time>
      </trkpt>
      <trkpt lat="64.27276" lon="21.04755">
        <ele>36.974276</ele>
        <time>2020-09-28T14:04:23.218Z</time>
      </trkpt>
      <trkpt lat="64.27101" lon="21.0474">
        <ele>37.341411</ele>
        <time>2020-09-28T14:05:03.233Z</time>
      </trkpt>
      <trkpt lat="64.26897" lon="21.04647">
        <ele>39.650827</ele>
        <time>2020-09-28T14:05:47.244Z</time>
      </trkpt>
      <trkpt lat="64.2685" lon="21.04175">
        <ele>41.340362</ele>
        <time>2020-09-28T14:07:02.217Z</time>
      </trkpt>
    </trkseg>
  </trk>
  <trk>
    <name><![CDATA[Tour d'Europe: étape 093]]></name>
    <trkseg>
      <trkpt lat="64.26877" lon="21.04482">
        <ele>36.860623</ele>
        <time>2020-09-29T07:51:46.475Z</time>
      </trkpt>
      <trkpt lat="64.26739" lon="21.04624">
        <ele>39.393925</ele>
        <time>2020-09-29T07:52:51.436Z</time>
      </trkpt>
      <trkpt lat="64.26529" lon="21.04641">
        <ele>48.664089</ele>
        <time>2020-09-29T07:53:53.442Z</time>
      </trkpt>
      <trkpt lat="64.26312" lon="21.04661">
        <ele>49.34329</ele>
        <time>2020-09-29T07:54:45.443Z</time>
      </trkpt>
      <trkpt lat="64.26102" lon="21.04641">
        <ele>46.426957</ele>
        <time>2020-09-29T07:55:25.462Z</time>
      </trkpt>
      <trkpt lat="64.25863" lon="21.04595">
        <ele>46.49134</ele>
        <time>2020-09-29T07:56:20.447Z</time>
      </trkpt>
      <trkpt lat="64.25651" lon="21.04544">
        <ele>47.909289</ele>
        <time>2020-09-29T07:57:08.455Z</time>
      </trkpt>
      <trkpt lat="64.25575" lon="21.04284">
        <ele>53.420681</ele>
        <time>2020-09-29T07:58:16.458Z</time>
      </trkpt>
      <trkpt lat="64.25692" lon="21.0386">
        <ele>56.045324</ele>
        <time>2020-09-29T07:59:18.441Z</time>
      </trkpt>
      <trkpt lat="64.25708" lon="21.03325">
        <ele>48.494533</ele>
        <time>2020-09-29T07:59:56.454Z</time>
      </trkpt>
      <trkpt lat="64.25735" lon="21.02808">
        <ele>41.391794</ele>
        <time>2020-09-29T08:00:40.436Z</time>
      </trkpt>
      <trkpt lat="64.25745" lon="21.02307">
        <ele>42.865631</ele>
        <time>2020-09-29T08:01:43.471Z</time>
      </trkpt>
      <trkpt lat="64.25709" lon="21.01795">
        <ele>46.111983</ele>
        <time>2020-09-29T08:02:39.452Z</time>
      </trkpt>
      <trkpt lat="64.25542" lon="21.01451">
        <ele>46.673251</ele>
        <time>2020-09-29T08:03:32.492Z</time>
      </trkpt>
      <trkpt lat="64.25375" lon="21.01126">
        <ele>45.586233</ele>
        <time>2020-09-29T08:04:32.483Z</time>
      </trkpt>
      <trkpt lat="64.25201" lon="21.00875">
        <ele>52.72581</ele>
        <time>2020-09-29T08:05:34.448Z</time>
      </trkpt>
      <trkpt lat="64.24977" lon="21.01035">
        <ele>49.485291</ele>
        <time>2020-09-29T08:06:32.458Z</time>
      </trkpt>
      <trkpt lat="64.24775" lon="21.01223">
        <ele>42.330986</ele>
        <time>2020-09-29T08:07:20.475Z</time>
      </trkpt>
      <trkpt lat="64.24545" lon="21.0144">
        <ele>42.15704</ele>
        <time>2020-09-29T08:08:20.461Z</time>
      </trkpt>
      <trkpt lat="64.24319" lon="21.016">
        <ele>42.639683</ele>
        <time>2020-09-29T08:09:18.455Z</time>
      </trkpt>
      <trkpt lat="64.24109" lon="21.01634">
        <ele>48.710066</ele>
        <time>2020-09-29T08:10:24.444Z</time>
      </trkpt>
      <trkpt lat="64.23897" lon="21.016">
        <ele>57.883526</ele>
        <time>2020-09-29T08:11:38.435Z</time>
      </trkpt>
      <trkpt lat="64.23687" lon="21.01612">
        <ele>57.55128</ele>
        <time>2020-09-29T08:14:33.450Z</time>
      </trkpt>
      <trkpt lat="64.23458" lon="21.01666">
        <ele>57.947114</ele>
        <time>2020-09-29T08:15:27.440Z</time>
      </trkpt>
      <trkpt lat="64.23269" lon="21.01587">
        <ele>53.310134</ele>
        <time>2020-09-29T08:16:19.437Z</time>
      </trkpt>
      <trkpt lat="64.23254" lon="21.01057">
        <ele>41.443882</ele>
        <time>2020-09-29T08:16:50.492Z</time>
      </trkpt>
      <trkpt lat="64.23235" lon="21.00547">
        <ele>38.070464</ele>
        <time>2020-09-29T08:17:27.455Z</time>
      </trkpt>
      <trkpt lat="64.2322" lon="21.00067">
        <ele>41.225937</ele>
        <time>2020-09-29T08:18:14.462Z</time>
      </trkpt>
      <trkpt lat="64.23212" lon="20.99572">
        <ele>45.463174</ele>
        <time>2020-09-29T08:19:14.457Z</time>
      </trkpt>
      <trkpt lat="64.23225" lon="20.99065">
        <ele>47.05494</ele>
        <time>2020-09-29T08:20:01.468Z</time>
      </trkpt>
      <trkpt lat="64.2324" lon="20.98615">
        <ele>47.601412</ele>
        <time>2020-09-29T08:20:41.476Z</time>
      </trkpt>
      <trkpt lat="64.2325" lon="20.98162">
        <ele>50.276873</ele>
        <time>2020-09-29T08:21:24.450Z</time>
      </trkpt>
      <trkpt lat="64.2326" lon="20.97687">
        <ele>51.329751</ele>
        <time>2020-09-29T08:22:07.494Z</time>
      </trkpt>
      <trkpt lat="64.23278" lon="20.9719">
        <ele>45.76878</ele>
        <time>2020-09-29T08:22:47.453Z</time>
      </trkpt>
      <trkpt lat="64.2326" lon="20.96743">
        <ele>44.136239</ele>
        <time>2020-09-29T08:23:29.448Z</time>
      </trkpt>
      <trkpt lat="64.23215" lon="20.96268">
        <ele>46.467906</ele>
        <time>2020-09-29T08:24:15.476Z</time>
      </trkpt>
      <trkpt lat="64.23166" lon="20.95778">
        <ele>47.449988</ele>
        <time>2020-09-29T08:25:10.469Z</time>
      </trkpt>
      <trkpt lat="64.23119" lon="20.95314">
        <ele>50.366082</ele>
        <time>2020-09-29T08:26:10.452Z</time>
      </trkpt>
      <trkpt lat="64.23057" lon="20.94864">
        <ele>54.283956</ele>
        <time>2020-09-29T08:27:10.448Z</time>
      </trkpt>
      <trkpt lat="64.22905" lon="20.94465">
        <ele>59.009427</ele>
        <time>2020-09-29T08:28:10.452Z</time>
      </trkpt>
      <trkpt lat="64.22765" lon="20.94095">
        <ele>69.005216</ele>
        <time>2020-09-29T08:29:19.452Z</time>
      </trkpt>
      <trkpt lat="64.2267" lon="20.9367">
        <ele>73.261396</ele>
        <time>2020-09-29T08:30:28.456Z</time>
      </trkpt>
      <trkpt lat="64.22585" lon="20.93204">
        <ele>66.098393</ele>
        <time>2020-09-29T08:31:10.452Z</time>
      </trkpt>
      <trkpt lat="64.22508" lon="20.92766">
        <ele>68.068228</ele>
        <time>2020-09-29T08:31:53.457Z</time>
      </trkpt>
      <trkpt lat="64.22422" lon="20.923">
        <ele>80.313139</ele>
        <time>2020-09-29T08:32:55.468Z</time>
      </trkpt>
      <trkpt lat="64.22339" lon="20.91862">
        <ele>93.328413</ele>
        <time>2020-09-29T08:34:13.457Z</time>
      </trkpt>
      <trkpt lat="64.22208" lon="20.91406">
        <ele>89.123753</ele>
        <time>2020-09-29T08:35:13.468Z</time>
      </trkpt>
      <trkpt lat="64.22083" lon="20.91023">
        <ele>93.27783</ele>
        <time>2020-09-29T08:36:22.472Z</time>
      </trkpt>
      <trkpt lat="64.21941" lon="20.9059">
        <ele>82.004883</ele>
        <time>2020-09-29T08:36:56.488Z</time>
      </trkpt>
      <trkpt lat="64.21801" lon="20.90172">
        <ele>74.183025</ele>
        <time>2020-09-29T08:37:43.446Z</time>
      </trkpt>
      <trkpt lat="64.2168" lon="20.89794">
        <ele>88.047143</ele>
        <time>2020-09-29T08:38:49.482Z</time>
      </trkpt>
      <trkpt lat="64.21555" lon="20.89403">
        <ele>94.279473</ele>
        <time>2020-09-29T08:39:52.471Z</time>
      </trkpt>
      <trkpt lat="64.21401" lon="20.88989">
        <ele>89.879433</ele>
        <time>2020-09-29T08:40:52.480Z</time>
      </trkpt>
      <trkpt lat="64.21261" lon="20.88605">
        <ele>94.904169</ele>
        <time>2020-09-29T08:41:58.452Z</time>
      </trkpt>
      <trkpt lat="64.21123" lon="20.88235">
        <ele>98.525563</ele>
        <time>2020-09-29T08:43:08.465Z</time>
      </trkpt>
      <trkpt lat="64.20978" lon="20.87846">
        <ele>89.221771</ele>
        <time>2020-09-29T08:43:59.477Z</time>
      </trkpt>
      <trkpt lat="64.20838" lon="20.87475">
        <ele>89.898124</ele>
        <time>2020-09-29T08:44:52.459Z</time>
      </trkpt>
      <trkpt lat="64.20692" lon="20.87079">
        <ele>93.124287</ele>
        <time>2020-09-29T08:45:52.468Z</time>
      </trkpt>
      <trkpt lat="64.20561" lon="20.86725">
        <ele>97.74987</ele>
        <time>2020-09-29T08:46:52.461Z</time>
      </trkpt>
      <trkpt lat="64.20401" lon="20.86281">
        <ele>102.385501</ele>
        <time>2020-09-29T08:47:42.473Z</time>
      </trkpt>
      <trkpt lat="64.20208" lon="20.85773">
        <ele>87.85645</ele>
        <time>2020-09-29T08:48:24.469Z</time>
      </trkpt>
      <trkpt lat="64.20068" lon="20.85398">
        <ele>85.255018</ele>
        <time>2020-09-29T08:49:04.468Z</time>
      </trkpt>
      <trkpt lat="64.19916" lon="20.85008">
        <ele>89.135903</ele>
        <time>2020-09-29T08:49:51.488Z</time>
      </trkpt>
      <trkpt lat="64.19774" lon="20.84687">
        <ele>91.979405</ele>
        <time>2020-09-29T08:50:37.482Z</time>
      </trkpt>
      <trkpt lat="64.196" lon="20.84296">
        <ele>81.525304</ele>
        <time>2020-09-29T08:51:20.494Z</time>
      </trkpt>
      <trkpt lat="64.1943" lon="20.84384">
        <ele>77.412464</ele>
        <time>2020-09-29T08:52:11.431Z</time>
      </trkpt>
      <trkpt lat="64.19303" lon="20.84011">
        <ele>76.484693</ele>
        <time>2020-09-29T08:52:57.438Z</time>
      </trkpt>
      <trkpt lat="64.19134" lon="20.83829">
        <ele>80.046745</ele>
        <time>2020-09-29T08:53:52.472Z</time>
      </trkpt>
      <trkpt lat="64.18988" lon="20.83443">
        <ele>78.104267</ele>
        <time>2020-09-29T08:54:49.465Z</time>
      </trkpt>
      <trkpt lat="64.18814" lon="20.83488">
        <ele>72.432721</ele>
        <time>2020-09-29T08:55:34.448Z</time>
      </trkpt>
      <trkpt lat="64.18919" lon="20.83031">
        <ele>75.220332</ele>
        <time>2020-09-29T08:56:30.447Z</time>
      </trkpt>
      <trkpt lat="64.18999" lon="20.82573">
        <ele>72.245725</ele>
        <time>2020-09-29T08:57:26.450Z</time>
      </trkpt>
      <trkpt lat="64.18987" lon="20.82049">
        <ele>78.128784</ele>
        <time>2020-09-29T08:58:20.459Z</time>
      </trkpt>
      <trkpt lat="64.18908" lon="20.81586">
        <ele>78.010551</ele>
        <time>2020-09-29T08:59:31.493Z</time>
      </trkpt>
      <trkpt lat="64.18857" lon="20.81078">
        <ele>74.334215</ele>
        <time>2020-09-29T09:00:25.460Z</time>
      </trkpt>
      <trkpt lat="64.18756" lon="20.80635">
        <ele>78.334685</ele>
        <time>2020-09-29T09:01:27.484Z</time>
      </trkpt>
      <trkpt lat="64.18747" lon="20.80173">
        <ele>91.291362</ele>
        <time>2020-09-29T09:02:48.454Z</time>
      </trkpt>
      <trkpt lat="64.1876" lon="20.79699">
        <ele>92.169213</ele>
        <time>2020-09-29T09:04:02.493Z</time>
      </trkpt>
      <trkpt lat="64.18703" lon="20.79255">
        <ele>100.687851</ele>
        <time>2020-09-29T09:05:21.453Z</time>
      </trkpt>
      <trkpt lat="64.1862" lon="20.78833">
        <ele>101.905058</ele>
        <time>2020-09-29T09:06:45.465Z</time>
      </trkpt>
      <trkpt lat="64.18499" lon="20.78449">
        <ele>101.782648</ele>
        <time>2020-09-29T09:08:06.460Z</time>
      </trkpt>
      <trkpt lat="64.18375" lon="20.78101">
        <ele>112.239608</ele>
        <time>2020-09-29T09:09:20.461Z</time>
      </trkpt>
      <trkpt lat="64.18409" lon="20.77653">
        <ele>130.734219</ele>
        <time>2020-09-29T09:11:11.459Z</time>
      </trkpt>
      <trkpt lat="64.18496" lon="20.77264">
        <ele>134.692066</ele>
        <time>2020-09-29T09:12:57.501Z</time>
      </trkpt>
      <trkpt lat="64.18622" lon="20.76991">
        <ele>133.794773</ele>
        <time>2020-09-29T09:14:46.491Z</time>
      </trkpt>
      <trkpt lat="64.18731" lon="20.76585">
        <ele>136.079573</ele>
        <time>2020-09-29T09:15:50.465Z</time>
      </trkpt>
      <trkpt lat="64.18874" lon="20.76238">
        <ele>138.870171</ele>
        <time>2020-09-29T09:16:45.458Z</time>
      </trkpt>
      <trkpt lat="64.18981" lon="20.76144">
        <ele>126.534591</ele>
        <time>2020-09-29T09:17:39.463Z</time>
      </trkpt>
      <trkpt lat="64.1876" lon="20.7567">
        <ele>112.384461</ele>
        <time>2020-09-29T09:18:21.452Z</time>
      </trkpt>
      <trkpt lat="64.18614" lon="20.75256">
        <ele>112.810096</ele>
        <time>2020-09-29T09:19:05.451Z</time>
      </trkpt>
      <trkpt lat="64.1846" lon="20.74826">
        <ele>112.899336</ele>
        <time>2020-09-29T09:20:00.458Z</time>
      </trkpt>
      <trkpt lat="64.1829" lon="20.74355">
        <ele>105.391237</ele>
        <time>2020-09-29T09:20:40.451Z</time>
      </trkpt>
      <trkpt lat="64.18112" lon="20.73858">
        <ele>97.228063</ele>
        <time>2020-09-29T09:21:20.461Z</time>
      </trkpt>
      <trkpt lat="64.17975" lon="20.73475">
        <ele>99.332913</ele>
        <time>2020-09-29T09:22:07.451Z</time>
      </trkpt>
      <trkpt lat="64.17847" lon="20.73116">
        <ele>102.625327</ele>
        <time>2020-09-29T09:22:47.449Z</time>
      </trkpt>
      <trkpt lat="64.17715" lon="20.72746">
        <ele>101.934902</ele>
        <time>2020-09-29T09:23:42.455Z</time>
      </trkpt>
      <trkpt lat="64.17579" lon="20.72364">
        <ele>105.07411</ele>
        <time>2020-09-29T09:24:31.478Z</time>
      </trkpt>
      <trkpt lat="64.17443" lon="20.71992">
        <ele>106.51117</ele>
        <time>2020-09-29T09:25:22.470Z</time>
      </trkpt>
      <trkpt lat="64.17309" lon="20.71624">
        <ele>104.505061</ele>
        <time>2020-09-29T09:26:19.475Z</time>
      </trkpt>
      <trkpt lat="64.17162" lon="20.71219">
        <ele>106.527475</ele>
        <time>2020-09-29T09:27:19.481Z</time>
      </trkpt>
      <trkpt lat="64.17024" lon="20.70839">
        <ele>107.831349</ele>
        <time>2020-09-29T09:28:19.453Z</time>
      </trkpt>
      <trkpt lat="64.16887" lon="20.70463">
        <ele>109.949356</ele>
        <time>2020-09-29T09:29:19.499Z</time>
      </trkpt>
      <trkpt lat="64.16757" lon="20.70103">
        <ele>118.00413</ele>
        <time>2020-09-29T09:30:03.455Z</time>
      </trkpt>
      <trkpt lat="64.16622" lon="20.69676">
        <ele>113.748134</ele>
        <time>2020-09-29T09:30:49.465Z</time>
      </trkpt>
      <trkpt lat="64.16523" lon="20.69189">
        <ele>106.741257</ele>
        <time>2020-09-29T09:31:29.482Z</time>
      </trkpt>
      <trkpt lat="64.16432" lon="20.68742">
        <ele>114.542314</ele>
        <time>2020-09-29T09:32:29.481Z</time>
      </trkpt>
      <trkpt lat="64.16337" lon="20.6826">
        <ele>121.256928</ele>
        <time>2020-09-29T09:33:15.460Z</time>
      </trkpt>
      <trkpt lat="64.16259" lon="20.67831">
        <ele>115.941844</ele>
        <time>2020-09-29T09:33:55.476Z</time>
      </trkpt>
      <trkpt lat="64.16199" lon="20.67326">
        <ele>108.328672</ele>
        <time>2020-09-29T09:34:35.467Z</time>
      </trkpt>
      <trkpt lat="64.16142" lon="20.66847">
        <ele>101.73403</ele>
        <time>2020-09-29T09:35:15.467Z</time>
      </trkpt>
      <trkpt lat="64.16084" lon="20.66353">
        <ele>102.49379</ele>
        <time>2020-09-29T09:36:07.456Z</time>
      </trkpt>
      <trkpt lat="64.16026" lon="20.65862">
        <ele>101.60743</ele>
        <time>2020-09-29T09:36:56.466Z</time>
      </trkpt>
      <trkpt lat="64.15972" lon="20.65396">
        <ele>104.306414</ele>
        <time>2020-09-29T09:37:53.460Z</time>
      </trkpt>
      <trkpt lat="64.15809" lon="20.65073">
        <ele>104.496483</ele>
        <time>2020-09-29T09:38:49.475Z</time>
      </trkpt>
      <trkpt lat="64.1564" lon="20.64831">
        <ele>102.21815</ele>
        <time>2020-09-29T09:39:29.464Z</time>
      </trkpt>
      <trkpt lat="64.15475" lon="20.64594">
        <ele>108.27996</ele>
        <time>2020-09-29T09:40:17.486Z</time>
      </trkpt>
      <trkpt lat="64.15258" lon="20.64457">
        <ele>111.53865</ele>
        <time>2020-09-29T09:41:12.496Z</time>
      </trkpt>
      <trkpt lat="64.15065" lon="20.64348">
        <ele>106.597243</ele>
        <time>2020-09-29T09:41:53.472Z</time>
      </trkpt>
      <trkpt lat="64.1484" lon="20.64193">
        <ele>115.18368</ele>
        <time>2020-09-29T09:42:52.463Z</time>
      </trkpt>
      <trkpt lat="64.1469" lon="20.63872">
        <ele>118.00423</ele>
        <time>2020-09-29T09:44:09.473Z</time>
      </trkpt>
      <trkpt lat="64.14536" lon="20.63585">
        <ele>122.893382</ele>
        <time>2020-09-29T09:45:36.464Z</time>
      </trkpt>
      <trkpt lat="64.14368" lon="20.63323">
        <ele>135.960381</ele>
        <time>2020-09-29T09:46:58.490Z</time>
      </trkpt>
      <trkpt lat="64.14198" lon="20.6297">
        <ele>133.44152</ele>
        <time>2020-09-29T09:47:57.482Z</time>
      </trkpt>
      <trkpt lat="64.14042" lon="20.62549">
        <ele>127.694804</ele>
        <time>2020-09-29T09:48:37.483Z</time>
      </trkpt>
      <trkpt lat="64.13969" lon="20.6209">
        <ele>122.968312</ele>
        <time>2020-09-29T09:49:19.504Z</time>
      </trkpt>
      <trkpt lat="64.13955" lon="20.616">
        <ele>121.465245</ele>
        <time>2020-09-29T09:50:07.487Z</time>
      </trkpt>
      <trkpt lat="64.14014" lon="20.61131">
        <ele>126.905771</ele>
        <time>2020-09-29T09:50:56.455Z</time>
      </trkpt>
      <trkpt lat="64.14073" lon="20.60662">
        <ele>137.369723</ele>
        <time>2020-09-29T09:52:11.472Z</time>
      </trkpt>
      <trkpt lat="64.14077" lon="20.60183">
        <ele>149.742802</ele>
        <time>2020-09-29T09:53:30.460Z</time>
      </trkpt>
      <trkpt lat="64.14055" lon="20.597">
        <ele>147.903868</ele>
        <time>2020-09-29T09:54:49.488Z</time>
      </trkpt>
      <trkpt lat="64.14005" lon="20.59179">
        <ele>147.381609</ele>
        <time>2020-09-29T09:55:52.464Z</time>
      </trkpt>
      <trkpt lat="64.13919" lon="20.58752">
        <ele>166.732654</ele>
        <time>2020-09-29T09:57:26.498Z</time>
      </trkpt>
      <trkpt lat="64.13832" lon="20.58303">
        <ele>168.240187</ele>
        <time>2020-09-29T09:58:45.483Z</time>
      </trkpt>
      <trkpt lat="64.13736" lon="20.57812">
        <ele>164.762937</ele>
        <time>2020-09-29T09:59:42.486Z</time>
      </trkpt>
      <trkpt lat="64.13641" lon="20.57355">
        <ele>159.626789</ele>
        <time>2020-09-29T10:00:30.479Z</time>
      </trkpt>
      <trkpt lat="64.1355" lon="20.56907">
        <ele>161.529846</ele>
        <time>2020-09-29T10:01:19.474Z</time>
      </trkpt>
      <trkpt lat="64.13434" lon="20.56462">
        <ele>155.673509</ele>
        <time>2020-09-29T10:02:10.487Z</time>
      </trkpt>
      <trkpt lat="64.13343" lon="20.56026">
        <ele>143.714612</ele>
        <time>2020-09-29T10:31:38.779Z</time>
      </trkpt>
      <trkpt lat="64.13249" lon="20.55557">
        <ele>138.386811</ele>
        <time>2020-09-29T10:32:34.778Z</time>
      </trkpt>
      <trkpt lat="64.1309" lon="20.55207">
        <ele>139.41297</ele>
        <time>2020-09-29T10:39:53.772Z</time>
      </trkpt>
      <trkpt lat="64.12928" lon="20.54854">
        <ele>135.685338</ele>
        <time>2020-09-29T10:40:43.762Z</time>
      </trkpt>
      <trkpt lat="64.12713" lon="20.54493">
        <ele>131.112504</ele>
        <time>2020-09-29T10:41:23.776Z</time>
      </trkpt>
      <trkpt lat="64.12503" lon="20.54178">
        <ele>131.785467</ele>
        <time>2020-09-29T10:42:04.769Z</time>
      </trkpt>
      <trkpt lat="64.12278" lon="20.53995">
        <ele>122.338332</ele>
        <time>2020-09-29T10:42:46.765Z</time>
      </trkpt>
      <trkpt lat="64.12077" lon="20.5386">
        <ele>127.503359</ele>
        <time>2020-09-29T10:43:34.786Z</time>
      </trkpt>
      <trkpt lat="64.11867" lon="20.53755">
        <ele>132.194141</ele>
        <time>2020-09-29T10:44:27.771Z</time>
      </trkpt>
      <trkpt lat="64.11653" lon="20.53713">
        <ele>131.111326</ele>
        <time>2020-09-29T10:45:07.780Z</time>
      </trkpt>
      <trkpt lat="64.11398" lon="20.53655">
        <ele>121.632542</ele>
        <time>2020-09-29T10:45:47.761Z</time>
      </trkpt>
      <trkpt lat="64.11194" lon="20.53562">
        <ele>112.896022</ele>
        <time>2020-09-29T10:46:27.787Z</time>
      </trkpt>
      <trkpt lat="64.10986" lon="20.53454">
        <ele>110.50932</ele>
        <time>2020-09-29T10:47:09.783Z</time>
      </trkpt>
      <trkpt lat="64.10762" lon="20.53373">
        <ele>112.256911</ele>
        <time>2020-09-29T10:47:49.776Z</time>
      </trkpt>
      <trkpt lat="64.10548" lon="20.53433">
        <ele>120.24997</ele>
        <time>2020-09-29T10:48:35.790Z</time>
      </trkpt>
      <trkpt lat="64.10334" lon="20.53275">
        <ele>116.248234</ele>
        <time>2020-09-29T10:49:15.814Z</time>
      </trkpt>
      <trkpt lat="64.10184" lon="20.52902">
        <ele>117.16593</ele>
        <time>2020-09-29T10:49:58.820Z</time>
      </trkpt>
      <trkpt lat="64.10023" lon="20.52479">
        <ele>120.50934</ele>
        <time>2020-09-29T10:50:57.764Z</time>
      </trkpt>
      <trkpt lat="64.09864" lon="20.52091">
        <ele>124.970108</ele>
        <time>2020-09-29T10:51:51.793Z</time>
      </trkpt>
      <trkpt lat="64.0966" lon="20.51768">
        <ele>111.160774</ele>
        <time>2020-09-29T10:52:31.774Z</time>
      </trkpt>
      <trkpt lat="64.09482" lon="20.51507">
        <ele>108.068957</ele>
        <time>2020-09-29T10:53:11.786Z</time>
      </trkpt>
      <trkpt lat="64.09285" lon="20.51289">
        <ele>108.596962</ele>
        <time>2020-09-29T10:53:51.770Z</time>
      </trkpt>
      <trkpt lat="64.09104" lon="20.51055">
        <ele>110.194185</ele>
        <time>2020-09-29T10:54:31.776Z</time>
      </trkpt>
      <trkpt lat="64.09004" lon="20.50658">
        <ele>108.582852</ele>
        <time>2020-09-29T10:55:11.776Z</time>
      </trkpt>
      <trkpt lat="64.08869" lon="20.50323">
        <ele>109.939351</ele>
        <time>2020-09-29T10:55:53.786Z</time>
      </trkpt>
      <trkpt lat="64.08634" lon="20.50136">
        <ele>111.117939</ele>
        <time>2020-09-29T10:56:47.797Z</time>
      </trkpt>
      <trkpt lat="64.08432" lon="20.50018">
        <ele>104.742398</ele>
        <time>2020-09-29T10:57:33.772Z</time>
      </trkpt>
      <trkpt lat="64.08219" lon="20.50023">
        <ele>108.695274</ele>
        <time>2020-09-29T10:58:32.804Z</time>
      </trkpt>
      <trkpt lat="64.07993" lon="20.50015">
        <ele>105.343879</ele>
        <time>2020-09-29T10:59:12.780Z</time>
      </trkpt>
      <trkpt lat="64.07772" lon="20.5001">
        <ele>102.441977</ele>
        <time>2020-09-29T10:59:52.788Z</time>
      </trkpt>
      <trkpt lat="64.07571" lon="20.50007">
        <ele>104.896855</ele>
        <time>2020-09-29T11:00:34.759Z</time>
      </trkpt>
      <trkpt lat="64.07348" lon="20.50002">
        <ele>111.785629</ele>
        <time>2020-09-29T11:01:24.772Z</time>
      </trkpt>
      <trkpt lat="64.07136" lon="20.49995">
        <ele>108.780028</ele>
        <time>2020-09-29T11:02:10.789Z</time>
      </trkpt>
      <trkpt lat="64.06889" lon="20.49986">
        <ele>109.820744</ele>
        <time>2020-09-29T11:03:08.814Z</time>
      </trkpt>
      <trkpt lat="64.06675" lon="20.49809">
        <ele>108.520211</ele>
        <time>2020-09-29T11:03:53.772Z</time>
      </trkpt>
      <trkpt lat="64.06491" lon="20.49605">
        <ele>104.808225</ele>
        <time>2020-09-29T11:04:33.787Z</time>
      </trkpt>
      <trkpt lat="64.06318" lon="20.49413">
        <ele>102.35288</ele>
        <time>2020-09-29T11:05:14.777Z</time>
      </trkpt>
      <trkpt lat="64.06094" lon="20.49165">
        <ele>104.383062</ele>
        <time>2020-09-29T11:06:12.810Z</time>
      </trkpt>
      <trkpt lat="64.05888" lon="20.48946">
        <ele>107.75006</ele>
        <time>2020-09-29T11:07:12.787Z</time>
      </trkpt>
      <trkpt lat="64.05686" lon="20.48826">
        <ele>112.598733</ele>
        <time>2020-09-29T11:08:12.779Z</time>
      </trkpt>
      <trkpt lat="64.05455" lon="20.48703">
        <ele>110.077308</ele>
        <time>2020-09-29T11:09:12.785Z</time>
      </trkpt>
      <trkpt lat="64.05247" lon="20.48591">
        <ele>105.618912</ele>
        <time>2020-09-29T11:10:00.813Z</time>
      </trkpt>
      <trkpt lat="64.05054" lon="20.48532">
        <ele>102.251285</ele>
        <time>2020-09-29T11:10:41.797Z</time>
      </trkpt>
      <trkpt lat="64.04815" lon="20.48497">
        <ele>105.640146</ele>
        <time>2020-09-29T11:11:35.802Z</time>
      </trkpt>
      <trkpt lat="64.04593" lon="20.48467">
        <ele>115.488589</ele>
        <time>2020-09-29T11:12:35.818Z</time>
      </trkpt>
      <trkpt lat="64.04374" lon="20.48435">
        <ele>110.749428</ele>
        <time>2020-09-29T11:13:25.795Z</time>
      </trkpt>
      <trkpt lat="64.04162" lon="20.48403">
        <ele>102.520196</ele>
        <time>2020-09-29T11:14:05.822Z</time>
      </trkpt>
      <trkpt lat="64.03959" lon="20.4838">
        <ele>105.495206</ele>
        <time>2020-09-29T11:14:49.770Z</time>
      </trkpt>
      <trkpt lat="64.03718" lon="20.48344">
        <ele>106.698671</ele>
        <time>2020-09-29T11:15:29.767Z</time>
      </trkpt>
      <trkpt lat="64.03498" lon="20.48302">
        <ele>101.907449</ele>
        <time>2020-09-29T11:16:09.789Z</time>
      </trkpt>
      <trkpt lat="64.03267" lon="20.4825">
        <ele>94.685378</ele>
        <time>2020-09-29T11:16:49.775Z</time>
      </trkpt>
      <trkpt lat="64.03022" lon="20.48189">
        <ele>92.170296</ele>
        <time>2020-09-29T11:17:34.828Z</time>
      </trkpt>
      <trkpt lat="64.02801" lon="20.48097">
        <ele>90.407047</ele>
        <time>2020-09-29T11:18:16.776Z</time>
      </trkpt>
      <trkpt lat="64.02608" lon="20.47889">
        <ele>90.867241</ele>
        <time>2020-09-29T11:19:07.790Z</time>
      </trkpt>
      <trkpt lat="64.02486" lon="20.47477">
        <ele>93.972164</ele>
        <time>2020-09-29T11:20:08.828Z</time>
      </trkpt>
      <trkpt lat="64.02366" lon="20.4706">
        <ele>97.69121</ele>
        <time>2020-09-29T11:21:12.798Z</time>
      </trkpt>
      <trkpt lat="64.02247" lon="20.46654">
        <ele>97.760228</ele>
        <time>2020-09-29T11:22:03.797Z</time>
      </trkpt>
      <trkpt lat="64.02125" lon="20.4623">
        <ele>92.612862</ele>
        <time>2020-09-29T11:22:43.783Z</time>
      </trkpt>
      <trkpt lat="64.02015" lon="20.45848">
        <ele>91.449188</ele>
        <time>2020-09-29T11:23:23.831Z</time>
      </trkpt>
      <trkpt lat="64.01872" lon="20.45438">
        <ele>97.121994</ele>
        <time>2020-09-29T11:24:22.797Z</time>
      </trkpt>
      <trkpt lat="64.01731" lon="20.45049">
        <ele>99.914625</ele>
        <time>2020-09-29T11:25:15.775Z</time>
      </trkpt>
      <trkpt lat="64.0157" lon="20.44585">
        <ele>91.943315</ele>
        <time>2020-09-29T11:25:55.788Z</time>
      </trkpt>
      <trkpt lat="64.01467" lon="20.44167">
        <ele>93.631226</ele>
        <time>2020-09-29T11:26:37.786Z</time>
      </trkpt>
      <trkpt lat="64.01356" lon="20.43731">
        <ele>91.904652</ele>
        <time>2020-09-29T11:27:26.774Z</time>
      </trkpt>
      <trkpt lat="64.01245" lon="20.4331">
        <ele>95.813807</ele>
        <time>2020-09-29T11:28:15.779Z</time>
      </trkpt>
      <trkpt lat="64.01144" lon="20.42896">
        <ele>101.660074</ele>
        <time>2020-09-29T11:29:18.778Z</time>
      </trkpt>
      <trkpt lat="64.01048" lon="20.42422">
        <ele>95.054874</ele>
        <time>2020-09-29T11:30:00.775Z</time>
      </trkpt>
      <trkpt lat="64.00947" lon="20.4192">
        <ele>89.325274</ele>
        <time>2020-09-29T11:30:40.778Z</time>
      </trkpt>
      <trkpt lat="64.0086" lon="20.41488">
        <ele>88.52737</ele>
        <time>2020-09-29T11:31:20.808Z</time>
      </trkpt>
      <trkpt lat="64.00769" lon="20.41041">
        <ele>88.346312</ele>
        <time>2020-09-29T11:32:00.801Z</time>
      </trkpt>
      <trkpt lat="64.00665" lon="20.4054">
        <ele>86.437167</ele>
        <time>2020-09-29T11:32:40.801Z</time>
      </trkpt>
      <trkpt lat="64.0057" lon="20.40068">
        <ele>84.021238</ele>
        <time>2020-09-29T11:33:26.780Z</time>
      </trkpt>
      <trkpt lat="64.00471" lon="20.39581">
        <ele>80.365782</ele>
        <time>2020-09-29T11:34:06.791Z</time>
      </trkpt>
      <trkpt lat="64.00362" lon="20.39167">
        <ele>76.595211</ele>
        <time>2020-09-29T11:34:46.799Z</time>
      </trkpt>
      <trkpt lat="64.00199" lon="20.38847">
        <ele>77.732227</ele>
        <time>2020-09-29T11:35:27.784Z</time>
      </trkpt>
      <trkpt lat="63.99991" lon="20.38717">
        <ele>82.695221</ele>
        <time>2020-09-29T11:36:15.839Z</time>
      </trkpt>
      <trkpt lat="63.99799" lon="20.3864">
        <ele>83.867821</ele>
        <time>2020-09-29T11:36:55.790Z</time>
      </trkpt>
      <trkpt lat="63.99606" lon="20.38563">
        <ele>84.366598</ele>
        <time>2020-09-29T11:37:35.827Z</time>
      </trkpt>
      <trkpt lat="63.99408" lon="20.38484">
        <ele>82.001283</ele>
        <time>2020-09-29T11:38:15.835Z</time>
      </trkpt>
      <trkpt lat="63.99202" lon="20.38316">
        <ele>85.116458</ele>
        <time>2020-09-29T11:39:10.789Z</time>
      </trkpt>
      <trkpt lat="63.99075" lon="20.37928">
        <ele>94.101601</ele>
        <time>2020-09-29T11:40:18.799Z</time>
      </trkpt>
      <trkpt lat="63.98954" lon="20.37544">
        <ele>108.330438</ele>
        <time>2020-09-29T11:41:30.816Z</time>
      </trkpt>
      <trkpt lat="63.98825" lon="20.37168">
        <ele>109.884626</ele>
        <time>2020-09-29T11:42:30.789Z</time>
      </trkpt>
      <trkpt lat="63.98659" lon="20.3681">
        <ele>103.881816</ele>
        <time>2020-09-29T11:43:21.813Z</time>
      </trkpt>
      <trkpt lat="63.98501" lon="20.36491">
        <ele>108.086698</ele>
        <time>2020-09-29T11:44:29.781Z</time>
      </trkpt>
      <trkpt lat="63.98328" lon="20.36158">
        <ele>105.183654</ele>
        <time>2020-09-29T11:45:29.807Z</time>
      </trkpt>
      <trkpt lat="63.98164" lon="20.35836">
        <ele>107.367056</ele>
        <time>2020-09-29T11:46:29.788Z</time>
      </trkpt>
      <trkpt lat="63.97989" lon="20.35478">
        <ele>109.114278</ele>
        <time>2020-09-29T11:47:27.776Z</time>
      </trkpt>
      <trkpt lat="63.97832" lon="20.35171">
        <ele>110.258117</ele>
        <time>2020-09-29T11:48:27.804Z</time>
      </trkpt>
      <trkpt lat="63.97649" lon="20.34816">
        <ele>117.329194</ele>
        <time>2020-09-29T11:49:30.778Z</time>
      </trkpt>
      <trkpt lat="63.97491" lon="20.3449">
        <ele>118.382796</ele>
        <time>2020-09-29T11:50:28.788Z</time>
      </trkpt>
      <trkpt lat="63.97342" lon="20.34181">
        <ele>117.448634</ele>
        <time>2020-09-29T11:51:10.796Z</time>
      </trkpt>
      <trkpt lat="63.97166" lon="20.3388">
        <ele>121.344024</ele>
        <time>2020-09-29T11:52:03.800Z</time>
      </trkpt>
      <trkpt lat="63.96964" lon="20.33597">
        <ele>121.651801</ele>
        <time>2020-09-29T11:53:03.775Z</time>
      </trkpt>
      <trkpt lat="63.96781" lon="20.33339">
        <ele>124.842985</ele>
        <time>2020-09-29T11:54:03.791Z</time>
      </trkpt>
      <trkpt lat="63.96598" lon="20.33083">
        <ele>126.867519</ele>
        <time>2020-09-29T11:54:59.781Z</time>
      </trkpt>
      <trkpt lat="63.96419" lon="20.32733">
        <ele>120.165997</ele>
        <time>2020-09-29T11:55:39.816Z</time>
      </trkpt>
      <trkpt lat="63.96262" lon="20.3242">
        <ele>121.665793</ele>
        <time>2020-09-29T11:56:21.814Z</time>
      </trkpt>
      <trkpt lat="63.96093" lon="20.32082">
        <ele>120.89488</ele>
        <time>2020-09-29T11:57:15.807Z</time>
      </trkpt>
      <trkpt lat="63.95912" lon="20.31721">
        <ele>113.833046</ele>
        <time>2020-09-29T11:57:57.806Z</time>
      </trkpt>
      <trkpt lat="63.95737" lon="20.31391">
        <ele>105.835002</ele>
        <time>2020-09-29T11:58:24.795Z</time>
      </trkpt>
      <trkpt lat="63.95534" lon="20.31148">
        <ele>102.886642</ele>
        <time>2020-09-29T11:58:51.804Z</time>
      </trkpt>
      <trkpt lat="63.95371" lon="20.30835">
        <ele>111.01912</ele>
        <time>2020-09-29T11:59:59.778Z</time>
      </trkpt>
      <trkpt lat="63.95201" lon="20.30529">
        <ele>109.266441</ele>
        <time>2020-09-29T12:00:53.819Z</time>
      </trkpt>
      <trkpt lat="63.94964" lon="20.30431">
        <ele>103.414142</ele>
        <time>2020-09-29T12:01:33.815Z</time>
      </trkpt>
      <trkpt lat="63.9469" lon="20.30393">
        <ele>94.056643</ele>
        <time>2020-09-29T12:02:07.789Z</time>
      </trkpt>
      <trkpt lat="63.94468" lon="20.304">
        <ele>86.053704</ele>
        <time>2020-09-29T12:02:43.786Z</time>
      </trkpt>
      <trkpt lat="63.9424" lon="20.3045">
        <ele>87.246793</ele>
        <time>2020-09-29T12:03:23.811Z</time>
      </trkpt>
      <trkpt lat="63.93996" lon="20.30283">
        <ele>93.292005</ele>
        <time>2020-09-29T12:04:25.800Z</time>
      </trkpt>
      <trkpt lat="63.93792" lon="20.30171">
        <ele>97.566057</ele>
        <time>2020-09-29T12:05:35.810Z</time>
      </trkpt>
      <trkpt lat="63.93567" lon="20.30077">
        <ele>87.109082</ele>
        <time>2020-09-29T12:06:09.795Z</time>
      </trkpt>
      <trkpt lat="63.93295" lon="20.30042">
        <ele>75.550088</ele>
        <time>2020-09-29T12:06:46.815Z</time>
      </trkpt>
      <trkpt lat="63.93047" lon="20.3006">
        <ele>73.519432</ele>
        <time>2020-09-29T12:07:26.796Z</time>
      </trkpt>
      <trkpt lat="63.92829" lon="20.30119">
        <ele>73.646242</ele>
        <time>2020-09-29T12:08:06.783Z</time>
      </trkpt>
      <trkpt lat="63.92624" lon="20.30214">
        <ele>77.9963</ele>
        <time>2020-09-29T12:09:02.825Z</time>
      </trkpt>
      <trkpt lat="63.92373" lon="20.30316">
        <ele>77.397433</ele>
        <time>2020-09-29T12:09:42.821Z</time>
      </trkpt>
      <trkpt lat="63.92129" lon="20.30453">
        <ele>70.45046</ele>
        <time>2020-09-29T12:10:22.799Z</time>
      </trkpt>
      <trkpt lat="63.91877" lon="20.30648">
        <ele>62.686105</ele>
        <time>2020-09-29T12:11:04.795Z</time>
      </trkpt>
      <trkpt lat="63.91657" lon="20.30784">
        <ele>60.318523</ele>
        <time>2020-09-29T12:11:44.799Z</time>
      </trkpt>
      <trkpt lat="63.91448" lon="20.30895">
        <ele>58.835512</ele>
        <time>2020-09-29T12:12:24.816Z</time>
      </trkpt>
      <trkpt lat="63.91229" lon="20.31007">
        <ele>56.492432</ele>
        <time>2020-09-29T12:13:04.827Z</time>
      </trkpt>
      <trkpt lat="63.91028" lon="20.31113">
        <ele>53.122856</ele>
        <time>2020-09-29T12:13:44.806Z</time>
      </trkpt>
      <trkpt lat="63.90824" lon="20.31218">
        <ele>53.295107</ele>
        <time>2020-09-29T12:14:28.793Z</time>
      </trkpt>
      <trkpt lat="63.90595" lon="20.31317">
        <ele>56.683897</ele>
        <time>2020-09-29T12:15:26.798Z</time>
      </trkpt>
      <trkpt lat="63.90373" lon="20.31401">
        <ele>62.021652</ele>
        <time>2020-09-29T12:16:26.829Z</time>
      </trkpt>
      <trkpt lat="63.90173" lon="20.31466">
        <ele>68.98137</ele>
        <time>2020-09-29T12:17:26.795Z</time>
      </trkpt>
      <trkpt lat="63.89958" lon="20.31485">
        <ele>73.20278</ele>
        <time>2020-09-29T12:18:29.830Z</time>
      </trkpt>
      <trkpt lat="63.89763" lon="20.31456">
        <ele>77.943852</ele>
        <time>2020-09-29T12:19:30.788Z</time>
      </trkpt>
      <trkpt lat="63.89564" lon="20.31391">
        <ele>82.670318</ele>
        <time>2020-09-29T12:20:36.777Z</time>
      </trkpt>
      <trkpt lat="63.89352" lon="20.31266">
        <ele>79.872711</ele>
        <time>2020-09-29T12:21:24.789Z</time>
      </trkpt>
      <trkpt lat="63.8915" lon="20.31377">
        <ele>71.922914</ele>
        <time>2020-09-29T12:22:13.803Z</time>
      </trkpt>
      <trkpt lat="63.88989" lon="20.31526">
        <ele>71.779443</ele>
        <time>2020-09-29T12:23:13.772Z</time>
      </trkpt>
      <trkpt lat="63.88778" lon="20.31644">
        <ele>67.874603</ele>
        <time>2020-09-29T12:24:03.795Z</time>
      </trkpt>
      <trkpt lat="63.88587" lon="20.31501">
        <ele>66.573912</ele>
        <time>2020-09-29T12:24:53.792Z</time>
      </trkpt>
      <trkpt lat="63.88397" lon="20.31394">
        <ele>61.032668</ele>
        <time>2020-09-29T12:25:41.803Z</time>
      </trkpt>
      <trkpt lat="63.88194" lon="20.31364">
        <ele>57.742125</ele>
        <time>2020-09-29T12:26:23.780Z</time>
      </trkpt>
      <trkpt lat="63.87977" lon="20.31327">
        <ele>53.892464</ele>
        <time>2020-09-29T12:27:05.796Z</time>
      </trkpt>
      <trkpt lat="63.87815" lon="20.31165">
        <ele>55.80836</ele>
        <time>2020-09-29T12:33:29.784Z</time>
      </trkpt>
      <trkpt lat="63.87636" lon="20.31069">
        <ele>54.492801</ele>
        <time>2020-09-29T12:34:53.778Z</time>
      </trkpt>
      <trkpt lat="63.87566" lon="20.30721">
        <ele>56.385939</ele>
        <time>2020-09-29T12:56:50.508Z</time>
      </trkpt>
      <trkpt lat="63.87343" lon="20.30719">
        <ele>55.891378</ele>
        <time>2020-09-29T12:57:47.507Z</time>
      </trkpt>
      <trkpt lat="63.8714" lon="20.30708">
        <ele>57.675913</ele>
        <time>2020-09-29T12:58:37.529Z</time>
      </trkpt>
      <trkpt lat="63.86922" lon="20.30663">
        <ele>61.531012</ele>
        <time>2020-09-29T12:59:37.555Z</time>
      </trkpt>
      <trkpt lat="63.86709" lon="20.30481">
        <ele>63.738573</ele>
        <time>2020-09-29T13:00:37.526Z</time>
      </trkpt>
      <trkpt lat="63.86477" lon="20.3037">
        <ele>68.54313</ele>
        <time>2020-09-29T13:01:36.522Z</time>
      </trkpt>
      <trkpt lat="63.86286" lon="20.30479">
        <ele>71.39354</ele>
        <time>2020-09-29T13:02:37.551Z</time>
      </trkpt>
      <trkpt lat="63.86067" lon="20.30324">
        <ele>70.426218</ele>
        <time>2020-09-29T13:03:36.521Z</time>
      </trkpt>
      <trkpt lat="63.85851" lon="20.30231">
        <ele>68.32567</ele>
        <time>2020-09-29T13:04:24.524Z</time>
      </trkpt>
      <trkpt lat="63.85675" lon="20.30146">
        <ele>73.316857</ele>
        <time>2020-09-29T13:05:10.518Z</time>
      </trkpt>
      <trkpt lat="63.85596" lon="20.29753">
        <ele>80.178818</ele>
        <time>2020-09-29T13:06:17.527Z</time>
      </trkpt>
      <trkpt lat="63.85389" lon="20.29625">
        <ele>76.916981</ele>
        <time>2020-09-29T13:07:11.501Z</time>
      </trkpt>
      <trkpt lat="63.85224" lon="20.29381">
        <ele>73.600852</ele>
        <time>2020-09-29T13:08:11.536Z</time>
      </trkpt>
      <trkpt lat="63.85039" lon="20.29075">
        <ele>70.911932</ele>
        <time>2020-09-29T13:08:57.517Z</time>
      </trkpt>
      <trkpt lat="63.84864" lon="20.28813">
        <ele>61.150849</ele>
        <time>2020-09-29T13:09:39.525Z</time>
      </trkpt>
      <trkpt lat="63.84737" lon="20.28344">
        <ele>56.470364</ele>
        <time>2020-09-29T13:10:10.517Z</time>
      </trkpt>
      <trkpt lat="63.84558" lon="20.27966">
        <ele>56.850623</ele>
        <time>2020-09-29T13:10:55.502Z</time>
      </trkpt>
      <trkpt lat="63.84339" lon="20.27626">
        <ele>49.649871</ele>
        <time>2020-09-29T13:11:35.515Z</time>
      </trkpt>
      <trkpt lat="63.84106" lon="20.2742">
        <ele>46.424821</ele>
        <time>2020-09-29T13:12:14.499Z</time>
      </trkpt>
      <trkpt lat="63.83896" lon="20.27317">
        <ele>47.420489</ele>
        <time>2020-09-29T13:12:54.521Z</time>
      </trkpt>
      <trkpt lat="63.83718" lon="20.2697">
        <ele>40.039037</ele>
        <time>2020-09-29T13:13:34.502Z</time>
      </trkpt>
      <trkpt lat="63.83527" lon="20.2674">
        <ele>41.402151</ele>
        <time>2020-09-29T13:14:26.524Z</time>
      </trkpt>
      <trkpt lat="63.83371" lon="20.26439">
        <ele>37.975196</ele>
        <time>2020-09-29T13:15:07.512Z</time>
      </trkpt>
      <trkpt lat="63.83305" lon="20.26045">
        <ele>40.895927</ele>
        <time>2020-09-29T13:20:53.530Z</time>
      </trkpt>
      <trkpt lat="63.83225" lon="20.25782">
        <ele>41.226326</ele>
        <time>2020-09-29T13:23:41.510Z</time>
      </trkpt>
      <trkpt lat="63.83252" lon="20.25521">
        <ele>46.886401</ele>
        <time>2020-09-29T13:27:48.511Z</time>
      </trkpt>
      <trkpt lat="63.83075" lon="20.25369">
        <ele>57.032198</ele>
        <time>2020-09-29T13:30:55.494Z</time>
      </trkpt>
      <trkpt lat="63.82931" lon="20.25428">
        <ele>50.559825</ele>
        <time>2020-09-29T13:33:19.506Z</time>
      </trkpt>
      <trkpt lat="63.82831" lon="20.25656">
        <ele>46.38542</ele>
        <time>2020-09-29T13:35:48.505Z</time>
      </trkpt>
    </trkseg>
  </trk>
  <trk>
    <name><![CDATA[Tour d'Europe: étape 095]]></name>
    <trkseg>
      <trkpt lat="63.827" lon="20.25631">
        <ele>47.909622</ele>
        <time>2020-10-01T08:17:08.278Z</time>
      </trkpt>
      <trkpt lat="63.8278" lon="20.25175">
        <ele>59.304386</ele>
        <time>2020-10-01T08:18:13.276Z</time>
      </trkpt>
      <trkpt lat="63.82608" lon="20.24987">
        <ele>48.851413</ele>
        <time>2020-10-01T08:19:02.263Z</time>
      </trkpt>
      <trkpt lat="63.82387" lon="20.24833">
        <ele>35.465793</ele>
        <time>2020-10-01T08:20:01.246Z</time>
      </trkpt>
      <trkpt lat="63.82192" lon="20.24638">
        <ele>43.196776</ele>
        <time>2020-10-01T08:21:06.283Z</time>
      </trkpt>
      <trkpt lat="63.82059" lon="20.24741">
        <ele>43.489392</ele>
        <time>2020-10-01T08:22:10.234Z</time>
      </trkpt>
      <trkpt lat="63.82114" lon="20.24488">
        <ele>42.670615</ele>
        <time>2020-10-01T08:23:23.268Z</time>
      </trkpt>
      <trkpt lat="63.81988" lon="20.24046">
        <ele>43.535306</ele>
        <time>2020-10-01T08:24:19.238Z</time>
      </trkpt>
      <trkpt lat="63.81868" lon="20.23609">
        <ele>50.308478</ele>
        <time>2020-10-01T08:25:16.250Z</time>
      </trkpt>
      <trkpt lat="63.81735" lon="20.23216">
        <ele>48.052975</ele>
        <time>2020-10-01T08:26:05.230Z</time>
      </trkpt>
      <trkpt lat="63.81674" lon="20.22628">
        <ele>38.08718</ele>
        <time>2020-10-01T08:26:47.262Z</time>
      </trkpt>
      <trkpt lat="63.81606" lon="20.22195">
        <ele>33.308149</ele>
        <time>2020-10-01T08:27:27.258Z</time>
      </trkpt>
      <trkpt lat="63.81479" lon="20.21824">
        <ele>36.333493</ele>
        <time>2020-10-01T08:28:10.245Z</time>
      </trkpt>
      <trkpt lat="63.81348" lon="20.21462">
        <ele>36.988115</ele>
        <time>2020-10-01T08:28:53.236Z</time>
      </trkpt>
      <trkpt lat="63.81233" lon="20.21033">
        <ele>32.932703</ele>
        <time>2020-10-01T08:29:41.261Z</time>
      </trkpt>
      <trkpt lat="63.81077" lon="20.20677">
        <ele>32.251095</ele>
        <time>2020-10-01T08:30:38.239Z</time>
      </trkpt>
      <trkpt lat="63.80936" lon="20.20428">
        <ele>38.146238</ele>
        <time>2020-10-01T08:31:38.247Z</time>
      </trkpt>
      <trkpt lat="63.80769" lon="20.20173">
        <ele>46.469554</ele>
        <time>2020-10-01T08:32:53.266Z</time>
      </trkpt>
      <trkpt lat="63.80564" lon="20.20067">
        <ele>46.431005</ele>
        <time>2020-10-01T08:33:46.252Z</time>
      </trkpt>
      <trkpt lat="63.80367" lon="20.20075">
        <ele>39.58006</ele>
        <time>2020-10-01T08:34:29.243Z</time>
      </trkpt>
      <trkpt lat="63.80123" lon="20.2017">
        <ele>45.36536</ele>
        <time>2020-10-01T08:35:28.255Z</time>
      </trkpt>
      <trkpt lat="63.79929" lon="20.20296">
        <ele>52.303693</ele>
        <time>2020-10-01T08:36:34.294Z</time>
      </trkpt>
      <trkpt lat="63.79724" lon="20.2046">
        <ele>52.518636</ele>
        <time>2020-10-01T08:37:25.241Z</time>
      </trkpt>
      <trkpt lat="63.7951" lon="20.20529">
        <ele>51.146978</ele>
        <time>2020-10-01T08:38:15.254Z</time>
      </trkpt>
      <trkpt lat="63.79311" lon="20.2051">
        <ele>54.835765</ele>
        <time>2020-10-01T08:39:15.265Z</time>
      </trkpt>
      <trkpt lat="63.79103" lon="20.20287">
        <ele>52.943281</ele>
        <time>2020-10-01T08:40:04.281Z</time>
      </trkpt>
      <trkpt lat="63.78906" lon="20.20119">
        <ele>48.623446</ele>
        <time>2020-10-01T08:40:46.257Z</time>
      </trkpt>
      <trkpt lat="63.78706" lon="20.19982">
        <ele>49.710206</ele>
        <time>2020-10-01T08:41:27.249Z</time>
      </trkpt>
      <trkpt lat="63.78494" lon="20.1985">
        <ele>50.975501</ele>
        <time>2020-10-01T08:42:09.237Z</time>
      </trkpt>
      <trkpt lat="63.7832" lon="20.19585">
        <ele>51.300154</ele>
        <time>2020-10-01T08:43:02.239Z</time>
      </trkpt>
      <trkpt lat="63.78151" lon="20.19352">
        <ele>57.199713</ele>
        <time>2020-10-01T08:43:59.286Z</time>
      </trkpt>
      <trkpt lat="63.7794" lon="20.19487">
        <ele>50.677352</ele>
        <time>2020-10-01T08:44:47.264Z</time>
      </trkpt>
      <trkpt lat="63.7774" lon="20.19613">
        <ele>47.452172</ele>
        <time>2020-10-01T08:45:35.247Z</time>
      </trkpt>
      <trkpt lat="63.7755" lon="20.19872">
        <ele>52.957824</ele>
        <time>2020-10-01T08:46:35.242Z</time>
      </trkpt>
      <trkpt lat="63.77344" lon="20.20028">
        <ele>51.152327</ele>
        <time>2020-10-01T08:47:21.264Z</time>
      </trkpt>
      <trkpt lat="63.77217" lon="20.20348">
        <ele>48.511607</ele>
        <time>2020-10-01T08:48:01.258Z</time>
      </trkpt>
      <trkpt lat="63.77015" lon="20.20424">
        <ele>48.648737</ele>
        <time>2020-10-01T08:48:45.249Z</time>
      </trkpt>
      <trkpt lat="63.76826" lon="20.20521">
        <ele>47.912967</ele>
        <time>2020-10-01T08:49:26.242Z</time>
      </trkpt>
      <trkpt lat="63.76628" lon="20.20655">
        <ele>48.555587</ele>
        <time>2020-10-01T08:50:11.265Z</time>
      </trkpt>
      <trkpt lat="63.76403" lon="20.208">
        <ele>49.159553</ele>
        <time>2020-10-01T08:51:06.259Z</time>
      </trkpt>
      <trkpt lat="63.76201" lon="20.20898">
        <ele>49.270785</ele>
        <time>2020-10-01T08:51:51.265Z</time>
      </trkpt>
      <trkpt lat="63.76018" lon="20.20869">
        <ele>50.77289</ele>
        <time>2020-10-01T08:52:32.266Z</time>
      </trkpt>
      <trkpt lat="63.75826" lon="20.20784">
        <ele>51.737808</ele>
        <time>2020-10-01T08:53:12.282Z</time>
      </trkpt>
      <trkpt lat="63.75633" lon="20.20709">
        <ele>47.76301</ele>
        <time>2020-10-01T08:53:53.261Z</time>
      </trkpt>
      <trkpt lat="63.75427" lon="20.20605">
        <ele>43.634616</ele>
        <time>2020-10-01T08:54:36.262Z</time>
      </trkpt>
      <trkpt lat="63.75207" lon="20.2046">
        <ele>52.949825</ele>
        <time>2020-10-01T08:55:36.274Z</time>
      </trkpt>
      <trkpt lat="63.75013" lon="20.20228">
        <ele>63.67358</ele>
        <time>2020-10-01T08:56:36.280Z</time>
      </trkpt>
      <trkpt lat="63.74821" lon="20.20027">
        <ele>62.78423</ele>
        <time>2020-10-01T08:57:22.265Z</time>
      </trkpt>
      <trkpt lat="63.74602" lon="20.19844">
        <ele>60.558964</ele>
        <time>2020-10-01T08:58:15.247Z</time>
      </trkpt>
      <trkpt lat="63.74356" lon="20.19699">
        <ele>71.708514</ele>
        <time>2020-10-01T09:04:41.238Z</time>
      </trkpt>
      <trkpt lat="63.74163" lon="20.19531">
        <ele>70.513856</ele>
        <time>2020-10-01T09:05:54.265Z</time>
      </trkpt>
      <trkpt lat="63.74001" lon="20.19272">
        <ele>74.001131</ele>
        <time>2020-10-01T09:07:11.267Z</time>
      </trkpt>
      <trkpt lat="63.73865" lon="20.18869">
        <ele>85.502189</ele>
        <time>2020-10-01T09:08:34.280Z</time>
      </trkpt>
      <trkpt lat="63.73689" lon="20.18622">
        <ele>81.816249</ele>
        <time>2020-10-01T09:09:34.261Z</time>
      </trkpt>
      <trkpt lat="63.73537" lon="20.18326">
        <ele>79.302583</ele>
        <time>2020-10-01T09:10:34.248Z</time>
      </trkpt>
      <trkpt lat="63.73349" lon="20.18151">
        <ele>77.493161</ele>
        <time>2020-10-01T09:11:15.270Z</time>
      </trkpt>
      <trkpt lat="63.73157" lon="20.17995">
        <ele>78.585132</ele>
        <time>2020-10-01T09:11:57.258Z</time>
      </trkpt>
      <trkpt lat="63.72958" lon="20.17909">
        <ele>80.615704</ele>
        <time>2020-10-01T09:12:37.271Z</time>
      </trkpt>
      <trkpt lat="63.72757" lon="20.17815">
        <ele>77.26565</ele>
        <time>2020-10-01T09:13:17.273Z</time>
      </trkpt>
      <trkpt lat="63.72558" lon="20.17664">
        <ele>78.114143</ele>
        <time>2020-10-01T09:18:37.258Z</time>
      </trkpt>
      <trkpt lat="63.72413" lon="20.17345">
        <ele>77.464779</ele>
        <time>2020-10-01T09:19:18.258Z</time>
      </trkpt>
      <trkpt lat="63.72248" lon="20.17069">
        <ele>72.212112</ele>
        <time>2020-10-01T09:20:06.254Z</time>
      </trkpt>
      <trkpt lat="63.72022" lon="20.16915">
        <ele>70.430631</ele>
        <time>2020-10-01T09:20:55.248Z</time>
      </trkpt>
      <trkpt lat="63.71767" lon="20.16818">
        <ele>63.860442</ele>
        <time>2020-10-01T09:21:35.307Z</time>
      </trkpt>
      <trkpt lat="63.71552" lon="20.16824">
        <ele>67.44426</ele>
        <time>2020-10-01T09:22:15.264Z</time>
      </trkpt>
      <trkpt lat="63.7135" lon="20.16644">
        <ele>68.888939</ele>
        <time>2020-10-01T09:22:55.259Z</time>
      </trkpt>
      <trkpt lat="63.7116" lon="20.16427">
        <ele>66.451979</ele>
        <time>2020-10-01T09:23:35.282Z</time>
      </trkpt>
      <trkpt lat="63.70978" lon="20.16207">
        <ele>65.997018</ele>
        <time>2020-10-01T09:24:15.261Z</time>
      </trkpt>
      <trkpt lat="63.70767" lon="20.15937">
        <ele>61.328008</ele>
        <time>2020-10-01T09:24:55.267Z</time>
      </trkpt>
      <trkpt lat="63.70604" lon="20.15577">
        <ele>62.231691</ele>
        <time>2020-10-01T09:25:46.262Z</time>
      </trkpt>
      <trkpt lat="63.70427" lon="20.15327">
        <ele>69.74545</ele>
        <time>2020-10-01T09:26:48.261Z</time>
      </trkpt>
      <trkpt lat="63.70251" lon="20.15069">
        <ele>72.105684</ele>
        <time>2020-10-01T09:27:48.247Z</time>
      </trkpt>
      <trkpt lat="63.7005" lon="20.14956">
        <ele>75.606043</ele>
        <time>2020-10-01T09:28:46.302Z</time>
      </trkpt>
      <trkpt lat="63.69839" lon="20.14738">
        <ele>69.931664</ele>
        <time>2020-10-01T09:29:29.286Z</time>
      </trkpt>
      <trkpt lat="63.6968" lon="20.14385">
        <ele>69.496592</ele>
        <time>2020-10-01T09:30:13.280Z</time>
      </trkpt>
      <trkpt lat="63.69536" lon="20.14102">
        <ele>69.904403</ele>
        <time>2020-10-01T09:30:54.260Z</time>
      </trkpt>
      <trkpt lat="63.69314" lon="20.13914">
        <ele>69.595207</ele>
        <time>2020-10-01T09:31:51.321Z</time>
      </trkpt>
      <trkpt lat="63.69112" lon="20.13876">
        <ele>66.127805</ele>
        <time>2020-10-01T09:32:34.284Z</time>
      </trkpt>
      <trkpt lat="63.68898" lon="20.13832">
        <ele>66.354654</ele>
        <time>2020-10-01T09:33:21.243Z</time>
      </trkpt>
      <trkpt lat="63.68684" lon="20.13685">
        <ele>66.480968</ele>
        <time>2020-10-01T09:34:12.251Z</time>
      </trkpt>
      <trkpt lat="63.68452" lon="20.13569">
        <ele>60.341691</ele>
        <time>2020-10-01T09:34:52.280Z</time>
      </trkpt>
      <trkpt lat="63.68223" lon="20.1353">
        <ele>55.471946</ele>
        <time>2020-10-01T09:35:32.283Z</time>
      </trkpt>
      <trkpt lat="63.68027" lon="20.13247">
        <ele>61.73162</ele>
        <time>2020-10-01T09:36:31.270Z</time>
      </trkpt>
      <trkpt lat="63.67836" lon="20.13115">
        <ele>60.496393</ele>
        <time>2020-10-01T09:37:21.253Z</time>
      </trkpt>
      <trkpt lat="63.6762" lon="20.12987">
        <ele>52.836374</ele>
        <time>2020-10-01T09:38:01.244Z</time>
      </trkpt>
      <trkpt lat="63.67455" lon="20.12695">
        <ele>52.237587</ele>
        <time>2020-10-01T09:38:47.325Z</time>
      </trkpt>
      <trkpt lat="63.67365" lon="20.12182">
        <ele>53.50008</ele>
        <time>2020-10-01T09:39:27.269Z</time>
      </trkpt>
      <trkpt lat="63.67375" lon="20.11547">
        <ele>40.445954</ele>
        <time>2020-10-01T09:40:04.303Z</time>
      </trkpt>
      <trkpt lat="63.67428" lon="20.11095">
        <ele>47.002911</ele>
        <time>2020-10-01T09:41:03.274Z</time>
      </trkpt>
      <trkpt lat="63.67532" lon="20.10718">
        <ele>59.371522</ele>
        <time>2020-10-01T09:42:58.269Z</time>
      </trkpt>
      <trkpt lat="63.67514" lon="20.1028">
        <ele>60.205794</ele>
        <time>2020-10-01T09:43:56.250Z</time>
      </trkpt>
      <trkpt lat="63.67447" lon="20.09811">
        <ele>59.715066</ele>
        <time>2020-10-01T09:44:59.284Z</time>
      </trkpt>
      <trkpt lat="63.67517" lon="20.09358">
        <ele>58.401968</ele>
        <time>2020-10-01T09:45:48.268Z</time>
      </trkpt>
      <trkpt lat="63.67589" lon="20.08886">
        <ele>59.011789</ele>
        <time>2020-10-01T09:46:37.268Z</time>
      </trkpt>
      <trkpt lat="63.67685" lon="20.08501">
        <ele>64.697999</ele>
        <time>2020-10-01T09:47:29.258Z</time>
      </trkpt>
      <trkpt lat="63.67721" lon="20.08017">
        <ele>67.377146</ele>
        <time>2020-10-01T09:48:17.292Z</time>
      </trkpt>
      <trkpt lat="63.67762" lon="20.07422">
        <ele>62.203889</ele>
        <time>2020-10-01T09:48:50.265Z</time>
      </trkpt>
      <trkpt lat="63.67756" lon="20.06954">
        <ele>46.199557</ele>
        <time>2020-10-01T09:49:11.281Z</time>
      </trkpt>
      <trkpt lat="63.67841" lon="20.0647">
        <ele>29.877444</ele>
        <time>2020-10-01T09:49:40.297Z</time>
      </trkpt>
      <trkpt lat="63.67958" lon="20.0606">
        <ele>29.597506</ele>
        <time>2020-10-01T09:50:20.299Z</time>
      </trkpt>
      <trkpt lat="63.68022" lon="20.05625">
        <ele>28.761927</ele>
        <time>2020-10-01T09:51:00.257Z</time>
      </trkpt>
      <trkpt lat="63.68068" lon="20.05166">
        <ele>36.817294</ele>
        <time>2020-10-01T09:51:44.289Z</time>
      </trkpt>
      <trkpt lat="63.68139" lon="20.04702">
        <ele>40.704064</ele>
        <time>2020-10-01T09:52:44.287Z</time>
      </trkpt>
      <trkpt lat="63.6817" lon="20.04218">
        <ele>40.545775</ele>
        <time>2020-10-01T09:53:41.270Z</time>
      </trkpt>
      <trkpt lat="63.68155" lon="20.03716">
        <ele>35.637924</ele>
        <time>2020-10-01T09:54:27.304Z</time>
      </trkpt>
      <trkpt lat="63.68085" lon="20.03266">
        <ele>38.3288</ele>
        <time>2020-10-01T09:55:07.260Z</time>
      </trkpt>
      <trkpt lat="63.67958" lon="20.02928">
        <ele>40.751403</ele>
        <time>2020-10-01T09:55:47.278Z</time>
      </trkpt>
      <trkpt lat="63.67936" lon="20.0248">
        <ele>39.240444</ele>
        <time>2020-10-01T09:56:43.266Z</time>
      </trkpt>
      <trkpt lat="63.68037" lon="20.02119">
        <ele>45.91493</ele>
        <time>2020-10-01T09:58:12.262Z</time>
      </trkpt>
      <trkpt lat="63.68076" lon="20.01622">
        <ele>41.958541</ele>
        <time>2020-10-01T09:58:56.267Z</time>
      </trkpt>
      <trkpt lat="63.68054" lon="20.01064">
        <ele>43.017698</ele>
        <time>2020-10-01T09:59:44.281Z</time>
      </trkpt>
      <trkpt lat="63.68014" lon="20.00804">
        <ele>41.399167</ele>
        <time>2020-10-01T10:00:47.266Z</time>
      </trkpt>
      <trkpt lat="63.67814" lon="20.00674">
        <ele>40.914126</ele>
        <time>2020-10-01T10:01:33.262Z</time>
      </trkpt>
      <trkpt lat="63.67707" lon="20.00281">
        <ele>32.429723</ele>
        <time>2020-10-01T10:02:21.268Z</time>
      </trkpt>
      <trkpt lat="63.6751" lon="20.00087">
        <ele>37.905866</ele>
        <time>2020-10-01T10:03:28.289Z</time>
      </trkpt>
      <trkpt lat="63.67344" lon="20.00089">
        <ele>32.908237</ele>
        <time>2020-10-01T10:04:14.266Z</time>
      </trkpt>
      <trkpt lat="63.67161" lon="20.00265">
        <ele>38.263759</ele>
        <time>2020-10-01T10:05:26.269Z</time>
      </trkpt>
      <trkpt lat="63.66978" lon="20.00069">
        <ele>43.990793</ele>
        <time>2020-10-01T10:06:08.283Z</time>
      </trkpt>
      <trkpt lat="63.66798" lon="19.99891">
        <ele>42.486354</ele>
        <time>2020-10-01T10:06:49.295Z</time>
      </trkpt>
      <trkpt lat="63.66608" lon="19.99862">
        <ele>38.130187</ele>
        <time>2020-10-01T10:07:29.270Z</time>
      </trkpt>
      <trkpt lat="63.66393" lon="19.99684">
        <ele>44.253321</ele>
        <time>2020-10-01T10:08:25.313Z</time>
      </trkpt>
      <trkpt lat="63.66206" lon="19.99551">
        <ele>42.861757</ele>
        <time>2020-10-01T10:09:07.275Z</time>
      </trkpt>
      <trkpt lat="63.65984" lon="19.99545">
        <ele>38.740375</ele>
        <time>2020-10-01T10:09:57.301Z</time>
      </trkpt>
      <trkpt lat="63.65773" lon="19.99536">
        <ele>38.819504</ele>
        <time>2020-10-01T10:10:44.301Z</time>
      </trkpt>
      <trkpt lat="63.65607" lon="19.99264">
        <ele>39.556709</ele>
        <time>2020-10-01T10:11:29.268Z</time>
      </trkpt>
      <trkpt lat="63.65443" lon="19.9898">
        <ele>39.097174</ele>
        <time>2020-10-01T10:12:15.279Z</time>
      </trkpt>
      <trkpt lat="63.65248" lon="19.98901">
        <ele>40.428016</ele>
        <time>2020-10-01T10:12:59.267Z</time>
      </trkpt>
      <trkpt lat="63.65069" lon="19.98747">
        <ele>47.162218</ele>
        <time>2020-10-01T10:14:03.278Z</time>
      </trkpt>
      <trkpt lat="63.64866" lon="19.98613">
        <ele>51.684206</ele>
        <time>2020-10-01T10:15:12.301Z</time>
      </trkpt>
      <trkpt lat="63.64744" lon="19.98253">
        <ele>52.155073</ele>
        <time>2020-10-01T10:16:10.262Z</time>
      </trkpt>
      <trkpt lat="63.64575" lon="19.97951">
        <ele>44.727583</ele>
        <time>2020-10-01T10:16:50.306Z</time>
      </trkpt>
      <trkpt lat="63.64456" lon="19.97544">
        <ele>48.364961</ele>
        <time>2020-10-01T10:18:01.272Z</time>
      </trkpt>
      <trkpt lat="63.64271" lon="19.97207">
        <ele>47.623804</ele>
        <time>2020-10-01T10:18:50.275Z</time>
      </trkpt>
      <trkpt lat="63.64185" lon="19.96769">
        <ele>45.74632</ele>
        <time>2020-10-01T10:19:40.298Z</time>
      </trkpt>
      <trkpt lat="63.64111" lon="19.96286">
        <ele>46.319158</ele>
        <time>2020-10-01T10:20:27.275Z</time>
      </trkpt>
      <trkpt lat="63.64123" lon="19.95816">
        <ele>45.46344</ele>
        <time>2020-10-01T10:21:39.277Z</time>
      </trkpt>
      <trkpt lat="63.63993" lon="19.95414">
        <ele>45.279951</ele>
        <time>2020-10-01T10:22:34.275Z</time>
      </trkpt>
      <trkpt lat="63.64097" lon="19.95013">
        <ele>51.981638</ele>
        <time>2020-10-01T10:23:41.272Z</time>
      </trkpt>
      <trkpt lat="63.64171" lon="19.94563">
        <ele>55.604115</ele>
        <time>2020-10-01T10:24:50.265Z</time>
      </trkpt>
      <trkpt lat="63.64128" lon="19.94082">
        <ele>48.31369</ele>
        <time>2020-10-01T10:25:22.285Z</time>
      </trkpt>
      <trkpt lat="63.64047" lon="19.9369">
        <ele>48.176946</ele>
        <time>2020-10-01T10:26:02.271Z</time>
      </trkpt>
      <trkpt lat="63.63935" lon="19.93225">
        <ele>42.962049</ele>
        <time>2020-10-01T10:26:33.281Z</time>
      </trkpt>
      <trkpt lat="63.63952" lon="19.92672">
        <ele>35.187033</ele>
        <time>2020-10-01T10:27:06.272Z</time>
      </trkpt>
      <trkpt lat="63.63847" lon="19.92294">
        <ele>35.921693</ele>
        <time>2020-10-01T10:27:47.285Z</time>
      </trkpt>
      <trkpt lat="63.63655" lon="19.92041">
        <ele>35.814009</ele>
        <time>2020-10-01T10:28:27.307Z</time>
      </trkpt>
      <trkpt lat="63.63439" lon="19.92128">
        <ele>33.168853</ele>
        <time>2020-10-01T10:29:07.306Z</time>
      </trkpt>
      <trkpt lat="63.63229" lon="19.92263">
        <ele>35.838996</ele>
        <time>2020-10-01T10:29:50.302Z</time>
      </trkpt>
      <trkpt lat="63.63016" lon="19.92309">
        <ele>38.82483</ele>
        <time>2020-10-01T10:30:32.285Z</time>
      </trkpt>
      <trkpt lat="63.62815" lon="19.92144">
        <ele>35.133861</ele>
        <time>2020-10-01T10:31:12.267Z</time>
      </trkpt>
      <trkpt lat="63.62629" lon="19.91931">
        <ele>32.132992</ele>
        <time>2020-10-01T10:31:52.322Z</time>
      </trkpt>
      <trkpt lat="63.62511" lon="19.91554">
        <ele>33.579486</ele>
        <time>2020-10-01T10:32:37.274Z</time>
      </trkpt>
      <trkpt lat="63.62399" lon="19.9115">
        <ele>31.495363</ele>
        <time>2020-10-01T10:33:18.282Z</time>
      </trkpt>
      <trkpt lat="63.62297" lon="19.90755">
        <ele>28.562274</ele>
        <time>2020-10-01T10:33:59.284Z</time>
      </trkpt>
      <trkpt lat="63.62281" lon="19.90321">
        <ele>28.043902</ele>
        <time>2020-10-01T10:34:39.271Z</time>
      </trkpt>
      <trkpt lat="63.62269" lon="19.89841">
        <ele>26.007699</ele>
        <time>2020-10-01T10:35:23.286Z</time>
      </trkpt>
      <trkpt lat="63.62167" lon="19.89462">
        <ele>31.579511</ele>
        <time>2020-10-01T10:36:06.303Z</time>
      </trkpt>
      <trkpt lat="63.62029" lon="19.89128">
        <ele>36.086383</ele>
        <time>2020-10-01T10:36:48.279Z</time>
      </trkpt>
      <trkpt lat="63.61877" lon="19.88816">
        <ele>38.262199</ele>
        <time>2020-10-01T10:37:46.285Z</time>
      </trkpt>
      <trkpt lat="63.61694" lon="19.88519">
        <ele>34.629443</ele>
        <time>2020-10-01T10:38:46.309Z</time>
      </trkpt>
      <trkpt lat="63.61544" lon="19.882">
        <ele>30.483821</ele>
        <time>2020-10-01T10:39:48.295Z</time>
      </trkpt>
      <trkpt lat="63.61384" lon="19.87822">
        <ele>26.228768</ele>
        <time>2020-10-01T10:40:28.285Z</time>
      </trkpt>
      <trkpt lat="63.61211" lon="19.87533">
        <ele>42.327562</ele>
        <time>2020-10-01T11:07:39.059Z</time>
      </trkpt>
      <trkpt lat="63.6104" lon="19.87171">
        <ele>35.770609</ele>
        <time>2020-10-01T11:08:27.048Z</time>
      </trkpt>
      <trkpt lat="63.6088" lon="19.86802">
        <ele>34.827377</ele>
        <time>2020-10-01T11:09:16.041Z</time>
      </trkpt>
      <trkpt lat="63.60719" lon="19.86431">
        <ele>27.639444</ele>
        <time>2020-10-01T11:10:03.071Z</time>
      </trkpt>
      <trkpt lat="63.6056" lon="19.86055">
        <ele>27.905287</ele>
        <time>2020-10-01T11:10:43.070Z</time>
      </trkpt>
      <trkpt lat="63.60376" lon="19.857">
        <ele>28.06214</ele>
        <time>2020-10-01T11:11:23.097Z</time>
      </trkpt>
      <trkpt lat="63.60162" lon="19.856">
        <ele>26.922594</ele>
        <time>2020-10-01T11:12:03.062Z</time>
      </trkpt>
      <trkpt lat="63.59971" lon="19.85376">
        <ele>25.284664</ele>
        <time>2020-10-01T11:12:43.055Z</time>
      </trkpt>
      <trkpt lat="63.59794" lon="19.85074">
        <ele>24.530277</ele>
        <time>2020-10-01T11:13:23.049Z</time>
      </trkpt>
      <trkpt lat="63.59625" lon="19.84805">
        <ele>23.574252</ele>
        <time>2020-10-01T11:14:03.056Z</time>
      </trkpt>
      <trkpt lat="63.5942" lon="19.84645">
        <ele>26.406853</ele>
        <time>2020-10-01T11:14:52.105Z</time>
      </trkpt>
      <trkpt lat="63.59201" lon="19.84477">
        <ele>28.529172</ele>
        <time>2020-10-01T11:15:47.067Z</time>
      </trkpt>
      <trkpt lat="63.58991" lon="19.84315">
        <ele>34.26999</ele>
        <time>2020-10-01T11:16:39.099Z</time>
      </trkpt>
      <trkpt lat="63.58796" lon="19.84175">
        <ele>36.455576</ele>
        <time>2020-10-01T11:17:24.063Z</time>
      </trkpt>
      <trkpt lat="63.58572" lon="19.84061">
        <ele>35.158905</ele>
        <time>2020-10-01T11:18:16.053Z</time>
      </trkpt>
      <trkpt lat="63.58377" lon="19.83831">
        <ele>33.614852</ele>
        <time>2020-10-01T11:19:01.059Z</time>
      </trkpt>
      <trkpt lat="63.58144" lon="19.83523">
        <ele>30.726017</ele>
        <time>2020-10-01T11:19:43.075Z</time>
      </trkpt>
      <trkpt lat="63.57951" lon="19.83305">
        <ele>30.236148</ele>
        <time>2020-10-01T11:20:24.051Z</time>
      </trkpt>
      <trkpt lat="63.57739" lon="19.83073">
        <ele>26.199386</ele>
        <time>2020-10-01T11:21:04.060Z</time>
      </trkpt>
      <trkpt lat="63.57534" lon="19.83002">
        <ele>35.261997</ele>
        <time>2020-10-01T11:21:56.048Z</time>
      </trkpt>
      <trkpt lat="63.57316" lon="19.82912">
        <ele>40.324849</ele>
        <time>2020-10-01T11:22:56.058Z</time>
      </trkpt>
      <trkpt lat="63.57126" lon="19.82707">
        <ele>45.177707</ele>
        <time>2020-10-01T11:24:05.048Z</time>
      </trkpt>
      <trkpt lat="63.56903" lon="19.82389">
        <ele>39.348386</ele>
        <time>2020-10-01T11:24:47.064Z</time>
      </trkpt>
      <trkpt lat="63.56766" lon="19.81981">
        <ele>33.889696</ele>
        <time>2020-10-01T11:25:40.049Z</time>
      </trkpt>
      <trkpt lat="63.56665" lon="19.81544">
        <ele>39.067357</ele>
        <time>2020-10-01T11:26:44.058Z</time>
      </trkpt>
      <trkpt lat="63.56635" lon="19.81079">
        <ele>41.440532</ele>
        <time>2020-10-01T11:27:43.077Z</time>
      </trkpt>
      <trkpt lat="63.56641" lon="19.80588">
        <ele>39.27255</ele>
        <time>2020-10-01T11:28:27.072Z</time>
      </trkpt>
      <trkpt lat="63.56646" lon="19.80133">
        <ele>43.652763</ele>
        <time>2020-10-01T11:29:27.070Z</time>
      </trkpt>
      <trkpt lat="63.56579" lon="19.79523">
        <ele>40.80647</ele>
        <time>2020-10-01T11:30:08.078Z</time>
      </trkpt>
      <trkpt lat="63.56545" lon="19.79056">
        <ele>43.861199</ele>
        <time>2020-10-01T11:31:07.073Z</time>
      </trkpt>
      <trkpt lat="63.56482" lon="19.78567">
        <ele>42.39425</ele>
        <time>2020-10-01T11:31:55.086Z</time>
      </trkpt>
      <trkpt lat="63.56437" lon="19.78022">
        <ele>35.498105</ele>
        <time>2020-10-01T11:32:35.048Z</time>
      </trkpt>
      <trkpt lat="63.56398" lon="19.77561">
        <ele>35.804495</ele>
        <time>2020-10-01T11:33:26.063Z</time>
      </trkpt>
      <trkpt lat="63.56351" lon="19.76992">
        <ele>34.357982</ele>
        <time>2020-10-01T11:34:07.080Z</time>
      </trkpt>
      <trkpt lat="63.56318" lon="19.76501">
        <ele>37.84991</ele>
        <time>2020-10-01T11:35:00.047Z</time>
      </trkpt>
      <trkpt lat="63.56305" lon="19.76046">
        <ele>39.609055</ele>
        <time>2020-10-01T11:36:03.060Z</time>
      </trkpt>
      <trkpt lat="63.563" lon="19.75521">
        <ele>41.107326</ele>
        <time>2020-10-01T11:36:54.099Z</time>
      </trkpt>
      <trkpt lat="63.5619" lon="19.75108">
        <ele>44.896618</ele>
        <time>2020-10-01T11:37:58.066Z</time>
      </trkpt>
      <trkpt lat="63.56114" lon="19.74545">
        <ele>39.638637</ele>
        <time>2020-10-01T11:38:51.068Z</time>
      </trkpt>
      <trkpt lat="63.56098" lon="19.74015">
        <ele>34.816317</ele>
        <time>2020-10-01T11:39:30.061Z</time>
      </trkpt>
      <trkpt lat="63.56063" lon="19.7348">
        <ele>31.20581</ele>
        <time>2020-10-01T11:40:05.061Z</time>
      </trkpt>
      <trkpt lat="63.56086" lon="19.7299">
        <ele>36.75923</ele>
        <time>2020-10-01T11:40:45.046Z</time>
      </trkpt>
      <trkpt lat="63.56116" lon="19.72517">
        <ele>39.609627</ele>
        <time>2020-10-01T11:41:25.107Z</time>
      </trkpt>
      <trkpt lat="63.56141" lon="19.72058">
        <ele>35.720229</ele>
        <time>2020-10-01T11:42:05.088Z</time>
      </trkpt>
      <trkpt lat="63.56168" lon="19.71632">
        <ele>37.863205</ele>
        <time>2020-10-01T11:42:45.078Z</time>
      </trkpt>
      <trkpt lat="63.56195" lon="19.71185">
        <ele>39.024863</ele>
        <time>2020-10-01T11:43:28.058Z</time>
      </trkpt>
      <trkpt lat="63.56254" lon="19.70765">
        <ele>36.01479</ele>
        <time>2020-10-01T11:44:09.063Z</time>
      </trkpt>
      <trkpt lat="63.56325" lon="19.70335">
        <ele>39.432797</ele>
        <time>2020-10-01T11:44:53.045Z</time>
      </trkpt>
      <trkpt lat="63.56309" lon="19.69848">
        <ele>37.538916</ele>
        <time>2020-10-01T11:45:33.092Z</time>
      </trkpt>
      <trkpt lat="63.56153" lon="19.69588">
        <ele>33.916867</ele>
        <time>2020-10-01T11:46:13.075Z</time>
      </trkpt>
      <trkpt lat="63.56164" lon="19.69126">
        <ele>36.673041</ele>
        <time>2020-10-01T11:47:09.096Z</time>
      </trkpt>
      <trkpt lat="63.56227" lon="19.68669">
        <ele>44.808221</ele>
        <time>2020-10-01T11:48:21.069Z</time>
      </trkpt>
      <trkpt lat="63.5636" lon="19.68249">
        <ele>43.127812</ele>
        <time>2020-10-01T11:49:15.064Z</time>
      </trkpt>
      <trkpt lat="63.56492" lon="19.6786">
        <ele>46.241292</ele>
        <time>2020-10-01T11:50:14.066Z</time>
      </trkpt>
      <trkpt lat="63.56626" lon="19.67458">
        <ele>48.767065</ele>
        <time>2020-10-01T11:51:14.079Z</time>
      </trkpt>
      <trkpt lat="63.56755" lon="19.67083">
        <ele>44.849156</ele>
        <time>2020-10-01T11:51:57.099Z</time>
      </trkpt>
      <trkpt lat="63.56904" lon="19.66747">
        <ele>45.037011</ele>
        <time>2020-10-01T11:52:50.062Z</time>
      </trkpt>
      <trkpt lat="63.57119" lon="19.66593">
        <ele>46.91251</ele>
        <time>2020-10-01T11:53:58.064Z</time>
      </trkpt>
      <trkpt lat="63.57343" lon="19.66443">
        <ele>47.928066</ele>
        <time>2020-10-01T11:54:58.055Z</time>
      </trkpt>
      <trkpt lat="63.57558" lon="19.66303">
        <ele>47.662933</ele>
        <time>2020-10-01T11:55:51.059Z</time>
      </trkpt>
      <trkpt lat="63.57672" lon="19.66015">
        <ele>49.062452</ele>
        <time>2020-10-01T11:56:42.070Z</time>
      </trkpt>
      <trkpt lat="63.57633" lon="19.6555">
        <ele>54.995049</ele>
        <time>2020-10-01T11:57:29.080Z</time>
      </trkpt>
      <trkpt lat="63.5763" lon="19.6508">
        <ele>52.737155</ele>
        <time>2020-10-01T11:58:27.080Z</time>
      </trkpt>
      <trkpt lat="63.57644" lon="19.64637">
        <ele>55.088538</ele>
        <time>2020-10-01T11:59:29.077Z</time>
      </trkpt>
      <trkpt lat="63.57648" lon="19.64189">
        <ele>62.951665</ele>
        <time>2020-10-01T12:00:34.062Z</time>
      </trkpt>
      <trkpt lat="63.57643" lon="19.63709">
        <ele>71.305119</ele>
        <time>2020-10-01T12:01:51.076Z</time>
      </trkpt>
      <trkpt lat="63.57606" lon="19.63262">
        <ele>76.533745</ele>
        <time>2020-10-01T12:03:18.110Z</time>
      </trkpt>
      <trkpt lat="63.57548" lon="19.62833">
        <ele>84.263275</ele>
        <time>2020-10-01T12:04:44.058Z</time>
      </trkpt>
      <trkpt lat="63.57453" lon="19.62453">
        <ele>88.120985</ele>
        <time>2020-10-01T12:06:07.080Z</time>
      </trkpt>
      <trkpt lat="63.57366" lon="19.62044">
        <ele>93.3148</ele>
        <time>2020-10-01T12:07:28.072Z</time>
      </trkpt>
      <trkpt lat="63.57454" lon="19.61479">
        <ele>76.596524</ele>
        <time>2020-10-01T12:08:09.077Z</time>
      </trkpt>
      <trkpt lat="63.57507" lon="19.60907">
        <ele>71.427876</ele>
        <time>2020-10-01T12:08:56.078Z</time>
      </trkpt>
      <trkpt lat="63.57568" lon="19.60424">
        <ele>77.299559</ele>
        <time>2020-10-01T12:09:56.099Z</time>
      </trkpt>
      <trkpt lat="63.57652" lon="19.5999">
        <ele>79.412672</ele>
        <time>2020-10-01T12:11:03.086Z</time>
      </trkpt>
      <trkpt lat="63.57735" lon="19.59553">
        <ele>83.064692</ele>
        <time>2020-10-01T12:12:12.066Z</time>
      </trkpt>
      <trkpt lat="63.57744" lon="19.59062">
        <ele>88.480209</ele>
        <time>2020-10-01T12:13:11.060Z</time>
      </trkpt>
      <trkpt lat="63.5772" lon="19.58448">
        <ele>70.668383</ele>
        <time>2020-10-01T12:13:51.076Z</time>
      </trkpt>
      <trkpt lat="63.57708" lon="19.57937">
        <ele>68.31026</ele>
        <time>2020-10-01T12:14:31.056Z</time>
      </trkpt>
      <trkpt lat="63.57695" lon="19.57444">
        <ele>71.759299</ele>
        <time>2020-10-01T12:15:13.096Z</time>
      </trkpt>
      <trkpt lat="63.5772" lon="19.56977">
        <ele>74.86682</ele>
        <time>2020-10-01T12:15:58.067Z</time>
      </trkpt>
      <trkpt lat="63.5782" lon="19.56597">
        <ele>77.599163</ele>
        <time>2020-10-01T12:16:59.092Z</time>
      </trkpt>
      <trkpt lat="63.57997" lon="19.5632">
        <ele>70.626917</ele>
        <time>2020-10-01T12:17:50.073Z</time>
      </trkpt>
      <trkpt lat="63.58135" lon="19.55925">
        <ele>68.407501</ele>
        <time>2020-10-01T12:18:34.081Z</time>
      </trkpt>
      <trkpt lat="63.58247" lon="19.55517">
        <ele>68.112805</ele>
        <time>2020-10-01T12:19:20.067Z</time>
      </trkpt>
      <trkpt lat="63.58319" lon="19.55043">
        <ele>66.742533</ele>
        <time>2020-10-01T12:20:10.105Z</time>
      </trkpt>
      <trkpt lat="63.58304" lon="19.54581">
        <ele>71.418223</ele>
        <time>2020-10-01T12:20:52.068Z</time>
      </trkpt>
      <trkpt lat="63.58254" lon="19.54163">
        <ele>72.351238</ele>
        <time>2020-10-01T12:21:32.093Z</time>
      </trkpt>
      <trkpt lat="63.58072" lon="19.53902">
        <ele>70.899806</ele>
        <time>2020-10-01T12:22:17.075Z</time>
      </trkpt>
      <trkpt lat="63.57957" lon="19.53528">
        <ele>67.606963</ele>
        <time>2020-10-01T12:23:02.080Z</time>
      </trkpt>
      <trkpt lat="63.57931" lon="19.5309">
        <ele>64.913249</ele>
        <time>2020-10-01T12:23:55.072Z</time>
      </trkpt>
      <trkpt lat="63.57732" lon="19.52686">
        <ele>56.371287</ele>
        <time>2020-10-01T12:24:35.063Z</time>
      </trkpt>
      <trkpt lat="63.57507" lon="19.52613">
        <ele>55.990766</ele>
        <time>2020-10-01T12:25:15.077Z</time>
      </trkpt>
      <trkpt lat="63.57268" lon="19.52453">
        <ele>49.750855</ele>
        <time>2020-10-01T12:25:55.077Z</time>
      </trkpt>
      <trkpt lat="63.5703" lon="19.52242">
        <ele>42.142148</ele>
        <time>2020-10-01T12:26:35.071Z</time>
      </trkpt>
      <trkpt lat="63.56983" lon="19.51742">
        <ele>35.84807</ele>
        <time>2020-10-01T12:27:15.101Z</time>
      </trkpt>
      <trkpt lat="63.56934" lon="19.51214">
        <ele>31.914455</ele>
        <time>2020-10-01T12:27:55.104Z</time>
      </trkpt>
      <trkpt lat="63.56886" lon="19.50712">
        <ele>33.858342</ele>
        <time>2020-10-01T12:28:35.083Z</time>
      </trkpt>
      <trkpt lat="63.56827" lon="19.50303">
        <ele>43.91811</ele>
        <time>2020-10-01T12:29:28.082Z</time>
      </trkpt>
      <trkpt lat="63.56735" lon="19.49924">
        <ele>43.358846</ele>
        <time>2020-10-01T12:30:17.103Z</time>
      </trkpt>
      <trkpt lat="63.56688" lon="19.49531">
        <ele>31.495121</ele>
        <time>2020-10-01T12:59:14.047Z</time>
      </trkpt>
      <trkpt lat="63.5686" lon="19.49365">
        <ele>33.452547</ele>
        <time>2020-10-01T13:02:13.103Z</time>
      </trkpt>
      <trkpt lat="63.57006" lon="19.48985">
        <ele>34.634646</ele>
        <time>2020-10-01T13:03:04.075Z</time>
      </trkpt>
      <trkpt lat="63.5713" lon="19.48588">
        <ele>31.79411</ele>
        <time>2020-10-01T13:03:52.116Z</time>
      </trkpt>
      <trkpt lat="63.57221" lon="19.48206">
        <ele>31.236377</ele>
        <time>2020-10-01T13:04:33.106Z</time>
      </trkpt>
      <trkpt lat="63.573" lon="19.47773">
        <ele>30.781572</ele>
        <time>2020-10-01T13:05:19.124Z</time>
      </trkpt>
      <trkpt lat="63.57345" lon="19.47295">
        <ele>31.823954</ele>
        <time>2020-10-01T13:06:07.065Z</time>
      </trkpt>
      <trkpt lat="63.57386" lon="19.46865">
        <ele>32.245712</ele>
        <time>2020-10-01T13:06:50.098Z</time>
      </trkpt>
      <trkpt lat="63.57435" lon="19.46337">
        <ele>31.216002</ele>
        <time>2020-10-01T13:07:48.106Z</time>
      </trkpt>
      <trkpt lat="63.57551" lon="19.45949">
        <ele>34.704597</ele>
        <time>2020-10-01T13:08:52.081Z</time>
      </trkpt>
    </trkseg>
  </trk>
  <trk>
    <name><![CDATA[Tour d'Europe: étape 096]]></name>
    <trkseg>
      <trkpt lat="63.57458" lon="19.45701">
        <ele>30.544807</ele>
        <time>2020-10-02T08:06:27.584Z</time>
      </trkpt>
      <trkpt lat="63.57597" lon="19.45928">
        <ele>31.811516</ele>
        <time>2020-10-02T08:08:43.594Z</time>
      </trkpt>
      <trkpt lat="63.57703" lon="19.45604">
        <ele>39.056891</ele>
        <time>2020-10-02T08:09:46.576Z</time>
      </trkpt>
      <trkpt lat="63.57843" lon="19.45276">
        <ele>44.494643</ele>
        <time>2020-10-02T08:11:04.613Z</time>
      </trkpt>
      <trkpt lat="63.58003" lon="19.45058">
        <ele>42.584408</ele>
        <time>2020-10-02T08:12:13.581Z</time>
      </trkpt>
      <trkpt lat="63.58129" lon="19.44746">
        <ele>42.984002</ele>
        <time>2020-10-02T08:13:15.560Z</time>
      </trkpt>
      <trkpt lat="63.58155" lon="19.44368">
        <ele>38.730718</ele>
        <time>2020-10-02T08:14:23.562Z</time>
      </trkpt>
      <trkpt lat="63.58004" lon="19.4403">
        <ele>36.667183</ele>
        <time>2020-10-02T08:15:10.603Z</time>
      </trkpt>
      <trkpt lat="63.57837" lon="19.43652">
        <ele>30.367521</ele>
        <time>2020-10-02T08:15:50.567Z</time>
      </trkpt>
      <trkpt lat="63.57645" lon="19.43336">
        <ele>29.360287</ele>
        <time>2020-10-02T08:16:30.579Z</time>
      </trkpt>
      <trkpt lat="63.57427" lon="19.43092">
        <ele>27.713126</ele>
        <time>2020-10-02T08:17:10.583Z</time>
      </trkpt>
      <trkpt lat="63.57236" lon="19.42786">
        <ele>28.084288</ele>
        <time>2020-10-02T08:17:50.602Z</time>
      </trkpt>
      <trkpt lat="63.57055" lon="19.42551">
        <ele>35.068904</ele>
        <time>2020-10-02T08:18:30.568Z</time>
      </trkpt>
      <trkpt lat="63.5686" lon="19.42343">
        <ele>45.811289</ele>
        <time>2020-10-02T08:19:26.584Z</time>
      </trkpt>
      <trkpt lat="63.56647" lon="19.41988">
        <ele>38.951419</ele>
        <time>2020-10-02T08:20:06.591Z</time>
      </trkpt>
      <trkpt lat="63.56493" lon="19.41637">
        <ele>27.025128</ele>
        <time>2020-10-02T08:20:46.581Z</time>
      </trkpt>
      <trkpt lat="63.5635" lon="19.41309">
        <ele>27.267488</ele>
        <time>2020-10-02T08:21:26.567Z</time>
      </trkpt>
      <trkpt lat="63.56177" lon="19.41094">
        <ele>29.339703</ele>
        <time>2020-10-02T08:22:06.567Z</time>
      </trkpt>
      <trkpt lat="63.56024" lon="19.40816">
        <ele>27.57958</ele>
        <time>2020-10-02T08:22:46.571Z</time>
      </trkpt>
      <trkpt lat="63.5588" lon="19.4048">
        <ele>30.593618</ele>
        <time>2020-10-02T08:23:31.578Z</time>
      </trkpt>
      <trkpt lat="63.55751" lon="19.40178">
        <ele>32.453429</ele>
        <time>2020-10-02T08:24:11.589Z</time>
      </trkpt>
      <trkpt lat="63.55594" lon="19.39858">
        <ele>39.343676</ele>
        <time>2020-10-02T08:25:14.579Z</time>
      </trkpt>
      <trkpt lat="63.5541" lon="19.39641">
        <ele>41.543504</ele>
        <time>2020-10-02T08:26:01.570Z</time>
      </trkpt>
      <trkpt lat="63.55188" lon="19.39394">
        <ele>33.959883</ele>
        <time>2020-10-02T08:26:41.584Z</time>
      </trkpt>
      <trkpt lat="63.55015" lon="19.3904">
        <ele>33.769334</ele>
        <time>2020-10-02T08:27:30.567Z</time>
      </trkpt>
      <trkpt lat="63.549" lon="19.38627">
        <ele>36.889434</ele>
        <time>2020-10-02T08:28:28.560Z</time>
      </trkpt>
      <trkpt lat="63.54849" lon="19.38185">
        <ele>34.901645</ele>
        <time>2020-10-02T08:29:12.558Z</time>
      </trkpt>
      <trkpt lat="63.54774" lon="19.37654">
        <ele>38.326699</ele>
        <time>2020-10-02T08:30:09.567Z</time>
      </trkpt>
      <trkpt lat="63.54623" lon="19.37352">
        <ele>38.007888</ele>
        <time>2020-10-02T08:30:51.564Z</time>
      </trkpt>
      <trkpt lat="63.54442" lon="19.37165">
        <ele>36.213648</ele>
        <time>2020-10-02T08:31:31.565Z</time>
      </trkpt>
      <trkpt lat="63.54246" lon="19.37033">
        <ele>33.570271</ele>
        <time>2020-10-02T08:32:11.617Z</time>
      </trkpt>
      <trkpt lat="63.54055" lon="19.36906">
        <ele>32.874426</ele>
        <time>2020-10-02T08:32:51.586Z</time>
      </trkpt>
      <trkpt lat="63.53866" lon="19.36779">
        <ele>33.325586</ele>
        <time>2020-10-02T08:33:32.577Z</time>
      </trkpt>
      <trkpt lat="63.53669" lon="19.36653">
        <ele>33.612535</ele>
        <time>2020-10-02T08:34:12.578Z</time>
      </trkpt>
      <trkpt lat="63.53474" lon="19.36575">
        <ele>35.073765</ele>
        <time>2020-10-02T08:34:52.576Z</time>
      </trkpt>
      <trkpt lat="63.53276" lon="19.36581">
        <ele>37.939014</ele>
        <time>2020-10-02T08:35:32.577Z</time>
      </trkpt>
      <trkpt lat="63.53067" lon="19.36572">
        <ele>38.74915</ele>
        <time>2020-10-02T08:36:14.565Z</time>
      </trkpt>
      <trkpt lat="63.5286" lon="19.36415">
        <ele>42.343352</ele>
        <time>2020-10-02T08:37:05.581Z</time>
      </trkpt>
      <trkpt lat="63.52664" lon="19.36211">
        <ele>45.901745</ele>
        <time>2020-10-02T08:38:05.589Z</time>
      </trkpt>
      <trkpt lat="63.52454" lon="19.36074">
        <ele>40.972139</ele>
        <time>2020-10-02T08:38:59.590Z</time>
      </trkpt>
      <trkpt lat="63.52244" lon="19.36037">
        <ele>36.768922</ele>
        <time>2020-10-02T08:39:41.578Z</time>
      </trkpt>
      <trkpt lat="63.52037" lon="19.35998">
        <ele>37.981155</ele>
        <time>2020-10-02T08:40:21.564Z</time>
      </trkpt>
      <trkpt lat="63.51848" lon="19.35812">
        <ele>42.33017</ele>
        <time>2020-10-02T08:41:03.605Z</time>
      </trkpt>
      <trkpt lat="63.51704" lon="19.35513">
        <ele>39.303007</ele>
        <time>2020-10-02T08:41:44.603Z</time>
      </trkpt>
      <trkpt lat="63.51621" lon="19.35111">
        <ele>40.782565</ele>
        <time>2020-10-02T08:42:24.585Z</time>
      </trkpt>
      <trkpt lat="63.51512" lon="19.3473">
        <ele>39.033484</ele>
        <time>2020-10-02T08:43:04.576Z</time>
      </trkpt>
      <trkpt lat="63.5135" lon="19.34476">
        <ele>37.081326</ele>
        <time>2020-10-02T08:43:44.561Z</time>
      </trkpt>
      <trkpt lat="63.51172" lon="19.34186">
        <ele>32.443779</ele>
        <time>2020-10-02T08:44:24.579Z</time>
      </trkpt>
      <trkpt lat="63.51016" lon="19.33874">
        <ele>34.000387</ele>
        <time>2020-10-02T08:45:04.581Z</time>
      </trkpt>
      <trkpt lat="63.50851" lon="19.33528">
        <ele>41.108254</ele>
        <time>2020-10-02T08:45:56.623Z</time>
      </trkpt>
      <trkpt lat="63.5073" lon="19.33154">
        <ele>47.241065</ele>
        <time>2020-10-02T08:46:59.570Z</time>
      </trkpt>
      <trkpt lat="63.50542" lon="19.33031">
        <ele>48.382794</ele>
        <time>2020-10-02T08:47:45.581Z</time>
      </trkpt>
      <trkpt lat="63.50323" lon="19.32979">
        <ele>45.500151</ele>
        <time>2020-10-02T08:48:25.583Z</time>
      </trkpt>
      <trkpt lat="63.50082" lon="19.32613">
        <ele>32.449691</ele>
        <time>2020-10-02T08:49:05.627Z</time>
      </trkpt>
      <trkpt lat="63.49911" lon="19.32272">
        <ele>32.883824</ele>
        <time>2020-10-02T08:49:49.571Z</time>
      </trkpt>
      <trkpt lat="63.49733" lon="19.32023">
        <ele>42.583905</ele>
        <time>2020-10-02T08:50:52.580Z</time>
      </trkpt>
      <trkpt lat="63.4953" lon="19.31957">
        <ele>44.787108</ele>
        <time>2020-10-02T08:51:59.579Z</time>
      </trkpt>
      <trkpt lat="63.49329" lon="19.31801">
        <ele>48.087172</ele>
        <time>2020-10-02T08:52:54.568Z</time>
      </trkpt>
      <trkpt lat="63.4917" lon="19.31555">
        <ele>53.088413</ele>
        <time>2020-10-02T08:53:55.579Z</time>
      </trkpt>
      <trkpt lat="63.48994" lon="19.31283">
        <ele>54.220226</ele>
        <time>2020-10-02T08:54:48.574Z</time>
      </trkpt>
      <trkpt lat="63.48812" lon="19.30988">
        <ele>50.124569</ele>
        <time>2020-10-02T08:55:28.590Z</time>
      </trkpt>
      <trkpt lat="63.48631" lon="19.30666">
        <ele>46.777577</ele>
        <time>2020-10-02T08:56:08.586Z</time>
      </trkpt>
      <trkpt lat="63.48386" lon="19.30198">
        <ele>40.090224</ele>
        <time>2020-10-02T08:56:48.583Z</time>
      </trkpt>
      <trkpt lat="63.48187" lon="19.29837">
        <ele>40.119926</ele>
        <time>2020-10-02T08:57:28.617Z</time>
      </trkpt>
      <trkpt lat="63.47981" lon="19.29492">
        <ele>40.065576</ele>
        <time>2020-10-02T08:58:08.579Z</time>
      </trkpt>
      <trkpt lat="63.47753" lon="19.29148">
        <ele>38.554324</ele>
        <time>2020-10-02T08:58:50.585Z</time>
      </trkpt>
      <trkpt lat="63.47568" lon="19.28892">
        <ele>41.602985</ele>
        <time>2020-10-02T08:59:30.599Z</time>
      </trkpt>
      <trkpt lat="63.47389" lon="19.28634">
        <ele>42.625291</ele>
        <time>2020-10-02T09:00:10.582Z</time>
      </trkpt>
      <trkpt lat="63.47203" lon="19.28298">
        <ele>41.031677</ele>
        <time>2020-10-02T09:00:50.603Z</time>
      </trkpt>
      <trkpt lat="63.47041" lon="19.27918">
        <ele>41.884832</ele>
        <time>2020-10-02T09:01:30.583Z</time>
      </trkpt>
      <trkpt lat="63.46908" lon="19.27584">
        <ele>43.805138</ele>
        <time>2020-10-02T09:02:10.621Z</time>
      </trkpt>
      <trkpt lat="63.46745" lon="19.27221">
        <ele>51.153185</ele>
        <time>2020-10-02T09:03:06.604Z</time>
      </trkpt>
      <trkpt lat="63.46571" lon="19.26888">
        <ele>53.452475</ele>
        <time>2020-10-02T09:03:56.586Z</time>
      </trkpt>
      <trkpt lat="63.46376" lon="19.26468">
        <ele>39.762634</ele>
        <time>2020-10-02T09:04:36.610Z</time>
      </trkpt>
      <trkpt lat="63.46513" lon="19.26076">
        <ele>39.092418</ele>
        <time>2020-10-02T09:05:18.589Z</time>
      </trkpt>
      <trkpt lat="63.46671" lon="19.25693">
        <ele>47.005931</ele>
        <time>2020-10-02T09:06:14.619Z</time>
      </trkpt>
      <trkpt lat="63.46848" lon="19.25455">
        <ele>61.94465</ele>
        <time>2020-10-02T09:07:18.567Z</time>
      </trkpt>
      <trkpt lat="63.47028" lon="19.25232">
        <ele>65.466391</ele>
        <time>2020-10-02T09:08:30.581Z</time>
      </trkpt>
      <trkpt lat="63.47231" lon="19.24978">
        <ele>64.162339</ele>
        <time>2020-10-02T09:09:30.608Z</time>
      </trkpt>
      <trkpt lat="63.47433" lon="19.24718">
        <ele>68.282263</ele>
        <time>2020-10-02T09:10:29.593Z</time>
      </trkpt>
      <trkpt lat="63.47538" lon="19.24374">
        <ele>61.621305</ele>
        <time>2020-10-02T09:11:09.596Z</time>
      </trkpt>
      <trkpt lat="63.47547" lon="19.23911">
        <ele>57.952637</ele>
        <time>2020-10-02T09:11:55.596Z</time>
      </trkpt>
      <trkpt lat="63.47526" lon="19.23408">
        <ele>61.648776</ele>
        <time>2020-10-02T09:12:45.588Z</time>
      </trkpt>
      <trkpt lat="63.47579" lon="19.22971">
        <ele>70.372827</ele>
        <time>2020-10-02T09:13:53.586Z</time>
      </trkpt>
      <trkpt lat="63.47673" lon="19.22581">
        <ele>78.452004</ele>
        <time>2020-10-02T09:15:33.582Z</time>
      </trkpt>
      <trkpt lat="63.47812" lon="19.22272">
        <ele>87.317577</ele>
        <time>2020-10-02T09:17:16.585Z</time>
      </trkpt>
      <trkpt lat="63.47942" lon="19.21948">
        <ele>99.191913</ele>
        <time>2020-10-02T09:19:00.587Z</time>
      </trkpt>
      <trkpt lat="63.48042" lon="19.21576">
        <ele>115.594357</ele>
        <time>2020-10-02T09:20:46.579Z</time>
      </trkpt>
      <trkpt lat="63.48104" lon="19.21164">
        <ele>122.662788</ele>
        <time>2020-10-02T09:22:27.627Z</time>
      </trkpt>
      <trkpt lat="63.48221" lon="19.20771">
        <ele>119.663107</ele>
        <time>2020-10-02T09:23:24.598Z</time>
      </trkpt>
      <trkpt lat="63.48349" lon="19.2041">
        <ele>120.580247</ele>
        <time>2020-10-02T09:24:04.594Z</time>
      </trkpt>
      <trkpt lat="63.48455" lon="19.19978">
        <ele>121.32745</ele>
        <time>2020-10-02T09:24:51.604Z</time>
      </trkpt>
      <trkpt lat="63.48526" lon="19.19523">
        <ele>123.774897</ele>
        <time>2020-10-02T09:26:05.573Z</time>
      </trkpt>
      <trkpt lat="63.48473" lon="19.19107">
        <ele>114.770908</ele>
        <time>2020-10-02T09:26:55.590Z</time>
      </trkpt>
      <trkpt lat="63.48241" lon="19.18813">
        <ele>103.413712</ele>
        <time>2020-10-02T09:27:27.583Z</time>
      </trkpt>
      <trkpt lat="63.4832" lon="19.18357">
        <ele>106.513551</ele>
        <time>2020-10-02T09:28:24.587Z</time>
      </trkpt>
      <trkpt lat="63.48414" lon="19.17926">
        <ele>110.08446</ele>
        <time>2020-10-02T09:29:26.582Z</time>
      </trkpt>
      <trkpt lat="63.48407" lon="19.17477">
        <ele>118.163893</ele>
        <time>2020-10-02T09:30:55.582Z</time>
      </trkpt>
      <trkpt lat="63.48349" lon="19.17043">
        <ele>120.797686</ele>
        <time>2020-10-02T09:32:03.581Z</time>
      </trkpt>
      <trkpt lat="63.4825" lon="19.16604">
        <ele>122.528736</ele>
        <time>2020-10-02T09:32:53.583Z</time>
      </trkpt>
      <trkpt lat="63.48065" lon="19.16426">
        <ele>128.492585</ele>
        <time>2020-10-02T09:34:01.594Z</time>
      </trkpt>
      <trkpt lat="63.47879" lon="19.16242">
        <ele>134.081892</ele>
        <time>2020-10-02T09:35:12.613Z</time>
      </trkpt>
      <trkpt lat="63.47686" lon="19.16008">
        <ele>133.39886</ele>
        <time>2020-10-02T09:36:14.589Z</time>
      </trkpt>
      <trkpt lat="63.47518" lon="19.1565">
        <ele>129.800744</ele>
        <time>2020-10-02T09:37:09.580Z</time>
      </trkpt>
      <trkpt lat="63.47414" lon="19.15251">
        <ele>128.234439</ele>
        <time>2020-10-02T09:37:54.601Z</time>
      </trkpt>
      <trkpt lat="63.47247" lon="19.14865">
        <ele>118.373399</ele>
        <time>2020-10-02T09:38:34.623Z</time>
      </trkpt>
      <trkpt lat="63.47033" lon="19.14475">
        <ele>108.946703</ele>
        <time>2020-10-02T09:39:14.576Z</time>
      </trkpt>
      <trkpt lat="63.46981" lon="19.1399">
        <ele>109.797163</ele>
        <time>2020-10-02T09:40:02.585Z</time>
      </trkpt>
      <trkpt lat="63.46877" lon="19.13599">
        <ele>111.111306</ele>
        <time>2020-10-02T09:40:56.617Z</time>
      </trkpt>
      <trkpt lat="63.46771" lon="19.13213">
        <ele>115.575856</ele>
        <time>2020-10-02T09:42:09.609Z</time>
      </trkpt>
      <trkpt lat="63.46755" lon="19.12775">
        <ele>119.651946</ele>
        <time>2020-10-02T09:43:37.613Z</time>
      </trkpt>
      <trkpt lat="63.46821" lon="19.12361">
        <ele>120.810459</ele>
        <time>2020-10-02T09:44:58.588Z</time>
      </trkpt>
      <trkpt lat="63.46844" lon="19.11782">
        <ele>113.666215</ele>
        <time>2020-10-02T09:45:44.592Z</time>
      </trkpt>
      <trkpt lat="63.46768" lon="19.11334">
        <ele>116.850764</ele>
        <time>2020-10-02T09:46:40.610Z</time>
      </trkpt>
      <trkpt lat="63.46707" lon="19.10905">
        <ele>132.247977</ele>
        <time>2020-10-02T09:48:22.603Z</time>
      </trkpt>
      <trkpt lat="63.46659" lon="19.10473">
        <ele>134.721057</ele>
        <time>2020-10-02T09:49:49.582Z</time>
      </trkpt>
      <trkpt lat="63.46584" lon="19.10034">
        <ele>132.146147</ele>
        <time>2020-10-02T09:51:06.642Z</time>
      </trkpt>
      <trkpt lat="63.46507" lon="19.09584">
        <ele>129.013603</ele>
        <time>2020-10-02T09:51:59.603Z</time>
      </trkpt>
      <trkpt lat="63.46427" lon="19.09106">
        <ele>130.222967</ele>
        <time>2020-10-02T09:52:58.587Z</time>
      </trkpt>
      <trkpt lat="63.46388" lon="19.08665">
        <ele>132.909381</ele>
        <time>2020-10-02T09:53:53.611Z</time>
      </trkpt>
      <trkpt lat="63.46296" lon="19.08236">
        <ele>135.079058</ele>
        <time>2020-10-02T09:55:05.605Z</time>
      </trkpt>
      <trkpt lat="63.46218" lon="19.07772">
        <ele>140.407316</ele>
        <time>2020-10-02T09:56:09.599Z</time>
      </trkpt>
      <trkpt lat="63.46062" lon="19.0733">
        <ele>126.463925</ele>
        <time>2020-10-02T09:56:49.622Z</time>
      </trkpt>
      <trkpt lat="63.45844" lon="19.07538">
        <ele>119.203352</ele>
        <time>2020-10-02T09:57:35.594Z</time>
      </trkpt>
      <trkpt lat="63.45635" lon="19.07718">
        <ele>119.955341</ele>
        <time>2020-10-02T09:58:23.590Z</time>
      </trkpt>
      <trkpt lat="63.45434" lon="19.07747">
        <ele>125.114742</ele>
        <time>2020-10-02T09:59:15.582Z</time>
      </trkpt>
      <trkpt lat="63.45207" lon="19.07907">
        <ele>124.367134</ele>
        <time>2020-10-02T10:00:27.587Z</time>
      </trkpt>
      <trkpt lat="63.44921" lon="19.08046">
        <ele>117.94776</ele>
        <time>2020-10-02T10:01:09.586Z</time>
      </trkpt>
      <trkpt lat="63.4474" lon="19.08251">
        <ele>113.373386</ele>
        <time>2020-10-02T10:01:49.601Z</time>
      </trkpt>
      <trkpt lat="63.44537" lon="19.08389">
        <ele>115.083584</ele>
        <time>2020-10-02T10:02:33.591Z</time>
      </trkpt>
      <trkpt lat="63.44415" lon="19.0881">
        <ele>115.641017</ele>
        <time>2020-10-02T10:03:30.619Z</time>
      </trkpt>
      <trkpt lat="63.44202" lon="19.08936">
        <ele>109.490979</ele>
        <time>2020-10-02T10:04:24.607Z</time>
      </trkpt>
      <trkpt lat="63.43978" lon="19.08909">
        <ele>105.507031</ele>
        <time>2020-10-02T10:05:26.606Z</time>
      </trkpt>
      <trkpt lat="63.4382" lon="19.09187">
        <ele>112.171861</ele>
        <time>2020-10-02T10:06:49.623Z</time>
      </trkpt>
      <trkpt lat="63.43632" lon="19.09426">
        <ele>108.398883</ele>
        <time>2020-10-02T10:07:30.583Z</time>
      </trkpt>
      <trkpt lat="63.43442" lon="19.09701">
        <ele>108.003315</ele>
        <time>2020-10-02T10:08:21.591Z</time>
      </trkpt>
      <trkpt lat="63.43345" lon="19.10127">
        <ele>110.960373</ele>
        <time>2020-10-02T10:09:12.589Z</time>
      </trkpt>
      <trkpt lat="63.43173" lon="19.10404">
        <ele>103.96257</ele>
        <time>2020-10-02T10:10:02.608Z</time>
      </trkpt>
      <trkpt lat="63.42956" lon="19.10516">
        <ele>110.6766</ele>
        <time>2020-10-02T10:10:51.590Z</time>
      </trkpt>
      <trkpt lat="63.42743" lon="19.10438">
        <ele>104.479466</ele>
        <time>2020-10-02T10:11:36.645Z</time>
      </trkpt>
      <trkpt lat="63.42527" lon="19.10377">
        <ele>106.357768</ele>
        <time>2020-10-02T10:12:32.606Z</time>
      </trkpt>
      <trkpt lat="63.42316" lon="19.10346">
        <ele>110.730671</ele>
        <time>2020-10-02T10:13:29.582Z</time>
      </trkpt>
      <trkpt lat="63.42083" lon="19.1043">
        <ele>100.970888</ele>
        <time>2020-10-02T10:14:14.597Z</time>
      </trkpt>
      <trkpt lat="63.41887" lon="19.1062">
        <ele>91.061405</ele>
        <time>2020-10-02T10:14:54.597Z</time>
      </trkpt>
      <trkpt lat="63.41668" lon="19.10776">
        <ele>94.180421</ele>
        <time>2020-10-02T10:15:36.605Z</time>
      </trkpt>
      <trkpt lat="63.41458" lon="19.10838">
        <ele>99.848151</ele>
        <time>2020-10-02T10:16:50.582Z</time>
      </trkpt>
      <trkpt lat="63.41233" lon="19.10958">
        <ele>93.702482</ele>
        <time>2020-10-02T10:38:10.911Z</time>
      </trkpt>
      <trkpt lat="63.41074" lon="19.11244">
        <ele>93.773797</ele>
        <time>2020-10-02T10:39:16.920Z</time>
      </trkpt>
      <trkpt lat="63.40862" lon="19.11481">
        <ele>87.906477</ele>
        <time>2020-10-02T10:39:57.919Z</time>
      </trkpt>
      <trkpt lat="63.40688" lon="19.11927">
        <ele>78.544759</ele>
        <time>2020-10-02T10:40:37.931Z</time>
      </trkpt>
      <trkpt lat="63.40489" lon="19.12293">
        <ele>75.584518</ele>
        <time>2020-10-02T10:41:17.894Z</time>
      </trkpt>
      <trkpt lat="63.403" lon="19.1238">
        <ele>93.644941</ele>
        <time>2020-10-02T10:43:01.906Z</time>
      </trkpt>
      <trkpt lat="63.40153" lon="19.12667">
        <ele>103.240755</ele>
        <time>2020-10-02T10:44:58.941Z</time>
      </trkpt>
      <trkpt lat="63.39943" lon="19.12714">
        <ele>95.168597</ele>
        <time>2020-10-02T10:45:38.907Z</time>
      </trkpt>
      <trkpt lat="63.39722" lon="19.12821">
        <ele>76.364222</ele>
        <time>2020-10-02T10:46:32.907Z</time>
      </trkpt>
      <trkpt lat="63.3951" lon="19.12838">
        <ele>81.260933</ele>
        <time>2020-10-02T10:47:36.826Z</time>
      </trkpt>
      <trkpt lat="63.39294" lon="19.12965">
        <ele>85.958334</ele>
        <time>2020-10-02T10:48:46.809Z</time>
      </trkpt>
      <trkpt lat="63.39086" lon="19.13143">
        <ele>82.066892</ele>
        <time>2020-10-02T10:49:46.800Z</time>
      </trkpt>
      <trkpt lat="63.38843" lon="19.13255">
        <ele>79.417689</ele>
        <time>2020-10-02T10:50:31.787Z</time>
      </trkpt>
      <trkpt lat="63.3864" lon="19.13515">
        <ele>72.294581</ele>
        <time>2020-10-02T10:51:11.807Z</time>
      </trkpt>
      <trkpt lat="63.38422" lon="19.13597">
        <ele>85.269689</ele>
        <time>2020-10-02T10:52:17.826Z</time>
      </trkpt>
      <trkpt lat="63.38201" lon="19.13637">
        <ele>77.561779</ele>
        <time>2020-10-02T10:53:05.823Z</time>
      </trkpt>
      <trkpt lat="63.37996" lon="19.137">
        <ele>74.741568</ele>
        <time>2020-10-02T10:54:05.815Z</time>
      </trkpt>
      <trkpt lat="63.37786" lon="19.13761">
        <ele>76.074017</ele>
        <time>2020-10-02T10:54:59.812Z</time>
      </trkpt>
      <trkpt lat="63.37561" lon="19.1368">
        <ele>81.895137</ele>
        <time>2020-10-02T10:55:44.813Z</time>
      </trkpt>
      <trkpt lat="63.37348" lon="19.13898">
        <ele>85.317863</ele>
        <time>2020-10-02T10:56:53.813Z</time>
      </trkpt>
      <trkpt lat="63.37128" lon="19.1394">
        <ele>77.317523</ele>
        <time>2020-10-02T10:57:42.815Z</time>
      </trkpt>
      <trkpt lat="63.36893" lon="19.13867">
        <ele>74.152653</ele>
        <time>2020-10-02T10:58:39.835Z</time>
      </trkpt>
      <trkpt lat="63.36676" lon="19.13957">
        <ele>76.5079</ele>
        <time>2020-10-02T10:59:37.791Z</time>
      </trkpt>
      <trkpt lat="63.36475" lon="19.14137">
        <ele>78.816711</ele>
        <time>2020-10-02T11:00:31.791Z</time>
      </trkpt>
      <trkpt lat="63.36272" lon="19.14347">
        <ele>81.359432</ele>
        <time>2020-10-02T11:01:37.795Z</time>
      </trkpt>
      <trkpt lat="63.36094" lon="19.14638">
        <ele>78.974657</ele>
        <time>2020-10-02T11:02:29.842Z</time>
      </trkpt>
      <trkpt lat="63.35894" lon="19.14734">
        <ele>84.923809</ele>
        <time>2020-10-02T11:03:26.812Z</time>
      </trkpt>
      <trkpt lat="63.35655" lon="19.14922">
        <ele>81.279522</ele>
        <time>2020-10-02T11:04:07.803Z</time>
      </trkpt>
      <trkpt lat="63.35432" lon="19.15256">
        <ele>64.511503</ele>
        <time>2020-10-02T11:04:54.812Z</time>
      </trkpt>
      <trkpt lat="63.35246" lon="19.15304">
        <ele>59.425401</ele>
        <time>2020-10-02T11:05:39.803Z</time>
      </trkpt>
      <trkpt lat="63.35075" lon="19.14933">
        <ele>65.812643</ele>
        <time>2020-10-02T11:06:33.816Z</time>
      </trkpt>
      <trkpt lat="63.3492" lon="19.15091">
        <ele>51.219713</ele>
        <time>2020-10-02T11:07:25.795Z</time>
      </trkpt>
      <trkpt lat="63.34711" lon="19.15312">
        <ele>48.296554</ele>
        <time>2020-10-02T11:08:06.797Z</time>
      </trkpt>
      <trkpt lat="63.34465" lon="19.15427">
        <ele>43.356113</ele>
        <time>2020-10-02T11:08:46.828Z</time>
      </trkpt>
      <trkpt lat="63.34271" lon="19.15638">
        <ele>34.64787</ele>
        <time>2020-10-02T11:09:31.809Z</time>
      </trkpt>
      <trkpt lat="63.34122" lon="19.1604">
        <ele>33.948427</ele>
        <time>2020-10-02T11:10:14.816Z</time>
      </trkpt>
      <trkpt lat="63.34046" lon="19.16171">
        <ele>27.207888</ele>
        <time>2020-10-02T11:46:42.764Z</time>
      </trkpt>
      <trkpt lat="63.33917" lon="19.16398">
        <ele>31.656377</ele>
        <time>2020-10-02T11:47:42.765Z</time>
      </trkpt>
      <trkpt lat="63.33819" lon="19.16023">
        <ele>35.65342</ele>
        <time>2020-10-02T11:48:23.775Z</time>
      </trkpt>
      <trkpt lat="63.33614" lon="19.15975">
        <ele>42.250445</ele>
        <time>2020-10-02T11:49:27.766Z</time>
      </trkpt>
      <trkpt lat="63.33518" lon="19.15688">
        <ele>40.259152</ele>
        <time>2020-10-02T11:50:57.802Z</time>
      </trkpt>
      <trkpt lat="63.33441" lon="19.15683">
        <ele>38.809781</ele>
        <time>2020-10-02T11:51:56.787Z</time>
      </trkpt>
      <trkpt lat="63.33585" lon="19.15756">
        <ele>45.216072</ele>
        <time>2020-10-02T11:52:59.783Z</time>
      </trkpt>
      <trkpt lat="63.33514" lon="19.15377">
        <ele>53.106658</ele>
        <time>2020-10-02T11:54:35.768Z</time>
      </trkpt>
      <trkpt lat="63.33517" lon="19.14812">
        <ele>48.786582</ele>
        <time>2020-10-02T11:55:21.764Z</time>
      </trkpt>
      <trkpt lat="63.33423" lon="19.14345">
        <ele>42.762586</ele>
        <time>2020-10-02T11:56:01.804Z</time>
      </trkpt>
      <trkpt lat="63.33359" lon="19.13832">
        <ele>35.484882</ele>
        <time>2020-10-02T11:56:41.770Z</time>
      </trkpt>
      <trkpt lat="63.3342" lon="19.13536">
        <ele>33.845223</ele>
        <time>2020-10-02T11:57:55.778Z</time>
      </trkpt>
      <trkpt lat="63.33633" lon="19.13373">
        <ele>33.914379</ele>
        <time>2020-10-02T11:58:45.787Z</time>
      </trkpt>
      <trkpt lat="63.33837" lon="19.13056">
        <ele>33.14268</ele>
        <time>2020-10-02T11:59:31.771Z</time>
      </trkpt>
      <trkpt lat="63.34028" lon="19.12899">
        <ele>40.233114</ele>
        <time>2020-10-02T12:00:50.762Z</time>
      </trkpt>
      <trkpt lat="63.33867" lon="19.12641">
        <ele>50.85743</ele>
        <time>2020-10-02T12:02:15.785Z</time>
      </trkpt>
      <trkpt lat="63.33771" lon="19.12239">
        <ele>43.381924</ele>
        <time>2020-10-02T12:03:19.795Z</time>
      </trkpt>
      <trkpt lat="63.33843" lon="19.12629">
        <ele>45.123555</ele>
        <time>2020-10-02T12:09:01.773Z</time>
      </trkpt>
      <trkpt lat="63.34029" lon="19.12879">
        <ele>41.319575</ele>
        <time>2020-10-02T12:09:47.776Z</time>
      </trkpt>
      <trkpt lat="63.3422" lon="19.12893">
        <ele>42.963173</ele>
        <time>2020-10-02T12:11:02.772Z</time>
      </trkpt>
      <trkpt lat="63.34401" lon="19.12655">
        <ele>42.278433</ele>
        <time>2020-10-02T12:11:59.782Z</time>
      </trkpt>
      <trkpt lat="63.34433" lon="19.12239">
        <ele>44.013277</ele>
        <time>2020-10-02T12:13:33.788Z</time>
      </trkpt>
      <trkpt lat="63.34364" lon="19.11833">
        <ele>46.015615</ele>
        <time>2020-10-02T12:14:13.801Z</time>
      </trkpt>
      <trkpt lat="63.34239" lon="19.11408">
        <ele>46.443636</ele>
        <time>2020-10-02T12:14:53.774Z</time>
      </trkpt>
      <trkpt lat="63.34067" lon="19.11288">
        <ele>43.041118</ele>
        <time>2020-10-02T12:15:52.801Z</time>
      </trkpt>
      <trkpt lat="63.33959" lon="19.11673">
        <ele>35.160973</ele>
        <time>2020-10-02T12:16:32.794Z</time>
      </trkpt>
      <trkpt lat="63.33739" lon="19.11765">
        <ele>37.845047</ele>
        <time>2020-10-02T12:17:15.797Z</time>
      </trkpt>
      <trkpt lat="63.33508" lon="19.12054">
        <ele>38.384077</ele>
        <time>2020-10-02T12:17:55.809Z</time>
      </trkpt>
      <trkpt lat="63.33331" lon="19.12338">
        <ele>44.457449</ele>
        <time>2020-10-02T12:18:35.783Z</time>
      </trkpt>
      <trkpt lat="63.33168" lon="19.12617">
        <ele>32.043969</ele>
        <time>2020-10-02T12:19:18.808Z</time>
      </trkpt>
      <trkpt lat="63.33004" lon="19.12881">
        <ele>25.508671</ele>
        <time>2020-10-02T12:20:00.795Z</time>
      </trkpt>
      <trkpt lat="63.32816" lon="19.12896">
        <ele>34.962187</ele>
        <time>2020-10-02T12:21:07.776Z</time>
      </trkpt>
      <trkpt lat="63.32613" lon="19.12779">
        <ele>37.174644</ele>
        <time>2020-10-02T12:21:51.791Z</time>
      </trkpt>
      <trkpt lat="63.32403" lon="19.12667">
        <ele>32.47716</ele>
        <time>2020-10-02T12:22:42.813Z</time>
      </trkpt>
      <trkpt lat="63.32222" lon="19.12424">
        <ele>34.07703</ele>
        <time>2020-10-02T12:23:33.763Z</time>
      </trkpt>
      <trkpt lat="63.32175" lon="19.11923">
        <ele>35.799649</ele>
        <time>2020-10-02T12:24:26.839Z</time>
      </trkpt>
      <trkpt lat="63.3215" lon="19.11423">
        <ele>37.425222</ele>
        <time>2020-10-02T12:25:12.817Z</time>
      </trkpt>
      <trkpt lat="63.32145" lon="19.10947">
        <ele>37.248982</ele>
        <time>2020-10-02T12:25:58.804Z</time>
      </trkpt>
      <trkpt lat="63.32145" lon="19.10561">
        <ele>55.515179</ele>
        <time>2020-10-02T12:27:47.796Z</time>
      </trkpt>
      <trkpt lat="63.3204" lon="19.10195">
        <ele>63.479282</ele>
        <time>2020-10-02T12:29:10.797Z</time>
      </trkpt>
      <trkpt lat="63.31928" lon="19.09813">
        <ele>62.113696</ele>
        <time>2020-10-02T12:30:20.851Z</time>
      </trkpt>
      <trkpt lat="63.31762" lon="19.09561">
        <ele>55.274187</ele>
        <time>2020-10-02T12:31:07.779Z</time>
      </trkpt>
      <trkpt lat="63.3156" lon="19.09448">
        <ele>57.581859</ele>
        <time>2020-10-02T12:31:56.805Z</time>
      </trkpt>
      <trkpt lat="63.31361" lon="19.09333">
        <ele>71.835474</ele>
        <time>2020-10-02T12:33:22.783Z</time>
      </trkpt>
      <trkpt lat="63.31167" lon="19.09189">
        <ele>69.071432</ele>
        <time>2020-10-02T12:34:30.811Z</time>
      </trkpt>
      <trkpt lat="63.30944" lon="19.0885">
        <ele>60.841206</ele>
        <time>2020-10-02T12:35:10.799Z</time>
      </trkpt>
      <trkpt lat="63.3073" lon="19.08684">
        <ele>51.365413</ele>
        <time>2020-10-02T12:35:50.781Z</time>
      </trkpt>
      <trkpt lat="63.30525" lon="19.08678">
        <ele>50.253969</ele>
        <time>2020-10-02T12:36:31.786Z</time>
      </trkpt>
      <trkpt lat="63.30303" lon="19.08663">
        <ele>44.154267</ele>
        <time>2020-10-02T12:37:18.787Z</time>
      </trkpt>
      <trkpt lat="63.30083" lon="19.08473">
        <ele>45.712402</ele>
        <time>2020-10-02T12:37:58.792Z</time>
      </trkpt>
      <trkpt lat="63.29955" lon="19.08051">
        <ele>52.418226</ele>
        <time>2020-10-02T12:38:40.804Z</time>
      </trkpt>
      <trkpt lat="63.29862" lon="19.07564">
        <ele>52.276443</ele>
        <time>2020-10-02T12:39:23.819Z</time>
      </trkpt>
      <trkpt lat="63.29626" lon="19.07517">
        <ele>58.580943</ele>
        <time>2020-10-02T12:40:14.799Z</time>
      </trkpt>
      <trkpt lat="63.29403" lon="19.07447">
        <ele>70.476756</ele>
        <time>2020-10-02T12:41:09.796Z</time>
      </trkpt>
      <trkpt lat="63.29177" lon="19.07475">
        <ele>73.832149</ele>
        <time>2020-10-02T12:42:00.798Z</time>
      </trkpt>
      <trkpt lat="63.28962" lon="19.07488">
        <ele>52.720251</ele>
        <time>2020-10-02T12:42:41.784Z</time>
      </trkpt>
      <trkpt lat="63.28806" lon="19.07218">
        <ele>49.637792</ele>
        <time>2020-10-02T12:43:24.785Z</time>
      </trkpt>
      <trkpt lat="63.2866" lon="19.06833">
        <ele>55.509167</ele>
        <time>2020-10-02T12:44:20.825Z</time>
      </trkpt>
      <trkpt lat="63.28516" lon="19.06426">
        <ele>62.205361</ele>
        <time>2020-10-02T12:45:20.806Z</time>
      </trkpt>
      <trkpt lat="63.28462" lon="19.05962">
        <ele>61.502521</ele>
        <time>2020-10-02T12:46:12.798Z</time>
      </trkpt>
      <trkpt lat="63.28485" lon="19.05493">
        <ele>69.46694</ele>
        <time>2020-10-02T12:47:06.796Z</time>
      </trkpt>
      <trkpt lat="63.285" lon="19.04945">
        <ele>68.178809</ele>
        <time>2020-10-02T12:47:50.781Z</time>
      </trkpt>
      <trkpt lat="63.28486" lon="19.04361">
        <ele>50.169433</ele>
        <time>2020-10-02T12:48:21.808Z</time>
      </trkpt>
      <trkpt lat="63.28333" lon="19.03814">
        <ele>37.109817</ele>
        <time>2020-10-02T12:49:01.796Z</time>
      </trkpt>
      <trkpt lat="63.28084" lon="19.03456">
        <ele>28.222174</ele>
        <time>2020-10-02T12:49:39.797Z</time>
      </trkpt>
      <trkpt lat="63.27874" lon="19.03402">
        <ele>28.531418</ele>
        <time>2020-10-02T12:50:22.797Z</time>
      </trkpt>
      <trkpt lat="63.27639" lon="19.03485">
        <ele>57.380687</ele>
        <time>2020-10-02T12:51:25.860Z</time>
      </trkpt>
      <trkpt lat="63.27433" lon="19.03479">
        <ele>36.545163</ele>
        <time>2020-10-02T12:52:35.802Z</time>
      </trkpt>
      <trkpt lat="63.27227" lon="19.03482">
        <ele>45.356889</ele>
        <time>2020-10-02T12:53:36.790Z</time>
      </trkpt>
      <trkpt lat="63.27036" lon="19.03322">
        <ele>47.834496</ele>
        <time>2020-10-02T12:54:34.781Z</time>
      </trkpt>
      <trkpt lat="63.26837" lon="19.03041">
        <ele>39.338965</ele>
        <time>2020-10-02T12:55:16.788Z</time>
      </trkpt>
      <trkpt lat="63.26655" lon="19.02785">
        <ele>43.806491</ele>
        <time>2020-10-02T12:56:10.796Z</time>
      </trkpt>
      <trkpt lat="63.26461" lon="19.02528">
        <ele>47.255577</ele>
        <time>2020-10-02T12:57:09.800Z</time>
      </trkpt>
      <trkpt lat="63.26268" lon="19.02497">
        <ele>31.734915</ele>
        <time>2020-10-02T12:57:29.780Z</time>
      </trkpt>
      <trkpt lat="63.26044" lon="19.02326">
        <ele>27.932249</ele>
        <time>2020-10-02T12:57:58.785Z</time>
      </trkpt>
      <trkpt lat="63.25834" lon="19.02231">
        <ele>42.927306</ele>
        <time>2020-10-02T12:59:03.824Z</time>
      </trkpt>
      <trkpt lat="63.25632" lon="19.02162">
        <ele>47.988724</ele>
        <time>2020-10-02T13:00:09.797Z</time>
      </trkpt>
      <trkpt lat="63.25512" lon="19.01875">
        <ele>54.611348</ele>
        <time>2020-10-02T13:01:17.788Z</time>
      </trkpt>
      <trkpt lat="63.25505" lon="19.01412">
        <ele>60.340967</ele>
        <time>2020-10-02T13:02:26.780Z</time>
      </trkpt>
      <trkpt lat="63.25515" lon="19.00964">
        <ele>66.391865</ele>
        <time>2020-10-02T13:03:52.794Z</time>
      </trkpt>
      <trkpt lat="63.25404" lon="19.0053">
        <ele>54.735913</ele>
        <time>2020-10-02T13:04:35.795Z</time>
      </trkpt>
      <trkpt lat="63.2522" lon="19.00389">
        <ele>40.653963</ele>
        <time>2020-10-02T13:04:55.836Z</time>
      </trkpt>
      <trkpt lat="63.25023" lon="19.00255">
        <ele>49.726998</ele>
        <time>2020-10-02T13:06:00.788Z</time>
      </trkpt>
      <trkpt lat="63.24979" lon="18.99778">
        <ele>57.275339</ele>
        <time>2020-10-02T13:07:13.785Z</time>
      </trkpt>
      <trkpt lat="63.24949" lon="18.99314">
        <ele>59.991997</ele>
        <time>2020-10-02T13:08:11.833Z</time>
      </trkpt>
      <trkpt lat="63.24793" lon="18.98893">
        <ele>48.253004</ele>
        <time>2020-10-02T13:08:51.798Z</time>
      </trkpt>
      <trkpt lat="63.24684" lon="18.98497">
        <ele>46.627338</ele>
        <time>2020-10-02T13:09:41.828Z</time>
      </trkpt>
      <trkpt lat="63.24565" lon="18.98013">
        <ele>44.721951</ele>
        <time>2020-10-02T13:10:21.803Z</time>
      </trkpt>
      <trkpt lat="63.24425" lon="18.97481">
        <ele>39.202416</ele>
        <time>2020-10-02T13:11:01.808Z</time>
      </trkpt>
      <trkpt lat="63.24378" lon="18.96873">
        <ele>35.851089</ele>
        <time>2020-10-02T13:11:40.806Z</time>
      </trkpt>
      <trkpt lat="63.24306" lon="18.96376">
        <ele>31.167029</ele>
        <time>2020-10-02T13:12:20.785Z</time>
      </trkpt>
      <trkpt lat="63.24195" lon="18.95944">
        <ele>35.148917</ele>
        <time>2020-10-02T13:13:09.784Z</time>
      </trkpt>
      <trkpt lat="63.24197" lon="18.95502">
        <ele>50.609989</ele>
        <time>2020-10-02T13:14:36.805Z</time>
      </trkpt>
      <trkpt lat="63.2421" lon="18.95052">
        <ele>59.763412</ele>
        <time>2020-10-02T13:16:03.794Z</time>
      </trkpt>
      <trkpt lat="63.24401" lon="18.95001">
        <ele>59.560628</ele>
        <time>2020-10-02T13:17:13.799Z</time>
      </trkpt>
      <trkpt lat="63.24621" lon="18.95146">
        <ele>53.509762</ele>
        <time>2020-10-02T13:18:03.811Z</time>
      </trkpt>
      <trkpt lat="63.24836" lon="18.95344">
        <ele>53.289861</ele>
        <time>2020-10-02T13:18:59.808Z</time>
      </trkpt>
      <trkpt lat="63.25037" lon="18.95357">
        <ele>62.651512</ele>
        <time>2020-10-02T13:20:01.793Z</time>
      </trkpt>
      <trkpt lat="63.2517" lon="18.95004">
        <ele>73.431595</ele>
        <time>2020-10-02T13:21:30.800Z</time>
      </trkpt>
      <trkpt lat="63.25324" lon="18.94698">
        <ele>68.109054</ele>
        <time>2020-10-02T13:22:53.820Z</time>
      </trkpt>
      <trkpt lat="63.25579" lon="18.94344">
        <ele>56.760555</ele>
        <time>2020-10-02T13:23:33.803Z</time>
      </trkpt>
      <trkpt lat="63.25784" lon="18.94048">
        <ele>53.817717</ele>
        <time>2020-10-02T13:24:13.787Z</time>
      </trkpt>
      <trkpt lat="63.25895" lon="18.93718">
        <ele>54.021476</ele>
        <time>2020-10-02T13:24:53.795Z</time>
      </trkpt>
      <trkpt lat="63.25989" lon="18.93247">
        <ele>52.052632</ele>
        <time>2020-10-02T13:25:38.817Z</time>
      </trkpt>
      <trkpt lat="63.26151" lon="18.92861">
        <ele>46.745728</ele>
        <time>2020-10-02T13:26:18.813Z</time>
      </trkpt>
      <trkpt lat="63.2637" lon="18.92765">
        <ele>45.521349</ele>
        <time>2020-10-02T13:26:58.818Z</time>
      </trkpt>
      <trkpt lat="63.26601" lon="18.92637">
        <ele>47.287459</ele>
        <time>2020-10-02T13:27:38.828Z</time>
      </trkpt>
      <trkpt lat="63.26816" lon="18.92462">
        <ele>53.901751</ele>
        <time>2020-10-02T13:28:32.794Z</time>
      </trkpt>
      <trkpt lat="63.27027" lon="18.92416">
        <ele>47.956396</ele>
        <time>2020-10-02T13:29:15.800Z</time>
      </trkpt>
      <trkpt lat="63.27234" lon="18.9255">
        <ele>40.589315</ele>
        <time>2020-10-02T13:30:09.783Z</time>
      </trkpt>
      <trkpt lat="63.27442" lon="18.9266">
        <ele>39.483685</ele>
        <time>2020-10-02T13:30:49.810Z</time>
      </trkpt>
      <trkpt lat="63.27635" lon="18.92448">
        <ele>36.02853</ele>
        <time>2020-10-02T13:31:33.802Z</time>
      </trkpt>
      <trkpt lat="63.27775" lon="18.92134">
        <ele>39.86143</ele>
        <time>2020-10-02T13:32:22.808Z</time>
      </trkpt>
      <trkpt lat="63.27893" lon="18.91778">
        <ele>53.218141</ele>
        <time>2020-10-02T13:34:03.836Z</time>
      </trkpt>
      <trkpt lat="63.28076" lon="18.91556">
        <ele>57.947171</ele>
        <time>2020-10-02T13:35:26.797Z</time>
      </trkpt>
      <trkpt lat="63.28212" lon="18.91098">
        <ele>48.180371</ele>
        <time>2020-10-02T13:36:06.824Z</time>
      </trkpt>
      <trkpt lat="63.283" lon="18.90679">
        <ele>58.244466</ele>
        <time>2020-10-02T13:37:23.814Z</time>
      </trkpt>
      <trkpt lat="63.28459" lon="18.90377">
        <ele>63.790806</ele>
        <time>2020-10-02T13:38:33.800Z</time>
      </trkpt>
      <trkpt lat="63.28656" lon="18.90037">
        <ele>55.887277</ele>
        <time>2020-10-02T13:39:15.799Z</time>
      </trkpt>
      <trkpt lat="63.28917" lon="18.89767">
        <ele>49.305299</ele>
        <time>2020-10-02T13:39:57.795Z</time>
      </trkpt>
      <trkpt lat="63.29178" lon="18.89393">
        <ele>40.418685</ele>
        <time>2020-10-02T13:40:37.812Z</time>
      </trkpt>
      <trkpt lat="63.29385" lon="18.89093">
        <ele>38.371251</ele>
        <time>2020-10-02T13:41:17.818Z</time>
      </trkpt>
      <trkpt lat="63.29597" lon="18.88802">
        <ele>36.954608</ele>
        <time>2020-10-02T13:41:57.798Z</time>
      </trkpt>
      <trkpt lat="63.29639" lon="18.88727">
        <ele>38.173804</ele>
        <time>2020-10-02T13:45:08.799Z</time>
      </trkpt>
      <trkpt lat="63.29498" lon="18.8857">
        <ele>38.401931</ele>
        <time>2020-10-02T13:46:15.796Z</time>
      </trkpt>
      <trkpt lat="63.29424" lon="18.88123">
        <ele>38.778528</ele>
        <time>2020-10-02T13:47:10.795Z</time>
      </trkpt>
      <trkpt lat="63.29473" lon="18.87668">
        <ele>41.540253</ele>
        <time>2020-10-02T13:48:19.793Z</time>
      </trkpt>
      <trkpt lat="63.29624" lon="18.87265">
        <ele>36.252803</ele>
        <time>2020-10-02T13:48:59.816Z</time>
      </trkpt>
      <trkpt lat="63.29747" lon="18.86761">
        <ele>24.421713</ele>
        <time>2020-10-02T13:49:41.790Z</time>
      </trkpt>
      <trkpt lat="63.29572" lon="18.86326">
        <ele>13.642032</ele>
        <time>2020-10-02T13:50:21.822Z</time>
      </trkpt>
      <trkpt lat="63.29414" lon="18.86045">
        <ele>20.966457</ele>
        <time>2020-10-02T13:51:11.808Z</time>
      </trkpt>
      <trkpt lat="63.29201" lon="18.85894">
        <ele>23.676903</ele>
        <time>2020-10-02T13:52:11.824Z</time>
      </trkpt>
      <trkpt lat="63.29151" lon="18.85458">
        <ele>21.991873</ele>
        <time>2020-10-02T13:52:52.784Z</time>
      </trkpt>
      <trkpt lat="63.29177" lon="18.84924">
        <ele>20.806719</ele>
        <time>2020-10-02T13:53:32.796Z</time>
      </trkpt>
      <trkpt lat="63.29026" lon="18.84657">
        <ele>26.72444</ele>
        <time>2020-10-02T13:54:20.797Z</time>
      </trkpt>
      <trkpt lat="63.2882" lon="18.8464">
        <ele>36.279289</ele>
        <time>2020-10-02T13:55:50.819Z</time>
      </trkpt>
      <trkpt lat="63.28755" lon="18.84163">
        <ele>29.270817</ele>
        <time>2020-10-02T13:56:39.846Z</time>
      </trkpt>
      <trkpt lat="63.28837" lon="18.83562">
        <ele>23.391641</ele>
        <time>2020-10-02T13:57:19.805Z</time>
      </trkpt>
      <trkpt lat="63.28915" lon="18.83007">
        <ele>23.006332</ele>
        <time>2020-10-02T13:57:59.826Z</time>
      </trkpt>
      <trkpt lat="63.28947" lon="18.82517">
        <ele>24.398709</ele>
        <time>2020-10-02T13:58:40.843Z</time>
      </trkpt>
      <trkpt lat="63.2901" lon="18.82038">
        <ele>28.531866</ele>
        <time>2020-10-02T13:59:40.802Z</time>
      </trkpt>
      <trkpt lat="63.2888" lon="18.81737">
        <ele>26.253153</ele>
        <time>2020-10-02T14:00:26.813Z</time>
      </trkpt>
      <trkpt lat="63.2863" lon="18.817">
        <ele>25.276615</ele>
        <time>2020-10-02T14:01:11.852Z</time>
      </trkpt>
      <trkpt lat="63.28409" lon="18.81643">
        <ele>29.731917</ele>
        <time>2020-10-02T14:02:15.813Z</time>
      </trkpt>
      <trkpt lat="63.28149" lon="18.81598">
        <ele>27.884576</ele>
        <time>2020-10-02T14:02:59.815Z</time>
      </trkpt>
      <trkpt lat="63.2793" lon="18.81596">
        <ele>42.172132</ele>
        <time>2020-10-02T14:04:28.812Z</time>
      </trkpt>
      <trkpt lat="63.27781" lon="18.81314">
        <ele>44.035862</ele>
        <time>2020-10-02T14:05:36.806Z</time>
      </trkpt>
      <trkpt lat="63.27592" lon="18.80948">
        <ele>35.107531</ele>
        <time>2020-10-02T14:06:19.824Z</time>
      </trkpt>
      <trkpt lat="63.27381" lon="18.80908">
        <ele>43.583161</ele>
        <time>2020-10-02T14:07:22.804Z</time>
      </trkpt>
      <trkpt lat="63.27204" lon="18.80739">
        <ele>37.700649</ele>
        <time>2020-10-02T14:08:10.807Z</time>
      </trkpt>
      <trkpt lat="63.26925" lon="18.80957">
        <ele>17.178495</ele>
        <time>2020-10-02T14:08:50.816Z</time>
      </trkpt>
      <trkpt lat="63.26808" lon="18.8063">
        <ele>17.846038</ele>
        <time>2020-10-02T14:09:37.807Z</time>
      </trkpt>
      <trkpt lat="63.26623" lon="18.80723">
        <ele>20.640934</ele>
        <time>2020-10-02T14:10:19.832Z</time>
      </trkpt>
      <trkpt lat="63.26443" lon="18.80674">
        <ele>22.550818</ele>
        <time>2020-10-02T14:11:01.813Z</time>
      </trkpt>
      <trkpt lat="63.26229" lon="18.80652">
        <ele>31.343399</ele>
        <time>2020-10-02T14:12:10.808Z</time>
      </trkpt>
      <trkpt lat="63.26033" lon="18.80801">
        <ele>35.899648</ele>
        <time>2020-10-02T14:13:25.821Z</time>
      </trkpt>
      <trkpt lat="63.25806" lon="18.80925">
        <ele>31.093336</ele>
        <time>2020-10-02T14:14:16.803Z</time>
      </trkpt>
      <trkpt lat="63.25659" lon="18.81146">
        <ele>45.015369</ele>
        <time>2020-10-02T14:16:23.839Z</time>
      </trkpt>
    </trkseg>
  </trk>
  <trk>
    <name><![CDATA[Tour d'Europe: étape 097]]></name>
    <trkseg>
      <trkpt lat="63.25733" lon="18.81154">
        <ele>58.754177</ele>
        <time>2020-10-03T07:47:03.850Z</time>
      </trkpt>
      <trkpt lat="63.25763" lon="18.80955">
        <ele>43.501254</ele>
        <time>2020-10-03T07:47:54.846Z</time>
      </trkpt>
      <trkpt lat="63.25986" lon="18.80846">
        <ele>37.551397</ele>
        <time>2020-10-03T07:48:49.851Z</time>
      </trkpt>
      <trkpt lat="63.26188" lon="18.80688">
        <ele>36.707127</ele>
        <time>2020-10-03T07:49:46.848Z</time>
      </trkpt>
      <trkpt lat="63.26433" lon="18.80672">
        <ele>32.143156</ele>
        <time>2020-10-03T07:50:28.862Z</time>
      </trkpt>
      <trkpt lat="63.26628" lon="18.80712">
        <ele>31.620561</ele>
        <time>2020-10-03T07:51:11.854Z</time>
      </trkpt>
      <trkpt lat="63.26829" lon="18.80666">
        <ele>31.031223</ele>
        <time>2020-10-03T07:52:01.842Z</time>
      </trkpt>
      <trkpt lat="63.2695" lon="18.80958">
        <ele>27.214693</ele>
        <time>2020-10-03T07:52:44.893Z</time>
      </trkpt>
      <trkpt lat="63.2715" lon="18.8081">
        <ele>34.025919</ele>
        <time>2020-10-03T07:53:50.847Z</time>
      </trkpt>
      <trkpt lat="63.2723" lon="18.80514">
        <ele>48.079363</ele>
        <time>2020-10-03T07:55:39.872Z</time>
      </trkpt>
      <trkpt lat="63.27155" lon="18.80054">
        <ele>47.724764</ele>
        <time>2020-10-03T07:56:23.848Z</time>
      </trkpt>
      <trkpt lat="63.27069" lon="18.7955">
        <ele>46.054709</ele>
        <time>2020-10-03T07:57:15.853Z</time>
      </trkpt>
      <trkpt lat="63.26931" lon="18.79087">
        <ele>43.267911</ele>
        <time>2020-10-03T07:57:58.857Z</time>
      </trkpt>
      <trkpt lat="63.26709" lon="18.78815">
        <ele>38.377286</ele>
        <time>2020-10-03T07:58:38.845Z</time>
      </trkpt>
      <trkpt lat="63.26519" lon="18.78601">
        <ele>34.723173</ele>
        <time>2020-10-03T07:59:18.878Z</time>
      </trkpt>
      <trkpt lat="63.26275" lon="18.78388">
        <ele>33.290055</ele>
        <time>2020-10-03T08:00:00.864Z</time>
      </trkpt>
      <trkpt lat="63.26061" lon="18.78226">
        <ele>35.577507</ele>
        <time>2020-10-03T08:00:56.858Z</time>
      </trkpt>
      <trkpt lat="63.25899" lon="18.77961">
        <ele>40.315717</ele>
        <time>2020-10-03T08:01:51.850Z</time>
      </trkpt>
      <trkpt lat="63.25841" lon="18.77508">
        <ele>43.386091</ele>
        <time>2020-10-03T08:02:43.848Z</time>
      </trkpt>
      <trkpt lat="63.25879" lon="18.77104">
        <ele>45.935477</ele>
        <time>2020-10-03T08:03:47.872Z</time>
      </trkpt>
      <trkpt lat="63.26158" lon="18.77119">
        <ele>34.153538</ele>
        <time>2020-10-03T08:04:27.866Z</time>
      </trkpt>
      <trkpt lat="63.26391" lon="18.77167">
        <ele>31.142799</ele>
        <time>2020-10-03T08:05:09.872Z</time>
      </trkpt>
      <trkpt lat="63.26588" lon="18.77177">
        <ele>30.251823</ele>
        <time>2020-10-03T08:05:49.866Z</time>
      </trkpt>
      <trkpt lat="63.26759" lon="18.76989">
        <ele>28.336668</ele>
        <time>2020-10-03T08:06:30.888Z</time>
      </trkpt>
      <trkpt lat="63.26898" lon="18.76625">
        <ele>29.238929</ele>
        <time>2020-10-03T08:07:17.856Z</time>
      </trkpt>
      <trkpt lat="63.27026" lon="18.7622">
        <ele>32.284797</ele>
        <time>2020-10-03T08:08:07.844Z</time>
      </trkpt>
      <trkpt lat="63.27171" lon="18.75786">
        <ele>39.887173</ele>
        <time>2020-10-03T08:09:05.859Z</time>
      </trkpt>
      <trkpt lat="63.27304" lon="18.75439">
        <ele>52.255272</ele>
        <time>2020-10-03T08:10:28.857Z</time>
      </trkpt>
      <trkpt lat="63.27467" lon="18.75177">
        <ele>54.604974</ele>
        <time>2020-10-03T08:11:53.846Z</time>
      </trkpt>
      <trkpt lat="63.27664" lon="18.74969">
        <ele>51.954459</ele>
        <time>2020-10-03T08:12:55.861Z</time>
      </trkpt>
      <trkpt lat="63.27878" lon="18.74796">
        <ele>49.442952</ele>
        <time>2020-10-03T08:13:44.871Z</time>
      </trkpt>
      <trkpt lat="63.28041" lon="18.74506">
        <ele>50.226566</ele>
        <time>2020-10-03T08:14:35.858Z</time>
      </trkpt>
      <trkpt lat="63.282" lon="18.7416">
        <ele>52.920563</ele>
        <time>2020-10-03T08:15:54.886Z</time>
      </trkpt>
      <trkpt lat="63.28335" lon="18.73716">
        <ele>47.244899</ele>
        <time>2020-10-03T08:16:40.884Z</time>
      </trkpt>
      <trkpt lat="63.28522" lon="18.73325">
        <ele>45.929329</ele>
        <time>2020-10-03T08:17:20.885Z</time>
      </trkpt>
      <trkpt lat="63.28699" lon="18.73089">
        <ele>47.101171</ele>
        <time>2020-10-03T08:18:11.859Z</time>
      </trkpt>
      <trkpt lat="63.28761" lon="18.72609">
        <ele>32.952288</ele>
        <time>2020-10-03T08:18:54.864Z</time>
      </trkpt>
      <trkpt lat="63.28724" lon="18.72123">
        <ele>34.454813</ele>
        <time>2020-10-03T08:20:11.877Z</time>
      </trkpt>
      <trkpt lat="63.28721" lon="18.71617">
        <ele>40.474737</ele>
        <time>2020-10-03T08:21:18.888Z</time>
      </trkpt>
      <trkpt lat="63.28829" lon="18.71215">
        <ele>44.24036</ele>
        <time>2020-10-03T08:22:12.904Z</time>
      </trkpt>
      <trkpt lat="63.28876" lon="18.70927">
        <ele>42.186079</ele>
        <time>2020-10-03T08:24:00.886Z</time>
      </trkpt>
      <trkpt lat="63.2871" lon="18.7081">
        <ele>36.776022</ele>
        <time>2020-10-03T08:25:01.899Z</time>
      </trkpt>
      <trkpt lat="63.28496" lon="18.70923">
        <ele>31.474795</ele>
        <time>2020-10-03T08:26:01.857Z</time>
      </trkpt>
      <trkpt lat="63.28308" lon="18.70882">
        <ele>38.361377</ele>
        <time>2020-10-03T08:27:18.852Z</time>
      </trkpt>
      <trkpt lat="63.28104" lon="18.7099">
        <ele>53.429018</ele>
        <time>2020-10-03T08:28:58.909Z</time>
      </trkpt>
      <trkpt lat="63.27903" lon="18.71044">
        <ele>57.329584</ele>
        <time>2020-10-03T08:30:22.866Z</time>
      </trkpt>
      <trkpt lat="63.27709" lon="18.70885">
        <ele>54.876563</ele>
        <time>2020-10-03T08:31:28.872Z</time>
      </trkpt>
      <trkpt lat="63.2753" lon="18.70617">
        <ele>61.86354</ele>
        <time>2020-10-03T08:32:37.871Z</time>
      </trkpt>
      <trkpt lat="63.27502" lon="18.70161">
        <ele>67.041036</ele>
        <time>2020-10-03T08:33:55.893Z</time>
      </trkpt>
      <trkpt lat="63.27475" lon="18.69667">
        <ele>64.484529</ele>
        <time>2020-10-03T08:34:41.863Z</time>
      </trkpt>
      <trkpt lat="63.27261" lon="18.69187">
        <ele>41.214357</ele>
        <time>2020-10-03T08:35:23.865Z</time>
      </trkpt>
      <trkpt lat="63.27044" lon="18.6907">
        <ele>37.555331</ele>
        <time>2020-10-03T08:36:07.862Z</time>
      </trkpt>
      <trkpt lat="63.26822" lon="18.69052">
        <ele>44.367505</ele>
        <time>2020-10-03T08:37:02.866Z</time>
      </trkpt>
      <trkpt lat="63.26626" lon="18.6894">
        <ele>54.629544</ele>
        <time>2020-10-03T08:38:25.876Z</time>
      </trkpt>
      <trkpt lat="63.26447" lon="18.68712">
        <ele>63.35869</ele>
        <time>2020-10-03T08:39:52.881Z</time>
      </trkpt>
      <trkpt lat="63.26254" lon="18.68627">
        <ele>66.481525</ele>
        <time>2020-10-03T08:41:11.859Z</time>
      </trkpt>
      <trkpt lat="63.26035" lon="18.68595">
        <ele>60.663484</ele>
        <time>2020-10-03T08:41:56.896Z</time>
      </trkpt>
      <trkpt lat="63.25813" lon="18.68558">
        <ele>60.4218</ele>
        <time>2020-10-03T08:42:38.855Z</time>
      </trkpt>
      <trkpt lat="63.25605" lon="18.68531">
        <ele>68.86965</ele>
        <time>2020-10-03T08:44:00.879Z</time>
      </trkpt>
      <trkpt lat="63.25413" lon="18.68263">
        <ele>59.154232</ele>
        <time>2020-10-03T08:44:31.889Z</time>
      </trkpt>
      <trkpt lat="63.2533" lon="18.67765">
        <ele>50.8505</ele>
        <time>2020-10-03T08:44:58.872Z</time>
      </trkpt>
      <trkpt lat="63.25234" lon="18.67369">
        <ele>64.647821</ele>
        <time>2020-10-03T08:46:17.879Z</time>
      </trkpt>
      <trkpt lat="63.25121" lon="18.66996">
        <ele>78.810589</ele>
        <time>2020-10-03T08:48:21.875Z</time>
      </trkpt>
      <trkpt lat="63.25119" lon="18.66567">
        <ele>83.082038</ele>
        <time>2020-10-03T08:50:15.889Z</time>
      </trkpt>
      <trkpt lat="63.24973" lon="18.66239">
        <ele>76.353544</ele>
        <time>2020-10-03T08:50:51.858Z</time>
      </trkpt>
      <trkpt lat="63.24748" lon="18.6611">
        <ele>65.559574</ele>
        <time>2020-10-03T08:51:11.882Z</time>
      </trkpt>
      <trkpt lat="63.24526" lon="18.66284">
        <ele>54.02524</ele>
        <time>2020-10-03T08:51:37.865Z</time>
      </trkpt>
      <trkpt lat="63.24355" lon="18.65941">
        <ele>43.414775</ele>
        <time>2020-10-03T08:52:12.877Z</time>
      </trkpt>
      <trkpt lat="63.24177" lon="18.65731">
        <ele>34.1029</ele>
        <time>2020-10-03T08:52:34.914Z</time>
      </trkpt>
      <trkpt lat="63.23898" lon="18.65633">
        <ele>26.85353</ele>
        <time>2020-10-03T08:53:14.917Z</time>
      </trkpt>
      <trkpt lat="63.23706" lon="18.65764">
        <ele>28.661468</ele>
        <time>2020-10-03T08:53:54.877Z</time>
      </trkpt>
      <trkpt lat="63.23548" lon="18.66034">
        <ele>32.650734</ele>
        <time>2020-10-03T08:54:37.867Z</time>
      </trkpt>
      <trkpt lat="63.23405" lon="18.6576">
        <ele>31.715537</ele>
        <time>2020-10-03T08:55:18.871Z</time>
      </trkpt>
      <trkpt lat="63.23285" lon="18.65385">
        <ele>33.225022</ele>
        <time>2020-10-03T08:56:01.879Z</time>
      </trkpt>
      <trkpt lat="63.23256" lon="18.64902">
        <ele>37.35036</ele>
        <time>2020-10-03T08:56:59.867Z</time>
      </trkpt>
      <trkpt lat="63.23359" lon="18.64459">
        <ele>36.571934</ele>
        <time>2020-10-03T08:57:46.863Z</time>
      </trkpt>
      <trkpt lat="63.23491" lon="18.64132">
        <ele>35.797319</ele>
        <time>2020-10-03T08:58:27.864Z</time>
      </trkpt>
      <trkpt lat="63.23513" lon="18.63671">
        <ele>42.081519</ele>
        <time>2020-10-03T08:59:27.877Z</time>
      </trkpt>
      <trkpt lat="63.23501" lon="18.63234">
        <ele>50.427976</ele>
        <time>2020-10-03T09:01:04.860Z</time>
      </trkpt>
      <trkpt lat="63.23521" lon="18.62771">
        <ele>48.502669</ele>
        <time>2020-10-03T09:02:26.872Z</time>
      </trkpt>
      <trkpt lat="63.23544" lon="18.62313">
        <ele>51.998219</ele>
        <time>2020-10-03T09:03:36.896Z</time>
      </trkpt>
      <trkpt lat="63.23566" lon="18.61881">
        <ele>58.10843</ele>
        <time>2020-10-03T09:04:39.873Z</time>
      </trkpt>
      <trkpt lat="63.23589" lon="18.61414">
        <ele>57.044987</ele>
        <time>2020-10-03T09:05:36.881Z</time>
      </trkpt>
      <trkpt lat="63.23615" lon="18.60933">
        <ele>57.536978</ele>
        <time>2020-10-03T09:06:22.878Z</time>
      </trkpt>
      <trkpt lat="63.23601" lon="18.60463">
        <ele>54.582415</ele>
        <time>2020-10-03T09:07:22.917Z</time>
      </trkpt>
      <trkpt lat="63.23514" lon="18.59991">
        <ele>58.456386</ele>
        <time>2020-10-03T09:08:11.933Z</time>
      </trkpt>
      <trkpt lat="63.2334" lon="18.5975">
        <ele>69.446906</ele>
        <time>2020-10-03T09:09:40.917Z</time>
      </trkpt>
      <trkpt lat="63.23341" lon="18.59244">
        <ele>70.176749</ele>
        <time>2020-10-03T09:10:44.922Z</time>
      </trkpt>
      <trkpt lat="63.23343" lon="18.58724">
        <ele>70.57462</ele>
        <time>2020-10-03T09:11:25.878Z</time>
      </trkpt>
      <trkpt lat="63.23351" lon="18.58229">
        <ele>58.845601</ele>
        <time>2020-10-03T09:12:20.876Z</time>
      </trkpt>
      <trkpt lat="63.23326" lon="18.57757">
        <ele>66.256496</ele>
        <time>2020-10-03T09:13:14.887Z</time>
      </trkpt>
      <trkpt lat="63.23294" lon="18.57274">
        <ele>71.197395</ele>
        <time>2020-10-03T09:14:19.884Z</time>
      </trkpt>
      <trkpt lat="63.23259" lon="18.56753">
        <ele>65.158848</ele>
        <time>2020-10-03T09:15:05.888Z</time>
      </trkpt>
      <trkpt lat="63.23138" lon="18.56287">
        <ele>58.56245</ele>
        <time>2020-10-03T09:15:45.865Z</time>
      </trkpt>
      <trkpt lat="63.22967" lon="18.55984">
        <ele>58.285935</ele>
        <time>2020-10-03T09:16:39.882Z</time>
      </trkpt>
      <trkpt lat="63.22798" lon="18.55712">
        <ele>57.060124</ele>
        <time>2020-10-03T09:17:19.874Z</time>
      </trkpt>
      <trkpt lat="63.22601" lon="18.55569">
        <ele>61.709937</ele>
        <time>2020-10-03T09:18:16.883Z</time>
      </trkpt>
      <trkpt lat="63.22396" lon="18.55554">
        <ele>79.872099</ele>
        <time>2020-10-03T09:20:09.878Z</time>
      </trkpt>
      <trkpt lat="63.22195" lon="18.55526">
        <ele>83.094716</ele>
        <time>2020-10-03T09:21:48.897Z</time>
      </trkpt>
      <trkpt lat="63.21981" lon="18.55536">
        <ele>85.970251</ele>
        <time>2020-10-03T09:22:57.910Z</time>
      </trkpt>
      <trkpt lat="63.21777" lon="18.556">
        <ele>88.264474</ele>
        <time>2020-10-03T09:24:13.876Z</time>
      </trkpt>
      <trkpt lat="63.21576" lon="18.55663">
        <ele>87.037443</ele>
        <time>2020-10-03T09:24:55.882Z</time>
      </trkpt>
      <trkpt lat="63.21354" lon="18.55679">
        <ele>83.901082</ele>
        <time>2020-10-03T09:25:42.875Z</time>
      </trkpt>
      <trkpt lat="63.21151" lon="18.55386">
        <ele>80.489461</ele>
        <time>2020-10-03T09:26:24.870Z</time>
      </trkpt>
      <trkpt lat="63.20976" lon="18.55116">
        <ele>83.277582</ele>
        <time>2020-10-03T09:27:16.875Z</time>
      </trkpt>
      <trkpt lat="63.20886" lon="18.54708">
        <ele>89.798951</ele>
        <time>2020-10-03T09:28:21.877Z</time>
      </trkpt>
      <trkpt lat="63.20752" lon="18.54389">
        <ele>97.354316</ele>
        <time>2020-10-03T09:29:23.918Z</time>
      </trkpt>
      <trkpt lat="63.20598" lon="18.5409">
        <ele>103.243591</ele>
        <time>2020-10-03T09:30:57.885Z</time>
      </trkpt>
      <trkpt lat="63.20414" lon="18.53761">
        <ele>91.463342</ele>
        <time>2020-10-03T09:31:32.919Z</time>
      </trkpt>
      <trkpt lat="63.2027" lon="18.53437">
        <ele>76.740649</ele>
        <time>2020-10-03T09:31:52.900Z</time>
      </trkpt>
      <trkpt lat="63.20203" lon="18.52949">
        <ele>60.586329</ele>
        <time>2020-10-03T09:32:12.899Z</time>
      </trkpt>
      <trkpt lat="63.20139" lon="18.52424">
        <ele>48.358363</ele>
        <time>2020-10-03T09:32:32.907Z</time>
      </trkpt>
      <trkpt lat="63.20272" lon="18.52053">
        <ele>39.161928</ele>
        <time>2020-10-03T09:32:52.874Z</time>
      </trkpt>
      <trkpt lat="63.20449" lon="18.51763">
        <ele>36.073697</ele>
        <time>2020-10-03T09:33:25.865Z</time>
      </trkpt>
      <trkpt lat="63.20634" lon="18.51481">
        <ele>43.905947</ele>
        <time>2020-10-03T09:34:32.893Z</time>
      </trkpt>
      <trkpt lat="63.2066" lon="18.51114">
        <ele>48.139772</ele>
        <time>2020-10-03T09:35:43.869Z</time>
      </trkpt>
      <trkpt lat="63.20523" lon="18.50661">
        <ele>53.898127</ele>
        <time>2020-10-03T09:36:37.873Z</time>
      </trkpt>
      <trkpt lat="63.20355" lon="18.50438">
        <ele>55.685721</ele>
        <time>2020-10-03T09:37:43.927Z</time>
      </trkpt>
      <trkpt lat="63.20165" lon="18.50218">
        <ele>48.806718</ele>
        <time>2020-10-03T09:38:41.896Z</time>
      </trkpt>
      <trkpt lat="63.19921" lon="18.4993">
        <ele>43.272278</ele>
        <time>2020-10-03T09:39:25.910Z</time>
      </trkpt>
      <trkpt lat="63.19713" lon="18.49692">
        <ele>43.766307</ele>
        <time>2020-10-03T09:40:38.895Z</time>
      </trkpt>
      <trkpt lat="63.19526" lon="18.49487">
        <ele>41.777803</ele>
        <time>2020-10-03T09:41:38.884Z</time>
      </trkpt>
      <trkpt lat="63.19313" lon="18.49208">
        <ele>39.354695</ele>
        <time>2020-10-03T09:42:19.905Z</time>
      </trkpt>
      <trkpt lat="63.19161" lon="18.48914">
        <ele>52.838686</ele>
        <time>2020-10-03T09:43:59.893Z</time>
      </trkpt>
      <trkpt lat="63.19013" lon="18.4863">
        <ele>67.735371</ele>
        <time>2020-10-03T09:46:06.954Z</time>
      </trkpt>
      <trkpt lat="63.18862" lon="18.48336">
        <ele>77.449259</ele>
        <time>2020-10-03T09:47:52.890Z</time>
      </trkpt>
      <trkpt lat="63.18742" lon="18.47949">
        <ele>90.067828</ele>
        <time>2020-10-03T09:49:39.889Z</time>
      </trkpt>
      <trkpt lat="63.1868" lon="18.47518">
        <ele>97.657077</ele>
        <time>2020-10-03T09:51:09.895Z</time>
      </trkpt>
      <trkpt lat="63.18571" lon="18.47149">
        <ele>97.23837</ele>
        <time>2020-10-03T09:52:33.880Z</time>
      </trkpt>
      <trkpt lat="63.18411" lon="18.46922">
        <ele>114.581755</ele>
        <time>2020-10-03T09:54:37.938Z</time>
      </trkpt>
      <trkpt lat="63.18219" lon="18.46861">
        <ele>124.19891</ele>
        <time>2020-10-03T09:56:33.902Z</time>
      </trkpt>
      <trkpt lat="63.18042" lon="18.46716">
        <ele>135.699347</ele>
        <time>2020-10-03T09:58:36.896Z</time>
      </trkpt>
      <trkpt lat="63.17928" lon="18.46344">
        <ele>141.158739</ele>
        <time>2020-10-03T10:00:33.871Z</time>
      </trkpt>
      <trkpt lat="63.17834" lon="18.4585">
        <ele>139.005825</ele>
        <time>2020-10-03T10:01:29.905Z</time>
      </trkpt>
      <trkpt lat="63.17785" lon="18.45351">
        <ele>126.964962</ele>
        <time>2020-10-03T10:01:50.899Z</time>
      </trkpt>
      <trkpt lat="63.17814" lon="18.44871">
        <ele>114.338624</ele>
        <time>2020-10-03T10:02:11.903Z</time>
      </trkpt>
      <trkpt lat="63.17748" lon="18.44423">
        <ele>98.96607</ele>
        <time>2020-10-03T10:02:31.913Z</time>
      </trkpt>
      <trkpt lat="63.17645" lon="18.43951">
        <ele>89.414754</ele>
        <time>2020-10-03T10:03:17.896Z</time>
      </trkpt>
      <trkpt lat="63.17437" lon="18.43637">
        <ele>91.736714</ele>
        <time>2020-10-03T10:04:21.924Z</time>
      </trkpt>
      <trkpt lat="63.1724" lon="18.43466">
        <ele>104.493657</ele>
        <time>2020-10-03T10:05:33.885Z</time>
      </trkpt>
      <trkpt lat="63.17062" lon="18.43267">
        <ele>110.365681</ele>
        <time>2020-10-03T10:06:46.887Z</time>
      </trkpt>
      <trkpt lat="63.16907" lon="18.42849">
        <ele>98.624234</ele>
        <time>2020-10-03T10:07:28.900Z</time>
      </trkpt>
      <trkpt lat="63.16772" lon="18.42508">
        <ele>86.83288</ele>
        <time>2020-10-03T10:07:48.900Z</time>
      </trkpt>
      <trkpt lat="63.16672" lon="18.42152">
        <ele>101.499068</ele>
        <time>2020-10-03T10:09:05.895Z</time>
      </trkpt>
      <trkpt lat="63.16454" lon="18.42017">
        <ele>114.329696</ele>
        <time>2020-10-03T10:10:17.901Z</time>
      </trkpt>
      <trkpt lat="63.16336" lon="18.41699">
        <ele>109.042159</ele>
        <time>2020-10-03T10:11:16.901Z</time>
      </trkpt>
      <trkpt lat="63.16326" lon="18.41122">
        <ele>102.205614</ele>
        <time>2020-10-03T10:12:20.955Z</time>
      </trkpt>
      <trkpt lat="63.1635" lon="18.40659">
        <ele>91.824554</ele>
        <time>2020-10-03T10:12:42.921Z</time>
      </trkpt>
      <trkpt lat="63.16328" lon="18.40139">
        <ele>86.897364</ele>
        <time>2020-10-03T10:13:17.888Z</time>
      </trkpt>
      <trkpt lat="63.16389" lon="18.39641">
        <ele>90.771985</ele>
        <time>2020-10-03T10:38:04.086Z</time>
      </trkpt>
      <trkpt lat="63.16481" lon="18.39243">
        <ele>99.341077</ele>
        <time>2020-10-03T10:39:33.101Z</time>
      </trkpt>
      <trkpt lat="63.16638" lon="18.38995">
        <ele>110.467568</ele>
        <time>2020-10-03T10:41:34.073Z</time>
      </trkpt>
      <trkpt lat="63.16689" lon="18.38593">
        <ele>121.81288</ele>
        <time>2020-10-03T10:43:54.084Z</time>
      </trkpt>
      <trkpt lat="63.16678" lon="18.38168">
        <ele>132.115997</ele>
        <time>2020-10-03T10:45:51.102Z</time>
      </trkpt>
      <trkpt lat="63.16666" lon="18.3772">
        <ele>140.659377</ele>
        <time>2020-10-03T10:47:27.092Z</time>
      </trkpt>
      <trkpt lat="63.16764" lon="18.37314">
        <ele>152.970372</ele>
        <time>2020-10-03T10:49:14.071Z</time>
      </trkpt>
      <trkpt lat="63.16866" lon="18.36943">
        <ele>161.94468</ele>
        <time>2020-10-03T10:50:55.076Z</time>
      </trkpt>
      <trkpt lat="63.16885" lon="18.36506">
        <ele>163.910407</ele>
        <time>2020-10-03T10:52:22.079Z</time>
      </trkpt>
      <trkpt lat="63.16893" lon="18.36058">
        <ele>165.155144</ele>
        <time>2020-10-03T10:53:54.092Z</time>
      </trkpt>
      <trkpt lat="63.16854" lon="18.35587">
        <ele>164.889727</ele>
        <time>2020-10-03T10:54:47.087Z</time>
      </trkpt>
      <trkpt lat="63.16782" lon="18.35165">
        <ele>167.545677</ele>
        <time>2020-10-03T10:55:42.074Z</time>
      </trkpt>
      <trkpt lat="63.16883" lon="18.34774">
        <ele>181.513589</ele>
        <time>2020-10-03T10:57:28.093Z</time>
      </trkpt>
      <trkpt lat="63.17011" lon="18.34435">
        <ele>193.463313</ele>
        <time>2020-10-03T10:59:25.082Z</time>
      </trkpt>
      <trkpt lat="63.17137" lon="18.34045">
        <ele>195.046902</ele>
        <time>2020-10-03T11:00:42.102Z</time>
      </trkpt>
      <trkpt lat="63.17183" lon="18.33623">
        <ele>198.308153</ele>
        <time>2020-10-03T11:02:19.099Z</time>
      </trkpt>
      <trkpt lat="63.17065" lon="18.33232">
        <ele>195.083656</ele>
        <time>2020-10-03T11:03:21.119Z</time>
      </trkpt>
      <trkpt lat="63.16889" lon="18.32817">
        <ele>168.546376</ele>
        <time>2020-10-03T11:04:01.106Z</time>
      </trkpt>
      <trkpt lat="63.16702" lon="18.32378">
        <ele>163.634449</ele>
        <time>2020-10-03T11:04:47.096Z</time>
      </trkpt>
      <trkpt lat="63.1657" lon="18.32006">
        <ele>177.999691</ele>
        <time>2020-10-03T11:05:49.081Z</time>
      </trkpt>
      <trkpt lat="63.16463" lon="18.3165">
        <ele>196.90325</ele>
        <time>2020-10-03T11:07:55.084Z</time>
      </trkpt>
      <trkpt lat="63.16329" lon="18.31357">
        <ele>208.029897</ele>
        <time>2020-10-03T11:09:56.081Z</time>
      </trkpt>
      <trkpt lat="63.16329" lon="18.30906">
        <ele>213.842869</ele>
        <time>2020-10-03T11:11:24.080Z</time>
      </trkpt>
      <trkpt lat="63.16386" lon="18.30499">
        <ele>233.676686</ele>
        <time>2020-10-03T11:13:46.082Z</time>
      </trkpt>
      <trkpt lat="63.1648" lon="18.30092">
        <ele>237.715687</ele>
        <time>2020-10-03T11:15:57.087Z</time>
      </trkpt>
      <trkpt lat="63.16637" lon="18.29721">
        <ele>227.536208</ele>
        <time>2020-10-03T11:16:43.088Z</time>
      </trkpt>
      <trkpt lat="63.16695" lon="18.29277">
        <ele>227.026342</ele>
        <time>2020-10-03T11:17:32.123Z</time>
      </trkpt>
      <trkpt lat="63.16629" lon="18.28842">
        <ele>236.130855</ele>
        <time>2020-10-03T11:18:57.097Z</time>
      </trkpt>
      <trkpt lat="63.16518" lon="18.28486">
        <ele>250.259702</ele>
        <time>2020-10-03T11:20:58.128Z</time>
      </trkpt>
      <trkpt lat="63.16518" lon="18.28059">
        <ele>256.217138</ele>
        <time>2020-10-03T11:23:07.094Z</time>
      </trkpt>
      <trkpt lat="63.16414" lon="18.2762">
        <ele>255.190537</ele>
        <time>2020-10-03T11:24:00.113Z</time>
      </trkpt>
      <trkpt lat="63.16252" lon="18.27329">
        <ele>258.908597</ele>
        <time>2020-10-03T11:25:23.086Z</time>
      </trkpt>
      <trkpt lat="63.16076" lon="18.27026">
        <ele>258.395652</ele>
        <time>2020-10-03T11:26:20.141Z</time>
      </trkpt>
      <trkpt lat="63.15876" lon="18.26885">
        <ele>259.259455</ele>
        <time>2020-10-03T11:27:16.084Z</time>
      </trkpt>
      <trkpt lat="63.15662" lon="18.26819">
        <ele>262.126557</ele>
        <time>2020-10-03T11:27:58.089Z</time>
      </trkpt>
      <trkpt lat="63.15447" lon="18.26756">
        <ele>266.421337</ele>
        <time>2020-10-03T11:30:16.095Z</time>
      </trkpt>
      <trkpt lat="63.15219" lon="18.26597">
        <ele>262.674904</ele>
        <time>2020-10-03T11:31:09.081Z</time>
      </trkpt>
      <trkpt lat="63.14996" lon="18.26337">
        <ele>261.368154</ele>
        <time>2020-10-03T11:32:02.096Z</time>
      </trkpt>
      <trkpt lat="63.1486" lon="18.25993">
        <ele>262.622129</ele>
        <time>2020-10-03T11:33:06.126Z</time>
      </trkpt>
      <trkpt lat="63.14671" lon="18.2571">
        <ele>254.723042</ele>
        <time>2020-10-03T11:34:01.089Z</time>
      </trkpt>
      <trkpt lat="63.14488" lon="18.25434">
        <ele>253.534408</ele>
        <time>2020-10-03T11:34:42.100Z</time>
      </trkpt>
      <trkpt lat="63.14259" lon="18.25362">
        <ele>253.119438</ele>
        <time>2020-10-03T11:35:33.091Z</time>
      </trkpt>
      <trkpt lat="63.14022" lon="18.25408">
        <ele>246.720613</ele>
        <time>2020-10-03T11:36:10.091Z</time>
      </trkpt>
      <trkpt lat="63.13801" lon="18.25254">
        <ele>227.249884</ele>
        <time>2020-10-03T11:36:35.071Z</time>
      </trkpt>
      <trkpt lat="63.13624" lon="18.24874">
        <ele>202.378233</ele>
        <time>2020-10-03T11:37:03.120Z</time>
      </trkpt>
      <trkpt lat="63.13487" lon="18.24463">
        <ele>185.130041</ele>
        <time>2020-10-03T11:37:28.093Z</time>
      </trkpt>
      <trkpt lat="63.13362" lon="18.24112">
        <ele>187.37527</ele>
        <time>2020-10-03T11:38:29.089Z</time>
      </trkpt>
      <trkpt lat="63.13209" lon="18.24485">
        <ele>184.450454</ele>
        <time>2020-10-03T11:39:14.085Z</time>
      </trkpt>
      <trkpt lat="63.13038" lon="18.24823">
        <ele>182.301705</ele>
        <time>2020-10-03T11:40:09.077Z</time>
      </trkpt>
      <trkpt lat="63.12858" lon="18.25177">
        <ele>171.130489</ele>
        <time>2020-10-03T11:40:49.087Z</time>
      </trkpt>
      <trkpt lat="63.12661" lon="18.25454">
        <ele>163.867875</ele>
        <time>2020-10-03T11:41:37.103Z</time>
      </trkpt>
      <trkpt lat="63.12431" lon="18.25538">
        <ele>162.101688</ele>
        <time>2020-10-03T11:42:36.089Z</time>
      </trkpt>
      <trkpt lat="63.12216" lon="18.25525">
        <ele>164.345684</ele>
        <time>2020-10-03T11:43:47.099Z</time>
      </trkpt>
      <trkpt lat="63.11969" lon="18.25504">
        <ele>158.232521</ele>
        <time>2020-10-03T11:44:28.101Z</time>
      </trkpt>
      <trkpt lat="63.11749" lon="18.25485">
        <ele>154.163229</ele>
        <time>2020-10-03T11:44:52.089Z</time>
      </trkpt>
      <trkpt lat="63.11537" lon="18.25448">
        <ele>158.416797</ele>
        <time>2020-10-03T11:45:49.094Z</time>
      </trkpt>
      <trkpt lat="63.11323" lon="18.25365">
        <ele>158.862585</ele>
        <time>2020-10-03T11:46:47.110Z</time>
      </trkpt>
      <trkpt lat="63.11101" lon="18.25405">
        <ele>152.610828</ele>
        <time>2020-10-03T11:47:29.084Z</time>
      </trkpt>
      <trkpt lat="63.10861" lon="18.25447">
        <ele>150.089449</ele>
        <time>2020-10-03T11:48:08.089Z</time>
      </trkpt>
      <trkpt lat="63.10653" lon="18.25297">
        <ele>155.266919</ele>
        <time>2020-10-03T11:49:29.096Z</time>
      </trkpt>
      <trkpt lat="63.10449" lon="18.25262">
        <ele>152.861176</ele>
        <time>2020-10-03T11:50:34.086Z</time>
      </trkpt>
      <trkpt lat="63.10241" lon="18.25367">
        <ele>154.096811</ele>
        <time>2020-10-03T11:51:47.096Z</time>
      </trkpt>
      <trkpt lat="63.10037" lon="18.25552">
        <ele>145.618797</ele>
        <time>2020-10-03T11:52:18.088Z</time>
      </trkpt>
      <trkpt lat="63.098" lon="18.25807">
        <ele>136.374173</ele>
        <time>2020-10-03T11:52:51.090Z</time>
      </trkpt>
      <trkpt lat="63.09589" lon="18.26108">
        <ele>125.560071</ele>
        <time>2020-10-03T11:53:22.103Z</time>
      </trkpt>
      <trkpt lat="63.09397" lon="18.26376">
        <ele>123.183173</ele>
        <time>2020-10-03T11:54:07.088Z</time>
      </trkpt>
      <trkpt lat="63.09212" lon="18.26657">
        <ele>123.815866</ele>
        <time>2020-10-03T11:55:00.112Z</time>
      </trkpt>
      <trkpt lat="63.09013" lon="18.27029">
        <ele>118.861793</ele>
        <time>2020-10-03T11:55:40.144Z</time>
      </trkpt>
      <trkpt lat="63.08833" lon="18.27367">
        <ele>115.069431</ele>
        <time>2020-10-03T11:56:20.098Z</time>
      </trkpt>
      <trkpt lat="63.08614" lon="18.27554">
        <ele>114.638467</ele>
        <time>2020-10-03T11:57:00.103Z</time>
      </trkpt>
      <trkpt lat="63.08391" lon="18.27656">
        <ele>115.104815</ele>
        <time>2020-10-03T11:57:44.092Z</time>
      </trkpt>
      <trkpt lat="63.08156" lon="18.278">
        <ele>112.328282</ele>
        <time>2020-10-03T11:58:37.086Z</time>
      </trkpt>
      <trkpt lat="63.07965" lon="18.28099">
        <ele>101.186765</ele>
        <time>2020-10-03T11:59:03.134Z</time>
      </trkpt>
      <trkpt lat="63.079" lon="18.28558">
        <ele>89.204708</ele>
        <time>2020-10-03T11:59:23.088Z</time>
      </trkpt>
      <trkpt lat="63.07866" lon="18.29104">
        <ele>80.69119</ele>
        <time>2020-10-03T11:59:47.091Z</time>
      </trkpt>
      <trkpt lat="63.07834" lon="18.29609">
        <ele>84.379746</ele>
        <time>2020-10-03T12:00:36.111Z</time>
      </trkpt>
      <trkpt lat="63.07804" lon="18.30161">
        <ele>80.281357</ele>
        <time>2020-10-03T12:01:28.123Z</time>
      </trkpt>
      <trkpt lat="63.07716" lon="18.30736">
        <ele>76.069016</ele>
        <time>2020-10-03T12:02:16.114Z</time>
      </trkpt>
      <trkpt lat="63.07625" lon="18.31213">
        <ele>70.940118</ele>
        <time>2020-10-03T12:03:03.087Z</time>
      </trkpt>
      <trkpt lat="63.07488" lon="18.31586">
        <ele>62.106513</ele>
        <time>2020-10-03T12:03:41.126Z</time>
      </trkpt>
      <trkpt lat="63.07269" lon="18.31752">
        <ele>48.711634</ele>
        <time>2020-10-03T12:04:01.083Z</time>
      </trkpt>
      <trkpt lat="63.07027" lon="18.31829">
        <ele>38.40135</ele>
        <time>2020-10-03T12:04:27.089Z</time>
      </trkpt>
      <trkpt lat="63.06807" lon="18.31898">
        <ele>36.108267</ele>
        <time>2020-10-03T12:05:07.103Z</time>
      </trkpt>
      <trkpt lat="63.06591" lon="18.3195">
        <ele>38.876567</ele>
        <time>2020-10-03T12:05:55.102Z</time>
      </trkpt>
      <trkpt lat="63.06401" lon="18.32125">
        <ele>46.695121</ele>
        <time>2020-10-03T12:06:52.128Z</time>
      </trkpt>
      <trkpt lat="63.06241" lon="18.3237">
        <ele>56.350773</ele>
        <time>2020-10-03T12:08:34.116Z</time>
      </trkpt>
      <trkpt lat="63.0606" lon="18.32563">
        <ele>60.69529</ele>
        <time>2020-10-03T12:10:05.107Z</time>
      </trkpt>
      <trkpt lat="63.05853" lon="18.32675">
        <ele>57.103592</ele>
        <time>2020-10-03T12:10:52.152Z</time>
      </trkpt>
      <trkpt lat="63.05636" lon="18.32865">
        <ele>40.957351</ele>
        <time>2020-10-03T12:11:38.090Z</time>
      </trkpt>
      <trkpt lat="63.0541" lon="18.32613">
        <ele>34.105885</ele>
        <time>2020-10-03T12:12:19.090Z</time>
      </trkpt>
      <trkpt lat="63.0519" lon="18.32528">
        <ele>35.241967</ele>
        <time>2020-10-03T12:13:11.108Z</time>
      </trkpt>
      <trkpt lat="63.04942" lon="18.32498">
        <ele>25.875408</ele>
        <time>2020-10-03T12:13:53.136Z</time>
      </trkpt>
      <trkpt lat="63.04721" lon="18.32586">
        <ele>26.217095</ele>
        <time>2020-10-03T12:14:39.126Z</time>
      </trkpt>
      <trkpt lat="63.04494" lon="18.32595">
        <ele>32.488533</ele>
        <time>2020-10-03T12:15:41.093Z</time>
      </trkpt>
      <trkpt lat="63.04284" lon="18.32618">
        <ele>45.605362</ele>
        <time>2020-10-03T12:17:12.106Z</time>
      </trkpt>
      <trkpt lat="63.04084" lon="18.32632">
        <ele>51.004384</ele>
        <time>2020-10-03T12:18:35.129Z</time>
      </trkpt>
      <trkpt lat="63.03883" lon="18.32627">
        <ele>60.341085</ele>
        <time>2020-10-03T12:20:00.102Z</time>
      </trkpt>
      <trkpt lat="63.03684" lon="18.32623">
        <ele>70.967109</ele>
        <time>2020-10-03T12:21:43.092Z</time>
      </trkpt>
      <trkpt lat="63.03481" lon="18.32524">
        <ele>75.01784</ele>
        <time>2020-10-03T12:23:00.090Z</time>
      </trkpt>
      <trkpt lat="63.03317" lon="18.32126">
        <ele>65.190758</ele>
        <time>2020-10-03T12:23:42.111Z</time>
      </trkpt>
      <trkpt lat="63.03179" lon="18.31719">
        <ele>55.660371</ele>
        <time>2020-10-03T12:24:06.095Z</time>
      </trkpt>
      <trkpt lat="63.03086" lon="18.3126">
        <ele>56.54482</ele>
        <time>2020-10-03T12:24:54.107Z</time>
      </trkpt>
      <trkpt lat="63.02962" lon="18.30959">
        <ele>61.4748</ele>
        <time>2020-10-03T12:26:17.099Z</time>
      </trkpt>
      <trkpt lat="63.02854" lon="18.30499">
        <ele>60.14913</ele>
        <time>2020-10-03T12:27:27.138Z</time>
      </trkpt>
      <trkpt lat="63.02744" lon="18.30086">
        <ele>52.61967</ele>
        <time>2020-10-03T12:27:50.111Z</time>
      </trkpt>
      <trkpt lat="63.02505" lon="18.29762">
        <ele>45.121532</ele>
        <time>2020-10-03T12:28:28.105Z</time>
      </trkpt>
      <trkpt lat="63.02267" lon="18.29675">
        <ele>45.207609</ele>
        <time>2020-10-03T12:29:12.132Z</time>
      </trkpt>
      <trkpt lat="63.02004" lon="18.29537">
        <ele>35.773134</ele>
        <time>2020-10-03T12:29:49.110Z</time>
      </trkpt>
      <trkpt lat="63.01767" lon="18.29427">
        <ele>26.543858</ele>
        <time>2020-10-03T12:30:12.109Z</time>
      </trkpt>
      <trkpt lat="63.01574" lon="18.29234">
        <ele>27.149054</ele>
        <time>2020-10-03T12:30:52.093Z</time>
      </trkpt>
      <trkpt lat="63.014" lon="18.28998">
        <ele>31.070267</ele>
        <time>2020-10-03T12:31:50.139Z</time>
      </trkpt>
      <trkpt lat="63.01193" lon="18.28996">
        <ele>34.742533</ele>
        <time>2020-10-03T12:33:00.109Z</time>
      </trkpt>
      <trkpt lat="63.00971" lon="18.28974">
        <ele>34.927196</ele>
        <time>2020-10-03T12:35:07.119Z</time>
      </trkpt>
      <trkpt lat="63.00809" lon="18.28693">
        <ele>44.845641</ele>
        <time>2020-10-03T12:36:30.145Z</time>
      </trkpt>
      <trkpt lat="63.00761" lon="18.28221">
        <ele>42.793568</ele>
        <time>2020-10-03T12:47:38.089Z</time>
      </trkpt>
      <trkpt lat="63.00798" lon="18.27751">
        <ele>32.166232</ele>
        <time>2020-10-03T12:48:22.127Z</time>
      </trkpt>
      <trkpt lat="63.00816" lon="18.27291">
        <ele>27.091042</ele>
        <time>2020-10-03T12:49:06.105Z</time>
      </trkpt>
      <trkpt lat="63.00743" lon="18.26851">
        <ele>31.395539</ele>
        <time>2020-10-03T12:50:14.127Z</time>
      </trkpt>
      <trkpt lat="63.00611" lon="18.26469">
        <ele>34.682511</ele>
        <time>2020-10-03T12:51:24.136Z</time>
      </trkpt>
      <trkpt lat="63.00502" lon="18.26009">
        <ele>34.489904</ele>
        <time>2020-10-03T12:52:18.129Z</time>
      </trkpt>
      <trkpt lat="63.00461" lon="18.25533">
        <ele>31.649475</ele>
        <time>2020-10-03T12:58:06.124Z</time>
      </trkpt>
      <trkpt lat="63.00467" lon="18.25083">
        <ele>40.989372</ele>
        <time>2020-10-03T12:59:03.126Z</time>
      </trkpt>
      <trkpt lat="63.00455" lon="18.24622">
        <ele>47.190996</ele>
        <time>2020-10-03T13:00:24.103Z</time>
      </trkpt>
      <trkpt lat="63.00445" lon="18.24106">
        <ele>42.445236</ele>
        <time>2020-10-03T13:01:16.128Z</time>
      </trkpt>
      <trkpt lat="63.00512" lon="18.23572">
        <ele>45.414806</ele>
        <time>2020-10-03T13:01:58.114Z</time>
      </trkpt>
      <trkpt lat="63.00611" lon="18.23099">
        <ele>47.134275</ele>
        <time>2020-10-03T13:02:38.095Z</time>
      </trkpt>
      <trkpt lat="63.00808" lon="18.22651">
        <ele>37.911593</ele>
        <time>2020-10-03T13:03:18.160Z</time>
      </trkpt>
      <trkpt lat="63.01012" lon="18.22337">
        <ele>32.195864</ele>
        <time>2020-10-03T13:03:58.117Z</time>
      </trkpt>
      <trkpt lat="63.01175" lon="18.22051">
        <ele>33.45838</ele>
        <time>2020-10-03T13:04:40.162Z</time>
      </trkpt>
      <trkpt lat="63.01309" lon="18.21655">
        <ele>33.238616</ele>
        <time>2020-10-03T13:05:24.118Z</time>
      </trkpt>
      <trkpt lat="63.01432" lon="18.21273">
        <ele>35.245554</ele>
        <time>2020-10-03T13:06:10.118Z</time>
      </trkpt>
      <trkpt lat="63.01498" lon="18.20829">
        <ele>36.644224</ele>
        <time>2020-10-03T13:06:50.121Z</time>
      </trkpt>
      <trkpt lat="63.01519" lon="18.20355">
        <ele>40.502463</ele>
        <time>2020-10-03T13:07:39.095Z</time>
      </trkpt>
      <trkpt lat="63.01508" lon="18.19801">
        <ele>32.799763</ele>
        <time>2020-10-03T13:08:20.146Z</time>
      </trkpt>
      <trkpt lat="63.01508" lon="18.19355">
        <ele>35.928232</ele>
        <time>2020-10-03T13:09:25.126Z</time>
      </trkpt>
      <trkpt lat="63.01445" lon="18.18824">
        <ele>37.835172</ele>
        <time>2020-10-03T13:10:19.091Z</time>
      </trkpt>
      <trkpt lat="63.01249" lon="18.1867">
        <ele>36.445176</ele>
        <time>2020-10-03T13:11:20.108Z</time>
      </trkpt>
      <trkpt lat="63.01039" lon="18.18705">
        <ele>38.014231</ele>
        <time>2020-10-03T13:12:13.107Z</time>
      </trkpt>
      <trkpt lat="63.00951" lon="18.1868">
        <ele>37.375156</ele>
        <time>2020-10-03T13:25:59.112Z</time>
      </trkpt>
      <trkpt lat="63.00971" lon="18.18982">
        <ele>41.602905</ele>
        <time>2020-10-03T13:37:36.103Z</time>
      </trkpt>
      <trkpt lat="63.00809" lon="18.19186">
        <ele>49.555371</ele>
        <time>2020-10-03T13:39:36.115Z</time>
      </trkpt>
      <trkpt lat="63.00654" lon="18.19499">
        <ele>53.849602</ele>
        <time>2020-10-03T13:41:05.106Z</time>
      </trkpt>
      <trkpt lat="63.00511" lon="18.19812">
        <ele>59.771598</ele>
        <time>2020-10-03T13:42:14.109Z</time>
      </trkpt>
      <trkpt lat="63.00462" lon="18.20226">
        <ele>70.910303</ele>
        <time>2020-10-03T13:44:07.117Z</time>
      </trkpt>
      <trkpt lat="63.00402" lon="18.2067">
        <ele>69.15441</ele>
        <time>2020-10-03T13:45:24.097Z</time>
      </trkpt>
      <trkpt lat="63.00257" lon="18.21171">
        <ele>59.089934</ele>
        <time>2020-10-03T13:45:59.107Z</time>
      </trkpt>
      <trkpt lat="63.0014" lon="18.21497">
        <ele>48.646366</ele>
        <time>2020-10-03T13:46:19.115Z</time>
      </trkpt>
      <trkpt lat="63.00001" lon="18.21857">
        <ele>36.453274</ele>
        <time>2020-10-03T13:46:40.146Z</time>
      </trkpt>
      <trkpt lat="62.99871" lon="18.22228">
        <ele>26.690495</ele>
        <time>2020-10-03T13:47:02.148Z</time>
      </trkpt>
      <trkpt lat="62.99786" lon="18.22704">
        <ele>27.746183</ele>
        <time>2020-10-03T13:47:48.126Z</time>
      </trkpt>
      <trkpt lat="62.99769" lon="18.2314">
        <ele>42.877126</ele>
        <time>2020-10-03T13:49:05.136Z</time>
      </trkpt>
      <trkpt lat="62.99713" lon="18.23562">
        <ele>57.913808</ele>
        <time>2020-10-03T13:50:41.117Z</time>
      </trkpt>
      <trkpt lat="62.99592" lon="18.23908">
        <ele>63.341417</ele>
        <time>2020-10-03T13:52:08.139Z</time>
      </trkpt>
      <trkpt lat="62.99488" lon="18.24327">
        <ele>68.522131</ele>
        <time>2020-10-03T13:53:27.129Z</time>
      </trkpt>
      <trkpt lat="62.99438" lon="18.24744">
        <ele>73.096947</ele>
        <time>2020-10-03T13:55:22.138Z</time>
      </trkpt>
      <trkpt lat="62.99321" lon="18.25089">
        <ele>79.889001</ele>
        <time>2020-10-03T13:56:49.109Z</time>
      </trkpt>
      <trkpt lat="62.99157" lon="18.25352">
        <ele>89.479966</ele>
        <time>2020-10-03T13:58:29.132Z</time>
      </trkpt>
      <trkpt lat="62.98971" lon="18.25547">
        <ele>103.879782</ele>
        <time>2020-10-03T13:59:45.109Z</time>
      </trkpt>
      <trkpt lat="62.98745" lon="18.25734">
        <ele>85.606896</ele>
        <time>2020-10-03T14:00:25.107Z</time>
      </trkpt>
      <trkpt lat="62.985" lon="18.25894">
        <ele>81.457709</ele>
        <time>2020-10-03T14:01:10.118Z</time>
      </trkpt>
      <trkpt lat="62.98302" lon="18.25953">
        <ele>96.930172</ele>
        <time>2020-10-03T14:02:50.126Z</time>
      </trkpt>
      <trkpt lat="62.98109" lon="18.2597">
        <ele>116.277754</ele>
        <time>2020-10-03T14:04:58.114Z</time>
      </trkpt>
      <trkpt lat="62.97917" lon="18.25957">
        <ele>130.430948</ele>
        <time>2020-10-03T14:07:02.117Z</time>
      </trkpt>
      <trkpt lat="62.97682" lon="18.25905">
        <ele>125.395032</ele>
        <time>2020-10-03T14:08:00.106Z</time>
      </trkpt>
      <trkpt lat="62.9746" lon="18.25712">
        <ele>108.342594</ele>
        <time>2020-10-03T14:08:28.128Z</time>
      </trkpt>
      <trkpt lat="62.97265" lon="18.2549">
        <ele>96.710013</ele>
        <time>2020-10-03T14:08:49.138Z</time>
      </trkpt>
      <trkpt lat="62.97033" lon="18.25492">
        <ele>83.392024</ele>
        <time>2020-10-03T14:09:09.091Z</time>
      </trkpt>
      <trkpt lat="62.96809" lon="18.25531">
        <ele>72.334642</ele>
        <time>2020-10-03T14:09:29.115Z</time>
      </trkpt>
      <trkpt lat="62.96556" lon="18.25526">
        <ele>59.373743</ele>
        <time>2020-10-03T14:09:49.125Z</time>
      </trkpt>
      <trkpt lat="62.96328" lon="18.25628">
        <ele>57.029424</ele>
        <time>2020-10-03T14:10:20.107Z</time>
      </trkpt>
      <trkpt lat="62.96117" lon="18.25836">
        <ele>62.546824</ele>
        <time>2020-10-03T14:11:12.129Z</time>
      </trkpt>
      <trkpt lat="62.95908" lon="18.25959">
        <ele>61.609912</ele>
        <time>2020-10-03T14:11:59.130Z</time>
      </trkpt>
      <trkpt lat="62.95685" lon="18.25938">
        <ele>53.243893</ele>
        <time>2020-10-03T14:12:33.130Z</time>
      </trkpt>
      <trkpt lat="62.95543" lon="18.25517">
        <ele>46.440227</ele>
        <time>2020-10-03T14:13:08.145Z</time>
      </trkpt>
      <trkpt lat="62.95534" lon="18.25053">
        <ele>49.319226</ele>
        <time>2020-10-03T14:13:59.140Z</time>
      </trkpt>
      <trkpt lat="62.95476" lon="18.24595">
        <ele>50.9308</ele>
        <time>2020-10-03T14:15:03.123Z</time>
      </trkpt>
      <trkpt lat="62.95235" lon="18.24565">
        <ele>46.903583</ele>
        <time>2020-10-03T14:15:40.111Z</time>
      </trkpt>
      <trkpt lat="62.95029" lon="18.24769">
        <ele>51.706436</ele>
        <time>2020-10-03T14:16:27.139Z</time>
      </trkpt>
      <trkpt lat="62.94862" lon="18.2508">
        <ele>50.586476</ele>
        <time>2020-10-03T14:17:12.117Z</time>
      </trkpt>
      <trkpt lat="62.94662" lon="18.25186">
        <ele>57.238593</ele>
        <time>2020-10-03T14:18:28.132Z</time>
      </trkpt>
      <trkpt lat="62.94442" lon="18.25194">
        <ele>59.175365</ele>
        <time>2020-10-03T14:19:31.106Z</time>
      </trkpt>
      <trkpt lat="62.94312" lon="18.25504">
        <ele>59.308118</ele>
        <time>2020-10-03T14:20:44.113Z</time>
      </trkpt>
      <trkpt lat="62.94117" lon="18.2582">
        <ele>60.055413</ele>
        <time>2020-10-03T14:21:15.122Z</time>
      </trkpt>
      <trkpt lat="62.93934" lon="18.25962">
        <ele>81.820874</ele>
        <time>2020-10-03T14:23:15.122Z</time>
      </trkpt>
      <trkpt lat="62.93734" lon="18.26166">
        <ele>76.420501</ele>
        <time>2020-10-03T14:24:35.109Z</time>
      </trkpt>
      <trkpt lat="62.93554" lon="18.26421">
        <ele>58.654778</ele>
        <time>2020-10-03T14:24:57.132Z</time>
      </trkpt>
      <trkpt lat="62.93359" lon="18.26593">
        <ele>45.363498</ele>
        <time>2020-10-03T14:25:29.135Z</time>
      </trkpt>
      <trkpt lat="62.93292" lon="18.26199">
        <ele>50.042001</ele>
        <time>2020-10-03T14:26:56.114Z</time>
      </trkpt>
      <trkpt lat="62.93384" lon="18.25771">
        <ele>52.429739</ele>
        <time>2020-10-03T14:28:25.131Z</time>
      </trkpt>
      <trkpt lat="62.9337" lon="18.25284">
        <ele>47.505433</ele>
        <time>2020-10-03T14:29:36.122Z</time>
      </trkpt>
      <trkpt lat="62.93199" lon="18.25545">
        <ele>52.190722</ele>
        <time>2020-10-03T14:30:28.169Z</time>
      </trkpt>
    </trkseg>
  </trk>
  <trk>
    <name><![CDATA[Tour d'Europe: étape 098]]></name>
    <trkseg>
      <trkpt lat="62.93166" lon="18.25593">
        <ele>37.857968</ele>
        <time>2020-10-04T07:58:19.073Z</time>
      </trkpt>
      <trkpt lat="62.9333" lon="18.25326">
        <ele>46.829444</ele>
        <time>2020-10-04T07:59:50.079Z</time>
      </trkpt>
      <trkpt lat="62.93379" lon="18.25379">
        <ele>54.664766</ele>
        <time>2020-10-04T08:04:42.077Z</time>
      </trkpt>
      <trkpt lat="62.93378" lon="18.25797">
        <ele>58.709096</ele>
        <time>2020-10-04T08:06:05.095Z</time>
      </trkpt>
      <trkpt lat="62.9329" lon="18.26216">
        <ele>58.058569</ele>
        <time>2020-10-04T08:07:22.067Z</time>
      </trkpt>
      <trkpt lat="62.93416" lon="18.26635">
        <ele>47.257086</ele>
        <time>2020-10-04T08:08:16.062Z</time>
      </trkpt>
      <trkpt lat="62.93582" lon="18.264">
        <ele>60.895106</ele>
        <time>2020-10-04T08:10:08.084Z</time>
      </trkpt>
      <trkpt lat="62.93747" lon="18.26167">
        <ele>75.627196</ele>
        <time>2020-10-04T08:12:11.064Z</time>
      </trkpt>
      <trkpt lat="62.9394" lon="18.25957">
        <ele>80.946732</ele>
        <time>2020-10-04T08:13:29.079Z</time>
      </trkpt>
      <trkpt lat="62.94169" lon="18.25786">
        <ele>65.778077</ele>
        <time>2020-10-04T08:13:51.081Z</time>
      </trkpt>
      <trkpt lat="62.94341" lon="18.25471">
        <ele>61.837491</ele>
        <time>2020-10-04T08:14:56.067Z</time>
      </trkpt>
      <trkpt lat="62.94351" lon="18.25055">
        <ele>55.803038</ele>
        <time>2020-10-04T08:15:45.106Z</time>
      </trkpt>
      <trkpt lat="62.94195" lon="18.24694">
        <ele>45.268817</ele>
        <time>2020-10-04T08:16:05.113Z</time>
      </trkpt>
      <trkpt lat="62.9399" lon="18.24454">
        <ele>43.332411</ele>
        <time>2020-10-04T08:16:45.115Z</time>
      </trkpt>
      <trkpt lat="62.93846" lon="18.24116">
        <ele>44.889222</ele>
        <time>2020-10-04T08:17:39.108Z</time>
      </trkpt>
      <trkpt lat="62.937" lon="18.23785">
        <ele>52.318331</ele>
        <time>2020-10-04T08:19:06.096Z</time>
      </trkpt>
      <trkpt lat="62.93555" lon="18.2348">
        <ele>61.398978</ele>
        <time>2020-10-04T08:20:36.089Z</time>
      </trkpt>
      <trkpt lat="62.93461" lon="18.23114">
        <ele>66.063491</ele>
        <time>2020-10-04T08:22:25.078Z</time>
      </trkpt>
      <trkpt lat="62.93538" lon="18.22597">
        <ele>63.549743</ele>
        <time>2020-10-04T08:23:17.077Z</time>
      </trkpt>
      <trkpt lat="62.9345" lon="18.22057">
        <ele>61.951951</ele>
        <time>2020-10-04T08:24:01.072Z</time>
      </trkpt>
      <trkpt lat="62.93292" lon="18.21791">
        <ele>66.517828</ele>
        <time>2020-10-04T08:24:44.089Z</time>
      </trkpt>
      <trkpt lat="62.93109" lon="18.21576">
        <ele>67.558201</ele>
        <time>2020-10-04T08:25:25.107Z</time>
      </trkpt>
      <trkpt lat="62.92911" lon="18.21349">
        <ele>74.764897</ele>
        <time>2020-10-04T08:26:24.090Z</time>
      </trkpt>
      <trkpt lat="62.92722" lon="18.2121">
        <ele>76.61719</ele>
        <time>2020-10-04T08:27:44.085Z</time>
      </trkpt>
      <trkpt lat="62.92536" lon="18.21099">
        <ele>86.920583</ele>
        <time>2020-10-04T08:29:42.087Z</time>
      </trkpt>
      <trkpt lat="62.92444" lon="18.20715">
        <ele>93.997723</ele>
        <time>2020-10-04T08:31:25.082Z</time>
      </trkpt>
      <trkpt lat="62.9231" lon="18.20368">
        <ele>103.250478</ele>
        <time>2020-10-04T08:32:59.099Z</time>
      </trkpt>
      <trkpt lat="62.92155" lon="18.20078">
        <ele>105.000131</ele>
        <time>2020-10-04T08:34:30.089Z</time>
      </trkpt>
      <trkpt lat="62.92158" lon="18.19549">
        <ele>95.096444</ele>
        <time>2020-10-04T08:35:03.080Z</time>
      </trkpt>
      <trkpt lat="62.9225" lon="18.19136">
        <ele>101.470224</ele>
        <time>2020-10-04T08:35:58.088Z</time>
      </trkpt>
      <trkpt lat="62.92315" lon="18.18704">
        <ele>106.723307</ele>
        <time>2020-10-04T08:37:16.123Z</time>
      </trkpt>
      <trkpt lat="62.9235" lon="18.18261">
        <ele>106.973049</ele>
        <time>2020-10-04T08:37:59.076Z</time>
      </trkpt>
      <trkpt lat="62.92227" lon="18.17841">
        <ele>111.615024</ele>
        <time>2020-10-04T08:38:54.087Z</time>
      </trkpt>
      <trkpt lat="62.92042" lon="18.17673">
        <ele>121.032741</ele>
        <time>2020-10-04T08:39:55.112Z</time>
      </trkpt>
      <trkpt lat="62.91933" lon="18.17323">
        <ele>130.960499</ele>
        <time>2020-10-04T08:41:51.091Z</time>
      </trkpt>
      <trkpt lat="62.91869" lon="18.16927">
        <ele>144.773679</ele>
        <time>2020-10-04T08:43:55.096Z</time>
      </trkpt>
      <trkpt lat="62.917" lon="18.16639">
        <ele>157.560433</ele>
        <time>2020-10-04T08:45:22.093Z</time>
      </trkpt>
      <trkpt lat="62.91506" lon="18.16649">
        <ele>169.426538</ele>
        <time>2020-10-04T08:47:26.114Z</time>
      </trkpt>
      <trkpt lat="62.91315" lon="18.1667">
        <ele>186.523114</ele>
        <time>2020-10-04T08:49:37.097Z</time>
      </trkpt>
      <trkpt lat="62.91151" lon="18.16308">
        <ele>182.161156</ele>
        <time>2020-10-04T08:50:30.089Z</time>
      </trkpt>
      <trkpt lat="62.90952" lon="18.16056">
        <ele>165.074557</ele>
        <time>2020-10-04T08:50:50.081Z</time>
      </trkpt>
      <trkpt lat="62.90772" lon="18.15693">
        <ele>145.951824</ele>
        <time>2020-10-04T08:51:10.144Z</time>
      </trkpt>
      <trkpt lat="62.90695" lon="18.15179">
        <ele>128.419188</ele>
        <time>2020-10-04T08:51:30.097Z</time>
      </trkpt>
      <trkpt lat="62.9052" lon="18.1477">
        <ele>115.300918</ele>
        <time>2020-10-04T08:51:50.101Z</time>
      </trkpt>
      <trkpt lat="62.90469" lon="18.14214">
        <ele>99.4243</ele>
        <time>2020-10-04T08:52:10.105Z</time>
      </trkpt>
      <trkpt lat="62.90256" lon="18.13917">
        <ele>79.340286</ele>
        <time>2020-10-04T08:52:30.097Z</time>
      </trkpt>
      <trkpt lat="62.90015" lon="18.14113">
        <ele>64.733717</ele>
        <time>2020-10-04T08:52:51.099Z</time>
      </trkpt>
      <trkpt lat="62.89773" lon="18.14347">
        <ele>60.206596</ele>
        <time>2020-10-04T08:53:29.085Z</time>
      </trkpt>
      <trkpt lat="62.89574" lon="18.14414">
        <ele>69.841321</ele>
        <time>2020-10-04T08:54:37.082Z</time>
      </trkpt>
      <trkpt lat="62.89409" lon="18.14081">
        <ele>68.981091</ele>
        <time>2020-10-04T08:55:21.119Z</time>
      </trkpt>
      <trkpt lat="62.89407" lon="18.1366">
        <ele>73.258713</ele>
        <time>2020-10-04T08:56:41.082Z</time>
      </trkpt>
      <trkpt lat="62.89458" lon="18.13269">
        <ele>81.013507</ele>
        <time>2020-10-04T08:58:12.107Z</time>
      </trkpt>
      <trkpt lat="62.89312" lon="18.12754">
        <ele>78.025804</ele>
        <time>2020-10-04T08:58:51.093Z</time>
      </trkpt>
      <trkpt lat="62.89277" lon="18.12285">
        <ele>77.443943</ele>
        <time>2020-10-04T08:59:40.084Z</time>
      </trkpt>
      <trkpt lat="62.89166" lon="18.11775">
        <ele>73.92126</ele>
        <time>2020-10-04T09:00:25.103Z</time>
      </trkpt>
      <trkpt lat="62.88987" lon="18.11468">
        <ele>77.620854</ele>
        <time>2020-10-04T09:01:19.089Z</time>
      </trkpt>
      <trkpt lat="62.88767" lon="18.11374">
        <ele>70.817592</ele>
        <time>2020-10-04T09:02:01.103Z</time>
      </trkpt>
      <trkpt lat="62.88586" lon="18.11066">
        <ele>61.100545</ele>
        <time>2020-10-04T09:02:35.092Z</time>
      </trkpt>
      <trkpt lat="62.88513" lon="18.10629">
        <ele>55.099602</ele>
        <time>2020-10-04T09:02:55.094Z</time>
      </trkpt>
      <trkpt lat="62.88414" lon="18.1024">
        <ele>49.168296</ele>
        <time>2020-10-04T09:03:15.097Z</time>
      </trkpt>
      <trkpt lat="62.88235" lon="18.09948">
        <ele>48.985194</ele>
        <time>2020-10-04T09:03:55.099Z</time>
      </trkpt>
      <trkpt lat="62.88023" lon="18.09815">
        <ele>47.201553</ele>
        <time>2020-10-04T09:04:50.107Z</time>
      </trkpt>
      <trkpt lat="62.87821" lon="18.09583">
        <ele>48.525258</ele>
        <time>2020-10-04T09:05:32.091Z</time>
      </trkpt>
      <trkpt lat="62.87678" lon="18.09141">
        <ele>49.055958</ele>
        <time>2020-10-04T09:06:16.086Z</time>
      </trkpt>
      <trkpt lat="62.87497" lon="18.08867">
        <ele>41.999055</ele>
        <time>2020-10-04T09:06:56.089Z</time>
      </trkpt>
      <trkpt lat="62.87295" lon="18.08713">
        <ele>41.956334</ele>
        <time>2020-10-04T09:07:36.090Z</time>
      </trkpt>
      <trkpt lat="62.87165" lon="18.08474">
        <ele>43.884214</ele>
        <time>2020-10-04T09:08:21.093Z</time>
      </trkpt>
      <trkpt lat="62.87224" lon="18.08004">
        <ele>38.927172</ele>
        <time>2020-10-04T09:09:03.094Z</time>
      </trkpt>
      <trkpt lat="62.87176" lon="18.07551">
        <ele>43.734754</ele>
        <time>2020-10-04T09:09:50.108Z</time>
      </trkpt>
      <trkpt lat="62.87059" lon="18.07127">
        <ele>46.346043</ele>
        <time>2020-10-04T09:10:45.097Z</time>
      </trkpt>
      <trkpt lat="62.87078" lon="18.06691">
        <ele>42.043377</ele>
        <time>2020-10-04T09:11:51.089Z</time>
      </trkpt>
      <trkpt lat="62.86995" lon="18.06196">
        <ele>40.827976</ele>
        <time>2020-10-04T09:12:31.136Z</time>
      </trkpt>
      <trkpt lat="62.86882" lon="18.05781">
        <ele>47.887175</ele>
        <time>2020-10-04T09:13:25.122Z</time>
      </trkpt>
      <trkpt lat="62.86807" lon="18.05345">
        <ele>53.193383</ele>
        <time>2020-10-04T09:14:36.121Z</time>
      </trkpt>
      <trkpt lat="62.86609" lon="18.05083">
        <ele>51.923255</ele>
        <time>2020-10-04T09:15:22.106Z</time>
      </trkpt>
      <trkpt lat="62.8641" lon="18.04754">
        <ele>46.033577</ele>
        <time>2020-10-04T09:16:02.097Z</time>
      </trkpt>
      <trkpt lat="62.86281" lon="18.0437">
        <ele>48.061238</ele>
        <time>2020-10-04T09:16:51.117Z</time>
      </trkpt>
      <trkpt lat="62.86187" lon="18.03953">
        <ele>51.906137</ele>
        <time>2020-10-04T09:18:05.102Z</time>
      </trkpt>
      <trkpt lat="62.86092" lon="18.03481">
        <ele>46.243661</ele>
        <time>2020-10-04T09:18:47.107Z</time>
      </trkpt>
      <trkpt lat="62.86005" lon="18.02897">
        <ele>41.791497</ele>
        <time>2020-10-04T09:19:27.089Z</time>
      </trkpt>
      <trkpt lat="62.85909" lon="18.02518">
        <ele>47.058211</ele>
        <time>2020-10-04T09:20:24.095Z</time>
      </trkpt>
      <trkpt lat="62.85696" lon="18.02415">
        <ele>43.684188</ele>
        <time>2020-10-04T09:21:24.102Z</time>
      </trkpt>
      <trkpt lat="62.85566" lon="18.02048">
        <ele>44.426554</ele>
        <time>2020-10-04T09:22:18.102Z</time>
      </trkpt>
      <trkpt lat="62.85471" lon="18.01608">
        <ele>43.577358</ele>
        <time>2020-10-04T09:22:58.098Z</time>
      </trkpt>
      <trkpt lat="62.85307" lon="18.01225">
        <ele>45.827133</ele>
        <time>2020-10-04T09:23:54.131Z</time>
      </trkpt>
      <trkpt lat="62.85159" lon="18.00938">
        <ele>51.483075</ele>
        <time>2020-10-04T09:25:24.112Z</time>
      </trkpt>
      <trkpt lat="62.84958" lon="18.00695">
        <ele>50.604588</ele>
        <time>2020-10-04T09:26:24.097Z</time>
      </trkpt>
      <trkpt lat="62.84791" lon="18.00367">
        <ele>59.001365</ele>
        <time>2020-10-04T09:27:31.117Z</time>
      </trkpt>
      <trkpt lat="62.8466" lon="18.00037">
        <ele>64.886487</ele>
        <time>2020-10-04T09:28:31.106Z</time>
      </trkpt>
      <trkpt lat="62.84478" lon="17.99688">
        <ele>56.445874</ele>
        <time>2020-10-04T09:29:28.119Z</time>
      </trkpt>
      <trkpt lat="62.84308" lon="17.9949">
        <ele>51.36057</ele>
        <time>2020-10-04T09:30:08.103Z</time>
      </trkpt>
      <trkpt lat="62.84111" lon="17.99267">
        <ele>51.664978</ele>
        <time>2020-10-04T09:30:48.138Z</time>
      </trkpt>
      <trkpt lat="62.83996" lon="17.98848">
        <ele>57.589593</ele>
        <time>2020-10-04T09:31:39.094Z</time>
      </trkpt>
      <trkpt lat="62.83892" lon="17.98421">
        <ele>57.870404</ele>
        <time>2020-10-04T09:32:29.094Z</time>
      </trkpt>
      <trkpt lat="62.83729" lon="17.98079">
        <ele>52.8151</ele>
        <time>2020-10-04T09:33:26.131Z</time>
      </trkpt>
      <trkpt lat="62.83564" lon="17.97758">
        <ele>38.470845</ele>
        <time>2020-10-04T09:33:49.097Z</time>
      </trkpt>
      <trkpt lat="62.83412" lon="17.97324">
        <ele>28.7351</ele>
        <time>2020-10-04T09:34:18.104Z</time>
      </trkpt>
      <trkpt lat="62.8327" lon="17.96989">
        <ele>34.646449</ele>
        <time>2020-10-04T09:35:13.129Z</time>
      </trkpt>
      <trkpt lat="62.83056" lon="17.97037">
        <ele>37.027418</ele>
        <time>2020-10-04T09:36:14.112Z</time>
      </trkpt>
      <trkpt lat="62.82837" lon="17.96923">
        <ele>35.455471</ele>
        <time>2020-10-04T09:37:11.113Z</time>
      </trkpt>
      <trkpt lat="62.82624" lon="17.96965">
        <ele>38.997964</ele>
        <time>2020-10-04T09:38:01.102Z</time>
      </trkpt>
      <trkpt lat="62.82388" lon="17.97057">
        <ele>38.423494</ele>
        <time>2020-10-04T09:38:47.112Z</time>
      </trkpt>
      <trkpt lat="62.82185" lon="17.96928">
        <ele>41.573197</ele>
        <time>2020-10-04T09:39:50.101Z</time>
      </trkpt>
      <trkpt lat="62.82051" lon="17.96631">
        <ele>60.713334</ele>
        <time>2020-10-04T09:41:40.101Z</time>
      </trkpt>
      <trkpt lat="62.82017" lon="17.96193">
        <ele>64.326986</ele>
        <time>2020-10-04T09:42:59.115Z</time>
      </trkpt>
      <trkpt lat="62.81912" lon="17.95738">
        <ele>52.885047</ele>
        <time>2020-10-04T09:43:34.103Z</time>
      </trkpt>
      <trkpt lat="62.81721" lon="17.95391">
        <ele>42.010923</ele>
        <time>2020-10-04T09:44:22.107Z</time>
      </trkpt>
      <trkpt lat="62.81476" lon="17.95134">
        <ele>33.683228</ele>
        <time>2020-10-04T09:45:02.103Z</time>
      </trkpt>
      <trkpt lat="62.81271" lon="17.95298">
        <ele>36.921626</ele>
        <time>2020-10-04T09:45:50.107Z</time>
      </trkpt>
      <trkpt lat="62.81107" lon="17.95577">
        <ele>42.266144</ele>
        <time>2020-10-04T09:47:14.097Z</time>
      </trkpt>
      <trkpt lat="62.81045" lon="17.95836">
        <ele>50.135295</ele>
        <time>2020-10-04T09:48:33.139Z</time>
      </trkpt>
      <trkpt lat="62.80908" lon="17.95511">
        <ele>66.194436</ele>
        <time>2020-10-04T09:50:02.100Z</time>
      </trkpt>
      <trkpt lat="62.80752" lon="17.95236">
        <ele>70.494812</ele>
        <time>2020-10-04T09:51:27.162Z</time>
      </trkpt>
      <trkpt lat="62.806" lon="17.95072">
        <ele>69.323052</ele>
        <time>2020-10-04T09:56:15.147Z</time>
      </trkpt>
      <trkpt lat="62.80419" lon="17.94848">
        <ele>73.508208</ele>
        <time>2020-10-04T09:57:16.130Z</time>
      </trkpt>
      <trkpt lat="62.80252" lon="17.94576">
        <ele>77.396078</ele>
        <time>2020-10-04T09:58:16.137Z</time>
      </trkpt>
      <trkpt lat="62.80067" lon="17.94277">
        <ele>78.899074</ele>
        <time>2020-10-04T09:59:15.103Z</time>
      </trkpt>
      <trkpt lat="62.79891" lon="17.93986">
        <ele>79.732885</ele>
        <time>2020-10-04T10:00:01.108Z</time>
      </trkpt>
      <trkpt lat="62.79693" lon="17.9367">
        <ele>77.957842</ele>
        <time>2020-10-04T10:00:43.137Z</time>
      </trkpt>
      <trkpt lat="62.79481" lon="17.93328">
        <ele>73.588502</ele>
        <time>2020-10-04T10:01:23.170Z</time>
      </trkpt>
      <trkpt lat="62.79227" lon="17.92914">
        <ele>66.384025</ele>
        <time>2020-10-04T10:02:03.137Z</time>
      </trkpt>
      <trkpt lat="62.79049" lon="17.92611">
        <ele>59.310317</ele>
        <time>2020-10-04T10:02:28.135Z</time>
      </trkpt>
      <trkpt lat="62.78835" lon="17.92262">
        <ele>55.54489</ele>
        <time>2020-10-04T10:03:08.123Z</time>
      </trkpt>
      <trkpt lat="62.78647" lon="17.9203">
        <ele>61.63295</ele>
        <time>2020-10-04T10:03:54.103Z</time>
      </trkpt>
      <trkpt lat="62.78508" lon="17.91827">
        <ele>71.546914</ele>
        <time>2020-10-04T10:05:09.132Z</time>
      </trkpt>
      <trkpt lat="62.7866" lon="17.91702">
        <ele>79.239181</ele>
        <time>2020-10-04T10:06:17.107Z</time>
      </trkpt>
      <trkpt lat="62.78461" lon="17.91756">
        <ele>87.473126</ele>
        <time>2020-10-04T10:07:39.134Z</time>
      </trkpt>
      <trkpt lat="62.78251" lon="17.91814">
        <ele>87.349509</ele>
        <time>2020-10-04T10:08:39.152Z</time>
      </trkpt>
      <trkpt lat="62.78017" lon="17.91852">
        <ele>85.692244</ele>
        <time>2020-10-04T10:09:41.124Z</time>
      </trkpt>
      <trkpt lat="62.77801" lon="17.91869">
        <ele>86.404877</ele>
        <time>2020-10-04T10:10:41.107Z</time>
      </trkpt>
      <trkpt lat="62.77558" lon="17.91786">
        <ele>79.494324</ele>
        <time>2020-10-04T10:11:21.121Z</time>
      </trkpt>
      <trkpt lat="62.77356" lon="17.91723">
        <ele>66.807102</ele>
        <time>2020-10-04T10:12:01.103Z</time>
      </trkpt>
      <trkpt lat="62.77171" lon="17.91903">
        <ele>63.085727</ele>
        <time>2020-10-04T10:12:52.119Z</time>
      </trkpt>
      <trkpt lat="62.76993" lon="17.91903">
        <ele>66.285112</ele>
        <time>2020-10-04T10:13:45.157Z</time>
      </trkpt>
      <trkpt lat="62.76905" lon="17.92301">
        <ele>73.062192</ele>
        <time>2020-10-04T10:15:04.113Z</time>
      </trkpt>
      <trkpt lat="62.768" lon="17.92702">
        <ele>77.593322</ele>
        <time>2020-10-04T10:16:05.106Z</time>
      </trkpt>
      <trkpt lat="62.76706" lon="17.93245">
        <ele>66.324859</ele>
        <time>2020-10-04T10:16:46.113Z</time>
      </trkpt>
      <trkpt lat="62.76573" lon="17.93787">
        <ele>43.166595</ele>
        <time>2020-10-04T10:17:26.137Z</time>
      </trkpt>
      <trkpt lat="62.76399" lon="17.94037">
        <ele>49.485496</ele>
        <time>2020-10-04T10:18:48.123Z</time>
      </trkpt>
      <trkpt lat="62.76216" lon="17.94319">
        <ele>52.645641</ele>
        <time>2020-10-04T10:19:48.133Z</time>
      </trkpt>
      <trkpt lat="62.76054" lon="17.94616">
        <ele>56.920141</ele>
        <time>2020-10-04T10:20:48.131Z</time>
      </trkpt>
      <trkpt lat="62.75907" lon="17.94955">
        <ele>53.153853</ele>
        <time>2020-10-04T10:21:38.111Z</time>
      </trkpt>
      <trkpt lat="62.7573" lon="17.95195">
        <ele>59.965789</ele>
        <time>2020-10-04T10:22:55.103Z</time>
      </trkpt>
      <trkpt lat="62.75559" lon="17.9543">
        <ele>64.004134</ele>
        <time>2020-10-04T10:24:20.115Z</time>
      </trkpt>
      <trkpt lat="62.75374" lon="17.95654">
        <ele>60.369433</ele>
        <time>2020-10-04T10:25:08.110Z</time>
      </trkpt>
      <trkpt lat="62.75161" lon="17.95557">
        <ele>61.004713</ele>
        <time>2020-10-04T10:26:00.129Z</time>
      </trkpt>
      <trkpt lat="62.74952" lon="17.95535">
        <ele>58.540441</ele>
        <time>2020-10-04T10:26:43.139Z</time>
      </trkpt>
      <trkpt lat="62.74704" lon="17.95566">
        <ele>64.262683</ele>
        <time>2020-10-04T10:27:57.106Z</time>
      </trkpt>
      <trkpt lat="62.74536" lon="17.95815">
        <ele>73.433082</ele>
        <time>2020-10-04T10:29:27.175Z</time>
      </trkpt>
      <trkpt lat="62.74271" lon="17.95909">
        <ele>61.252606</ele>
        <time>2020-10-04T10:55:02.808Z</time>
      </trkpt>
      <trkpt lat="62.74075" lon="17.95729">
        <ele>56.024207</ele>
        <time>2020-10-04T10:56:06.816Z</time>
      </trkpt>
      <trkpt lat="62.73987" lon="17.95332">
        <ele>59.917689</ele>
        <time>2020-10-04T10:57:21.829Z</time>
      </trkpt>
      <trkpt lat="62.73919" lon="17.94884">
        <ele>64.440832</ele>
        <time>2020-10-04T10:58:19.825Z</time>
      </trkpt>
      <trkpt lat="62.73864" lon="17.94448">
        <ele>66.376705</ele>
        <time>2020-10-04T10:59:01.824Z</time>
      </trkpt>
      <trkpt lat="62.73745" lon="17.94072">
        <ele>64.21691</ele>
        <time>2020-10-04T11:00:01.822Z</time>
      </trkpt>
      <trkpt lat="62.73574" lon="17.9422">
        <ele>49.427992</ele>
        <time>2020-10-04T11:00:45.805Z</time>
      </trkpt>
      <trkpt lat="62.73385" lon="17.94167">
        <ele>39.355477</ele>
        <time>2020-10-04T11:01:05.814Z</time>
      </trkpt>
      <trkpt lat="62.73136" lon="17.94209">
        <ele>37.134796</ele>
        <time>2020-10-04T11:01:45.811Z</time>
      </trkpt>
      <trkpt lat="62.72989" lon="17.94578">
        <ele>44.940454</ele>
        <time>2020-10-04T11:02:35.828Z</time>
      </trkpt>
      <trkpt lat="62.72835" lon="17.94969">
        <ele>40.989369</ele>
        <time>2020-10-04T11:03:25.806Z</time>
      </trkpt>
      <trkpt lat="62.72708" lon="17.95344">
        <ele>39.762734</ele>
        <time>2020-10-04T11:04:08.827Z</time>
      </trkpt>
      <trkpt lat="62.72542" lon="17.95667">
        <ele>37.862878</ele>
        <time>2020-10-04T11:05:02.803Z</time>
      </trkpt>
      <trkpt lat="62.72359" lon="17.95952">
        <ele>35.96224</ele>
        <time>2020-10-04T11:05:54.820Z</time>
      </trkpt>
      <trkpt lat="62.72192" lon="17.96259">
        <ele>38.465321</ele>
        <time>2020-10-04T11:07:01.828Z</time>
      </trkpt>
      <trkpt lat="62.71965" lon="17.96466">
        <ele>48.531552</ele>
        <time>2020-10-04T11:08:11.821Z</time>
      </trkpt>
      <trkpt lat="62.7179" lon="17.96602">
        <ele>65.692803</ele>
        <time>2020-10-04T11:10:32.836Z</time>
      </trkpt>
      <trkpt lat="62.71624" lon="17.96931">
        <ele>56.540843</ele>
        <time>2020-10-04T11:11:38.845Z</time>
      </trkpt>
      <trkpt lat="62.71499" lon="17.97377">
        <ele>37.205366</ele>
        <time>2020-10-04T11:12:00.818Z</time>
      </trkpt>
      <trkpt lat="62.71326" lon="17.97644">
        <ele>22.696812</ele>
        <time>2020-10-04T11:12:21.845Z</time>
      </trkpt>
      <trkpt lat="62.71156" lon="17.97972">
        <ele>34.860142</ele>
        <time>2020-10-04T11:13:22.814Z</time>
      </trkpt>
      <trkpt lat="62.70998" lon="17.98278">
        <ele>41.222547</ele>
        <time>2020-10-04T11:14:18.815Z</time>
      </trkpt>
      <trkpt lat="62.70795" lon="17.98454">
        <ele>34.029574</ele>
        <time>2020-10-04T11:15:12.809Z</time>
      </trkpt>
      <trkpt lat="62.70579" lon="17.98608">
        <ele>35.998084</ele>
        <time>2020-10-04T11:16:04.826Z</time>
      </trkpt>
      <trkpt lat="62.70372" lon="17.98707">
        <ele>40.834383</ele>
        <time>2020-10-04T11:17:11.827Z</time>
      </trkpt>
      <trkpt lat="62.70164" lon="17.98645">
        <ele>43.030279</ele>
        <time>2020-10-04T11:18:31.804Z</time>
      </trkpt>
      <trkpt lat="62.6993" lon="17.98577">
        <ele>42.834241</ele>
        <time>2020-10-04T11:19:22.822Z</time>
      </trkpt>
      <trkpt lat="62.69682" lon="17.98499">
        <ele>40.839812</ele>
        <time>2020-10-04T11:20:04.824Z</time>
      </trkpt>
      <trkpt lat="62.69498" lon="17.98282">
        <ele>44.983929</ele>
        <time>2020-10-04T11:21:16.820Z</time>
      </trkpt>
      <trkpt lat="62.69277" lon="17.97988">
        <ele>40.061371</ele>
        <time>2020-10-04T11:22:00.850Z</time>
      </trkpt>
      <trkpt lat="62.69048" lon="17.97878">
        <ele>40.650336</ele>
        <time>2020-10-04T11:22:48.833Z</time>
      </trkpt>
      <trkpt lat="62.68866" lon="17.97691">
        <ele>40.239635</ele>
        <time>2020-10-04T11:23:44.869Z</time>
      </trkpt>
      <trkpt lat="62.68688" lon="17.97444">
        <ele>41.11581</ele>
        <time>2020-10-04T11:24:40.808Z</time>
      </trkpt>
      <trkpt lat="62.68506" lon="17.97205">
        <ele>45.211742</ele>
        <time>2020-10-04T11:25:35.840Z</time>
      </trkpt>
      <trkpt lat="62.68357" lon="17.96934">
        <ele>49.981489</ele>
        <time>2020-10-04T11:26:37.856Z</time>
      </trkpt>
      <trkpt lat="62.68161" lon="17.96691">
        <ele>44.964016</ele>
        <time>2020-10-04T11:27:28.850Z</time>
      </trkpt>
      <trkpt lat="62.67971" lon="17.96495">
        <ele>39.876524</ele>
        <time>2020-10-04T11:27:55.833Z</time>
      </trkpt>
      <trkpt lat="62.67738" lon="17.96332">
        <ele>38.843308</ele>
        <time>2020-10-04T11:28:41.811Z</time>
      </trkpt>
      <trkpt lat="62.6753" lon="17.96129">
        <ele>39.169118</ele>
        <time>2020-10-04T11:29:23.832Z</time>
      </trkpt>
      <trkpt lat="62.67332" lon="17.95887">
        <ele>42.863586</ele>
        <time>2020-10-04T11:30:34.868Z</time>
      </trkpt>
      <trkpt lat="62.67246" lon="17.95475">
        <ele>41.870911</ele>
        <time>2020-10-04T11:31:33.840Z</time>
      </trkpt>
      <trkpt lat="62.67172" lon="17.94933">
        <ele>30.114053</ele>
        <time>2020-10-04T11:32:04.820Z</time>
      </trkpt>
      <trkpt lat="62.67221" lon="17.9439">
        <ele>28.932497</ele>
        <time>2020-10-04T11:32:44.834Z</time>
      </trkpt>
      <trkpt lat="62.67339" lon="17.93955">
        <ele>33.765096</ele>
        <time>2020-10-04T11:33:31.814Z</time>
      </trkpt>
      <trkpt lat="62.67471" lon="17.93624">
        <ele>39.749491</ele>
        <time>2020-10-04T11:34:51.819Z</time>
      </trkpt>
      <trkpt lat="62.67594" lon="17.93229">
        <ele>42.079135</ele>
        <time>2020-10-04T11:35:51.822Z</time>
      </trkpt>
      <trkpt lat="62.67739" lon="17.92781">
        <ele>34.113785</ele>
        <time>2020-10-04T11:36:32.856Z</time>
      </trkpt>
      <trkpt lat="62.67884" lon="17.92385">
        <ele>27.272994</ele>
        <time>2020-10-04T11:37:12.823Z</time>
      </trkpt>
      <trkpt lat="62.67896" lon="17.91948">
        <ele>28.818853</ele>
        <time>2020-10-04T11:37:52.840Z</time>
      </trkpt>
      <trkpt lat="62.67742" lon="17.91678">
        <ele>35.59237</ele>
        <time>2020-10-04T11:39:01.830Z</time>
      </trkpt>
      <trkpt lat="62.67629" lon="17.9135">
        <ele>48.530546</ele>
        <time>2020-10-04T11:40:43.855Z</time>
      </trkpt>
      <trkpt lat="62.67623" lon="17.90897">
        <ele>53.06563</ele>
        <time>2020-10-04T11:42:04.831Z</time>
      </trkpt>
      <trkpt lat="62.67729" lon="17.90497">
        <ele>53.382187</ele>
        <time>2020-10-04T11:43:15.811Z</time>
      </trkpt>
      <trkpt lat="62.67882" lon="17.90127">
        <ele>49.987617</ele>
        <time>2020-10-04T11:43:55.827Z</time>
      </trkpt>
      <trkpt lat="62.68024" lon="17.89792">
        <ele>50.41711</ele>
        <time>2020-10-04T11:44:41.821Z</time>
      </trkpt>
      <trkpt lat="62.68195" lon="17.894">
        <ele>44.569056</ele>
        <time>2020-10-04T11:45:17.851Z</time>
      </trkpt>
      <trkpt lat="62.68293" lon="17.88999">
        <ele>46.266542</ele>
        <time>2020-10-04T11:46:17.840Z</time>
      </trkpt>
      <trkpt lat="62.68253" lon="17.88547">
        <ele>56.235817</ele>
        <time>2020-10-04T11:47:46.810Z</time>
      </trkpt>
      <trkpt lat="62.68187" lon="17.88047">
        <ele>55.893711</ele>
        <time>2020-10-04T11:48:45.815Z</time>
      </trkpt>
      <trkpt lat="62.68047" lon="17.87641">
        <ele>47.804405</ele>
        <time>2020-10-04T11:49:25.840Z</time>
      </trkpt>
      <trkpt lat="62.67878" lon="17.8727">
        <ele>32.344478</ele>
        <time>2020-10-04T11:49:45.823Z</time>
      </trkpt>
      <trkpt lat="62.6776" lon="17.8681">
        <ele>25.025098</ele>
        <time>2020-10-04T11:50:21.829Z</time>
      </trkpt>
      <trkpt lat="62.67899" lon="17.86468">
        <ele>29.061224</ele>
        <time>2020-10-04T11:51:16.829Z</time>
      </trkpt>
      <trkpt lat="62.68034" lon="17.86146">
        <ele>35.625306</ele>
        <time>2020-10-04T11:52:29.815Z</time>
      </trkpt>
      <trkpt lat="62.68171" lon="17.85794">
        <ele>35.845322</ele>
        <time>2020-10-04T11:53:29.829Z</time>
      </trkpt>
      <trkpt lat="62.68195" lon="17.85251">
        <ele>25.795509</ele>
        <time>2020-10-04T11:54:13.824Z</time>
      </trkpt>
      <trkpt lat="62.68036" lon="17.84982">
        <ele>29.146536</ele>
        <time>2020-10-04T11:54:53.843Z</time>
      </trkpt>
      <trkpt lat="62.68005" lon="17.84852">
        <ele>32.247659</ele>
        <time>2020-10-04T11:58:07.845Z</time>
      </trkpt>
      <trkpt lat="62.67892" lon="17.84553">
        <ele>36.768375</ele>
        <time>2020-10-04T11:59:26.834Z</time>
      </trkpt>
      <trkpt lat="62.67682" lon="17.84292">
        <ele>32.327556</ele>
        <time>2020-10-04T12:00:13.821Z</time>
      </trkpt>
      <trkpt lat="62.67508" lon="17.84098">
        <ele>32.334905</ele>
        <time>2020-10-04T12:00:53.850Z</time>
      </trkpt>
      <trkpt lat="62.67293" lon="17.83962">
        <ele>34.164105</ele>
        <time>2020-10-04T12:01:42.821Z</time>
      </trkpt>
      <trkpt lat="62.67071" lon="17.83995">
        <ele>33.857119</ele>
        <time>2020-10-04T12:02:43.850Z</time>
      </trkpt>
      <trkpt lat="62.66867" lon="17.84086">
        <ele>32.185911</ele>
        <time>2020-10-04T12:03:30.829Z</time>
      </trkpt>
      <trkpt lat="62.66689" lon="17.84319">
        <ele>32.036398</ele>
        <time>2020-10-04T12:04:17.831Z</time>
      </trkpt>
      <trkpt lat="62.66507" lon="17.84425">
        <ele>48.268524</ele>
        <time>2020-10-04T12:05:48.843Z</time>
      </trkpt>
      <trkpt lat="62.66339" lon="17.84219">
        <ele>67.528044</ele>
        <time>2020-10-04T12:07:52.828Z</time>
      </trkpt>
      <trkpt lat="62.66159" lon="17.8424">
        <ele>80.193452</ele>
        <time>2020-10-04T12:09:54.866Z</time>
      </trkpt>
      <trkpt lat="62.65974" lon="17.84162">
        <ele>93.439905</ele>
        <time>2020-10-04T12:12:08.852Z</time>
      </trkpt>
      <trkpt lat="62.65778" lon="17.8409">
        <ele>100.225282</ele>
        <time>2020-10-04T12:13:44.869Z</time>
      </trkpt>
      <trkpt lat="62.65562" lon="17.84217">
        <ele>98.591507</ele>
        <time>2020-10-04T12:14:49.840Z</time>
      </trkpt>
      <trkpt lat="62.65373" lon="17.84414">
        <ele>118.023076</ele>
        <time>2020-10-04T12:16:47.854Z</time>
      </trkpt>
      <trkpt lat="62.65217" lon="17.84712">
        <ele>123.574655</ele>
        <time>2020-10-04T12:18:19.857Z</time>
      </trkpt>
      <trkpt lat="62.64957" lon="17.84887">
        <ele>104.10511</ele>
        <time>2020-10-04T12:18:59.836Z</time>
      </trkpt>
      <trkpt lat="62.64702" lon="17.84844">
        <ele>80.306381</ele>
        <time>2020-10-04T12:19:39.854Z</time>
      </trkpt>
      <trkpt lat="62.64482" lon="17.85048">
        <ele>69.671753</ele>
        <time>2020-10-04T12:20:19.839Z</time>
      </trkpt>
      <trkpt lat="62.64269" lon="17.85059">
        <ele>81.54677</ele>
        <time>2020-10-04T12:21:49.843Z</time>
      </trkpt>
      <trkpt lat="62.64065" lon="17.84954">
        <ele>74.000463</ele>
        <time>2020-10-04T12:22:38.849Z</time>
      </trkpt>
      <trkpt lat="62.63847" lon="17.8472">
        <ele>65.140768</ele>
        <time>2020-10-04T12:23:06.849Z</time>
      </trkpt>
      <trkpt lat="62.6371" lon="17.84411">
        <ele>60.961713</ele>
        <time>2020-10-04T12:23:51.877Z</time>
      </trkpt>
      <trkpt lat="62.63723" lon="17.83927">
        <ele>68.12733</ele>
        <time>2020-10-04T12:24:52.833Z</time>
      </trkpt>
      <trkpt lat="62.63773" lon="17.83489">
        <ele>76.490369</ele>
        <time>2020-10-04T12:26:16.841Z</time>
      </trkpt>
      <trkpt lat="62.6381" lon="17.83026">
        <ele>80.640734</ele>
        <time>2020-10-04T12:27:33.839Z</time>
      </trkpt>
      <trkpt lat="62.63802" lon="17.82506">
        <ele>78.551627</ele>
        <time>2020-10-04T12:28:33.824Z</time>
      </trkpt>
      <trkpt lat="62.63739" lon="17.82009">
        <ele>80.933417</ele>
        <time>2020-10-04T12:29:27.851Z</time>
      </trkpt>
      <trkpt lat="62.63661" lon="17.81558">
        <ele>81.748634</ele>
        <time>2020-10-04T12:30:15.829Z</time>
      </trkpt>
      <trkpt lat="62.63508" lon="17.81129">
        <ele>78.206961</ele>
        <time>2020-10-04T12:30:55.828Z</time>
      </trkpt>
      <trkpt lat="62.6336" lon="17.80827">
        <ele>78.058546</ele>
        <time>2020-10-04T12:31:35.854Z</time>
      </trkpt>
      <trkpt lat="62.6325" lon="17.80372">
        <ele>80.404229</ele>
        <time>2020-10-04T12:32:18.848Z</time>
      </trkpt>
      <trkpt lat="62.63215" lon="17.79944">
        <ele>84.870313</ele>
        <time>2020-10-04T12:33:33.844Z</time>
      </trkpt>
      <trkpt lat="62.63146" lon="17.79491">
        <ele>85.168981</ele>
        <time>2020-10-04T12:34:17.829Z</time>
      </trkpt>
      <trkpt lat="62.63072" lon="17.7906">
        <ele>85.232505</ele>
        <time>2020-10-04T12:35:17.849Z</time>
      </trkpt>
      <trkpt lat="62.63011" lon="17.78586">
        <ele>80.167636</ele>
        <time>2020-10-04T12:36:01.847Z</time>
      </trkpt>
      <trkpt lat="62.62779" lon="17.78426">
        <ele>80.64934</ele>
        <time>2020-10-04T12:36:35.856Z</time>
      </trkpt>
      <trkpt lat="62.6264" lon="17.78092">
        <ele>92.583807</ele>
        <time>2020-10-04T12:38:00.835Z</time>
      </trkpt>
      <trkpt lat="62.62449" lon="17.77804">
        <ele>89.05896</ele>
        <time>2020-10-04T12:38:46.813Z</time>
      </trkpt>
      <trkpt lat="62.62238" lon="17.77499">
        <ele>76.980601</ele>
        <time>2020-10-04T12:39:17.834Z</time>
      </trkpt>
      <trkpt lat="62.62069" lon="17.77247">
        <ele>79.058769</ele>
        <time>2020-10-04T12:40:39.827Z</time>
      </trkpt>
      <trkpt lat="62.62116" lon="17.76821">
        <ele>81.272762</ele>
        <time>2020-10-04T12:41:43.842Z</time>
      </trkpt>
      <trkpt lat="62.62147" lon="17.76333">
        <ele>79.799884</ele>
        <time>2020-10-04T12:42:31.830Z</time>
      </trkpt>
      <trkpt lat="62.62164" lon="17.75884">
        <ele>83.879116</ele>
        <time>2020-10-04T12:43:17.843Z</time>
      </trkpt>
      <trkpt lat="62.62192" lon="17.75406">
        <ele>88.87349</ele>
        <time>2020-10-04T12:44:23.862Z</time>
      </trkpt>
      <trkpt lat="62.62225" lon="17.74906">
        <ele>89.4215</ele>
        <time>2020-10-04T12:45:32.843Z</time>
      </trkpt>
      <trkpt lat="62.62312" lon="17.74412">
        <ele>83.452034</ele>
        <time>2020-10-04T12:46:12.850Z</time>
      </trkpt>
      <trkpt lat="62.62405" lon="17.73973">
        <ele>81.990273</ele>
        <time>2020-10-04T12:46:52.838Z</time>
      </trkpt>
      <trkpt lat="62.62478" lon="17.73477">
        <ele>80.304317</ele>
        <time>2020-10-04T12:47:32.842Z</time>
      </trkpt>
      <trkpt lat="62.62545" lon="17.73016">
        <ele>83.361782</ele>
        <time>2020-10-04T12:48:13.852Z</time>
      </trkpt>
      <trkpt lat="62.62707" lon="17.72629">
        <ele>79.287465</ele>
        <time>2020-10-04T12:48:53.847Z</time>
      </trkpt>
      <trkpt lat="62.6289" lon="17.72412">
        <ele>79.407146</ele>
        <time>2020-10-04T12:49:58.852Z</time>
      </trkpt>
      <trkpt lat="62.63019" lon="17.72086">
        <ele>89.321612</ele>
        <time>2020-10-04T12:51:22.844Z</time>
      </trkpt>
      <trkpt lat="62.63123" lon="17.71717">
        <ele>98.695166</ele>
        <time>2020-10-04T12:53:02.857Z</time>
      </trkpt>
      <trkpt lat="62.63172" lon="17.71308">
        <ele>117.202697</ele>
        <time>2020-10-04T12:55:13.864Z</time>
      </trkpt>
      <trkpt lat="62.63302" lon="17.70965">
        <ele>129.610107</ele>
        <time>2020-10-04T12:57:25.859Z</time>
      </trkpt>
      <trkpt lat="62.63422" lon="17.70633">
        <ele>135.221377</ele>
        <time>2020-10-04T12:59:06.849Z</time>
      </trkpt>
      <trkpt lat="62.63512" lon="17.70115">
        <ele>128.001886</ele>
        <time>2020-10-04T12:59:53.845Z</time>
      </trkpt>
      <trkpt lat="62.63604" lon="17.69541">
        <ele>112.815666</ele>
        <time>2020-10-04T13:00:27.828Z</time>
      </trkpt>
      <trkpt lat="62.63683" lon="17.68963">
        <ele>102.741011</ele>
        <time>2020-10-04T13:01:02.849Z</time>
      </trkpt>
      <trkpt lat="62.63743" lon="17.68386">
        <ele>91.200385</ele>
        <time>2020-10-04T13:01:35.838Z</time>
      </trkpt>
      <trkpt lat="62.63752" lon="17.67869">
        <ele>85.647871</ele>
        <time>2020-10-04T13:02:10.842Z</time>
      </trkpt>
      <trkpt lat="62.63825" lon="17.67324">
        <ele>83.839713</ele>
        <time>2020-10-04T13:02:50.832Z</time>
      </trkpt>
      <trkpt lat="62.6392" lon="17.66937">
        <ele>85.994165</ele>
        <time>2020-10-04T13:20:04.621Z</time>
      </trkpt>
      <trkpt lat="62.63932" lon="17.66468">
        <ele>89.669368</ele>
        <time>2020-10-04T13:21:17.624Z</time>
      </trkpt>
      <trkpt lat="62.6402" lon="17.66045">
        <ele>90.7904</ele>
        <time>2020-10-04T13:22:15.641Z</time>
      </trkpt>
      <trkpt lat="62.64162" lon="17.65641">
        <ele>87.615756</ele>
        <time>2020-10-04T13:23:06.633Z</time>
      </trkpt>
      <trkpt lat="62.64207" lon="17.65198">
        <ele>85.119622</ele>
        <time>2020-10-04T13:23:49.634Z</time>
      </trkpt>
      <trkpt lat="62.64232" lon="17.64672">
        <ele>83.28365</ele>
        <time>2020-10-04T13:24:31.648Z</time>
      </trkpt>
      <trkpt lat="62.64276" lon="17.64205">
        <ele>81.788828</ele>
        <time>2020-10-04T13:25:13.627Z</time>
      </trkpt>
      <trkpt lat="62.64321" lon="17.63712">
        <ele>86.095987</ele>
        <time>2020-10-04T13:26:22.643Z</time>
      </trkpt>
      <trkpt lat="62.64267" lon="17.63317">
        <ele>95.955989</ele>
        <time>2020-10-04T13:27:55.658Z</time>
      </trkpt>
      <trkpt lat="62.64138" lon="17.63">
        <ele>110.91654</ele>
        <time>2020-10-04T13:30:08.634Z</time>
      </trkpt>
      <trkpt lat="62.64008" lon="17.62686">
        <ele>127.956057</ele>
        <time>2020-10-04T13:32:07.618Z</time>
      </trkpt>
      <trkpt lat="62.63844" lon="17.62391">
        <ele>130.332163</ele>
        <time>2020-10-04T13:33:26.628Z</time>
      </trkpt>
      <trkpt lat="62.63687" lon="17.62117">
        <ele>141.81652</ele>
        <time>2020-10-04T13:35:02.637Z</time>
      </trkpt>
      <trkpt lat="62.63613" lon="17.61688">
        <ele>147.503861</ele>
        <time>2020-10-04T13:36:58.634Z</time>
      </trkpt>
      <trkpt lat="62.63521" lon="17.61277">
        <ele>153.732062</ele>
        <time>2020-10-04T13:38:06.630Z</time>
      </trkpt>
      <trkpt lat="62.63449" lon="17.6087">
        <ele>160.101433</ele>
        <time>2020-10-04T13:39:42.621Z</time>
      </trkpt>
      <trkpt lat="62.63345" lon="17.60413">
        <ele>156.183857</ele>
        <time>2020-10-04T13:40:26.632Z</time>
      </trkpt>
      <trkpt lat="62.63166" lon="17.60123">
        <ele>161.677832</ele>
        <time>2020-10-04T13:41:42.637Z</time>
      </trkpt>
      <trkpt lat="62.63035" lon="17.59872">
        <ele>172.159252</ele>
        <time>2020-10-04T13:43:40.636Z</time>
      </trkpt>
      <trkpt lat="62.63058" lon="17.59415">
        <ele>180.222117</ele>
        <time>2020-10-04T13:44:57.640Z</time>
      </trkpt>
      <trkpt lat="62.63041" lon="17.5899">
        <ele>190.868633</ele>
        <time>2020-10-04T13:46:23.665Z</time>
      </trkpt>
      <trkpt lat="62.62975" lon="17.58555">
        <ele>188.640761</ele>
        <time>2020-10-04T13:47:31.645Z</time>
      </trkpt>
      <trkpt lat="62.62878" lon="17.58121">
        <ele>194.594018</ele>
        <time>2020-10-04T13:48:28.633Z</time>
      </trkpt>
      <trkpt lat="62.62777" lon="17.57694">
        <ele>197.383799</ele>
        <time>2020-10-04T13:49:36.624Z</time>
      </trkpt>
      <trkpt lat="62.62693" lon="17.57192">
        <ele>188.272761</ele>
        <time>2020-10-04T13:50:14.619Z</time>
      </trkpt>
      <trkpt lat="62.62678" lon="17.56759">
        <ele>189.322173</ele>
        <time>2020-10-04T13:51:22.635Z</time>
      </trkpt>
      <trkpt lat="62.62835" lon="17.56431">
        <ele>182.536545</ele>
        <time>2020-10-04T13:52:14.665Z</time>
      </trkpt>
      <trkpt lat="62.6301" lon="17.56067">
        <ele>183.367814</ele>
        <time>2020-10-04T13:53:06.641Z</time>
      </trkpt>
      <trkpt lat="62.63138" lon="17.55705">
        <ele>187.456955</ele>
        <time>2020-10-04T13:54:19.632Z</time>
      </trkpt>
      <trkpt lat="62.63208" lon="17.55284">
        <ele>193.928125</ele>
        <time>2020-10-04T13:55:58.648Z</time>
      </trkpt>
      <trkpt lat="62.63255" lon="17.54833">
        <ele>204.834288</ele>
        <time>2020-10-04T13:57:08.636Z</time>
      </trkpt>
      <trkpt lat="62.63331" lon="17.54444">
        <ele>215.919564</ele>
        <time>2020-10-04T13:58:55.649Z</time>
      </trkpt>
      <trkpt lat="62.63505" lon="17.54056">
        <ele>208.068323</ele>
        <time>2020-10-04T13:59:44.671Z</time>
      </trkpt>
      <trkpt lat="62.63665" lon="17.53717">
        <ele>211.12713</ele>
        <time>2020-10-04T14:00:55.629Z</time>
      </trkpt>
      <trkpt lat="62.63827" lon="17.53353">
        <ele>206.384313</ele>
        <time>2020-10-04T14:01:30.626Z</time>
      </trkpt>
      <trkpt lat="62.63947" lon="17.52898">
        <ele>200.811438</ele>
        <time>2020-10-04T14:02:00.645Z</time>
      </trkpt>
      <trkpt lat="62.63881" lon="17.52472">
        <ele>209.883879</ele>
        <time>2020-10-04T14:03:18.633Z</time>
      </trkpt>
      <trkpt lat="62.63909" lon="17.52019">
        <ele>204.697666</ele>
        <time>2020-10-04T14:04:05.643Z</time>
      </trkpt>
      <trkpt lat="62.6407" lon="17.51673">
        <ele>205.55916</ele>
        <time>2020-10-04T14:05:06.643Z</time>
      </trkpt>
      <trkpt lat="62.64177" lon="17.51314">
        <ele>220.229496</ele>
        <time>2020-10-04T14:07:21.661Z</time>
      </trkpt>
      <trkpt lat="62.64273" lon="17.50945">
        <ele>231.980846</ele>
        <time>2020-10-04T14:09:23.674Z</time>
      </trkpt>
      <trkpt lat="62.64273" lon="17.50546">
        <ele>242.503186</ele>
        <time>2020-10-04T14:11:12.638Z</time>
      </trkpt>
      <trkpt lat="62.64112" lon="17.50341">
        <ele>255.675765</ele>
        <time>2020-10-04T14:13:38.628Z</time>
      </trkpt>
      <trkpt lat="62.63924" lon="17.50097">
        <ele>255.966842</ele>
        <time>2020-10-04T14:14:35.646Z</time>
      </trkpt>
      <trkpt lat="62.63682" lon="17.497">
        <ele>241.188332</ele>
        <time>2020-10-04T14:15:14.641Z</time>
      </trkpt>
      <trkpt lat="62.6344" lon="17.4947">
        <ele>229.802244</ele>
        <time>2020-10-04T14:15:51.647Z</time>
      </trkpt>
      <trkpt lat="62.63237" lon="17.493">
        <ele>230.854419</ele>
        <time>2020-10-04T14:16:53.641Z</time>
      </trkpt>
      <trkpt lat="62.63021" lon="17.49097">
        <ele>225.863408</ele>
        <time>2020-10-04T14:17:29.673Z</time>
      </trkpt>
      <trkpt lat="62.62834" lon="17.48839">
        <ele>227.362085</ele>
        <time>2020-10-04T14:18:28.632Z</time>
      </trkpt>
      <trkpt lat="62.62794" lon="17.48336">
        <ele>220.590619</ele>
        <time>2020-10-04T14:19:10.637Z</time>
      </trkpt>
      <trkpt lat="62.62752" lon="17.4783">
        <ele>218.824327</ele>
        <time>2020-10-04T14:19:50.633Z</time>
      </trkpt>
      <trkpt lat="62.62672" lon="17.47276">
        <ele>218.175329</ele>
        <time>2020-10-04T14:20:30.647Z</time>
      </trkpt>
      <trkpt lat="62.6259" lon="17.46732">
        <ele>207.397942</ele>
        <time>2020-10-04T14:21:01.655Z</time>
      </trkpt>
      <trkpt lat="62.62569" lon="17.46115">
        <ele>190.715985</ele>
        <time>2020-10-04T14:21:40.649Z</time>
      </trkpt>
      <trkpt lat="62.62436" lon="17.45603">
        <ele>186.224858</ele>
        <time>2020-10-04T14:22:24.651Z</time>
      </trkpt>
      <trkpt lat="62.62337" lon="17.45169">
        <ele>192.766038</ele>
        <time>2020-10-04T14:23:05.671Z</time>
      </trkpt>
      <trkpt lat="62.62282" lon="17.44682">
        <ele>189.906619</ele>
        <time>2020-10-04T14:23:47.641Z</time>
      </trkpt>
      <trkpt lat="62.6232" lon="17.44104">
        <ele>176.271923</ele>
        <time>2020-10-04T14:24:22.658Z</time>
      </trkpt>
      <trkpt lat="62.62346" lon="17.43602">
        <ele>168.26814</ele>
        <time>2020-10-04T14:25:04.643Z</time>
      </trkpt>
      <trkpt lat="62.62319" lon="17.42961">
        <ele>157.807113</ele>
        <time>2020-10-04T14:25:44.653Z</time>
      </trkpt>
      <trkpt lat="62.6229" lon="17.42311">
        <ele>139.901626</ele>
        <time>2020-10-04T14:26:21.651Z</time>
      </trkpt>
      <trkpt lat="62.62151" lon="17.41782">
        <ele>127.230011</ele>
        <time>2020-10-04T14:26:56.652Z</time>
      </trkpt>
      <trkpt lat="62.61971" lon="17.41651">
        <ele>119.422609</ele>
        <time>2020-10-04T14:27:16.681Z</time>
      </trkpt>
      <trkpt lat="62.61762" lon="17.41538">
        <ele>105.95213</ele>
        <time>2020-10-04T14:27:38.621Z</time>
      </trkpt>
      <trkpt lat="62.61487" lon="17.41386">
        <ele>91.536279</ele>
        <time>2020-10-04T14:28:14.688Z</time>
      </trkpt>
      <trkpt lat="62.61157" lon="17.41314">
        <ele>84.672071</ele>
        <time>2020-10-04T14:28:53.657Z</time>
      </trkpt>
      <trkpt lat="62.60912" lon="17.41278">
        <ele>78.545751</ele>
        <time>2020-10-04T14:29:20.654Z</time>
      </trkpt>
      <trkpt lat="62.60693" lon="17.4118">
        <ele>62.204135</ele>
        <time>2020-10-04T14:29:46.639Z</time>
      </trkpt>
      <trkpt lat="62.60487" lon="17.40852">
        <ele>51.334595</ele>
        <time>2020-10-04T14:30:20.644Z</time>
      </trkpt>
      <trkpt lat="62.60291" lon="17.40774">
        <ele>56.598411</ele>
        <time>2020-10-04T14:31:36.684Z</time>
      </trkpt>
      <trkpt lat="62.60064" lon="17.40793">
        <ele>57.584095</ele>
        <time>2020-10-04T14:32:38.634Z</time>
      </trkpt>
      <trkpt lat="62.5985" lon="17.41029">
        <ele>57.958708</ele>
        <time>2020-10-04T14:33:35.639Z</time>
      </trkpt>
      <trkpt lat="62.5967" lon="17.41278">
        <ele>64.661631</ele>
        <time>2020-10-04T14:34:49.660Z</time>
      </trkpt>
      <trkpt lat="62.5947" lon="17.41406">
        <ele>75.305987</ele>
        <time>2020-10-04T14:36:15.640Z</time>
      </trkpt>
      <trkpt lat="62.59253" lon="17.41497">
        <ele>77.850578</ele>
        <time>2020-10-04T14:37:20.630Z</time>
      </trkpt>
      <trkpt lat="62.59043" lon="17.41642">
        <ele>80.191995</ele>
        <time>2020-10-04T14:38:17.664Z</time>
      </trkpt>
      <trkpt lat="62.58843" lon="17.41735">
        <ele>93.549953</ele>
        <time>2020-10-04T14:39:31.640Z</time>
      </trkpt>
      <trkpt lat="62.58559" lon="17.41756">
        <ele>82.263688</ele>
        <time>2020-10-04T14:40:11.634Z</time>
      </trkpt>
      <trkpt lat="62.58309" lon="17.41791">
        <ele>75.911372</ele>
        <time>2020-10-04T14:40:56.654Z</time>
      </trkpt>
      <trkpt lat="62.58092" lon="17.41838">
        <ele>81.901043</ele>
        <time>2020-10-04T14:41:57.713Z</time>
      </trkpt>
      <trkpt lat="62.57866" lon="17.41792">
        <ele>81.751816</ele>
        <time>2020-10-04T14:42:55.641Z</time>
      </trkpt>
      <trkpt lat="62.5766" lon="17.41707">
        <ele>79.75923</ele>
        <time>2020-10-04T14:43:41.649Z</time>
      </trkpt>
      <trkpt lat="62.57452" lon="17.41651">
        <ele>74.543755</ele>
        <time>2020-10-04T14:44:29.675Z</time>
      </trkpt>
      <trkpt lat="62.57243" lon="17.41594">
        <ele>70.182473</ele>
        <time>2020-10-04T14:45:09.654Z</time>
      </trkpt>
      <trkpt lat="62.57013" lon="17.41519">
        <ele>70.386055</ele>
        <time>2020-10-04T14:45:49.695Z</time>
      </trkpt>
      <trkpt lat="62.56766" lon="17.41537">
        <ele>72.876418</ele>
        <time>2020-10-04T14:46:31.658Z</time>
      </trkpt>
      <trkpt lat="62.56544" lon="17.41527">
        <ele>66.911914</ele>
        <time>2020-10-04T14:47:11.671Z</time>
      </trkpt>
      <trkpt lat="62.56286" lon="17.41505">
        <ele>56.005507</ele>
        <time>2020-10-04T14:47:43.638Z</time>
      </trkpt>
      <trkpt lat="62.56047" lon="17.41433">
        <ele>44.303298</ele>
        <time>2020-10-04T14:48:03.646Z</time>
      </trkpt>
      <trkpt lat="62.55879" lon="17.41099">
        <ele>36.860192</ele>
        <time>2020-10-04T14:48:23.647Z</time>
      </trkpt>
      <trkpt lat="62.55663" lon="17.40782">
        <ele>33.490404</ele>
        <time>2020-10-04T14:48:58.650Z</time>
      </trkpt>
      <trkpt lat="62.55467" lon="17.40565">
        <ele>39.008056</ele>
        <time>2020-10-04T14:49:39.661Z</time>
      </trkpt>
      <trkpt lat="62.5528" lon="17.40385">
        <ele>43.572411</ele>
        <time>2020-10-04T14:50:41.675Z</time>
      </trkpt>
      <trkpt lat="62.5508" lon="17.40282">
        <ele>40.570331</ele>
        <time>2020-10-04T14:51:41.654Z</time>
      </trkpt>
      <trkpt lat="62.55156" lon="17.40451">
        <ele>34.134883</ele>
        <time>2020-10-04T14:52:23.633Z</time>
      </trkpt>
      <trkpt lat="62.55015" lon="17.40549">
        <ele>38.661378</ele>
        <time>2020-10-04T14:58:14.658Z</time>
      </trkpt>
      <trkpt lat="62.54807" lon="17.40525">
        <ele>43.47007</ele>
        <time>2020-10-04T14:59:21.672Z</time>
      </trkpt>
      <trkpt lat="62.54613" lon="17.40343">
        <ele>46.429645</ele>
        <time>2020-10-04T15:00:15.657Z</time>
      </trkpt>
      <trkpt lat="62.54403" lon="17.40153">
        <ele>43.296848</ele>
        <time>2020-10-04T15:01:05.677Z</time>
      </trkpt>
      <trkpt lat="62.54204" lon="17.39922">
        <ele>35.910887</ele>
        <time>2020-10-04T15:01:45.673Z</time>
      </trkpt>
      <trkpt lat="62.54023" lon="17.39731">
        <ele>37.966647</ele>
        <time>2020-10-04T15:02:28.663Z</time>
      </trkpt>
      <trkpt lat="62.53828" lon="17.39524">
        <ele>43.183715</ele>
        <time>2020-10-04T15:03:34.646Z</time>
      </trkpt>
      <trkpt lat="62.53645" lon="17.39327">
        <ele>50.41637</ele>
        <time>2020-10-04T15:04:56.649Z</time>
      </trkpt>
      <trkpt lat="62.53431" lon="17.39091">
        <ele>53.327686</ele>
        <time>2020-10-04T15:05:56.655Z</time>
      </trkpt>
      <trkpt lat="62.53295" lon="17.39263">
        <ele>57.900018</ele>
        <time>2020-10-04T15:07:03.666Z</time>
      </trkpt>
      <trkpt lat="62.53089" lon="17.39088">
        <ele>56.274505</ele>
        <time>2020-10-04T15:08:09.677Z</time>
      </trkpt>
      <trkpt lat="62.52894" lon="17.389">
        <ele>53.698074</ele>
        <time>2020-10-04T15:09:07.645Z</time>
      </trkpt>
      <trkpt lat="62.52731" lon="17.38733">
        <ele>52.734967</ele>
        <time>2020-10-04T15:10:04.645Z</time>
      </trkpt>
      <trkpt lat="62.52513" lon="17.38702">
        <ele>52.208595</ele>
        <time>2020-10-04T15:11:00.668Z</time>
      </trkpt>
      <trkpt lat="62.52307" lon="17.38656">
        <ele>52.268602</ele>
        <time>2020-10-04T15:12:14.692Z</time>
      </trkpt>
      <trkpt lat="62.52103" lon="17.38744">
        <ele>48.486537</ele>
        <time>2020-10-04T15:13:04.684Z</time>
      </trkpt>
      <trkpt lat="62.51901" lon="17.38998">
        <ele>56.804449</ele>
        <time>2020-10-04T15:14:05.654Z</time>
      </trkpt>
      <trkpt lat="62.5176" lon="17.38818">
        <ele>64.436318</ele>
        <time>2020-10-04T15:15:32.695Z</time>
      </trkpt>
      <trkpt lat="62.51651" lon="17.38424">
        <ele>63.431777</ele>
        <time>2020-10-04T15:16:16.649Z</time>
      </trkpt>
      <trkpt lat="62.51605" lon="17.38087">
        <ele>58.005842</ele>
        <time>2020-10-04T15:16:58.655Z</time>
      </trkpt>
      <trkpt lat="62.5142" lon="17.37905">
        <ele>59.809139</ele>
        <time>2020-10-04T15:17:59.669Z</time>
      </trkpt>
      <trkpt lat="62.5125" lon="17.37601">
        <ele>62.488794</ele>
        <time>2020-10-04T15:18:50.660Z</time>
      </trkpt>
      <trkpt lat="62.5107" lon="17.3728">
        <ele>64.174425</ele>
        <time>2020-10-04T15:19:47.662Z</time>
      </trkpt>
      <trkpt lat="62.50888" lon="17.37184">
        <ele>66.038584</ele>
        <time>2020-10-04T15:20:49.666Z</time>
      </trkpt>
      <trkpt lat="62.50676" lon="17.37343">
        <ele>57.003242</ele>
        <time>2020-10-04T15:21:41.647Z</time>
      </trkpt>
      <trkpt lat="62.5048" lon="17.37424">
        <ele>57.413391</ele>
        <time>2020-10-04T15:22:22.638Z</time>
      </trkpt>
      <trkpt lat="62.50279" lon="17.37349">
        <ele>56.757871</ele>
        <time>2020-10-04T15:23:03.641Z</time>
      </trkpt>
      <trkpt lat="62.50154" lon="17.36998">
        <ele>52.002243</ele>
        <time>2020-10-04T15:23:43.661Z</time>
      </trkpt>
      <trkpt lat="62.50032" lon="17.36445">
        <ele>47.305919</ele>
        <time>2020-10-04T15:24:23.698Z</time>
      </trkpt>
      <trkpt lat="62.4996" lon="17.36003">
        <ele>51.045285</ele>
        <time>2020-10-04T15:25:09.680Z</time>
      </trkpt>
      <trkpt lat="62.49872" lon="17.35622">
        <ele>56.367812</ele>
        <time>2020-10-04T15:25:51.651Z</time>
      </trkpt>
      <trkpt lat="62.49817" lon="17.35142">
        <ele>56.353098</ele>
        <time>2020-10-04T15:26:50.649Z</time>
      </trkpt>
      <trkpt lat="62.4975" lon="17.34732">
        <ele>52.639968</ele>
        <time>2020-10-04T15:27:31.673Z</time>
      </trkpt>
      <trkpt lat="62.49669" lon="17.34325">
        <ele>51.184698</ele>
        <time>2020-10-04T15:28:17.654Z</time>
      </trkpt>
      <trkpt lat="62.49463" lon="17.34233">
        <ele>49.817911</ele>
        <time>2020-10-04T15:29:02.662Z</time>
      </trkpt>
      <trkpt lat="62.49278" lon="17.33969">
        <ele>46.221612</ele>
        <time>2020-10-04T15:29:45.659Z</time>
      </trkpt>
      <trkpt lat="62.49208" lon="17.33846">
        <ele>50.079248</ele>
        <time>2020-10-04T15:31:43.652Z</time>
      </trkpt>
      <trkpt lat="62.49268" lon="17.33855">
        <ele>46.919033</ele>
        <time>2020-10-04T15:32:57.669Z</time>
      </trkpt>
      <trkpt lat="62.4914" lon="17.33533">
        <ele>56.219593</ele>
        <time>2020-10-04T15:34:10.658Z</time>
      </trkpt>
      <trkpt lat="62.49005" lon="17.33129">
        <ele>57.638158</ele>
        <time>2020-10-04T15:35:07.661Z</time>
      </trkpt>
      <trkpt lat="62.48884" lon="17.32766">
        <ele>63.64066</ele>
        <time>2020-10-04T15:36:19.682Z</time>
      </trkpt>
      <trkpt lat="62.48689" lon="17.32543">
        <ele>64.256227</ele>
        <time>2020-10-04T15:37:36.673Z</time>
      </trkpt>
      <trkpt lat="62.48612" lon="17.32409">
        <ele>63.32814</ele>
        <time>2020-10-04T15:56:20.655Z</time>
      </trkpt>
      <trkpt lat="62.48447" lon="17.32288">
        <ele>70.646116</ele>
        <time>2020-10-04T15:57:59.663Z</time>
      </trkpt>
      <trkpt lat="62.48586" lon="17.32292">
        <ele>68.542363</ele>
        <time>2020-10-04T16:02:55.664Z</time>
      </trkpt>
      <trkpt lat="62.48567" lon="17.32297">
        <ele>64.538011</ele>
        <time>2020-10-04T16:05:45.663Z</time>
      </trkpt>
    </trkseg>
  </trk>
  <trk>
    <name><![CDATA[Tour d'Europe: étape 099]]></name>
    <trkseg>
      <trkpt lat="62.48537" lon="17.32422">
        <ele>57.719946</ele>
        <time>2020-10-05T07:24:32.053Z</time>
      </trkpt>
      <trkpt lat="62.48357" lon="17.32164">
        <ele>73.458935</ele>
        <time>2020-10-05T07:25:34.058Z</time>
      </trkpt>
      <trkpt lat="62.48175" lon="17.31877">
        <ele>66.828842</ele>
        <time>2020-10-05T07:27:18.065Z</time>
      </trkpt>
      <trkpt lat="62.48031" lon="17.31567">
        <ele>71.760009</ele>
        <time>2020-10-05T07:28:32.066Z</time>
      </trkpt>
      <trkpt lat="62.47851" lon="17.31752">
        <ele>65.089508</ele>
        <time>2020-10-05T07:29:36.061Z</time>
      </trkpt>
      <trkpt lat="62.47729" lon="17.31412">
        <ele>52.552088</ele>
        <time>2020-10-05T07:30:49.060Z</time>
      </trkpt>
      <trkpt lat="62.47681" lon="17.31543">
        <ele>47.548056</ele>
        <time>2020-10-05T08:09:15.278Z</time>
      </trkpt>
      <trkpt lat="62.47725" lon="17.31474">
        <ele>48.712297</ele>
        <time>2020-10-05T08:12:52.287Z</time>
      </trkpt>
      <trkpt lat="62.47565" lon="17.31658">
        <ele>48.257705</ele>
        <time>2020-10-05T08:13:32.293Z</time>
      </trkpt>
      <trkpt lat="62.47346" lon="17.31444">
        <ele>39.985821</ele>
        <time>2020-10-05T08:14:12.325Z</time>
      </trkpt>
      <trkpt lat="62.4709" lon="17.31538">
        <ele>40.389182</ele>
        <time>2020-10-05T08:15:01.275Z</time>
      </trkpt>
      <trkpt lat="62.46955" lon="17.31913">
        <ele>44.319885</ele>
        <time>2020-10-05T08:16:12.296Z</time>
      </trkpt>
      <trkpt lat="62.46893" lon="17.32349">
        <ele>43.86882</ele>
        <time>2020-10-05T08:17:01.284Z</time>
      </trkpt>
      <trkpt lat="62.46877" lon="17.32772">
        <ele>48.168108</ele>
        <time>2020-10-05T08:18:45.341Z</time>
      </trkpt>
      <trkpt lat="62.46815" lon="17.33245">
        <ele>43.040205</ele>
        <time>2020-10-05T08:21:44.298Z</time>
      </trkpt>
      <trkpt lat="62.46741" lon="17.33667">
        <ele>42.023342</ele>
        <time>2020-10-05T08:22:33.368Z</time>
      </trkpt>
      <trkpt lat="62.46666" lon="17.34082">
        <ele>50.140379</ele>
        <time>2020-10-05T08:23:53.307Z</time>
      </trkpt>
      <trkpt lat="62.46495" lon="17.34032">
        <ele>59.181641</ele>
        <time>2020-10-05T08:25:30.304Z</time>
      </trkpt>
      <trkpt lat="62.46332" lon="17.34315">
        <ele>63.771693</ele>
        <time>2020-10-05T08:26:54.298Z</time>
      </trkpt>
      <trkpt lat="62.46161" lon="17.34515">
        <ele>67.764199</ele>
        <time>2020-10-05T08:28:34.298Z</time>
      </trkpt>
      <trkpt lat="62.45975" lon="17.34636">
        <ele>71.207158</ele>
        <time>2020-10-05T08:30:09.330Z</time>
      </trkpt>
      <trkpt lat="62.45787" lon="17.34868">
        <ele>71.854192</ele>
        <time>2020-10-05T08:31:01.335Z</time>
      </trkpt>
      <trkpt lat="62.45585" lon="17.34949">
        <ele>78.264679</ele>
        <time>2020-10-05T08:32:43.306Z</time>
      </trkpt>
      <trkpt lat="62.4538" lon="17.34859">
        <ele>74.950364</ele>
        <time>2020-10-05T08:33:55.317Z</time>
      </trkpt>
      <trkpt lat="62.45152" lon="17.34662">
        <ele>60.698918</ele>
        <time>2020-10-05T08:34:40.301Z</time>
      </trkpt>
      <trkpt lat="62.44943" lon="17.3449">
        <ele>61.165799</ele>
        <time>2020-10-05T08:35:36.325Z</time>
      </trkpt>
      <trkpt lat="62.4473" lon="17.34443">
        <ele>60.807508</ele>
        <time>2020-10-05T08:36:23.302Z</time>
      </trkpt>
      <trkpt lat="62.4454" lon="17.34204">
        <ele>49.774051</ele>
        <time>2020-10-05T08:37:06.325Z</time>
      </trkpt>
      <trkpt lat="62.44339" lon="17.34225">
        <ele>52.09126</ele>
        <time>2020-10-05T08:38:16.350Z</time>
      </trkpt>
      <trkpt lat="62.44187" lon="17.34483">
        <ele>52.66822</ele>
        <time>2020-10-05T08:39:13.285Z</time>
      </trkpt>
      <trkpt lat="62.4415" lon="17.34054">
        <ele>60.14654</ele>
        <time>2020-10-05T08:41:14.301Z</time>
      </trkpt>
      <trkpt lat="62.4396" lon="17.33987">
        <ele>71.017813</ele>
        <time>2020-10-05T08:43:03.278Z</time>
      </trkpt>
      <trkpt lat="62.43766" lon="17.34012">
        <ele>87.496336</ele>
        <time>2020-10-05T08:45:03.296Z</time>
      </trkpt>
      <trkpt lat="62.43597" lon="17.34206">
        <ele>93.079565</ele>
        <time>2020-10-05T08:46:52.303Z</time>
      </trkpt>
      <trkpt lat="62.43404" lon="17.34143">
        <ele>100.940657</ele>
        <time>2020-10-05T08:48:49.277Z</time>
      </trkpt>
      <trkpt lat="62.43229" lon="17.34233">
        <ele>109.953774</ele>
        <time>2020-10-05T08:50:37.309Z</time>
      </trkpt>
      <trkpt lat="62.43061" lon="17.34471">
        <ele>111.070126</ele>
        <time>2020-10-05T08:52:10.324Z</time>
      </trkpt>
      <trkpt lat="62.42874" lon="17.34654">
        <ele>113.726782</ele>
        <time>2020-10-05T08:53:14.293Z</time>
      </trkpt>
      <trkpt lat="62.42661" lon="17.34684">
        <ele>114.271648</ele>
        <time>2020-10-05T08:54:10.293Z</time>
      </trkpt>
      <trkpt lat="62.42418" lon="17.34646">
        <ele>102.744901</ele>
        <time>2020-10-05T08:54:52.309Z</time>
      </trkpt>
      <trkpt lat="62.42159" lon="17.345">
        <ele>84.336029</ele>
        <time>2020-10-05T08:55:32.351Z</time>
      </trkpt>
      <trkpt lat="62.41876" lon="17.34345">
        <ele>70.298175</ele>
        <time>2020-10-05T08:56:11.342Z</time>
      </trkpt>
      <trkpt lat="62.41615" lon="17.34211">
        <ele>65.824349</ele>
        <time>2020-10-05T08:56:51.295Z</time>
      </trkpt>
      <trkpt lat="62.41467" lon="17.33954">
        <ele>76.482107</ele>
        <time>2020-10-05T08:58:04.333Z</time>
      </trkpt>
      <trkpt lat="62.4131" lon="17.33617">
        <ele>78.8332</ele>
        <time>2020-10-05T08:59:04.558Z</time>
      </trkpt>
      <trkpt lat="62.41115" lon="17.33357">
        <ele>70.439728</ele>
        <time>2020-10-05T09:00:00.302Z</time>
      </trkpt>
      <trkpt lat="62.40912" lon="17.33456">
        <ele>60.017359</ele>
        <time>2020-10-05T09:00:53.326Z</time>
      </trkpt>
      <trkpt lat="62.40702" lon="17.33598">
        <ele>54.595968</ele>
        <time>2020-10-05T09:01:35.330Z</time>
      </trkpt>
      <trkpt lat="62.405" lon="17.33641">
        <ele>57.491611</ele>
        <time>2020-10-05T09:02:17.297Z</time>
      </trkpt>
      <trkpt lat="62.40258" lon="17.33624">
        <ele>60.238991</ele>
        <time>2020-10-05T09:03:14.298Z</time>
      </trkpt>
      <trkpt lat="62.40052" lon="17.33582">
        <ele>57.350201</ele>
        <time>2020-10-05T09:04:03.292Z</time>
      </trkpt>
      <trkpt lat="62.39844" lon="17.33488">
        <ele>56.354528</ele>
        <time>2020-10-05T09:04:54.298Z</time>
      </trkpt>
      <trkpt lat="62.39667" lon="17.3362">
        <ele>50.08439</ele>
        <time>2020-10-05T09:05:53.305Z</time>
      </trkpt>
      <trkpt lat="62.39439" lon="17.33761">
        <ele>52.480665</ele>
        <time>2020-10-05T09:06:58.357Z</time>
      </trkpt>
      <trkpt lat="62.39241" lon="17.33835">
        <ele>61.222195</ele>
        <time>2020-10-05T09:08:38.296Z</time>
      </trkpt>
      <trkpt lat="62.39046" lon="17.33948">
        <ele>65.18347</ele>
        <time>2020-10-05T09:10:16.303Z</time>
      </trkpt>
      <trkpt lat="62.38854" lon="17.34106">
        <ele>65.933616</ele>
        <time>2020-10-05T09:11:41.305Z</time>
      </trkpt>
      <trkpt lat="62.38656" lon="17.34326">
        <ele>64.093978</ele>
        <time>2020-10-05T09:12:47.318Z</time>
      </trkpt>
      <trkpt lat="62.38467" lon="17.34602">
        <ele>55.341512</ele>
        <time>2020-10-05T09:13:28.303Z</time>
      </trkpt>
      <trkpt lat="62.38271" lon="17.34975">
        <ele>41.738582</ele>
        <time>2020-10-05T09:14:08.336Z</time>
      </trkpt>
      <trkpt lat="62.38178" lon="17.35197">
        <ele>35.908712</ele>
        <time>2020-10-05T09:16:42.347Z</time>
      </trkpt>
      <trkpt lat="62.38276" lon="17.35085">
        <ele>29.792788</ele>
        <time>2020-10-05T09:17:39.284Z</time>
      </trkpt>
      <trkpt lat="62.38174" lon="17.35524">
        <ele>29.201315</ele>
        <time>2020-10-05T09:18:38.315Z</time>
      </trkpt>
      <trkpt lat="62.38016" lon="17.358">
        <ele>35.336833</ele>
        <time>2020-10-05T09:20:04.311Z</time>
      </trkpt>
      <trkpt lat="62.37839" lon="17.36065">
        <ele>36.812011</ele>
        <time>2020-10-05T09:21:12.307Z</time>
      </trkpt>
      <trkpt lat="62.37646" lon="17.36283">
        <ele>33.621868</ele>
        <time>2020-10-05T09:21:57.333Z</time>
      </trkpt>
      <trkpt lat="62.37441" lon="17.36438">
        <ele>39.305868</ele>
        <time>2020-10-05T09:23:04.313Z</time>
      </trkpt>
      <trkpt lat="62.37261" lon="17.3662">
        <ele>46.417542</ele>
        <time>2020-10-05T09:24:48.297Z</time>
      </trkpt>
      <trkpt lat="62.37079" lon="17.36808">
        <ele>47.169271</ele>
        <time>2020-10-05T09:25:56.304Z</time>
      </trkpt>
      <trkpt lat="62.36878" lon="17.36934">
        <ele>47.332626</ele>
        <time>2020-10-05T09:26:55.304Z</time>
      </trkpt>
      <trkpt lat="62.3668" lon="17.3704">
        <ele>52.597341</ele>
        <time>2020-10-05T09:28:00.296Z</time>
      </trkpt>
      <trkpt lat="62.36477" lon="17.37089">
        <ele>45.535762</ele>
        <time>2020-10-05T09:29:01.332Z</time>
      </trkpt>
      <trkpt lat="62.36228" lon="17.36983">
        <ele>40.020514</ele>
        <time>2020-10-05T09:29:52.302Z</time>
      </trkpt>
      <trkpt lat="62.36005" lon="17.36951">
        <ele>43.704767</ele>
        <time>2020-10-05T09:31:02.329Z</time>
      </trkpt>
      <trkpt lat="62.35818" lon="17.36999">
        <ele>47.131434</ele>
        <time>2020-10-05T09:32:45.316Z</time>
      </trkpt>
      <trkpt lat="62.35622" lon="17.36952">
        <ele>57.505043</ele>
        <time>2020-10-05T09:33:51.343Z</time>
      </trkpt>
      <trkpt lat="62.35453" lon="17.36681">
        <ele>60.50562</ele>
        <time>2020-10-05T09:35:06.322Z</time>
      </trkpt>
      <trkpt lat="62.35241" lon="17.36607">
        <ele>52.425372</ele>
        <time>2020-10-05T09:36:04.311Z</time>
      </trkpt>
      <trkpt lat="62.35042" lon="17.36544">
        <ele>50.274031</ele>
        <time>2020-10-05T09:37:10.325Z</time>
      </trkpt>
      <trkpt lat="62.34808" lon="17.36573">
        <ele>45.646538</ele>
        <time>2020-10-05T09:38:07.295Z</time>
      </trkpt>
      <trkpt lat="62.34595" lon="17.36474">
        <ele>35.262229</ele>
        <time>2020-10-05T09:38:31.323Z</time>
      </trkpt>
      <trkpt lat="62.34358" lon="17.36453">
        <ele>36.771724</ele>
        <time>2020-10-05T09:39:28.304Z</time>
      </trkpt>
      <trkpt lat="62.34141" lon="17.36404">
        <ele>41.449397</ele>
        <time>2020-10-05T09:40:26.316Z</time>
      </trkpt>
      <trkpt lat="62.33945" lon="17.36283">
        <ele>46.817662</ele>
        <time>2020-10-05T09:41:45.322Z</time>
      </trkpt>
      <trkpt lat="62.3374" lon="17.362">
        <ele>50.542501</ele>
        <time>2020-10-05T09:43:07.336Z</time>
      </trkpt>
      <trkpt lat="62.33552" lon="17.3609">
        <ele>53.439491</ele>
        <time>2020-10-05T09:44:31.308Z</time>
      </trkpt>
      <trkpt lat="62.33309" lon="17.36361">
        <ele>38.408109</ele>
        <time>2020-10-05T09:45:10.304Z</time>
      </trkpt>
      <trkpt lat="62.33099" lon="17.36498">
        <ele>30.162878</ele>
        <time>2020-10-05T09:45:59.305Z</time>
      </trkpt>
      <trkpt lat="62.32954" lon="17.36851">
        <ele>37.519065</ele>
        <time>2020-10-05T09:47:03.304Z</time>
      </trkpt>
      <trkpt lat="62.32776" lon="17.37146">
        <ele>42.565938</ele>
        <time>2020-10-05T09:48:08.305Z</time>
      </trkpt>
      <trkpt lat="62.32577" lon="17.37045">
        <ele>40.778506</ele>
        <time>2020-10-05T09:49:04.339Z</time>
      </trkpt>
      <trkpt lat="62.32401" lon="17.37067">
        <ele>36.530155</ele>
        <time>2020-10-05T09:50:07.324Z</time>
      </trkpt>
      <trkpt lat="62.32201" lon="17.37022">
        <ele>31.074836</ele>
        <time>2020-10-05T09:51:14.304Z</time>
      </trkpt>
      <trkpt lat="62.31986" lon="17.36954">
        <ele>28.565825</ele>
        <time>2020-10-05T09:52:19.313Z</time>
      </trkpt>
      <trkpt lat="62.31802" lon="17.37143">
        <ele>32.515561</ele>
        <time>2020-10-05T09:53:25.326Z</time>
      </trkpt>
      <trkpt lat="62.31617" lon="17.3723">
        <ele>37.185066</ele>
        <time>2020-10-05T09:54:41.346Z</time>
      </trkpt>
      <trkpt lat="62.31406" lon="17.37111">
        <ele>36.14079</ele>
        <time>2020-10-05T09:55:29.322Z</time>
      </trkpt>
      <trkpt lat="62.31204" lon="17.37303">
        <ele>35.28965</ele>
        <time>2020-10-05T09:56:26.320Z</time>
      </trkpt>
      <trkpt lat="62.31034" lon="17.37553">
        <ele>35.934551</ele>
        <time>2020-10-05T09:57:29.309Z</time>
      </trkpt>
      <trkpt lat="62.3083" lon="17.3761">
        <ele>35.366205</ele>
        <time>2020-10-05T09:58:38.337Z</time>
      </trkpt>
      <trkpt lat="62.30613" lon="17.37552">
        <ele>36.228829</ele>
        <time>2020-10-05T09:59:33.361Z</time>
      </trkpt>
      <trkpt lat="62.30395" lon="17.37655">
        <ele>36.178213</ele>
        <time>2020-10-05T10:00:29.311Z</time>
      </trkpt>
      <trkpt lat="62.30258" lon="17.37778">
        <ele>31.645279</ele>
        <time>2020-10-05T10:01:36.297Z</time>
      </trkpt>
      <trkpt lat="62.30055" lon="17.37768">
        <ele>31.58544</ele>
        <time>2020-10-05T10:02:38.305Z</time>
      </trkpt>
      <trkpt lat="62.30036" lon="17.38228">
        <ele>36.091554</ele>
        <time>2020-10-05T10:03:41.341Z</time>
      </trkpt>
      <trkpt lat="62.30101" lon="17.38627">
        <ele>37.023508</ele>
        <time>2020-10-05T10:05:35.321Z</time>
      </trkpt>
      <trkpt lat="62.29995" lon="17.39054">
        <ele>33.798155</ele>
        <time>2020-10-05T10:06:20.327Z</time>
      </trkpt>
      <trkpt lat="62.29805" lon="17.39174">
        <ele>32.439502</ele>
        <time>2020-10-05T10:07:28.317Z</time>
      </trkpt>
      <trkpt lat="62.29588" lon="17.39063">
        <ele>32.712086</ele>
        <time>2020-10-05T10:08:33.307Z</time>
      </trkpt>
      <trkpt lat="62.29407" lon="17.38739">
        <ele>34.308119</ele>
        <time>2020-10-05T10:09:31.330Z</time>
      </trkpt>
      <trkpt lat="62.2919" lon="17.38657">
        <ele>35.053298</ele>
        <time>2020-10-05T10:10:19.309Z</time>
      </trkpt>
      <trkpt lat="62.28998" lon="17.38838">
        <ele>37.198883</ele>
        <time>2020-10-05T10:11:25.332Z</time>
      </trkpt>
      <trkpt lat="62.28877" lon="17.39198">
        <ele>43.779736</ele>
        <time>2020-10-05T10:12:48.329Z</time>
      </trkpt>
      <trkpt lat="62.28678" lon="17.39388">
        <ele>45.467503</ele>
        <time>2020-10-05T10:13:56.312Z</time>
      </trkpt>
      <trkpt lat="62.28457" lon="17.39532">
        <ele>42.755675</ele>
        <time>2020-10-05T10:14:52.357Z</time>
      </trkpt>
      <trkpt lat="62.28217" lon="17.39465">
        <ele>37.68123</ele>
        <time>2020-10-05T10:15:50.329Z</time>
      </trkpt>
      <trkpt lat="62.27979" lon="17.39467">
        <ele>37.450427</ele>
        <time>2020-10-05T10:16:32.394Z</time>
      </trkpt>
      <trkpt lat="62.27763" lon="17.39514">
        <ele>36.484151</ele>
        <time>2020-10-05T10:17:20.316Z</time>
      </trkpt>
      <trkpt lat="62.27506" lon="17.3945">
        <ele>35.254984</ele>
        <time>2020-10-05T10:39:21.130Z</time>
      </trkpt>
      <trkpt lat="62.2729" lon="17.39582">
        <ele>37.985569</ele>
        <time>2020-10-05T10:40:15.177Z</time>
      </trkpt>
      <trkpt lat="62.27076" lon="17.39701">
        <ele>41.783151</ele>
        <time>2020-10-05T10:41:24.140Z</time>
      </trkpt>
      <trkpt lat="62.26885" lon="17.39865">
        <ele>44.622325</ele>
        <time>2020-10-05T10:42:30.145Z</time>
      </trkpt>
      <trkpt lat="62.26772" lon="17.40249">
        <ele>38.362197</ele>
        <time>2020-10-05T10:43:22.137Z</time>
      </trkpt>
      <trkpt lat="62.26734" lon="17.40681">
        <ele>40.305554</ele>
        <time>2020-10-05T10:44:28.135Z</time>
      </trkpt>
      <trkpt lat="62.26713" lon="17.41146">
        <ele>49.74064</ele>
        <time>2020-10-05T10:45:46.152Z</time>
      </trkpt>
      <trkpt lat="62.2664" lon="17.41544">
        <ele>59.012835</ele>
        <time>2020-10-05T10:47:12.154Z</time>
      </trkpt>
      <trkpt lat="62.2657" lon="17.41952">
        <ele>58.582977</ele>
        <time>2020-10-05T10:48:27.179Z</time>
      </trkpt>
      <trkpt lat="62.26557" lon="17.42437">
        <ele>56.821033</ele>
        <time>2020-10-05T10:49:14.149Z</time>
      </trkpt>
      <trkpt lat="62.26544" lon="17.42898">
        <ele>53.646599</ele>
        <time>2020-10-05T10:49:56.149Z</time>
      </trkpt>
      <trkpt lat="62.26516" lon="17.43391">
        <ele>52.686893</ele>
        <time>2020-10-05T10:50:49.146Z</time>
      </trkpt>
      <trkpt lat="62.26475" lon="17.43824">
        <ele>48.355588</ele>
        <time>2020-10-05T10:51:33.172Z</time>
      </trkpt>
      <trkpt lat="62.26426" lon="17.44298">
        <ele>45.536041</ele>
        <time>2020-10-05T10:52:14.141Z</time>
      </trkpt>
      <trkpt lat="62.26381" lon="17.44773">
        <ele>51.777426</ele>
        <time>2020-10-05T10:53:10.145Z</time>
      </trkpt>
      <trkpt lat="62.26336" lon="17.45208">
        <ele>50.828948</ele>
        <time>2020-10-05T10:53:54.181Z</time>
      </trkpt>
      <trkpt lat="62.26288" lon="17.45661">
        <ele>51.21268</ele>
        <time>2020-10-05T10:54:50.166Z</time>
      </trkpt>
      <trkpt lat="62.26182" lon="17.46032">
        <ele>56.653374</ele>
        <time>2020-10-05T10:56:16.153Z</time>
      </trkpt>
      <trkpt lat="62.26049" lon="17.46394">
        <ele>59.530205</ele>
        <time>2020-10-05T10:57:29.155Z</time>
      </trkpt>
      <trkpt lat="62.25923" lon="17.46733">
        <ele>60.694944</ele>
        <time>2020-10-05T10:58:53.173Z</time>
      </trkpt>
      <trkpt lat="62.25801" lon="17.47069">
        <ele>64.019745</ele>
        <time>2020-10-05T11:00:12.185Z</time>
      </trkpt>
      <trkpt lat="62.2566" lon="17.47387">
        <ele>64.868837</ele>
        <time>2020-10-05T11:01:00.157Z</time>
      </trkpt>
      <trkpt lat="62.25474" lon="17.47641">
        <ele>64.20207</ele>
        <time>2020-10-05T11:01:50.158Z</time>
      </trkpt>
      <trkpt lat="62.25271" lon="17.47911">
        <ele>64.220337</ele>
        <time>2020-10-05T11:02:47.166Z</time>
      </trkpt>
      <trkpt lat="62.25071" lon="17.48169">
        <ele>60.531019</ele>
        <time>2020-10-05T11:03:42.148Z</time>
      </trkpt>
      <trkpt lat="62.24871" lon="17.48431">
        <ele>59.594363</ele>
        <time>2020-10-05T11:04:38.189Z</time>
      </trkpt>
      <trkpt lat="62.24676" lon="17.48694">
        <ele>60.40228</ele>
        <time>2020-10-05T11:05:22.146Z</time>
      </trkpt>
      <trkpt lat="62.2457" lon="17.49115">
        <ele>56.337949</ele>
        <time>2020-10-05T11:06:04.189Z</time>
      </trkpt>
      <trkpt lat="62.24545" lon="17.49581">
        <ele>57.174068</ele>
        <time>2020-10-05T11:06:54.143Z</time>
      </trkpt>
      <trkpt lat="62.24516" lon="17.50097">
        <ele>58.278791</ele>
        <time>2020-10-05T11:07:53.150Z</time>
      </trkpt>
      <trkpt lat="62.24484" lon="17.50642">
        <ele>56.606838</ele>
        <time>2020-10-05T11:08:53.180Z</time>
      </trkpt>
      <trkpt lat="62.24438" lon="17.51158">
        <ele>58.065064</ele>
        <time>2020-10-05T11:09:53.155Z</time>
      </trkpt>
      <trkpt lat="62.24329" lon="17.51583">
        <ele>53.684373</ele>
        <time>2020-10-05T11:10:46.178Z</time>
      </trkpt>
      <trkpt lat="62.24204" lon="17.52044">
        <ele>50.466744</ele>
        <time>2020-10-05T11:11:36.174Z</time>
      </trkpt>
      <trkpt lat="62.24132" lon="17.5256">
        <ele>35.962536</ele>
        <time>2020-10-05T11:12:10.197Z</time>
      </trkpt>
      <trkpt lat="62.23926" lon="17.52413">
        <ele>33.27172</ele>
        <time>2020-10-05T11:13:07.180Z</time>
      </trkpt>
      <trkpt lat="62.23778" lon="17.52092">
        <ele>40.278588</ele>
        <time>2020-10-05T11:14:12.164Z</time>
      </trkpt>
      <trkpt lat="62.23647" lon="17.51711">
        <ele>39.045001</ele>
        <time>2020-10-05T11:15:16.172Z</time>
      </trkpt>
      <trkpt lat="62.23484" lon="17.51282">
        <ele>37.374624</ele>
        <time>2020-10-05T11:15:58.174Z</time>
      </trkpt>
      <trkpt lat="62.23314" lon="17.51028">
        <ele>39.990704</ele>
        <time>2020-10-05T11:17:00.158Z</time>
      </trkpt>
      <trkpt lat="62.23193" lon="17.50618">
        <ele>34.11686</ele>
        <time>2020-10-05T11:17:40.175Z</time>
      </trkpt>
      <trkpt lat="62.2302" lon="17.50316">
        <ele>35.29843</ele>
        <time>2020-10-05T11:18:34.156Z</time>
      </trkpt>
      <trkpt lat="62.22844" lon="17.4994">
        <ele>36.810731</ele>
        <time>2020-10-05T11:19:27.164Z</time>
      </trkpt>
      <trkpt lat="62.22628" lon="17.49664">
        <ele>41.318205</ele>
        <time>2020-10-05T11:20:33.154Z</time>
      </trkpt>
      <trkpt lat="62.22398" lon="17.49644">
        <ele>33.282719</ele>
        <time>2020-10-05T11:21:18.159Z</time>
      </trkpt>
      <trkpt lat="62.22201" lon="17.49504">
        <ele>34.788536</ele>
        <time>2020-10-05T11:22:21.160Z</time>
      </trkpt>
      <trkpt lat="62.21984" lon="17.49338">
        <ele>35.129532</ele>
        <time>2020-10-05T11:23:09.168Z</time>
      </trkpt>
      <trkpt lat="62.21777" lon="17.49336">
        <ele>42.832819</ele>
        <time>2020-10-05T11:24:33.159Z</time>
      </trkpt>
      <trkpt lat="62.21567" lon="17.49346">
        <ele>48.110032</ele>
        <time>2020-10-05T11:25:46.195Z</time>
      </trkpt>
      <trkpt lat="62.21342" lon="17.4936">
        <ele>43.448964</ele>
        <time>2020-10-05T11:26:26.146Z</time>
      </trkpt>
      <trkpt lat="62.21112" lon="17.49371">
        <ele>39.561819</ele>
        <time>2020-10-05T11:27:09.158Z</time>
      </trkpt>
      <trkpt lat="62.20857" lon="17.49467">
        <ele>30.624119</ele>
        <time>2020-10-05T11:27:52.158Z</time>
      </trkpt>
      <trkpt lat="62.20645" lon="17.49422">
        <ele>31.373514</ele>
        <time>2020-10-05T11:28:32.158Z</time>
      </trkpt>
      <trkpt lat="62.20438" lon="17.49388">
        <ele>28.587311</ele>
        <time>2020-10-05T11:29:12.162Z</time>
      </trkpt>
      <trkpt lat="62.20215" lon="17.49482">
        <ele>28.480341</ele>
        <time>2020-10-05T11:29:57.158Z</time>
      </trkpt>
      <trkpt lat="62.19988" lon="17.49562">
        <ele>35.131461</ele>
        <time>2020-10-05T11:30:52.169Z</time>
      </trkpt>
      <trkpt lat="62.19799" lon="17.49782">
        <ele>36.619096</ele>
        <time>2020-10-05T11:31:46.158Z</time>
      </trkpt>
      <trkpt lat="62.19618" lon="17.49954">
        <ele>39.657386</ele>
        <time>2020-10-05T11:33:14.178Z</time>
      </trkpt>
      <trkpt lat="62.19338" lon="17.50069">
        <ele>29.598329</ele>
        <time>2020-10-05T11:34:10.163Z</time>
      </trkpt>
      <trkpt lat="62.19084" lon="17.50167">
        <ele>29.228496</ele>
        <time>2020-10-05T11:34:55.177Z</time>
      </trkpt>
      <trkpt lat="62.18878" lon="17.50247">
        <ele>35.642698</ele>
        <time>2020-10-05T11:35:49.168Z</time>
      </trkpt>
      <trkpt lat="62.18659" lon="17.50262">
        <ele>38.567909</ele>
        <time>2020-10-05T11:36:48.162Z</time>
      </trkpt>
      <trkpt lat="62.18423" lon="17.50251">
        <ele>37.812688</ele>
        <time>2020-10-05T11:37:50.196Z</time>
      </trkpt>
      <trkpt lat="62.18213" lon="17.50052">
        <ele>36.144531</ele>
        <time>2020-10-05T11:38:42.212Z</time>
      </trkpt>
      <trkpt lat="62.18011" lon="17.49828">
        <ele>36.937582</ele>
        <time>2020-10-05T11:39:42.177Z</time>
      </trkpt>
      <trkpt lat="62.17831" lon="17.49627">
        <ele>42.409386</ele>
        <time>2020-10-05T11:40:54.172Z</time>
      </trkpt>
      <trkpt lat="62.17627" lon="17.49454">
        <ele>48.370397</ele>
        <time>2020-10-05T11:42:29.161Z</time>
      </trkpt>
      <trkpt lat="62.17432" lon="17.4931">
        <ele>46.704725</ele>
        <time>2020-10-05T11:43:14.153Z</time>
      </trkpt>
      <trkpt lat="62.17221" lon="17.49035">
        <ele>38.757817</ele>
        <time>2020-10-05T11:43:55.163Z</time>
      </trkpt>
      <trkpt lat="62.17038" lon="17.4877">
        <ele>33.561821</ele>
        <time>2020-10-05T11:44:37.213Z</time>
      </trkpt>
      <trkpt lat="62.16868" lon="17.48553">
        <ele>38.943142</ele>
        <time>2020-10-05T11:45:17.153Z</time>
      </trkpt>
      <trkpt lat="62.16662" lon="17.48442">
        <ele>37.634353</ele>
        <time>2020-10-05T11:46:05.191Z</time>
      </trkpt>
      <trkpt lat="62.16435" lon="17.48407">
        <ele>42.836756</ele>
        <time>2020-10-05T11:47:10.201Z</time>
      </trkpt>
      <trkpt lat="62.1636" lon="17.48003">
        <ele>53.286024</ele>
        <time>2020-10-05T11:48:56.159Z</time>
      </trkpt>
      <trkpt lat="62.16413" lon="17.47571">
        <ele>59.492179</ele>
        <time>2020-10-05T11:50:16.207Z</time>
      </trkpt>
      <trkpt lat="62.16398" lon="17.47168">
        <ele>60.023202</ele>
        <time>2020-10-05T11:51:44.183Z</time>
      </trkpt>
      <trkpt lat="62.16323" lon="17.46753">
        <ele>58.280014</ele>
        <time>2020-10-05T11:52:53.202Z</time>
      </trkpt>
      <trkpt lat="62.16249" lon="17.46333">
        <ele>66.083435</ele>
        <time>2020-10-05T11:54:07.184Z</time>
      </trkpt>
      <trkpt lat="62.16162" lon="17.45947">
        <ele>75.903128</ele>
        <time>2020-10-05T11:57:36.201Z</time>
      </trkpt>
      <trkpt lat="62.16057" lon="17.45579">
        <ele>81.652174</ele>
        <time>2020-10-05T11:59:01.217Z</time>
      </trkpt>
      <trkpt lat="62.15919" lon="17.45263">
        <ele>84.796924</ele>
        <time>2020-10-05T12:00:26.165Z</time>
      </trkpt>
      <trkpt lat="62.15778" lon="17.44948">
        <ele>90.355012</ele>
        <time>2020-10-05T12:02:32.175Z</time>
      </trkpt>
      <trkpt lat="62.1564" lon="17.44652">
        <ele>95.823427</ele>
        <time>2020-10-05T12:04:15.201Z</time>
      </trkpt>
      <trkpt lat="62.15614" lon="17.44316">
        <ele>100.646087</ele>
        <time>2020-10-05T12:05:29.185Z</time>
      </trkpt>
      <trkpt lat="62.15601" lon="17.43928">
        <ele>106.161652</ele>
        <time>2020-10-05T12:07:06.216Z</time>
      </trkpt>
      <trkpt lat="62.15547" lon="17.43479">
        <ele>111.822667</ele>
        <time>2020-10-05T12:08:28.189Z</time>
      </trkpt>
      <trkpt lat="62.1541" lon="17.43191">
        <ele>111.96194</ele>
        <time>2020-10-05T12:09:44.164Z</time>
      </trkpt>
      <trkpt lat="62.15233" lon="17.42967">
        <ele>116.23375</ele>
        <time>2020-10-05T12:10:49.209Z</time>
      </trkpt>
      <trkpt lat="62.15074" lon="17.4267">
        <ele>114.026253</ele>
        <time>2020-10-05T12:11:42.190Z</time>
      </trkpt>
      <trkpt lat="62.14849" lon="17.42619">
        <ele>107.45301</ele>
        <time>2020-10-05T12:12:27.179Z</time>
      </trkpt>
      <trkpt lat="62.14662" lon="17.42378">
        <ele>105.992843</ele>
        <time>2020-10-05T12:13:23.181Z</time>
      </trkpt>
      <trkpt lat="62.14509" lon="17.42093">
        <ele>107.3163</ele>
        <time>2020-10-05T12:14:09.192Z</time>
      </trkpt>
      <trkpt lat="62.14435" lon="17.41695">
        <ele>108.486958</ele>
        <time>2020-10-05T12:15:05.216Z</time>
      </trkpt>
      <trkpt lat="62.14349" lon="17.41309">
        <ele>124.265409</ele>
        <time>2020-10-05T12:16:28.186Z</time>
      </trkpt>
      <trkpt lat="62.14162" lon="17.41164">
        <ele>117.73773</ele>
        <time>2020-10-05T12:17:28.175Z</time>
      </trkpt>
      <trkpt lat="62.1399" lon="17.41483">
        <ele>108.992322</ele>
        <time>2020-10-05T12:18:21.188Z</time>
      </trkpt>
      <trkpt lat="62.13776" lon="17.4161">
        <ele>103.547737</ele>
        <time>2020-10-05T12:19:30.164Z</time>
      </trkpt>
      <trkpt lat="62.13537" lon="17.41478">
        <ele>103.085969</ele>
        <time>2020-10-05T12:20:28.181Z</time>
      </trkpt>
      <trkpt lat="62.13327" lon="17.41521">
        <ele>99.643405</ele>
        <time>2020-10-05T12:21:26.168Z</time>
      </trkpt>
      <trkpt lat="62.13119" lon="17.41439">
        <ele>111.99619</ele>
        <time>2020-10-05T12:23:06.197Z</time>
      </trkpt>
      <trkpt lat="62.12972" lon="17.41751">
        <ele>113.844178</ele>
        <time>2020-10-05T12:23:54.177Z</time>
      </trkpt>
      <trkpt lat="62.12786" lon="17.41901">
        <ele>115.81068</ele>
        <time>2020-10-05T12:24:56.188Z</time>
      </trkpt>
      <trkpt lat="62.12603" lon="17.4207">
        <ele>117.343995</ele>
        <time>2020-10-05T12:26:03.183Z</time>
      </trkpt>
      <trkpt lat="62.1237" lon="17.42208">
        <ele>101.317982</ele>
        <time>2020-10-05T12:26:53.185Z</time>
      </trkpt>
      <trkpt lat="62.12156" lon="17.42256">
        <ele>88.672511</ele>
        <time>2020-10-05T12:27:35.193Z</time>
      </trkpt>
      <trkpt lat="62.11995" lon="17.42664">
        <ele>79.059732</ele>
        <time>2020-10-05T12:28:17.196Z</time>
      </trkpt>
      <trkpt lat="62.11754" lon="17.43009">
        <ele>67.487357</ele>
        <time>2020-10-05T12:28:54.210Z</time>
      </trkpt>
      <trkpt lat="62.11548" lon="17.43409">
        <ele>60.414682</ele>
        <time>2020-10-05T12:29:34.175Z</time>
      </trkpt>
      <trkpt lat="62.1137" lon="17.43675">
        <ele>61.203508</ele>
        <time>2020-10-05T12:30:19.182Z</time>
      </trkpt>
      <trkpt lat="62.11158" lon="17.43842">
        <ele>74.73819</ele>
        <time>2020-10-05T12:31:06.181Z</time>
      </trkpt>
      <trkpt lat="62.10963" lon="17.44052">
        <ele>81.727041</ele>
        <time>2020-10-05T12:31:54.195Z</time>
      </trkpt>
      <trkpt lat="62.1083" lon="17.44393">
        <ele>71.537693</ele>
        <time>2020-10-05T12:33:00.179Z</time>
      </trkpt>
      <trkpt lat="62.10749" lon="17.44791">
        <ele>66.59368</ele>
        <time>2020-10-05T12:34:24.183Z</time>
      </trkpt>
      <trkpt lat="62.1062" lon="17.45036">
        <ele>55.080303</ele>
        <time>2020-10-05T12:35:11.176Z</time>
      </trkpt>
      <trkpt lat="62.10402" lon="17.4491">
        <ele>51.865202</ele>
        <time>2020-10-05T12:36:07.187Z</time>
      </trkpt>
      <trkpt lat="62.1025" lon="17.446">
        <ele>60.343336</ele>
        <time>2020-10-05T12:37:22.192Z</time>
      </trkpt>
      <trkpt lat="62.10055" lon="17.44514">
        <ele>65.936925</ele>
        <time>2020-10-05T12:38:23.175Z</time>
      </trkpt>
      <trkpt lat="62.09952" lon="17.44147">
        <ele>73.827287</ele>
        <time>2020-10-05T12:40:24.219Z</time>
      </trkpt>
      <trkpt lat="62.09844" lon="17.43782">
        <ele>82.847573</ele>
        <time>2020-10-05T12:41:52.181Z</time>
      </trkpt>
      <trkpt lat="62.0966" lon="17.43581">
        <ele>81.451463</ele>
        <time>2020-10-05T12:43:01.196Z</time>
      </trkpt>
      <trkpt lat="62.09565" lon="17.43249">
        <ele>89.350126</ele>
        <time>2020-10-05T12:44:48.207Z</time>
      </trkpt>
      <trkpt lat="62.09386" lon="17.42923">
        <ele>91.82079</ele>
        <time>2020-10-05T12:46:01.197Z</time>
      </trkpt>
      <trkpt lat="62.09156" lon="17.42913">
        <ele>86.152073</ele>
        <time>2020-10-05T12:46:44.191Z</time>
      </trkpt>
      <trkpt lat="62.08928" lon="17.42829">
        <ele>86.644634</ele>
        <time>2020-10-05T12:47:25.191Z</time>
      </trkpt>
      <trkpt lat="62.08666" lon="17.42873">
        <ele>77.707544</ele>
        <time>2020-10-05T12:48:09.224Z</time>
      </trkpt>
      <trkpt lat="62.08411" lon="17.42866">
        <ele>71.283698</ele>
        <time>2020-10-05T12:48:47.214Z</time>
      </trkpt>
      <trkpt lat="62.08197" lon="17.42618">
        <ele>65.106835</ele>
        <time>2020-10-05T12:49:29.234Z</time>
      </trkpt>
      <trkpt lat="62.08059" lon="17.42946">
        <ele>57.078948</ele>
        <time>2020-10-05T12:50:10.191Z</time>
      </trkpt>
      <trkpt lat="62.07933" lon="17.43382">
        <ele>52.111141</ele>
        <time>2020-10-05T12:50:50.226Z</time>
      </trkpt>
      <trkpt lat="62.0774" lon="17.43217">
        <ele>62.460403</ele>
        <time>2020-10-05T12:52:01.213Z</time>
      </trkpt>
      <trkpt lat="62.07611" lon="17.4291">
        <ele>75.413028</ele>
        <time>2020-10-05T12:53:53.174Z</time>
      </trkpt>
      <trkpt lat="62.07406" lon="17.42603">
        <ele>71.327493</ele>
        <time>2020-10-05T12:55:00.187Z</time>
      </trkpt>
      <trkpt lat="62.0717" lon="17.4249">
        <ele>59.235296</ele>
        <time>2020-10-05T12:55:32.199Z</time>
      </trkpt>
      <trkpt lat="62.06938" lon="17.42491">
        <ele>49.256488</ele>
        <time>2020-10-05T12:55:56.180Z</time>
      </trkpt>
      <trkpt lat="62.06727" lon="17.42677">
        <ele>46.545357</ele>
        <time>2020-10-05T12:56:44.196Z</time>
      </trkpt>
      <trkpt lat="62.06523" lon="17.42478">
        <ele>46.123182</ele>
        <time>2020-10-05T12:57:25.193Z</time>
      </trkpt>
      <trkpt lat="62.06413" lon="17.42073">
        <ele>43.645564</ele>
        <time>2020-10-05T12:58:30.167Z</time>
      </trkpt>
      <trkpt lat="62.06385" lon="17.4161">
        <ele>37.313288</ele>
        <time>2020-10-05T12:59:27.170Z</time>
      </trkpt>
      <trkpt lat="62.06448" lon="17.41154">
        <ele>41.992142</ele>
        <time>2020-10-05T13:00:26.220Z</time>
      </trkpt>
      <trkpt lat="62.06508" lon="17.4071">
        <ele>44.345911</ele>
        <time>2020-10-05T13:01:26.186Z</time>
      </trkpt>
      <trkpt lat="62.06573" lon="17.40322">
        <ele>45.471789</ele>
        <time>2020-10-05T13:02:25.196Z</time>
      </trkpt>
      <trkpt lat="62.06661" lon="17.39895">
        <ele>52.311515</ele>
        <time>2020-10-05T13:03:42.217Z</time>
      </trkpt>
      <trkpt lat="62.06598" lon="17.39516">
        <ele>60.03605</ele>
        <time>2020-10-05T13:05:02.208Z</time>
      </trkpt>
      <trkpt lat="62.06545" lon="17.39092">
        <ele>52.61802</ele>
        <time>2020-10-05T13:05:57.182Z</time>
      </trkpt>
      <trkpt lat="62.06347" lon="17.38911">
        <ele>45.123294</ele>
        <time>2020-10-05T13:06:45.180Z</time>
      </trkpt>
      <trkpt lat="62.06249" lon="17.38654">
        <ele>51.096473</ele>
        <time>2020-10-05T13:08:15.211Z</time>
      </trkpt>
      <trkpt lat="62.06314" lon="17.38207">
        <ele>54.270804</ele>
        <time>2020-10-05T13:09:19.214Z</time>
      </trkpt>
      <trkpt lat="62.06357" lon="17.37756">
        <ele>54.128048</ele>
        <time>2020-10-05T13:10:22.203Z</time>
      </trkpt>
      <trkpt lat="62.0641" lon="17.373">
        <ele>57.024234</ele>
        <time>2020-10-05T13:11:35.206Z</time>
      </trkpt>
      <trkpt lat="62.06438" lon="17.36845">
        <ele>60.114145</ele>
        <time>2020-10-05T13:12:38.191Z</time>
      </trkpt>
      <trkpt lat="62.06433" lon="17.36375">
        <ele>52.74676</ele>
        <time>2020-10-05T13:13:22.177Z</time>
      </trkpt>
      <trkpt lat="62.06419" lon="17.35933">
        <ele>52.648196</ele>
        <time>2020-10-05T13:14:16.188Z</time>
      </trkpt>
      <trkpt lat="62.06422" lon="17.35456">
        <ele>65.177307</ele>
        <time>2020-10-05T13:15:33.207Z</time>
      </trkpt>
      <trkpt lat="62.06304" lon="17.3514">
        <ele>72.865478</ele>
        <time>2020-10-05T13:17:18.179Z</time>
      </trkpt>
      <trkpt lat="62.06362" lon="17.34746">
        <ele>77.598393</ele>
        <time>2020-10-05T13:19:03.213Z</time>
      </trkpt>
      <trkpt lat="62.06461" lon="17.34347">
        <ele>79.52363</ele>
        <time>2020-10-05T13:20:19.188Z</time>
      </trkpt>
      <trkpt lat="62.06483" lon="17.33879">
        <ele>85.34049</ele>
        <time>2020-10-05T13:21:43.210Z</time>
      </trkpt>
      <trkpt lat="62.06568" lon="17.33479">
        <ele>87.879728</ele>
        <time>2020-10-05T13:23:01.178Z</time>
      </trkpt>
      <trkpt lat="62.06645" lon="17.33073">
        <ele>91.027282</ele>
        <time>2020-10-05T13:24:06.196Z</time>
      </trkpt>
      <trkpt lat="62.06731" lon="17.32637">
        <ele>93.803523</ele>
        <time>2020-10-05T13:24:54.182Z</time>
      </trkpt>
      <trkpt lat="62.06709" lon="17.32172">
        <ele>99.162803</ele>
        <time>2020-10-05T13:25:45.226Z</time>
      </trkpt>
      <trkpt lat="62.06675" lon="17.31695">
        <ele>97.892166</ele>
        <time>2020-10-05T13:26:46.189Z</time>
      </trkpt>
      <trkpt lat="62.06662" lon="17.31241">
        <ele>94.821479</ele>
        <time>2020-10-05T13:27:41.189Z</time>
      </trkpt>
      <trkpt lat="62.0668" lon="17.30806">
        <ele>92.117488</ele>
        <time>2020-10-05T13:29:02.249Z</time>
      </trkpt>
      <trkpt lat="62.06633" lon="17.3034">
        <ele>93.740493</ele>
        <time>2020-10-05T13:30:20.229Z</time>
      </trkpt>
      <trkpt lat="62.06545" lon="17.29943">
        <ele>91.697237</ele>
        <time>2020-10-05T13:31:02.177Z</time>
      </trkpt>
      <trkpt lat="62.06572" lon="17.29469">
        <ele>89.5873</ele>
        <time>2020-10-05T13:31:55.215Z</time>
      </trkpt>
      <trkpt lat="62.06665" lon="17.29091">
        <ele>96.131787</ele>
        <time>2020-10-05T13:33:11.202Z</time>
      </trkpt>
      <trkpt lat="62.06767" lon="17.28713">
        <ele>102.002318</ele>
        <time>2020-10-05T13:34:37.273Z</time>
      </trkpt>
      <trkpt lat="62.06734" lon="17.28379">
        <ele>103.257348</ele>
        <time>2020-10-05T13:35:40.190Z</time>
      </trkpt>
      <trkpt lat="62.06547" lon="17.28095">
        <ele>99.647054</ele>
        <time>2020-10-05T13:36:24.200Z</time>
      </trkpt>
      <trkpt lat="62.06367" lon="17.27738">
        <ele>88.10346</ele>
        <time>2020-10-05T13:36:55.195Z</time>
      </trkpt>
      <trkpt lat="62.06171" lon="17.27317">
        <ele>80.792161</ele>
        <time>2020-10-05T13:37:31.214Z</time>
      </trkpt>
      <trkpt lat="62.06021" lon="17.27">
        <ele>83.816347</ele>
        <time>2020-10-05T13:38:50.203Z</time>
      </trkpt>
      <trkpt lat="62.05836" lon="17.2677">
        <ele>83.921829</ele>
        <time>2020-10-05T13:39:49.240Z</time>
      </trkpt>
      <trkpt lat="62.0567" lon="17.26556">
        <ele>78.85963</ele>
        <time>2020-10-05T13:40:32.189Z</time>
      </trkpt>
      <trkpt lat="62.05553" lon="17.26167">
        <ele>78.046322</ele>
        <time>2020-10-05T13:41:25.214Z</time>
      </trkpt>
      <trkpt lat="62.05352" lon="17.2591">
        <ele>76.426643</ele>
        <time>2020-10-05T13:42:08.196Z</time>
      </trkpt>
      <trkpt lat="62.05158" lon="17.2597">
        <ele>87.868827</ele>
        <time>2020-10-05T13:43:48.243Z</time>
      </trkpt>
      <trkpt lat="62.04976" lon="17.25865">
        <ele>95.489783</ele>
        <time>2020-10-05T13:45:24.199Z</time>
      </trkpt>
      <trkpt lat="62.04908" lon="17.25389">
        <ele>81.874897</ele>
        <time>2020-10-05T13:46:06.192Z</time>
      </trkpt>
      <trkpt lat="62.04944" lon="17.24911">
        <ele>78.790402</ele>
        <time>2020-10-05T13:47:03.211Z</time>
      </trkpt>
    </trkseg>
  </trk>
  <trk>
    <name><![CDATA[Tour d'Europe: étape 102]]></name>
    <trkseg>
      <trkpt lat="62.04957" lon="17.24823">
        <ele>79.891792</ele>
        <time>2020-10-08T07:45:54.831Z</time>
      </trkpt>
      <trkpt lat="62.04738" lon="17.24861">
        <ele>79.133315</ele>
        <time>2020-10-08T07:46:49.887Z</time>
      </trkpt>
      <trkpt lat="62.04704" lon="17.2442">
        <ele>86.17762</ele>
        <time>2020-10-08T07:48:04.840Z</time>
      </trkpt>
      <trkpt lat="62.04735" lon="17.23941">
        <ele>75.337788</ele>
        <time>2020-10-08T07:48:50.822Z</time>
      </trkpt>
      <trkpt lat="62.04626" lon="17.24083">
        <ele>76.560805</ele>
        <time>2020-10-08T07:50:18.901Z</time>
      </trkpt>
      <trkpt lat="62.04431" lon="17.2407">
        <ele>89.801212</ele>
        <time>2020-10-08T07:52:14.853Z</time>
      </trkpt>
      <trkpt lat="62.04374" lon="17.24354">
        <ele>98.943689</ele>
        <time>2020-10-08T07:53:56.838Z</time>
      </trkpt>
      <trkpt lat="62.04254" lon="17.24352">
        <ele>111.553233</ele>
        <time>2020-10-08T07:55:35.846Z</time>
      </trkpt>
      <trkpt lat="62.04056" lon="17.24258">
        <ele>127.968859</ele>
        <time>2020-10-08T07:57:02.877Z</time>
      </trkpt>
      <trkpt lat="62.03858" lon="17.2416">
        <ele>132.189455</ele>
        <time>2020-10-08T07:58:26.844Z</time>
      </trkpt>
      <trkpt lat="62.0369" lon="17.24331">
        <ele>129.498558</ele>
        <time>2020-10-08T07:59:41.849Z</time>
      </trkpt>
      <trkpt lat="62.03508" lon="17.24536">
        <ele>123.023886</ele>
        <time>2020-10-08T08:00:57.833Z</time>
      </trkpt>
      <trkpt lat="62.03293" lon="17.24739">
        <ele>116.587965</ele>
        <time>2020-10-08T08:02:02.830Z</time>
      </trkpt>
      <trkpt lat="62.03071" lon="17.24673">
        <ele>122.216548</ele>
        <time>2020-10-08T08:03:06.846Z</time>
      </trkpt>
      <trkpt lat="62.0287" lon="17.24611">
        <ele>129.006728</ele>
        <time>2020-10-08T08:04:30.848Z</time>
      </trkpt>
      <trkpt lat="62.02637" lon="17.24531">
        <ele>130.121912</ele>
        <time>2020-10-08T08:05:29.844Z</time>
      </trkpt>
      <trkpt lat="62.02445" lon="17.24602">
        <ele>134.162209</ele>
        <time>2020-10-08T08:06:36.836Z</time>
      </trkpt>
      <trkpt lat="62.02223" lon="17.24678">
        <ele>131.572776</ele>
        <time>2020-10-08T08:07:21.831Z</time>
      </trkpt>
      <trkpt lat="62.02021" lon="17.24519">
        <ele>127.209871</ele>
        <time>2020-10-08T08:08:12.833Z</time>
      </trkpt>
      <trkpt lat="62.01835" lon="17.24264">
        <ele>123.351749</ele>
        <time>2020-10-08T08:09:15.887Z</time>
      </trkpt>
      <trkpt lat="62.01672" lon="17.24011">
        <ele>124.71222</ele>
        <time>2020-10-08T08:10:16.843Z</time>
      </trkpt>
      <trkpt lat="62.01482" lon="17.23687">
        <ele>124.854555</ele>
        <time>2020-10-08T08:11:01.868Z</time>
      </trkpt>
      <trkpt lat="62.01253" lon="17.23653">
        <ele>120.658511</ele>
        <time>2020-10-08T08:11:59.845Z</time>
      </trkpt>
      <trkpt lat="62.01028" lon="17.23655">
        <ele>120.58741</ele>
        <time>2020-10-08T08:12:59.868Z</time>
      </trkpt>
      <trkpt lat="62.00821" lon="17.23577">
        <ele>117.990052</ele>
        <time>2020-10-08T08:14:00.844Z</time>
      </trkpt>
      <trkpt lat="62.00602" lon="17.2359">
        <ele>117.154305</ele>
        <time>2020-10-08T08:14:48.847Z</time>
      </trkpt>
      <trkpt lat="62.00409" lon="17.23442">
        <ele>132.244298</ele>
        <time>2020-10-08T08:16:21.836Z</time>
      </trkpt>
      <trkpt lat="62.00248" lon="17.2368">
        <ele>131.022799</ele>
        <time>2020-10-08T08:18:00.834Z</time>
      </trkpt>
      <trkpt lat="62.00073" lon="17.23913">
        <ele>124.489053</ele>
        <time>2020-10-08T08:19:12.863Z</time>
      </trkpt>
      <trkpt lat="61.9988" lon="17.23878">
        <ele>119.779433</ele>
        <time>2020-10-08T08:20:29.864Z</time>
      </trkpt>
      <trkpt lat="61.99691" lon="17.2385">
        <ele>123.561835</ele>
        <time>2020-10-08T08:21:52.857Z</time>
      </trkpt>
      <trkpt lat="61.99503" lon="17.23626">
        <ele>117.090339</ele>
        <time>2020-10-08T08:24:44.867Z</time>
      </trkpt>
      <trkpt lat="61.99311" lon="17.23492">
        <ele>117.094696</ele>
        <time>2020-10-08T08:25:57.835Z</time>
      </trkpt>
      <trkpt lat="61.99104" lon="17.23651">
        <ele>105.541039</ele>
        <time>2020-10-08T08:26:42.834Z</time>
      </trkpt>
      <trkpt lat="61.98994" lon="17.24012">
        <ele>95.074288</ele>
        <time>2020-10-08T08:27:47.841Z</time>
      </trkpt>
      <trkpt lat="61.98829" lon="17.24291">
        <ele>93.432129</ele>
        <time>2020-10-08T08:28:56.841Z</time>
      </trkpt>
      <trkpt lat="61.98712" lon="17.24696">
        <ele>91.584003</ele>
        <time>2020-10-08T08:29:47.849Z</time>
      </trkpt>
      <trkpt lat="61.98568" lon="17.2508">
        <ele>87.962974</ele>
        <time>2020-10-08T08:30:28.861Z</time>
      </trkpt>
      <trkpt lat="61.98359" lon="17.25101">
        <ele>92.246826</ele>
        <time>2020-10-08T08:31:32.847Z</time>
      </trkpt>
      <trkpt lat="61.98133" lon="17.24912">
        <ele>81.24137</ele>
        <time>2020-10-08T08:32:19.902Z</time>
      </trkpt>
      <trkpt lat="61.97898" lon="17.2493">
        <ele>73.408305</ele>
        <time>2020-10-08T08:33:02.841Z</time>
      </trkpt>
      <trkpt lat="61.97727" lon="17.24648">
        <ele>61.174968</ele>
        <time>2020-10-08T08:33:44.860Z</time>
      </trkpt>
      <trkpt lat="61.97644" lon="17.25089">
        <ele>58.087589</ele>
        <time>2020-10-08T08:34:29.879Z</time>
      </trkpt>
      <trkpt lat="61.97463" lon="17.25203">
        <ele>54.129343</ele>
        <time>2020-10-08T08:35:13.899Z</time>
      </trkpt>
      <trkpt lat="61.97242" lon="17.25129">
        <ele>45.068546</ele>
        <time>2020-10-08T08:35:41.868Z</time>
      </trkpt>
      <trkpt lat="61.97025" lon="17.25106">
        <ele>46.14929</ele>
        <time>2020-10-08T08:36:29.871Z</time>
      </trkpt>
      <trkpt lat="61.96848" lon="17.24885">
        <ele>52.211862</ele>
        <time>2020-10-08T08:37:44.872Z</time>
      </trkpt>
      <trkpt lat="61.9667" lon="17.24906">
        <ele>52.747114</ele>
        <time>2020-10-08T08:38:41.848Z</time>
      </trkpt>
      <trkpt lat="61.96483" lon="17.2469">
        <ele>53.54847</ele>
        <time>2020-10-08T08:39:37.836Z</time>
      </trkpt>
      <trkpt lat="61.96389" lon="17.25025">
        <ele>51.948043</ele>
        <time>2020-10-08T08:40:38.850Z</time>
      </trkpt>
      <trkpt lat="61.96184" lon="17.25356">
        <ele>40.678366</ele>
        <time>2020-10-08T08:41:28.867Z</time>
      </trkpt>
      <trkpt lat="61.95982" lon="17.25369">
        <ele>45.520647</ele>
        <time>2020-10-08T08:42:32.865Z</time>
      </trkpt>
      <trkpt lat="61.95791" lon="17.25251">
        <ele>65.376844</ele>
        <time>2020-10-08T08:44:20.854Z</time>
      </trkpt>
      <trkpt lat="61.95602" lon="17.25182">
        <ele>79.966122</ele>
        <time>2020-10-08T08:46:12.868Z</time>
      </trkpt>
      <trkpt lat="61.9539" lon="17.25185">
        <ele>73.91689</ele>
        <time>2020-10-08T08:47:21.866Z</time>
      </trkpt>
      <trkpt lat="61.95186" lon="17.25175">
        <ele>86.087455</ele>
        <time>2020-10-08T08:48:31.951Z</time>
      </trkpt>
      <trkpt lat="61.94998" lon="17.25359">
        <ele>75.380417</ele>
        <time>2020-10-08T08:49:44.852Z</time>
      </trkpt>
      <trkpt lat="61.94852" lon="17.25705">
        <ele>73.485424</ele>
        <time>2020-10-08T08:50:43.878Z</time>
      </trkpt>
      <trkpt lat="61.94666" lon="17.26084">
        <ele>68.324792</ele>
        <time>2020-10-08T08:51:23.873Z</time>
      </trkpt>
      <trkpt lat="61.94474" lon="17.26345">
        <ele>65.739732</ele>
        <time>2020-10-08T08:52:03.863Z</time>
      </trkpt>
      <trkpt lat="61.94282" lon="17.26589">
        <ele>67.670673</ele>
        <time>2020-10-08T08:52:47.845Z</time>
      </trkpt>
      <trkpt lat="61.94257" lon="17.27014">
        <ele>67.13986</ele>
        <time>2020-10-08T08:53:35.848Z</time>
      </trkpt>
      <trkpt lat="61.94331" lon="17.2753">
        <ele>57.626659</ele>
        <time>2020-10-08T08:54:15.837Z</time>
      </trkpt>
      <trkpt lat="61.94263" lon="17.27926">
        <ele>48.252139</ele>
        <time>2020-10-08T08:54:55.841Z</time>
      </trkpt>
      <trkpt lat="61.94277" lon="17.28405">
        <ele>48.653189</ele>
        <time>2020-10-08T08:55:54.839Z</time>
      </trkpt>
      <trkpt lat="61.94177" lon="17.28694">
        <ele>55.005871</ele>
        <time>2020-10-08T08:57:06.894Z</time>
      </trkpt>
      <trkpt lat="61.93976" lon="17.28506">
        <ele>47.495194</ele>
        <time>2020-10-08T08:57:44.827Z</time>
      </trkpt>
      <trkpt lat="61.93766" lon="17.28303">
        <ele>49.950853</ele>
        <time>2020-10-08T08:58:42.846Z</time>
      </trkpt>
      <trkpt lat="61.93594" lon="17.28048">
        <ele>55.873913</ele>
        <time>2020-10-08T09:00:08.861Z</time>
      </trkpt>
      <trkpt lat="61.93455" lon="17.2773">
        <ele>64.009285</ele>
        <time>2020-10-08T09:01:32.835Z</time>
      </trkpt>
      <trkpt lat="61.93425" lon="17.27303">
        <ele>72.40973</ele>
        <time>2020-10-08T09:02:45.837Z</time>
      </trkpt>
      <trkpt lat="61.93329" lon="17.2687">
        <ele>65.255909</ele>
        <time>2020-10-08T09:03:40.843Z</time>
      </trkpt>
      <trkpt lat="61.93196" lon="17.26413">
        <ele>61.531907</ele>
        <time>2020-10-08T09:04:28.864Z</time>
      </trkpt>
      <trkpt lat="61.93139" lon="17.25953">
        <ele>58.264378</ele>
        <time>2020-10-08T09:05:23.868Z</time>
      </trkpt>
      <trkpt lat="61.93092" lon="17.25464">
        <ele>59.9717</ele>
        <time>2020-10-08T09:06:19.842Z</time>
      </trkpt>
      <trkpt lat="61.93045" lon="17.24992">
        <ele>64.031728</ele>
        <time>2020-10-08T09:07:23.844Z</time>
      </trkpt>
      <trkpt lat="61.92956" lon="17.24491">
        <ele>55.943399</ele>
        <time>2020-10-08T09:08:05.836Z</time>
      </trkpt>
      <trkpt lat="61.92843" lon="17.23969">
        <ele>44.570294</ele>
        <time>2020-10-08T09:08:45.841Z</time>
      </trkpt>
      <trkpt lat="61.92772" lon="17.23617">
        <ele>43.961163</ele>
        <time>2020-10-08T09:09:23.890Z</time>
      </trkpt>
      <trkpt lat="61.9267" lon="17.2354">
        <ele>44.421917</ele>
        <time>2020-10-08T09:10:19.859Z</time>
      </trkpt>
      <trkpt lat="61.92499" lon="17.23806">
        <ele>43.755658</ele>
        <time>2020-10-08T09:11:16.856Z</time>
      </trkpt>
      <trkpt lat="61.9229" lon="17.24008">
        <ele>43.508408</ele>
        <time>2020-10-08T09:12:04.861Z</time>
      </trkpt>
      <trkpt lat="61.92093" lon="17.24125">
        <ele>45.665052</ele>
        <time>2020-10-08T09:12:45.881Z</time>
      </trkpt>
      <trkpt lat="61.91914" lon="17.24401">
        <ele>46.89049</ele>
        <time>2020-10-08T09:13:38.841Z</time>
      </trkpt>
      <trkpt lat="61.91818" lon="17.24814">
        <ele>46.801898</ele>
        <time>2020-10-08T09:14:25.868Z</time>
      </trkpt>
      <trkpt lat="61.91737" lon="17.2521">
        <ele>45.804231</ele>
        <time>2020-10-08T09:15:13.878Z</time>
      </trkpt>
      <trkpt lat="61.91606" lon="17.25593">
        <ele>44.100004</ele>
        <time>2020-10-08T09:16:05.871Z</time>
      </trkpt>
      <trkpt lat="61.91558" lon="17.26041">
        <ele>45.733181</ele>
        <time>2020-10-08T09:17:05.856Z</time>
      </trkpt>
      <trkpt lat="61.91392" lon="17.26336">
        <ele>46.33402</ele>
        <time>2020-10-08T09:17:59.876Z</time>
      </trkpt>
      <trkpt lat="61.91184" lon="17.26536">
        <ele>49.076696</ele>
        <time>2020-10-08T09:18:52.866Z</time>
      </trkpt>
      <trkpt lat="61.90957" lon="17.26677">
        <ele>53.882328</ele>
        <time>2020-10-08T09:19:50.863Z</time>
      </trkpt>
      <trkpt lat="61.90735" lon="17.26723">
        <ele>52.874477</ele>
        <time>2020-10-08T09:20:44.855Z</time>
      </trkpt>
      <trkpt lat="61.90496" lon="17.26847">
        <ele>46.360619</ele>
        <time>2020-10-08T09:21:30.877Z</time>
      </trkpt>
      <trkpt lat="61.90302" lon="17.2706">
        <ele>43.77608</ele>
        <time>2020-10-08T09:22:16.892Z</time>
      </trkpt>
      <trkpt lat="61.90125" lon="17.27339">
        <ele>49.831444</ele>
        <time>2020-10-08T09:23:16.892Z</time>
      </trkpt>
      <trkpt lat="61.89931" lon="17.2756">
        <ele>51.476554</ele>
        <time>2020-10-08T09:24:14.866Z</time>
      </trkpt>
      <trkpt lat="61.89737" lon="17.27893">
        <ele>49.010541</ele>
        <time>2020-10-08T09:25:12.851Z</time>
      </trkpt>
      <trkpt lat="61.89572" lon="17.28116">
        <ele>45.999113</ele>
        <time>2020-10-08T09:25:52.846Z</time>
      </trkpt>
      <trkpt lat="61.89395" lon="17.28373">
        <ele>44.601971</ele>
        <time>2020-10-08T09:26:39.861Z</time>
      </trkpt>
      <trkpt lat="61.89246" lon="17.28701">
        <ele>45.084988</ele>
        <time>2020-10-08T09:27:25.858Z</time>
      </trkpt>
      <trkpt lat="61.89079" lon="17.28941">
        <ele>43.935028</ele>
        <time>2020-10-08T09:28:05.852Z</time>
      </trkpt>
      <trkpt lat="61.88931" lon="17.2926">
        <ele>43.308865</ele>
        <time>2020-10-08T09:28:47.864Z</time>
      </trkpt>
      <trkpt lat="61.88824" lon="17.29626">
        <ele>45.533217</ele>
        <time>2020-10-08T09:29:27.876Z</time>
      </trkpt>
      <trkpt lat="61.88682" lon="17.29972">
        <ele>41.81428</ele>
        <time>2020-10-08T09:30:09.865Z</time>
      </trkpt>
      <trkpt lat="61.88523" lon="17.30338">
        <ele>31.935932</ele>
        <time>2020-10-08T09:30:49.876Z</time>
      </trkpt>
      <trkpt lat="61.88362" lon="17.30555">
        <ele>33.682506</ele>
        <time>2020-10-08T09:31:29.857Z</time>
      </trkpt>
      <trkpt lat="61.88145" lon="17.3068">
        <ele>35.506049</ele>
        <time>2020-10-08T09:32:21.846Z</time>
      </trkpt>
      <trkpt lat="61.87937" lon="17.3079">
        <ele>40.929725</ele>
        <time>2020-10-08T09:33:16.887Z</time>
      </trkpt>
      <trkpt lat="61.87741" lon="17.30967">
        <ele>37.41414</ele>
        <time>2020-10-08T09:33:56.883Z</time>
      </trkpt>
      <trkpt lat="61.87546" lon="17.31146">
        <ele>38.597427</ele>
        <time>2020-10-08T09:34:43.870Z</time>
      </trkpt>
      <trkpt lat="61.87353" lon="17.31401">
        <ele>39.219275</ele>
        <time>2020-10-08T09:35:37.911Z</time>
      </trkpt>
      <trkpt lat="61.87145" lon="17.31449">
        <ele>41.703387</ele>
        <time>2020-10-08T09:36:23.892Z</time>
      </trkpt>
      <trkpt lat="61.86966" lon="17.31538">
        <ele>40.126442</ele>
        <time>2020-10-08T09:37:19.876Z</time>
      </trkpt>
      <trkpt lat="61.86756" lon="17.31322">
        <ele>41.781154</ele>
        <time>2020-10-08T09:38:09.881Z</time>
      </trkpt>
      <trkpt lat="61.86542" lon="17.31237">
        <ele>35.753475</ele>
        <time>2020-10-08T09:38:49.863Z</time>
      </trkpt>
      <trkpt lat="61.86314" lon="17.31196">
        <ele>34.220494</ele>
        <time>2020-10-08T09:39:29.870Z</time>
      </trkpt>
      <trkpt lat="61.8612" lon="17.31145">
        <ele>39.88507</ele>
        <time>2020-10-08T09:40:12.879Z</time>
      </trkpt>
      <trkpt lat="61.85917" lon="17.30915">
        <ele>40.97069</ele>
        <time>2020-10-08T09:41:05.871Z</time>
      </trkpt>
      <trkpt lat="61.85753" lon="17.30668">
        <ele>39.736161</ele>
        <time>2020-10-08T09:41:47.912Z</time>
      </trkpt>
      <trkpt lat="61.85624" lon="17.30334">
        <ele>38.264012</ele>
        <time>2020-10-08T09:42:43.881Z</time>
      </trkpt>
      <trkpt lat="61.85532" lon="17.29881">
        <ele>38.106325</ele>
        <time>2020-10-08T09:43:23.866Z</time>
      </trkpt>
      <trkpt lat="61.85521" lon="17.29427">
        <ele>36.530226</ele>
        <time>2020-10-08T09:44:08.880Z</time>
      </trkpt>
      <trkpt lat="61.85488" lon="17.29011">
        <ele>38.758964</ele>
        <time>2020-10-08T09:44:50.853Z</time>
      </trkpt>
      <trkpt lat="61.85417" lon="17.28586">
        <ele>44.288729</ele>
        <time>2020-10-08T09:45:47.848Z</time>
      </trkpt>
      <trkpt lat="61.85244" lon="17.28299">
        <ele>43.351103</ele>
        <time>2020-10-08T09:46:45.894Z</time>
      </trkpt>
      <trkpt lat="61.85092" lon="17.27993">
        <ele>38.733266</ele>
        <time>2020-10-08T09:47:26.852Z</time>
      </trkpt>
      <trkpt lat="61.84923" lon="17.27727">
        <ele>36.92228</ele>
        <time>2020-10-08T09:48:23.906Z</time>
      </trkpt>
      <trkpt lat="61.84765" lon="17.27423">
        <ele>41.114002</ele>
        <time>2020-10-08T09:49:17.878Z</time>
      </trkpt>
      <trkpt lat="61.84629" lon="17.27048">
        <ele>45.083209</ele>
        <time>2020-10-08T09:50:08.868Z</time>
      </trkpt>
      <trkpt lat="61.84487" lon="17.26673">
        <ele>44.821618</ele>
        <time>2020-10-08T09:51:11.868Z</time>
      </trkpt>
      <trkpt lat="61.84319" lon="17.26441">
        <ele>52.422364</ele>
        <time>2020-10-08T09:52:07.894Z</time>
      </trkpt>
      <trkpt lat="61.84157" lon="17.26202">
        <ele>66.91043</ele>
        <time>2020-10-08T09:53:44.866Z</time>
      </trkpt>
      <trkpt lat="61.83954" lon="17.26168">
        <ele>80.136068</ele>
        <time>2020-10-08T09:55:12.858Z</time>
      </trkpt>
      <trkpt lat="61.83754" lon="17.26349">
        <ele>72.771523</ele>
        <time>2020-10-08T09:56:24.854Z</time>
      </trkpt>
      <trkpt lat="61.83546" lon="17.2648">
        <ele>67.374628</ele>
        <time>2020-10-08T09:57:17.863Z</time>
      </trkpt>
      <trkpt lat="61.83424" lon="17.26087">
        <ele>59.575821</ele>
        <time>2020-10-08T09:57:57.849Z</time>
      </trkpt>
      <trkpt lat="61.83363" lon="17.25675">
        <ele>47.591018</ele>
        <time>2020-10-08T09:58:17.852Z</time>
      </trkpt>
      <trkpt lat="61.8321" lon="17.25414">
        <ele>36.162669</ele>
        <time>2020-10-08T09:58:37.852Z</time>
      </trkpt>
      <trkpt lat="61.8307" lon="17.25033">
        <ele>36.01383</ele>
        <time>2020-10-08T09:59:17.861Z</time>
      </trkpt>
      <trkpt lat="61.83081" lon="17.24619">
        <ele>47.232402</ele>
        <time>2020-10-08T10:00:50.874Z</time>
      </trkpt>
      <trkpt lat="61.83034" lon="17.24213">
        <ele>55.317916</ele>
        <time>2020-10-08T10:02:29.888Z</time>
      </trkpt>
      <trkpt lat="61.82973" lon="17.23836">
        <ele>58.91602</ele>
        <time>2020-10-08T10:03:45.883Z</time>
      </trkpt>
      <trkpt lat="61.83001" lon="17.23379">
        <ele>56.66428</ele>
        <time>2020-10-08T10:04:33.859Z</time>
      </trkpt>
      <trkpt lat="61.82951" lon="17.22966">
        <ele>65.310075</ele>
        <time>2020-10-08T10:05:48.871Z</time>
      </trkpt>
      <trkpt lat="61.82764" lon="17.22792">
        <ele>66.991654</ele>
        <time>2020-10-08T10:06:52.853Z</time>
      </trkpt>
      <trkpt lat="61.82549" lon="17.22746">
        <ele>69.505297</ele>
        <time>2020-10-08T10:07:47.848Z</time>
      </trkpt>
      <trkpt lat="61.8236" lon="17.2251">
        <ele>69.967543</ele>
        <time>2020-10-08T10:08:39.863Z</time>
      </trkpt>
      <trkpt lat="61.82233" lon="17.22118">
        <ele>69.017628</ele>
        <time>2020-10-08T10:09:38.858Z</time>
      </trkpt>
      <trkpt lat="61.82217" lon="17.21674">
        <ele>68.29393</ele>
        <time>2020-10-08T10:10:18.862Z</time>
      </trkpt>
      <trkpt lat="61.82116" lon="17.21178">
        <ele>61.854034</ele>
        <time>2020-10-08T10:10:55.863Z</time>
      </trkpt>
      <trkpt lat="61.81958" lon="17.20885">
        <ele>49.625169</ele>
        <time>2020-10-08T10:11:15.867Z</time>
      </trkpt>
      <trkpt lat="61.81753" lon="17.20658">
        <ele>41.582676</ele>
        <time>2020-10-08T10:11:47.856Z</time>
      </trkpt>
      <trkpt lat="61.81505" lon="17.20716">
        <ele>36.663281</ele>
        <time>2020-10-08T10:12:27.856Z</time>
      </trkpt>
      <trkpt lat="61.81266" lon="17.20663">
        <ele>35.447671</ele>
        <time>2020-10-08T10:13:15.857Z</time>
      </trkpt>
      <trkpt lat="61.81053" lon="17.20653">
        <ele>47.738849</ele>
        <time>2020-10-08T10:14:26.875Z</time>
      </trkpt>
      <trkpt lat="61.80881" lon="17.20896">
        <ele>53.304933</ele>
        <time>2020-10-08T10:15:33.862Z</time>
      </trkpt>
      <trkpt lat="61.80662" lon="17.20949">
        <ele>42.105972</ele>
        <time>2020-10-08T10:16:16.905Z</time>
      </trkpt>
      <trkpt lat="61.80479" lon="17.21048">
        <ele>39.563236</ele>
        <time>2020-10-08T10:17:05.866Z</time>
      </trkpt>
      <trkpt lat="61.80355" lon="17.21475">
        <ele>37.430507</ele>
        <time>2020-10-08T10:17:45.890Z</time>
      </trkpt>
      <trkpt lat="61.80168" lon="17.21771">
        <ele>37.558316</ele>
        <time>2020-10-08T10:18:31.872Z</time>
      </trkpt>
      <trkpt lat="61.8005" lon="17.22153">
        <ele>47.865551</ele>
        <time>2020-10-08T10:19:52.881Z</time>
      </trkpt>
      <trkpt lat="61.79881" lon="17.22392">
        <ele>64.902642</ele>
        <time>2020-10-08T10:21:25.865Z</time>
      </trkpt>
      <trkpt lat="61.79694" lon="17.22381">
        <ele>69.782903</ele>
        <time>2020-10-08T10:38:33.888Z</time>
      </trkpt>
      <trkpt lat="61.79484" lon="17.22345">
        <ele>70.295791</ele>
        <time>2020-10-08T10:39:44.859Z</time>
      </trkpt>
      <trkpt lat="61.79268" lon="17.22493">
        <ele>59.395169</ele>
        <time>2020-10-08T10:40:28.870Z</time>
      </trkpt>
      <trkpt lat="61.79084" lon="17.2287">
        <ele>45.13745</ele>
        <time>2020-10-08T10:41:04.887Z</time>
      </trkpt>
      <trkpt lat="61.79028" lon="17.23302">
        <ele>41.014818</ele>
        <time>2020-10-08T10:41:36.875Z</time>
      </trkpt>
      <trkpt lat="61.78984" lon="17.23777">
        <ele>40.864029</ele>
        <time>2020-10-08T10:42:23.878Z</time>
      </trkpt>
      <trkpt lat="61.78938" lon="17.24241">
        <ele>42.011097</ele>
        <time>2020-10-08T10:43:05.877Z</time>
      </trkpt>
      <trkpt lat="61.78777" lon="17.24645">
        <ele>38.723034</ele>
        <time>2020-10-08T10:43:50.897Z</time>
      </trkpt>
      <trkpt lat="61.78597" lon="17.24928">
        <ele>35.747162</ele>
        <time>2020-10-08T10:44:38.883Z</time>
      </trkpt>
      <trkpt lat="61.78366" lon="17.24767">
        <ele>34.487762</ele>
        <time>2020-10-08T10:45:29.886Z</time>
      </trkpt>
      <trkpt lat="61.78158" lon="17.24636">
        <ele>32.390413</ele>
        <time>2020-10-08T10:46:23.875Z</time>
      </trkpt>
      <trkpt lat="61.77943" lon="17.24517">
        <ele>32.698421</ele>
        <time>2020-10-08T10:47:14.874Z</time>
      </trkpt>
      <trkpt lat="61.77748" lon="17.24343">
        <ele>39.777789</ele>
        <time>2020-10-08T10:48:19.882Z</time>
      </trkpt>
      <trkpt lat="61.77587" lon="17.24065">
        <ele>45.341829</ele>
        <time>2020-10-08T10:49:19.879Z</time>
      </trkpt>
      <trkpt lat="61.77388" lon="17.23885">
        <ele>43.37916</ele>
        <time>2020-10-08T10:50:18.888Z</time>
      </trkpt>
      <trkpt lat="61.77248" lon="17.23568">
        <ele>39.738947</ele>
        <time>2020-10-08T10:51:01.878Z</time>
      </trkpt>
      <trkpt lat="61.7706" lon="17.23302">
        <ele>32.593048</ele>
        <time>2020-10-08T10:51:41.876Z</time>
      </trkpt>
      <trkpt lat="61.76875" lon="17.23074">
        <ele>33.14623</ele>
        <time>2020-10-08T10:52:29.877Z</time>
      </trkpt>
      <trkpt lat="61.76691" lon="17.22874">
        <ele>45.857172</ele>
        <time>2020-10-08T10:53:52.919Z</time>
      </trkpt>
      <trkpt lat="61.76529" lon="17.22627">
        <ele>57.70359</ele>
        <time>2020-10-08T10:55:42.866Z</time>
      </trkpt>
      <trkpt lat="61.76404" lon="17.2231">
        <ele>58.060644</ele>
        <time>2020-10-08T10:56:41.885Z</time>
      </trkpt>
      <trkpt lat="61.76387" lon="17.21878">
        <ele>59.294776</ele>
        <time>2020-10-08T10:57:52.897Z</time>
      </trkpt>
      <trkpt lat="61.76378" lon="17.21438">
        <ele>64.936554</ele>
        <time>2020-10-08T10:59:05.881Z</time>
      </trkpt>
      <trkpt lat="61.76386" lon="17.21015">
        <ele>68.994728</ele>
        <time>2020-10-08T11:00:10.885Z</time>
      </trkpt>
      <trkpt lat="61.76398" lon="17.20559">
        <ele>70.022245</ele>
        <time>2020-10-08T11:01:11.899Z</time>
      </trkpt>
      <trkpt lat="61.76426" lon="17.20132">
        <ele>70.25761</ele>
        <time>2020-10-08T11:02:00.879Z</time>
      </trkpt>
      <trkpt lat="61.76471" lon="17.1968">
        <ele>69.803781</ele>
        <time>2020-10-08T11:02:49.889Z</time>
      </trkpt>
      <trkpt lat="61.76514" lon="17.19186">
        <ele>65.1989</ele>
        <time>2020-10-08T11:03:22.916Z</time>
      </trkpt>
      <trkpt lat="61.76441" lon="17.18666">
        <ele>57.213848</ele>
        <time>2020-10-08T11:05:15.879Z</time>
      </trkpt>
      <trkpt lat="61.76466" lon="17.18247">
        <ele>57.754197</ele>
        <time>2020-10-08T11:06:23.873Z</time>
      </trkpt>
      <trkpt lat="61.76504" lon="17.17814">
        <ele>56.786937</ele>
        <time>2020-10-08T11:07:23.880Z</time>
      </trkpt>
      <trkpt lat="61.76586" lon="17.17417">
        <ele>60.686927</ele>
        <time>2020-10-08T11:08:41.880Z</time>
      </trkpt>
      <trkpt lat="61.76528" lon="17.17011">
        <ele>65.428287</ele>
        <time>2020-10-08T11:09:53.902Z</time>
      </trkpt>
      <trkpt lat="61.76576" lon="17.16604">
        <ele>75.095128</ele>
        <time>2020-10-08T11:11:41.902Z</time>
      </trkpt>
      <trkpt lat="61.76694" lon="17.1631">
        <ele>83.798914</ele>
        <time>2020-10-08T11:13:35.884Z</time>
      </trkpt>
      <trkpt lat="61.76715" lon="17.15886">
        <ele>91.223469</ele>
        <time>2020-10-08T11:15:14.896Z</time>
      </trkpt>
      <trkpt lat="61.76745" lon="17.15447">
        <ele>103.654059</ele>
        <time>2020-10-08T11:16:45.886Z</time>
      </trkpt>
      <trkpt lat="61.76754" lon="17.15">
        <ele>102.481615</ele>
        <time>2020-10-08T11:17:52.872Z</time>
      </trkpt>
      <trkpt lat="61.76638" lon="17.14723">
        <ele>96.96412</ele>
        <time>2020-10-08T11:18:51.906Z</time>
      </trkpt>
      <trkpt lat="61.76531" lon="17.14456">
        <ele>85.177638</ele>
        <time>2020-10-08T11:19:40.873Z</time>
      </trkpt>
      <trkpt lat="61.76507" lon="17.14014">
        <ele>79.82252</ele>
        <time>2020-10-08T11:20:41.874Z</time>
      </trkpt>
      <trkpt lat="61.7649" lon="17.13578">
        <ele>71.239359</ele>
        <time>2020-10-08T11:21:29.878Z</time>
      </trkpt>
      <trkpt lat="61.76461" lon="17.13125">
        <ele>57.869301</ele>
        <time>2020-10-08T11:22:16.882Z</time>
      </trkpt>
      <trkpt lat="61.76311" lon="17.12835">
        <ele>65.895301</ele>
        <time>2020-10-08T11:23:50.880Z</time>
      </trkpt>
      <trkpt lat="61.76171" lon="17.12489">
        <ele>66.077897</ele>
        <time>2020-10-08T11:25:11.884Z</time>
      </trkpt>
      <trkpt lat="61.76002" lon="17.12206">
        <ele>56.091218</ele>
        <time>2020-10-08T11:26:03.890Z</time>
      </trkpt>
      <trkpt lat="61.75766" lon="17.12157">
        <ele>49.436513</ele>
        <time>2020-10-08T11:27:03.896Z</time>
      </trkpt>
      <trkpt lat="61.75555" lon="17.12109">
        <ele>56.928814</ele>
        <time>2020-10-08T11:28:15.889Z</time>
      </trkpt>
      <trkpt lat="61.75353" lon="17.1205">
        <ele>68.922937</ele>
        <time>2020-10-08T11:29:35.881Z</time>
      </trkpt>
      <trkpt lat="61.75182" lon="17.12254">
        <ele>72.989436</ele>
        <time>2020-10-08T11:30:39.905Z</time>
      </trkpt>
      <trkpt lat="61.75049" lon="17.12528">
        <ele>72.972531</ele>
        <time>2020-10-08T11:31:41.945Z</time>
      </trkpt>
      <trkpt lat="61.74844" lon="17.12581">
        <ele>63.983034</ele>
        <time>2020-10-08T11:32:25.874Z</time>
      </trkpt>
      <trkpt lat="61.7464" lon="17.1264">
        <ele>59.029258</ele>
        <time>2020-10-08T11:33:07.885Z</time>
      </trkpt>
      <trkpt lat="61.74436" lon="17.1248">
        <ele>60.575182</ele>
        <time>2020-10-08T11:34:00.907Z</time>
      </trkpt>
      <trkpt lat="61.74253" lon="17.12212">
        <ele>64.555176</ele>
        <time>2020-10-08T11:34:54.893Z</time>
      </trkpt>
      <trkpt lat="61.74077" lon="17.12023">
        <ele>67.245457</ele>
        <time>2020-10-08T11:35:58.892Z</time>
      </trkpt>
      <trkpt lat="61.73951" lon="17.11809">
        <ele>52.560877</ele>
        <time>2020-10-08T11:36:39.873Z</time>
      </trkpt>
      <trkpt lat="61.73963" lon="17.1124">
        <ele>43.513881</ele>
        <time>2020-10-08T11:37:19.910Z</time>
      </trkpt>
      <trkpt lat="61.73945" lon="17.10778">
        <ele>43.936335</ele>
        <time>2020-10-08T11:37:59.915Z</time>
      </trkpt>
      <trkpt lat="61.73828" lon="17.10495">
        <ele>43.765035</ele>
        <time>2020-10-08T11:39:00.886Z</time>
      </trkpt>
      <trkpt lat="61.73635" lon="17.1027">
        <ele>43.359029</ele>
        <time>2020-10-08T11:39:49.892Z</time>
      </trkpt>
      <trkpt lat="61.73444" lon="17.10174">
        <ele>41.979948</ele>
        <time>2020-10-08T11:40:32.896Z</time>
      </trkpt>
      <trkpt lat="61.73276" lon="17.10388">
        <ele>37.986419</ele>
        <time>2020-10-08T11:41:37.884Z</time>
      </trkpt>
      <trkpt lat="61.7304" lon="17.10519">
        <ele>34.273833</ele>
        <time>2020-10-08T11:42:37.886Z</time>
      </trkpt>
      <trkpt lat="61.72864" lon="17.10703">
        <ele>39.851159</ele>
        <time>2020-10-08T11:43:40.922Z</time>
      </trkpt>
      <trkpt lat="61.72701" lon="17.1079">
        <ele>45.662339</ele>
        <time>2020-10-08T11:49:09.921Z</time>
      </trkpt>
      <trkpt lat="61.72488" lon="17.1075">
        <ele>40.187039</ele>
        <time>2020-10-08T11:50:10.892Z</time>
      </trkpt>
      <trkpt lat="61.72302" lon="17.10575">
        <ele>49.429372</ele>
        <time>2020-10-08T11:51:41.897Z</time>
      </trkpt>
      <trkpt lat="61.72148" lon="17.10464">
        <ele>51.227381</ele>
        <time>2020-10-08T11:53:00.886Z</time>
      </trkpt>
      <trkpt lat="61.7193" lon="17.10198">
        <ele>41.694473</ele>
        <time>2020-10-08T11:53:50.940Z</time>
      </trkpt>
      <trkpt lat="61.71919" lon="17.09789">
        <ele>43.715693</ele>
        <time>2020-10-08T11:55:02.874Z</time>
      </trkpt>
      <trkpt lat="61.7173" lon="17.09568">
        <ele>43.72307</ele>
        <time>2020-10-08T12:00:00.884Z</time>
      </trkpt>
      <trkpt lat="61.71587" lon="17.09278">
        <ele>42.495098</ele>
        <time>2020-10-08T12:01:02.890Z</time>
      </trkpt>
      <trkpt lat="61.7144" lon="17.0895">
        <ele>42.585466</ele>
        <time>2020-10-08T12:01:51.883Z</time>
      </trkpt>
      <trkpt lat="61.71308" lon="17.08575">
        <ele>39.703691</ele>
        <time>2020-10-08T12:02:48.908Z</time>
      </trkpt>
      <trkpt lat="61.71214" lon="17.08194">
        <ele>43.362724</ele>
        <time>2020-10-08T12:03:56.884Z</time>
      </trkpt>
      <trkpt lat="61.71195" lon="17.07768">
        <ele>49.856984</ele>
        <time>2020-10-08T12:05:15.915Z</time>
      </trkpt>
      <trkpt lat="61.71119" lon="17.07373">
        <ele>50.525014</ele>
        <time>2020-10-08T12:06:25.893Z</time>
      </trkpt>
      <trkpt lat="61.71056" lon="17.07016">
        <ele>61.949407</ele>
        <time>2020-10-08T12:07:35.885Z</time>
      </trkpt>
      <trkpt lat="61.71105" lon="17.06706">
        <ele>68.444827</ele>
        <time>2020-10-08T12:09:18.902Z</time>
      </trkpt>
      <trkpt lat="61.71278" lon="17.06422">
        <ele>68.318304</ele>
        <time>2020-10-08T12:12:01.941Z</time>
      </trkpt>
      <trkpt lat="61.7147" lon="17.06285">
        <ele>67.971818</ele>
        <time>2020-10-08T12:13:06.897Z</time>
      </trkpt>
      <trkpt lat="61.71491" lon="17.05863">
        <ele>67.128969</ele>
        <time>2020-10-08T12:14:06.912Z</time>
      </trkpt>
      <trkpt lat="61.71472" lon="17.05455">
        <ele>76.042114</ele>
        <time>2020-10-08T12:15:06.898Z</time>
      </trkpt>
      <trkpt lat="61.7145" lon="17.05046">
        <ele>76.688875</ele>
        <time>2020-10-08T12:16:06.888Z</time>
      </trkpt>
      <trkpt lat="61.71424" lon="17.04591">
        <ele>75.473679</ele>
        <time>2020-10-08T12:17:10.897Z</time>
      </trkpt>
      <trkpt lat="61.71461" lon="17.04116">
        <ele>76.667762</ele>
        <time>2020-10-08T12:18:04.892Z</time>
      </trkpt>
      <trkpt lat="61.71542" lon="17.03725">
        <ele>75.409149</ele>
        <time>2020-10-08T12:18:45.898Z</time>
      </trkpt>
      <trkpt lat="61.71672" lon="17.03297">
        <ele>77.826544</ele>
        <time>2020-10-08T12:19:45.893Z</time>
      </trkpt>
      <trkpt lat="61.71791" lon="17.02915">
        <ele>82.262489</ele>
        <time>2020-10-08T12:20:45.906Z</time>
      </trkpt>
      <trkpt lat="61.71906" lon="17.0252">
        <ele>86.288934</ele>
        <time>2020-10-08T12:21:45.940Z</time>
      </trkpt>
      <trkpt lat="61.72016" lon="17.02106">
        <ele>88.622965</ele>
        <time>2020-10-08T12:22:45.897Z</time>
      </trkpt>
      <trkpt lat="61.72127" lon="17.01672">
        <ele>92.637972</ele>
        <time>2020-10-08T12:23:45.913Z</time>
      </trkpt>
      <trkpt lat="61.72233" lon="17.01239">
        <ele>96.748713</ele>
        <time>2020-10-08T12:24:45.907Z</time>
      </trkpt>
      <trkpt lat="61.72306" lon="17.0078">
        <ele>103.287195</ele>
        <time>2020-10-08T12:25:41.895Z</time>
      </trkpt>
      <trkpt lat="61.72309" lon="17.00359">
        <ele>102.602058</ele>
        <time>2020-10-08T12:26:24.884Z</time>
      </trkpt>
      <trkpt lat="61.72278" lon="16.99931">
        <ele>96.555929</ele>
        <time>2020-10-08T12:27:07.887Z</time>
      </trkpt>
      <trkpt lat="61.72258" lon="16.99411">
        <ele>94.800892</ele>
        <time>2020-10-08T12:27:47.892Z</time>
      </trkpt>
      <trkpt lat="61.72296" lon="16.9882">
        <ele>87.377596</ele>
        <time>2020-10-08T12:28:20.894Z</time>
      </trkpt>
      <trkpt lat="61.72403" lon="16.98372">
        <ele>81.002566</ele>
        <time>2020-10-08T12:28:58.897Z</time>
      </trkpt>
      <trkpt lat="61.7227" lon="16.97994">
        <ele>86.477272</ele>
        <time>2020-10-08T12:29:58.926Z</time>
      </trkpt>
      <trkpt lat="61.72089" lon="16.97774">
        <ele>88.100012</ele>
        <time>2020-10-08T12:31:14.916Z</time>
      </trkpt>
      <trkpt lat="61.71987" lon="16.97353">
        <ele>84.252752</ele>
        <time>2020-10-08T12:32:01.892Z</time>
      </trkpt>
      <trkpt lat="61.71851" lon="16.96956">
        <ele>79.782531</ele>
        <time>2020-10-08T12:32:46.886Z</time>
      </trkpt>
      <trkpt lat="61.71665" lon="16.96755">
        <ele>73.117223</ele>
        <time>2020-10-08T12:33:29.946Z</time>
      </trkpt>
      <trkpt lat="61.71464" lon="16.96525">
        <ele>70.619661</ele>
        <time>2020-10-08T12:34:09.893Z</time>
      </trkpt>
      <trkpt lat="61.71293" lon="16.96254">
        <ele>77.863621</ele>
        <time>2020-10-08T12:35:13.905Z</time>
      </trkpt>
      <trkpt lat="61.7123" lon="16.95825">
        <ele>75.21525</ele>
        <time>2020-10-08T12:36:03.890Z</time>
      </trkpt>
      <trkpt lat="61.71063" lon="16.95453">
        <ele>69.277666</ele>
        <time>2020-10-08T12:36:48.909Z</time>
      </trkpt>
      <trkpt lat="61.70957" lon="16.9507">
        <ele>71.47381</ele>
        <time>2020-10-08T12:37:38.892Z</time>
      </trkpt>
      <trkpt lat="61.70781" lon="16.9479">
        <ele>74.192992</ele>
        <time>2020-10-08T12:38:38.890Z</time>
      </trkpt>
      <trkpt lat="61.70609" lon="16.9458">
        <ele>82.374658</ele>
        <time>2020-10-08T12:40:10.897Z</time>
      </trkpt>
      <trkpt lat="61.70408" lon="16.94285">
        <ele>79.428749</ele>
        <time>2020-10-08T12:41:03.901Z</time>
      </trkpt>
      <trkpt lat="61.70292" lon="16.93934">
        <ele>83.777749</ele>
        <time>2020-10-08T12:42:15.933Z</time>
      </trkpt>
      <trkpt lat="61.70142" lon="16.93686">
        <ele>91.513976</ele>
        <time>2020-10-08T12:43:44.909Z</time>
      </trkpt>
      <trkpt lat="61.69987" lon="16.93273">
        <ele>85.155026</ele>
        <time>2020-10-08T12:44:21.906Z</time>
      </trkpt>
      <trkpt lat="61.6977" lon="16.93156">
        <ele>69.263653</ele>
        <time>2020-10-08T12:44:52.951Z</time>
      </trkpt>
      <trkpt lat="61.69564" lon="16.93168">
        <ele>64.472538</ele>
        <time>2020-10-08T12:45:32.912Z</time>
      </trkpt>
      <trkpt lat="61.69417" lon="16.92864">
        <ele>67.267715</ele>
        <time>2020-10-08T12:46:12.889Z</time>
      </trkpt>
      <trkpt lat="61.69331" lon="16.92474">
        <ele>74.004202</ele>
        <time>2020-10-08T12:47:49.908Z</time>
      </trkpt>
      <trkpt lat="61.69136" lon="16.92307">
        <ele>83.852029</ele>
        <time>2020-10-08T12:49:12.928Z</time>
      </trkpt>
      <trkpt lat="61.68931" lon="16.92194">
        <ele>89.536859</ele>
        <time>2020-10-08T12:50:20.893Z</time>
      </trkpt>
      <trkpt lat="61.68721" lon="16.92207">
        <ele>92.620532</ele>
        <time>2020-10-08T12:51:16.908Z</time>
      </trkpt>
      <trkpt lat="61.68498" lon="16.92373">
        <ele>86.506923</ele>
        <time>2020-10-08T12:52:07.903Z</time>
      </trkpt>
      <trkpt lat="61.68277" lon="16.92462">
        <ele>77.573574</ele>
        <time>2020-10-08T12:52:48.973Z</time>
      </trkpt>
      <trkpt lat="61.68051" lon="16.92522">
        <ele>79.777264</ele>
        <time>2020-10-08T12:53:34.907Z</time>
      </trkpt>
      <trkpt lat="61.67814" lon="16.92376">
        <ele>73.997888</ele>
        <time>2020-10-08T12:54:10.916Z</time>
      </trkpt>
      <trkpt lat="61.67603" lon="16.92412">
        <ele>71.358968</ele>
        <time>2020-10-08T12:55:17.889Z</time>
      </trkpt>
      <trkpt lat="61.6737" lon="16.92233">
        <ele>71.557359</ele>
        <time>2020-10-08T12:56:02.944Z</time>
      </trkpt>
      <trkpt lat="61.67176" lon="16.9221">
        <ele>74.173949</ele>
        <time>2020-10-08T12:57:08.891Z</time>
      </trkpt>
      <trkpt lat="61.66949" lon="16.92359">
        <ele>68.159705</ele>
        <time>2020-10-08T12:57:47.899Z</time>
      </trkpt>
      <trkpt lat="61.66705" lon="16.92514">
        <ele>60.146654</ele>
        <time>2020-10-08T12:58:27.897Z</time>
      </trkpt>
      <trkpt lat="61.6651" lon="16.92641">
        <ele>62.934887</ele>
        <time>2020-10-08T12:59:13.908Z</time>
      </trkpt>
      <trkpt lat="61.66295" lon="16.92629">
        <ele>66.480668</ele>
        <time>2020-10-08T13:00:09.929Z</time>
      </trkpt>
      <trkpt lat="61.66055" lon="16.92558">
        <ele>61.536428</ele>
        <time>2020-10-08T13:01:01.912Z</time>
      </trkpt>
      <trkpt lat="61.65858" lon="16.92602">
        <ele>60.302467</ele>
        <time>2020-10-08T13:01:41.893Z</time>
      </trkpt>
      <trkpt lat="61.65669" lon="16.92567">
        <ele>75.322362</ele>
        <time>2020-10-08T13:02:59.903Z</time>
      </trkpt>
      <trkpt lat="61.65461" lon="16.92568">
        <ele>81.392609</ele>
        <time>2020-10-08T13:04:25.905Z</time>
      </trkpt>
      <trkpt lat="61.65265" lon="16.92456">
        <ele>82.469196</ele>
        <time>2020-10-08T13:05:23.903Z</time>
      </trkpt>
      <trkpt lat="61.65053" lon="16.92281">
        <ele>92.457186</ele>
        <time>2020-10-08T13:06:16.896Z</time>
      </trkpt>
      <trkpt lat="61.64851" lon="16.92083">
        <ele>92.294632</ele>
        <time>2020-10-08T13:22:48.912Z</time>
      </trkpt>
      <trkpt lat="61.64673" lon="16.91946">
        <ele>102.991414</ele>
        <time>2020-10-08T13:24:55.905Z</time>
      </trkpt>
      <trkpt lat="61.64503" lon="16.9177">
        <ele>111.665468</ele>
        <time>2020-10-08T13:26:50.975Z</time>
      </trkpt>
      <trkpt lat="61.64317" lon="16.91648">
        <ele>119.806314</ele>
        <time>2020-10-08T13:28:32.931Z</time>
      </trkpt>
      <trkpt lat="61.64157" lon="16.91393">
        <ele>130.139519</ele>
        <time>2020-10-08T13:30:05.917Z</time>
      </trkpt>
      <trkpt lat="61.64004" lon="16.91121">
        <ele>136.342647</ele>
        <time>2020-10-08T13:31:24.907Z</time>
      </trkpt>
      <trkpt lat="61.63788" lon="16.90727">
        <ele>125.111833</ele>
        <time>2020-10-08T13:32:02.950Z</time>
      </trkpt>
      <trkpt lat="61.63583" lon="16.90737">
        <ele>124.447696</ele>
        <time>2020-10-08T13:32:50.898Z</time>
      </trkpt>
      <trkpt lat="61.63384" lon="16.9092">
        <ele>110.773536</ele>
        <time>2020-10-08T13:33:16.925Z</time>
      </trkpt>
      <trkpt lat="61.63169" lon="16.90798">
        <ele>110.988804</ele>
        <time>2020-10-08T13:34:14.911Z</time>
      </trkpt>
      <trkpt lat="61.62952" lon="16.90673">
        <ele>126.318733</ele>
        <time>2020-10-08T13:35:16.901Z</time>
      </trkpt>
      <trkpt lat="61.62758" lon="16.9086">
        <ele>131.204512</ele>
        <time>2020-10-08T13:36:14.923Z</time>
      </trkpt>
      <trkpt lat="61.6256" lon="16.91074">
        <ele>129.441131</ele>
        <time>2020-10-08T13:37:08.941Z</time>
      </trkpt>
      <trkpt lat="61.62372" lon="16.91055">
        <ele>134.23385</ele>
        <time>2020-10-08T13:38:23.913Z</time>
      </trkpt>
      <trkpt lat="61.62125" lon="16.90914">
        <ele>121.5043</ele>
        <time>2020-10-08T13:39:08.949Z</time>
      </trkpt>
      <trkpt lat="61.61903" lon="16.90942">
        <ele>111.771654</ele>
        <time>2020-10-08T13:39:51.915Z</time>
      </trkpt>
      <trkpt lat="61.61653" lon="16.90802">
        <ele>99.294787</ele>
        <time>2020-10-08T13:40:21.927Z</time>
      </trkpt>
      <trkpt lat="61.61426" lon="16.91">
        <ele>88.268293</ele>
        <time>2020-10-08T13:41:06.908Z</time>
      </trkpt>
      <trkpt lat="61.6127" lon="16.91229">
        <ele>89.229757</ele>
        <time>2020-10-08T13:41:49.895Z</time>
      </trkpt>
      <trkpt lat="61.61122" lon="16.91541">
        <ele>89.007535</ele>
        <time>2020-10-08T13:42:29.916Z</time>
      </trkpt>
      <trkpt lat="61.60968" lon="16.91235">
        <ele>92.117728</ele>
        <time>2020-10-08T13:43:31.913Z</time>
      </trkpt>
      <trkpt lat="61.60786" lon="16.91039">
        <ele>99.103222</ele>
        <time>2020-10-08T13:44:35.944Z</time>
      </trkpt>
      <trkpt lat="61.60595" lon="16.90932">
        <ele>111.733306</ele>
        <time>2020-10-08T13:45:53.918Z</time>
      </trkpt>
      <trkpt lat="61.60397" lon="16.90953">
        <ele>97.584065</ele>
        <time>2020-10-08T13:46:27.904Z</time>
      </trkpt>
      <trkpt lat="61.60185" lon="16.90864">
        <ele>92.936877</ele>
        <time>2020-10-08T13:47:34.907Z</time>
      </trkpt>
      <trkpt lat="61.59963" lon="16.91082">
        <ele>98.341357</ele>
        <time>2020-10-08T13:50:16.942Z</time>
      </trkpt>
      <trkpt lat="61.59796" lon="16.91356">
        <ele>90.570684</ele>
        <time>2020-10-08T13:51:10.911Z</time>
      </trkpt>
      <trkpt lat="61.59642" lon="16.91665">
        <ele>91.130002</ele>
        <time>2020-10-08T13:51:57.907Z</time>
      </trkpt>
      <trkpt lat="61.59556" lon="16.92037">
        <ele>92.072905</ele>
        <time>2020-10-08T13:52:56.916Z</time>
      </trkpt>
      <trkpt lat="61.59388" lon="16.92254">
        <ele>93.881082</ele>
        <time>2020-10-08T13:53:56.939Z</time>
      </trkpt>
      <trkpt lat="61.5923" lon="16.92386">
        <ele>91.23702</ele>
        <time>2020-10-08T13:54:45.927Z</time>
      </trkpt>
      <trkpt lat="61.59162" lon="16.92848">
        <ele>75.098977</ele>
        <time>2020-10-08T13:55:29.908Z</time>
      </trkpt>
      <trkpt lat="61.5924" lon="16.93253">
        <ele>74.102628</ele>
        <time>2020-10-08T13:56:25.926Z</time>
      </trkpt>
      <trkpt lat="61.59099" lon="16.93427">
        <ele>75.003745</ele>
        <time>2020-10-08T13:57:26.923Z</time>
      </trkpt>
      <trkpt lat="61.58866" lon="16.93509">
        <ele>74.053737</ele>
        <time>2020-10-08T13:58:32.923Z</time>
      </trkpt>
      <trkpt lat="61.58719" lon="16.93747">
        <ele>89.854487</ele>
        <time>2020-10-08T14:00:30.909Z</time>
      </trkpt>
      <trkpt lat="61.58558" lon="16.93939">
        <ele>110.758369</ele>
        <time>2020-10-08T14:03:01.963Z</time>
      </trkpt>
      <trkpt lat="61.58427" lon="16.94247">
        <ele>121.799271</ele>
        <time>2020-10-08T14:04:25.924Z</time>
      </trkpt>
      <trkpt lat="61.58346" lon="16.94636">
        <ele>120.319242</ele>
        <time>2020-10-08T14:05:28.912Z</time>
      </trkpt>
      <trkpt lat="61.58171" lon="16.94892">
        <ele>116.615827</ele>
        <time>2020-10-08T14:06:25.929Z</time>
      </trkpt>
      <trkpt lat="61.58076" lon="16.95299">
        <ele>113.429726</ele>
        <time>2020-10-08T14:07:04.917Z</time>
      </trkpt>
      <trkpt lat="61.5785" lon="16.95487">
        <ele>105.15918</ele>
        <time>2020-10-08T14:07:44.908Z</time>
      </trkpt>
      <trkpt lat="61.57631" lon="16.95653">
        <ele>104.375097</ele>
        <time>2020-10-08T14:08:41.933Z</time>
      </trkpt>
      <trkpt lat="61.57458" lon="16.96009">
        <ele>102.710019</ele>
        <time>2020-10-08T14:09:27.930Z</time>
      </trkpt>
      <trkpt lat="61.57314" lon="16.96358">
        <ele>90.714857</ele>
        <time>2020-10-08T14:09:53.930Z</time>
      </trkpt>
      <trkpt lat="61.57137" lon="16.9666">
        <ele>86.128453</ele>
        <time>2020-10-08T14:10:24.915Z</time>
      </trkpt>
      <trkpt lat="61.5697" lon="16.96909">
        <ele>92.718219</ele>
        <time>2020-10-08T14:11:36.902Z</time>
      </trkpt>
      <trkpt lat="61.56732" lon="16.97134">
        <ele>83.888739</ele>
        <time>2020-10-08T14:12:16.960Z</time>
      </trkpt>
      <trkpt lat="61.56478" lon="16.97212">
        <ele>74.628014</ele>
        <time>2020-10-08T14:12:58.965Z</time>
      </trkpt>
      <trkpt lat="61.56266" lon="16.97139">
        <ele>86.222027</ele>
        <time>2020-10-08T14:14:13.948Z</time>
      </trkpt>
      <trkpt lat="61.5607" lon="16.97065">
        <ele>96.992055</ele>
        <time>2020-10-08T14:15:37.911Z</time>
      </trkpt>
      <trkpt lat="61.55869" lon="16.9686">
        <ele>97.634513</ele>
        <time>2020-10-08T14:16:34.921Z</time>
      </trkpt>
      <trkpt lat="61.55657" lon="16.9661">
        <ele>88.697622</ele>
        <time>2020-10-08T14:17:26.967Z</time>
      </trkpt>
      <trkpt lat="61.55445" lon="16.96564">
        <ele>88.867183</ele>
        <time>2020-10-08T14:18:16.960Z</time>
      </trkpt>
      <trkpt lat="61.55192" lon="16.96725">
        <ele>80.415887</ele>
        <time>2020-10-08T14:18:56.915Z</time>
      </trkpt>
      <trkpt lat="61.55053" lon="16.97137">
        <ele>74.407836</ele>
        <time>2020-10-08T14:19:37.920Z</time>
      </trkpt>
      <trkpt lat="61.5515" lon="16.97503">
        <ele>73.784599</ele>
        <time>2020-10-08T14:20:39.972Z</time>
      </trkpt>
      <trkpt lat="61.55199" lon="16.97924">
        <ele>75.366446</ele>
        <time>2020-10-08T14:21:28.924Z</time>
      </trkpt>
      <trkpt lat="61.55186" lon="16.98481">
        <ele>64.550682</ele>
        <time>2020-10-08T14:22:03.911Z</time>
      </trkpt>
      <trkpt lat="61.55125" lon="16.9906">
        <ele>57.30431</ele>
        <time>2020-10-08T14:22:42.927Z</time>
      </trkpt>
      <trkpt lat="61.55003" lon="16.99475">
        <ele>55.000462</ele>
        <time>2020-10-08T14:23:29.969Z</time>
      </trkpt>
      <trkpt lat="61.54897" lon="16.9985">
        <ele>59.178344</ele>
        <time>2020-10-08T14:24:39.940Z</time>
      </trkpt>
      <trkpt lat="61.54789" lon="17.00241">
        <ele>60.195911</ele>
        <time>2020-10-08T14:25:41.925Z</time>
      </trkpt>
      <trkpt lat="61.54824" lon="17.00719">
        <ele>57.916383</ele>
        <time>2020-10-08T14:26:29.941Z</time>
      </trkpt>
      <trkpt lat="61.54813" lon="17.01232">
        <ele>50.882549</ele>
        <time>2020-10-08T14:27:09.912Z</time>
      </trkpt>
      <trkpt lat="61.54693" lon="17.01608">
        <ele>47.336386</ele>
        <time>2020-10-08T14:27:51.952Z</time>
      </trkpt>
      <trkpt lat="61.54626" lon="17.02058">
        <ele>41.842482</ele>
        <time>2020-10-08T14:28:36.941Z</time>
      </trkpt>
      <trkpt lat="61.54705" lon="17.02498">
        <ele>38.331085</ele>
        <time>2020-10-08T14:29:16.913Z</time>
      </trkpt>
      <trkpt lat="61.54897" lon="17.02764">
        <ele>42.713605</ele>
        <time>2020-10-08T14:30:09.915Z</time>
      </trkpt>
      <trkpt lat="61.55002" lon="17.03175">
        <ele>44.283385</ele>
        <time>2020-10-08T14:31:00.925Z</time>
      </trkpt>
      <trkpt lat="61.55066" lon="17.03605">
        <ele>42.281571</ele>
        <time>2020-10-08T14:31:50.914Z</time>
      </trkpt>
      <trkpt lat="61.55017" lon="17.04053">
        <ele>48.899195</ele>
        <time>2020-10-08T14:32:43.942Z</time>
      </trkpt>
      <trkpt lat="61.54881" lon="17.04318">
        <ele>40.632567</ele>
        <time>2020-10-08T14:33:30.912Z</time>
      </trkpt>
    </trkseg>
  </trk>
  <trk>
    <name><![CDATA[Tour d'Europe: étape 103]]></name>
    <trkseg>
      <trkpt lat="61.54885" lon="17.04364">
        <ele>35.670077</ele>
        <time>2020-10-09T08:03:29.697Z</time>
      </trkpt>
      <trkpt lat="61.55024" lon="17.0408">
        <ele>45.342234</ele>
        <time>2020-10-09T08:04:52.688Z</time>
      </trkpt>
      <trkpt lat="61.55067" lon="17.03638">
        <ele>42.296791</ele>
        <time>2020-10-09T08:05:49.688Z</time>
      </trkpt>
      <trkpt lat="61.55022" lon="17.03245">
        <ele>40.722259</ele>
        <time>2020-10-09T08:06:29.702Z</time>
      </trkpt>
      <trkpt lat="61.5491" lon="17.02823">
        <ele>41.274592</ele>
        <time>2020-10-09T08:07:23.700Z</time>
      </trkpt>
      <trkpt lat="61.54718" lon="17.02539">
        <ele>35.033336</ele>
        <time>2020-10-09T08:08:10.738Z</time>
      </trkpt>
      <trkpt lat="61.54667" lon="17.02144">
        <ele>37.927245</ele>
        <time>2020-10-09T08:09:16.685Z</time>
      </trkpt>
      <trkpt lat="61.54647" lon="17.01768">
        <ele>43.184652</ele>
        <time>2020-10-09T08:10:22.686Z</time>
      </trkpt>
      <trkpt lat="61.54659" lon="17.01403">
        <ele>45.602624</ele>
        <time>2020-10-09T08:11:23.692Z</time>
      </trkpt>
      <trkpt lat="61.54569" lon="17.0106">
        <ele>44.80727</ele>
        <time>2020-10-09T08:12:31.690Z</time>
      </trkpt>
      <trkpt lat="61.54573" lon="17.00608">
        <ele>50.625698</ele>
        <time>2020-10-09T08:13:44.697Z</time>
      </trkpt>
      <trkpt lat="61.54593" lon="17.00204">
        <ele>59.930473</ele>
        <time>2020-10-09T08:15:27.709Z</time>
      </trkpt>
      <trkpt lat="61.54643" lon="16.99758">
        <ele>66.815369</ele>
        <time>2020-10-09T08:16:29.689Z</time>
      </trkpt>
      <trkpt lat="61.54592" lon="16.99346">
        <ele>72.643903</ele>
        <time>2020-10-09T08:17:42.694Z</time>
      </trkpt>
      <trkpt lat="61.54452" lon="16.9904">
        <ele>68.920487</ele>
        <time>2020-10-09T08:18:42.742Z</time>
      </trkpt>
      <trkpt lat="61.54294" lon="16.98764">
        <ele>65.589063</ele>
        <time>2020-10-09T08:19:23.708Z</time>
      </trkpt>
      <trkpt lat="61.54088" lon="16.98513">
        <ele>64.485387</ele>
        <time>2020-10-09T08:20:23.745Z</time>
      </trkpt>
      <trkpt lat="61.5387" lon="16.98276">
        <ele>67.488263</ele>
        <time>2020-10-09T08:21:23.753Z</time>
      </trkpt>
      <trkpt lat="61.53719" lon="16.97999">
        <ele>76.409683</ele>
        <time>2020-10-09T08:22:47.711Z</time>
      </trkpt>
      <trkpt lat="61.53584" lon="16.97683">
        <ele>84.732892</ele>
        <time>2020-10-09T08:24:08.690Z</time>
      </trkpt>
      <trkpt lat="61.53413" lon="16.97391">
        <ele>95.243345</ele>
        <time>2020-10-09T08:27:35.695Z</time>
      </trkpt>
      <trkpt lat="61.5326" lon="16.97085">
        <ele>86.887154</ele>
        <time>2020-10-09T08:28:27.711Z</time>
      </trkpt>
      <trkpt lat="61.53171" lon="16.96643">
        <ele>77.861112</ele>
        <time>2020-10-09T08:29:07.709Z</time>
      </trkpt>
      <trkpt lat="61.53081" lon="16.96259">
        <ele>82.077542</ele>
        <time>2020-10-09T08:30:07.697Z</time>
      </trkpt>
      <trkpt lat="61.52914" lon="16.95928">
        <ele>85.894027</ele>
        <time>2020-10-09T08:30:56.694Z</time>
      </trkpt>
      <trkpt lat="61.52703" lon="16.95655">
        <ele>74.448215</ele>
        <time>2020-10-09T08:31:36.713Z</time>
      </trkpt>
      <trkpt lat="61.52487" lon="16.95607">
        <ele>65.907821</ele>
        <time>2020-10-09T08:32:25.694Z</time>
      </trkpt>
      <trkpt lat="61.5228" lon="16.95694">
        <ele>67.580256</ele>
        <time>2020-10-09T08:33:18.739Z</time>
      </trkpt>
      <trkpt lat="61.52055" lon="16.95782">
        <ele>72.087757</ele>
        <time>2020-10-09T08:34:21.694Z</time>
      </trkpt>
      <trkpt lat="61.51856" lon="16.95836">
        <ele>78.296245</ele>
        <time>2020-10-09T08:35:23.706Z</time>
      </trkpt>
      <trkpt lat="61.51653" lon="16.9577">
        <ele>88.563511</ele>
        <time>2020-10-09T08:36:47.717Z</time>
      </trkpt>
      <trkpt lat="61.51462" lon="16.95663">
        <ele>94.054649</ele>
        <time>2020-10-09T08:38:22.711Z</time>
      </trkpt>
      <trkpt lat="61.51266" lon="16.9555">
        <ele>95.446418</ele>
        <time>2020-10-09T08:39:23.708Z</time>
      </trkpt>
      <trkpt lat="61.51071" lon="16.9544">
        <ele>100.050204</ele>
        <time>2020-10-09T08:40:24.715Z</time>
      </trkpt>
      <trkpt lat="61.50879" lon="16.95312">
        <ele>108.80043</ele>
        <time>2020-10-09T08:41:32.706Z</time>
      </trkpt>
      <trkpt lat="61.50684" lon="16.95074">
        <ele>118.081557</ele>
        <time>2020-10-09T08:42:40.700Z</time>
      </trkpt>
      <trkpt lat="61.50498" lon="16.94846">
        <ele>116.221871</ele>
        <time>2020-10-09T08:43:27.711Z</time>
      </trkpt>
      <trkpt lat="61.50322" lon="16.94629">
        <ele>115.782201</ele>
        <time>2020-10-09T08:44:45.715Z</time>
      </trkpt>
      <trkpt lat="61.50077" lon="16.94459">
        <ele>108.725636</ele>
        <time>2020-10-09T08:45:30.705Z</time>
      </trkpt>
      <trkpt lat="61.49845" lon="16.94424">
        <ele>108.935395</ele>
        <time>2020-10-09T08:46:30.700Z</time>
      </trkpt>
      <trkpt lat="61.49607" lon="16.94394">
        <ele>101.663819</ele>
        <time>2020-10-09T08:47:20.697Z</time>
      </trkpt>
      <trkpt lat="61.49372" lon="16.9439">
        <ele>90.93483</ele>
        <time>2020-10-09T08:47:45.697Z</time>
      </trkpt>
      <trkpt lat="61.49214" lon="16.94105">
        <ele>93.744234</ele>
        <time>2020-10-09T08:48:46.715Z</time>
      </trkpt>
      <trkpt lat="61.49017" lon="16.93814">
        <ele>94.631034</ele>
        <time>2020-10-09T08:49:42.717Z</time>
      </trkpt>
      <trkpt lat="61.48798" lon="16.93712">
        <ele>82.249558</ele>
        <time>2020-10-09T08:50:26.698Z</time>
      </trkpt>
      <trkpt lat="61.48567" lon="16.9363">
        <ele>71.840893</ele>
        <time>2020-10-09T08:51:06.724Z</time>
      </trkpt>
      <trkpt lat="61.4841" lon="16.93888">
        <ele>74.173712</ele>
        <time>2020-10-09T08:52:10.699Z</time>
      </trkpt>
      <trkpt lat="61.48215" lon="16.94013">
        <ele>78.269387</ele>
        <time>2020-10-09T08:53:37.696Z</time>
      </trkpt>
      <trkpt lat="61.48019" lon="16.94128">
        <ele>84.885094</ele>
        <time>2020-10-09T08:55:02.712Z</time>
      </trkpt>
      <trkpt lat="61.47819" lon="16.94157">
        <ele>99.246655</ele>
        <time>2020-10-09T08:56:31.699Z</time>
      </trkpt>
      <trkpt lat="61.47622" lon="16.94185">
        <ele>110.785236</ele>
        <time>2020-10-09T08:58:18.701Z</time>
      </trkpt>
      <trkpt lat="61.47404" lon="16.94214">
        <ele>107.543331</ele>
        <time>2020-10-09T08:59:41.766Z</time>
      </trkpt>
      <trkpt lat="61.47197" lon="16.94245">
        <ele>101.28009</ele>
        <time>2020-10-09T09:00:51.694Z</time>
      </trkpt>
      <trkpt lat="61.46984" lon="16.9427">
        <ele>100.663751</ele>
        <time>2020-10-09T09:01:51.702Z</time>
      </trkpt>
      <trkpt lat="61.46758" lon="16.94307">
        <ele>105.666378</ele>
        <time>2020-10-09T09:02:51.700Z</time>
      </trkpt>
      <trkpt lat="61.4653" lon="16.94336">
        <ele>98.844272</ele>
        <time>2020-10-09T09:03:51.729Z</time>
      </trkpt>
      <trkpt lat="61.46311" lon="16.94396">
        <ele>110.18497</ele>
        <time>2020-10-09T09:04:52.702Z</time>
      </trkpt>
      <trkpt lat="61.46116" lon="16.94517">
        <ele>99.77562</ele>
        <time>2020-10-09T09:05:35.715Z</time>
      </trkpt>
      <trkpt lat="61.45928" lon="16.9463">
        <ele>94.23247</ele>
        <time>2020-10-09T09:06:15.744Z</time>
      </trkpt>
      <trkpt lat="61.4572" lon="16.94754">
        <ele>96.420811</ele>
        <time>2020-10-09T09:06:57.721Z</time>
      </trkpt>
      <trkpt lat="61.45484" lon="16.94896">
        <ele>91.851493</ele>
        <time>2020-10-09T09:07:37.694Z</time>
      </trkpt>
      <trkpt lat="61.45229" lon="16.95052">
        <ele>84.952665</ele>
        <time>2020-10-09T09:08:17.706Z</time>
      </trkpt>
      <trkpt lat="61.45013" lon="16.95182">
        <ele>85.584018</ele>
        <time>2020-10-09T09:09:11.700Z</time>
      </trkpt>
      <trkpt lat="61.44822" lon="16.95296">
        <ele>83.016583</ele>
        <time>2020-10-09T09:09:54.716Z</time>
      </trkpt>
      <trkpt lat="61.44636" lon="16.9552">
        <ele>77.120544</ele>
        <time>2020-10-09T09:10:36.718Z</time>
      </trkpt>
      <trkpt lat="61.44455" lon="16.95807">
        <ele>73.272136</ele>
        <time>2020-10-09T09:11:16.713Z</time>
      </trkpt>
      <trkpt lat="61.44284" lon="16.96081">
        <ele>78.844635</ele>
        <time>2020-10-09T09:12:25.727Z</time>
      </trkpt>
      <trkpt lat="61.44068" lon="16.9632">
        <ele>77.941863</ele>
        <time>2020-10-09T09:13:28.745Z</time>
      </trkpt>
      <trkpt lat="61.4385" lon="16.96265">
        <ele>76.060336</ele>
        <time>2020-10-09T09:14:29.720Z</time>
      </trkpt>
      <trkpt lat="61.43639" lon="16.96205">
        <ele>78.603032</ele>
        <time>2020-10-09T09:15:24.699Z</time>
      </trkpt>
      <trkpt lat="61.43435" lon="16.96196">
        <ele>76.075801</ele>
        <time>2020-10-09T09:16:04.706Z</time>
      </trkpt>
      <trkpt lat="61.43194" lon="16.9619">
        <ele>73.707204</ele>
        <time>2020-10-09T09:16:48.722Z</time>
      </trkpt>
      <trkpt lat="61.42961" lon="16.96213">
        <ele>75.952285</ele>
        <time>2020-10-09T09:17:45.725Z</time>
      </trkpt>
      <trkpt lat="61.42757" lon="16.96251">
        <ele>81.657766</ele>
        <time>2020-10-09T09:18:55.739Z</time>
      </trkpt>
      <trkpt lat="61.42532" lon="16.9629">
        <ele>77.231001</ele>
        <time>2020-10-09T09:19:57.712Z</time>
      </trkpt>
      <trkpt lat="61.42324" lon="16.96328">
        <ele>78.938088</ele>
        <time>2020-10-09T09:21:35.718Z</time>
      </trkpt>
      <trkpt lat="61.42103" lon="16.9637">
        <ele>77.349282</ele>
        <time>2020-10-09T09:22:19.718Z</time>
      </trkpt>
      <trkpt lat="61.41879" lon="16.96343">
        <ele>81.64433</ele>
        <time>2020-10-09T09:23:15.722Z</time>
      </trkpt>
      <trkpt lat="61.41608" lon="16.96192">
        <ele>64.956443</ele>
        <time>2020-10-09T09:23:55.706Z</time>
      </trkpt>
      <trkpt lat="61.41401" lon="16.95954">
        <ele>64.152291</ele>
        <time>2020-10-09T09:24:55.725Z</time>
      </trkpt>
      <trkpt lat="61.41187" lon="16.95873">
        <ele>74.019428</ele>
        <time>2020-10-09T09:25:58.726Z</time>
      </trkpt>
      <trkpt lat="61.40987" lon="16.95815">
        <ele>78.345662</ele>
        <time>2020-10-09T09:27:05.726Z</time>
      </trkpt>
      <trkpt lat="61.40785" lon="16.95754">
        <ele>81.138598</ele>
        <time>2020-10-09T09:28:13.725Z</time>
      </trkpt>
      <trkpt lat="61.40569" lon="16.95693">
        <ele>84.758101</ele>
        <time>2020-10-09T09:29:27.718Z</time>
      </trkpt>
      <trkpt lat="61.40358" lon="16.95625">
        <ele>83.413336</ele>
        <time>2020-10-09T09:30:22.718Z</time>
      </trkpt>
      <trkpt lat="61.40157" lon="16.95502">
        <ele>79.777165</ele>
        <time>2020-10-09T09:31:03.721Z</time>
      </trkpt>
      <trkpt lat="61.39961" lon="16.95353">
        <ele>78.683262</ele>
        <time>2020-10-09T09:31:59.773Z</time>
      </trkpt>
      <trkpt lat="61.39772" lon="16.95217">
        <ele>84.013074</ele>
        <time>2020-10-09T09:33:26.735Z</time>
      </trkpt>
      <trkpt lat="61.39575" lon="16.95074">
        <ele>90.808074</ele>
        <time>2020-10-09T09:34:38.720Z</time>
      </trkpt>
      <trkpt lat="61.3936" lon="16.94921">
        <ele>91.257016</ele>
        <time>2020-10-09T09:35:38.724Z</time>
      </trkpt>
      <trkpt lat="61.39147" lon="16.94875">
        <ele>91.599439</ele>
        <time>2020-10-09T09:36:38.742Z</time>
      </trkpt>
      <trkpt lat="61.38889" lon="16.94917">
        <ele>88.616946</ele>
        <time>2020-10-09T09:37:41.733Z</time>
      </trkpt>
      <trkpt lat="61.38652" lon="16.94953">
        <ele>84.187106</ele>
        <time>2020-10-09T09:38:34.732Z</time>
      </trkpt>
      <trkpt lat="61.38417" lon="16.94989">
        <ele>80.840189</ele>
        <time>2020-10-09T09:39:17.733Z</time>
      </trkpt>
      <trkpt lat="61.38175" lon="16.95029">
        <ele>81.901123</ele>
        <time>2020-10-09T09:40:15.734Z</time>
      </trkpt>
      <trkpt lat="61.37969" lon="16.95061">
        <ele>78.973434</ele>
        <time>2020-10-09T09:41:02.717Z</time>
      </trkpt>
      <trkpt lat="61.37774" lon="16.95191">
        <ele>74.878648</ele>
        <time>2020-10-09T09:41:42.737Z</time>
      </trkpt>
      <trkpt lat="61.37551" lon="16.95307">
        <ele>63.916532</ele>
        <time>2020-10-09T09:42:11.715Z</time>
      </trkpt>
      <trkpt lat="61.37292" lon="16.95418">
        <ele>50.18035</ele>
        <time>2020-10-09T09:42:43.724Z</time>
      </trkpt>
      <trkpt lat="61.37009" lon="16.95322">
        <ele>42.249982</ele>
        <time>2020-10-09T09:43:23.722Z</time>
      </trkpt>
      <trkpt lat="61.36779" lon="16.95127">
        <ele>36.566624</ele>
        <time>2020-10-09T09:44:02.715Z</time>
      </trkpt>
      <trkpt lat="61.36632" lon="16.94817">
        <ele>40.740264</ele>
        <time>2020-10-09T09:45:18.745Z</time>
      </trkpt>
      <trkpt lat="61.36496" lon="16.94682">
        <ele>43.696642</ele>
        <time>2020-10-09T09:46:28.716Z</time>
      </trkpt>
      <trkpt lat="61.36323" lon="16.94529">
        <ele>49.899995</ele>
        <time>2020-10-09T09:48:02.753Z</time>
      </trkpt>
      <trkpt lat="61.36174" lon="16.94261">
        <ele>50.225736</ele>
        <time>2020-10-09T09:49:15.729Z</time>
      </trkpt>
      <trkpt lat="61.35955" lon="16.94178">
        <ele>45.839591</ele>
        <time>2020-10-09T09:49:50.723Z</time>
      </trkpt>
      <trkpt lat="61.35756" lon="16.94051">
        <ele>55.332593</ele>
        <time>2020-10-09T09:51:29.729Z</time>
      </trkpt>
      <trkpt lat="61.35568" lon="16.93962">
        <ele>69.184401</ele>
        <time>2020-10-09T09:53:31.744Z</time>
      </trkpt>
      <trkpt lat="61.35382" lon="16.93913">
        <ele>78.488098</ele>
        <time>2020-10-09T09:55:36.710Z</time>
      </trkpt>
      <trkpt lat="61.35218" lon="16.93689">
        <ele>91.841089</ele>
        <time>2020-10-09T09:57:46.724Z</time>
      </trkpt>
      <trkpt lat="61.35032" lon="16.93518">
        <ele>98.773976</ele>
        <time>2020-10-09T09:59:19.736Z</time>
      </trkpt>
      <trkpt lat="61.34821" lon="16.93464">
        <ele>101.171232</ele>
        <time>2020-10-09T10:00:19.763Z</time>
      </trkpt>
      <trkpt lat="61.34603" lon="16.93387">
        <ele>100.680524</ele>
        <time>2020-10-09T10:01:16.723Z</time>
      </trkpt>
      <trkpt lat="61.34381" lon="16.93271">
        <ele>94.153602</ele>
        <time>2020-10-09T10:02:03.762Z</time>
      </trkpt>
      <trkpt lat="61.34168" lon="16.93097">
        <ele>87.127362</ele>
        <time>2020-10-09T10:02:52.720Z</time>
      </trkpt>
      <trkpt lat="61.33931" lon="16.92956">
        <ele>82.026108</ele>
        <time>2020-10-09T10:03:34.728Z</time>
      </trkpt>
      <trkpt lat="61.33718" lon="16.92991">
        <ele>88.189217</ele>
        <time>2020-10-09T10:04:33.716Z</time>
      </trkpt>
      <trkpt lat="61.33534" lon="16.93105">
        <ele>88.415738</ele>
        <time>2020-10-09T10:05:32.735Z</time>
      </trkpt>
      <trkpt lat="61.33334" lon="16.93013">
        <ele>86.333394</ele>
        <time>2020-10-09T10:06:23.725Z</time>
      </trkpt>
      <trkpt lat="61.33154" lon="16.92827">
        <ele>88.828157</ele>
        <time>2020-10-09T10:07:22.739Z</time>
      </trkpt>
      <trkpt lat="61.33002" lon="16.92556">
        <ele>92.703164</ele>
        <time>2020-10-09T10:08:46.744Z</time>
      </trkpt>
      <trkpt lat="61.32808" lon="16.92536">
        <ele>106.779011</ele>
        <time>2020-10-09T10:10:33.724Z</time>
      </trkpt>
      <trkpt lat="61.32607" lon="16.92671">
        <ele>113.226568</ele>
        <time>2020-10-09T10:11:46.741Z</time>
      </trkpt>
      <trkpt lat="61.32395" lon="16.9262">
        <ele>109.834697</ele>
        <time>2020-10-09T10:12:39.722Z</time>
      </trkpt>
      <trkpt lat="61.32196" lon="16.92637">
        <ele>98.474429</ele>
        <time>2020-10-09T10:13:19.738Z</time>
      </trkpt>
      <trkpt lat="61.31988" lon="16.92322">
        <ele>85.658246</ele>
        <time>2020-10-09T10:14:00.735Z</time>
      </trkpt>
      <trkpt lat="61.31775" lon="16.92211">
        <ele>86.156031</ele>
        <time>2020-10-09T10:14:47.710Z</time>
      </trkpt>
      <trkpt lat="61.31582" lon="16.92289">
        <ele>93.698204</ele>
        <time>2020-10-09T10:15:39.737Z</time>
      </trkpt>
      <trkpt lat="61.31399" lon="16.92509">
        <ele>97.937338</ele>
        <time>2020-10-09T10:16:29.734Z</time>
      </trkpt>
      <trkpt lat="61.31176" lon="16.92478">
        <ele>90.386806</ele>
        <time>2020-10-09T10:17:12.730Z</time>
      </trkpt>
      <trkpt lat="61.30945" lon="16.92418">
        <ele>88.159617</ele>
        <time>2020-10-09T10:17:57.728Z</time>
      </trkpt>
      <trkpt lat="61.30769" lon="16.92628">
        <ele>91.449024</ele>
        <time>2020-10-09T10:18:42.738Z</time>
      </trkpt>
      <trkpt lat="61.30604" lon="16.93019">
        <ele>84.844093</ele>
        <time>2020-10-09T10:19:23.729Z</time>
      </trkpt>
      <trkpt lat="61.30438" lon="16.93337">
        <ele>82.998832</ele>
        <time>2020-10-09T10:20:03.704Z</time>
      </trkpt>
      <trkpt lat="61.30226" lon="16.93609">
        <ele>75.072848</ele>
        <time>2020-10-09T10:20:43.750Z</time>
      </trkpt>
      <trkpt lat="61.30008" lon="16.93902">
        <ele>59.403452</ele>
        <time>2020-10-09T10:21:15.716Z</time>
      </trkpt>
      <trkpt lat="61.29796" lon="16.94037">
        <ele>58.884123</ele>
        <time>2020-10-09T10:22:08.737Z</time>
      </trkpt>
      <trkpt lat="61.29584" lon="16.94248">
        <ele>58.705936</ele>
        <time>2020-10-09T10:22:53.748Z</time>
      </trkpt>
      <trkpt lat="61.29354" lon="16.94108">
        <ele>59.903641</ele>
        <time>2020-10-09T10:23:55.717Z</time>
      </trkpt>
      <trkpt lat="61.29172" lon="16.94279">
        <ele>59.383411</ele>
        <time>2020-10-09T10:24:55.755Z</time>
      </trkpt>
      <trkpt lat="61.28976" lon="16.94551">
        <ele>46.175675</ele>
        <time>2020-10-09T10:25:35.752Z</time>
      </trkpt>
      <trkpt lat="61.28909" lon="16.94194">
        <ele>44.629494</ele>
        <time>2020-10-09T10:26:32.749Z</time>
      </trkpt>
      <trkpt lat="61.28883" lon="16.93707">
        <ele>48.511476</ele>
        <time>2020-10-09T10:27:28.731Z</time>
      </trkpt>
      <trkpt lat="61.28817" lon="16.9322">
        <ele>47.786659</ele>
        <time>2020-10-09T10:28:27.740Z</time>
      </trkpt>
      <trkpt lat="61.2875" lon="16.92783">
        <ele>51.602287</ele>
        <time>2020-10-09T10:29:29.749Z</time>
      </trkpt>
      <trkpt lat="61.28687" lon="16.92367">
        <ele>56.596978</ele>
        <time>2020-10-09T10:30:42.759Z</time>
      </trkpt>
      <trkpt lat="61.28594" lon="16.91981">
        <ele>62.407194</ele>
        <time>2020-10-09T10:32:05.756Z</time>
      </trkpt>
      <trkpt lat="61.28448" lon="16.9173">
        <ele>62.878718</ele>
        <time>2020-10-09T10:32:50.753Z</time>
      </trkpt>
      <trkpt lat="61.28464" lon="16.91276">
        <ele>58.443545</ele>
        <time>2020-10-09T10:33:41.730Z</time>
      </trkpt>
      <trkpt lat="61.28374" lon="16.90891">
        <ele>62.405147</ele>
        <time>2020-10-09T10:34:41.752Z</time>
      </trkpt>
      <trkpt lat="61.28193" lon="16.90606">
        <ele>71.237215</ele>
        <time>2020-10-09T10:35:50.746Z</time>
      </trkpt>
      <trkpt lat="61.28033" lon="16.90356">
        <ele>78.153658</ele>
        <time>2020-10-09T10:37:24.740Z</time>
      </trkpt>
      <trkpt lat="61.27917" lon="16.90009">
        <ele>82.017273</ele>
        <time>2020-10-09T10:38:51.741Z</time>
      </trkpt>
      <trkpt lat="61.27862" lon="16.89567">
        <ele>80.740837</ele>
        <time>2020-10-09T10:39:59.760Z</time>
      </trkpt>
      <trkpt lat="61.27807" lon="16.89063">
        <ele>78.259069</ele>
        <time>2020-10-09T10:40:58.740Z</time>
      </trkpt>
      <trkpt lat="61.27746" lon="16.88582">
        <ele>81.096694</ele>
        <time>2020-10-09T10:41:56.763Z</time>
      </trkpt>
      <trkpt lat="61.27577" lon="16.88279">
        <ele>83.542737</ele>
        <time>2020-10-09T10:42:53.749Z</time>
      </trkpt>
      <trkpt lat="61.27411" lon="16.88039">
        <ele>91.98054</ele>
        <time>2020-10-09T10:44:35.744Z</time>
      </trkpt>
      <trkpt lat="61.27264" lon="16.8771">
        <ele>84.137326</ele>
        <time>2020-10-09T10:45:19.742Z</time>
      </trkpt>
      <trkpt lat="61.27224" lon="16.87227">
        <ele>69.970478</ele>
        <time>2020-10-09T10:45:50.756Z</time>
      </trkpt>
      <trkpt lat="61.27167" lon="16.86818">
        <ele>74.269005</ele>
        <time>2020-10-09T10:46:47.744Z</time>
      </trkpt>
      <trkpt lat="61.27101" lon="16.86447">
        <ele>76.35891</ele>
        <time>2020-10-09T10:48:10.746Z</time>
      </trkpt>
      <trkpt lat="61.2699" lon="16.86073">
        <ele>77.681641</ele>
        <time>2020-10-09T10:49:10.758Z</time>
      </trkpt>
      <trkpt lat="61.2694" lon="16.85661">
        <ele>72.809522</ele>
        <time>2020-10-09T10:50:17.749Z</time>
      </trkpt>
      <trkpt lat="61.26908" lon="16.85239">
        <ele>71.264099</ele>
        <time>2020-10-09T11:20:37.350Z</time>
      </trkpt>
      <trkpt lat="61.26807" lon="16.84879">
        <ele>78.045641</ele>
        <time>2020-10-09T11:21:57.399Z</time>
      </trkpt>
      <trkpt lat="61.26666" lon="16.84574">
        <ele>82.040643</ele>
        <time>2020-10-09T11:23:27.359Z</time>
      </trkpt>
      <trkpt lat="61.26677" lon="16.84212">
        <ele>96.859552</ele>
        <time>2020-10-09T11:25:22.350Z</time>
      </trkpt>
      <trkpt lat="61.26632" lon="16.83884">
        <ele>96.998153</ele>
        <time>2020-10-09T11:26:31.372Z</time>
      </trkpt>
      <trkpt lat="61.26509" lon="16.83521">
        <ele>101.516571</ele>
        <time>2020-10-09T11:27:46.354Z</time>
      </trkpt>
      <trkpt lat="61.26395" lon="16.83165">
        <ele>106.506003</ele>
        <time>2020-10-09T11:29:18.383Z</time>
      </trkpt>
      <trkpt lat="61.26167" lon="16.83183">
        <ele>94.525027</ele>
        <time>2020-10-09T11:29:49.351Z</time>
      </trkpt>
      <trkpt lat="61.25995" lon="16.83394">
        <ele>78.663056</ele>
        <time>2020-10-09T11:30:24.357Z</time>
      </trkpt>
      <trkpt lat="61.25821" lon="16.83414">
        <ele>83.096157</ele>
        <time>2020-10-09T11:31:52.356Z</time>
      </trkpt>
      <trkpt lat="61.25632" lon="16.83337">
        <ele>100.40399</ele>
        <time>2020-10-09T11:34:03.413Z</time>
      </trkpt>
      <trkpt lat="61.25443" lon="16.83233">
        <ele>118.480659</ele>
        <time>2020-10-09T11:36:18.353Z</time>
      </trkpt>
      <trkpt lat="61.25253" lon="16.83114">
        <ele>125.524296</ele>
        <time>2020-10-09T11:37:45.363Z</time>
      </trkpt>
      <trkpt lat="61.25056" lon="16.82891">
        <ele>122.776751</ele>
        <time>2020-10-09T11:39:05.362Z</time>
      </trkpt>
      <trkpt lat="61.24848" lon="16.82729">
        <ele>120.472579</ele>
        <time>2020-10-09T11:39:57.359Z</time>
      </trkpt>
      <trkpt lat="61.24644" lon="16.82597">
        <ele>127.068694</ele>
        <time>2020-10-09T11:40:59.348Z</time>
      </trkpt>
      <trkpt lat="61.24427" lon="16.82604">
        <ele>133.446355</ele>
        <time>2020-10-09T11:41:53.373Z</time>
      </trkpt>
      <trkpt lat="61.24216" lon="16.8254">
        <ele>132.2763</ele>
        <time>2020-10-09T11:42:53.351Z</time>
      </trkpt>
      <trkpt lat="61.24049" lon="16.8272">
        <ele>133.617167</ele>
        <time>2020-10-09T11:43:59.364Z</time>
      </trkpt>
      <trkpt lat="61.23857" lon="16.83054">
        <ele>124.28423</ele>
        <time>2020-10-09T11:44:42.357Z</time>
      </trkpt>
      <trkpt lat="61.23681" lon="16.83477">
        <ele>115.626312</ele>
        <time>2020-10-09T11:45:20.372Z</time>
      </trkpt>
      <trkpt lat="61.23519" lon="16.83633">
        <ele>107.700013</ele>
        <time>2020-10-09T11:45:41.399Z</time>
      </trkpt>
      <trkpt lat="61.23378" lon="16.83311">
        <ele>93.238994</ele>
        <time>2020-10-09T11:46:01.356Z</time>
      </trkpt>
      <trkpt lat="61.2315" lon="16.83318">
        <ele>90.109568</ele>
        <time>2020-10-09T11:46:40.358Z</time>
      </trkpt>
      <trkpt lat="61.22955" lon="16.83432">
        <ele>111.878512</ele>
        <time>2020-10-09T11:48:22.378Z</time>
      </trkpt>
      <trkpt lat="61.22767" lon="16.83331">
        <ele>135.185166</ele>
        <time>2020-10-09T11:50:31.354Z</time>
      </trkpt>
      <trkpt lat="61.22577" lon="16.83377">
        <ele>146.442483</ele>
        <time>2020-10-09T11:52:32.375Z</time>
      </trkpt>
      <trkpt lat="61.22415" lon="16.8361">
        <ele>153.735889</ele>
        <time>2020-10-09T11:54:24.363Z</time>
      </trkpt>
      <trkpt lat="61.22257" lon="16.83859">
        <ele>152.073889</ele>
        <time>2020-10-09T11:55:49.357Z</time>
      </trkpt>
      <trkpt lat="61.22052" lon="16.83917">
        <ele>162.764486</ele>
        <time>2020-10-09T11:57:24.358Z</time>
      </trkpt>
      <trkpt lat="61.21855" lon="16.83869">
        <ele>160.65318</ele>
        <time>2020-10-09T11:58:56.366Z</time>
      </trkpt>
      <trkpt lat="61.21652" lon="16.83874">
        <ele>163.30192</ele>
        <time>2020-10-09T12:00:20.372Z</time>
      </trkpt>
      <trkpt lat="61.21457" lon="16.83836">
        <ele>172.408042</ele>
        <time>2020-10-09T12:01:21.358Z</time>
      </trkpt>
      <trkpt lat="61.21247" lon="16.83916">
        <ele>187.454844</ele>
        <time>2020-10-09T12:02:38.383Z</time>
      </trkpt>
      <trkpt lat="61.21031" lon="16.83879">
        <ele>192.186344</ele>
        <time>2020-10-09T12:03:56.355Z</time>
      </trkpt>
      <trkpt lat="61.20827" lon="16.83998">
        <ele>192.810088</ele>
        <time>2020-10-09T12:05:13.395Z</time>
      </trkpt>
      <trkpt lat="61.20629" lon="16.84219">
        <ele>183.854683</ele>
        <time>2020-10-09T12:06:08.354Z</time>
      </trkpt>
      <trkpt lat="61.20404" lon="16.84379">
        <ele>174.639466</ele>
        <time>2020-10-09T12:07:06.361Z</time>
      </trkpt>
      <trkpt lat="61.20202" lon="16.84544">
        <ele>173.184381</ele>
        <time>2020-10-09T12:07:54.371Z</time>
      </trkpt>
      <trkpt lat="61.20027" lon="16.84856">
        <ele>159.868087</ele>
        <time>2020-10-09T12:08:22.392Z</time>
      </trkpt>
      <trkpt lat="61.19913" lon="16.85218">
        <ele>148.120368</ele>
        <time>2020-10-09T12:08:42.375Z</time>
      </trkpt>
      <trkpt lat="61.19767" lon="16.85544">
        <ele>138.747831</ele>
        <time>2020-10-09T12:09:02.369Z</time>
      </trkpt>
      <trkpt lat="61.19557" lon="16.85888">
        <ele>128.208941</ele>
        <time>2020-10-09T12:09:38.370Z</time>
      </trkpt>
      <trkpt lat="61.19317" lon="16.85957">
        <ele>127.311238</ele>
        <time>2020-10-09T12:10:18.396Z</time>
      </trkpt>
      <trkpt lat="61.19075" lon="16.85816">
        <ele>131.295106</ele>
        <time>2020-10-09T12:10:58.372Z</time>
      </trkpt>
      <trkpt lat="61.18888" lon="16.8554">
        <ele>125.273416</ele>
        <time>2020-10-09T12:11:44.375Z</time>
      </trkpt>
      <trkpt lat="61.18662" lon="16.85208">
        <ele>117.037268</ele>
        <time>2020-10-09T12:12:24.351Z</time>
      </trkpt>
      <trkpt lat="61.18469" lon="16.84916">
        <ele>118.565206</ele>
        <time>2020-10-09T12:13:12.362Z</time>
      </trkpt>
      <trkpt lat="61.1827" lon="16.84593">
        <ele>119.373605</ele>
        <time>2020-10-09T12:14:03.350Z</time>
      </trkpt>
      <trkpt lat="61.18097" lon="16.84308">
        <ele>123.416991</ele>
        <time>2020-10-09T12:14:57.356Z</time>
      </trkpt>
      <trkpt lat="61.17883" lon="16.84106">
        <ele>116.954264</ele>
        <time>2020-10-09T12:15:24.415Z</time>
      </trkpt>
      <trkpt lat="61.17603" lon="16.84074">
        <ele>99.524536</ele>
        <time>2020-10-09T12:15:56.374Z</time>
      </trkpt>
      <trkpt lat="61.17373" lon="16.84081">
        <ele>95.864166</ele>
        <time>2020-10-09T12:16:44.415Z</time>
      </trkpt>
      <trkpt lat="61.1715" lon="16.84093">
        <ele>100.016345</ele>
        <time>2020-10-09T12:17:40.426Z</time>
      </trkpt>
      <trkpt lat="61.16946" lon="16.84182">
        <ele>101.117982</ele>
        <time>2020-10-09T12:18:41.374Z</time>
      </trkpt>
      <trkpt lat="61.16745" lon="16.84283">
        <ele>101.060351</ele>
        <time>2020-10-09T12:19:41.375Z</time>
      </trkpt>
      <trkpt lat="61.16545" lon="16.84269">
        <ele>105.851679</ele>
        <time>2020-10-09T12:21:06.386Z</time>
      </trkpt>
      <trkpt lat="61.16347" lon="16.84177">
        <ele>103.762573</ele>
        <time>2020-10-09T12:21:56.377Z</time>
      </trkpt>
      <trkpt lat="61.16164" lon="16.83923">
        <ele>102.98515</ele>
        <time>2020-10-09T12:22:52.367Z</time>
      </trkpt>
      <trkpt lat="61.16037" lon="16.83606">
        <ele>112.325783</ele>
        <time>2020-10-09T12:23:52.383Z</time>
      </trkpt>
      <trkpt lat="61.15903" lon="16.83276">
        <ele>112.150118</ele>
        <time>2020-10-09T12:24:56.362Z</time>
      </trkpt>
      <trkpt lat="61.15765" lon="16.82933">
        <ele>112.561302</ele>
        <time>2020-10-09T12:25:50.397Z</time>
      </trkpt>
      <trkpt lat="61.15628" lon="16.82598">
        <ele>104.154788</ele>
        <time>2020-10-09T12:26:30.374Z</time>
      </trkpt>
      <trkpt lat="61.1549" lon="16.82261">
        <ele>111.330864</ele>
        <time>2020-10-09T12:27:29.399Z</time>
      </trkpt>
      <trkpt lat="61.15349" lon="16.81958">
        <ele>125.490088</ele>
        <time>2020-10-09T12:28:52.366Z</time>
      </trkpt>
      <trkpt lat="61.15188" lon="16.81694">
        <ele>120.84211</ele>
        <time>2020-10-09T12:30:23.414Z</time>
      </trkpt>
      <trkpt lat="61.15029" lon="16.81446">
        <ele>129.961646</ele>
        <time>2020-10-09T12:32:10.382Z</time>
      </trkpt>
      <trkpt lat="61.14868" lon="16.812">
        <ele>145.891935</ele>
        <time>2020-10-09T12:33:59.405Z</time>
      </trkpt>
      <trkpt lat="61.14699" lon="16.80936">
        <ele>151.233899</ele>
        <time>2020-10-09T12:35:42.372Z</time>
      </trkpt>
      <trkpt lat="61.14533" lon="16.80677">
        <ele>155.995287</ele>
        <time>2020-10-09T12:36:53.367Z</time>
      </trkpt>
      <trkpt lat="61.14365" lon="16.80414">
        <ele>151.793852</ele>
        <time>2020-10-09T12:37:42.380Z</time>
      </trkpt>
      <trkpt lat="61.14212" lon="16.8017">
        <ele>141.733928</ele>
        <time>2020-10-09T12:38:22.375Z</time>
      </trkpt>
      <trkpt lat="61.14053" lon="16.79924">
        <ele>133.67604</ele>
        <time>2020-10-09T12:39:02.389Z</time>
      </trkpt>
      <trkpt lat="61.1388" lon="16.79688">
        <ele>133.576178</ele>
        <time>2020-10-09T12:39:42.374Z</time>
      </trkpt>
      <trkpt lat="61.13674" lon="16.79557">
        <ele>145.609069</ele>
        <time>2020-10-09T12:40:48.372Z</time>
      </trkpt>
      <trkpt lat="61.1348" lon="16.79475">
        <ele>151.444456</ele>
        <time>2020-10-09T12:42:13.359Z</time>
      </trkpt>
      <trkpt lat="61.13251" lon="16.79431">
        <ele>149.92019</ele>
        <time>2020-10-09T12:43:18.397Z</time>
      </trkpt>
      <trkpt lat="61.13048" lon="16.79346">
        <ele>150.345366</ele>
        <time>2020-10-09T12:44:06.416Z</time>
      </trkpt>
      <trkpt lat="61.12873" lon="16.79064">
        <ele>151.834891</ele>
        <time>2020-10-09T12:45:03.380Z</time>
      </trkpt>
      <trkpt lat="61.12663" lon="16.78777">
        <ele>139.475987</ele>
        <time>2020-10-09T12:45:43.401Z</time>
      </trkpt>
      <trkpt lat="61.12426" lon="16.7859">
        <ele>132.985328</ele>
        <time>2020-10-09T12:46:23.377Z</time>
      </trkpt>
      <trkpt lat="61.12219" lon="16.7821">
        <ele>125.630049</ele>
        <time>2020-10-09T12:47:03.361Z</time>
      </trkpt>
      <trkpt lat="61.12058" lon="16.7794">
        <ele>132.633136</ele>
        <time>2020-10-09T12:48:20.364Z</time>
      </trkpt>
      <trkpt lat="61.11897" lon="16.77706">
        <ele>138.506438</ele>
        <time>2020-10-09T12:49:51.387Z</time>
      </trkpt>
      <trkpt lat="61.11727" lon="16.77301">
        <ele>132.521632</ele>
        <time>2020-10-09T12:50:33.422Z</time>
      </trkpt>
      <trkpt lat="61.11603" lon="16.76888">
        <ele>124.464891</ele>
        <time>2020-10-09T12:51:13.395Z</time>
      </trkpt>
      <trkpt lat="61.11503" lon="16.76494">
        <ele>124.675045</ele>
        <time>2020-10-09T12:52:03.389Z</time>
      </trkpt>
      <trkpt lat="61.11422" lon="16.76051">
        <ele>120.638992</ele>
        <time>2020-10-09T12:52:52.394Z</time>
      </trkpt>
      <trkpt lat="61.11441" lon="16.75622">
        <ele>124.975538</ele>
        <time>2020-10-09T12:53:49.399Z</time>
      </trkpt>
      <trkpt lat="61.11507" lon="16.75155">
        <ele>126.743798</ele>
        <time>2020-10-09T12:54:47.393Z</time>
      </trkpt>
      <trkpt lat="61.11496" lon="16.74673">
        <ele>122.313821</ele>
        <time>2020-10-09T12:55:47.394Z</time>
      </trkpt>
      <trkpt lat="61.11447" lon="16.74231">
        <ele>123.124149</ele>
        <time>2020-10-09T12:56:47.362Z</time>
      </trkpt>
      <trkpt lat="61.11358" lon="16.73779">
        <ele>121.089493</ele>
        <time>2020-10-09T12:57:50.392Z</time>
      </trkpt>
      <trkpt lat="61.11174" lon="16.73513">
        <ele>115.708362</ele>
        <time>2020-10-09T12:58:41.394Z</time>
      </trkpt>
      <trkpt lat="61.1106" lon="16.7315">
        <ele>119.292356</ele>
        <time>2020-10-09T12:59:46.368Z</time>
      </trkpt>
      <trkpt lat="61.10977" lon="16.72808">
        <ele>128.759413</ele>
        <time>2020-10-09T13:01:29.383Z</time>
      </trkpt>
      <trkpt lat="61.10922" lon="16.72366">
        <ele>130.638156</ele>
        <time>2020-10-09T13:02:40.396Z</time>
      </trkpt>
      <trkpt lat="61.10748" lon="16.72158">
        <ele>133.869066</ele>
        <time>2020-10-09T13:04:01.376Z</time>
      </trkpt>
      <trkpt lat="61.10552" lon="16.7209">
        <ele>150.203844</ele>
        <time>2020-10-09T13:05:49.382Z</time>
      </trkpt>
      <trkpt lat="61.1047" lon="16.71728">
        <ele>168.181273</ele>
        <time>2020-10-09T13:07:34.366Z</time>
      </trkpt>
      <trkpt lat="61.10394" lon="16.71295">
        <ele>165.794557</ele>
        <time>2020-10-09T13:08:45.420Z</time>
      </trkpt>
      <trkpt lat="61.10227" lon="16.71044">
        <ele>159.375479</ele>
        <time>2020-10-09T13:09:28.368Z</time>
      </trkpt>
      <trkpt lat="61.09992" lon="16.70986">
        <ele>152.333154</ele>
        <time>2020-10-09T13:10:08.379Z</time>
      </trkpt>
      <trkpt lat="61.09732" lon="16.70641">
        <ele>138.197939</ele>
        <time>2020-10-09T13:10:48.387Z</time>
      </trkpt>
      <trkpt lat="61.09508" lon="16.70485">
        <ele>130.940772</ele>
        <time>2020-10-09T13:11:28.385Z</time>
      </trkpt>
      <trkpt lat="61.09426" lon="16.70115">
        <ele>131.527963</ele>
        <time>2020-10-09T13:12:34.382Z</time>
      </trkpt>
      <trkpt lat="61.09372" lon="16.69717">
        <ele>134.774977</ele>
        <time>2020-10-09T13:13:15.417Z</time>
      </trkpt>
      <trkpt lat="61.09239" lon="16.69409">
        <ele>150.440627</ele>
        <time>2020-10-09T13:15:04.431Z</time>
      </trkpt>
      <trkpt lat="61.09025" lon="16.69338">
        <ele>153.789422</ele>
        <time>2020-10-09T13:16:23.377Z</time>
      </trkpt>
      <trkpt lat="61.08829" lon="16.69429">
        <ele>146.930683</ele>
        <time>2020-10-09T13:17:23.383Z</time>
      </trkpt>
      <trkpt lat="61.08615" lon="16.69385">
        <ele>149.586713</ele>
        <time>2020-10-09T13:18:16.391Z</time>
      </trkpt>
      <trkpt lat="61.08398" lon="16.69425">
        <ele>153.86887</ele>
        <time>2020-10-09T13:19:09.383Z</time>
      </trkpt>
      <trkpt lat="61.08168" lon="16.69395">
        <ele>154.161751</ele>
        <time>2020-10-09T13:20:07.445Z</time>
      </trkpt>
      <trkpt lat="61.07965" lon="16.6951">
        <ele>164.135492</ele>
        <time>2020-10-09T13:21:00.422Z</time>
      </trkpt>
      <trkpt lat="61.07767" lon="16.69771">
        <ele>152.66203</ele>
        <time>2020-10-09T13:21:59.385Z</time>
      </trkpt>
      <trkpt lat="61.07533" lon="16.69715">
        <ele>151.966301</ele>
        <time>2020-10-09T13:22:55.396Z</time>
      </trkpt>
      <trkpt lat="61.07328" lon="16.69823">
        <ele>148.574097</ele>
        <time>2020-10-09T13:23:36.400Z</time>
      </trkpt>
      <trkpt lat="61.07113" lon="16.6993">
        <ele>147.664411</ele>
        <time>2020-10-09T13:24:16.409Z</time>
      </trkpt>
      <trkpt lat="61.06907" lon="16.69958">
        <ele>144.505337</ele>
        <time>2020-10-09T13:25:24.421Z</time>
      </trkpt>
      <trkpt lat="61.06667" lon="16.70101">
        <ele>139.846817</ele>
        <time>2020-10-09T13:26:07.384Z</time>
      </trkpt>
      <trkpt lat="61.06438" lon="16.7014">
        <ele>137.794516</ele>
        <time>2020-10-09T13:26:47.398Z</time>
      </trkpt>
      <trkpt lat="61.06228" lon="16.70111">
        <ele>142.910183</ele>
        <time>2020-10-09T13:27:38.386Z</time>
      </trkpt>
      <trkpt lat="61.06" lon="16.7003">
        <ele>138.237796</ele>
        <time>2020-10-09T13:28:30.384Z</time>
      </trkpt>
      <trkpt lat="61.05774" lon="16.7003">
        <ele>140.802666</ele>
        <time>2020-10-09T13:29:22.366Z</time>
      </trkpt>
      <trkpt lat="61.05568" lon="16.70007">
        <ele>139.623216</ele>
        <time>2020-10-09T13:30:05.380Z</time>
      </trkpt>
      <trkpt lat="61.05357" lon="16.69892">
        <ele>136.411303</ele>
        <time>2020-10-09T13:30:46.406Z</time>
      </trkpt>
      <trkpt lat="61.05141" lon="16.69788">
        <ele>132.629903</ele>
        <time>2020-10-09T13:31:26.390Z</time>
      </trkpt>
      <trkpt lat="61.04927" lon="16.69745">
        <ele>128.040893</ele>
        <time>2020-10-09T13:32:08.376Z</time>
      </trkpt>
      <trkpt lat="61.04703" lon="16.6964">
        <ele>123.996163</ele>
        <time>2020-10-09T13:32:49.417Z</time>
      </trkpt>
      <trkpt lat="61.04472" lon="16.69281">
        <ele>113.204518</ele>
        <time>2020-10-09T13:33:29.392Z</time>
      </trkpt>
      <trkpt lat="61.04271" lon="16.69091">
        <ele>114.738831</ele>
        <time>2020-10-09T13:34:18.381Z</time>
      </trkpt>
      <trkpt lat="61.04065" lon="16.68894">
        <ele>116.89764</ele>
        <time>2020-10-09T13:35:21.373Z</time>
      </trkpt>
      <trkpt lat="61.03872" lon="16.68711">
        <ele>118.543305</ele>
        <time>2020-10-09T13:36:21.424Z</time>
      </trkpt>
      <trkpt lat="61.03689" lon="16.68536">
        <ele>120.509431</ele>
        <time>2020-10-09T13:37:21.380Z</time>
      </trkpt>
      <trkpt lat="61.03512" lon="16.68374">
        <ele>124.202735</ele>
        <time>2020-10-09T13:38:21.384Z</time>
      </trkpt>
      <trkpt lat="61.03291" lon="16.68342">
        <ele>127.73332</ele>
        <time>2020-10-09T13:39:21.395Z</time>
      </trkpt>
      <trkpt lat="61.0307" lon="16.68439">
        <ele>128.479807</ele>
        <time>2020-10-09T13:40:28.389Z</time>
      </trkpt>
      <trkpt lat="61.02848" lon="16.6843">
        <ele>136.143504</ele>
        <time>2020-10-09T13:41:21.377Z</time>
      </trkpt>
      <trkpt lat="61.02639" lon="16.68373">
        <ele>137.186215</ele>
        <time>2020-10-09T13:42:25.435Z</time>
      </trkpt>
      <trkpt lat="61.02441" lon="16.68251">
        <ele>143.301366</ele>
        <time>2020-10-09T13:44:04.402Z</time>
      </trkpt>
      <trkpt lat="61.02237" lon="16.68166">
        <ele>142.451091</ele>
        <time>2020-10-09T13:45:08.402Z</time>
      </trkpt>
      <trkpt lat="61.02021" lon="16.68177">
        <ele>146.248375</ele>
        <time>2020-10-09T13:46:10.405Z</time>
      </trkpt>
      <trkpt lat="61.01823" lon="16.68271">
        <ele>140.952414</ele>
        <time>2020-10-09T13:46:54.429Z</time>
      </trkpt>
      <trkpt lat="61.01622" lon="16.68352">
        <ele>143.650864</ele>
        <time>2020-10-09T13:48:08.399Z</time>
      </trkpt>
      <trkpt lat="61.01418" lon="16.68292">
        <ele>138.867686</ele>
        <time>2020-10-09T13:49:02.377Z</time>
      </trkpt>
      <trkpt lat="61.01205" lon="16.68202">
        <ele>144.317734</ele>
        <time>2020-10-09T13:50:13.380Z</time>
      </trkpt>
      <trkpt lat="61.00996" lon="16.68112">
        <ele>150.265926</ele>
        <time>2020-10-09T13:51:28.387Z</time>
      </trkpt>
      <trkpt lat="61.00786" lon="16.68072">
        <ele>152.446018</ele>
        <time>2020-10-09T13:52:32.382Z</time>
      </trkpt>
      <trkpt lat="61.00593" lon="16.68216">
        <ele>150.024769</ele>
        <time>2020-10-09T13:53:25.394Z</time>
      </trkpt>
      <trkpt lat="61.00396" lon="16.68366">
        <ele>144.054201</ele>
        <time>2020-10-09T13:54:08.419Z</time>
      </trkpt>
      <trkpt lat="61.00186" lon="16.68315">
        <ele>151.674839</ele>
        <time>2020-10-09T13:55:16.389Z</time>
      </trkpt>
      <trkpt lat="60.99981" lon="16.68411">
        <ele>161.822567</ele>
        <time>2020-10-09T13:56:34.377Z</time>
      </trkpt>
      <trkpt lat="60.99799" lon="16.68613">
        <ele>164.876354</ele>
        <time>2020-10-09T13:57:53.392Z</time>
      </trkpt>
      <trkpt lat="60.99607" lon="16.68718">
        <ele>173.622556</ele>
        <time>2020-10-09T13:59:14.390Z</time>
      </trkpt>
      <trkpt lat="60.9942" lon="16.68843">
        <ele>170.946094</ele>
        <time>2020-10-09T14:00:39.379Z</time>
      </trkpt>
      <trkpt lat="60.9922" lon="16.69029">
        <ele>166.47016</ele>
        <time>2020-10-09T14:01:50.387Z</time>
      </trkpt>
      <trkpt lat="60.99003" lon="16.69161">
        <ele>167.577974</ele>
        <time>2020-10-09T14:14:03.267Z</time>
      </trkpt>
      <trkpt lat="60.988" lon="16.69245">
        <ele>171.236927</ele>
        <time>2020-10-09T14:15:08.267Z</time>
      </trkpt>
      <trkpt lat="60.98596" lon="16.69242">
        <ele>169.774234</ele>
        <time>2020-10-09T14:15:49.249Z</time>
      </trkpt>
      <trkpt lat="60.9838" lon="16.69302">
        <ele>165.118257</ele>
        <time>2020-10-09T14:16:29.236Z</time>
      </trkpt>
      <trkpt lat="60.98158" lon="16.69419">
        <ele>161.952855</ele>
        <time>2020-10-09T14:17:15.271Z</time>
      </trkpt>
      <trkpt lat="60.97931" lon="16.69607">
        <ele>155.544717</ele>
        <time>2020-10-09T14:17:55.239Z</time>
      </trkpt>
      <trkpt lat="60.97692" lon="16.69722">
        <ele>152.643429</ele>
        <time>2020-10-09T14:18:35.254Z</time>
      </trkpt>
      <trkpt lat="60.97486" lon="16.69819">
        <ele>152.89188</ele>
        <time>2020-10-09T14:19:19.239Z</time>
      </trkpt>
      <trkpt lat="60.9727" lon="16.69631">
        <ele>153.513592</ele>
        <time>2020-10-09T14:20:16.266Z</time>
      </trkpt>
      <trkpt lat="60.97051" lon="16.69708">
        <ele>155.280495</ele>
        <time>2020-10-09T14:21:11.250Z</time>
      </trkpt>
      <trkpt lat="60.96841" lon="16.69828">
        <ele>150.881581</ele>
        <time>2020-10-09T14:21:58.239Z</time>
      </trkpt>
      <trkpt lat="60.96653" lon="16.7001">
        <ele>152.240802</ele>
        <time>2020-10-09T14:22:43.282Z</time>
      </trkpt>
      <trkpt lat="60.96462" lon="16.70296">
        <ele>162.282517</ele>
        <time>2020-10-09T14:23:42.260Z</time>
      </trkpt>
      <trkpt lat="60.9636" lon="16.70677">
        <ele>166.64439</ele>
        <time>2020-10-09T14:25:01.261Z</time>
      </trkpt>
      <trkpt lat="60.96229" lon="16.71079">
        <ele>167.699429</ele>
        <time>2020-10-09T14:26:07.258Z</time>
      </trkpt>
      <trkpt lat="60.96079" lon="16.71355">
        <ele>164.390658</ele>
        <time>2020-10-09T14:26:49.250Z</time>
      </trkpt>
      <trkpt lat="60.95912" lon="16.71538">
        <ele>162.888429</ele>
        <time>2020-10-09T14:27:29.272Z</time>
      </trkpt>
      <trkpt lat="60.95718" lon="16.71778">
        <ele>166.178635</ele>
        <time>2020-10-09T14:28:21.266Z</time>
      </trkpt>
      <trkpt lat="60.955" lon="16.71944">
        <ele>163.751892</ele>
        <time>2020-10-09T14:29:13.243Z</time>
      </trkpt>
      <trkpt lat="60.95331" lon="16.72183">
        <ele>159.096082</ele>
        <time>2020-10-09T14:29:58.285Z</time>
      </trkpt>
      <trkpt lat="60.95119" lon="16.72174">
        <ele>156.341645</ele>
        <time>2020-10-09T14:30:43.243Z</time>
      </trkpt>
      <trkpt lat="60.94888" lon="16.72155">
        <ele>155.631937</ele>
        <time>2020-10-09T14:31:23.259Z</time>
      </trkpt>
      <trkpt lat="60.94599" lon="16.72092">
        <ele>145.871304</ele>
        <time>2020-10-09T14:32:05.284Z</time>
      </trkpt>
      <trkpt lat="60.94367" lon="16.72034">
        <ele>141.422852</ele>
        <time>2020-10-09T14:32:48.273Z</time>
      </trkpt>
      <trkpt lat="60.94152" lon="16.7187">
        <ele>140.763509</ele>
        <time>2020-10-09T14:33:28.283Z</time>
      </trkpt>
      <trkpt lat="60.93936" lon="16.71725">
        <ele>137.670052</ele>
        <time>2020-10-09T14:34:08.262Z</time>
      </trkpt>
      <trkpt lat="60.93735" lon="16.71613">
        <ele>135.753839</ele>
        <time>2020-10-09T14:34:49.276Z</time>
      </trkpt>
      <trkpt lat="60.9356" lon="16.71386">
        <ele>135.905487</ele>
        <time>2020-10-09T14:36:11.261Z</time>
      </trkpt>
      <trkpt lat="60.93365" lon="16.71424">
        <ele>140.255408</ele>
        <time>2020-10-09T14:36:56.284Z</time>
      </trkpt>
      <trkpt lat="60.93158" lon="16.71349">
        <ele>140.699197</ele>
        <time>2020-10-09T14:37:43.267Z</time>
      </trkpt>
      <trkpt lat="60.92931" lon="16.71348">
        <ele>137.725857</ele>
        <time>2020-10-09T14:38:31.255Z</time>
      </trkpt>
      <trkpt lat="60.92738" lon="16.71457">
        <ele>135.111662</ele>
        <time>2020-10-09T14:39:11.256Z</time>
      </trkpt>
      <trkpt lat="60.92519" lon="16.71657">
        <ele>133.69878</ele>
        <time>2020-10-09T14:39:51.272Z</time>
      </trkpt>
      <trkpt lat="60.92291" lon="16.7188">
        <ele>129.287801</ele>
        <time>2020-10-09T14:40:31.261Z</time>
      </trkpt>
      <trkpt lat="60.92123" lon="16.72197">
        <ele>124.918905</ele>
        <time>2020-10-09T14:41:11.287Z</time>
      </trkpt>
      <trkpt lat="60.91951" lon="16.72435">
        <ele>121.682125</ele>
        <time>2020-10-09T14:41:51.261Z</time>
      </trkpt>
      <trkpt lat="60.91742" lon="16.72691">
        <ele>115.695903</ele>
        <time>2020-10-09T14:42:31.259Z</time>
      </trkpt>
      <trkpt lat="60.9153" lon="16.72746">
        <ele>117.54521</ele>
        <time>2020-10-09T14:43:15.261Z</time>
      </trkpt>
      <trkpt lat="60.91296" lon="16.727">
        <ele>118.108188</ele>
        <time>2020-10-09T14:44:02.251Z</time>
      </trkpt>
      <trkpt lat="60.91068" lon="16.72709">
        <ele>119.008117</ele>
        <time>2020-10-09T14:44:55.258Z</time>
      </trkpt>
      <trkpt lat="60.90846" lon="16.72615">
        <ele>115.041592</ele>
        <time>2020-10-09T14:45:36.250Z</time>
      </trkpt>
      <trkpt lat="60.90606" lon="16.727">
        <ele>110.51231</ele>
        <time>2020-10-09T14:46:16.245Z</time>
      </trkpt>
      <trkpt lat="60.90382" lon="16.72633">
        <ele>108.139719</ele>
        <time>2020-10-09T14:46:56.260Z</time>
      </trkpt>
      <trkpt lat="60.90167" lon="16.72515">
        <ele>116.892906</ele>
        <time>2020-10-09T14:47:50.258Z</time>
      </trkpt>
      <trkpt lat="60.9002" lon="16.72189">
        <ele>114.57099</ele>
        <time>2020-10-09T14:48:44.259Z</time>
      </trkpt>
      <trkpt lat="60.89809" lon="16.72016">
        <ele>105.848766</ele>
        <time>2020-10-09T14:49:26.252Z</time>
      </trkpt>
      <trkpt lat="60.89601" lon="16.72028">
        <ele>102.572789</ele>
        <time>2020-10-09T14:50:08.258Z</time>
      </trkpt>
      <trkpt lat="60.89355" lon="16.72053">
        <ele>96.193934</ele>
        <time>2020-10-09T14:50:48.258Z</time>
      </trkpt>
      <trkpt lat="60.8917" lon="16.72003">
        <ele>94.50709</ele>
        <time>2020-10-09T14:51:29.258Z</time>
      </trkpt>
      <trkpt lat="60.88969" lon="16.7187">
        <ele>99.666022</ele>
        <time>2020-10-09T14:52:16.248Z</time>
      </trkpt>
      <trkpt lat="60.88834" lon="16.71622">
        <ele>106.156652</ele>
        <time>2020-10-09T14:53:22.257Z</time>
      </trkpt>
      <trkpt lat="60.88651" lon="16.71488">
        <ele>105.392325</ele>
        <time>2020-10-09T14:54:26.253Z</time>
      </trkpt>
      <trkpt lat="60.88451" lon="16.71389">
        <ele>109.126701</ele>
        <time>2020-10-09T14:55:29.252Z</time>
      </trkpt>
      <trkpt lat="60.88255" lon="16.71237">
        <ele>116.165984</ele>
        <time>2020-10-09T14:56:39.282Z</time>
      </trkpt>
      <trkpt lat="60.88035" lon="16.71213">
        <ele>111.11108</ele>
        <time>2020-10-09T14:57:45.244Z</time>
      </trkpt>
      <trkpt lat="60.87852" lon="16.71163">
        <ele>109.548407</ele>
        <time>2020-10-09T14:58:35.254Z</time>
      </trkpt>
      <trkpt lat="60.87688" lon="16.70891">
        <ele>110.290933</ele>
        <time>2020-10-09T14:59:35.249Z</time>
      </trkpt>
      <trkpt lat="60.87521" lon="16.70619">
        <ele>112.750139</ele>
        <time>2020-10-09T15:00:35.278Z</time>
      </trkpt>
      <trkpt lat="60.8733" lon="16.70413">
        <ele>117.106498</ele>
        <time>2020-10-09T15:01:42.291Z</time>
      </trkpt>
      <trkpt lat="60.87133" lon="16.70269">
        <ele>119.107527</ele>
        <time>2020-10-09T15:02:43.260Z</time>
      </trkpt>
      <trkpt lat="60.86924" lon="16.70098">
        <ele>122.429689</ele>
        <time>2020-10-09T15:03:56.271Z</time>
      </trkpt>
      <trkpt lat="60.86724" lon="16.69937">
        <ele>119.46814</ele>
        <time>2020-10-09T15:04:37.284Z</time>
      </trkpt>
      <trkpt lat="60.86523" lon="16.69777">
        <ele>123.569676</ele>
        <time>2020-10-09T15:08:11.266Z</time>
      </trkpt>
      <trkpt lat="60.86301" lon="16.69778">
        <ele>120.125227</ele>
        <time>2020-10-09T15:09:09.254Z</time>
      </trkpt>
      <trkpt lat="60.86088" lon="16.69911">
        <ele>122.426252</ele>
        <time>2020-10-09T15:10:03.264Z</time>
      </trkpt>
      <trkpt lat="60.85865" lon="16.7004">
        <ele>126.719453</ele>
        <time>2020-10-09T15:11:03.251Z</time>
      </trkpt>
      <trkpt lat="60.85646" lon="16.7013">
        <ele>128.526381</ele>
        <time>2020-10-09T15:11:53.271Z</time>
      </trkpt>
      <trkpt lat="60.85425" lon="16.70226">
        <ele>125.257966</ele>
        <time>2020-10-09T15:12:45.266Z</time>
      </trkpt>
      <trkpt lat="60.85224" lon="16.70332">
        <ele>126.33948</ele>
        <time>2020-10-09T15:13:29.271Z</time>
      </trkpt>
      <trkpt lat="60.84993" lon="16.70443">
        <ele>122.023335</ele>
        <time>2020-10-09T15:14:22.264Z</time>
      </trkpt>
      <trkpt lat="60.84787" lon="16.70531">
        <ele>122.691159</ele>
        <time>2020-10-09T15:15:04.270Z</time>
      </trkpt>
      <trkpt lat="60.84577" lon="16.70623">
        <ele>126.828816</ele>
        <time>2020-10-09T15:15:55.254Z</time>
      </trkpt>
      <trkpt lat="60.84363" lon="16.70687">
        <ele>127.208961</ele>
        <time>2020-10-09T15:16:44.290Z</time>
      </trkpt>
      <trkpt lat="60.84158" lon="16.70602">
        <ele>127.096896</ele>
        <time>2020-10-09T15:17:31.267Z</time>
      </trkpt>
      <trkpt lat="60.83943" lon="16.70398">
        <ele>129.867438</ele>
        <time>2020-10-09T15:18:31.279Z</time>
      </trkpt>
      <trkpt lat="60.83737" lon="16.70204">
        <ele>127.533461</ele>
        <time>2020-10-09T15:19:31.282Z</time>
      </trkpt>
      <trkpt lat="60.83518" lon="16.70108">
        <ele>124.973158</ele>
        <time>2020-10-09T15:20:24.291Z</time>
      </trkpt>
      <trkpt lat="60.83294" lon="16.70001">
        <ele>127.357082</ele>
        <time>2020-10-09T15:21:16.261Z</time>
      </trkpt>
      <trkpt lat="60.83081" lon="16.69792">
        <ele>132.853082</ele>
        <time>2020-10-09T15:22:15.257Z</time>
      </trkpt>
      <trkpt lat="60.82871" lon="16.69815">
        <ele>142.130032</ele>
        <time>2020-10-09T15:23:16.282Z</time>
      </trkpt>
      <trkpt lat="60.8267" lon="16.69942">
        <ele>141.450496</ele>
        <time>2020-10-09T15:24:00.286Z</time>
      </trkpt>
      <trkpt lat="60.82462" lon="16.70074">
        <ele>129.400512</ele>
        <time>2020-10-09T15:24:41.253Z</time>
      </trkpt>
      <trkpt lat="60.8225" lon="16.70226">
        <ele>118.691126</ele>
        <time>2020-10-09T15:25:21.262Z</time>
      </trkpt>
      <trkpt lat="60.82081" lon="16.70478">
        <ele>124.79591</ele>
        <time>2020-10-09T15:26:03.282Z</time>
      </trkpt>
      <trkpt lat="60.81874" lon="16.70369">
        <ele>143.273402</ele>
        <time>2020-10-09T15:26:51.260Z</time>
      </trkpt>
      <trkpt lat="60.81659" lon="16.70432">
        <ele>149.199817</ele>
        <time>2020-10-09T15:27:57.266Z</time>
      </trkpt>
      <trkpt lat="60.81462" lon="16.70486">
        <ele>152.85536</ele>
        <time>2020-10-09T15:29:21.287Z</time>
      </trkpt>
      <trkpt lat="60.81252" lon="16.70485">
        <ele>159.543643</ele>
        <time>2020-10-09T15:30:32.273Z</time>
      </trkpt>
      <trkpt lat="60.81031" lon="16.70476">
        <ele>159.134257</ele>
        <time>2020-10-09T15:31:30.258Z</time>
      </trkpt>
      <trkpt lat="60.80816" lon="16.70528">
        <ele>152.859858</ele>
        <time>2020-10-09T15:32:12.281Z</time>
      </trkpt>
      <trkpt lat="60.80621" lon="16.7059">
        <ele>146.427097</ele>
        <time>2020-10-09T15:32:52.278Z</time>
      </trkpt>
      <trkpt lat="60.80419" lon="16.70662">
        <ele>149.612847</ele>
        <time>2020-10-09T15:33:36.271Z</time>
      </trkpt>
      <trkpt lat="60.80209" lon="16.70892">
        <ele>143.073333</ele>
        <time>2020-10-09T15:34:18.267Z</time>
      </trkpt>
      <trkpt lat="60.79971" lon="16.71029">
        <ele>137.092414</ele>
        <time>2020-10-09T15:35:00.265Z</time>
      </trkpt>
      <trkpt lat="60.79764" lon="16.71225">
        <ele>137.450033</ele>
        <time>2020-10-09T15:35:40.266Z</time>
      </trkpt>
      <trkpt lat="60.79569" lon="16.71539">
        <ele>136.065439</ele>
        <time>2020-10-09T15:36:20.271Z</time>
      </trkpt>
      <trkpt lat="60.79382" lon="16.71852">
        <ele>130.415434</ele>
        <time>2020-10-09T15:37:00.277Z</time>
      </trkpt>
      <trkpt lat="60.79181" lon="16.72037">
        <ele>127.52311</ele>
        <time>2020-10-09T15:37:40.299Z</time>
      </trkpt>
      <trkpt lat="60.7896" lon="16.72122">
        <ele>133.854701</ele>
        <time>2020-10-09T15:38:28.297Z</time>
      </trkpt>
      <trkpt lat="60.78747" lon="16.72191">
        <ele>138.068004</ele>
        <time>2020-10-09T15:39:09.271Z</time>
      </trkpt>
      <trkpt lat="60.78552" lon="16.72281">
        <ele>138.887216</ele>
        <time>2020-10-09T15:39:52.275Z</time>
      </trkpt>
      <trkpt lat="60.78335" lon="16.72354">
        <ele>135.554469</ele>
        <time>2020-10-09T15:40:37.307Z</time>
      </trkpt>
      <trkpt lat="60.78133" lon="16.72378">
        <ele>134.308553</ele>
        <time>2020-10-09T15:41:18.281Z</time>
      </trkpt>
      <trkpt lat="60.77938" lon="16.72494">
        <ele>133.634757</ele>
        <time>2020-10-09T15:42:00.273Z</time>
      </trkpt>
      <trkpt lat="60.77727" lon="16.72644">
        <ele>136.983406</ele>
        <time>2020-10-09T15:42:50.279Z</time>
      </trkpt>
    </trkseg>
  </trk>
  <trk>
    <name><![CDATA[Tour d'Europe: étape 104]]></name>
    <trkseg>
      <trkpt lat="60.77591" lon="16.72749">
        <ele>128.685745</ele>
        <time>2020-10-10T08:07:39.291Z</time>
      </trkpt>
      <trkpt lat="60.7752" lon="16.72674">
        <ele>139.007791</ele>
        <time>2020-10-10T08:10:03.261Z</time>
      </trkpt>
      <trkpt lat="60.77331" lon="16.72907">
        <ele>138.416789</ele>
        <time>2020-10-10T08:11:03.254Z</time>
      </trkpt>
      <trkpt lat="60.77148" lon="16.73237">
        <ele>132.446979</ele>
        <time>2020-10-10T08:11:44.298Z</time>
      </trkpt>
      <trkpt lat="60.76933" lon="16.73541">
        <ele>128.989147</ele>
        <time>2020-10-10T08:12:26.291Z</time>
      </trkpt>
      <trkpt lat="60.7673" lon="16.73712">
        <ele>128.050775</ele>
        <time>2020-10-10T08:13:14.250Z</time>
      </trkpt>
      <trkpt lat="60.76552" lon="16.73933">
        <ele>123.874716</ele>
        <time>2020-10-10T08:13:56.270Z</time>
      </trkpt>
      <trkpt lat="60.76394" lon="16.74228">
        <ele>125.099218</ele>
        <time>2020-10-10T08:14:41.279Z</time>
      </trkpt>
      <trkpt lat="60.76262" lon="16.74564">
        <ele>128.827604</ele>
        <time>2020-10-10T08:15:24.255Z</time>
      </trkpt>
      <trkpt lat="60.76106" lon="16.74821">
        <ele>128.143857</ele>
        <time>2020-10-10T08:16:09.262Z</time>
      </trkpt>
      <trkpt lat="60.75975" lon="16.75149">
        <ele>125.766186</ele>
        <time>2020-10-10T08:16:54.274Z</time>
      </trkpt>
      <trkpt lat="60.75866" lon="16.75585">
        <ele>129.863401</ele>
        <time>2020-10-10T08:17:48.279Z</time>
      </trkpt>
      <trkpt lat="60.75746" lon="16.75956">
        <ele>129.981588</ele>
        <time>2020-10-10T08:18:28.270Z</time>
      </trkpt>
      <trkpt lat="60.75573" lon="16.7616">
        <ele>127.635066</ele>
        <time>2020-10-10T08:19:11.266Z</time>
      </trkpt>
      <trkpt lat="60.75348" lon="16.76199">
        <ele>127.602219</ele>
        <time>2020-10-10T08:20:01.259Z</time>
      </trkpt>
      <trkpt lat="60.7515" lon="16.76331">
        <ele>127.620386</ele>
        <time>2020-10-10T08:20:41.246Z</time>
      </trkpt>
      <trkpt lat="60.74939" lon="16.76497">
        <ele>123.736447</ele>
        <time>2020-10-10T08:21:21.253Z</time>
      </trkpt>
      <trkpt lat="60.74731" lon="16.7656">
        <ele>119.23598</ele>
        <time>2020-10-10T08:22:01.279Z</time>
      </trkpt>
      <trkpt lat="60.74519" lon="16.76708">
        <ele>119.469627</ele>
        <time>2020-10-10T08:22:43.273Z</time>
      </trkpt>
      <trkpt lat="60.74333" lon="16.76928">
        <ele>119.087754</ele>
        <time>2020-10-10T08:23:23.304Z</time>
      </trkpt>
      <trkpt lat="60.74145" lon="16.77127">
        <ele>117.108649</ele>
        <time>2020-10-10T08:24:03.302Z</time>
      </trkpt>
      <trkpt lat="60.73947" lon="16.77336">
        <ele>112.911066</ele>
        <time>2020-10-10T08:24:43.254Z</time>
      </trkpt>
      <trkpt lat="60.7375" lon="16.77569">
        <ele>113.866162</ele>
        <time>2020-10-10T08:25:27.301Z</time>
      </trkpt>
      <trkpt lat="60.73574" lon="16.7777">
        <ele>114.669518</ele>
        <time>2020-10-10T08:26:08.263Z</time>
      </trkpt>
      <trkpt lat="60.73377" lon="16.77946">
        <ele>115.188837</ele>
        <time>2020-10-10T08:26:52.260Z</time>
      </trkpt>
      <trkpt lat="60.73165" lon="16.78069">
        <ele>116.130743</ele>
        <time>2020-10-10T08:27:37.270Z</time>
      </trkpt>
      <trkpt lat="60.72987" lon="16.78232">
        <ele>112.249324</ele>
        <time>2020-10-10T08:28:18.302Z</time>
      </trkpt>
      <trkpt lat="60.72786" lon="16.78386">
        <ele>113.255152</ele>
        <time>2020-10-10T08:29:08.269Z</time>
      </trkpt>
      <trkpt lat="60.72579" lon="16.78626">
        <ele>116.467944</ele>
        <time>2020-10-10T08:30:04.275Z</time>
      </trkpt>
      <trkpt lat="60.72407" lon="16.78863">
        <ele>117.423404</ele>
        <time>2020-10-10T08:30:50.269Z</time>
      </trkpt>
      <trkpt lat="60.72237" lon="16.79165">
        <ele>119.492065</ele>
        <time>2020-10-10T08:31:41.272Z</time>
      </trkpt>
      <trkpt lat="60.721" lon="16.79482">
        <ele>120.26255</ele>
        <time>2020-10-10T08:32:22.275Z</time>
      </trkpt>
      <trkpt lat="60.71925" lon="16.79808">
        <ele>117.463684</ele>
        <time>2020-10-10T08:33:04.287Z</time>
      </trkpt>
      <trkpt lat="60.71722" lon="16.80061">
        <ele>114.903347</ele>
        <time>2020-10-10T08:33:44.296Z</time>
      </trkpt>
      <trkpt lat="60.71506" lon="16.80263">
        <ele>108.026559</ele>
        <time>2020-10-10T08:34:24.270Z</time>
      </trkpt>
      <trkpt lat="60.71307" lon="16.80552">
        <ele>105.307884</ele>
        <time>2020-10-10T08:35:04.261Z</time>
      </trkpt>
      <trkpt lat="60.71093" lon="16.80804">
        <ele>104.015412</ele>
        <time>2020-10-10T08:35:44.285Z</time>
      </trkpt>
      <trkpt lat="60.70885" lon="16.80985">
        <ele>101.941187</ele>
        <time>2020-10-10T08:36:24.286Z</time>
      </trkpt>
      <trkpt lat="60.70677" lon="16.81155">
        <ele>106.437366</ele>
        <time>2020-10-10T08:37:12.276Z</time>
      </trkpt>
      <trkpt lat="60.70465" lon="16.81208">
        <ele>105.435384</ele>
        <time>2020-10-10T08:37:56.324Z</time>
      </trkpt>
      <trkpt lat="60.70256" lon="16.81335">
        <ele>101.834211</ele>
        <time>2020-10-10T08:38:46.284Z</time>
      </trkpt>
      <trkpt lat="60.70079" lon="16.81639">
        <ele>104.272492</ele>
        <time>2020-10-10T08:39:46.253Z</time>
      </trkpt>
      <trkpt lat="60.69878" lon="16.81739">
        <ele>104.75101</ele>
        <time>2020-10-10T08:40:32.273Z</time>
      </trkpt>
      <trkpt lat="60.69661" lon="16.81665">
        <ele>105.450689</ele>
        <time>2020-10-10T08:41:16.294Z</time>
      </trkpt>
      <trkpt lat="60.69457" lon="16.81689">
        <ele>108.65</ele>
        <time>2020-10-10T08:42:14.279Z</time>
      </trkpt>
      <trkpt lat="60.69231" lon="16.81649">
        <ele>100.713952</ele>
        <time>2020-10-10T08:42:59.267Z</time>
      </trkpt>
      <trkpt lat="60.69016" lon="16.81509">
        <ele>109.173577</ele>
        <time>2020-10-10T08:43:52.295Z</time>
      </trkpt>
      <trkpt lat="60.68794" lon="16.81455">
        <ele>122.94103</ele>
        <time>2020-10-10T08:44:47.273Z</time>
      </trkpt>
      <trkpt lat="60.68595" lon="16.81571">
        <ele>114.508159</ele>
        <time>2020-10-10T08:45:39.297Z</time>
      </trkpt>
      <trkpt lat="60.6839" lon="16.81622">
        <ele>105.340776</ele>
        <time>2020-10-10T08:46:22.277Z</time>
      </trkpt>
      <trkpt lat="60.68154" lon="16.81661">
        <ele>111.372522</ele>
        <time>2020-10-10T08:47:18.300Z</time>
      </trkpt>
      <trkpt lat="60.67936" lon="16.81683">
        <ele>115.157314</ele>
        <time>2020-10-10T08:48:05.275Z</time>
      </trkpt>
      <trkpt lat="60.67755" lon="16.81458">
        <ele>116.568266</ele>
        <time>2020-10-10T08:49:03.287Z</time>
      </trkpt>
      <trkpt lat="60.6758" lon="16.81199">
        <ele>118.266939</ele>
        <time>2020-10-10T08:50:07.281Z</time>
      </trkpt>
      <trkpt lat="60.67354" lon="16.8109">
        <ele>117.119104</ele>
        <time>2020-10-10T08:51:06.279Z</time>
      </trkpt>
      <trkpt lat="60.67141" lon="16.80948">
        <ele>117.714441</ele>
        <time>2020-10-10T08:52:06.284Z</time>
      </trkpt>
      <trkpt lat="60.6711" lon="16.81384">
        <ele>107.900525</ele>
        <time>2020-10-10T08:52:40.281Z</time>
      </trkpt>
      <trkpt lat="60.67057" lon="16.81718">
        <ele>103.715213</ele>
        <time>2020-10-10T08:53:41.289Z</time>
      </trkpt>
      <trkpt lat="60.67033" lon="16.81761">
        <ele>105.299604</ele>
        <time>2020-10-10T08:55:43.312Z</time>
      </trkpt>
      <trkpt lat="60.67146" lon="16.82078">
        <ele>103.77337</ele>
        <time>2020-10-10T08:56:55.287Z</time>
      </trkpt>
      <trkpt lat="60.67173" lon="16.82504">
        <ele>103.19328</ele>
        <time>2020-10-10T08:57:49.279Z</time>
      </trkpt>
      <trkpt lat="60.67289" lon="16.82847">
        <ele>109.085623</ele>
        <time>2020-10-10T08:58:47.280Z</time>
      </trkpt>
      <trkpt lat="60.67323" lon="16.83248">
        <ele>104.405775</ele>
        <time>2020-10-10T08:59:30.280Z</time>
      </trkpt>
      <trkpt lat="60.67287" lon="16.83688">
        <ele>99.912035</ele>
        <time>2020-10-10T09:00:20.295Z</time>
      </trkpt>
      <trkpt lat="60.67185" lon="16.84035">
        <ele>106.937583</ele>
        <time>2020-10-10T09:01:13.269Z</time>
      </trkpt>
      <trkpt lat="60.67016" lon="16.84276">
        <ele>111.591338</ele>
        <time>2020-10-10T09:02:19.295Z</time>
      </trkpt>
      <trkpt lat="60.67103" lon="16.84677">
        <ele>107.176184</ele>
        <time>2020-10-10T09:04:02.292Z</time>
      </trkpt>
      <trkpt lat="60.67145" lon="16.85103">
        <ele>104.079914</ele>
        <time>2020-10-10T09:04:56.272Z</time>
      </trkpt>
      <trkpt lat="60.67151" lon="16.8554">
        <ele>107.6179</ele>
        <time>2020-10-10T09:05:43.279Z</time>
      </trkpt>
      <trkpt lat="60.67155" lon="16.85958">
        <ele>109.139653</ele>
        <time>2020-10-10T09:06:30.300Z</time>
      </trkpt>
      <trkpt lat="60.67122" lon="16.86371">
        <ele>110.088879</ele>
        <time>2020-10-10T09:07:15.277Z</time>
      </trkpt>
      <trkpt lat="60.66927" lon="16.8665">
        <ele>114.232886</ele>
        <time>2020-10-10T09:08:11.274Z</time>
      </trkpt>
      <trkpt lat="60.66743" lon="16.86624">
        <ele>120.348938</ele>
        <time>2020-10-10T09:09:13.266Z</time>
      </trkpt>
      <trkpt lat="60.6654" lon="16.86575">
        <ele>109.849944</ele>
        <time>2020-10-10T09:09:54.275Z</time>
      </trkpt>
      <trkpt lat="60.6635" lon="16.86815">
        <ele>108.026198</ele>
        <time>2020-10-10T09:10:42.298Z</time>
      </trkpt>
      <trkpt lat="60.6638" lon="16.87099">
        <ele>107.804857</ele>
        <time>2020-10-10T09:11:27.291Z</time>
      </trkpt>
      <trkpt lat="60.66533" lon="16.8745">
        <ele>104.623566</ele>
        <time>2020-10-10T09:12:19.281Z</time>
      </trkpt>
      <trkpt lat="60.66608" lon="16.87861">
        <ele>101.987476</ele>
        <time>2020-10-10T09:12:59.276Z</time>
      </trkpt>
      <trkpt lat="60.66679" lon="16.88279">
        <ele>96.675412</ele>
        <time>2020-10-10T09:13:42.280Z</time>
      </trkpt>
      <trkpt lat="60.66748" lon="16.88695">
        <ele>100.720556</ele>
        <time>2020-10-10T09:14:29.273Z</time>
      </trkpt>
      <trkpt lat="60.66832" lon="16.89103">
        <ele>101.620015</ele>
        <time>2020-10-10T09:15:17.271Z</time>
      </trkpt>
      <trkpt lat="60.66919" lon="16.89571">
        <ele>105.101672</ele>
        <time>2020-10-10T09:16:20.300Z</time>
      </trkpt>
      <trkpt lat="60.67006" lon="16.90004">
        <ele>109.390047</ele>
        <time>2020-10-10T09:17:20.277Z</time>
      </trkpt>
      <trkpt lat="60.67023" lon="16.90477">
        <ele>109.984776</ele>
        <time>2020-10-10T09:18:19.296Z</time>
      </trkpt>
      <trkpt lat="60.67022" lon="16.9091">
        <ele>114.049161</ele>
        <time>2020-10-10T09:19:21.318Z</time>
      </trkpt>
      <trkpt lat="60.67001" lon="16.91323">
        <ele>119.04343</ele>
        <time>2020-10-10T09:20:23.305Z</time>
      </trkpt>
      <trkpt lat="60.6692" lon="16.91739">
        <ele>123.765617</ele>
        <time>2020-10-10T09:21:19.276Z</time>
      </trkpt>
      <trkpt lat="60.66837" lon="16.92172">
        <ele>125.337227</ele>
        <time>2020-10-10T09:22:18.272Z</time>
      </trkpt>
      <trkpt lat="60.66737" lon="16.92639">
        <ele>117.195983</ele>
        <time>2020-10-10T09:23:17.284Z</time>
      </trkpt>
      <trkpt lat="60.66728" lon="16.93099">
        <ele>114.759009</ele>
        <time>2020-10-10T09:24:05.282Z</time>
      </trkpt>
      <trkpt lat="60.66739" lon="16.93593">
        <ele>108.938237</ele>
        <time>2020-10-10T09:24:48.283Z</time>
      </trkpt>
      <trkpt lat="60.66721" lon="16.94023">
        <ele>117.405679</ele>
        <time>2020-10-10T09:25:42.322Z</time>
      </trkpt>
      <trkpt lat="60.66682" lon="16.94448">
        <ele>116.403612</ele>
        <time>2020-10-10T09:26:45.283Z</time>
      </trkpt>
      <trkpt lat="60.66567" lon="16.94918">
        <ele>111.775733</ele>
        <time>2020-10-10T09:27:25.308Z</time>
      </trkpt>
      <trkpt lat="60.66464" lon="16.95523">
        <ele>101.678695</ele>
        <time>2020-10-10T09:28:05.303Z</time>
      </trkpt>
      <trkpt lat="60.66347" lon="16.95987">
        <ele>96.27941</ele>
        <time>2020-10-10T09:28:47.273Z</time>
      </trkpt>
      <trkpt lat="60.66226" lon="16.96479">
        <ele>88.46627</ele>
        <time>2020-10-10T09:29:28.290Z</time>
      </trkpt>
      <trkpt lat="60.66109" lon="16.96938">
        <ele>89.764586</ele>
        <time>2020-10-10T09:30:10.282Z</time>
      </trkpt>
      <trkpt lat="60.65953" lon="16.97341">
        <ele>86.724332</ele>
        <time>2020-10-10T09:30:50.274Z</time>
      </trkpt>
      <trkpt lat="60.65791" lon="16.97643">
        <ele>86.258793</ele>
        <time>2020-10-10T09:31:38.288Z</time>
      </trkpt>
      <trkpt lat="60.65612" lon="16.97896">
        <ele>85.570517</ele>
        <time>2020-10-10T09:32:29.276Z</time>
      </trkpt>
      <trkpt lat="60.65368" lon="16.97945">
        <ele>82.885827</ele>
        <time>2020-10-10T09:33:09.295Z</time>
      </trkpt>
      <trkpt lat="60.65164" lon="16.98116">
        <ele>83.664237</ele>
        <time>2020-10-10T09:33:59.284Z</time>
      </trkpt>
      <trkpt lat="60.6506" lon="16.98492">
        <ele>82.038968</ele>
        <time>2020-10-10T09:34:51.295Z</time>
      </trkpt>
      <trkpt lat="60.64982" lon="16.98939">
        <ele>78.706045</ele>
        <time>2020-10-10T09:35:31.301Z</time>
      </trkpt>
      <trkpt lat="60.64851" lon="16.99334">
        <ele>74.51115</ele>
        <time>2020-10-10T09:36:11.317Z</time>
      </trkpt>
      <trkpt lat="60.64772" lon="16.99641">
        <ele>70.297981</ele>
        <time>2020-10-10T09:37:10.281Z</time>
      </trkpt>
      <trkpt lat="60.64668" lon="17.00069">
        <ele>72.383289</ele>
        <time>2020-10-10T09:38:07.293Z</time>
      </trkpt>
      <trkpt lat="60.6454" lon="17.00472">
        <ele>83.066459</ele>
        <time>2020-10-10T09:39:05.281Z</time>
      </trkpt>
      <trkpt lat="60.64404" lon="17.00804">
        <ele>80.369521</ele>
        <time>2020-10-10T09:39:50.279Z</time>
      </trkpt>
      <trkpt lat="60.64498" lon="17.01126">
        <ele>70.052636</ele>
        <time>2020-10-10T09:40:47.276Z</time>
      </trkpt>
      <trkpt lat="60.6464" lon="17.01422">
        <ele>66.652549</ele>
        <time>2020-10-10T09:41:27.292Z</time>
      </trkpt>
      <trkpt lat="60.64758" lon="17.01801">
        <ele>66.876075</ele>
        <time>2020-10-10T09:42:14.296Z</time>
      </trkpt>
      <trkpt lat="60.64824" lon="17.02192">
        <ele>69.549106</ele>
        <time>2020-10-10T09:42:58.293Z</time>
      </trkpt>
      <trkpt lat="60.64889" lon="17.02588">
        <ele>70.397519</ele>
        <time>2020-10-10T09:43:46.285Z</time>
      </trkpt>
      <trkpt lat="60.65012" lon="17.02805">
        <ele>71.330058</ele>
        <time>2020-10-10T09:44:58.286Z</time>
      </trkpt>
      <trkpt lat="60.65023" lon="17.03249">
        <ele>68.282584</ele>
        <time>2020-10-10T09:45:41.288Z</time>
      </trkpt>
      <trkpt lat="60.65054" lon="17.03718">
        <ele>63.637768</ele>
        <time>2020-10-10T09:46:25.301Z</time>
      </trkpt>
      <trkpt lat="60.65143" lon="17.04116">
        <ele>63.235341</ele>
        <time>2020-10-10T09:47:12.279Z</time>
      </trkpt>
      <trkpt lat="60.65311" lon="17.0441">
        <ele>59.80941</ele>
        <time>2020-10-10T09:47:52.281Z</time>
      </trkpt>
      <trkpt lat="60.65486" lon="17.04634">
        <ele>59.830922</ele>
        <time>2020-10-10T09:48:34.309Z</time>
      </trkpt>
      <trkpt lat="60.65634" lon="17.04954">
        <ele>57.971001</ele>
        <time>2020-10-10T09:49:15.317Z</time>
      </trkpt>
      <trkpt lat="60.6579" lon="17.05256">
        <ele>55.754</ele>
        <time>2020-10-10T09:49:55.296Z</time>
      </trkpt>
      <trkpt lat="60.65955" lon="17.05496">
        <ele>55.418455</ele>
        <time>2020-10-10T09:50:38.300Z</time>
      </trkpt>
      <trkpt lat="60.66115" lon="17.05811">
        <ele>54.304164</ele>
        <time>2020-10-10T09:51:20.316Z</time>
      </trkpt>
      <trkpt lat="60.66259" lon="17.06156">
        <ele>55.836471</ele>
        <time>2020-10-10T09:52:08.282Z</time>
      </trkpt>
      <trkpt lat="60.66332" lon="17.06566">
        <ele>57.441496</ele>
        <time>2020-10-10T09:52:51.297Z</time>
      </trkpt>
      <trkpt lat="60.66485" lon="17.06897">
        <ele>57.412171</ele>
        <time>2020-10-10T09:53:45.291Z</time>
      </trkpt>
      <trkpt lat="60.66607" lon="17.07258">
        <ele>54.47436</ele>
        <time>2020-10-10T09:54:31.277Z</time>
      </trkpt>
      <trkpt lat="60.66719" lon="17.07641">
        <ele>55.268059</ele>
        <time>2020-10-10T09:55:15.285Z</time>
      </trkpt>
      <trkpt lat="60.66808" lon="17.08023">
        <ele>50.661287</ele>
        <time>2020-10-10T09:55:58.314Z</time>
      </trkpt>
      <trkpt lat="60.66912" lon="17.08429">
        <ele>50.098166</ele>
        <time>2020-10-10T09:56:43.290Z</time>
      </trkpt>
      <trkpt lat="60.67101" lon="17.08696">
        <ele>54.807153</ele>
        <time>2020-10-10T09:57:43.324Z</time>
      </trkpt>
      <trkpt lat="60.67144" lon="17.09125">
        <ele>50.853582</ele>
        <time>2020-10-10T09:58:30.341Z</time>
      </trkpt>
      <trkpt lat="60.67198" lon="17.09566">
        <ele>49.076225</ele>
        <time>2020-10-10T09:59:15.277Z</time>
      </trkpt>
      <trkpt lat="60.67272" lon="17.09956">
        <ele>48.30863</ele>
        <time>2020-10-10T09:59:57.290Z</time>
      </trkpt>
      <trkpt lat="60.67355" lon="17.1036">
        <ele>46.557706</ele>
        <time>2020-10-10T10:00:38.297Z</time>
      </trkpt>
      <trkpt lat="60.67451" lon="17.10724">
        <ele>48.155212</ele>
        <time>2020-10-10T10:01:32.329Z</time>
      </trkpt>
      <trkpt lat="60.67523" lon="17.11143">
        <ele>45.041498</ele>
        <time>2020-10-10T10:02:20.276Z</time>
      </trkpt>
      <trkpt lat="60.67554" lon="17.11601">
        <ele>46.72739</ele>
        <time>2020-10-10T10:03:12.331Z</time>
      </trkpt>
      <trkpt lat="60.67571" lon="17.12063">
        <ele>40.604965</ele>
        <time>2020-10-10T10:04:02.296Z</time>
      </trkpt>
      <trkpt lat="60.67569" lon="17.12492">
        <ele>40.056098</ele>
        <time>2020-10-10T10:04:42.292Z</time>
      </trkpt>
      <trkpt lat="60.67544" lon="17.12922">
        <ele>40.704933</ele>
        <time>2020-10-10T10:05:28.313Z</time>
      </trkpt>
      <trkpt lat="60.67405" lon="17.13238">
        <ele>38.327354</ele>
        <time>2020-10-10T10:06:17.299Z</time>
      </trkpt>
      <trkpt lat="60.67329" lon="17.13574">
        <ele>38.814651</ele>
        <time>2020-10-10T10:07:19.289Z</time>
      </trkpt>
      <trkpt lat="60.6746" lon="17.13954">
        <ele>61.191167</ele>
        <time>2020-10-10T10:08:26.304Z</time>
      </trkpt>
      <trkpt lat="60.67545" lon="17.14341">
        <ele>58.415357</ele>
        <time>2020-10-10T10:09:43.284Z</time>
      </trkpt>
      <trkpt lat="60.67344" lon="17.14511">
        <ele>41.251923</ele>
        <time>2020-10-10T10:13:44.296Z</time>
      </trkpt>
      <trkpt lat="60.67158" lon="17.14735">
        <ele>61.828561</ele>
        <time>2020-10-10T10:15:04.298Z</time>
      </trkpt>
      <trkpt lat="60.67001" lon="17.14899">
        <ele>75.832118</ele>
        <time>2020-10-10T11:04:23.331Z</time>
      </trkpt>
      <trkpt lat="60.66808" lon="17.15134">
        <ele>74.147726</ele>
        <time>2020-10-10T11:05:20.329Z</time>
      </trkpt>
      <trkpt lat="60.66597" lon="17.15275">
        <ele>53.147374</ele>
        <time>2020-10-10T11:06:52.289Z</time>
      </trkpt>
      <trkpt lat="60.6639" lon="17.15473">
        <ele>46.663268</ele>
        <time>2020-10-10T11:07:46.314Z</time>
      </trkpt>
      <trkpt lat="60.66203" lon="17.157">
        <ele>46.717514</ele>
        <time>2020-10-10T11:08:36.296Z</time>
      </trkpt>
      <trkpt lat="60.66064" lon="17.16041">
        <ele>41.594103</ele>
        <time>2020-10-10T11:09:47.292Z</time>
      </trkpt>
      <trkpt lat="60.65903" lon="17.1635">
        <ele>41.054504</ele>
        <time>2020-10-10T11:10:39.332Z</time>
      </trkpt>
      <trkpt lat="60.6572" lon="17.16552">
        <ele>37.056395</ele>
        <time>2020-10-10T11:11:30.330Z</time>
      </trkpt>
      <trkpt lat="60.6554" lon="17.16831">
        <ele>42.190056</ele>
        <time>2020-10-10T11:12:29.314Z</time>
      </trkpt>
      <trkpt lat="60.65386" lon="17.17146">
        <ele>45.012862</ele>
        <time>2020-10-10T11:13:30.293Z</time>
      </trkpt>
      <trkpt lat="60.65257" lon="17.17525">
        <ele>45.860224</ele>
        <time>2020-10-10T11:14:34.331Z</time>
      </trkpt>
      <trkpt lat="60.65162" lon="17.17928">
        <ele>51.389874</ele>
        <time>2020-10-10T11:15:48.325Z</time>
      </trkpt>
      <trkpt lat="60.65055" lon="17.18331">
        <ele>47.546228</ele>
        <time>2020-10-10T11:16:48.297Z</time>
      </trkpt>
      <trkpt lat="60.64962" lon="17.18835">
        <ele>43.587971</ele>
        <time>2020-10-10T11:17:37.305Z</time>
      </trkpt>
      <trkpt lat="60.6492" lon="17.19291">
        <ele>51.256588</ele>
        <time>2020-10-10T11:18:38.294Z</time>
      </trkpt>
      <trkpt lat="60.64953" lon="17.19715">
        <ele>56.40506</ele>
        <time>2020-10-10T11:19:46.323Z</time>
      </trkpt>
      <trkpt lat="60.64975" lon="17.20121">
        <ele>58.123863</ele>
        <time>2020-10-10T11:20:47.295Z</time>
      </trkpt>
      <trkpt lat="60.64996" lon="17.20586">
        <ele>61.600733</ele>
        <time>2020-10-10T11:21:51.311Z</time>
      </trkpt>
      <trkpt lat="60.65018" lon="17.21013">
        <ele>70.816787</ele>
        <time>2020-10-10T11:22:55.292Z</time>
      </trkpt>
      <trkpt lat="60.65049" lon="17.21478">
        <ele>70.598135</ele>
        <time>2020-10-10T11:23:52.310Z</time>
      </trkpt>
      <trkpt lat="60.65099" lon="17.2188">
        <ele>68.853069</ele>
        <time>2020-10-10T11:24:34.295Z</time>
      </trkpt>
      <trkpt lat="60.65138" lon="17.22289">
        <ele>71.248229</ele>
        <time>2020-10-10T11:25:18.316Z</time>
      </trkpt>
      <trkpt lat="60.65119" lon="17.22682">
        <ele>64.057446</ele>
        <time>2020-10-10T11:25:58.307Z</time>
      </trkpt>
      <trkpt lat="60.6502" lon="17.23041">
        <ele>64.355581</ele>
        <time>2020-10-10T11:26:43.306Z</time>
      </trkpt>
      <trkpt lat="60.64975" lon="17.23472">
        <ele>59.016446</ele>
        <time>2020-10-10T11:27:30.306Z</time>
      </trkpt>
      <trkpt lat="60.64926" lon="17.23926">
        <ele>58.816297</ele>
        <time>2020-10-10T11:28:37.336Z</time>
      </trkpt>
      <trkpt lat="60.64883" lon="17.24378">
        <ele>55.887578</ele>
        <time>2020-10-10T11:29:30.316Z</time>
      </trkpt>
      <trkpt lat="60.64834" lon="17.24805">
        <ele>55.346585</ele>
        <time>2020-10-10T11:30:10.309Z</time>
      </trkpt>
      <trkpt lat="60.6475" lon="17.2522">
        <ele>56.723984</ele>
        <time>2020-10-10T11:30:59.296Z</time>
      </trkpt>
      <trkpt lat="60.64655" lon="17.25672">
        <ele>56.058461</ele>
        <time>2020-10-10T11:31:56.314Z</time>
      </trkpt>
      <trkpt lat="60.64584" lon="17.26067">
        <ele>55.904787</ele>
        <time>2020-10-10T11:32:42.328Z</time>
      </trkpt>
      <trkpt lat="60.64543" lon="17.26527">
        <ele>55.770345</ele>
        <time>2020-10-10T11:33:34.301Z</time>
      </trkpt>
      <trkpt lat="60.64548" lon="17.27021">
        <ele>56.026356</ele>
        <time>2020-10-10T11:34:30.315Z</time>
      </trkpt>
      <trkpt lat="60.64592" lon="17.27481">
        <ele>57.96564</ele>
        <time>2020-10-10T11:35:12.304Z</time>
      </trkpt>
      <trkpt lat="60.64641" lon="17.27916">
        <ele>56.779989</ele>
        <time>2020-10-10T11:35:58.336Z</time>
      </trkpt>
      <trkpt lat="60.64682" lon="17.28346">
        <ele>56.197773</ele>
        <time>2020-10-10T11:36:38.301Z</time>
      </trkpt>
      <trkpt lat="60.64731" lon="17.28777">
        <ele>54.77324</ele>
        <time>2020-10-10T11:37:21.307Z</time>
      </trkpt>
      <trkpt lat="60.64782" lon="17.29253">
        <ele>49.940537</ele>
        <time>2020-10-10T11:38:03.339Z</time>
      </trkpt>
      <trkpt lat="60.6484" lon="17.29766">
        <ele>46.366295</ele>
        <time>2020-10-10T11:38:45.297Z</time>
      </trkpt>
      <trkpt lat="60.64888" lon="17.30186">
        <ele>47.19419</ele>
        <time>2020-10-10T11:39:25.309Z</time>
      </trkpt>
      <trkpt lat="60.64941" lon="17.30629">
        <ele>49.655887</ele>
        <time>2020-10-10T11:40:23.302Z</time>
      </trkpt>
      <trkpt lat="60.64988" lon="17.31073">
        <ele>49.947278</ele>
        <time>2020-10-10T11:41:10.313Z</time>
      </trkpt>
      <trkpt lat="60.6499" lon="17.31562">
        <ele>46.494702</ele>
        <time>2020-10-10T11:41:52.317Z</time>
      </trkpt>
      <trkpt lat="60.65065" lon="17.3195">
        <ele>51.694505</ele>
        <time>2020-10-10T11:43:00.329Z</time>
      </trkpt>
      <trkpt lat="60.65108" lon="17.32477">
        <ele>45.492796</ele>
        <time>2020-10-10T11:43:42.321Z</time>
      </trkpt>
      <trkpt lat="60.64999" lon="17.32855">
        <ele>43.935274</ele>
        <time>2020-10-10T11:44:37.308Z</time>
      </trkpt>
      <trkpt lat="60.6504" lon="17.3324">
        <ele>39.475258</ele>
        <time>2020-10-10T11:45:32.353Z</time>
      </trkpt>
      <trkpt lat="60.64966" lon="17.33645">
        <ele>39.044123</ele>
        <time>2020-10-10T11:46:33.299Z</time>
      </trkpt>
      <trkpt lat="60.65038" lon="17.33607">
        <ele>37.616531</ele>
        <time>2020-10-10T11:47:36.338Z</time>
      </trkpt>
      <trkpt lat="60.64977" lon="17.34023">
        <ele>33.077642</ele>
        <time>2020-10-10T11:48:23.312Z</time>
      </trkpt>
      <trkpt lat="60.65" lon="17.34525">
        <ele>34.887962</ele>
        <time>2020-10-10T11:49:07.299Z</time>
      </trkpt>
      <trkpt lat="60.65015" lon="17.34905">
        <ele>45.736737</ele>
        <time>2020-10-10T11:50:05.361Z</time>
      </trkpt>
      <trkpt lat="60.64962" lon="17.35371">
        <ele>44.395254</ele>
        <time>2020-10-10T11:50:54.317Z</time>
      </trkpt>
      <trkpt lat="60.64931" lon="17.35777">
        <ele>52.731177</ele>
        <time>2020-10-10T11:51:54.333Z</time>
      </trkpt>
      <trkpt lat="60.64901" lon="17.36209">
        <ele>55.969525</ele>
        <time>2020-10-10T11:52:55.308Z</time>
      </trkpt>
      <trkpt lat="60.64879" lon="17.36649">
        <ele>50.302186</ele>
        <time>2020-10-10T11:53:41.316Z</time>
      </trkpt>
      <trkpt lat="60.64907" lon="17.37063">
        <ele>41.404684</ele>
        <time>2020-10-10T11:54:36.336Z</time>
      </trkpt>
      <trkpt lat="60.6489" lon="17.37376">
        <ele>40.563829</ele>
        <time>2020-10-10T11:55:24.334Z</time>
      </trkpt>
      <trkpt lat="60.6467" lon="17.37625">
        <ele>23.33615</ele>
        <time>2020-10-10T11:56:04.351Z</time>
      </trkpt>
      <trkpt lat="60.64472" lon="17.37816">
        <ele>25.774851</ele>
        <time>2020-10-10T11:56:55.325Z</time>
      </trkpt>
      <trkpt lat="60.64457" lon="17.38076">
        <ele>36.645516</ele>
        <time>2020-10-10T11:58:03.320Z</time>
      </trkpt>
      <trkpt lat="60.64374" lon="17.38276">
        <ele>40.203521</ele>
        <time>2020-10-10T11:59:07.338Z</time>
      </trkpt>
      <trkpt lat="60.64318" lon="17.38725">
        <ele>38.379804</ele>
        <time>2020-10-10T12:00:02.358Z</time>
      </trkpt>
      <trkpt lat="60.64233" lon="17.39133">
        <ele>34.352796</ele>
        <time>2020-10-10T12:00:42.332Z</time>
      </trkpt>
      <trkpt lat="60.64119" lon="17.39486">
        <ele>35.499758</ele>
        <time>2020-10-10T12:01:29.329Z</time>
      </trkpt>
      <trkpt lat="60.63991" lon="17.39817">
        <ele>31.84701</ele>
        <time>2020-10-10T12:02:31.322Z</time>
      </trkpt>
      <trkpt lat="60.6386" lon="17.40162">
        <ele>31.209907</ele>
        <time>2020-10-10T12:03:31.320Z</time>
      </trkpt>
      <trkpt lat="60.63636" lon="17.40449">
        <ele>23.170192</ele>
        <time>2020-10-10T12:04:11.304Z</time>
      </trkpt>
      <trkpt lat="60.63441" lon="17.40666">
        <ele>25.027724</ele>
        <time>2020-10-10T12:05:08.337Z</time>
      </trkpt>
      <trkpt lat="60.63255" lon="17.40885">
        <ele>22.539221</ele>
        <time>2020-10-10T12:06:07.353Z</time>
      </trkpt>
      <trkpt lat="60.63063" lon="17.41118">
        <ele>22.522181</ele>
        <time>2020-10-10T12:07:05.333Z</time>
      </trkpt>
      <trkpt lat="60.62884" lon="17.41329">
        <ele>23.375795</ele>
        <time>2020-10-10T12:08:07.333Z</time>
      </trkpt>
      <trkpt lat="60.62657" lon="17.4151">
        <ele>26.591219</ele>
        <time>2020-10-10T12:09:07.312Z</time>
      </trkpt>
      <trkpt lat="60.62473" lon="17.41602">
        <ele>33.248734</ele>
        <time>2020-10-10T12:10:10.336Z</time>
      </trkpt>
      <trkpt lat="60.62407" lon="17.41818">
        <ele>34.006552</ele>
        <time>2020-10-10T12:26:02.621Z</time>
      </trkpt>
      <trkpt lat="60.62217" lon="17.42074">
        <ele>33.692291</ele>
        <time>2020-10-10T12:27:02.631Z</time>
      </trkpt>
      <trkpt lat="60.62007" lon="17.42292">
        <ele>34.817557</ele>
        <time>2020-10-10T12:28:02.630Z</time>
      </trkpt>
      <trkpt lat="60.61803" lon="17.42503">
        <ele>35.231256</ele>
        <time>2020-10-10T12:29:02.670Z</time>
      </trkpt>
      <trkpt lat="60.61622" lon="17.42696">
        <ele>40.077533</ele>
        <time>2020-10-10T12:30:02.626Z</time>
      </trkpt>
      <trkpt lat="60.61444" lon="17.42857">
        <ele>41.045767</ele>
        <time>2020-10-10T12:31:03.644Z</time>
      </trkpt>
      <trkpt lat="60.61224" lon="17.4298">
        <ele>42.232066</ele>
        <time>2020-10-10T12:32:03.640Z</time>
      </trkpt>
      <trkpt lat="60.60999" lon="17.43131">
        <ele>42.581782</ele>
        <time>2020-10-10T12:33:06.618Z</time>
      </trkpt>
      <trkpt lat="60.60798" lon="17.43246">
        <ele>43.596681</ele>
        <time>2020-10-10T12:33:56.630Z</time>
      </trkpt>
      <trkpt lat="60.60597" lon="17.43368">
        <ele>42.187103</ele>
        <time>2020-10-10T12:34:43.618Z</time>
      </trkpt>
      <trkpt lat="60.60388" lon="17.435">
        <ele>42.361579</ele>
        <time>2020-10-10T12:35:30.638Z</time>
      </trkpt>
      <trkpt lat="60.60174" lon="17.43626">
        <ele>40.969467</ele>
        <time>2020-10-10T12:36:17.653Z</time>
      </trkpt>
      <trkpt lat="60.59967" lon="17.4375">
        <ele>44.984572</ele>
        <time>2020-10-10T12:37:19.636Z</time>
      </trkpt>
      <trkpt lat="60.59756" lon="17.43736">
        <ele>46.244037</ele>
        <time>2020-10-10T12:38:01.620Z</time>
      </trkpt>
      <trkpt lat="60.59525" lon="17.43643">
        <ele>47.356458</ele>
        <time>2020-10-10T12:38:53.626Z</time>
      </trkpt>
      <trkpt lat="60.59304" lon="17.43605">
        <ele>44.429291</ele>
        <time>2020-10-10T12:39:39.621Z</time>
      </trkpt>
      <trkpt lat="60.59106" lon="17.43689">
        <ele>37.474678</ele>
        <time>2020-10-10T12:40:24.624Z</time>
      </trkpt>
      <trkpt lat="60.5891" lon="17.43851">
        <ele>37.581302</ele>
        <time>2020-10-10T12:41:04.635Z</time>
      </trkpt>
      <trkpt lat="60.58696" lon="17.43905">
        <ele>37.364105</ele>
        <time>2020-10-10T12:41:53.683Z</time>
      </trkpt>
      <trkpt lat="60.58501" lon="17.44157">
        <ele>35.919042</ele>
        <time>2020-10-10T12:42:47.617Z</time>
      </trkpt>
      <trkpt lat="60.58297" lon="17.44395">
        <ele>35.713564</ele>
        <time>2020-10-10T12:43:43.661Z</time>
      </trkpt>
      <trkpt lat="60.58058" lon="17.44495">
        <ele>39.859661</ele>
        <time>2020-10-10T12:44:46.634Z</time>
      </trkpt>
      <trkpt lat="60.57856" lon="17.44378">
        <ele>42.800319</ele>
        <time>2020-10-10T12:45:48.631Z</time>
      </trkpt>
      <trkpt lat="60.57658" lon="17.44318">
        <ele>45.488076</ele>
        <time>2020-10-10T12:46:50.649Z</time>
      </trkpt>
      <trkpt lat="60.57475" lon="17.44098">
        <ele>47.13853</ele>
        <time>2020-10-10T12:47:50.649Z</time>
      </trkpt>
      <trkpt lat="60.5727" lon="17.43911">
        <ele>50.782255</ele>
        <time>2020-10-10T12:48:50.623Z</time>
      </trkpt>
      <trkpt lat="60.57062" lon="17.43829">
        <ele>50.353836</ele>
        <time>2020-10-10T12:49:37.639Z</time>
      </trkpt>
      <trkpt lat="60.5686" lon="17.43648">
        <ele>50.117291</ele>
        <time>2020-10-10T12:50:32.637Z</time>
      </trkpt>
      <trkpt lat="60.56631" lon="17.43658">
        <ele>55.387559</ele>
        <time>2020-10-10T12:51:22.623Z</time>
      </trkpt>
      <trkpt lat="60.56451" lon="17.43938">
        <ele>52.475767</ele>
        <time>2020-10-10T12:52:00.662Z</time>
      </trkpt>
      <trkpt lat="60.56259" lon="17.44102">
        <ele>49.856203</ele>
        <time>2020-10-10T12:53:04.630Z</time>
      </trkpt>
      <trkpt lat="60.56131" lon="17.44278">
        <ele>48.164854</ele>
        <time>2020-10-10T12:54:33.630Z</time>
      </trkpt>
      <trkpt lat="60.56103" lon="17.44507">
        <ele>49.993452</ele>
        <time>2020-10-10T12:55:45.672Z</time>
      </trkpt>
      <trkpt lat="60.55922" lon="17.44434">
        <ele>48.559878</ele>
        <time>2020-10-10T12:56:51.617Z</time>
      </trkpt>
      <trkpt lat="60.55724" lon="17.44579">
        <ele>49.166001</ele>
        <time>2020-10-10T12:58:00.626Z</time>
      </trkpt>
      <trkpt lat="60.55495" lon="17.44611">
        <ele>52.406145</ele>
        <time>2020-10-10T13:00:24.647Z</time>
      </trkpt>
      <trkpt lat="60.55284" lon="17.44553">
        <ele>53.823186</ele>
        <time>2020-10-10T13:01:26.640Z</time>
      </trkpt>
      <trkpt lat="60.55077" lon="17.44356">
        <ele>54.403678</ele>
        <time>2020-10-10T13:02:26.627Z</time>
      </trkpt>
      <trkpt lat="60.54864" lon="17.44263">
        <ele>58.462045</ele>
        <time>2020-10-10T13:03:38.618Z</time>
      </trkpt>
      <trkpt lat="60.54636" lon="17.44182">
        <ele>60.394144</ele>
        <time>2020-10-10T13:04:39.626Z</time>
      </trkpt>
      <trkpt lat="60.54403" lon="17.4414">
        <ele>62.923559</ele>
        <time>2020-10-10T13:05:39.630Z</time>
      </trkpt>
      <trkpt lat="60.54194" lon="17.44114">
        <ele>63.619597</ele>
        <time>2020-10-10T13:06:47.643Z</time>
      </trkpt>
      <trkpt lat="60.53994" lon="17.43902">
        <ele>64.667003</ele>
        <time>2020-10-10T13:08:09.625Z</time>
      </trkpt>
      <trkpt lat="60.53777" lon="17.43782">
        <ele>61.769078</ele>
        <time>2020-10-10T13:08:56.648Z</time>
      </trkpt>
      <trkpt lat="60.53512" lon="17.43784">
        <ele>56.77128</ele>
        <time>2020-10-10T13:09:36.629Z</time>
      </trkpt>
      <trkpt lat="60.53283" lon="17.43752">
        <ele>59.16534</ele>
        <time>2020-10-10T13:10:20.651Z</time>
      </trkpt>
      <trkpt lat="60.53064" lon="17.4372">
        <ele>66.824998</ele>
        <time>2020-10-10T13:11:12.642Z</time>
      </trkpt>
      <trkpt lat="60.5284" lon="17.43638">
        <ele>64.560046</ele>
        <time>2020-10-10T13:12:09.655Z</time>
      </trkpt>
      <trkpt lat="60.52645" lon="17.4354">
        <ele>66.267348</ele>
        <time>2020-10-10T13:13:10.631Z</time>
      </trkpt>
      <trkpt lat="60.52474" lon="17.43313">
        <ele>71.587053</ele>
        <time>2020-10-10T13:14:14.628Z</time>
      </trkpt>
      <trkpt lat="60.52303" lon="17.43037">
        <ele>63.995447</ele>
        <time>2020-10-10T13:15:05.630Z</time>
      </trkpt>
      <trkpt lat="60.52103" lon="17.42834">
        <ele>62.260478</ele>
        <time>2020-10-10T13:15:45.639Z</time>
      </trkpt>
      <trkpt lat="60.51895" lon="17.42802">
        <ele>61.926444</ele>
        <time>2020-10-10T13:16:25.631Z</time>
      </trkpt>
      <trkpt lat="60.51686" lon="17.42861">
        <ele>59.141467</ele>
        <time>2020-10-10T13:17:05.667Z</time>
      </trkpt>
      <trkpt lat="60.51482" lon="17.42918">
        <ele>57.549367</ele>
        <time>2020-10-10T13:17:47.643Z</time>
      </trkpt>
      <trkpt lat="60.51266" lon="17.42982">
        <ele>59.313828</ele>
        <time>2020-10-10T13:18:38.655Z</time>
      </trkpt>
      <trkpt lat="60.51055" lon="17.43045">
        <ele>62.770568</ele>
        <time>2020-10-10T13:19:43.629Z</time>
      </trkpt>
      <trkpt lat="60.5084" lon="17.43077">
        <ele>68.475626</ele>
        <time>2020-10-10T13:20:44.641Z</time>
      </trkpt>
      <trkpt lat="60.50633" lon="17.43067">
        <ele>68.22006</ele>
        <time>2020-10-10T13:21:26.669Z</time>
      </trkpt>
      <trkpt lat="60.50414" lon="17.42996">
        <ele>65.989966</ele>
        <time>2020-10-10T13:22:15.659Z</time>
      </trkpt>
      <trkpt lat="60.50174" lon="17.42852">
        <ele>67.20681</ele>
        <time>2020-10-10T13:23:14.639Z</time>
      </trkpt>
      <trkpt lat="60.49968" lon="17.42713">
        <ele>67.63768</ele>
        <time>2020-10-10T13:24:03.632Z</time>
      </trkpt>
      <trkpt lat="60.49733" lon="17.42555">
        <ele>67.808415</ele>
        <time>2020-10-10T13:25:01.635Z</time>
      </trkpt>
      <trkpt lat="60.49544" lon="17.4263">
        <ele>67.217237</ele>
        <time>2020-10-10T13:33:12.656Z</time>
      </trkpt>
      <trkpt lat="60.49319" lon="17.4259">
        <ele>63.675468</ele>
        <time>2020-10-10T13:33:56.668Z</time>
      </trkpt>
      <trkpt lat="60.49141" lon="17.42722">
        <ele>65.839134</ele>
        <time>2020-10-10T13:35:00.677Z</time>
      </trkpt>
      <trkpt lat="60.49047" lon="17.42867">
        <ele>73.027518</ele>
        <time>2020-10-10T13:36:17.645Z</time>
      </trkpt>
      <trkpt lat="60.48979" lon="17.43247">
        <ele>72.524914</ele>
        <time>2020-10-10T13:37:17.663Z</time>
      </trkpt>
      <trkpt lat="60.48928" lon="17.43714">
        <ele>71.734607</ele>
        <time>2020-10-10T13:37:57.644Z</time>
      </trkpt>
      <trkpt lat="60.48922" lon="17.44148">
        <ele>71.318818</ele>
        <time>2020-10-10T13:38:37.631Z</time>
      </trkpt>
      <trkpt lat="60.48841" lon="17.44572">
        <ele>69.736087</ele>
        <time>2020-10-10T13:39:19.671Z</time>
      </trkpt>
      <trkpt lat="60.48699" lon="17.44939">
        <ele>67.637956</ele>
        <time>2020-10-10T13:40:08.629Z</time>
      </trkpt>
      <trkpt lat="60.48464" lon="17.44821">
        <ele>71.313045</ele>
        <time>2020-10-10T13:41:08.626Z</time>
      </trkpt>
      <trkpt lat="60.48227" lon="17.44824">
        <ele>65.127136</ele>
        <time>2020-10-10T13:42:08.652Z</time>
      </trkpt>
      <trkpt lat="60.4802" lon="17.44832">
        <ele>68.749804</ele>
        <time>2020-10-10T13:43:08.656Z</time>
      </trkpt>
      <trkpt lat="60.47796" lon="17.44836">
        <ele>68.414931</ele>
        <time>2020-10-10T13:44:08.634Z</time>
      </trkpt>
      <trkpt lat="60.47592" lon="17.44839">
        <ele>74.013229</ele>
        <time>2020-10-10T13:45:21.629Z</time>
      </trkpt>
      <trkpt lat="60.47377" lon="17.44899">
        <ele>80.386382</ele>
        <time>2020-10-10T13:48:49.628Z</time>
      </trkpt>
      <trkpt lat="60.4726" lon="17.45185">
        <ele>87.617045</ele>
        <time>2020-10-10T13:49:58.673Z</time>
      </trkpt>
      <trkpt lat="60.4722" lon="17.45591">
        <ele>85.940685</ele>
        <time>2020-10-10T13:50:38.651Z</time>
      </trkpt>
      <trkpt lat="60.4718" lon="17.46011">
        <ele>83.605292</ele>
        <time>2020-10-10T13:51:24.639Z</time>
      </trkpt>
      <trkpt lat="60.47083" lon="17.46452">
        <ele>77.047582</ele>
        <time>2020-10-10T13:52:05.635Z</time>
      </trkpt>
      <trkpt lat="60.46995" lon="17.46866">
        <ele>78.549475</ele>
        <time>2020-10-10T13:52:53.654Z</time>
      </trkpt>
      <trkpt lat="60.46937" lon="17.47301">
        <ele>76.345445</ele>
        <time>2020-10-10T13:53:44.655Z</time>
      </trkpt>
      <trkpt lat="60.46882" lon="17.47806">
        <ele>71.687432</ele>
        <time>2020-10-10T13:54:27.674Z</time>
      </trkpt>
      <trkpt lat="60.46849" lon="17.48252">
        <ele>79.406208</ele>
        <time>2020-10-10T13:55:10.676Z</time>
      </trkpt>
      <trkpt lat="60.46789" lon="17.48688">
        <ele>79.78369</ele>
        <time>2020-10-10T13:55:58.644Z</time>
      </trkpt>
      <trkpt lat="60.46596" lon="17.48914">
        <ele>74.416421</ele>
        <time>2020-10-10T13:56:55.641Z</time>
      </trkpt>
      <trkpt lat="60.46436" lon="17.49203">
        <ele>67.977328</ele>
        <time>2020-10-10T13:57:48.689Z</time>
      </trkpt>
      <trkpt lat="60.46255" lon="17.49424">
        <ele>64.957202</ele>
        <time>2020-10-10T13:58:37.658Z</time>
      </trkpt>
      <trkpt lat="60.46126" lon="17.49751">
        <ele>72.046106</ele>
        <time>2020-10-10T13:59:30.650Z</time>
      </trkpt>
      <trkpt lat="60.46087" lon="17.50207">
        <ele>77.350057</ele>
        <time>2020-10-10T14:00:23.630Z</time>
      </trkpt>
      <trkpt lat="60.4615" lon="17.50631">
        <ele>73.067248</ele>
        <time>2020-10-10T14:01:13.688Z</time>
      </trkpt>
      <trkpt lat="60.46104" lon="17.50967">
        <ele>68.568797</ele>
        <time>2020-10-10T14:02:21.669Z</time>
      </trkpt>
      <trkpt lat="60.45918" lon="17.5081">
        <ele>67.591975</ele>
        <time>2020-10-10T14:03:28.649Z</time>
      </trkpt>
      <trkpt lat="60.45703" lon="17.50802">
        <ele>63.363013</ele>
        <time>2020-10-10T14:04:30.649Z</time>
      </trkpt>
      <trkpt lat="60.45539" lon="17.50843">
        <ele>65.085129</ele>
        <time>2020-10-10T14:08:10.640Z</time>
      </trkpt>
      <trkpt lat="60.45461" lon="17.51179">
        <ele>67.559842</ele>
        <time>2020-10-10T14:11:14.625Z</time>
      </trkpt>
      <trkpt lat="60.45371" lon="17.51247">
        <ele>65.335567</ele>
        <time>2020-10-10T14:15:37.638Z</time>
      </trkpt>
      <trkpt lat="60.45473" lon="17.51009">
        <ele>67.949525</ele>
        <time>2020-10-10T14:18:13.625Z</time>
      </trkpt>
      <trkpt lat="60.45493" lon="17.50974">
        <ele>68.61386</ele>
        <time>2020-10-10T14:29:43.653Z</time>
      </trkpt>
      <trkpt lat="60.45391" lon="17.51269">
        <ele>64.05981</ele>
        <time>2020-10-10T14:35:41.643Z</time>
      </trkpt>
    </trkseg>
  </trk>
  <trk>
    <name><![CDATA[Tour d'Europe: étape 105]]></name>
    <trkseg>
      <trkpt lat="60.4526" lon="17.51277">
        <ele>76.433366</ele>
        <time>2020-10-11T08:15:17.436Z</time>
      </trkpt>
      <trkpt lat="60.45064" lon="17.51116">
        <ele>71.49143</ele>
        <time>2020-10-11T08:22:35.444Z</time>
      </trkpt>
      <trkpt lat="60.44941" lon="17.50936">
        <ele>73.758681</ele>
        <time>2020-10-11T08:33:27.445Z</time>
      </trkpt>
      <trkpt lat="60.44862" lon="17.50567">
        <ele>79.966744</ele>
        <time>2020-10-11T08:34:59.439Z</time>
      </trkpt>
      <trkpt lat="60.44777" lon="17.50171">
        <ele>79.643013</ele>
        <time>2020-10-11T08:36:14.469Z</time>
      </trkpt>
      <trkpt lat="60.44694" lon="17.49785">
        <ele>76.536796</ele>
        <time>2020-10-11T08:37:32.469Z</time>
      </trkpt>
      <trkpt lat="60.44489" lon="17.49846">
        <ele>70.661059</ele>
        <time>2020-10-11T08:38:47.449Z</time>
      </trkpt>
      <trkpt lat="60.44293" lon="17.49803">
        <ele>71.578409</ele>
        <time>2020-10-11T08:40:08.432Z</time>
      </trkpt>
      <trkpt lat="60.44104" lon="17.49922">
        <ele>73.119379</ele>
        <time>2020-10-11T08:41:30.478Z</time>
      </trkpt>
      <trkpt lat="60.43915" lon="17.50094">
        <ele>74.391669</ele>
        <time>2020-10-11T08:42:52.445Z</time>
      </trkpt>
      <trkpt lat="60.43714" lon="17.50184">
        <ele>74.814222</ele>
        <time>2020-10-11T08:44:21.434Z</time>
      </trkpt>
      <trkpt lat="60.43502" lon="17.50233">
        <ele>74.810754</ele>
        <time>2020-10-11T08:45:51.482Z</time>
      </trkpt>
      <trkpt lat="60.433" lon="17.50219">
        <ele>73.889382</ele>
        <time>2020-10-11T08:47:08.480Z</time>
      </trkpt>
      <trkpt lat="60.43177" lon="17.50556">
        <ele>70.812156</ele>
        <time>2020-10-11T08:48:10.446Z</time>
      </trkpt>
      <trkpt lat="60.42998" lon="17.50805">
        <ele>74.40048</ele>
        <time>2020-10-11T08:49:04.471Z</time>
      </trkpt>
      <trkpt lat="60.4288" lon="17.51196">
        <ele>77.488916</ele>
        <time>2020-10-11T08:50:10.478Z</time>
      </trkpt>
      <trkpt lat="60.42829" lon="17.5157">
        <ele>77.729627</ele>
        <time>2020-10-11T08:50:50.436Z</time>
      </trkpt>
      <trkpt lat="60.42666" lon="17.51874">
        <ele>72.487098</ele>
        <time>2020-10-11T08:51:40.461Z</time>
      </trkpt>
      <trkpt lat="60.42597" lon="17.52256">
        <ele>70.174912</ele>
        <time>2020-10-11T08:52:26.445Z</time>
      </trkpt>
      <trkpt lat="60.42414" lon="17.52487">
        <ele>71.275651</ele>
        <time>2020-10-11T08:53:09.438Z</time>
      </trkpt>
      <trkpt lat="60.42336" lon="17.52874">
        <ele>70.820974</ele>
        <time>2020-10-11T08:53:58.438Z</time>
      </trkpt>
      <trkpt lat="60.42323" lon="17.53317">
        <ele>74.59051</ele>
        <time>2020-10-11T08:54:52.448Z</time>
      </trkpt>
      <trkpt lat="60.42176" lon="17.53627">
        <ele>72.108388</ele>
        <time>2020-10-11T08:55:41.438Z</time>
      </trkpt>
      <trkpt lat="60.42011" lon="17.53927">
        <ele>73.653138</ele>
        <time>2020-10-11T08:56:48.438Z</time>
      </trkpt>
      <trkpt lat="60.41881" lon="17.54248">
        <ele>73.531722</ele>
        <time>2020-10-11T08:57:47.474Z</time>
      </trkpt>
      <trkpt lat="60.41777" lon="17.54616">
        <ele>72.900807</ele>
        <time>2020-10-11T08:58:28.437Z</time>
      </trkpt>
      <trkpt lat="60.41631" lon="17.54928">
        <ele>82.546726</ele>
        <time>2020-10-11T08:59:12.479Z</time>
      </trkpt>
      <trkpt lat="60.4153" lon="17.55358">
        <ele>79.793558</ele>
        <time>2020-10-11T09:00:06.491Z</time>
      </trkpt>
      <trkpt lat="60.4144" lon="17.55782">
        <ele>67.803361</ele>
        <time>2020-10-11T09:00:54.462Z</time>
      </trkpt>
      <trkpt lat="60.4134" lon="17.56121">
        <ele>68.095158</ele>
        <time>2020-10-11T09:01:34.467Z</time>
      </trkpt>
      <trkpt lat="60.41154" lon="17.56285">
        <ele>64.843945</ele>
        <time>2020-10-11T09:02:15.446Z</time>
      </trkpt>
      <trkpt lat="60.41037" lon="17.56649">
        <ele>62.48195</ele>
        <time>2020-10-11T09:03:04.449Z</time>
      </trkpt>
      <trkpt lat="60.40902" lon="17.56997">
        <ele>70.248241</ele>
        <time>2020-10-11T09:03:52.451Z</time>
      </trkpt>
      <trkpt lat="60.40879" lon="17.57421">
        <ele>76.832417</ele>
        <time>2020-10-11T09:04:49.471Z</time>
      </trkpt>
      <trkpt lat="60.40784" lon="17.57799">
        <ele>69.363082</ele>
        <time>2020-10-11T09:05:35.457Z</time>
      </trkpt>
      <trkpt lat="60.40657" lon="17.58172">
        <ele>56.635926</ele>
        <time>2020-10-11T09:06:18.452Z</time>
      </trkpt>
      <trkpt lat="60.40426" lon="17.58218">
        <ele>56.495484</ele>
        <time>2020-10-11T09:07:20.433Z</time>
      </trkpt>
      <trkpt lat="60.40207" lon="17.58287">
        <ele>55.940974</ele>
        <time>2020-10-11T09:08:19.480Z</time>
      </trkpt>
      <trkpt lat="60.40085" lon="17.58565">
        <ele>55.405905</ele>
        <time>2020-10-11T09:09:23.476Z</time>
      </trkpt>
      <trkpt lat="60.39885" lon="17.5869">
        <ele>61.769171</ele>
        <time>2020-10-11T09:10:20.451Z</time>
      </trkpt>
      <trkpt lat="60.39732" lon="17.58982">
        <ele>62.270048</ele>
        <time>2020-10-11T09:11:08.437Z</time>
      </trkpt>
      <trkpt lat="60.39527" lon="17.59087">
        <ele>60.302233</ele>
        <time>2020-10-11T09:12:16.453Z</time>
      </trkpt>
      <trkpt lat="60.39364" lon="17.59299">
        <ele>64.118305</ele>
        <time>2020-10-11T09:13:23.464Z</time>
      </trkpt>
      <trkpt lat="60.3918" lon="17.5948">
        <ele>61.538343</ele>
        <time>2020-10-11T09:14:22.489Z</time>
      </trkpt>
      <trkpt lat="60.3898" lon="17.59629">
        <ele>63.730223</ele>
        <time>2020-10-11T09:15:29.449Z</time>
      </trkpt>
      <trkpt lat="60.38835" lon="17.59912">
        <ele>67.695662</ele>
        <time>2020-10-11T09:16:51.469Z</time>
      </trkpt>
      <trkpt lat="60.38763" lon="17.60338">
        <ele>71.310937</ele>
        <time>2020-10-11T09:18:03.452Z</time>
      </trkpt>
      <trkpt lat="60.38653" lon="17.60707">
        <ele>73.771782</ele>
        <time>2020-10-11T09:19:15.466Z</time>
      </trkpt>
      <trkpt lat="60.38628" lon="17.61159">
        <ele>72.286709</ele>
        <time>2020-10-11T09:20:12.454Z</time>
      </trkpt>
      <trkpt lat="60.38528" lon="17.61509">
        <ele>73.164999</ele>
        <time>2020-10-11T09:21:05.468Z</time>
      </trkpt>
      <trkpt lat="60.3841" lon="17.61837">
        <ele>77.962599</ele>
        <time>2020-10-11T09:22:11.468Z</time>
      </trkpt>
      <trkpt lat="60.3822" lon="17.6192">
        <ele>82.524193</ele>
        <time>2020-10-11T09:23:04.469Z</time>
      </trkpt>
      <trkpt lat="60.38038" lon="17.62095">
        <ele>81.396764</ele>
        <time>2020-10-11T09:23:48.452Z</time>
      </trkpt>
      <trkpt lat="60.37898" lon="17.6241">
        <ele>74.928678</ele>
        <time>2020-10-11T09:24:37.460Z</time>
      </trkpt>
      <trkpt lat="60.37807" lon="17.62748">
        <ele>70.265566</ele>
        <time>2020-10-11T09:25:23.455Z</time>
      </trkpt>
      <trkpt lat="60.37671" lon="17.63059">
        <ele>71.017376</ele>
        <time>2020-10-11T09:26:10.448Z</time>
      </trkpt>
      <trkpt lat="60.37506" lon="17.63285">
        <ele>73.226055</ele>
        <time>2020-10-11T09:26:57.447Z</time>
      </trkpt>
      <trkpt lat="60.37351" lon="17.63519">
        <ele>70.702801</ele>
        <time>2020-10-11T09:27:39.459Z</time>
      </trkpt>
      <trkpt lat="60.37137" lon="17.63636">
        <ele>72.371586</ele>
        <time>2020-10-11T09:28:38.459Z</time>
      </trkpt>
      <trkpt lat="60.36963" lon="17.63829">
        <ele>75.406716</ele>
        <time>2020-10-11T09:29:44.481Z</time>
      </trkpt>
      <trkpt lat="60.36846" lon="17.64221">
        <ele>74.57089</ele>
        <time>2020-10-11T09:30:38.441Z</time>
      </trkpt>
      <trkpt lat="60.36697" lon="17.64529">
        <ele>74.225946</ele>
        <time>2020-10-11T09:31:29.476Z</time>
      </trkpt>
      <trkpt lat="60.36471" lon="17.64568">
        <ele>82.388318</ele>
        <time>2020-10-11T09:32:39.472Z</time>
      </trkpt>
      <trkpt lat="60.36267" lon="17.64545">
        <ele>82.603702</ele>
        <time>2020-10-11T09:33:36.516Z</time>
      </trkpt>
      <trkpt lat="60.36052" lon="17.64516">
        <ele>79.142697</ele>
        <time>2020-10-11T09:34:16.461Z</time>
      </trkpt>
      <trkpt lat="60.3584" lon="17.64574">
        <ele>81.250301</ele>
        <time>2020-10-11T09:35:08.462Z</time>
      </trkpt>
      <trkpt lat="60.3563" lon="17.6445">
        <ele>78.177389</ele>
        <time>2020-10-11T09:35:51.484Z</time>
      </trkpt>
      <trkpt lat="60.35413" lon="17.64353">
        <ele>71.946714</ele>
        <time>2020-10-11T09:36:39.497Z</time>
      </trkpt>
      <trkpt lat="60.35225" lon="17.64222">
        <ele>73.391312</ele>
        <time>2020-10-11T09:37:35.465Z</time>
      </trkpt>
      <trkpt lat="60.35054" lon="17.63987">
        <ele>79.919013</ele>
        <time>2020-10-11T09:38:32.468Z</time>
      </trkpt>
      <trkpt lat="60.34858" lon="17.64093">
        <ele>76.598019</ele>
        <time>2020-10-11T09:39:31.474Z</time>
      </trkpt>
      <trkpt lat="60.34678" lon="17.64278">
        <ele>81.145007</ele>
        <time>2020-10-11T09:40:31.505Z</time>
      </trkpt>
      <trkpt lat="60.34461" lon="17.6421">
        <ele>82.294773</ele>
        <time>2020-10-11T09:41:20.453Z</time>
      </trkpt>
      <trkpt lat="60.3425" lon="17.64134">
        <ele>81.949408</ele>
        <time>2020-10-11T09:42:02.463Z</time>
      </trkpt>
      <trkpt lat="60.34036" lon="17.63987">
        <ele>87.373585</ele>
        <time>2020-10-11T09:42:49.455Z</time>
      </trkpt>
      <trkpt lat="60.33816" lon="17.63846">
        <ele>79.81006</ele>
        <time>2020-10-11T09:43:48.453Z</time>
      </trkpt>
      <trkpt lat="60.33662" lon="17.63579">
        <ele>73.050288</ele>
        <time>2020-10-11T09:44:55.492Z</time>
      </trkpt>
      <trkpt lat="60.33641" lon="17.6312">
        <ele>64.164387</ele>
        <time>2020-10-11T09:45:41.449Z</time>
      </trkpt>
      <trkpt lat="60.33551" lon="17.62743">
        <ele>78.656979</ele>
        <time>2020-10-11T09:46:33.459Z</time>
      </trkpt>
      <trkpt lat="60.33373" lon="17.62504">
        <ele>84.544256</ele>
        <time>2020-10-11T09:47:29.515Z</time>
      </trkpt>
      <trkpt lat="60.3318" lon="17.62395">
        <ele>81.295562</ele>
        <time>2020-10-11T09:48:41.456Z</time>
      </trkpt>
      <trkpt lat="60.32971" lon="17.62355">
        <ele>74.743946</ele>
        <time>2020-10-11T09:49:34.485Z</time>
      </trkpt>
      <trkpt lat="60.32761" lon="17.6229">
        <ele>76.70904</ele>
        <time>2020-10-11T09:50:39.474Z</time>
      </trkpt>
      <trkpt lat="60.32543" lon="17.62225">
        <ele>80.390309</ele>
        <time>2020-10-11T09:51:37.459Z</time>
      </trkpt>
      <trkpt lat="60.32288" lon="17.62254">
        <ele>74.72894</ele>
        <time>2020-10-11T09:52:17.605Z</time>
      </trkpt>
      <trkpt lat="60.32082" lon="17.62249">
        <ele>68.186562</ele>
        <time>2020-10-11T09:53:01.495Z</time>
      </trkpt>
      <trkpt lat="60.31988" lon="17.61854">
        <ele>73.540484</ele>
        <time>2020-10-11T09:53:58.499Z</time>
      </trkpt>
      <trkpt lat="60.31831" lon="17.61539">
        <ele>72.357311</ele>
        <time>2020-10-11T09:54:56.492Z</time>
      </trkpt>
      <trkpt lat="60.31653" lon="17.61347">
        <ele>68.175506</ele>
        <time>2020-10-11T09:55:54.474Z</time>
      </trkpt>
      <trkpt lat="60.3143" lon="17.61376">
        <ele>74.745841</ele>
        <time>2020-10-11T09:56:46.465Z</time>
      </trkpt>
      <trkpt lat="60.31227" lon="17.61295">
        <ele>81.654349</ele>
        <time>2020-10-11T09:57:33.471Z</time>
      </trkpt>
      <trkpt lat="60.31039" lon="17.61076">
        <ele>67.147502</ele>
        <time>2020-10-11T09:58:37.459Z</time>
      </trkpt>
      <trkpt lat="60.3082" lon="17.61164">
        <ele>68.508156</ele>
        <time>2020-10-11T09:59:40.459Z</time>
      </trkpt>
      <trkpt lat="60.30643" lon="17.612">
        <ele>75.920703</ele>
        <time>2020-10-11T10:00:53.466Z</time>
      </trkpt>
      <trkpt lat="60.3048" lon="17.61179">
        <ele>78.819015</ele>
        <time>2020-10-11T10:01:58.475Z</time>
      </trkpt>
      <trkpt lat="60.30333" lon="17.61513">
        <ele>80.785269</ele>
        <time>2020-10-11T10:03:04.472Z</time>
      </trkpt>
      <trkpt lat="60.30117" lon="17.61674">
        <ele>88.633003</ele>
        <time>2020-10-11T10:04:07.482Z</time>
      </trkpt>
      <trkpt lat="60.29892" lon="17.61617">
        <ele>88.156299</ele>
        <time>2020-10-11T10:05:02.478Z</time>
      </trkpt>
      <trkpt lat="60.29702" lon="17.61398">
        <ele>82.925159</ele>
        <time>2020-10-11T10:06:00.466Z</time>
      </trkpt>
      <trkpt lat="60.29531" lon="17.61169">
        <ele>81.81469</ele>
        <time>2020-10-11T10:06:46.476Z</time>
      </trkpt>
      <trkpt lat="60.29332" lon="17.60913">
        <ele>74.901972</ele>
        <time>2020-10-11T10:07:28.483Z</time>
      </trkpt>
      <trkpt lat="60.29146" lon="17.60656">
        <ele>76.618586</ele>
        <time>2020-10-11T10:08:22.466Z</time>
      </trkpt>
      <trkpt lat="60.28956" lon="17.60422">
        <ele>78.308085</ele>
        <time>2020-10-11T10:09:22.495Z</time>
      </trkpt>
      <trkpt lat="60.28764" lon="17.60212">
        <ele>84.484801</ele>
        <time>2020-10-11T10:10:31.459Z</time>
      </trkpt>
      <trkpt lat="60.28565" lon="17.60151">
        <ele>78.878826</ele>
        <time>2020-10-11T10:11:36.485Z</time>
      </trkpt>
      <trkpt lat="60.28352" lon="17.60203">
        <ele>82.293906</ele>
        <time>2020-10-11T10:12:47.488Z</time>
      </trkpt>
      <trkpt lat="60.28139" lon="17.60215">
        <ele>87.844512</ele>
        <time>2020-10-11T10:13:48.512Z</time>
      </trkpt>
      <trkpt lat="60.27921" lon="17.60197">
        <ele>87.435676</ele>
        <time>2020-10-11T10:14:39.470Z</time>
      </trkpt>
      <trkpt lat="60.27706" lon="17.60224">
        <ele>79.258039</ele>
        <time>2020-10-11T10:15:19.471Z</time>
      </trkpt>
      <trkpt lat="60.2749" lon="17.60281">
        <ele>80.095432</ele>
        <time>2020-10-11T10:16:06.477Z</time>
      </trkpt>
      <trkpt lat="60.27291" lon="17.60332">
        <ele>80.869103</ele>
        <time>2020-10-11T10:16:55.502Z</time>
      </trkpt>
      <trkpt lat="60.27128" lon="17.60265">
        <ele>78.659451</ele>
        <time>2020-10-11T10:17:45.487Z</time>
      </trkpt>
      <trkpt lat="60.26986" lon="17.60052">
        <ele>68.909232</ele>
        <time>2020-10-11T10:18:39.480Z</time>
      </trkpt>
      <trkpt lat="60.26742" lon="17.60136">
        <ele>67.12268</ele>
        <time>2020-10-11T10:19:39.475Z</time>
      </trkpt>
      <trkpt lat="60.26538" lon="17.6004">
        <ele>69.092809</ele>
        <time>2020-10-11T10:20:31.486Z</time>
      </trkpt>
      <trkpt lat="60.26332" lon="17.59851">
        <ele>62.63753</ele>
        <time>2020-10-11T10:21:30.473Z</time>
      </trkpt>
      <trkpt lat="60.26136" lon="17.59676">
        <ele>67.736785</ele>
        <time>2020-10-11T10:22:41.477Z</time>
      </trkpt>
      <trkpt lat="60.25926" lon="17.59576">
        <ele>78.391249</ele>
        <time>2020-10-11T10:23:58.478Z</time>
      </trkpt>
      <trkpt lat="60.25727" lon="17.59522">
        <ele>79.936186</ele>
        <time>2020-10-11T10:25:12.478Z</time>
      </trkpt>
      <trkpt lat="60.25511" lon="17.5951">
        <ele>76.657829</ele>
        <time>2020-10-11T10:26:14.497Z</time>
      </trkpt>
      <trkpt lat="60.25328" lon="17.59638">
        <ele>75.555252</ele>
        <time>2020-10-11T10:27:14.501Z</time>
      </trkpt>
      <trkpt lat="60.2513" lon="17.59737">
        <ele>77.268975</ele>
        <time>2020-10-11T10:28:19.487Z</time>
      </trkpt>
      <trkpt lat="60.24978" lon="17.60063">
        <ele>81.676877</ele>
        <time>2020-10-11T10:29:16.486Z</time>
      </trkpt>
      <trkpt lat="60.24795" lon="17.60324">
        <ele>85.930275</ele>
        <time>2020-10-11T10:30:06.474Z</time>
      </trkpt>
      <trkpt lat="60.24596" lon="17.60302">
        <ele>77.77613</ele>
        <time>2020-10-11T10:30:58.484Z</time>
      </trkpt>
      <trkpt lat="60.2438" lon="17.60311">
        <ele>63.905957</ele>
        <time>2020-10-11T10:31:54.500Z</time>
      </trkpt>
      <trkpt lat="60.24194" lon="17.60591">
        <ele>68.172345</ele>
        <time>2020-10-11T10:32:57.502Z</time>
      </trkpt>
      <trkpt lat="60.23988" lon="17.60777">
        <ele>71.527796</ele>
        <time>2020-10-11T10:33:44.483Z</time>
      </trkpt>
      <trkpt lat="60.23807" lon="17.60939">
        <ele>65.357996</ele>
        <time>2020-10-11T10:34:43.479Z</time>
      </trkpt>
      <trkpt lat="60.23717" lon="17.60592">
        <ele>68.42306</ele>
        <time>2020-10-11T10:35:53.497Z</time>
      </trkpt>
      <trkpt lat="60.23686" lon="17.60142">
        <ele>66.552475</ele>
        <time>2020-10-11T10:37:03.505Z</time>
      </trkpt>
      <trkpt lat="60.23578" lon="17.59967">
        <ele>69.494808</ele>
        <time>2020-10-11T10:38:11.484Z</time>
      </trkpt>
      <trkpt lat="60.23399" lon="17.59886">
        <ele>66.522303</ele>
        <time>2020-10-11T10:39:13.494Z</time>
      </trkpt>
      <trkpt lat="60.23396" lon="17.59478">
        <ele>67.338834</ele>
        <time>2020-10-11T10:40:16.498Z</time>
      </trkpt>
      <trkpt lat="60.23264" lon="17.59158">
        <ele>73.178206</ele>
        <time>2020-10-11T10:41:43.467Z</time>
      </trkpt>
      <trkpt lat="60.23074" lon="17.59027">
        <ele>77.176435</ele>
        <time>2020-10-11T10:42:35.489Z</time>
      </trkpt>
      <trkpt lat="60.22872" lon="17.59008">
        <ele>79.872498</ele>
        <time>2020-10-11T10:43:37.491Z</time>
      </trkpt>
      <trkpt lat="60.22684" lon="17.58757">
        <ele>73.367431</ele>
        <time>2020-10-11T10:44:27.492Z</time>
      </trkpt>
      <trkpt lat="60.22483" lon="17.5863">
        <ele>71.638628</ele>
        <time>2020-10-11T10:45:26.497Z</time>
      </trkpt>
      <trkpt lat="60.22298" lon="17.58427">
        <ele>69.944328</ele>
        <time>2020-10-11T10:46:22.512Z</time>
      </trkpt>
      <trkpt lat="60.22167" lon="17.58088">
        <ele>69.94645</ele>
        <time>2020-10-11T10:47:13.478Z</time>
      </trkpt>
      <trkpt lat="60.22127" lon="17.57654">
        <ele>72.537572</ele>
        <time>2020-10-11T10:48:24.495Z</time>
      </trkpt>
      <trkpt lat="60.22029" lon="17.57258">
        <ele>74.300281</ele>
        <time>2020-10-11T10:49:27.485Z</time>
      </trkpt>
      <trkpt lat="60.21835" lon="17.57014">
        <ele>77.572142</ele>
        <time>2020-10-11T10:50:31.488Z</time>
      </trkpt>
      <trkpt lat="60.21653" lon="17.56816">
        <ele>81.757845</ele>
        <time>2020-10-11T10:51:42.491Z</time>
      </trkpt>
      <trkpt lat="60.21605" lon="17.56418">
        <ele>83.866102</ele>
        <time>2020-10-11T10:52:45.467Z</time>
      </trkpt>
      <trkpt lat="60.21443" lon="17.56167">
        <ele>83.373813</ele>
        <time>2020-10-11T10:53:34.474Z</time>
      </trkpt>
      <trkpt lat="60.21256" lon="17.55995">
        <ele>90.603866</ele>
        <time>2020-10-11T10:54:33.479Z</time>
      </trkpt>
      <trkpt lat="60.21018" lon="17.56058">
        <ele>73.908955</ele>
        <time>2020-10-11T10:55:27.478Z</time>
      </trkpt>
      <trkpt lat="60.20798" lon="17.56152">
        <ele>69.056869</ele>
        <time>2020-10-11T10:56:27.479Z</time>
      </trkpt>
      <trkpt lat="60.20573" lon="17.56092">
        <ele>66.959148</ele>
        <time>2020-10-11T11:16:13.484Z</time>
      </trkpt>
      <trkpt lat="60.2036" lon="17.56034">
        <ele>67.019839</ele>
        <time>2020-10-11T11:17:14.490Z</time>
      </trkpt>
      <trkpt lat="60.2014" lon="17.55941">
        <ele>65.763196</ele>
        <time>2020-10-11T11:18:17.526Z</time>
      </trkpt>
      <trkpt lat="60.19933" lon="17.56104">
        <ele>63.44007</ele>
        <time>2020-10-11T11:19:17.479Z</time>
      </trkpt>
      <trkpt lat="60.19727" lon="17.56036">
        <ele>61.764383</ele>
        <time>2020-10-11T11:20:17.491Z</time>
      </trkpt>
      <trkpt lat="60.19522" lon="17.56159">
        <ele>61.350452</ele>
        <time>2020-10-11T11:21:15.483Z</time>
      </trkpt>
      <trkpt lat="60.19309" lon="17.56356">
        <ele>61.689441</ele>
        <time>2020-10-11T11:22:20.503Z</time>
      </trkpt>
      <trkpt lat="60.19088" lon="17.56526">
        <ele>58.607692</ele>
        <time>2020-10-11T11:23:19.491Z</time>
      </trkpt>
      <trkpt lat="60.18868" lon="17.56517">
        <ele>59.134634</ele>
        <time>2020-10-11T11:24:16.481Z</time>
      </trkpt>
      <trkpt lat="60.18659" lon="17.56628">
        <ele>59.486941</ele>
        <time>2020-10-11T11:25:08.484Z</time>
      </trkpt>
      <trkpt lat="60.18458" lon="17.56734">
        <ele>58.169075</ele>
        <time>2020-10-11T11:26:09.485Z</time>
      </trkpt>
      <trkpt lat="60.1824" lon="17.56615">
        <ele>56.134644</ele>
        <time>2020-10-11T11:27:06.489Z</time>
      </trkpt>
      <trkpt lat="60.18016" lon="17.56489">
        <ele>55.90008</ele>
        <time>2020-10-11T11:28:04.494Z</time>
      </trkpt>
      <trkpt lat="60.17789" lon="17.56375">
        <ele>54.701965</ele>
        <time>2020-10-11T11:29:01.488Z</time>
      </trkpt>
      <trkpt lat="60.17597" lon="17.56574">
        <ele>56.051292</ele>
        <time>2020-10-11T11:30:02.514Z</time>
      </trkpt>
      <trkpt lat="60.1736" lon="17.56558">
        <ele>53.374118</ele>
        <time>2020-10-11T11:31:00.509Z</time>
      </trkpt>
      <trkpt lat="60.17123" lon="17.56549">
        <ele>51.661345</ele>
        <time>2020-10-11T11:31:57.506Z</time>
      </trkpt>
      <trkpt lat="60.16931" lon="17.56768">
        <ele>52.131677</ele>
        <time>2020-10-11T11:32:53.478Z</time>
      </trkpt>
      <trkpt lat="60.16707" lon="17.5667">
        <ele>52.852702</ele>
        <time>2020-10-11T11:33:52.514Z</time>
      </trkpt>
      <trkpt lat="60.16502" lon="17.56618">
        <ele>53.269138</ele>
        <time>2020-10-11T11:34:49.491Z</time>
      </trkpt>
      <trkpt lat="60.16344" lon="17.56738">
        <ele>51.136669</ele>
        <time>2020-10-11T11:35:47.491Z</time>
      </trkpt>
      <trkpt lat="60.1614" lon="17.5679">
        <ele>50.721605</ele>
        <time>2020-10-11T11:36:47.488Z</time>
      </trkpt>
      <trkpt lat="60.15968" lon="17.56868">
        <ele>54.687346</ele>
        <time>2020-10-11T11:38:00.494Z</time>
      </trkpt>
      <trkpt lat="60.15816" lon="17.56523">
        <ele>54.348444</ele>
        <time>2020-10-11T11:38:48.479Z</time>
      </trkpt>
      <trkpt lat="60.15631" lon="17.56449">
        <ele>52.15985</ele>
        <time>2020-10-11T11:39:44.506Z</time>
      </trkpt>
      <trkpt lat="60.1548" lon="17.56796">
        <ele>48.638554</ele>
        <time>2020-10-11T11:40:41.485Z</time>
      </trkpt>
      <trkpt lat="60.1528" lon="17.5704">
        <ele>47.75496</ele>
        <time>2020-10-11T11:41:41.492Z</time>
      </trkpt>
      <trkpt lat="60.15096" lon="17.57346">
        <ele>49.768815</ele>
        <time>2020-10-11T11:42:44.513Z</time>
      </trkpt>
      <trkpt lat="60.14905" lon="17.57539">
        <ele>49.885217</ele>
        <time>2020-10-11T11:43:44.488Z</time>
      </trkpt>
      <trkpt lat="60.14684" lon="17.57445">
        <ele>48.574178</ele>
        <time>2020-10-11T11:44:36.495Z</time>
      </trkpt>
      <trkpt lat="60.14487" lon="17.57522">
        <ele>54.432345</ele>
        <time>2020-10-11T11:45:51.501Z</time>
      </trkpt>
      <trkpt lat="60.14292" lon="17.57564">
        <ele>58.275176</ele>
        <time>2020-10-11T11:47:02.499Z</time>
      </trkpt>
      <trkpt lat="60.14077" lon="17.57568">
        <ele>61.412611</ele>
        <time>2020-10-11T11:48:20.537Z</time>
      </trkpt>
      <trkpt lat="60.13869" lon="17.57519">
        <ele>73.053305</ele>
        <time>2020-10-11T11:49:34.492Z</time>
      </trkpt>
      <trkpt lat="60.1366" lon="17.57606">
        <ele>70.444763</ele>
        <time>2020-10-11T11:50:29.500Z</time>
      </trkpt>
      <trkpt lat="60.13445" lon="17.57625">
        <ele>65.398868</ele>
        <time>2020-10-11T11:51:14.579Z</time>
      </trkpt>
      <trkpt lat="60.13221" lon="17.57627">
        <ele>57.392482</ele>
        <time>2020-10-11T11:52:02.502Z</time>
      </trkpt>
      <trkpt lat="60.13007" lon="17.57597">
        <ele>63.967331</ele>
        <time>2020-10-11T11:53:05.508Z</time>
      </trkpt>
      <trkpt lat="60.1278" lon="17.57562">
        <ele>63.575774</ele>
        <time>2020-10-11T11:54:07.508Z</time>
      </trkpt>
      <trkpt lat="60.12566" lon="17.57536">
        <ele>56.774872</ele>
        <time>2020-10-11T11:54:53.513Z</time>
      </trkpt>
      <trkpt lat="60.12324" lon="17.57606">
        <ele>55.992919</ele>
        <time>2020-10-11T11:55:46.493Z</time>
      </trkpt>
      <trkpt lat="60.12123" lon="17.57747">
        <ele>57.140473</ele>
        <time>2020-10-11T11:56:39.508Z</time>
      </trkpt>
      <trkpt lat="60.1193" lon="17.57569">
        <ele>62.144902</ele>
        <time>2020-10-11T11:57:49.519Z</time>
      </trkpt>
      <trkpt lat="60.11707" lon="17.57589">
        <ele>55.55782</ele>
        <time>2020-10-11T11:58:33.524Z</time>
      </trkpt>
      <trkpt lat="60.11457" lon="17.5774">
        <ele>48.811354</ele>
        <time>2020-10-11T11:59:15.499Z</time>
      </trkpt>
      <trkpt lat="60.1125" lon="17.57775">
        <ele>53.224443</ele>
        <time>2020-10-11T12:00:13.566Z</time>
      </trkpt>
      <trkpt lat="60.11053" lon="17.5769">
        <ele>60.069176</ele>
        <time>2020-10-11T12:01:12.530Z</time>
      </trkpt>
      <trkpt lat="60.10849" lon="17.57527">
        <ele>57.963602</ele>
        <time>2020-10-11T12:02:00.507Z</time>
      </trkpt>
      <trkpt lat="60.1063" lon="17.57373">
        <ele>58.944778</ele>
        <time>2020-10-11T12:03:02.501Z</time>
      </trkpt>
      <trkpt lat="60.1048" lon="17.57047">
        <ele>58.027717</ele>
        <time>2020-10-11T12:03:58.506Z</time>
      </trkpt>
      <trkpt lat="60.10352" lon="17.56703">
        <ele>59.162421</ele>
        <time>2020-10-11T12:04:58.509Z</time>
      </trkpt>
      <trkpt lat="60.10268" lon="17.56338">
        <ele>64.115694</ele>
        <time>2020-10-11T12:06:13.497Z</time>
      </trkpt>
      <trkpt lat="60.10151" lon="17.55981">
        <ele>61.350712</ele>
        <time>2020-10-11T12:07:05.500Z</time>
      </trkpt>
      <trkpt lat="60.09915" lon="17.55954">
        <ele>58.707899</ele>
        <time>2020-10-11T12:08:03.496Z</time>
      </trkpt>
      <trkpt lat="60.09683" lon="17.56011">
        <ele>63.693566</ele>
        <time>2020-10-11T12:09:02.506Z</time>
      </trkpt>
      <trkpt lat="60.09481" lon="17.55983">
        <ele>71.802244</ele>
        <time>2020-10-11T12:10:06.511Z</time>
      </trkpt>
      <trkpt lat="60.09281" lon="17.55816">
        <ele>71.434892</ele>
        <time>2020-10-11T12:10:59.512Z</time>
      </trkpt>
      <trkpt lat="60.09112" lon="17.55517">
        <ele>69.097809</ele>
        <time>2020-10-11T12:11:54.518Z</time>
      </trkpt>
      <trkpt lat="60.08927" lon="17.55423">
        <ele>72.528122</ele>
        <time>2020-10-11T12:13:00.514Z</time>
      </trkpt>
      <trkpt lat="60.08754" lon="17.55198">
        <ele>74.668359</ele>
        <time>2020-10-11T12:14:03.525Z</time>
      </trkpt>
      <trkpt lat="60.08568" lon="17.55001">
        <ele>73.383888</ele>
        <time>2020-10-11T12:15:55.542Z</time>
      </trkpt>
      <trkpt lat="60.08373" lon="17.54764">
        <ele>67.474277</ele>
        <time>2020-10-11T12:16:41.525Z</time>
      </trkpt>
      <trkpt lat="60.08183" lon="17.54538">
        <ele>70.059258</ele>
        <time>2020-10-11T12:17:34.512Z</time>
      </trkpt>
      <trkpt lat="60.07998" lon="17.54321">
        <ele>77.128849</ele>
        <time>2020-10-11T12:18:50.508Z</time>
      </trkpt>
      <trkpt lat="60.07795" lon="17.54156">
        <ele>72.150238</ele>
        <time>2020-10-11T12:19:50.516Z</time>
      </trkpt>
      <trkpt lat="60.07563" lon="17.54034">
        <ele>72.448843</ele>
        <time>2020-10-11T12:20:48.497Z</time>
      </trkpt>
      <trkpt lat="60.0733" lon="17.54011">
        <ele>64.720755</ele>
        <time>2020-10-11T12:21:43.538Z</time>
      </trkpt>
      <trkpt lat="60.07079" lon="17.54059">
        <ele>66.197086</ele>
        <time>2020-10-11T12:22:43.508Z</time>
      </trkpt>
      <trkpt lat="60.06852" lon="17.54145">
        <ele>68.118724</ele>
        <time>2020-10-11T12:23:38.518Z</time>
      </trkpt>
      <trkpt lat="60.06628" lon="17.54269">
        <ele>60.684451</ele>
        <time>2020-10-11T12:24:29.494Z</time>
      </trkpt>
      <trkpt lat="60.06378" lon="17.54412">
        <ele>53.870902</ele>
        <time>2020-10-11T12:25:11.547Z</time>
      </trkpt>
      <trkpt lat="60.06336" lon="17.54159">
        <ele>61.297387</ele>
        <time>2020-10-11T12:26:13.510Z</time>
      </trkpt>
      <trkpt lat="60.0613" lon="17.54141">
        <ele>69.234331</ele>
        <time>2020-10-11T12:27:34.521Z</time>
      </trkpt>
      <trkpt lat="60.05956" lon="17.54126">
        <ele>66.26343</ele>
        <time>2020-10-11T12:28:49.537Z</time>
      </trkpt>
      <trkpt lat="60.05735" lon="17.54161">
        <ele>63.659444</ele>
        <time>2020-10-11T12:29:51.543Z</time>
      </trkpt>
      <trkpt lat="60.0554" lon="17.54081">
        <ele>72.398185</ele>
        <time>2020-10-11T12:33:44.526Z</time>
      </trkpt>
      <trkpt lat="60.05421" lon="17.5436">
        <ele>71.570213</ele>
        <time>2020-10-11T12:34:50.554Z</time>
      </trkpt>
      <trkpt lat="60.05425" lon="17.54125">
        <ele>70.576655</ele>
        <time>2020-10-11T12:38:02.525Z</time>
      </trkpt>
      <trkpt lat="60.05218" lon="17.54198">
        <ele>62.662026</ele>
        <time>2020-10-11T12:39:11.516Z</time>
      </trkpt>
      <trkpt lat="60.05005" lon="17.54271">
        <ele>63.903499</ele>
        <time>2020-10-11T12:40:07.526Z</time>
      </trkpt>
      <trkpt lat="60.04797" lon="17.54333">
        <ele>68.077758</ele>
        <time>2020-10-11T12:41:22.516Z</time>
      </trkpt>
      <trkpt lat="60.04583" lon="17.54372">
        <ele>67.673515</ele>
        <time>2020-10-11T12:42:36.507Z</time>
      </trkpt>
      <trkpt lat="60.04385" lon="17.54293">
        <ele>69.768615</ele>
        <time>2020-10-11T12:44:03.510Z</time>
      </trkpt>
      <trkpt lat="60.04173" lon="17.54186">
        <ele>68.034194</ele>
        <time>2020-10-11T12:45:19.515Z</time>
      </trkpt>
      <trkpt lat="60.03971" lon="17.54186">
        <ele>66.567318</ele>
        <time>2020-10-11T12:46:21.559Z</time>
      </trkpt>
      <trkpt lat="60.03762" lon="17.54143">
        <ele>63.990168</ele>
        <time>2020-10-11T12:47:28.508Z</time>
      </trkpt>
      <trkpt lat="60.03552" lon="17.5428">
        <ele>61.582308</ele>
        <time>2020-10-11T12:48:25.508Z</time>
      </trkpt>
      <trkpt lat="60.03483" lon="17.53908">
        <ele>54.160333</ele>
        <time>2020-10-11T12:49:07.522Z</time>
      </trkpt>
      <trkpt lat="60.03394" lon="17.53517">
        <ele>55.044033</ele>
        <time>2020-10-11T12:49:50.511Z</time>
      </trkpt>
      <trkpt lat="60.0323" lon="17.53363">
        <ele>56.546926</ele>
        <time>2020-10-11T12:50:38.513Z</time>
      </trkpt>
      <trkpt lat="60.03019" lon="17.53315">
        <ele>56.079076</ele>
        <time>2020-10-11T12:51:28.517Z</time>
      </trkpt>
      <trkpt lat="60.02802" lon="17.5335">
        <ele>56.990132</ele>
        <time>2020-10-11T12:52:28.523Z</time>
      </trkpt>
      <trkpt lat="60.02592" lon="17.53425">
        <ele>57.231325</ele>
        <time>2020-10-11T12:53:16.524Z</time>
      </trkpt>
      <trkpt lat="60.0241" lon="17.53685">
        <ele>55.994806</ele>
        <time>2020-10-11T12:54:10.510Z</time>
      </trkpt>
      <trkpt lat="60.02202" lon="17.53618">
        <ele>53.36693</ele>
        <time>2020-10-11T12:54:57.543Z</time>
      </trkpt>
      <trkpt lat="60.02014" lon="17.53445">
        <ele>52.929331</ele>
        <time>2020-10-11T12:56:00.516Z</time>
      </trkpt>
      <trkpt lat="60.01819" lon="17.53455">
        <ele>53.086588</ele>
        <time>2020-10-11T12:57:00.527Z</time>
      </trkpt>
      <trkpt lat="60.01613" lon="17.53423">
        <ele>53.542802</ele>
        <time>2020-10-11T12:58:07.517Z</time>
      </trkpt>
      <trkpt lat="60.01409" lon="17.53344">
        <ele>52.47546</ele>
        <time>2020-10-11T12:59:07.525Z</time>
      </trkpt>
      <trkpt lat="60.01211" lon="17.53237">
        <ele>53.641629</ele>
        <time>2020-10-11T13:00:15.527Z</time>
      </trkpt>
      <trkpt lat="60.0101" lon="17.53091">
        <ele>54.722314</ele>
        <time>2020-10-11T13:01:27.528Z</time>
      </trkpt>
      <trkpt lat="60.00796" lon="17.52956">
        <ele>53.661144</ele>
        <time>2020-10-11T13:02:27.541Z</time>
      </trkpt>
      <trkpt lat="60.00621" lon="17.52706">
        <ele>54.22807</ele>
        <time>2020-10-11T13:03:27.525Z</time>
      </trkpt>
      <trkpt lat="60.00512" lon="17.52323">
        <ele>50.700189</ele>
        <time>2020-10-11T13:04:27.564Z</time>
      </trkpt>
      <trkpt lat="60.00393" lon="17.51936">
        <ele>51.764919</ele>
        <time>2020-10-11T13:05:30.543Z</time>
      </trkpt>
      <trkpt lat="60.00238" lon="17.51648">
        <ele>57.507937</ele>
        <time>2020-10-11T13:06:45.557Z</time>
      </trkpt>
      <trkpt lat="60.0004" lon="17.51514">
        <ele>61.798842</ele>
        <time>2020-10-11T13:07:47.539Z</time>
      </trkpt>
      <trkpt lat="59.99859" lon="17.51392">
        <ele>58.577603</ele>
        <time>2020-10-11T13:08:36.515Z</time>
      </trkpt>
      <trkpt lat="59.99622" lon="17.51292">
        <ele>52.494688</ele>
        <time>2020-10-11T13:09:19.511Z</time>
      </trkpt>
      <trkpt lat="59.99523" lon="17.51023">
        <ele>50.925361</ele>
        <time>2020-10-11T13:10:01.530Z</time>
      </trkpt>
      <trkpt lat="59.99593" lon="17.50612">
        <ele>52.529236</ele>
        <time>2020-10-11T13:10:57.546Z</time>
      </trkpt>
      <trkpt lat="59.99571" lon="17.50295">
        <ele>54.544184</ele>
        <time>2020-10-11T13:11:47.536Z</time>
      </trkpt>
      <trkpt lat="59.99413" lon="17.50114">
        <ele>53.561705</ele>
        <time>2020-10-11T13:12:47.538Z</time>
      </trkpt>
      <trkpt lat="59.99271" lon="17.50449">
        <ele>53.803044</ele>
        <time>2020-10-11T13:13:39.511Z</time>
      </trkpt>
      <trkpt lat="59.99086" lon="17.50619">
        <ele>54.633156</ele>
        <time>2020-10-11T13:14:36.521Z</time>
      </trkpt>
      <trkpt lat="59.98904" lon="17.50843">
        <ele>58.178127</ele>
        <time>2020-10-11T13:15:30.515Z</time>
      </trkpt>
      <trkpt lat="59.98699" lon="17.50997">
        <ele>59.26957</ele>
        <time>2020-10-11T13:16:29.508Z</time>
      </trkpt>
      <trkpt lat="59.98502" lon="17.51251">
        <ele>55.795402</ele>
        <time>2020-10-11T13:17:23.535Z</time>
      </trkpt>
      <trkpt lat="59.98377" lon="17.51625">
        <ele>55.895805</ele>
        <time>2020-10-11T13:18:16.531Z</time>
      </trkpt>
      <trkpt lat="59.98196" lon="17.51821">
        <ele>57.055772</ele>
        <time>2020-10-11T13:19:00.525Z</time>
      </trkpt>
      <trkpt lat="59.97997" lon="17.5181">
        <ele>52.63991</ele>
        <time>2020-10-11T13:19:42.568Z</time>
      </trkpt>
      <trkpt lat="59.97791" lon="17.52017">
        <ele>50.598786</ele>
        <time>2020-10-11T13:20:36.550Z</time>
      </trkpt>
      <trkpt lat="59.97639" lon="17.52364">
        <ele>51.430965</ele>
        <time>2020-10-11T13:21:32.525Z</time>
      </trkpt>
      <trkpt lat="59.97461" lon="17.5264">
        <ele>54.0537</ele>
        <time>2020-10-11T13:22:32.553Z</time>
      </trkpt>
      <trkpt lat="59.97266" lon="17.52829">
        <ele>53.481306</ele>
        <time>2020-10-11T13:23:20.525Z</time>
      </trkpt>
      <trkpt lat="59.97066" lon="17.53091">
        <ele>54.262967</ele>
        <time>2020-10-11T13:24:19.519Z</time>
      </trkpt>
      <trkpt lat="59.96912" lon="17.53426">
        <ele>57.061315</ele>
        <time>2020-10-11T13:25:18.554Z</time>
      </trkpt>
      <trkpt lat="59.96756" lon="17.53748">
        <ele>57.075622</ele>
        <time>2020-10-11T13:26:20.513Z</time>
      </trkpt>
      <trkpt lat="59.96525" lon="17.54094">
        <ele>52.654948</ele>
        <time>2020-10-11T13:42:55.521Z</time>
      </trkpt>
      <trkpt lat="59.96329" lon="17.54303">
        <ele>55.293784</ele>
        <time>2020-10-11T13:43:55.555Z</time>
      </trkpt>
      <trkpt lat="59.96155" lon="17.54509">
        <ele>56.606991</ele>
        <time>2020-10-11T13:44:53.543Z</time>
      </trkpt>
      <trkpt lat="59.95954" lon="17.54428">
        <ele>51.132432</ele>
        <time>2020-10-11T13:45:37.503Z</time>
      </trkpt>
      <trkpt lat="59.95739" lon="17.54443">
        <ele>49.154623</ele>
        <time>2020-10-11T13:46:25.530Z</time>
      </trkpt>
      <trkpt lat="59.95522" lon="17.54564">
        <ele>53.848884</ele>
        <time>2020-10-11T13:47:30.533Z</time>
      </trkpt>
      <trkpt lat="59.95296" lon="17.54644">
        <ele>64.736487</ele>
        <time>2020-10-11T13:48:47.513Z</time>
      </trkpt>
      <trkpt lat="59.95096" lon="17.54705">
        <ele>60.315391</ele>
        <time>2020-10-11T13:49:32.511Z</time>
      </trkpt>
      <trkpt lat="59.94894" lon="17.54782">
        <ele>58.592444</ele>
        <time>2020-10-11T13:50:22.527Z</time>
      </trkpt>
      <trkpt lat="59.94723" lon="17.54517">
        <ele>58.647414</ele>
        <time>2020-10-11T13:51:15.518Z</time>
      </trkpt>
      <trkpt lat="59.94523" lon="17.54403">
        <ele>56.823679</ele>
        <time>2020-10-11T13:51:57.519Z</time>
      </trkpt>
      <trkpt lat="59.94301" lon="17.54364">
        <ele>54.990282</ele>
        <time>2020-10-11T13:52:45.522Z</time>
      </trkpt>
      <trkpt lat="59.94119" lon="17.54337">
        <ele>52.247259</ele>
        <time>2020-10-11T13:53:25.526Z</time>
      </trkpt>
      <trkpt lat="59.9395" lon="17.54575">
        <ele>49.819224</ele>
        <time>2020-10-11T13:54:07.510Z</time>
      </trkpt>
      <trkpt lat="59.9378" lon="17.54816">
        <ele>47.884397</ele>
        <time>2020-10-11T13:54:49.563Z</time>
      </trkpt>
      <trkpt lat="59.93636" lon="17.55101">
        <ele>46.909117</ele>
        <time>2020-10-11T13:55:33.512Z</time>
      </trkpt>
      <trkpt lat="59.93502" lon="17.55368">
        <ele>45.302106</ele>
        <time>2020-10-11T13:56:13.538Z</time>
      </trkpt>
      <trkpt lat="59.93331" lon="17.55703">
        <ele>46.354961</ele>
        <time>2020-10-11T13:57:12.556Z</time>
      </trkpt>
      <trkpt lat="59.9318" lon="17.56006">
        <ele>49.038314</ele>
        <time>2020-10-11T13:58:19.552Z</time>
      </trkpt>
      <trkpt lat="59.93023" lon="17.56315">
        <ele>49.271192</ele>
        <time>2020-10-11T13:59:18.546Z</time>
      </trkpt>
      <trkpt lat="59.9287" lon="17.56621">
        <ele>46.404427</ele>
        <time>2020-10-11T14:00:05.536Z</time>
      </trkpt>
      <trkpt lat="59.92671" lon="17.56798">
        <ele>44.499978</ele>
        <time>2020-10-11T14:00:59.558Z</time>
      </trkpt>
      <trkpt lat="59.92456" lon="17.56657">
        <ele>43.481618</ele>
        <time>2020-10-11T14:01:54.559Z</time>
      </trkpt>
      <trkpt lat="59.92214" lon="17.56466">
        <ele>42.241276</ele>
        <time>2020-10-11T14:02:56.538Z</time>
      </trkpt>
      <trkpt lat="59.91978" lon="17.56422">
        <ele>44.914697</ele>
        <time>2020-10-11T14:03:52.534Z</time>
      </trkpt>
      <trkpt lat="59.9178" lon="17.56649">
        <ele>45.256924</ele>
        <time>2020-10-11T14:04:52.536Z</time>
      </trkpt>
      <trkpt lat="59.91635" lon="17.56981">
        <ele>43.853774</ele>
        <time>2020-10-11T14:05:52.521Z</time>
      </trkpt>
      <trkpt lat="59.91539" lon="17.57349">
        <ele>42.538859</ele>
        <time>2020-10-11T14:06:45.540Z</time>
      </trkpt>
      <trkpt lat="59.9134" lon="17.57519">
        <ele>41.014057</ele>
        <time>2020-10-11T14:07:37.570Z</time>
      </trkpt>
      <trkpt lat="59.91326" lon="17.57886">
        <ele>48.262279</ele>
        <time>2020-10-11T14:08:37.545Z</time>
      </trkpt>
      <trkpt lat="59.91192" lon="17.58201">
        <ele>48.114661</ele>
        <time>2020-10-11T14:09:42.533Z</time>
      </trkpt>
      <trkpt lat="59.91086" lon="17.5858">
        <ele>47.376604</ele>
        <time>2020-10-11T14:10:53.533Z</time>
      </trkpt>
      <trkpt lat="59.90971" lon="17.58952">
        <ele>48.153648</ele>
        <time>2020-10-11T14:11:53.532Z</time>
      </trkpt>
      <trkpt lat="59.90843" lon="17.59336">
        <ele>47.908072</ele>
        <time>2020-10-11T14:12:53.527Z</time>
      </trkpt>
      <trkpt lat="59.90803" lon="17.59811">
        <ele>44.824047</ele>
        <time>2020-10-11T14:13:52.533Z</time>
      </trkpt>
      <trkpt lat="59.90951" lon="17.60181">
        <ele>42.442552</ele>
        <time>2020-10-11T14:14:39.526Z</time>
      </trkpt>
      <trkpt lat="59.91139" lon="17.60509">
        <ele>41.72439</ele>
        <time>2020-10-11T14:15:26.524Z</time>
      </trkpt>
      <trkpt lat="59.91036" lon="17.6074">
        <ele>41.564532</ele>
        <time>2020-10-11T14:16:21.529Z</time>
      </trkpt>
      <trkpt lat="59.90805" lon="17.60852">
        <ele>41.559839</ele>
        <time>2020-10-11T14:17:21.536Z</time>
      </trkpt>
      <trkpt lat="59.90614" lon="17.60946">
        <ele>47.119287</ele>
        <time>2020-10-11T14:18:23.526Z</time>
      </trkpt>
      <trkpt lat="59.90431" lon="17.61133">
        <ele>45.342438</ele>
        <time>2020-10-11T14:19:22.581Z</time>
      </trkpt>
      <trkpt lat="59.90345" lon="17.61546">
        <ele>42.396531</ele>
        <time>2020-10-11T14:20:16.518Z</time>
      </trkpt>
      <trkpt lat="59.9023" lon="17.61916">
        <ele>41.871655</ele>
        <time>2020-10-11T14:21:08.538Z</time>
      </trkpt>
      <trkpt lat="59.90105" lon="17.62321">
        <ele>43.019212</ele>
        <time>2020-10-11T14:22:06.544Z</time>
      </trkpt>
      <trkpt lat="59.90103" lon="17.62758">
        <ele>47.200777</ele>
        <time>2020-10-11T14:23:13.535Z</time>
      </trkpt>
      <trkpt lat="59.90126" lon="17.63173">
        <ele>46.510327</ele>
        <time>2020-10-11T14:23:58.567Z</time>
      </trkpt>
      <trkpt lat="59.89941" lon="17.63086">
        <ele>55.262679</ele>
        <time>2020-10-11T14:29:52.529Z</time>
      </trkpt>
      <trkpt lat="59.89798" lon="17.63121">
        <ele>54.138779</ele>
        <time>2020-10-11T14:31:05.533Z</time>
      </trkpt>
      <trkpt lat="59.89667" lon="17.62817">
        <ele>50.896942</ele>
        <time>2020-10-11T14:32:05.534Z</time>
      </trkpt>
      <trkpt lat="59.89452" lon="17.6268">
        <ele>51.06085</ele>
        <time>2020-10-11T14:33:12.530Z</time>
      </trkpt>
      <trkpt lat="59.89316" lon="17.62342">
        <ele>46.185258</ele>
        <time>2020-10-11T14:34:05.541Z</time>
      </trkpt>
      <trkpt lat="59.89115" lon="17.62416">
        <ele>51.865277</ele>
        <time>2020-10-11T14:35:09.556Z</time>
      </trkpt>
      <trkpt lat="59.88911" lon="17.62464">
        <ele>47.961178</ele>
        <time>2020-10-11T14:36:00.533Z</time>
      </trkpt>
      <trkpt lat="59.88672" lon="17.62555">
        <ele>47.003763</ele>
        <time>2020-10-11T14:37:01.539Z</time>
      </trkpt>
      <trkpt lat="59.88445" lon="17.62552">
        <ele>41.631684</ele>
        <time>2020-10-11T14:37:52.546Z</time>
      </trkpt>
      <trkpt lat="59.88216" lon="17.62582">
        <ele>47.599203</ele>
        <time>2020-10-11T14:38:53.566Z</time>
      </trkpt>
      <trkpt lat="59.88007" lon="17.62692">
        <ele>50.219696</ele>
        <time>2020-10-11T14:39:38.546Z</time>
      </trkpt>
      <trkpt lat="59.8786" lon="17.62526">
        <ele>49.300632</ele>
        <time>2020-10-11T14:40:48.557Z</time>
      </trkpt>
      <trkpt lat="59.87681" lon="17.62437">
        <ele>48.543747</ele>
        <time>2020-10-11T14:42:09.541Z</time>
      </trkpt>
      <trkpt lat="59.87489" lon="17.62459">
        <ele>47.3297</ele>
        <time>2020-10-11T14:43:21.547Z</time>
      </trkpt>
      <trkpt lat="59.87295" lon="17.62592">
        <ele>43.66939</ele>
        <time>2020-10-11T14:58:04.543Z</time>
      </trkpt>
      <trkpt lat="59.87071" lon="17.62717">
        <ele>45.367629</ele>
        <time>2020-10-11T14:59:01.534Z</time>
      </trkpt>
      <trkpt lat="59.86847" lon="17.62839">
        <ele>38.975667</ele>
        <time>2020-10-11T15:00:16.570Z</time>
      </trkpt>
      <trkpt lat="59.8665" lon="17.62992">
        <ele>34.375552</ele>
        <time>2020-10-11T15:01:08.585Z</time>
      </trkpt>
      <trkpt lat="59.86452" lon="17.63036">
        <ele>39.575081</ele>
        <time>2020-10-11T15:02:10.552Z</time>
      </trkpt>
      <trkpt lat="59.86256" lon="17.63093">
        <ele>47.66959</ele>
        <time>2020-10-11T15:03:20.542Z</time>
      </trkpt>
      <trkpt lat="59.86074" lon="17.62887">
        <ele>63.576666</ele>
        <time>2020-10-11T15:04:34.564Z</time>
      </trkpt>
      <trkpt lat="59.8594" lon="17.62563">
        <ele>49.987401</ele>
        <time>2020-10-11T15:05:43.572Z</time>
      </trkpt>
      <trkpt lat="59.85792" lon="17.62449">
        <ele>49.675504</ele>
        <time>2020-10-11T15:07:05.540Z</time>
      </trkpt>
      <trkpt lat="59.85643" lon="17.62224">
        <ele>50.424618</ele>
        <time>2020-10-11T15:08:23.572Z</time>
      </trkpt>
      <trkpt lat="59.85632" lon="17.61926">
        <ele>62.042685</ele>
        <time>2020-10-11T15:09:38.559Z</time>
      </trkpt>
      <trkpt lat="59.85614" lon="17.61842">
        <ele>64.76557</ele>
        <time>2020-10-11T15:11:08.563Z</time>
      </trkpt>
    </trkseg>
  </trk>
  <trk>
    <name><![CDATA[Tour d'Europe: étape 106]]></name>
    <trkseg>
      <trkpt lat="59.85799" lon="17.61954">
        <ele>50.996864</ele>
        <time>2020-10-12T07:39:02.332Z</time>
      </trkpt>
      <trkpt lat="59.85802" lon="17.62356">
        <ele>52.496229</ele>
        <time>2020-10-12T07:42:00.322Z</time>
      </trkpt>
      <trkpt lat="59.85848" lon="17.62705">
        <ele>60.463829</ele>
        <time>2020-10-12T07:43:18.366Z</time>
      </trkpt>
      <trkpt lat="59.85987" lon="17.63019">
        <ele>62.315508</ele>
        <time>2020-10-12T07:44:14.311Z</time>
      </trkpt>
      <trkpt lat="59.8588" lon="17.63366">
        <ele>54.933956</ele>
        <time>2020-10-12T07:45:03.351Z</time>
      </trkpt>
      <trkpt lat="59.85809" lon="17.63746">
        <ele>47.509</ele>
        <time>2020-10-12T07:46:05.324Z</time>
      </trkpt>
      <trkpt lat="59.8563" lon="17.64015">
        <ele>51.605459</ele>
        <time>2020-10-12T07:47:00.321Z</time>
      </trkpt>
      <trkpt lat="59.85445" lon="17.64291">
        <ele>46.264012</ele>
        <time>2020-10-12T07:48:44.353Z</time>
      </trkpt>
      <trkpt lat="59.85265" lon="17.64477">
        <ele>35.970012</ele>
        <time>2020-10-12T07:49:30.318Z</time>
      </trkpt>
      <trkpt lat="59.85298" lon="17.64805">
        <ele>42.156136</ele>
        <time>2020-10-12T07:50:27.333Z</time>
      </trkpt>
      <trkpt lat="59.85438" lon="17.65109">
        <ele>48.08047</ele>
        <time>2020-10-12T07:51:25.352Z</time>
      </trkpt>
      <trkpt lat="59.85604" lon="17.65424">
        <ele>42.903751</ele>
        <time>2020-10-12T07:52:28.365Z</time>
      </trkpt>
      <trkpt lat="59.85567" lon="17.65708">
        <ele>41.586435</ele>
        <time>2020-10-12T07:53:33.323Z</time>
      </trkpt>
      <trkpt lat="59.85395" lon="17.66037">
        <ele>43.362134</ele>
        <time>2020-10-12T07:54:31.354Z</time>
      </trkpt>
      <trkpt lat="59.85276" lon="17.66441">
        <ele>45.360453</ele>
        <time>2020-10-12T07:55:29.381Z</time>
      </trkpt>
      <trkpt lat="59.85129" lon="17.66643">
        <ele>43.700573</ele>
        <time>2020-10-12T07:56:28.319Z</time>
      </trkpt>
      <trkpt lat="59.84924" lon="17.66766">
        <ele>43.749399</ele>
        <time>2020-10-12T07:57:22.310Z</time>
      </trkpt>
      <trkpt lat="59.84823" lon="17.67122">
        <ele>43.634496</ele>
        <time>2020-10-12T07:58:07.319Z</time>
      </trkpt>
      <trkpt lat="59.84671" lon="17.67472">
        <ele>42.689516</ele>
        <time>2020-10-12T07:59:05.380Z</time>
      </trkpt>
      <trkpt lat="59.8453" lon="17.67667">
        <ele>35.416795</ele>
        <time>2020-10-12T08:00:09.347Z</time>
      </trkpt>
      <trkpt lat="59.84467" lon="17.68151">
        <ele>32.116915</ele>
        <time>2020-10-12T08:01:09.341Z</time>
      </trkpt>
      <trkpt lat="59.84398" lon="17.68596">
        <ele>35.195013</ele>
        <time>2020-10-12T08:02:04.339Z</time>
      </trkpt>
      <trkpt lat="59.84343" lon="17.69033">
        <ele>33.778492</ele>
        <time>2020-10-12T08:03:28.321Z</time>
      </trkpt>
      <trkpt lat="59.84112" lon="17.68989">
        <ele>31.672375</ele>
        <time>2020-10-12T08:04:21.346Z</time>
      </trkpt>
      <trkpt lat="59.83866" lon="17.69007">
        <ele>30.043503</ele>
        <time>2020-10-12T08:05:21.326Z</time>
      </trkpt>
      <trkpt lat="59.83631" lon="17.69193">
        <ele>30.618676</ele>
        <time>2020-10-12T08:06:22.336Z</time>
      </trkpt>
      <trkpt lat="59.83408" lon="17.69334">
        <ele>31.864932</ele>
        <time>2020-10-12T08:07:22.321Z</time>
      </trkpt>
      <trkpt lat="59.8324" lon="17.69679">
        <ele>33.118232</ele>
        <time>2020-10-12T08:08:22.332Z</time>
      </trkpt>
      <trkpt lat="59.83127" lon="17.70068">
        <ele>33.737855</ele>
        <time>2020-10-12T08:09:15.328Z</time>
      </trkpt>
      <trkpt lat="59.8301" lon="17.70513">
        <ele>34.012099</ele>
        <time>2020-10-12T08:10:13.312Z</time>
      </trkpt>
      <trkpt lat="59.82918" lon="17.70866">
        <ele>33.725642</ele>
        <time>2020-10-12T08:10:57.353Z</time>
      </trkpt>
      <trkpt lat="59.82846" lon="17.7131">
        <ele>31.141831</ele>
        <time>2020-10-12T08:11:50.340Z</time>
      </trkpt>
      <trkpt lat="59.82771" lon="17.7176">
        <ele>31.541967</ele>
        <time>2020-10-12T08:12:45.329Z</time>
      </trkpt>
      <trkpt lat="59.82693" lon="17.72202">
        <ele>32.536918</ele>
        <time>2020-10-12T08:13:38.347Z</time>
      </trkpt>
      <trkpt lat="59.8264" lon="17.72651">
        <ele>32.072265</ele>
        <time>2020-10-12T08:14:30.345Z</time>
      </trkpt>
      <trkpt lat="59.82572" lon="17.73053">
        <ele>30.817821</ele>
        <time>2020-10-12T08:15:20.320Z</time>
      </trkpt>
      <trkpt lat="59.82377" lon="17.73319">
        <ele>33.23228</ele>
        <time>2020-10-12T08:16:20.333Z</time>
      </trkpt>
      <trkpt lat="59.82207" lon="17.73548">
        <ele>39.633467</ele>
        <time>2020-10-12T08:17:33.363Z</time>
      </trkpt>
      <trkpt lat="59.82035" lon="17.7377">
        <ele>49.06811</ele>
        <time>2020-10-12T08:19:02.331Z</time>
      </trkpt>
      <trkpt lat="59.81848" lon="17.7399">
        <ele>48.595966</ele>
        <time>2020-10-12T08:19:56.328Z</time>
      </trkpt>
      <trkpt lat="59.81653" lon="17.74214">
        <ele>46.792609</ele>
        <time>2020-10-12T08:20:47.333Z</time>
      </trkpt>
      <trkpt lat="59.81457" lon="17.74603">
        <ele>37.994767</ele>
        <time>2020-10-12T08:21:27.324Z</time>
      </trkpt>
      <trkpt lat="59.81296" lon="17.74939">
        <ele>32.474752</ele>
        <time>2020-10-12T08:22:07.328Z</time>
      </trkpt>
      <trkpt lat="59.81151" lon="17.75245">
        <ele>32.402191</ele>
        <time>2020-10-12T08:22:49.357Z</time>
      </trkpt>
      <trkpt lat="59.81018" lon="17.75516">
        <ele>32.800992</ele>
        <time>2020-10-12T08:23:29.348Z</time>
      </trkpt>
      <trkpt lat="59.80806" lon="17.7565">
        <ele>36.199144</ele>
        <time>2020-10-12T08:24:22.339Z</time>
      </trkpt>
      <trkpt lat="59.80615" lon="17.75777">
        <ele>35.253896</ele>
        <time>2020-10-12T08:25:22.325Z</time>
      </trkpt>
      <trkpt lat="59.8052" lon="17.76165">
        <ele>44.466202</ele>
        <time>2020-10-12T08:26:18.374Z</time>
      </trkpt>
      <trkpt lat="59.80479" lon="17.76574">
        <ele>39.777094</ele>
        <time>2020-10-12T08:27:02.336Z</time>
      </trkpt>
      <trkpt lat="59.80326" lon="17.76973">
        <ele>31.927562</ele>
        <time>2020-10-12T08:28:01.326Z</time>
      </trkpt>
      <trkpt lat="59.80154" lon="17.77332">
        <ele>34.87996</ele>
        <time>2020-10-12T08:29:01.318Z</time>
      </trkpt>
      <trkpt lat="59.79979" lon="17.77673">
        <ele>42.52743</ele>
        <time>2020-10-12T08:30:01.348Z</time>
      </trkpt>
      <trkpt lat="59.79809" lon="17.77944">
        <ele>47.076255</ele>
        <time>2020-10-12T08:31:04.370Z</time>
      </trkpt>
      <trkpt lat="59.7969" lon="17.7828">
        <ele>49.206927</ele>
        <time>2020-10-12T08:31:49.330Z</time>
      </trkpt>
      <trkpt lat="59.79589" lon="17.78599">
        <ele>45.253446</ele>
        <time>2020-10-12T08:32:29.351Z</time>
      </trkpt>
      <trkpt lat="59.79448" lon="17.78866">
        <ele>42.575995</ele>
        <time>2020-10-12T08:33:11.326Z</time>
      </trkpt>
      <trkpt lat="59.79314" lon="17.78587">
        <ele>54.954323</ele>
        <time>2020-10-12T08:35:19.324Z</time>
      </trkpt>
      <trkpt lat="59.79122" lon="17.7848">
        <ele>63.364202</ele>
        <time>2020-10-12T08:36:42.382Z</time>
      </trkpt>
      <trkpt lat="59.78924" lon="17.78539">
        <ele>58.588511</ele>
        <time>2020-10-12T08:37:41.342Z</time>
      </trkpt>
      <trkpt lat="59.78749" lon="17.78777">
        <ele>60.202015</ele>
        <time>2020-10-12T08:38:23.326Z</time>
      </trkpt>
      <trkpt lat="59.78548" lon="17.78818">
        <ele>61.663799</ele>
        <time>2020-10-12T08:39:23.320Z</time>
      </trkpt>
      <trkpt lat="59.78309" lon="17.78633">
        <ele>52.650961</ele>
        <time>2020-10-12T08:40:14.360Z</time>
      </trkpt>
      <trkpt lat="59.78109" lon="17.78486">
        <ele>48.790968</ele>
        <time>2020-10-12T08:40:55.342Z</time>
      </trkpt>
      <trkpt lat="59.77912" lon="17.78319">
        <ele>46.91221</ele>
        <time>2020-10-12T08:41:35.356Z</time>
      </trkpt>
      <trkpt lat="59.77763" lon="17.78015">
        <ele>47.827823</ele>
        <time>2020-10-12T08:42:24.344Z</time>
      </trkpt>
      <trkpt lat="59.77594" lon="17.7774">
        <ele>55.751361</ele>
        <time>2020-10-12T08:43:41.326Z</time>
      </trkpt>
      <trkpt lat="59.77426" lon="17.77502">
        <ele>56.150769</ele>
        <time>2020-10-12T08:44:51.334Z</time>
      </trkpt>
      <trkpt lat="59.7724" lon="17.77282">
        <ele>65.138955</ele>
        <time>2020-10-12T08:45:51.369Z</time>
      </trkpt>
      <trkpt lat="59.77077" lon="17.77065">
        <ele>79.862748</ele>
        <time>2020-10-12T08:47:27.347Z</time>
      </trkpt>
      <trkpt lat="59.7686" lon="17.7698">
        <ele>78.654205</ele>
        <time>2020-10-12T08:48:41.329Z</time>
      </trkpt>
      <trkpt lat="59.76601" lon="17.76746">
        <ele>55.799126</ele>
        <time>2020-10-12T08:49:23.333Z</time>
      </trkpt>
      <trkpt lat="59.7642" lon="17.76499">
        <ele>53.255158</ele>
        <time>2020-10-12T08:50:11.318Z</time>
      </trkpt>
      <trkpt lat="59.76206" lon="17.76281">
        <ele>51.888258</ele>
        <time>2020-10-12T08:50:57.343Z</time>
      </trkpt>
      <trkpt lat="59.76" lon="17.7633">
        <ele>52.974467</ele>
        <time>2020-10-12T08:51:39.351Z</time>
      </trkpt>
      <trkpt lat="59.75866" lon="17.76049">
        <ele>54.673185</ele>
        <time>2020-10-12T08:53:03.354Z</time>
      </trkpt>
      <trkpt lat="59.75622" lon="17.76185">
        <ele>49.53414</ele>
        <time>2020-10-12T08:53:43.366Z</time>
      </trkpt>
      <trkpt lat="59.75396" lon="17.76188">
        <ele>52.419913</ele>
        <time>2020-10-12T08:54:23.328Z</time>
      </trkpt>
      <trkpt lat="59.75183" lon="17.76244">
        <ele>56.153992</ele>
        <time>2020-10-12T08:55:27.334Z</time>
      </trkpt>
      <trkpt lat="59.74989" lon="17.76059">
        <ele>51.460899</ele>
        <time>2020-10-12T08:56:24.343Z</time>
      </trkpt>
      <trkpt lat="59.74773" lon="17.76087">
        <ele>43.164646</ele>
        <time>2020-10-12T08:57:09.334Z</time>
      </trkpt>
      <trkpt lat="59.74557" lon="17.76086">
        <ele>49.933018</ele>
        <time>2020-10-12T08:58:18.333Z</time>
      </trkpt>
      <trkpt lat="59.74362" lon="17.76177">
        <ele>57.586359</ele>
        <time>2020-10-12T08:59:49.324Z</time>
      </trkpt>
      <trkpt lat="59.74184" lon="17.75956">
        <ele>50.569512</ele>
        <time>2020-10-12T09:00:47.333Z</time>
      </trkpt>
      <trkpt lat="59.73959" lon="17.75803">
        <ele>44.337106</ele>
        <time>2020-10-12T09:01:29.342Z</time>
      </trkpt>
      <trkpt lat="59.73826" lon="17.76083">
        <ele>42.669304</ele>
        <time>2020-10-12T09:02:24.353Z</time>
      </trkpt>
      <trkpt lat="59.73669" lon="17.76421">
        <ele>39.30521</ele>
        <time>2020-10-12T09:03:05.344Z</time>
      </trkpt>
      <trkpt lat="59.73573" lon="17.76803">
        <ele>37.221902</ele>
        <time>2020-10-12T09:03:50.345Z</time>
      </trkpt>
      <trkpt lat="59.73491" lon="17.77248">
        <ele>41.070715</ele>
        <time>2020-10-12T09:04:50.357Z</time>
      </trkpt>
      <trkpt lat="59.73338" lon="17.77641">
        <ele>42.869096</ele>
        <time>2020-10-12T09:05:35.334Z</time>
      </trkpt>
      <trkpt lat="59.73169" lon="17.7792">
        <ele>47.847446</ele>
        <time>2020-10-12T09:06:24.368Z</time>
      </trkpt>
      <trkpt lat="59.73005" lon="17.78089">
        <ele>56.551979</ele>
        <time>2020-10-12T09:07:49.345Z</time>
      </trkpt>
      <trkpt lat="59.72944" lon="17.78309">
        <ele>51.365247</ele>
        <time>2020-10-12T09:08:48.344Z</time>
      </trkpt>
      <trkpt lat="59.72994" lon="17.7875">
        <ele>46.561304</ele>
        <time>2020-10-12T09:09:58.358Z</time>
      </trkpt>
      <trkpt lat="59.73078" lon="17.78711">
        <ele>43.477461</ele>
        <time>2020-10-12T09:10:45.332Z</time>
      </trkpt>
      <trkpt lat="59.72984" lon="17.78608">
        <ele>40.336774</ele>
        <time>2020-10-12T09:36:56.377Z</time>
      </trkpt>
      <trkpt lat="59.72774" lon="17.78654">
        <ele>41.118618</ele>
        <time>2020-10-12T09:37:57.375Z</time>
      </trkpt>
      <trkpt lat="59.72563" lon="17.78763">
        <ele>46.889108</ele>
        <time>2020-10-12T09:38:55.373Z</time>
      </trkpt>
      <trkpt lat="59.72382" lon="17.78952">
        <ele>48.671346</ele>
        <time>2020-10-12T09:39:46.392Z</time>
      </trkpt>
      <trkpt lat="59.72349" lon="17.79327">
        <ele>52.133736</ele>
        <time>2020-10-12T09:41:25.348Z</time>
      </trkpt>
      <trkpt lat="59.72179" lon="17.796">
        <ele>51.294669</ele>
        <time>2020-10-12T09:42:08.393Z</time>
      </trkpt>
      <trkpt lat="59.71971" lon="17.79712">
        <ele>48.316723</ele>
        <time>2020-10-12T09:43:04.386Z</time>
      </trkpt>
      <trkpt lat="59.71819" lon="17.8003">
        <ele>46.585294</ele>
        <time>2020-10-12T09:43:56.352Z</time>
      </trkpt>
      <trkpt lat="59.71662" lon="17.80225">
        <ele>47.389687</ele>
        <time>2020-10-12T09:45:06.390Z</time>
      </trkpt>
      <trkpt lat="59.7145" lon="17.80175">
        <ele>44.729554</ele>
        <time>2020-10-12T09:45:59.389Z</time>
      </trkpt>
      <trkpt lat="59.71238" lon="17.80234">
        <ele>46.654</ele>
        <time>2020-10-12T09:46:56.382Z</time>
      </trkpt>
      <trkpt lat="59.71022" lon="17.8017">
        <ele>45.912763</ele>
        <time>2020-10-12T09:47:38.367Z</time>
      </trkpt>
      <trkpt lat="59.7082" lon="17.8031">
        <ele>41.89731</ele>
        <time>2020-10-12T09:48:18.394Z</time>
      </trkpt>
      <trkpt lat="59.70644" lon="17.80478">
        <ele>49.234619</ele>
        <time>2020-10-12T09:49:19.333Z</time>
      </trkpt>
      <trkpt lat="59.70464" lon="17.80662">
        <ele>57.956204</ele>
        <time>2020-10-12T09:50:40.343Z</time>
      </trkpt>
      <trkpt lat="59.70272" lon="17.80693">
        <ele>55.011209</ele>
        <time>2020-10-12T09:51:34.352Z</time>
      </trkpt>
      <trkpt lat="59.70092" lon="17.80506">
        <ele>48.78685</ele>
        <time>2020-10-12T09:52:35.360Z</time>
      </trkpt>
      <trkpt lat="59.699" lon="17.80568">
        <ele>47.627038</ele>
        <time>2020-10-12T09:53:16.352Z</time>
      </trkpt>
      <trkpt lat="59.6972" lon="17.80707">
        <ele>48.675428</ele>
        <time>2020-10-12T09:53:57.345Z</time>
      </trkpt>
      <trkpt lat="59.69555" lon="17.80901">
        <ele>49.047992</ele>
        <time>2020-10-12T09:54:37.344Z</time>
      </trkpt>
      <trkpt lat="59.69399" lon="17.81152">
        <ele>50.255103</ele>
        <time>2020-10-12T09:55:19.351Z</time>
      </trkpt>
      <trkpt lat="59.69237" lon="17.81422">
        <ele>49.460908</ele>
        <time>2020-10-12T09:55:59.340Z</time>
      </trkpt>
      <trkpt lat="59.69042" lon="17.81587">
        <ele>45.994393</ele>
        <time>2020-10-12T09:56:39.344Z</time>
      </trkpt>
      <trkpt lat="59.68819" lon="17.81545">
        <ele>42.306357</ele>
        <time>2020-10-12T09:57:20.383Z</time>
      </trkpt>
      <trkpt lat="59.68585" lon="17.81494">
        <ele>43.935592</ele>
        <time>2020-10-12T09:58:20.343Z</time>
      </trkpt>
      <trkpt lat="59.68394" lon="17.81753">
        <ele>47.470327</ele>
        <time>2020-10-12T09:59:14.355Z</time>
      </trkpt>
      <trkpt lat="59.68253" lon="17.82089">
        <ele>54.160925</ele>
        <time>2020-10-12T10:00:09.343Z</time>
      </trkpt>
      <trkpt lat="59.68112" lon="17.82424">
        <ele>57.956871</ele>
        <time>2020-10-12T10:01:03.340Z</time>
      </trkpt>
      <trkpt lat="59.67982" lon="17.8276">
        <ele>64.811127</ele>
        <time>2020-10-12T10:02:18.378Z</time>
      </trkpt>
      <trkpt lat="59.6778" lon="17.82838">
        <ele>72.547135</ele>
        <time>2020-10-12T10:03:44.353Z</time>
      </trkpt>
      <trkpt lat="59.67618" lon="17.83113">
        <ele>64.948555</ele>
        <time>2020-10-12T10:04:43.349Z</time>
      </trkpt>
      <trkpt lat="59.6746" lon="17.83394">
        <ele>61.777014</ele>
        <time>2020-10-12T10:05:36.367Z</time>
      </trkpt>
      <trkpt lat="59.67326" lon="17.83713">
        <ele>69.463613</ele>
        <time>2020-10-12T10:06:28.364Z</time>
      </trkpt>
      <trkpt lat="59.67136" lon="17.83992">
        <ele>59.396216</ele>
        <time>2020-10-12T10:07:08.348Z</time>
      </trkpt>
      <trkpt lat="59.66925" lon="17.84155">
        <ele>58.92324</ele>
        <time>2020-10-12T10:08:10.349Z</time>
      </trkpt>
      <trkpt lat="59.66723" lon="17.84386">
        <ele>64.87537</ele>
        <time>2020-10-12T10:09:03.345Z</time>
      </trkpt>
      <trkpt lat="59.6656" lon="17.84658">
        <ele>49.008684</ele>
        <time>2020-10-12T10:09:52.347Z</time>
      </trkpt>
      <trkpt lat="59.66491" lon="17.85104">
        <ele>44.723267</ele>
        <time>2020-10-12T10:10:35.342Z</time>
      </trkpt>
      <trkpt lat="59.66498" lon="17.85526">
        <ele>47.481011</ele>
        <time>2020-10-12T10:11:25.344Z</time>
      </trkpt>
      <trkpt lat="59.6643" lon="17.8593">
        <ele>45.206727</ele>
        <time>2020-10-12T10:12:16.340Z</time>
      </trkpt>
      <trkpt lat="59.66235" lon="17.86148">
        <ele>46.895564</ele>
        <time>2020-10-12T10:13:13.353Z</time>
      </trkpt>
      <trkpt lat="59.66173" lon="17.86553">
        <ele>51.262803</ele>
        <time>2020-10-12T10:14:23.342Z</time>
      </trkpt>
      <trkpt lat="59.65976" lon="17.86908">
        <ele>43.01033</ele>
        <time>2020-10-12T10:15:04.352Z</time>
      </trkpt>
      <trkpt lat="59.65806" lon="17.86886">
        <ele>42.610407</ele>
        <time>2020-10-12T10:16:03.348Z</time>
      </trkpt>
      <trkpt lat="59.65681" lon="17.87177">
        <ele>41.42674</ele>
        <time>2020-10-12T10:16:44.346Z</time>
      </trkpt>
      <trkpt lat="59.65523" lon="17.87481">
        <ele>42.864822</ele>
        <time>2020-10-12T10:17:32.365Z</time>
      </trkpt>
      <trkpt lat="59.65324" lon="17.87682">
        <ele>43.121112</ele>
        <time>2020-10-12T10:18:36.350Z</time>
      </trkpt>
      <trkpt lat="59.65131" lon="17.87934">
        <ele>40.445867</ele>
        <time>2020-10-12T10:19:19.354Z</time>
      </trkpt>
      <trkpt lat="59.65035" lon="17.88325">
        <ele>42.100271</ele>
        <time>2020-10-12T10:20:04.354Z</time>
      </trkpt>
      <trkpt lat="59.64888" lon="17.88527">
        <ele>48.24931</ele>
        <time>2020-10-12T10:21:19.357Z</time>
      </trkpt>
      <trkpt lat="59.64685" lon="17.88616">
        <ele>47.138853</ele>
        <time>2020-10-12T10:22:06.360Z</time>
      </trkpt>
      <trkpt lat="59.64449" lon="17.88548">
        <ele>40.715936</ele>
        <time>2020-10-12T10:22:47.358Z</time>
      </trkpt>
      <trkpt lat="59.64218" lon="17.88512">
        <ele>37.60644</ele>
        <time>2020-10-12T10:23:45.377Z</time>
      </trkpt>
      <trkpt lat="59.64059" lon="17.88348">
        <ele>49.745101</ele>
        <time>2020-10-12T10:25:09.347Z</time>
      </trkpt>
      <trkpt lat="59.63918" lon="17.88076">
        <ele>48.602886</ele>
        <time>2020-10-12T10:26:13.379Z</time>
      </trkpt>
      <trkpt lat="59.638" lon="17.87691">
        <ele>40.621803</ele>
        <time>2020-10-12T10:26:57.353Z</time>
      </trkpt>
      <trkpt lat="59.63695" lon="17.8729">
        <ele>37.273521</ele>
        <time>2020-10-12T10:27:47.357Z</time>
      </trkpt>
      <trkpt lat="59.63642" lon="17.86827">
        <ele>33.44224</ele>
        <time>2020-10-12T10:28:28.365Z</time>
      </trkpt>
      <trkpt lat="59.63672" lon="17.86447">
        <ele>33.535296</ele>
        <time>2020-10-12T10:29:08.350Z</time>
      </trkpt>
      <trkpt lat="59.63755" lon="17.86045">
        <ele>37.412689</ele>
        <time>2020-10-12T10:32:37.368Z</time>
      </trkpt>
      <trkpt lat="59.63546" lon="17.86054">
        <ele>37.075341</ele>
        <time>2020-10-12T10:33:25.356Z</time>
      </trkpt>
      <trkpt lat="59.63323" lon="17.86053">
        <ele>36.858829</ele>
        <time>2020-10-12T10:34:18.356Z</time>
      </trkpt>
      <trkpt lat="59.63093" lon="17.86033">
        <ele>34.978689</ele>
        <time>2020-10-12T10:35:10.366Z</time>
      </trkpt>
      <trkpt lat="59.62852" lon="17.86026">
        <ele>32.846983</ele>
        <time>2020-10-12T10:36:07.369Z</time>
      </trkpt>
      <trkpt lat="59.62643" lon="17.86086">
        <ele>38.28481</ele>
        <time>2020-10-12T10:37:12.384Z</time>
      </trkpt>
      <trkpt lat="59.62419" lon="17.86063">
        <ele>41.3461</ele>
        <time>2020-10-12T10:38:31.384Z</time>
      </trkpt>
      <trkpt lat="59.62158" lon="17.85978">
        <ele>33.685774</ele>
        <time>2020-10-12T10:39:13.406Z</time>
      </trkpt>
      <trkpt lat="59.61963" lon="17.85883">
        <ele>29.934507</ele>
        <time>2020-10-12T10:39:54.386Z</time>
      </trkpt>
      <trkpt lat="59.61752" lon="17.85923">
        <ele>35.86023</ele>
        <time>2020-10-12T10:41:00.404Z</time>
      </trkpt>
      <trkpt lat="59.6155" lon="17.85945">
        <ele>48.640833</ele>
        <time>2020-10-12T10:42:39.362Z</time>
      </trkpt>
      <trkpt lat="59.61425" lon="17.86242">
        <ele>53.542522</ele>
        <time>2020-10-12T10:44:06.367Z</time>
      </trkpt>
      <trkpt lat="59.61237" lon="17.86435">
        <ele>48.417399</ele>
        <time>2020-10-12T10:44:59.365Z</time>
      </trkpt>
      <trkpt lat="59.61103" lon="17.86752">
        <ele>41.750251</ele>
        <time>2020-10-12T10:45:53.373Z</time>
      </trkpt>
      <trkpt lat="59.60939" lon="17.87081">
        <ele>37.935742</ele>
        <time>2020-10-12T10:46:43.363Z</time>
      </trkpt>
      <trkpt lat="59.60853" lon="17.87505">
        <ele>45.10341</ele>
        <time>2020-10-12T10:47:44.384Z</time>
      </trkpt>
      <trkpt lat="59.60755" lon="17.87846">
        <ele>49.755469</ele>
        <time>2020-10-12T10:48:54.369Z</time>
      </trkpt>
      <trkpt lat="59.60587" lon="17.88088">
        <ele>50.522185</ele>
        <time>2020-10-12T10:49:54.363Z</time>
      </trkpt>
      <trkpt lat="59.60386" lon="17.8819">
        <ele>51.640466</ele>
        <time>2020-10-12T10:50:54.374Z</time>
      </trkpt>
      <trkpt lat="59.60173" lon="17.8822">
        <ele>60.230293</ele>
        <time>2020-10-12T10:52:04.363Z</time>
      </trkpt>
      <trkpt lat="59.59947" lon="17.88188">
        <ele>58.881807</ele>
        <time>2020-10-12T10:53:00.357Z</time>
      </trkpt>
      <trkpt lat="59.59738" lon="17.8841">
        <ele>51.048164</ele>
        <time>2020-10-12T10:53:40.381Z</time>
      </trkpt>
      <trkpt lat="59.59523" lon="17.88743">
        <ele>44.000799</ele>
        <time>2020-10-12T10:54:14.372Z</time>
      </trkpt>
      <trkpt lat="59.59329" lon="17.88983">
        <ele>46.507719</ele>
        <time>2020-10-12T10:55:04.379Z</time>
      </trkpt>
      <trkpt lat="59.5927" lon="17.8934">
        <ele>47.419616</ele>
        <time>2020-10-12T10:56:06.384Z</time>
      </trkpt>
      <trkpt lat="59.59348" lon="17.89643">
        <ele>49.495959</ele>
        <time>2020-10-12T10:57:06.364Z</time>
      </trkpt>
      <trkpt lat="59.59484" lon="17.89991">
        <ele>49.41143</ele>
        <time>2020-10-12T10:58:03.355Z</time>
      </trkpt>
      <trkpt lat="59.59412" lon="17.90202">
        <ele>47.093061</ele>
        <time>2020-10-12T10:59:05.348Z</time>
      </trkpt>
      <trkpt lat="59.59275" lon="17.90454">
        <ele>44.002083</ele>
        <time>2020-10-12T10:59:56.379Z</time>
      </trkpt>
      <trkpt lat="59.59175" lon="17.9098">
        <ele>33.888511</ele>
        <time>2020-10-12T11:00:36.367Z</time>
      </trkpt>
      <trkpt lat="59.59007" lon="17.9125">
        <ele>30.11792</ele>
        <time>2020-10-12T11:01:07.355Z</time>
      </trkpt>
      <trkpt lat="59.58929" lon="17.91642">
        <ele>30.179404</ele>
        <time>2020-10-12T11:01:50.403Z</time>
      </trkpt>
      <trkpt lat="59.58824" lon="17.91997">
        <ele>30.204455</ele>
        <time>2020-10-12T11:02:35.389Z</time>
      </trkpt>
      <trkpt lat="59.58809" lon="17.92423">
        <ele>31.685769</ele>
        <time>2020-10-12T11:03:17.380Z</time>
      </trkpt>
      <trkpt lat="59.58902" lon="17.92729">
        <ele>39.291518</ele>
        <time>2020-10-12T11:04:07.371Z</time>
      </trkpt>
      <trkpt lat="59.5905" lon="17.92997">
        <ele>42.805905</ele>
        <time>2020-10-12T11:05:21.391Z</time>
      </trkpt>
      <trkpt lat="59.59005" lon="17.93369">
        <ele>41.401905</ele>
        <time>2020-10-12T11:06:17.400Z</time>
      </trkpt>
      <trkpt lat="59.58846" lon="17.93677">
        <ele>39.518906</ele>
        <time>2020-10-12T11:07:10.381Z</time>
      </trkpt>
      <trkpt lat="59.58685" lon="17.93996">
        <ele>37.86867</ele>
        <time>2020-10-12T11:07:58.398Z</time>
      </trkpt>
      <trkpt lat="59.58509" lon="17.94278">
        <ele>34.958931</ele>
        <time>2020-10-12T11:08:39.381Z</time>
      </trkpt>
      <trkpt lat="59.58328" lon="17.94625">
        <ele>31.438987</ele>
        <time>2020-10-12T11:09:19.371Z</time>
      </trkpt>
      <trkpt lat="59.58176" lon="17.94987">
        <ele>27.13699</ele>
        <time>2020-10-12T11:09:59.400Z</time>
      </trkpt>
      <trkpt lat="59.58135" lon="17.95427">
        <ele>27.684288</ele>
        <time>2020-10-12T11:10:41.417Z</time>
      </trkpt>
      <trkpt lat="59.58023" lon="17.95783">
        <ele>29.435465</ele>
        <time>2020-10-12T11:11:28.361Z</time>
      </trkpt>
      <trkpt lat="59.57852" lon="17.96033">
        <ele>27.27918</ele>
        <time>2020-10-12T11:12:15.380Z</time>
      </trkpt>
      <trkpt lat="59.57662" lon="17.96266">
        <ele>28.727433</ele>
        <time>2020-10-12T11:13:22.375Z</time>
      </trkpt>
      <trkpt lat="59.57488" lon="17.96345">
        <ele>33.241785</ele>
        <time>2020-10-12T11:14:25.356Z</time>
      </trkpt>
      <trkpt lat="59.57274" lon="17.96401">
        <ele>31.370314</ele>
        <time>2020-10-12T11:15:30.357Z</time>
      </trkpt>
      <trkpt lat="59.57065" lon="17.96461">
        <ele>30.238429</ele>
        <time>2020-10-12T11:16:16.364Z</time>
      </trkpt>
      <trkpt lat="59.56866" lon="17.96394">
        <ele>35.306871</ele>
        <time>2020-10-12T11:17:19.368Z</time>
      </trkpt>
      <trkpt lat="59.56665" lon="17.96342">
        <ele>38.564643</ele>
        <time>2020-10-12T11:18:21.380Z</time>
      </trkpt>
      <trkpt lat="59.5641" lon="17.96035">
        <ele>31.807707</ele>
        <time>2020-10-12T11:19:07.412Z</time>
      </trkpt>
      <trkpt lat="59.56211" lon="17.95825">
        <ele>39.909868</ele>
        <time>2020-10-12T11:20:08.389Z</time>
      </trkpt>
      <trkpt lat="59.56035" lon="17.95625">
        <ele>41.842186</ele>
        <time>2020-10-12T11:21:20.402Z</time>
      </trkpt>
      <trkpt lat="59.55825" lon="17.95564">
        <ele>45.139522</ele>
        <time>2020-10-12T11:22:24.386Z</time>
      </trkpt>
      <trkpt lat="59.55697" lon="17.95223">
        <ele>44.275959</ele>
        <time>2020-10-12T11:23:17.408Z</time>
      </trkpt>
      <trkpt lat="59.55624" lon="17.9482">
        <ele>40.137301</ele>
        <time>2020-10-12T11:24:08.372Z</time>
      </trkpt>
      <trkpt lat="59.55605" lon="17.94386">
        <ele>35.707011</ele>
        <time>2020-10-12T11:24:58.385Z</time>
      </trkpt>
      <trkpt lat="59.55519" lon="17.9395">
        <ele>37.334957</ele>
        <time>2020-10-12T11:25:47.366Z</time>
      </trkpt>
      <trkpt lat="59.55474" lon="17.93535">
        <ele>38.372539</ele>
        <time>2020-10-12T11:26:51.401Z</time>
      </trkpt>
      <trkpt lat="59.55291" lon="17.93283">
        <ele>36.839426</ele>
        <time>2020-10-12T11:27:38.387Z</time>
      </trkpt>
      <trkpt lat="59.55079" lon="17.93132">
        <ele>33.29956</ele>
        <time>2020-10-12T11:28:26.369Z</time>
      </trkpt>
      <trkpt lat="59.54876" lon="17.93234">
        <ele>32.084918</ele>
        <time>2020-10-12T11:29:07.361Z</time>
      </trkpt>
      <trkpt lat="59.54674" lon="17.93349">
        <ele>32.406873</ele>
        <time>2020-10-12T11:29:56.374Z</time>
      </trkpt>
      <trkpt lat="59.54452" lon="17.93478">
        <ele>30.975029</ele>
        <time>2020-10-12T11:30:48.383Z</time>
      </trkpt>
      <trkpt lat="59.54233" lon="17.93609">
        <ele>28.413518</ele>
        <time>2020-10-12T11:31:30.404Z</time>
      </trkpt>
      <trkpt lat="59.54037" lon="17.93611">
        <ele>31.440591</ele>
        <time>2020-10-12T11:32:15.371Z</time>
      </trkpt>
      <trkpt lat="59.5382" lon="17.93565">
        <ele>39.35712</ele>
        <time>2020-10-12T11:33:27.386Z</time>
      </trkpt>
      <trkpt lat="59.53597" lon="17.93522">
        <ele>32.60755</ele>
        <time>2020-10-12T11:34:07.374Z</time>
      </trkpt>
      <trkpt lat="59.53357" lon="17.93649">
        <ele>26.766585</ele>
        <time>2020-10-12T11:35:01.373Z</time>
      </trkpt>
      <trkpt lat="59.53157" lon="17.93895">
        <ele>28.294438</ele>
        <time>2020-10-12T11:35:57.373Z</time>
      </trkpt>
      <trkpt lat="59.52926" lon="17.94059">
        <ele>30.440827</ele>
        <time>2020-10-12T11:36:55.364Z</time>
      </trkpt>
      <trkpt lat="59.52731" lon="17.94149">
        <ele>35.993546</ele>
        <time>2020-10-12T11:37:59.390Z</time>
      </trkpt>
      <trkpt lat="59.52542" lon="17.94277">
        <ele>41.376951</ele>
        <time>2020-10-12T11:39:01.417Z</time>
      </trkpt>
      <trkpt lat="59.52327" lon="17.94456">
        <ele>40.638159</ele>
        <time>2020-10-12T11:40:02.390Z</time>
      </trkpt>
      <trkpt lat="59.52095" lon="17.94558">
        <ele>35.226796</ele>
        <time>2020-10-12T11:40:54.380Z</time>
      </trkpt>
      <trkpt lat="59.51914" lon="17.94776">
        <ele>32.517553</ele>
        <time>2020-10-12T11:41:44.369Z</time>
      </trkpt>
      <trkpt lat="59.51817" lon="17.95127">
        <ele>30.59045</ele>
        <time>2020-10-12T11:42:25.395Z</time>
      </trkpt>
      <trkpt lat="59.51676" lon="17.95468">
        <ele>31.886499</ele>
        <time>2020-10-12T11:43:21.385Z</time>
      </trkpt>
      <trkpt lat="59.51695" lon="17.95793">
        <ele>34.83864</ele>
        <time>2020-10-12T11:44:24.366Z</time>
      </trkpt>
      <trkpt lat="59.51586" lon="17.96098">
        <ele>37.675327</ele>
        <time>2020-10-12T11:45:29.360Z</time>
      </trkpt>
      <trkpt lat="59.51445" lon="17.96392">
        <ele>36.348582</ele>
        <time>2020-10-12T11:46:31.402Z</time>
      </trkpt>
      <trkpt lat="59.51284" lon="17.96637">
        <ele>52.803359</ele>
        <time>2020-10-12T11:47:51.362Z</time>
      </trkpt>
      <trkpt lat="59.51094" lon="17.96923">
        <ele>49.617491</ele>
        <time>2020-10-12T11:48:42.358Z</time>
      </trkpt>
      <trkpt lat="59.50903" lon="17.97181">
        <ele>29.571925</ele>
        <time>2020-10-12T11:49:29.368Z</time>
      </trkpt>
      <trkpt lat="59.50778" lon="17.97498">
        <ele>30.992095</ele>
        <time>2020-10-12T11:50:31.381Z</time>
      </trkpt>
      <trkpt lat="59.50622" lon="17.97327">
        <ele>29.371515</ele>
        <time>2020-10-12T11:51:20.388Z</time>
      </trkpt>
      <trkpt lat="59.50479" lon="17.97014">
        <ele>29.245354</ele>
        <time>2020-10-12T11:52:13.367Z</time>
      </trkpt>
      <trkpt lat="59.50308" lon="17.96775">
        <ele>27.453385</ele>
        <time>2020-10-12T11:52:59.378Z</time>
      </trkpt>
      <trkpt lat="59.50161" lon="17.96455">
        <ele>30.782782</ele>
        <time>2020-10-12T11:53:51.404Z</time>
      </trkpt>
      <trkpt lat="59.5004" lon="17.96122">
        <ele>31.932146</ele>
        <time>2020-10-12T11:54:58.403Z</time>
      </trkpt>
      <trkpt lat="59.49897" lon="17.95814">
        <ele>31.935154</ele>
        <time>2020-10-12T11:56:00.413Z</time>
      </trkpt>
      <trkpt lat="59.49734" lon="17.95575">
        <ele>31.710748</ele>
        <time>2020-10-12T11:57:08.403Z</time>
      </trkpt>
      <trkpt lat="59.49604" lon="17.95211">
        <ele>31.138706</ele>
        <time>2020-10-12T11:58:07.403Z</time>
      </trkpt>
      <trkpt lat="59.49444" lon="17.9493">
        <ele>33.204268</ele>
        <time>2020-10-12T11:59:12.398Z</time>
      </trkpt>
      <trkpt lat="59.49254" lon="17.94801">
        <ele>37.383389</ele>
        <time>2020-10-12T12:00:32.385Z</time>
      </trkpt>
      <trkpt lat="59.49063" lon="17.94661">
        <ele>44.719541</ele>
        <time>2020-10-12T12:02:11.389Z</time>
      </trkpt>
      <trkpt lat="59.48897" lon="17.94407">
        <ele>50.639735</ele>
        <time>2020-10-12T12:03:15.412Z</time>
      </trkpt>
      <trkpt lat="59.48759" lon="17.94099">
        <ele>56.117247</ele>
        <time>2020-10-12T12:04:30.386Z</time>
      </trkpt>
      <trkpt lat="59.48683" lon="17.93598">
        <ele>43.728905</ele>
        <time>2020-10-12T12:05:12.379Z</time>
      </trkpt>
      <trkpt lat="59.48596" lon="17.93196">
        <ele>38.496866</ele>
        <time>2020-10-12T12:06:00.399Z</time>
      </trkpt>
      <trkpt lat="59.48551" lon="17.92939">
        <ele>44.534721</ele>
        <time>2020-10-12T12:07:40.419Z</time>
      </trkpt>
      <trkpt lat="59.48444" lon="17.9271">
        <ele>41.329729</ele>
        <time>2020-10-12T12:08:38.399Z</time>
      </trkpt>
      <trkpt lat="59.4837" lon="17.9235">
        <ele>35.531218</ele>
        <time>2020-10-12T12:09:51.396Z</time>
      </trkpt>
      <trkpt lat="59.48321" lon="17.91883">
        <ele>33.301127</ele>
        <time>2020-10-12T12:10:35.388Z</time>
      </trkpt>
      <trkpt lat="59.48125" lon="17.91879">
        <ele>33.099962</ele>
        <time>2020-10-12T12:11:49.381Z</time>
      </trkpt>
      <trkpt lat="59.47912" lon="17.91825">
        <ele>33.062801</ele>
        <time>2020-10-12T12:12:31.381Z</time>
      </trkpt>
      <trkpt lat="59.47695" lon="17.91739">
        <ele>33.328198</ele>
        <time>2020-10-12T12:13:30.388Z</time>
      </trkpt>
      <trkpt lat="59.4747" lon="17.91757">
        <ele>34.984621</ele>
        <time>2020-10-12T12:14:26.382Z</time>
      </trkpt>
      <trkpt lat="59.47273" lon="17.91778">
        <ele>40.659486</ele>
        <time>2020-10-12T12:16:08.379Z</time>
      </trkpt>
      <trkpt lat="59.4707" lon="17.9176">
        <ele>48.256565</ele>
        <time>2020-10-12T12:17:27.372Z</time>
      </trkpt>
      <trkpt lat="59.46872" lon="17.91903">
        <ele>51.132653</ele>
        <time>2020-10-12T12:19:11.401Z</time>
      </trkpt>
      <trkpt lat="59.46667" lon="17.9191">
        <ele>46.674924</ele>
        <time>2020-10-12T12:41:21.860Z</time>
      </trkpt>
      <trkpt lat="59.46474" lon="17.92075">
        <ele>38.984255</ele>
        <time>2020-10-12T12:42:07.878Z</time>
      </trkpt>
      <trkpt lat="59.46247" lon="17.92184">
        <ele>36.326817</ele>
        <time>2020-10-12T12:42:50.845Z</time>
      </trkpt>
      <trkpt lat="59.46029" lon="17.92218">
        <ele>38.095907</ele>
        <time>2020-10-12T12:43:46.844Z</time>
      </trkpt>
      <trkpt lat="59.45823" lon="17.923">
        <ele>47.022535</ele>
        <time>2020-10-12T12:44:42.835Z</time>
      </trkpt>
      <trkpt lat="59.45619" lon="17.92305">
        <ele>41.259997</ele>
        <time>2020-10-12T12:45:42.843Z</time>
      </trkpt>
      <trkpt lat="59.4539" lon="17.92451">
        <ele>38.639714</ele>
        <time>2020-10-12T12:46:38.839Z</time>
      </trkpt>
      <trkpt lat="59.45299" lon="17.92675">
        <ele>39.175092</ele>
        <time>2020-10-12T12:47:33.876Z</time>
      </trkpt>
      <trkpt lat="59.45197" lon="17.92989">
        <ele>29.586669</ele>
        <time>2020-10-12T12:48:24.843Z</time>
      </trkpt>
      <trkpt lat="59.45006" lon="17.9311">
        <ele>36.578366</ele>
        <time>2020-10-12T12:49:27.837Z</time>
      </trkpt>
      <trkpt lat="59.44914" lon="17.92808">
        <ele>46.299205</ele>
        <time>2020-10-12T12:50:50.845Z</time>
      </trkpt>
      <trkpt lat="59.44727" lon="17.92987">
        <ele>47.292612</ele>
        <time>2020-10-12T12:52:14.852Z</time>
      </trkpt>
      <trkpt lat="59.44554" lon="17.9321">
        <ele>56.727438</ele>
        <time>2020-10-12T12:54:02.851Z</time>
      </trkpt>
      <trkpt lat="59.44557" lon="17.93516">
        <ele>62.874599</ele>
        <time>2020-10-12T12:54:59.867Z</time>
      </trkpt>
      <trkpt lat="59.44518" lon="17.93872">
        <ele>52.553418</ele>
        <time>2020-10-12T12:55:50.856Z</time>
      </trkpt>
      <trkpt lat="59.44309" lon="17.94016">
        <ele>48.931017</ele>
        <time>2020-10-12T12:56:57.840Z</time>
      </trkpt>
      <trkpt lat="59.44335" lon="17.94453">
        <ele>46.286782</ele>
        <time>2020-10-12T12:57:52.865Z</time>
      </trkpt>
      <trkpt lat="59.44221" lon="17.94816">
        <ele>37.371175</ele>
        <time>2020-10-12T12:58:35.858Z</time>
      </trkpt>
      <trkpt lat="59.44116" lon="17.95161">
        <ele>38.089006</ele>
        <time>2020-10-12T12:59:45.847Z</time>
      </trkpt>
      <trkpt lat="59.44015" lon="17.95293">
        <ele>35.912901</ele>
        <time>2020-10-12T13:00:48.858Z</time>
      </trkpt>
      <trkpt lat="59.43811" lon="17.95469">
        <ele>38.385898</ele>
        <time>2020-10-12T13:01:55.845Z</time>
      </trkpt>
      <trkpt lat="59.43593" lon="17.9555">
        <ele>34.864549</ele>
        <time>2020-10-12T13:02:40.860Z</time>
      </trkpt>
      <trkpt lat="59.43382" lon="17.95642">
        <ele>34.580437</ele>
        <time>2020-10-12T13:03:29.846Z</time>
      </trkpt>
      <trkpt lat="59.43178" lon="17.95748">
        <ele>32.577758</ele>
        <time>2020-10-12T13:04:15.835Z</time>
      </trkpt>
      <trkpt lat="59.43" lon="17.95983">
        <ele>32.156704</ele>
        <time>2020-10-12T13:04:57.863Z</time>
      </trkpt>
      <trkpt lat="59.4285" lon="17.96154">
        <ele>36.035546</ele>
        <time>2020-10-12T13:05:47.858Z</time>
      </trkpt>
      <trkpt lat="59.42737" lon="17.9636">
        <ele>42.332464</ele>
        <time>2020-10-12T13:06:57.840Z</time>
      </trkpt>
      <trkpt lat="59.42595" lon="17.96691">
        <ele>47.668208</ele>
        <time>2020-10-12T13:08:10.848Z</time>
      </trkpt>
      <trkpt lat="59.4242" lon="17.96851">
        <ele>61.467729</ele>
        <time>2020-10-12T13:10:07.868Z</time>
      </trkpt>
      <trkpt lat="59.42232" lon="17.97082">
        <ele>59.674388</ele>
        <time>2020-10-12T13:11:19.848Z</time>
      </trkpt>
      <trkpt lat="59.42234" lon="17.97382">
        <ele>50.678319</ele>
        <time>2020-10-12T13:12:14.875Z</time>
      </trkpt>
      <trkpt lat="59.42203" lon="17.97771">
        <ele>38.141175</ele>
        <time>2020-10-12T13:12:55.922Z</time>
      </trkpt>
      <trkpt lat="59.42014" lon="17.9795">
        <ele>45.258913</ele>
        <time>2020-10-12T13:14:31.903Z</time>
      </trkpt>
      <trkpt lat="59.41881" lon="17.98281">
        <ele>46.188701</ele>
        <time>2020-10-12T13:15:26.846Z</time>
      </trkpt>
      <trkpt lat="59.41696" lon="17.98344">
        <ele>43.36427</ele>
        <time>2020-10-12T13:16:20.878Z</time>
      </trkpt>
      <trkpt lat="59.41554" lon="17.98182">
        <ele>40.775855</ele>
        <time>2020-10-12T13:17:14.887Z</time>
      </trkpt>
      <trkpt lat="59.41377" lon="17.98054">
        <ele>38.308953</ele>
        <time>2020-10-12T13:18:09.853Z</time>
      </trkpt>
      <trkpt lat="59.4118" lon="17.98128">
        <ele>52.455806</ele>
        <time>2020-10-12T13:19:25.850Z</time>
      </trkpt>
      <trkpt lat="59.4098" lon="17.98121">
        <ele>57.905657</ele>
        <time>2020-10-12T13:20:58.861Z</time>
      </trkpt>
      <trkpt lat="59.40901" lon="17.97786">
        <ele>59.359082</ele>
        <time>2020-10-12T13:22:20.868Z</time>
      </trkpt>
      <trkpt lat="59.40888" lon="17.97415">
        <ele>64.485964</ele>
        <time>2020-10-12T13:24:00.851Z</time>
      </trkpt>
      <trkpt lat="59.40709" lon="17.97513">
        <ele>68.605412</ele>
        <time>2020-10-12T13:25:04.842Z</time>
      </trkpt>
      <trkpt lat="59.40497" lon="17.97611">
        <ele>57.280688</ele>
        <time>2020-10-12T13:25:50.841Z</time>
      </trkpt>
      <trkpt lat="59.40318" lon="17.97404">
        <ele>54.900893</ele>
        <time>2020-10-12T13:26:40.867Z</time>
      </trkpt>
      <trkpt lat="59.4015" lon="17.97709">
        <ele>54.48826</ele>
        <time>2020-10-12T13:27:26.882Z</time>
      </trkpt>
      <trkpt lat="59.39997" lon="17.98032">
        <ele>53.634965</ele>
        <time>2020-10-12T13:28:06.851Z</time>
      </trkpt>
      <trkpt lat="59.39836" lon="17.98314">
        <ele>49.864294</ele>
        <time>2020-10-12T13:28:46.860Z</time>
      </trkpt>
      <trkpt lat="59.39627" lon="17.98544">
        <ele>46.515465</ele>
        <time>2020-10-12T13:29:28.854Z</time>
      </trkpt>
      <trkpt lat="59.3942" lon="17.98691">
        <ele>47.598156</ele>
        <time>2020-10-12T13:30:11.875Z</time>
      </trkpt>
      <trkpt lat="59.39221" lon="17.9896">
        <ele>42.264352</ele>
        <time>2020-10-12T13:30:52.856Z</time>
      </trkpt>
      <trkpt lat="59.39075" lon="17.9943">
        <ele>35.933024</ele>
        <time>2020-10-12T13:31:32.842Z</time>
      </trkpt>
      <trkpt lat="59.38924" lon="17.99751">
        <ele>49.643111</ele>
        <time>2020-10-12T13:32:40.869Z</time>
      </trkpt>
      <trkpt lat="59.38754" lon="17.99845">
        <ele>54.236271</ele>
        <time>2020-10-12T13:34:12.848Z</time>
      </trkpt>
      <trkpt lat="59.38546" lon="17.9978">
        <ele>41.789467</ele>
        <time>2020-10-12T13:34:57.851Z</time>
      </trkpt>
      <trkpt lat="59.38336" lon="17.99853">
        <ele>36.855958</ele>
        <time>2020-10-12T13:35:38.857Z</time>
      </trkpt>
      <trkpt lat="59.38171" lon="18.00112">
        <ele>42.606922</ele>
        <time>2020-10-12T13:36:23.846Z</time>
      </trkpt>
      <trkpt lat="59.37981" lon="18.00201">
        <ele>44.024928</ele>
        <time>2020-10-12T13:37:39.863Z</time>
      </trkpt>
      <trkpt lat="59.37918" lon="18.006">
        <ele>38.17228</ele>
        <time>2020-10-12T13:38:30.847Z</time>
      </trkpt>
      <trkpt lat="59.37733" lon="18.00866">
        <ele>44.208397</ele>
        <time>2020-10-12T13:39:21.862Z</time>
      </trkpt>
      <trkpt lat="59.3773" lon="18.01186">
        <ele>43.15967</ele>
        <time>2020-10-12T13:40:15.845Z</time>
      </trkpt>
      <trkpt lat="59.37635" lon="18.01557">
        <ele>34.08662</ele>
        <time>2020-10-12T13:41:41.873Z</time>
      </trkpt>
      <trkpt lat="59.37486" lon="18.01801">
        <ele>36.780755</ele>
        <time>2020-10-12T13:42:23.855Z</time>
      </trkpt>
      <trkpt lat="59.37353" lon="18.02084">
        <ele>40.006024</ele>
        <time>2020-10-12T13:43:49.907Z</time>
      </trkpt>
      <trkpt lat="59.37176" lon="18.02055">
        <ele>43.431722</ele>
        <time>2020-10-12T13:45:09.838Z</time>
      </trkpt>
      <trkpt lat="59.36994" lon="18.02109">
        <ele>41.188113</ele>
        <time>2020-10-12T13:46:11.865Z</time>
      </trkpt>
      <trkpt lat="59.36795" lon="18.0213">
        <ele>51.129605</ele>
        <time>2020-10-12T13:47:37.859Z</time>
      </trkpt>
      <trkpt lat="59.36603" lon="18.02155">
        <ele>66.262176</ele>
        <time>2020-10-12T13:49:26.852Z</time>
      </trkpt>
      <trkpt lat="59.36456" lon="18.02444">
        <ele>64.042402</ele>
        <time>2020-10-12T13:50:21.846Z</time>
      </trkpt>
      <trkpt lat="59.36296" lon="18.02654">
        <ele>54.918084</ele>
        <time>2020-10-12T13:51:11.882Z</time>
      </trkpt>
      <trkpt lat="59.36051" lon="18.02776">
        <ele>51.235251</ele>
        <time>2020-10-12T13:51:59.863Z</time>
      </trkpt>
      <trkpt lat="59.3583" lon="18.02924">
        <ele>45.240648</ele>
        <time>2020-10-12T13:52:47.841Z</time>
      </trkpt>
      <trkpt lat="59.35695" lon="18.03163">
        <ele>53.225372</ele>
        <time>2020-10-12T13:54:03.879Z</time>
      </trkpt>
      <trkpt lat="59.35526" lon="18.03448">
        <ele>49.329678</ele>
        <time>2020-10-12T13:54:46.859Z</time>
      </trkpt>
      <trkpt lat="59.35482" lon="18.03795">
        <ele>37.847022</ele>
        <time>2020-10-12T13:55:32.856Z</time>
      </trkpt>
      <trkpt lat="59.35372" lon="18.04071">
        <ele>35.443243</ele>
        <time>2020-10-12T13:57:13.878Z</time>
      </trkpt>
      <trkpt lat="59.35186" lon="18.04222">
        <ele>35.388771</ele>
        <time>2020-10-12T13:58:03.858Z</time>
      </trkpt>
      <trkpt lat="59.35037" lon="18.04485">
        <ele>41.475356</ele>
        <time>2020-10-12T13:59:22.861Z</time>
      </trkpt>
      <trkpt lat="59.35046" lon="18.04912">
        <ele>55.475672</ele>
        <time>2020-10-12T14:00:24.877Z</time>
      </trkpt>
      <trkpt lat="59.3486" lon="18.05106">
        <ele>47.964885</ele>
        <time>2020-10-12T14:01:50.847Z</time>
      </trkpt>
      <trkpt lat="59.3466" lon="18.05296">
        <ele>52.280444</ele>
        <time>2020-10-12T14:03:29.843Z</time>
      </trkpt>
      <trkpt lat="59.34469" lon="18.05511">
        <ele>65.924419</ele>
        <time>2020-10-12T14:05:32.858Z</time>
      </trkpt>
      <trkpt lat="59.34263" lon="18.0567">
        <ele>47.454886</ele>
        <time>2020-10-12T14:06:22.885Z</time>
      </trkpt>
      <trkpt lat="59.3408" lon="18.05888">
        <ele>51.914637</ele>
        <time>2020-10-12T14:07:08.870Z</time>
      </trkpt>
      <trkpt lat="59.33875" lon="18.06075">
        <ele>66.075498</ele>
        <time>2020-10-12T14:07:57.866Z</time>
      </trkpt>
      <trkpt lat="59.33675" lon="18.06274">
        <ele>64.559459</ele>
        <time>2020-10-12T14:08:58.852Z</time>
      </trkpt>
    </trkseg>
  </trk>
</gpx>